<?xml version="1.0" encoding="UTF-8" standalone="no" ?>
<gpx xmlns="http://www.topografix.com/GPX/1/1" xmlns:xsi="http://www.w3.org/2001/XMLSchema-instance" xsi:schemaLocation="http://www.topografix.com/GPX/1/1 http://www.topografix.com/GPX/1/1/gpx.xsd" version="1.1" creator="VisuGPX - https://www.visugpx.com">
  <metadata>
    <name>Bagnols - Pennafort - Blavet</name>
    <desc><![CDATA[Boucle au départ de Bagnols par Pennafort et le Blavet.]]></desc>
  </metadata>
  <trk>
    <name><![CDATA[Bagnols - Pennafort - Blavet_1]]></name>
    <trkseg>
      <trkpt lat="43.54643" lon="6.67753">
        <ele>274</ele>
        <time>2011-12-11T07:59:00Z</time>
      </trkpt>
      <trkpt lat="43.54645" lon="6.67751">
        <ele>274</ele>
        <time>2011-12-11T07:59:01Z</time>
      </trkpt>
      <trkpt lat="43.54648" lon="6.67749">
        <ele>274</ele>
        <time>2011-12-11T07:59:02Z</time>
      </trkpt>
      <trkpt lat="43.54651" lon="6.67747">
        <ele>274</ele>
        <time>2011-12-11T07:59:03Z</time>
      </trkpt>
      <trkpt lat="43.54654" lon="6.67745">
        <ele>274</ele>
        <time>2011-12-11T07:59:04Z</time>
      </trkpt>
      <trkpt lat="43.54657" lon="6.67743">
        <ele>274</ele>
        <time>2011-12-11T07:59:05Z</time>
      </trkpt>
      <trkpt lat="43.5466" lon="6.6774">
        <ele>274</ele>
        <time>2011-12-11T07:59:06Z</time>
      </trkpt>
      <trkpt lat="43.54662" lon="6.67738">
        <ele>274</ele>
        <time>2011-12-11T07:59:07Z</time>
      </trkpt>
      <trkpt lat="43.54665" lon="6.67736">
        <ele>274</ele>
        <time>2011-12-11T07:59:08Z</time>
      </trkpt>
      <trkpt lat="43.54668" lon="6.67734">
        <ele>275</ele>
        <time>2011-12-11T07:59:09Z</time>
      </trkpt>
      <trkpt lat="43.54671" lon="6.67732">
        <ele>275</ele>
        <time>2011-12-11T07:59:10Z</time>
      </trkpt>
      <trkpt lat="43.54674" lon="6.6773">
        <ele>275</ele>
        <time>2011-12-11T07:59:11Z</time>
      </trkpt>
      <trkpt lat="43.54678" lon="6.67728">
        <ele>275</ele>
        <time>2011-12-11T07:59:12Z</time>
      </trkpt>
      <trkpt lat="43.54681" lon="6.67726">
        <ele>275</ele>
        <time>2011-12-11T07:59:13Z</time>
      </trkpt>
      <trkpt lat="43.54685" lon="6.67725">
        <ele>275</ele>
        <time>2011-12-11T07:59:14Z</time>
      </trkpt>
      <trkpt lat="43.54688" lon="6.67723">
        <ele>275</ele>
        <time>2011-12-11T07:59:15Z</time>
      </trkpt>
      <trkpt lat="43.54692" lon="6.67722">
        <ele>275</ele>
        <time>2011-12-11T07:59:16Z</time>
      </trkpt>
      <trkpt lat="43.54696" lon="6.6772">
        <ele>275</ele>
        <time>2011-12-11T07:59:17Z</time>
      </trkpt>
      <trkpt lat="43.547" lon="6.67719">
        <ele>275</ele>
        <time>2011-12-11T07:59:18Z</time>
      </trkpt>
      <trkpt lat="43.54704" lon="6.67717">
        <ele>275</ele>
        <time>2011-12-11T07:59:19Z</time>
      </trkpt>
      <trkpt lat="43.54709" lon="6.67715">
        <ele>275</ele>
        <time>2011-12-11T07:59:20Z</time>
      </trkpt>
      <trkpt lat="43.54713" lon="6.67713">
        <ele>275</ele>
        <time>2011-12-11T07:59:21Z</time>
      </trkpt>
      <trkpt lat="43.54717" lon="6.67712">
        <ele>275</ele>
        <time>2011-12-11T07:59:22Z</time>
      </trkpt>
      <trkpt lat="43.54721" lon="6.6771">
        <ele>275</ele>
        <time>2011-12-11T07:59:23Z</time>
      </trkpt>
      <trkpt lat="43.54725" lon="6.67709">
        <ele>275</ele>
        <time>2011-12-11T07:59:24Z</time>
      </trkpt>
      <trkpt lat="43.5473" lon="6.67707">
        <ele>275</ele>
        <time>2011-12-11T07:59:25Z</time>
      </trkpt>
      <trkpt lat="43.54734" lon="6.67704">
        <ele>275</ele>
        <time>2011-12-11T07:59:26Z</time>
      </trkpt>
      <trkpt lat="43.54737" lon="6.67701">
        <ele>275</ele>
        <time>2011-12-11T07:59:27Z</time>
      </trkpt>
      <trkpt lat="43.54741" lon="6.67697">
        <ele>274</ele>
        <time>2011-12-11T07:59:28Z</time>
      </trkpt>
      <trkpt lat="43.54745" lon="6.67693">
        <ele>274</ele>
        <time>2011-12-11T07:59:29Z</time>
      </trkpt>
      <trkpt lat="43.54749" lon="6.67689">
        <ele>274</ele>
        <time>2011-12-11T07:59:30Z</time>
      </trkpt>
      <trkpt lat="43.54753" lon="6.67685">
        <ele>274</ele>
        <time>2011-12-11T07:59:31Z</time>
      </trkpt>
      <trkpt lat="43.54758" lon="6.67681">
        <ele>274</ele>
        <time>2011-12-11T07:59:32Z</time>
      </trkpt>
      <trkpt lat="43.54761" lon="6.67677">
        <ele>274</ele>
        <time>2011-12-11T07:59:33Z</time>
      </trkpt>
      <trkpt lat="43.54765" lon="6.67673">
        <ele>274</ele>
        <time>2011-12-11T07:59:34Z</time>
      </trkpt>
      <trkpt lat="43.54769" lon="6.67669">
        <ele>274</ele>
        <time>2011-12-11T07:59:35Z</time>
      </trkpt>
      <trkpt lat="43.54773" lon="6.67665">
        <ele>274</ele>
        <time>2011-12-11T07:59:36Z</time>
      </trkpt>
      <trkpt lat="43.54778" lon="6.67661">
        <ele>274</ele>
        <time>2011-12-11T07:59:37Z</time>
      </trkpt>
      <trkpt lat="43.54782" lon="6.67657">
        <ele>273</ele>
        <time>2011-12-11T07:59:38Z</time>
      </trkpt>
      <trkpt lat="43.54786" lon="6.67653">
        <ele>273</ele>
        <time>2011-12-11T07:59:39Z</time>
      </trkpt>
      <trkpt lat="43.54821" lon="6.67596">
        <ele>272</ele>
        <time>2011-12-11T07:59:49Z</time>
      </trkpt>
      <trkpt lat="43.54843" lon="6.67527">
        <ele>272</ele>
        <time>2011-12-11T07:59:59Z</time>
      </trkpt>
      <trkpt lat="43.54845" lon="6.67521">
        <ele>272</ele>
        <time>2011-12-11T08:00:00Z</time>
      </trkpt>
      <trkpt lat="43.54846" lon="6.67515">
        <ele>272</ele>
        <time>2011-12-11T08:00:01Z</time>
      </trkpt>
      <trkpt lat="43.54848" lon="6.6751">
        <ele>272</ele>
        <time>2011-12-11T08:00:02Z</time>
      </trkpt>
      <trkpt lat="43.54849" lon="6.67505">
        <ele>272</ele>
        <time>2011-12-11T08:00:03Z</time>
      </trkpt>
      <trkpt lat="43.5485" lon="6.675">
        <ele>272</ele>
        <time>2011-12-11T08:00:04Z</time>
      </trkpt>
      <trkpt lat="43.54852" lon="6.67495">
        <ele>272</ele>
        <time>2011-12-11T08:00:05Z</time>
      </trkpt>
      <trkpt lat="43.54853" lon="6.67491">
        <ele>273</ele>
        <time>2011-12-11T08:00:06Z</time>
      </trkpt>
      <trkpt lat="43.54854" lon="6.67487">
        <ele>273</ele>
        <time>2011-12-11T08:00:07Z</time>
      </trkpt>
      <trkpt lat="43.54856" lon="6.67482">
        <ele>273</ele>
        <time>2011-12-11T08:00:08Z</time>
      </trkpt>
      <trkpt lat="43.54857" lon="6.67478">
        <ele>273</ele>
        <time>2011-12-11T08:00:09Z</time>
      </trkpt>
      <trkpt lat="43.54858" lon="6.67473">
        <ele>274</ele>
        <time>2011-12-11T08:00:10Z</time>
      </trkpt>
      <trkpt lat="43.5486" lon="6.67469">
        <ele>274</ele>
        <time>2011-12-11T08:00:11Z</time>
      </trkpt>
      <trkpt lat="43.5486" lon="6.67465">
        <ele>274</ele>
        <time>2011-12-11T08:00:12Z</time>
      </trkpt>
      <trkpt lat="43.54862" lon="6.67461">
        <ele>275</ele>
        <time>2011-12-11T08:00:13Z</time>
      </trkpt>
      <trkpt lat="43.54863" lon="6.67457">
        <ele>275</ele>
        <time>2011-12-11T08:00:14Z</time>
      </trkpt>
      <trkpt lat="43.54864" lon="6.67453">
        <ele>275</ele>
        <time>2011-12-11T08:00:15Z</time>
      </trkpt>
      <trkpt lat="43.54865" lon="6.67449">
        <ele>275</ele>
        <time>2011-12-11T08:00:16Z</time>
      </trkpt>
      <trkpt lat="43.54866" lon="6.67445">
        <ele>276</ele>
        <time>2011-12-11T08:00:17Z</time>
      </trkpt>
      <trkpt lat="43.54867" lon="6.67441">
        <ele>276</ele>
        <time>2011-12-11T08:00:18Z</time>
      </trkpt>
      <trkpt lat="43.54868" lon="6.67437">
        <ele>276</ele>
        <time>2011-12-11T08:00:19Z</time>
      </trkpt>
      <trkpt lat="43.54869" lon="6.67433">
        <ele>276</ele>
        <time>2011-12-11T08:00:20Z</time>
      </trkpt>
      <trkpt lat="43.5487" lon="6.67429">
        <ele>276</ele>
        <time>2011-12-11T08:00:21Z</time>
      </trkpt>
      <trkpt lat="43.54871" lon="6.67425">
        <ele>276</ele>
        <time>2011-12-11T08:00:22Z</time>
      </trkpt>
      <trkpt lat="43.54872" lon="6.6742">
        <ele>277</ele>
        <time>2011-12-11T08:00:23Z</time>
      </trkpt>
      <trkpt lat="43.54873" lon="6.67416">
        <ele>277</ele>
        <time>2011-12-11T08:00:24Z</time>
      </trkpt>
      <trkpt lat="43.54874" lon="6.67411">
        <ele>277</ele>
        <time>2011-12-11T08:00:25Z</time>
      </trkpt>
      <trkpt lat="43.54876" lon="6.67406">
        <ele>277</ele>
        <time>2011-12-11T08:00:26Z</time>
      </trkpt>
      <trkpt lat="43.54877" lon="6.67402">
        <ele>277</ele>
        <time>2011-12-11T08:00:27Z</time>
      </trkpt>
      <trkpt lat="43.54878" lon="6.67397">
        <ele>277</ele>
        <time>2011-12-11T08:00:28Z</time>
      </trkpt>
      <trkpt lat="43.54879" lon="6.67392">
        <ele>277</ele>
        <time>2011-12-11T08:00:29Z</time>
      </trkpt>
      <trkpt lat="43.5488" lon="6.67387">
        <ele>278</ele>
        <time>2011-12-11T08:00:30Z</time>
      </trkpt>
      <trkpt lat="43.54881" lon="6.67382">
        <ele>278</ele>
        <time>2011-12-11T08:00:31Z</time>
      </trkpt>
      <trkpt lat="43.54882" lon="6.67378">
        <ele>278</ele>
        <time>2011-12-11T08:00:32Z</time>
      </trkpt>
      <trkpt lat="43.54882" lon="6.67373">
        <ele>278</ele>
        <time>2011-12-11T08:00:33Z</time>
      </trkpt>
      <trkpt lat="43.54883" lon="6.67369">
        <ele>279</ele>
        <time>2011-12-11T08:00:34Z</time>
      </trkpt>
      <trkpt lat="43.54884" lon="6.67365">
        <ele>279</ele>
        <time>2011-12-11T08:00:35Z</time>
      </trkpt>
      <trkpt lat="43.54885" lon="6.6736">
        <ele>279</ele>
        <time>2011-12-11T08:00:36Z</time>
      </trkpt>
      <trkpt lat="43.54885" lon="6.67356">
        <ele>279</ele>
        <time>2011-12-11T08:00:37Z</time>
      </trkpt>
      <trkpt lat="43.54886" lon="6.67351">
        <ele>279</ele>
        <time>2011-12-11T08:00:38Z</time>
      </trkpt>
      <trkpt lat="43.54887" lon="6.67347">
        <ele>280</ele>
        <time>2011-12-11T08:00:39Z</time>
      </trkpt>
      <trkpt lat="43.54887" lon="6.67343">
        <ele>280</ele>
        <time>2011-12-11T08:00:40Z</time>
      </trkpt>
      <trkpt lat="43.54888" lon="6.67338">
        <ele>280</ele>
        <time>2011-12-11T08:00:41Z</time>
      </trkpt>
      <trkpt lat="43.54889" lon="6.67334">
        <ele>279</ele>
        <time>2011-12-11T08:00:42Z</time>
      </trkpt>
      <trkpt lat="43.5489" lon="6.67328">
        <ele>279</ele>
        <time>2011-12-11T08:00:43Z</time>
      </trkpt>
      <trkpt lat="43.54891" lon="6.67322">
        <ele>278</ele>
        <time>2011-12-11T08:00:44Z</time>
      </trkpt>
      <trkpt lat="43.54892" lon="6.67316">
        <ele>278</ele>
        <time>2011-12-11T08:00:45Z</time>
      </trkpt>
      <trkpt lat="43.54893" lon="6.67308">
        <ele>277</ele>
        <time>2011-12-11T08:00:46Z</time>
      </trkpt>
      <trkpt lat="43.54907" lon="6.67222">
        <ele>275</ele>
        <time>2011-12-11T08:00:56Z</time>
      </trkpt>
      <trkpt lat="43.54919" lon="6.67127">
        <ele>272</ele>
        <time>2011-12-11T08:01:06Z</time>
      </trkpt>
      <trkpt lat="43.54948" lon="6.67044">
        <ele>270</ele>
        <time>2011-12-11T08:01:16Z</time>
      </trkpt>
      <trkpt lat="43.54961" lon="6.6699">
        <ele>269</ele>
        <time>2011-12-11T08:01:26Z</time>
      </trkpt>
      <trkpt lat="43.54961" lon="6.66988">
        <ele>269</ele>
        <time>2011-12-11T08:01:27Z</time>
      </trkpt>
      <trkpt lat="43.54962" lon="6.66987">
        <ele>269</ele>
        <time>2011-12-11T08:01:28Z</time>
      </trkpt>
      <trkpt lat="43.54962" lon="6.66987">
        <ele>268</ele>
        <time>2011-12-11T08:01:29Z</time>
      </trkpt>
      <trkpt lat="43.54962" lon="6.66987">
        <ele>268</ele>
        <time>2011-12-11T08:01:30Z</time>
      </trkpt>
      <trkpt lat="43.54963" lon="6.66988">
        <ele>268</ele>
        <time>2011-12-11T08:01:31Z</time>
      </trkpt>
      <trkpt lat="43.54964" lon="6.66988">
        <ele>268</ele>
        <time>2011-12-11T08:01:32Z</time>
      </trkpt>
      <trkpt lat="43.54964" lon="6.66989">
        <ele>269</ele>
        <time>2011-12-11T08:01:33Z</time>
      </trkpt>
      <trkpt lat="43.54965" lon="6.66989">
        <ele>269</ele>
        <time>2011-12-11T08:01:35Z</time>
      </trkpt>
      <trkpt lat="43.54966" lon="6.6699">
        <ele>269</ele>
        <time>2011-12-11T08:01:36Z</time>
      </trkpt>
      <trkpt lat="43.54968" lon="6.6699">
        <ele>269</ele>
        <time>2011-12-11T08:01:37Z</time>
      </trkpt>
      <trkpt lat="43.5497" lon="6.66991">
        <ele>269</ele>
        <time>2011-12-11T08:01:38Z</time>
      </trkpt>
      <trkpt lat="43.54972" lon="6.66992">
        <ele>269</ele>
        <time>2011-12-11T08:01:39Z</time>
      </trkpt>
      <trkpt lat="43.54975" lon="6.66993">
        <ele>269</ele>
        <time>2011-12-11T08:01:40Z</time>
      </trkpt>
      <trkpt lat="43.54978" lon="6.66993">
        <ele>269</ele>
        <time>2011-12-11T08:01:41Z</time>
      </trkpt>
      <trkpt lat="43.5498" lon="6.66994">
        <ele>269</ele>
        <time>2011-12-11T08:01:42Z</time>
      </trkpt>
      <trkpt lat="43.54983" lon="6.66995">
        <ele>268</ele>
        <time>2011-12-11T08:01:43Z</time>
      </trkpt>
      <trkpt lat="43.54986" lon="6.66996">
        <ele>269</ele>
        <time>2011-12-11T08:01:44Z</time>
      </trkpt>
      <trkpt lat="43.54989" lon="6.66997">
        <ele>268</ele>
        <time>2011-12-11T08:01:45Z</time>
      </trkpt>
      <trkpt lat="43.54992" lon="6.66998">
        <ele>269</ele>
        <time>2011-12-11T08:01:46Z</time>
      </trkpt>
      <trkpt lat="43.54995" lon="6.66998">
        <ele>269</ele>
        <time>2011-12-11T08:01:47Z</time>
      </trkpt>
      <trkpt lat="43.54998" lon="6.67">
        <ele>269</ele>
        <time>2011-12-11T08:01:48Z</time>
      </trkpt>
      <trkpt lat="43.55002" lon="6.67001">
        <ele>269</ele>
        <time>2011-12-11T08:01:49Z</time>
      </trkpt>
      <trkpt lat="43.55005" lon="6.67002">
        <ele>269</ele>
        <time>2011-12-11T08:01:50Z</time>
      </trkpt>
      <trkpt lat="43.55008" lon="6.67003">
        <ele>269</ele>
        <time>2011-12-11T08:01:51Z</time>
      </trkpt>
      <trkpt lat="43.55011" lon="6.67003">
        <ele>269</ele>
        <time>2011-12-11T08:01:52Z</time>
      </trkpt>
      <trkpt lat="43.55015" lon="6.67004">
        <ele>269</ele>
        <time>2011-12-11T08:01:53Z</time>
      </trkpt>
      <trkpt lat="43.55018" lon="6.67005">
        <ele>269</ele>
        <time>2011-12-11T08:01:54Z</time>
      </trkpt>
      <trkpt lat="43.55021" lon="6.67006">
        <ele>270</ele>
        <time>2011-12-11T08:01:55Z</time>
      </trkpt>
      <trkpt lat="43.55024" lon="6.67007">
        <ele>270</ele>
        <time>2011-12-11T08:01:56Z</time>
      </trkpt>
      <trkpt lat="43.55027" lon="6.67007">
        <ele>270</ele>
        <time>2011-12-11T08:01:57Z</time>
      </trkpt>
      <trkpt lat="43.5503" lon="6.67008">
        <ele>270</ele>
        <time>2011-12-11T08:01:58Z</time>
      </trkpt>
      <trkpt lat="43.55034" lon="6.67009">
        <ele>270</ele>
        <time>2011-12-11T08:01:59Z</time>
      </trkpt>
      <trkpt lat="43.55037" lon="6.6701">
        <ele>270</ele>
        <time>2011-12-11T08:02:00Z</time>
      </trkpt>
      <trkpt lat="43.5504" lon="6.67011">
        <ele>271</ele>
        <time>2011-12-11T08:02:01Z</time>
      </trkpt>
      <trkpt lat="43.55043" lon="6.67011">
        <ele>271</ele>
        <time>2011-12-11T08:02:02Z</time>
      </trkpt>
      <trkpt lat="43.55046" lon="6.67012">
        <ele>271</ele>
        <time>2011-12-11T08:02:03Z</time>
      </trkpt>
      <trkpt lat="43.55049" lon="6.67013">
        <ele>271</ele>
        <time>2011-12-11T08:02:04Z</time>
      </trkpt>
      <trkpt lat="43.55052" lon="6.67014">
        <ele>271</ele>
        <time>2011-12-11T08:02:05Z</time>
      </trkpt>
      <trkpt lat="43.55054" lon="6.67014">
        <ele>271</ele>
        <time>2011-12-11T08:02:06Z</time>
      </trkpt>
      <trkpt lat="43.55057" lon="6.67015">
        <ele>271</ele>
        <time>2011-12-11T08:02:07Z</time>
      </trkpt>
      <trkpt lat="43.5506" lon="6.67016">
        <ele>271</ele>
        <time>2011-12-11T08:02:08Z</time>
      </trkpt>
      <trkpt lat="43.55063" lon="6.67017">
        <ele>271</ele>
        <time>2011-12-11T08:02:09Z</time>
      </trkpt>
      <trkpt lat="43.55066" lon="6.67018">
        <ele>270</ele>
        <time>2011-12-11T08:02:10Z</time>
      </trkpt>
      <trkpt lat="43.55069" lon="6.67018">
        <ele>270</ele>
        <time>2011-12-11T08:02:11Z</time>
      </trkpt>
      <trkpt lat="43.55073" lon="6.67019">
        <ele>269</ele>
        <time>2011-12-11T08:02:12Z</time>
      </trkpt>
      <trkpt lat="43.55076" lon="6.6702">
        <ele>269</ele>
        <time>2011-12-11T08:02:13Z</time>
      </trkpt>
      <trkpt lat="43.55081" lon="6.67021">
        <ele>268</ele>
        <time>2011-12-11T08:02:14Z</time>
      </trkpt>
      <trkpt lat="43.55086" lon="6.67022">
        <ele>267</ele>
        <time>2011-12-11T08:02:15Z</time>
      </trkpt>
      <trkpt lat="43.55131" lon="6.66974">
        <ele>264</ele>
        <time>2011-12-11T08:02:25Z</time>
      </trkpt>
      <trkpt lat="43.55172" lon="6.66911">
        <ele>262</ele>
        <time>2011-12-11T08:02:35Z</time>
      </trkpt>
      <trkpt lat="43.55206" lon="6.66859">
        <ele>263</ele>
        <time>2011-12-11T08:02:45Z</time>
      </trkpt>
      <trkpt lat="43.55208" lon="6.66854">
        <ele>263</ele>
        <time>2011-12-11T08:02:46Z</time>
      </trkpt>
      <trkpt lat="43.5521" lon="6.6685">
        <ele>263</ele>
        <time>2011-12-11T08:02:47Z</time>
      </trkpt>
      <trkpt lat="43.55212" lon="6.66846">
        <ele>263</ele>
        <time>2011-12-11T08:02:48Z</time>
      </trkpt>
      <trkpt lat="43.55214" lon="6.66841">
        <ele>263</ele>
        <time>2011-12-11T08:02:49Z</time>
      </trkpt>
      <trkpt lat="43.55216" lon="6.66836">
        <ele>264</ele>
        <time>2011-12-11T08:02:50Z</time>
      </trkpt>
      <trkpt lat="43.55218" lon="6.66832">
        <ele>264</ele>
        <time>2011-12-11T08:02:51Z</time>
      </trkpt>
      <trkpt lat="43.5522" lon="6.66828">
        <ele>264</ele>
        <time>2011-12-11T08:02:52Z</time>
      </trkpt>
      <trkpt lat="43.55223" lon="6.66824">
        <ele>264</ele>
        <time>2011-12-11T08:02:53Z</time>
      </trkpt>
      <trkpt lat="43.55224" lon="6.6682">
        <ele>264</ele>
        <time>2011-12-11T08:02:54Z</time>
      </trkpt>
      <trkpt lat="43.55226" lon="6.66817">
        <ele>264</ele>
        <time>2011-12-11T08:02:55Z</time>
      </trkpt>
      <trkpt lat="43.55228" lon="6.66813">
        <ele>264</ele>
        <time>2011-12-11T08:02:56Z</time>
      </trkpt>
      <trkpt lat="43.55228" lon="6.66808">
        <ele>264</ele>
        <time>2011-12-11T08:02:57Z</time>
      </trkpt>
      <trkpt lat="43.5523" lon="6.66804">
        <ele>264</ele>
        <time>2011-12-11T08:02:58Z</time>
      </trkpt>
      <trkpt lat="43.5523" lon="6.668">
        <ele>264</ele>
        <time>2011-12-11T08:02:59Z</time>
      </trkpt>
      <trkpt lat="43.55231" lon="6.66796">
        <ele>264</ele>
        <time>2011-12-11T08:03:00Z</time>
      </trkpt>
      <trkpt lat="43.55232" lon="6.66791">
        <ele>264</ele>
        <time>2011-12-11T08:03:01Z</time>
      </trkpt>
      <trkpt lat="43.55234" lon="6.66787">
        <ele>264</ele>
        <time>2011-12-11T08:03:02Z</time>
      </trkpt>
      <trkpt lat="43.55236" lon="6.66783">
        <ele>264</ele>
        <time>2011-12-11T08:03:03Z</time>
      </trkpt>
      <trkpt lat="43.55238" lon="6.6678">
        <ele>264</ele>
        <time>2011-12-11T08:03:04Z</time>
      </trkpt>
      <trkpt lat="43.55241" lon="6.66778">
        <ele>264</ele>
        <time>2011-12-11T08:03:05Z</time>
      </trkpt>
      <trkpt lat="43.55244" lon="6.66777">
        <ele>264</ele>
        <time>2011-12-11T08:03:06Z</time>
      </trkpt>
      <trkpt lat="43.55247" lon="6.66778">
        <ele>264</ele>
        <time>2011-12-11T08:03:07Z</time>
      </trkpt>
      <trkpt lat="43.55251" lon="6.66778">
        <ele>264</ele>
        <time>2011-12-11T08:03:08Z</time>
      </trkpt>
      <trkpt lat="43.55253" lon="6.66778">
        <ele>264</ele>
        <time>2011-12-11T08:03:09Z</time>
      </trkpt>
      <trkpt lat="43.55256" lon="6.66776">
        <ele>265</ele>
        <time>2011-12-11T08:03:10Z</time>
      </trkpt>
      <trkpt lat="43.55259" lon="6.66774">
        <ele>265</ele>
        <time>2011-12-11T08:03:11Z</time>
      </trkpt>
      <trkpt lat="43.55261" lon="6.66772">
        <ele>265</ele>
        <time>2011-12-11T08:03:12Z</time>
      </trkpt>
      <trkpt lat="43.55264" lon="6.66768">
        <ele>265</ele>
        <time>2011-12-11T08:03:13Z</time>
      </trkpt>
      <trkpt lat="43.55267" lon="6.66765">
        <ele>265</ele>
        <time>2011-12-11T08:03:14Z</time>
      </trkpt>
      <trkpt lat="43.5527" lon="6.66762">
        <ele>265</ele>
        <time>2011-12-11T08:03:15Z</time>
      </trkpt>
      <trkpt lat="43.55274" lon="6.66759">
        <ele>265</ele>
        <time>2011-12-11T08:03:16Z</time>
      </trkpt>
      <trkpt lat="43.55277" lon="6.66756">
        <ele>266</ele>
        <time>2011-12-11T08:03:17Z</time>
      </trkpt>
      <trkpt lat="43.55281" lon="6.66754">
        <ele>266</ele>
        <time>2011-12-11T08:03:18Z</time>
      </trkpt>
      <trkpt lat="43.55284" lon="6.66753">
        <ele>266</ele>
        <time>2011-12-11T08:03:19Z</time>
      </trkpt>
      <trkpt lat="43.55288" lon="6.66753">
        <ele>266</ele>
        <time>2011-12-11T08:03:20Z</time>
      </trkpt>
      <trkpt lat="43.5529" lon="6.66754">
        <ele>266</ele>
        <time>2011-12-11T08:03:21Z</time>
      </trkpt>
      <trkpt lat="43.55293" lon="6.66754">
        <ele>266</ele>
        <time>2011-12-11T08:03:22Z</time>
      </trkpt>
      <trkpt lat="43.55296" lon="6.66756">
        <ele>266</ele>
        <time>2011-12-11T08:03:23Z</time>
      </trkpt>
      <trkpt lat="43.55299" lon="6.66757">
        <ele>267</ele>
        <time>2011-12-11T08:03:24Z</time>
      </trkpt>
      <trkpt lat="43.55301" lon="6.66758">
        <ele>267</ele>
        <time>2011-12-11T08:03:25Z</time>
      </trkpt>
      <trkpt lat="43.55303" lon="6.66759">
        <ele>267</ele>
        <time>2011-12-11T08:03:26Z</time>
      </trkpt>
      <trkpt lat="43.55306" lon="6.6676">
        <ele>267</ele>
        <time>2011-12-11T08:03:27Z</time>
      </trkpt>
      <trkpt lat="43.55308" lon="6.66762">
        <ele>267</ele>
        <time>2011-12-11T08:03:28Z</time>
      </trkpt>
      <trkpt lat="43.55311" lon="6.66763">
        <ele>267</ele>
        <time>2011-12-11T08:03:29Z</time>
      </trkpt>
      <trkpt lat="43.55314" lon="6.66765">
        <ele>267</ele>
        <time>2011-12-11T08:03:30Z</time>
      </trkpt>
      <trkpt lat="43.55316" lon="6.66766">
        <ele>268</ele>
        <time>2011-12-11T08:03:31Z</time>
      </trkpt>
      <trkpt lat="43.55319" lon="6.66768">
        <ele>268</ele>
        <time>2011-12-11T08:03:32Z</time>
      </trkpt>
      <trkpt lat="43.55321" lon="6.66769">
        <ele>268</ele>
        <time>2011-12-11T08:03:33Z</time>
      </trkpt>
      <trkpt lat="43.55324" lon="6.6677">
        <ele>268</ele>
        <time>2011-12-11T08:03:34Z</time>
      </trkpt>
      <trkpt lat="43.55326" lon="6.66771">
        <ele>268</ele>
        <time>2011-12-11T08:03:35Z</time>
      </trkpt>
      <trkpt lat="43.55329" lon="6.66772">
        <ele>268</ele>
        <time>2011-12-11T08:03:36Z</time>
      </trkpt>
      <trkpt lat="43.55331" lon="6.66773">
        <ele>268</ele>
        <time>2011-12-11T08:03:37Z</time>
      </trkpt>
      <trkpt lat="43.55334" lon="6.66773">
        <ele>268</ele>
        <time>2011-12-11T08:03:38Z</time>
      </trkpt>
      <trkpt lat="43.55336" lon="6.66773">
        <ele>268</ele>
        <time>2011-12-11T08:03:39Z</time>
      </trkpt>
      <trkpt lat="43.55339" lon="6.66773">
        <ele>268</ele>
        <time>2011-12-11T08:03:40Z</time>
      </trkpt>
      <trkpt lat="43.55341" lon="6.66771">
        <ele>268</ele>
        <time>2011-12-11T08:03:41Z</time>
      </trkpt>
      <trkpt lat="43.55343" lon="6.66769">
        <ele>268</ele>
        <time>2011-12-11T08:03:42Z</time>
      </trkpt>
      <trkpt lat="43.55345" lon="6.66767">
        <ele>269</ele>
        <time>2011-12-11T08:03:43Z</time>
      </trkpt>
      <trkpt lat="43.55347" lon="6.66766">
        <ele>269</ele>
        <time>2011-12-11T08:03:44Z</time>
      </trkpt>
      <trkpt lat="43.55349" lon="6.66765">
        <ele>269</ele>
        <time>2011-12-11T08:03:45Z</time>
      </trkpt>
      <trkpt lat="43.55351" lon="6.66763">
        <ele>269</ele>
        <time>2011-12-11T08:03:46Z</time>
      </trkpt>
      <trkpt lat="43.55353" lon="6.66762">
        <ele>270</ele>
        <time>2011-12-11T08:03:47Z</time>
      </trkpt>
      <trkpt lat="43.55355" lon="6.66761">
        <ele>270</ele>
        <time>2011-12-11T08:03:48Z</time>
      </trkpt>
      <trkpt lat="43.55356" lon="6.66759">
        <ele>270</ele>
        <time>2011-12-11T08:03:49Z</time>
      </trkpt>
      <trkpt lat="43.55357" lon="6.66757">
        <ele>270</ele>
        <time>2011-12-11T08:03:50Z</time>
      </trkpt>
      <trkpt lat="43.55359" lon="6.66754">
        <ele>270</ele>
        <time>2011-12-11T08:03:51Z</time>
      </trkpt>
      <trkpt lat="43.5536" lon="6.66751">
        <ele>270</ele>
        <time>2011-12-11T08:03:52Z</time>
      </trkpt>
      <trkpt lat="43.55362" lon="6.66749">
        <ele>270</ele>
        <time>2011-12-11T08:03:53Z</time>
      </trkpt>
      <trkpt lat="43.55364" lon="6.66746">
        <ele>270</ele>
        <time>2011-12-11T08:03:54Z</time>
      </trkpt>
      <trkpt lat="43.55367" lon="6.66745">
        <ele>270</ele>
        <time>2011-12-11T08:03:55Z</time>
      </trkpt>
      <trkpt lat="43.55369" lon="6.66743">
        <ele>271</ele>
        <time>2011-12-11T08:03:56Z</time>
      </trkpt>
      <trkpt lat="43.55371" lon="6.66741">
        <ele>271</ele>
        <time>2011-12-11T08:03:57Z</time>
      </trkpt>
      <trkpt lat="43.55373" lon="6.66738">
        <ele>271</ele>
        <time>2011-12-11T08:03:58Z</time>
      </trkpt>
      <trkpt lat="43.55376" lon="6.66736">
        <ele>271</ele>
        <time>2011-12-11T08:03:59Z</time>
      </trkpt>
      <trkpt lat="43.55377" lon="6.66734">
        <ele>271</ele>
        <time>2011-12-11T08:04:00Z</time>
      </trkpt>
      <trkpt lat="43.55379" lon="6.66732">
        <ele>271</ele>
        <time>2011-12-11T08:04:01Z</time>
      </trkpt>
      <trkpt lat="43.5538" lon="6.66729">
        <ele>272</ele>
        <time>2011-12-11T08:04:02Z</time>
      </trkpt>
      <trkpt lat="43.55382" lon="6.66726">
        <ele>272</ele>
        <time>2011-12-11T08:04:03Z</time>
      </trkpt>
      <trkpt lat="43.55383" lon="6.66724">
        <ele>272</ele>
        <time>2011-12-11T08:04:04Z</time>
      </trkpt>
      <trkpt lat="43.55385" lon="6.66721">
        <ele>272</ele>
        <time>2011-12-11T08:04:05Z</time>
      </trkpt>
      <trkpt lat="43.55386" lon="6.66718">
        <ele>272</ele>
        <time>2011-12-11T08:04:06Z</time>
      </trkpt>
      <trkpt lat="43.55387" lon="6.66715">
        <ele>272</ele>
        <time>2011-12-11T08:04:07Z</time>
      </trkpt>
      <trkpt lat="43.55388" lon="6.66712">
        <ele>273</ele>
        <time>2011-12-11T08:04:08Z</time>
      </trkpt>
      <trkpt lat="43.5539" lon="6.6671">
        <ele>273</ele>
        <time>2011-12-11T08:04:09Z</time>
      </trkpt>
      <trkpt lat="43.55391" lon="6.66707">
        <ele>273</ele>
        <time>2011-12-11T08:04:10Z</time>
      </trkpt>
      <trkpt lat="43.55392" lon="6.66704">
        <ele>273</ele>
        <time>2011-12-11T08:04:11Z</time>
      </trkpt>
      <trkpt lat="43.55393" lon="6.66702">
        <ele>273</ele>
        <time>2011-12-11T08:04:12Z</time>
      </trkpt>
      <trkpt lat="43.55394" lon="6.66699">
        <ele>274</ele>
        <time>2011-12-11T08:04:13Z</time>
      </trkpt>
      <trkpt lat="43.55396" lon="6.66696">
        <ele>274</ele>
        <time>2011-12-11T08:04:14Z</time>
      </trkpt>
      <trkpt lat="43.55397" lon="6.66694">
        <ele>275</ele>
        <time>2011-12-11T08:04:15Z</time>
      </trkpt>
      <trkpt lat="43.55399" lon="6.66691">
        <ele>275</ele>
        <time>2011-12-11T08:04:16Z</time>
      </trkpt>
      <trkpt lat="43.554" lon="6.66689">
        <ele>275</ele>
        <time>2011-12-11T08:04:17Z</time>
      </trkpt>
      <trkpt lat="43.55402" lon="6.66687">
        <ele>275</ele>
        <time>2011-12-11T08:04:18Z</time>
      </trkpt>
      <trkpt lat="43.55405" lon="6.66683">
        <ele>276</ele>
        <time>2011-12-11T08:04:20Z</time>
      </trkpt>
      <trkpt lat="43.55407" lon="6.66681">
        <ele>276</ele>
        <time>2011-12-11T08:04:21Z</time>
      </trkpt>
      <trkpt lat="43.55408" lon="6.66679">
        <ele>276</ele>
        <time>2011-12-11T08:04:22Z</time>
      </trkpt>
      <trkpt lat="43.5541" lon="6.66678">
        <ele>276</ele>
        <time>2011-12-11T08:04:23Z</time>
      </trkpt>
      <trkpt lat="43.55412" lon="6.66677">
        <ele>277</ele>
        <time>2011-12-11T08:04:24Z</time>
      </trkpt>
      <trkpt lat="43.55414" lon="6.66675">
        <ele>277</ele>
        <time>2011-12-11T08:04:25Z</time>
      </trkpt>
      <trkpt lat="43.55415" lon="6.66674">
        <ele>278</ele>
        <time>2011-12-11T08:04:26Z</time>
      </trkpt>
      <trkpt lat="43.55417" lon="6.66672">
        <ele>278</ele>
        <time>2011-12-11T08:04:27Z</time>
      </trkpt>
      <trkpt lat="43.55418" lon="6.66671">
        <ele>278</ele>
        <time>2011-12-11T08:04:28Z</time>
      </trkpt>
      <trkpt lat="43.5542" lon="6.66669">
        <ele>279</ele>
        <time>2011-12-11T08:04:29Z</time>
      </trkpt>
      <trkpt lat="43.55421" lon="6.66668">
        <ele>279</ele>
        <time>2011-12-11T08:04:30Z</time>
      </trkpt>
      <trkpt lat="43.55423" lon="6.66666">
        <ele>279</ele>
        <time>2011-12-11T08:04:31Z</time>
      </trkpt>
      <trkpt lat="43.55425" lon="6.66664">
        <ele>279</ele>
        <time>2011-12-11T08:04:32Z</time>
      </trkpt>
      <trkpt lat="43.55426" lon="6.66663">
        <ele>280</ele>
        <time>2011-12-11T08:04:33Z</time>
      </trkpt>
      <trkpt lat="43.5543" lon="6.6666">
        <ele>280</ele>
        <time>2011-12-11T08:04:35Z</time>
      </trkpt>
      <trkpt lat="43.55432" lon="6.66658">
        <ele>280</ele>
        <time>2011-12-11T08:04:36Z</time>
      </trkpt>
      <trkpt lat="43.55434" lon="6.66657">
        <ele>281</ele>
        <time>2011-12-11T08:04:37Z</time>
      </trkpt>
      <trkpt lat="43.55436" lon="6.66655">
        <ele>281</ele>
        <time>2011-12-11T08:04:38Z</time>
      </trkpt>
      <trkpt lat="43.55437" lon="6.66654">
        <ele>282</ele>
        <time>2011-12-11T08:04:39Z</time>
      </trkpt>
      <trkpt lat="43.55439" lon="6.66652">
        <ele>282</ele>
        <time>2011-12-11T08:04:40Z</time>
      </trkpt>
      <trkpt lat="43.5544" lon="6.66651">
        <ele>282</ele>
        <time>2011-12-11T08:04:41Z</time>
      </trkpt>
      <trkpt lat="43.55442" lon="6.66649">
        <ele>282</ele>
        <time>2011-12-11T08:04:42Z</time>
      </trkpt>
      <trkpt lat="43.55444" lon="6.66647">
        <ele>283</ele>
        <time>2011-12-11T08:04:44Z</time>
      </trkpt>
      <trkpt lat="43.55446" lon="6.66645">
        <ele>284</ele>
        <time>2011-12-11T08:04:45Z</time>
      </trkpt>
      <trkpt lat="43.55449" lon="6.66643">
        <ele>284</ele>
        <time>2011-12-11T08:04:47Z</time>
      </trkpt>
      <trkpt lat="43.5545" lon="6.66642">
        <ele>285</ele>
        <time>2011-12-11T08:04:48Z</time>
      </trkpt>
      <trkpt lat="43.55452" lon="6.66641">
        <ele>285</ele>
        <time>2011-12-11T08:04:49Z</time>
      </trkpt>
      <trkpt lat="43.55454" lon="6.6664">
        <ele>285</ele>
        <time>2011-12-11T08:04:50Z</time>
      </trkpt>
      <trkpt lat="43.55455" lon="6.66639">
        <ele>286</ele>
        <time>2011-12-11T08:04:51Z</time>
      </trkpt>
      <trkpt lat="43.55457" lon="6.66638">
        <ele>286</ele>
        <time>2011-12-11T08:04:52Z</time>
      </trkpt>
      <trkpt lat="43.55458" lon="6.66636">
        <ele>286</ele>
        <time>2011-12-11T08:04:53Z</time>
      </trkpt>
      <trkpt lat="43.5546" lon="6.66634">
        <ele>287</ele>
        <time>2011-12-11T08:04:54Z</time>
      </trkpt>
      <trkpt lat="43.55462" lon="6.66631">
        <ele>288</ele>
        <time>2011-12-11T08:04:56Z</time>
      </trkpt>
      <trkpt lat="43.55464" lon="6.66629">
        <ele>288</ele>
        <time>2011-12-11T08:04:57Z</time>
      </trkpt>
      <trkpt lat="43.55465" lon="6.66624">
        <ele>289</ele>
        <time>2011-12-11T08:04:59Z</time>
      </trkpt>
      <trkpt lat="43.55466" lon="6.66622">
        <ele>289</ele>
        <time>2011-12-11T08:05:00Z</time>
      </trkpt>
      <trkpt lat="43.55466" lon="6.6662">
        <ele>289</ele>
        <time>2011-12-11T08:05:01Z</time>
      </trkpt>
      <trkpt lat="43.55467" lon="6.66618">
        <ele>290</ele>
        <time>2011-12-11T08:05:02Z</time>
      </trkpt>
      <trkpt lat="43.55467" lon="6.66616">
        <ele>290</ele>
        <time>2011-12-11T08:05:03Z</time>
      </trkpt>
      <trkpt lat="43.55469" lon="6.6661">
        <ele>290</ele>
        <time>2011-12-11T08:05:05Z</time>
      </trkpt>
      <trkpt lat="43.5547" lon="6.66606">
        <ele>291</ele>
        <time>2011-12-11T08:05:07Z</time>
      </trkpt>
      <trkpt lat="43.55471" lon="6.66603">
        <ele>291</ele>
        <time>2011-12-11T08:05:08Z</time>
      </trkpt>
      <trkpt lat="43.55472" lon="6.666">
        <ele>291</ele>
        <time>2011-12-11T08:05:09Z</time>
      </trkpt>
      <trkpt lat="43.55474" lon="6.66596">
        <ele>292</ele>
        <time>2011-12-11T08:05:11Z</time>
      </trkpt>
      <trkpt lat="43.55477" lon="6.66592">
        <ele>292</ele>
        <time>2011-12-11T08:05:13Z</time>
      </trkpt>
      <trkpt lat="43.55479" lon="6.6659">
        <ele>292</ele>
        <time>2011-12-11T08:05:14Z</time>
      </trkpt>
      <trkpt lat="43.55481" lon="6.66588">
        <ele>292</ele>
        <time>2011-12-11T08:05:15Z</time>
      </trkpt>
      <trkpt lat="43.55483" lon="6.66586">
        <ele>292</ele>
        <time>2011-12-11T08:05:16Z</time>
      </trkpt>
      <trkpt lat="43.55486" lon="6.66585">
        <ele>292</ele>
        <time>2011-12-11T08:05:17Z</time>
      </trkpt>
      <trkpt lat="43.55488" lon="6.66583">
        <ele>293</ele>
        <time>2011-12-11T08:05:18Z</time>
      </trkpt>
      <trkpt lat="43.55494" lon="6.6658">
        <ele>293</ele>
        <time>2011-12-11T08:05:20Z</time>
      </trkpt>
      <trkpt lat="43.55496" lon="6.66578">
        <ele>293</ele>
        <time>2011-12-11T08:05:21Z</time>
      </trkpt>
      <trkpt lat="43.55499" lon="6.66577">
        <ele>293</ele>
        <time>2011-12-11T08:05:22Z</time>
      </trkpt>
      <trkpt lat="43.55502" lon="6.66575">
        <ele>293</ele>
        <time>2011-12-11T08:05:23Z</time>
      </trkpt>
      <trkpt lat="43.55505" lon="6.66573">
        <ele>293</ele>
        <time>2011-12-11T08:05:24Z</time>
      </trkpt>
      <trkpt lat="43.55508" lon="6.66571">
        <ele>293</ele>
        <time>2011-12-11T08:05:25Z</time>
      </trkpt>
      <trkpt lat="43.55511" lon="6.66569">
        <ele>293</ele>
        <time>2011-12-11T08:05:26Z</time>
      </trkpt>
      <trkpt lat="43.55514" lon="6.66567">
        <ele>293</ele>
        <time>2011-12-11T08:05:27Z</time>
      </trkpt>
      <trkpt lat="43.55517" lon="6.66566">
        <ele>293</ele>
        <time>2011-12-11T08:05:28Z</time>
      </trkpt>
      <trkpt lat="43.5552" lon="6.66564">
        <ele>293</ele>
        <time>2011-12-11T08:05:29Z</time>
      </trkpt>
      <trkpt lat="43.55523" lon="6.66562">
        <ele>293</ele>
        <time>2011-12-11T08:05:30Z</time>
      </trkpt>
      <trkpt lat="43.55526" lon="6.6656">
        <ele>293</ele>
        <time>2011-12-11T08:05:31Z</time>
      </trkpt>
      <trkpt lat="43.55529" lon="6.66558">
        <ele>293</ele>
        <time>2011-12-11T08:05:32Z</time>
      </trkpt>
      <trkpt lat="43.55532" lon="6.66556">
        <ele>293</ele>
        <time>2011-12-11T08:05:33Z</time>
      </trkpt>
      <trkpt lat="43.55535" lon="6.66554">
        <ele>293</ele>
        <time>2011-12-11T08:05:34Z</time>
      </trkpt>
      <trkpt lat="43.55538" lon="6.66551">
        <ele>293</ele>
        <time>2011-12-11T08:05:35Z</time>
      </trkpt>
      <trkpt lat="43.55541" lon="6.66548">
        <ele>293</ele>
        <time>2011-12-11T08:05:36Z</time>
      </trkpt>
      <trkpt lat="43.55543" lon="6.66546">
        <ele>293</ele>
        <time>2011-12-11T08:05:37Z</time>
      </trkpt>
      <trkpt lat="43.55546" lon="6.66543">
        <ele>293</ele>
        <time>2011-12-11T08:05:38Z</time>
      </trkpt>
      <trkpt lat="43.55548" lon="6.6654">
        <ele>294</ele>
        <time>2011-12-11T08:05:39Z</time>
      </trkpt>
      <trkpt lat="43.5555" lon="6.66536">
        <ele>294</ele>
        <time>2011-12-11T08:05:40Z</time>
      </trkpt>
      <trkpt lat="43.55552" lon="6.66533">
        <ele>294</ele>
        <time>2011-12-11T08:05:41Z</time>
      </trkpt>
      <trkpt lat="43.55553" lon="6.66529">
        <ele>294</ele>
        <time>2011-12-11T08:05:42Z</time>
      </trkpt>
      <trkpt lat="43.55555" lon="6.66525">
        <ele>294</ele>
        <time>2011-12-11T08:05:43Z</time>
      </trkpt>
      <trkpt lat="43.55557" lon="6.66522">
        <ele>294</ele>
        <time>2011-12-11T08:05:44Z</time>
      </trkpt>
      <trkpt lat="43.55558" lon="6.66518">
        <ele>295</ele>
        <time>2011-12-11T08:05:45Z</time>
      </trkpt>
      <trkpt lat="43.5556" lon="6.66515">
        <ele>295</ele>
        <time>2011-12-11T08:05:46Z</time>
      </trkpt>
      <trkpt lat="43.55561" lon="6.66512">
        <ele>295</ele>
        <time>2011-12-11T08:05:47Z</time>
      </trkpt>
      <trkpt lat="43.55563" lon="6.66508">
        <ele>295</ele>
        <time>2011-12-11T08:05:48Z</time>
      </trkpt>
      <trkpt lat="43.55564" lon="6.66505">
        <ele>296</ele>
        <time>2011-12-11T08:05:49Z</time>
      </trkpt>
      <trkpt lat="43.55565" lon="6.66502">
        <ele>295</ele>
        <time>2011-12-11T08:05:50Z</time>
      </trkpt>
      <trkpt lat="43.55567" lon="6.66498">
        <ele>296</ele>
        <time>2011-12-11T08:05:51Z</time>
      </trkpt>
      <trkpt lat="43.55568" lon="6.66494">
        <ele>296</ele>
        <time>2011-12-11T08:05:52Z</time>
      </trkpt>
      <trkpt lat="43.55569" lon="6.6649">
        <ele>296</ele>
        <time>2011-12-11T08:05:53Z</time>
      </trkpt>
      <trkpt lat="43.5557" lon="6.66487">
        <ele>297</ele>
        <time>2011-12-11T08:05:54Z</time>
      </trkpt>
      <trkpt lat="43.5557" lon="6.66483">
        <ele>297</ele>
        <time>2011-12-11T08:05:55Z</time>
      </trkpt>
      <trkpt lat="43.5557" lon="6.66478">
        <ele>297</ele>
        <time>2011-12-11T08:05:56Z</time>
      </trkpt>
      <trkpt lat="43.5557" lon="6.66475">
        <ele>297</ele>
        <time>2011-12-11T08:05:57Z</time>
      </trkpt>
      <trkpt lat="43.5557" lon="6.66472">
        <ele>297</ele>
        <time>2011-12-11T08:05:58Z</time>
      </trkpt>
      <trkpt lat="43.5557" lon="6.66469">
        <ele>297</ele>
        <time>2011-12-11T08:05:59Z</time>
      </trkpt>
      <trkpt lat="43.5557" lon="6.66466">
        <ele>297</ele>
        <time>2011-12-11T08:06:00Z</time>
      </trkpt>
      <trkpt lat="43.5557" lon="6.66463">
        <ele>297</ele>
        <time>2011-12-11T08:06:01Z</time>
      </trkpt>
      <trkpt lat="43.5557" lon="6.6646">
        <ele>297</ele>
        <time>2011-12-11T08:06:02Z</time>
      </trkpt>
      <trkpt lat="43.5557" lon="6.66456">
        <ele>297</ele>
        <time>2011-12-11T08:06:03Z</time>
      </trkpt>
      <trkpt lat="43.55571" lon="6.66453">
        <ele>297</ele>
        <time>2011-12-11T08:06:04Z</time>
      </trkpt>
      <trkpt lat="43.55571" lon="6.6645">
        <ele>298</ele>
        <time>2011-12-11T08:06:05Z</time>
      </trkpt>
      <trkpt lat="43.55572" lon="6.66447">
        <ele>298</ele>
        <time>2011-12-11T08:06:06Z</time>
      </trkpt>
      <trkpt lat="43.55574" lon="6.66444">
        <ele>298</ele>
        <time>2011-12-11T08:06:07Z</time>
      </trkpt>
      <trkpt lat="43.55575" lon="6.66441">
        <ele>298</ele>
        <time>2011-12-11T08:06:08Z</time>
      </trkpt>
      <trkpt lat="43.55576" lon="6.66438">
        <ele>299</ele>
        <time>2011-12-11T08:06:09Z</time>
      </trkpt>
      <trkpt lat="43.55578" lon="6.66435">
        <ele>299</ele>
        <time>2011-12-11T08:06:10Z</time>
      </trkpt>
      <trkpt lat="43.55579" lon="6.66433">
        <ele>299</ele>
        <time>2011-12-11T08:06:11Z</time>
      </trkpt>
      <trkpt lat="43.5558" lon="6.6643">
        <ele>300</ele>
        <time>2011-12-11T08:06:12Z</time>
      </trkpt>
      <trkpt lat="43.55582" lon="6.66427">
        <ele>300</ele>
        <time>2011-12-11T08:06:13Z</time>
      </trkpt>
      <trkpt lat="43.55583" lon="6.66425">
        <ele>300</ele>
        <time>2011-12-11T08:06:14Z</time>
      </trkpt>
      <trkpt lat="43.55585" lon="6.66423">
        <ele>301</ele>
        <time>2011-12-11T08:06:15Z</time>
      </trkpt>
      <trkpt lat="43.55586" lon="6.66421">
        <ele>301</ele>
        <time>2011-12-11T08:06:16Z</time>
      </trkpt>
      <trkpt lat="43.55589" lon="6.66419">
        <ele>301</ele>
        <time>2011-12-11T08:06:17Z</time>
      </trkpt>
      <trkpt lat="43.55591" lon="6.66417">
        <ele>301</ele>
        <time>2011-12-11T08:06:18Z</time>
      </trkpt>
      <trkpt lat="43.55593" lon="6.66416">
        <ele>301</ele>
        <time>2011-12-11T08:06:19Z</time>
      </trkpt>
      <trkpt lat="43.55596" lon="6.66415">
        <ele>301</ele>
        <time>2011-12-11T08:06:20Z</time>
      </trkpt>
      <trkpt lat="43.55598" lon="6.66415">
        <ele>302</ele>
        <time>2011-12-11T08:06:21Z</time>
      </trkpt>
      <trkpt lat="43.55601" lon="6.66414">
        <ele>302</ele>
        <time>2011-12-11T08:06:22Z</time>
      </trkpt>
      <trkpt lat="43.55603" lon="6.66413">
        <ele>302</ele>
        <time>2011-12-11T08:06:23Z</time>
      </trkpt>
      <trkpt lat="43.55605" lon="6.66412">
        <ele>303</ele>
        <time>2011-12-11T08:06:24Z</time>
      </trkpt>
      <trkpt lat="43.55607" lon="6.66411">
        <ele>303</ele>
        <time>2011-12-11T08:06:25Z</time>
      </trkpt>
      <trkpt lat="43.5561" lon="6.6641">
        <ele>303</ele>
        <time>2011-12-11T08:06:26Z</time>
      </trkpt>
      <trkpt lat="43.55612" lon="6.6641">
        <ele>303</ele>
        <time>2011-12-11T08:06:27Z</time>
      </trkpt>
      <trkpt lat="43.55614" lon="6.66409">
        <ele>303</ele>
        <time>2011-12-11T08:06:28Z</time>
      </trkpt>
      <trkpt lat="43.55616" lon="6.66408">
        <ele>304</ele>
        <time>2011-12-11T08:06:29Z</time>
      </trkpt>
      <trkpt lat="43.55619" lon="6.66407">
        <ele>304</ele>
        <time>2011-12-11T08:06:30Z</time>
      </trkpt>
      <trkpt lat="43.55621" lon="6.66406">
        <ele>304</ele>
        <time>2011-12-11T08:06:31Z</time>
      </trkpt>
      <trkpt lat="43.55623" lon="6.66405">
        <ele>305</ele>
        <time>2011-12-11T08:06:32Z</time>
      </trkpt>
      <trkpt lat="43.55625" lon="6.66403">
        <ele>305</ele>
        <time>2011-12-11T08:06:33Z</time>
      </trkpt>
      <trkpt lat="43.55628" lon="6.66401">
        <ele>305</ele>
        <time>2011-12-11T08:06:34Z</time>
      </trkpt>
      <trkpt lat="43.5563" lon="6.664">
        <ele>305</ele>
        <time>2011-12-11T08:06:35Z</time>
      </trkpt>
      <trkpt lat="43.55632" lon="6.66397">
        <ele>305</ele>
        <time>2011-12-11T08:06:36Z</time>
      </trkpt>
      <trkpt lat="43.55634" lon="6.66396">
        <ele>305</ele>
        <time>2011-12-11T08:06:37Z</time>
      </trkpt>
      <trkpt lat="43.55636" lon="6.66394">
        <ele>305</ele>
        <time>2011-12-11T08:06:38Z</time>
      </trkpt>
      <trkpt lat="43.55638" lon="6.66393">
        <ele>305</ele>
        <time>2011-12-11T08:06:39Z</time>
      </trkpt>
      <trkpt lat="43.5564" lon="6.66391">
        <ele>306</ele>
        <time>2011-12-11T08:06:40Z</time>
      </trkpt>
      <trkpt lat="43.55642" lon="6.6639">
        <ele>306</ele>
        <time>2011-12-11T08:06:41Z</time>
      </trkpt>
      <trkpt lat="43.55644" lon="6.66388">
        <ele>306</ele>
        <time>2011-12-11T08:06:42Z</time>
      </trkpt>
      <trkpt lat="43.55646" lon="6.66386">
        <ele>306</ele>
        <time>2011-12-11T08:06:43Z</time>
      </trkpt>
      <trkpt lat="43.55649" lon="6.66385">
        <ele>306</ele>
        <time>2011-12-11T08:06:44Z</time>
      </trkpt>
      <trkpt lat="43.55651" lon="6.66383">
        <ele>306</ele>
        <time>2011-12-11T08:06:45Z</time>
      </trkpt>
      <trkpt lat="43.55653" lon="6.66381">
        <ele>306</ele>
        <time>2011-12-11T08:06:46Z</time>
      </trkpt>
      <trkpt lat="43.55655" lon="6.66379">
        <ele>307</ele>
        <time>2011-12-11T08:06:47Z</time>
      </trkpt>
      <trkpt lat="43.55657" lon="6.66377">
        <ele>307</ele>
        <time>2011-12-11T08:06:48Z</time>
      </trkpt>
      <trkpt lat="43.55659" lon="6.66376">
        <ele>307</ele>
        <time>2011-12-11T08:06:49Z</time>
      </trkpt>
      <trkpt lat="43.55661" lon="6.66374">
        <ele>307</ele>
        <time>2011-12-11T08:06:50Z</time>
      </trkpt>
      <trkpt lat="43.55663" lon="6.66373">
        <ele>307</ele>
        <time>2011-12-11T08:06:51Z</time>
      </trkpt>
      <trkpt lat="43.55665" lon="6.66372">
        <ele>307</ele>
        <time>2011-12-11T08:06:52Z</time>
      </trkpt>
      <trkpt lat="43.55667" lon="6.6637">
        <ele>307</ele>
        <time>2011-12-11T08:06:53Z</time>
      </trkpt>
      <trkpt lat="43.55668" lon="6.66368">
        <ele>307</ele>
        <time>2011-12-11T08:06:54Z</time>
      </trkpt>
      <trkpt lat="43.5567" lon="6.66366">
        <ele>307</ele>
        <time>2011-12-11T08:06:55Z</time>
      </trkpt>
      <trkpt lat="43.55671" lon="6.66364">
        <ele>307</ele>
        <time>2011-12-11T08:06:56Z</time>
      </trkpt>
      <trkpt lat="43.55673" lon="6.66361">
        <ele>306</ele>
        <time>2011-12-11T08:06:57Z</time>
      </trkpt>
      <trkpt lat="43.55674" lon="6.66358">
        <ele>306</ele>
        <time>2011-12-11T08:06:58Z</time>
      </trkpt>
      <trkpt lat="43.55675" lon="6.66354">
        <ele>306</ele>
        <time>2011-12-11T08:06:59Z</time>
      </trkpt>
      <trkpt lat="43.55677" lon="6.6635">
        <ele>306</ele>
        <time>2011-12-11T08:07:00Z</time>
      </trkpt>
      <trkpt lat="43.55679" lon="6.66345">
        <ele>305</ele>
        <time>2011-12-11T08:07:01Z</time>
      </trkpt>
      <trkpt lat="43.5568" lon="6.6634">
        <ele>305</ele>
        <time>2011-12-11T08:07:02Z</time>
      </trkpt>
      <trkpt lat="43.55682" lon="6.66334">
        <ele>304</ele>
        <time>2011-12-11T08:07:03Z</time>
      </trkpt>
      <trkpt lat="43.55683" lon="6.66329">
        <ele>303</ele>
        <time>2011-12-11T08:07:04Z</time>
      </trkpt>
      <trkpt lat="43.55685" lon="6.66324">
        <ele>303</ele>
        <time>2011-12-11T08:07:05Z</time>
      </trkpt>
      <trkpt lat="43.55687" lon="6.6632">
        <ele>302</ele>
        <time>2011-12-11T08:07:06Z</time>
      </trkpt>
      <trkpt lat="43.55689" lon="6.66315">
        <ele>302</ele>
        <time>2011-12-11T08:07:07Z</time>
      </trkpt>
      <trkpt lat="43.55691" lon="6.66311">
        <ele>301</ele>
        <time>2011-12-11T08:07:08Z</time>
      </trkpt>
      <trkpt lat="43.55693" lon="6.66305">
        <ele>300</ele>
        <time>2011-12-11T08:07:09Z</time>
      </trkpt>
      <trkpt lat="43.55696" lon="6.663">
        <ele>299</ele>
        <time>2011-12-11T08:07:10Z</time>
      </trkpt>
      <trkpt lat="43.557" lon="6.66295">
        <ele>298</ele>
        <time>2011-12-11T08:07:11Z</time>
      </trkpt>
      <trkpt lat="43.55751" lon="6.66257">
        <ele>294</ele>
        <time>2011-12-11T08:07:21Z</time>
      </trkpt>
      <trkpt lat="43.55776" lon="6.66185">
        <ele>289</ele>
        <time>2011-12-11T08:07:31Z</time>
      </trkpt>
      <trkpt lat="43.55788" lon="6.66106">
        <ele>281</ele>
        <time>2011-12-11T08:07:41Z</time>
      </trkpt>
      <trkpt lat="43.55819" lon="6.66007">
        <ele>277</ele>
        <time>2011-12-11T08:07:51Z</time>
      </trkpt>
      <trkpt lat="43.55856" lon="6.65931">
        <ele>274</ele>
        <time>2011-12-11T08:08:01Z</time>
      </trkpt>
      <trkpt lat="43.55918" lon="6.65887">
        <ele>272</ele>
        <time>2011-12-11T08:08:11Z</time>
      </trkpt>
      <trkpt lat="43.55969" lon="6.65855">
        <ele>269</ele>
        <time>2011-12-11T08:08:21Z</time>
      </trkpt>
      <trkpt lat="43.56031" lon="6.65831">
        <ele>263</ele>
        <time>2011-12-11T08:08:31Z</time>
      </trkpt>
      <trkpt lat="43.56035" lon="6.65831">
        <ele>262</ele>
        <time>2011-12-11T08:08:32Z</time>
      </trkpt>
      <trkpt lat="43.56038" lon="6.65832">
        <ele>261</ele>
        <time>2011-12-11T08:08:33Z</time>
      </trkpt>
      <trkpt lat="43.56042" lon="6.65833">
        <ele>260</ele>
        <time>2011-12-11T08:08:34Z</time>
      </trkpt>
      <trkpt lat="43.56046" lon="6.65834">
        <ele>260</ele>
        <time>2011-12-11T08:08:35Z</time>
      </trkpt>
      <trkpt lat="43.5605" lon="6.65835">
        <ele>259</ele>
        <time>2011-12-11T08:08:36Z</time>
      </trkpt>
      <trkpt lat="43.56054" lon="6.65836">
        <ele>258</ele>
        <time>2011-12-11T08:08:37Z</time>
      </trkpt>
      <trkpt lat="43.56058" lon="6.65836">
        <ele>258</ele>
        <time>2011-12-11T08:08:38Z</time>
      </trkpt>
      <trkpt lat="43.56061" lon="6.65833">
        <ele>257</ele>
        <time>2011-12-11T08:08:39Z</time>
      </trkpt>
      <trkpt lat="43.56065" lon="6.65829">
        <ele>257</ele>
        <time>2011-12-11T08:08:40Z</time>
      </trkpt>
      <trkpt lat="43.56102" lon="6.65786">
        <ele>249</ele>
        <time>2011-12-11T08:08:50Z</time>
      </trkpt>
      <trkpt lat="43.56105" lon="6.65788">
        <ele>249</ele>
        <time>2011-12-11T08:08:51Z</time>
      </trkpt>
      <trkpt lat="43.56109" lon="6.65792">
        <ele>248</ele>
        <time>2011-12-11T08:08:52Z</time>
      </trkpt>
      <trkpt lat="43.56115" lon="6.65797">
        <ele>247</ele>
        <time>2011-12-11T08:08:53Z</time>
      </trkpt>
      <trkpt lat="43.5612" lon="6.658">
        <ele>246</ele>
        <time>2011-12-11T08:08:54Z</time>
      </trkpt>
      <trkpt lat="43.56124" lon="6.65801">
        <ele>246</ele>
        <time>2011-12-11T08:08:55Z</time>
      </trkpt>
      <trkpt lat="43.56128" lon="6.65803">
        <ele>246</ele>
        <time>2011-12-11T08:08:56Z</time>
      </trkpt>
      <trkpt lat="43.56134" lon="6.65804">
        <ele>245</ele>
        <time>2011-12-11T08:08:57Z</time>
      </trkpt>
      <trkpt lat="43.56183" lon="6.658">
        <ele>239</ele>
        <time>2011-12-11T08:09:07Z</time>
      </trkpt>
      <trkpt lat="43.56237" lon="6.65767">
        <ele>232</ele>
        <time>2011-12-11T08:09:17Z</time>
      </trkpt>
      <trkpt lat="43.56245" lon="6.65703">
        <ele>226</ele>
        <time>2011-12-11T08:09:27Z</time>
      </trkpt>
      <trkpt lat="43.56248" lon="6.65701">
        <ele>225</ele>
        <time>2011-12-11T08:09:28Z</time>
      </trkpt>
      <trkpt lat="43.5625" lon="6.65699">
        <ele>224</ele>
        <time>2011-12-11T08:09:29Z</time>
      </trkpt>
      <trkpt lat="43.56255" lon="6.65696">
        <ele>224</ele>
        <time>2011-12-11T08:09:30Z</time>
      </trkpt>
      <trkpt lat="43.5628" lon="6.6568">
        <ele>217</ele>
        <time>2011-12-11T08:09:40Z</time>
      </trkpt>
      <trkpt lat="43.56281" lon="6.65679">
        <ele>217</ele>
        <time>2011-12-11T08:09:41Z</time>
      </trkpt>
      <trkpt lat="43.56281" lon="6.65679">
        <ele>217</ele>
        <time>2011-12-11T08:09:43Z</time>
      </trkpt>
      <trkpt lat="43.56282" lon="6.65679">
        <ele>216</ele>
        <time>2011-12-11T08:09:44Z</time>
      </trkpt>
      <trkpt lat="43.56282" lon="6.6568">
        <ele>216</ele>
        <time>2011-12-11T08:09:45Z</time>
      </trkpt>
      <trkpt lat="43.56282" lon="6.6568">
        <ele>216</ele>
        <time>2011-12-11T08:09:46Z</time>
      </trkpt>
      <trkpt lat="43.56283" lon="6.65679">
        <ele>215</ele>
        <time>2011-12-11T08:09:47Z</time>
      </trkpt>
      <trkpt lat="43.56284" lon="6.6568">
        <ele>215</ele>
        <time>2011-12-11T08:09:48Z</time>
      </trkpt>
      <trkpt lat="43.56285" lon="6.6568">
        <ele>215</ele>
        <time>2011-12-11T08:09:49Z</time>
      </trkpt>
      <trkpt lat="43.56285" lon="6.6568">
        <ele>215</ele>
        <time>2011-12-11T08:09:50Z</time>
      </trkpt>
      <trkpt lat="43.56286" lon="6.6568">
        <ele>215</ele>
        <time>2011-12-11T08:09:52Z</time>
      </trkpt>
      <trkpt lat="43.56286" lon="6.6568">
        <ele>214</ele>
        <time>2011-12-11T08:09:53Z</time>
      </trkpt>
      <trkpt lat="43.56288" lon="6.65679">
        <ele>214</ele>
        <time>2011-12-11T08:09:54Z</time>
      </trkpt>
      <trkpt lat="43.56289" lon="6.65678">
        <ele>214</ele>
        <time>2011-12-11T08:09:55Z</time>
      </trkpt>
      <trkpt lat="43.56292" lon="6.65676">
        <ele>214</ele>
        <time>2011-12-11T08:09:56Z</time>
      </trkpt>
      <trkpt lat="43.56296" lon="6.65674">
        <ele>214</ele>
        <time>2011-12-11T08:09:57Z</time>
      </trkpt>
      <trkpt lat="43.563" lon="6.65671">
        <ele>213</ele>
        <time>2011-12-11T08:09:58Z</time>
      </trkpt>
      <trkpt lat="43.56305" lon="6.65667">
        <ele>213</ele>
        <time>2011-12-11T08:09:59Z</time>
      </trkpt>
      <trkpt lat="43.56341" lon="6.65614">
        <ele>210</ele>
        <time>2011-12-11T08:10:09Z</time>
      </trkpt>
      <trkpt lat="43.56342" lon="6.65607">
        <ele>210</ele>
        <time>2011-12-11T08:10:10Z</time>
      </trkpt>
      <trkpt lat="43.56344" lon="6.65602">
        <ele>209</ele>
        <time>2011-12-11T08:10:11Z</time>
      </trkpt>
      <trkpt lat="43.56348" lon="6.65598">
        <ele>208</ele>
        <time>2011-12-11T08:10:12Z</time>
      </trkpt>
      <trkpt lat="43.56394" lon="6.65603">
        <ele>204</ele>
        <time>2011-12-11T08:10:22Z</time>
      </trkpt>
      <trkpt lat="43.564" lon="6.65604">
        <ele>203</ele>
        <time>2011-12-11T08:10:23Z</time>
      </trkpt>
      <trkpt lat="43.56405" lon="6.65605">
        <ele>202</ele>
        <time>2011-12-11T08:10:24Z</time>
      </trkpt>
      <trkpt lat="43.56448" lon="6.65631">
        <ele>201</ele>
        <time>2011-12-11T08:10:34Z</time>
      </trkpt>
      <trkpt lat="43.56451" lon="6.65635">
        <ele>201</ele>
        <time>2011-12-11T08:10:35Z</time>
      </trkpt>
      <trkpt lat="43.56454" lon="6.65637">
        <ele>201</ele>
        <time>2011-12-11T08:10:36Z</time>
      </trkpt>
      <trkpt lat="43.56457" lon="6.6564">
        <ele>201</ele>
        <time>2011-12-11T08:10:37Z</time>
      </trkpt>
      <trkpt lat="43.5646" lon="6.65643">
        <ele>200</ele>
        <time>2011-12-11T08:10:38Z</time>
      </trkpt>
      <trkpt lat="43.56463" lon="6.65646">
        <ele>200</ele>
        <time>2011-12-11T08:10:39Z</time>
      </trkpt>
      <trkpt lat="43.56465" lon="6.65649">
        <ele>200</ele>
        <time>2011-12-11T08:10:40Z</time>
      </trkpt>
      <trkpt lat="43.56468" lon="6.65651">
        <ele>200</ele>
        <time>2011-12-11T08:10:41Z</time>
      </trkpt>
      <trkpt lat="43.5647" lon="6.65654">
        <ele>200</ele>
        <time>2011-12-11T08:10:42Z</time>
      </trkpt>
      <trkpt lat="43.56473" lon="6.65657">
        <ele>200</ele>
        <time>2011-12-11T08:10:43Z</time>
      </trkpt>
      <trkpt lat="43.56476" lon="6.6566">
        <ele>199</ele>
        <time>2011-12-11T08:10:44Z</time>
      </trkpt>
      <trkpt lat="43.5648" lon="6.65663">
        <ele>199</ele>
        <time>2011-12-11T08:10:45Z</time>
      </trkpt>
      <trkpt lat="43.56483" lon="6.65665">
        <ele>199</ele>
        <time>2011-12-11T08:10:46Z</time>
      </trkpt>
      <trkpt lat="43.56487" lon="6.65668">
        <ele>199</ele>
        <time>2011-12-11T08:10:47Z</time>
      </trkpt>
      <trkpt lat="43.5649" lon="6.6567">
        <ele>199</ele>
        <time>2011-12-11T08:10:48Z</time>
      </trkpt>
      <trkpt lat="43.56494" lon="6.65673">
        <ele>199</ele>
        <time>2011-12-11T08:10:49Z</time>
      </trkpt>
      <trkpt lat="43.56497" lon="6.65677">
        <ele>198</ele>
        <time>2011-12-11T08:10:50Z</time>
      </trkpt>
      <trkpt lat="43.56502" lon="6.65679">
        <ele>198</ele>
        <time>2011-12-11T08:10:51Z</time>
      </trkpt>
      <trkpt lat="43.56506" lon="6.65682">
        <ele>198</ele>
        <time>2011-12-11T08:10:52Z</time>
      </trkpt>
      <trkpt lat="43.5651" lon="6.65686">
        <ele>198</ele>
        <time>2011-12-11T08:10:53Z</time>
      </trkpt>
      <trkpt lat="43.56513" lon="6.65689">
        <ele>198</ele>
        <time>2011-12-11T08:10:54Z</time>
      </trkpt>
      <trkpt lat="43.56517" lon="6.65693">
        <ele>198</ele>
        <time>2011-12-11T08:10:55Z</time>
      </trkpt>
      <trkpt lat="43.5652" lon="6.65696">
        <ele>197</ele>
        <time>2011-12-11T08:10:56Z</time>
      </trkpt>
      <trkpt lat="43.56525" lon="6.65699">
        <ele>197</ele>
        <time>2011-12-11T08:10:57Z</time>
      </trkpt>
      <trkpt lat="43.56565" lon="6.65717">
        <ele>196</ele>
        <time>2011-12-11T08:11:07Z</time>
      </trkpt>
      <trkpt lat="43.56568" lon="6.65719">
        <ele>196</ele>
        <time>2011-12-11T08:11:08Z</time>
      </trkpt>
      <trkpt lat="43.56571" lon="6.6572">
        <ele>196</ele>
        <time>2011-12-11T08:11:09Z</time>
      </trkpt>
      <trkpt lat="43.56573" lon="6.65721">
        <ele>196</ele>
        <time>2011-12-11T08:11:10Z</time>
      </trkpt>
      <trkpt lat="43.56576" lon="6.65723">
        <ele>196</ele>
        <time>2011-12-11T08:11:11Z</time>
      </trkpt>
      <trkpt lat="43.56578" lon="6.65724">
        <ele>196</ele>
        <time>2011-12-11T08:11:12Z</time>
      </trkpt>
      <trkpt lat="43.56581" lon="6.65726">
        <ele>196</ele>
        <time>2011-12-11T08:11:13Z</time>
      </trkpt>
      <trkpt lat="43.56583" lon="6.65728">
        <ele>196</ele>
        <time>2011-12-11T08:11:14Z</time>
      </trkpt>
      <trkpt lat="43.56584" lon="6.65729">
        <ele>196</ele>
        <time>2011-12-11T08:11:15Z</time>
      </trkpt>
      <trkpt lat="43.56586" lon="6.65731">
        <ele>196</ele>
        <time>2011-12-11T08:11:16Z</time>
      </trkpt>
      <trkpt lat="43.56587" lon="6.65732">
        <ele>196</ele>
        <time>2011-12-11T08:11:17Z</time>
      </trkpt>
      <trkpt lat="43.56589" lon="6.65733">
        <ele>196</ele>
        <time>2011-12-11T08:11:18Z</time>
      </trkpt>
      <trkpt lat="43.56591" lon="6.65734">
        <ele>196</ele>
        <time>2011-12-11T08:11:19Z</time>
      </trkpt>
      <trkpt lat="43.56592" lon="6.65736">
        <ele>196</ele>
        <time>2011-12-11T08:11:20Z</time>
      </trkpt>
      <trkpt lat="43.56594" lon="6.65737">
        <ele>196</ele>
        <time>2011-12-11T08:11:21Z</time>
      </trkpt>
      <trkpt lat="43.56595" lon="6.65739">
        <ele>196</ele>
        <time>2011-12-11T08:11:22Z</time>
      </trkpt>
      <trkpt lat="43.56597" lon="6.6574">
        <ele>196</ele>
        <time>2011-12-11T08:11:23Z</time>
      </trkpt>
      <trkpt lat="43.56598" lon="6.65741">
        <ele>196</ele>
        <time>2011-12-11T08:11:24Z</time>
      </trkpt>
      <trkpt lat="43.56599" lon="6.65743">
        <ele>196</ele>
        <time>2011-12-11T08:11:25Z</time>
      </trkpt>
      <trkpt lat="43.56601" lon="6.65744">
        <ele>196</ele>
        <time>2011-12-11T08:11:26Z</time>
      </trkpt>
      <trkpt lat="43.56602" lon="6.65746">
        <ele>196</ele>
        <time>2011-12-11T08:11:27Z</time>
      </trkpt>
      <trkpt lat="43.56604" lon="6.65746">
        <ele>197</ele>
        <time>2011-12-11T08:11:28Z</time>
      </trkpt>
      <trkpt lat="43.56606" lon="6.65744">
        <ele>197</ele>
        <time>2011-12-11T08:11:29Z</time>
      </trkpt>
      <trkpt lat="43.56608" lon="6.65742">
        <ele>197</ele>
        <time>2011-12-11T08:11:30Z</time>
      </trkpt>
      <trkpt lat="43.56609" lon="6.65739">
        <ele>197</ele>
        <time>2011-12-11T08:11:31Z</time>
      </trkpt>
      <trkpt lat="43.5661" lon="6.65735">
        <ele>197</ele>
        <time>2011-12-11T08:11:32Z</time>
      </trkpt>
      <trkpt lat="43.5661" lon="6.65732">
        <ele>197</ele>
        <time>2011-12-11T08:11:33Z</time>
      </trkpt>
      <trkpt lat="43.56611" lon="6.65729">
        <ele>196</ele>
        <time>2011-12-11T08:11:34Z</time>
      </trkpt>
      <trkpt lat="43.56611" lon="6.65725">
        <ele>196</ele>
        <time>2011-12-11T08:11:35Z</time>
      </trkpt>
      <trkpt lat="43.56612" lon="6.65722">
        <ele>196</ele>
        <time>2011-12-11T08:11:36Z</time>
      </trkpt>
      <trkpt lat="43.56612" lon="6.65719">
        <ele>197</ele>
        <time>2011-12-11T08:11:37Z</time>
      </trkpt>
      <trkpt lat="43.56613" lon="6.65716">
        <ele>197</ele>
        <time>2011-12-11T08:11:38Z</time>
      </trkpt>
      <trkpt lat="43.56614" lon="6.65713">
        <ele>197</ele>
        <time>2011-12-11T08:11:39Z</time>
      </trkpt>
      <trkpt lat="43.56616" lon="6.65711">
        <ele>197</ele>
        <time>2011-12-11T08:11:40Z</time>
      </trkpt>
      <trkpt lat="43.56617" lon="6.65709">
        <ele>197</ele>
        <time>2011-12-11T08:11:41Z</time>
      </trkpt>
      <trkpt lat="43.56618" lon="6.65707">
        <ele>197</ele>
        <time>2011-12-11T08:11:42Z</time>
      </trkpt>
      <trkpt lat="43.5662" lon="6.65705">
        <ele>197</ele>
        <time>2011-12-11T08:11:43Z</time>
      </trkpt>
      <trkpt lat="43.56621" lon="6.65704">
        <ele>197</ele>
        <time>2011-12-11T08:11:44Z</time>
      </trkpt>
      <trkpt lat="43.56623" lon="6.65703">
        <ele>197</ele>
        <time>2011-12-11T08:11:45Z</time>
      </trkpt>
      <trkpt lat="43.56623" lon="6.65702">
        <ele>197</ele>
        <time>2011-12-11T08:11:46Z</time>
      </trkpt>
      <trkpt lat="43.56624" lon="6.65701">
        <ele>197</ele>
        <time>2011-12-11T08:11:55Z</time>
      </trkpt>
      <trkpt lat="43.56625" lon="6.65701">
        <ele>198</ele>
        <time>2011-12-11T08:11:56Z</time>
      </trkpt>
      <trkpt lat="43.56627" lon="6.657">
        <ele>198</ele>
        <time>2011-12-11T08:11:57Z</time>
      </trkpt>
      <trkpt lat="43.56628" lon="6.65698">
        <ele>198</ele>
        <time>2011-12-11T08:11:58Z</time>
      </trkpt>
      <trkpt lat="43.5663" lon="6.65698">
        <ele>198</ele>
        <time>2011-12-11T08:11:59Z</time>
      </trkpt>
      <trkpt lat="43.56633" lon="6.65696">
        <ele>199</ele>
        <time>2011-12-11T08:12:00Z</time>
      </trkpt>
      <trkpt lat="43.56635" lon="6.65696">
        <ele>199</ele>
        <time>2011-12-11T08:12:01Z</time>
      </trkpt>
      <trkpt lat="43.56637" lon="6.65695">
        <ele>199</ele>
        <time>2011-12-11T08:12:02Z</time>
      </trkpt>
      <trkpt lat="43.5664" lon="6.65694">
        <ele>199</ele>
        <time>2011-12-11T08:12:03Z</time>
      </trkpt>
      <trkpt lat="43.56642" lon="6.65693">
        <ele>200</ele>
        <time>2011-12-11T08:12:04Z</time>
      </trkpt>
      <trkpt lat="43.56644" lon="6.65692">
        <ele>200</ele>
        <time>2011-12-11T08:12:05Z</time>
      </trkpt>
      <trkpt lat="43.56647" lon="6.65692">
        <ele>200</ele>
        <time>2011-12-11T08:12:06Z</time>
      </trkpt>
      <trkpt lat="43.56649" lon="6.65691">
        <ele>201</ele>
        <time>2011-12-11T08:12:07Z</time>
      </trkpt>
      <trkpt lat="43.56651" lon="6.6569">
        <ele>201</ele>
        <time>2011-12-11T08:12:08Z</time>
      </trkpt>
      <trkpt lat="43.56653" lon="6.6569">
        <ele>201</ele>
        <time>2011-12-11T08:12:09Z</time>
      </trkpt>
      <trkpt lat="43.56655" lon="6.65689">
        <ele>201</ele>
        <time>2011-12-11T08:12:10Z</time>
      </trkpt>
      <trkpt lat="43.56657" lon="6.65689">
        <ele>202</ele>
        <time>2011-12-11T08:12:11Z</time>
      </trkpt>
      <trkpt lat="43.56659" lon="6.65688">
        <ele>202</ele>
        <time>2011-12-11T08:12:12Z</time>
      </trkpt>
      <trkpt lat="43.56661" lon="6.65687">
        <ele>202</ele>
        <time>2011-12-11T08:12:13Z</time>
      </trkpt>
      <trkpt lat="43.56663" lon="6.65687">
        <ele>202</ele>
        <time>2011-12-11T08:12:14Z</time>
      </trkpt>
      <trkpt lat="43.56665" lon="6.65686">
        <ele>203</ele>
        <time>2011-12-11T08:12:15Z</time>
      </trkpt>
      <trkpt lat="43.56666" lon="6.65686">
        <ele>203</ele>
        <time>2011-12-11T08:12:16Z</time>
      </trkpt>
      <trkpt lat="43.56668" lon="6.65686">
        <ele>203</ele>
        <time>2011-12-11T08:12:17Z</time>
      </trkpt>
      <trkpt lat="43.5667" lon="6.65685">
        <ele>204</ele>
        <time>2011-12-11T08:12:18Z</time>
      </trkpt>
      <trkpt lat="43.56672" lon="6.65685">
        <ele>204</ele>
        <time>2011-12-11T08:12:19Z</time>
      </trkpt>
      <trkpt lat="43.56674" lon="6.65684">
        <ele>204</ele>
        <time>2011-12-11T08:12:20Z</time>
      </trkpt>
      <trkpt lat="43.56675" lon="6.65684">
        <ele>205</ele>
        <time>2011-12-11T08:12:21Z</time>
      </trkpt>
      <trkpt lat="43.56677" lon="6.65683">
        <ele>205</ele>
        <time>2011-12-11T08:12:22Z</time>
      </trkpt>
      <trkpt lat="43.56679" lon="6.65682">
        <ele>205</ele>
        <time>2011-12-11T08:12:23Z</time>
      </trkpt>
      <trkpt lat="43.56681" lon="6.65681">
        <ele>206</ele>
        <time>2011-12-11T08:12:24Z</time>
      </trkpt>
      <trkpt lat="43.56683" lon="6.65681">
        <ele>206</ele>
        <time>2011-12-11T08:12:25Z</time>
      </trkpt>
      <trkpt lat="43.56685" lon="6.6568">
        <ele>206</ele>
        <time>2011-12-11T08:12:26Z</time>
      </trkpt>
      <trkpt lat="43.56687" lon="6.6568">
        <ele>207</ele>
        <time>2011-12-11T08:12:27Z</time>
      </trkpt>
      <trkpt lat="43.56689" lon="6.65679">
        <ele>207</ele>
        <time>2011-12-11T08:12:28Z</time>
      </trkpt>
      <trkpt lat="43.56691" lon="6.65679">
        <ele>207</ele>
        <time>2011-12-11T08:12:29Z</time>
      </trkpt>
      <trkpt lat="43.56693" lon="6.65678">
        <ele>207</ele>
        <time>2011-12-11T08:12:30Z</time>
      </trkpt>
      <trkpt lat="43.56695" lon="6.65678">
        <ele>207</ele>
        <time>2011-12-11T08:12:31Z</time>
      </trkpt>
      <trkpt lat="43.56697" lon="6.65678">
        <ele>208</ele>
        <time>2011-12-11T08:12:32Z</time>
      </trkpt>
      <trkpt lat="43.567" lon="6.65677">
        <ele>208</ele>
        <time>2011-12-11T08:12:33Z</time>
      </trkpt>
      <trkpt lat="43.56701" lon="6.65677">
        <ele>208</ele>
        <time>2011-12-11T08:12:34Z</time>
      </trkpt>
      <trkpt lat="43.56703" lon="6.65677">
        <ele>208</ele>
        <time>2011-12-11T08:12:35Z</time>
      </trkpt>
      <trkpt lat="43.56705" lon="6.65676">
        <ele>209</ele>
        <time>2011-12-11T08:12:36Z</time>
      </trkpt>
      <trkpt lat="43.56707" lon="6.65676">
        <ele>209</ele>
        <time>2011-12-11T08:12:37Z</time>
      </trkpt>
      <trkpt lat="43.56709" lon="6.65676">
        <ele>209</ele>
        <time>2011-12-11T08:12:38Z</time>
      </trkpt>
      <trkpt lat="43.56711" lon="6.65675">
        <ele>209</ele>
        <time>2011-12-11T08:12:39Z</time>
      </trkpt>
      <trkpt lat="43.56714" lon="6.65674">
        <ele>209</ele>
        <time>2011-12-11T08:12:40Z</time>
      </trkpt>
      <trkpt lat="43.56716" lon="6.65673">
        <ele>210</ele>
        <time>2011-12-11T08:12:41Z</time>
      </trkpt>
      <trkpt lat="43.56718" lon="6.65672">
        <ele>210</ele>
        <time>2011-12-11T08:12:42Z</time>
      </trkpt>
      <trkpt lat="43.5672" lon="6.6567">
        <ele>210</ele>
        <time>2011-12-11T08:12:43Z</time>
      </trkpt>
      <trkpt lat="43.56722" lon="6.65669">
        <ele>210</ele>
        <time>2011-12-11T08:12:44Z</time>
      </trkpt>
      <trkpt lat="43.56725" lon="6.65667">
        <ele>210</ele>
        <time>2011-12-11T08:12:45Z</time>
      </trkpt>
      <trkpt lat="43.56727" lon="6.65665">
        <ele>210</ele>
        <time>2011-12-11T08:12:46Z</time>
      </trkpt>
      <trkpt lat="43.56729" lon="6.65663">
        <ele>210</ele>
        <time>2011-12-11T08:12:47Z</time>
      </trkpt>
      <trkpt lat="43.56731" lon="6.65661">
        <ele>210</ele>
        <time>2011-12-11T08:12:48Z</time>
      </trkpt>
      <trkpt lat="43.56733" lon="6.65659">
        <ele>211</ele>
        <time>2011-12-11T08:12:49Z</time>
      </trkpt>
      <trkpt lat="43.56735" lon="6.65656">
        <ele>211</ele>
        <time>2011-12-11T08:12:50Z</time>
      </trkpt>
      <trkpt lat="43.56736" lon="6.65653">
        <ele>211</ele>
        <time>2011-12-11T08:12:51Z</time>
      </trkpt>
      <trkpt lat="43.56738" lon="6.6565">
        <ele>211</ele>
        <time>2011-12-11T08:12:52Z</time>
      </trkpt>
      <trkpt lat="43.56739" lon="6.65647">
        <ele>212</ele>
        <time>2011-12-11T08:12:53Z</time>
      </trkpt>
      <trkpt lat="43.56741" lon="6.65644">
        <ele>212</ele>
        <time>2011-12-11T08:12:54Z</time>
      </trkpt>
      <trkpt lat="43.56742" lon="6.65641">
        <ele>212</ele>
        <time>2011-12-11T08:12:55Z</time>
      </trkpt>
      <trkpt lat="43.56744" lon="6.65638">
        <ele>213</ele>
        <time>2011-12-11T08:12:56Z</time>
      </trkpt>
      <trkpt lat="43.56745" lon="6.65635">
        <ele>213</ele>
        <time>2011-12-11T08:12:57Z</time>
      </trkpt>
      <trkpt lat="43.56746" lon="6.65632">
        <ele>213</ele>
        <time>2011-12-11T08:12:58Z</time>
      </trkpt>
      <trkpt lat="43.56747" lon="6.65629">
        <ele>213</ele>
        <time>2011-12-11T08:12:59Z</time>
      </trkpt>
      <trkpt lat="43.56749" lon="6.65627">
        <ele>213</ele>
        <time>2011-12-11T08:13:00Z</time>
      </trkpt>
      <trkpt lat="43.5675" lon="6.65625">
        <ele>214</ele>
        <time>2011-12-11T08:13:01Z</time>
      </trkpt>
      <trkpt lat="43.56752" lon="6.65623">
        <ele>214</ele>
        <time>2011-12-11T08:13:02Z</time>
      </trkpt>
      <trkpt lat="43.56754" lon="6.65621">
        <ele>214</ele>
        <time>2011-12-11T08:13:03Z</time>
      </trkpt>
      <trkpt lat="43.56756" lon="6.65619">
        <ele>214</ele>
        <time>2011-12-11T08:13:04Z</time>
      </trkpt>
      <trkpt lat="43.56758" lon="6.65618">
        <ele>214</ele>
        <time>2011-12-11T08:13:05Z</time>
      </trkpt>
      <trkpt lat="43.5676" lon="6.65616">
        <ele>214</ele>
        <time>2011-12-11T08:13:06Z</time>
      </trkpt>
      <trkpt lat="43.56762" lon="6.65614">
        <ele>214</ele>
        <time>2011-12-11T08:13:07Z</time>
      </trkpt>
      <trkpt lat="43.56764" lon="6.65612">
        <ele>215</ele>
        <time>2011-12-11T08:13:08Z</time>
      </trkpt>
      <trkpt lat="43.56766" lon="6.6561">
        <ele>215</ele>
        <time>2011-12-11T08:13:09Z</time>
      </trkpt>
      <trkpt lat="43.56768" lon="6.65608">
        <ele>215</ele>
        <time>2011-12-11T08:13:10Z</time>
      </trkpt>
      <trkpt lat="43.5677" lon="6.65606">
        <ele>215</ele>
        <time>2011-12-11T08:13:11Z</time>
      </trkpt>
      <trkpt lat="43.56772" lon="6.65604">
        <ele>215</ele>
        <time>2011-12-11T08:13:12Z</time>
      </trkpt>
      <trkpt lat="43.56774" lon="6.65602">
        <ele>215</ele>
        <time>2011-12-11T08:13:13Z</time>
      </trkpt>
      <trkpt lat="43.56776" lon="6.656">
        <ele>215</ele>
        <time>2011-12-11T08:13:14Z</time>
      </trkpt>
      <trkpt lat="43.56777" lon="6.65598">
        <ele>215</ele>
        <time>2011-12-11T08:13:15Z</time>
      </trkpt>
      <trkpt lat="43.56779" lon="6.65596">
        <ele>216</ele>
        <time>2011-12-11T08:13:16Z</time>
      </trkpt>
      <trkpt lat="43.56781" lon="6.65594">
        <ele>216</ele>
        <time>2011-12-11T08:13:17Z</time>
      </trkpt>
      <trkpt lat="43.56783" lon="6.65592">
        <ele>216</ele>
        <time>2011-12-11T08:13:18Z</time>
      </trkpt>
      <trkpt lat="43.56784" lon="6.65589">
        <ele>216</ele>
        <time>2011-12-11T08:13:19Z</time>
      </trkpt>
      <trkpt lat="43.56786" lon="6.65587">
        <ele>216</ele>
        <time>2011-12-11T08:13:20Z</time>
      </trkpt>
      <trkpt lat="43.56787" lon="6.65585">
        <ele>216</ele>
        <time>2011-12-11T08:13:21Z</time>
      </trkpt>
      <trkpt lat="43.56789" lon="6.65582">
        <ele>216</ele>
        <time>2011-12-11T08:13:22Z</time>
      </trkpt>
      <trkpt lat="43.56791" lon="6.65579">
        <ele>216</ele>
        <time>2011-12-11T08:13:23Z</time>
      </trkpt>
      <trkpt lat="43.56792" lon="6.65576">
        <ele>216</ele>
        <time>2011-12-11T08:13:24Z</time>
      </trkpt>
      <trkpt lat="43.56794" lon="6.65573">
        <ele>216</ele>
        <time>2011-12-11T08:13:25Z</time>
      </trkpt>
      <trkpt lat="43.56795" lon="6.6557">
        <ele>216</ele>
        <time>2011-12-11T08:13:26Z</time>
      </trkpt>
      <trkpt lat="43.56797" lon="6.65568">
        <ele>216</ele>
        <time>2011-12-11T08:13:27Z</time>
      </trkpt>
      <trkpt lat="43.56798" lon="6.65564">
        <ele>216</ele>
        <time>2011-12-11T08:13:28Z</time>
      </trkpt>
      <trkpt lat="43.56799" lon="6.65561">
        <ele>216</ele>
        <time>2011-12-11T08:13:29Z</time>
      </trkpt>
      <trkpt lat="43.56801" lon="6.65558">
        <ele>216</ele>
        <time>2011-12-11T08:13:30Z</time>
      </trkpt>
      <trkpt lat="43.56802" lon="6.65553">
        <ele>216</ele>
        <time>2011-12-11T08:13:31Z</time>
      </trkpt>
      <trkpt lat="43.56804" lon="6.65549">
        <ele>216</ele>
        <time>2011-12-11T08:13:32Z</time>
      </trkpt>
      <trkpt lat="43.56805" lon="6.65545">
        <ele>216</ele>
        <time>2011-12-11T08:13:33Z</time>
      </trkpt>
      <trkpt lat="43.56806" lon="6.65541">
        <ele>216</ele>
        <time>2011-12-11T08:13:34Z</time>
      </trkpt>
      <trkpt lat="43.56808" lon="6.65536">
        <ele>216</ele>
        <time>2011-12-11T08:13:35Z</time>
      </trkpt>
      <trkpt lat="43.56809" lon="6.65531">
        <ele>216</ele>
        <time>2011-12-11T08:13:36Z</time>
      </trkpt>
      <trkpt lat="43.56811" lon="6.65527">
        <ele>216</ele>
        <time>2011-12-11T08:13:37Z</time>
      </trkpt>
      <trkpt lat="43.56812" lon="6.65523">
        <ele>216</ele>
        <time>2011-12-11T08:13:38Z</time>
      </trkpt>
      <trkpt lat="43.56814" lon="6.65519">
        <ele>216</ele>
        <time>2011-12-11T08:13:39Z</time>
      </trkpt>
      <trkpt lat="43.56816" lon="6.65514">
        <ele>216</ele>
        <time>2011-12-11T08:13:40Z</time>
      </trkpt>
      <trkpt lat="43.56817" lon="6.6551">
        <ele>216</ele>
        <time>2011-12-11T08:13:41Z</time>
      </trkpt>
      <trkpt lat="43.56819" lon="6.65506">
        <ele>216</ele>
        <time>2011-12-11T08:13:42Z</time>
      </trkpt>
      <trkpt lat="43.5682" lon="6.65502">
        <ele>216</ele>
        <time>2011-12-11T08:13:43Z</time>
      </trkpt>
      <trkpt lat="43.56821" lon="6.65499">
        <ele>216</ele>
        <time>2011-12-11T08:13:44Z</time>
      </trkpt>
      <trkpt lat="43.56823" lon="6.65496">
        <ele>216</ele>
        <time>2011-12-11T08:13:45Z</time>
      </trkpt>
      <trkpt lat="43.56824" lon="6.65492">
        <ele>217</ele>
        <time>2011-12-11T08:13:46Z</time>
      </trkpt>
      <trkpt lat="43.56826" lon="6.65488">
        <ele>217</ele>
        <time>2011-12-11T08:13:47Z</time>
      </trkpt>
      <trkpt lat="43.56827" lon="6.65485">
        <ele>217</ele>
        <time>2011-12-11T08:13:48Z</time>
      </trkpt>
      <trkpt lat="43.56829" lon="6.65482">
        <ele>217</ele>
        <time>2011-12-11T08:13:49Z</time>
      </trkpt>
      <trkpt lat="43.56831" lon="6.65478">
        <ele>216</ele>
        <time>2011-12-11T08:13:50Z</time>
      </trkpt>
      <trkpt lat="43.56833" lon="6.65476">
        <ele>217</ele>
        <time>2011-12-11T08:13:51Z</time>
      </trkpt>
      <trkpt lat="43.56834" lon="6.65472">
        <ele>216</ele>
        <time>2011-12-11T08:13:52Z</time>
      </trkpt>
      <trkpt lat="43.56836" lon="6.65469">
        <ele>216</ele>
        <time>2011-12-11T08:13:53Z</time>
      </trkpt>
      <trkpt lat="43.56836" lon="6.65465">
        <ele>216</ele>
        <time>2011-12-11T08:13:54Z</time>
      </trkpt>
      <trkpt lat="43.56837" lon="6.65462">
        <ele>217</ele>
        <time>2011-12-11T08:13:55Z</time>
      </trkpt>
      <trkpt lat="43.56838" lon="6.65459">
        <ele>217</ele>
        <time>2011-12-11T08:13:56Z</time>
      </trkpt>
      <trkpt lat="43.56839" lon="6.65456">
        <ele>217</ele>
        <time>2011-12-11T08:13:57Z</time>
      </trkpt>
      <trkpt lat="43.5684" lon="6.65453">
        <ele>217</ele>
        <time>2011-12-11T08:13:58Z</time>
      </trkpt>
      <trkpt lat="43.5684" lon="6.6545">
        <ele>216</ele>
        <time>2011-12-11T08:13:59Z</time>
      </trkpt>
      <trkpt lat="43.56841" lon="6.65446">
        <ele>216</ele>
        <time>2011-12-11T08:14:00Z</time>
      </trkpt>
      <trkpt lat="43.56842" lon="6.65443">
        <ele>216</ele>
        <time>2011-12-11T08:14:01Z</time>
      </trkpt>
      <trkpt lat="43.56843" lon="6.65439">
        <ele>216</ele>
        <time>2011-12-11T08:14:02Z</time>
      </trkpt>
      <trkpt lat="43.56843" lon="6.65435">
        <ele>216</ele>
        <time>2011-12-11T08:14:03Z</time>
      </trkpt>
      <trkpt lat="43.56844" lon="6.6543">
        <ele>216</ele>
        <time>2011-12-11T08:14:04Z</time>
      </trkpt>
      <trkpt lat="43.56845" lon="6.65426">
        <ele>216</ele>
        <time>2011-12-11T08:14:05Z</time>
      </trkpt>
      <trkpt lat="43.56846" lon="6.65422">
        <ele>216</ele>
        <time>2011-12-11T08:14:06Z</time>
      </trkpt>
      <trkpt lat="43.56846" lon="6.65417">
        <ele>216</ele>
        <time>2011-12-11T08:14:07Z</time>
      </trkpt>
      <trkpt lat="43.56847" lon="6.65412">
        <ele>216</ele>
        <time>2011-12-11T08:14:08Z</time>
      </trkpt>
      <trkpt lat="43.56847" lon="6.65406">
        <ele>216</ele>
        <time>2011-12-11T08:14:09Z</time>
      </trkpt>
      <trkpt lat="43.56847" lon="6.65401">
        <ele>216</ele>
        <time>2011-12-11T08:14:10Z</time>
      </trkpt>
      <trkpt lat="43.56849" lon="6.65396">
        <ele>216</ele>
        <time>2011-12-11T08:14:11Z</time>
      </trkpt>
      <trkpt lat="43.56851" lon="6.65391">
        <ele>215</ele>
        <time>2011-12-11T08:14:12Z</time>
      </trkpt>
      <trkpt lat="43.56852" lon="6.65385">
        <ele>215</ele>
        <time>2011-12-11T08:14:13Z</time>
      </trkpt>
      <trkpt lat="43.56854" lon="6.65379">
        <ele>215</ele>
        <time>2011-12-11T08:14:14Z</time>
      </trkpt>
      <trkpt lat="43.56856" lon="6.65373">
        <ele>215</ele>
        <time>2011-12-11T08:14:15Z</time>
      </trkpt>
      <trkpt lat="43.56858" lon="6.65367">
        <ele>214</ele>
        <time>2011-12-11T08:14:16Z</time>
      </trkpt>
      <trkpt lat="43.56859" lon="6.65361">
        <ele>213</ele>
        <time>2011-12-11T08:14:17Z</time>
      </trkpt>
      <trkpt lat="43.5686" lon="6.65356">
        <ele>213</ele>
        <time>2011-12-11T08:14:18Z</time>
      </trkpt>
      <trkpt lat="43.56861" lon="6.6535">
        <ele>213</ele>
        <time>2011-12-11T08:14:19Z</time>
      </trkpt>
      <trkpt lat="43.56862" lon="6.65345">
        <ele>213</ele>
        <time>2011-12-11T08:14:20Z</time>
      </trkpt>
      <trkpt lat="43.56864" lon="6.6534">
        <ele>213</ele>
        <time>2011-12-11T08:14:21Z</time>
      </trkpt>
      <trkpt lat="43.56865" lon="6.65335">
        <ele>213</ele>
        <time>2011-12-11T08:14:22Z</time>
      </trkpt>
      <trkpt lat="43.56866" lon="6.65329">
        <ele>212</ele>
        <time>2011-12-11T08:14:23Z</time>
      </trkpt>
      <trkpt lat="43.56868" lon="6.65324">
        <ele>212</ele>
        <time>2011-12-11T08:14:24Z</time>
      </trkpt>
      <trkpt lat="43.56869" lon="6.65318">
        <ele>212</ele>
        <time>2011-12-11T08:14:25Z</time>
      </trkpt>
      <trkpt lat="43.56872" lon="6.65313">
        <ele>212</ele>
        <time>2011-12-11T08:14:26Z</time>
      </trkpt>
      <trkpt lat="43.56874" lon="6.65308">
        <ele>212</ele>
        <time>2011-12-11T08:14:27Z</time>
      </trkpt>
      <trkpt lat="43.56877" lon="6.65303">
        <ele>212</ele>
        <time>2011-12-11T08:14:28Z</time>
      </trkpt>
      <trkpt lat="43.56879" lon="6.65298">
        <ele>212</ele>
        <time>2011-12-11T08:14:29Z</time>
      </trkpt>
      <trkpt lat="43.56882" lon="6.65292">
        <ele>212</ele>
        <time>2011-12-11T08:14:30Z</time>
      </trkpt>
      <trkpt lat="43.56884" lon="6.65286">
        <ele>212</ele>
        <time>2011-12-11T08:14:31Z</time>
      </trkpt>
      <trkpt lat="43.56871" lon="6.65188">
        <ele>209</ele>
        <time>2011-12-11T08:14:41Z</time>
      </trkpt>
      <trkpt lat="43.56872" lon="6.65098">
        <ele>207</ele>
        <time>2011-12-11T08:14:51Z</time>
      </trkpt>
      <trkpt lat="43.56882" lon="6.65003">
        <ele>202</ele>
        <time>2011-12-11T08:15:01Z</time>
      </trkpt>
      <trkpt lat="43.56883" lon="6.64921">
        <ele>198</ele>
        <time>2011-12-11T08:15:11Z</time>
      </trkpt>
      <trkpt lat="43.56863" lon="6.64851">
        <ele>197</ele>
        <time>2011-12-11T08:15:21Z</time>
      </trkpt>
      <trkpt lat="43.56845" lon="6.64772">
        <ele>197</ele>
        <time>2011-12-11T08:15:31Z</time>
      </trkpt>
      <trkpt lat="43.56844" lon="6.64766">
        <ele>197</ele>
        <time>2011-12-11T08:15:32Z</time>
      </trkpt>
      <trkpt lat="43.56844" lon="6.6476">
        <ele>197</ele>
        <time>2011-12-11T08:15:33Z</time>
      </trkpt>
      <trkpt lat="43.56843" lon="6.64755">
        <ele>197</ele>
        <time>2011-12-11T08:15:34Z</time>
      </trkpt>
      <trkpt lat="43.56842" lon="6.64748">
        <ele>197</ele>
        <time>2011-12-11T08:15:35Z</time>
      </trkpt>
      <trkpt lat="43.56841" lon="6.64742">
        <ele>197</ele>
        <time>2011-12-11T08:15:36Z</time>
      </trkpt>
      <trkpt lat="43.5684" lon="6.64735">
        <ele>197</ele>
        <time>2011-12-11T08:15:37Z</time>
      </trkpt>
      <trkpt lat="43.5684" lon="6.64729">
        <ele>197</ele>
        <time>2011-12-11T08:15:38Z</time>
      </trkpt>
      <trkpt lat="43.56841" lon="6.64723">
        <ele>197</ele>
        <time>2011-12-11T08:15:39Z</time>
      </trkpt>
      <trkpt lat="43.56842" lon="6.64717">
        <ele>197</ele>
        <time>2011-12-11T08:15:40Z</time>
      </trkpt>
      <trkpt lat="43.56843" lon="6.64712">
        <ele>197</ele>
        <time>2011-12-11T08:15:41Z</time>
      </trkpt>
      <trkpt lat="43.56844" lon="6.64708">
        <ele>198</ele>
        <time>2011-12-11T08:15:42Z</time>
      </trkpt>
      <trkpt lat="43.56845" lon="6.64703">
        <ele>198</ele>
        <time>2011-12-11T08:15:43Z</time>
      </trkpt>
      <trkpt lat="43.56845" lon="6.64698">
        <ele>198</ele>
        <time>2011-12-11T08:15:44Z</time>
      </trkpt>
      <trkpt lat="43.56846" lon="6.64694">
        <ele>199</ele>
        <time>2011-12-11T08:15:45Z</time>
      </trkpt>
      <trkpt lat="43.56846" lon="6.64689">
        <ele>199</ele>
        <time>2011-12-11T08:15:46Z</time>
      </trkpt>
      <trkpt lat="43.56846" lon="6.64685">
        <ele>199</ele>
        <time>2011-12-11T08:15:47Z</time>
      </trkpt>
      <trkpt lat="43.56846" lon="6.6468">
        <ele>200</ele>
        <time>2011-12-11T08:15:48Z</time>
      </trkpt>
      <trkpt lat="43.56847" lon="6.64675">
        <ele>200</ele>
        <time>2011-12-11T08:15:49Z</time>
      </trkpt>
      <trkpt lat="43.56848" lon="6.6467">
        <ele>200</ele>
        <time>2011-12-11T08:15:50Z</time>
      </trkpt>
      <trkpt lat="43.56849" lon="6.64665">
        <ele>201</ele>
        <time>2011-12-11T08:15:51Z</time>
      </trkpt>
      <trkpt lat="43.5685" lon="6.64661">
        <ele>201</ele>
        <time>2011-12-11T08:15:52Z</time>
      </trkpt>
      <trkpt lat="43.56852" lon="6.64656">
        <ele>201</ele>
        <time>2011-12-11T08:15:53Z</time>
      </trkpt>
      <trkpt lat="43.56854" lon="6.64652">
        <ele>201</ele>
        <time>2011-12-11T08:15:54Z</time>
      </trkpt>
      <trkpt lat="43.56857" lon="6.64648">
        <ele>201</ele>
        <time>2011-12-11T08:15:55Z</time>
      </trkpt>
      <trkpt lat="43.56859" lon="6.64644">
        <ele>201</ele>
        <time>2011-12-11T08:15:56Z</time>
      </trkpt>
      <trkpt lat="43.56861" lon="6.6464">
        <ele>202</ele>
        <time>2011-12-11T08:15:57Z</time>
      </trkpt>
      <trkpt lat="43.56863" lon="6.64636">
        <ele>202</ele>
        <time>2011-12-11T08:15:58Z</time>
      </trkpt>
      <trkpt lat="43.56864" lon="6.64632">
        <ele>202</ele>
        <time>2011-12-11T08:15:59Z</time>
      </trkpt>
      <trkpt lat="43.56865" lon="6.64627">
        <ele>203</ele>
        <time>2011-12-11T08:16:00Z</time>
      </trkpt>
      <trkpt lat="43.56865" lon="6.64623">
        <ele>203</ele>
        <time>2011-12-11T08:16:01Z</time>
      </trkpt>
      <trkpt lat="43.56866" lon="6.64618">
        <ele>203</ele>
        <time>2011-12-11T08:16:02Z</time>
      </trkpt>
      <trkpt lat="43.56866" lon="6.64613">
        <ele>203</ele>
        <time>2011-12-11T08:16:03Z</time>
      </trkpt>
      <trkpt lat="43.56867" lon="6.64609">
        <ele>203</ele>
        <time>2011-12-11T08:16:04Z</time>
      </trkpt>
      <trkpt lat="43.56867" lon="6.64605">
        <ele>204</ele>
        <time>2011-12-11T08:16:05Z</time>
      </trkpt>
      <trkpt lat="43.56867" lon="6.646">
        <ele>204</ele>
        <time>2011-12-11T08:16:06Z</time>
      </trkpt>
      <trkpt lat="43.56867" lon="6.64595">
        <ele>204</ele>
        <time>2011-12-11T08:16:07Z</time>
      </trkpt>
      <trkpt lat="43.56867" lon="6.6459">
        <ele>204</ele>
        <time>2011-12-11T08:16:08Z</time>
      </trkpt>
      <trkpt lat="43.56868" lon="6.64585">
        <ele>205</ele>
        <time>2011-12-11T08:16:09Z</time>
      </trkpt>
      <trkpt lat="43.56868" lon="6.6458">
        <ele>205</ele>
        <time>2011-12-11T08:16:10Z</time>
      </trkpt>
      <trkpt lat="43.56869" lon="6.64575">
        <ele>205</ele>
        <time>2011-12-11T08:16:11Z</time>
      </trkpt>
      <trkpt lat="43.56872" lon="6.64571">
        <ele>205</ele>
        <time>2011-12-11T08:16:12Z</time>
      </trkpt>
      <trkpt lat="43.56874" lon="6.64567">
        <ele>205</ele>
        <time>2011-12-11T08:16:13Z</time>
      </trkpt>
      <trkpt lat="43.56877" lon="6.64563">
        <ele>205</ele>
        <time>2011-12-11T08:16:14Z</time>
      </trkpt>
      <trkpt lat="43.5688" lon="6.64559">
        <ele>205</ele>
        <time>2011-12-11T08:16:15Z</time>
      </trkpt>
      <trkpt lat="43.56883" lon="6.64555">
        <ele>205</ele>
        <time>2011-12-11T08:16:16Z</time>
      </trkpt>
      <trkpt lat="43.56885" lon="6.64551">
        <ele>206</ele>
        <time>2011-12-11T08:16:17Z</time>
      </trkpt>
      <trkpt lat="43.56887" lon="6.64546">
        <ele>206</ele>
        <time>2011-12-11T08:16:18Z</time>
      </trkpt>
      <trkpt lat="43.56886" lon="6.64542">
        <ele>206</ele>
        <time>2011-12-11T08:16:19Z</time>
      </trkpt>
      <trkpt lat="43.56885" lon="6.64538">
        <ele>206</ele>
        <time>2011-12-11T08:16:20Z</time>
      </trkpt>
      <trkpt lat="43.56882" lon="6.64536">
        <ele>206</ele>
        <time>2011-12-11T08:16:21Z</time>
      </trkpt>
      <trkpt lat="43.5688" lon="6.64534">
        <ele>207</ele>
        <time>2011-12-11T08:16:22Z</time>
      </trkpt>
      <trkpt lat="43.56877" lon="6.64531">
        <ele>207</ele>
        <time>2011-12-11T08:16:23Z</time>
      </trkpt>
      <trkpt lat="43.56875" lon="6.64528">
        <ele>207</ele>
        <time>2011-12-11T08:16:24Z</time>
      </trkpt>
      <trkpt lat="43.56873" lon="6.64525">
        <ele>207</ele>
        <time>2011-12-11T08:16:25Z</time>
      </trkpt>
      <trkpt lat="43.56872" lon="6.64522">
        <ele>207</ele>
        <time>2011-12-11T08:16:26Z</time>
      </trkpt>
      <trkpt lat="43.56871" lon="6.64519">
        <ele>208</ele>
        <time>2011-12-11T08:16:27Z</time>
      </trkpt>
      <trkpt lat="43.5687" lon="6.64515">
        <ele>208</ele>
        <time>2011-12-11T08:16:28Z</time>
      </trkpt>
      <trkpt lat="43.56869" lon="6.64512">
        <ele>208</ele>
        <time>2011-12-11T08:16:29Z</time>
      </trkpt>
      <trkpt lat="43.56869" lon="6.64509">
        <ele>208</ele>
        <time>2011-12-11T08:16:30Z</time>
      </trkpt>
      <trkpt lat="43.56869" lon="6.64506">
        <ele>208</ele>
        <time>2011-12-11T08:16:31Z</time>
      </trkpt>
      <trkpt lat="43.56868" lon="6.64503">
        <ele>208</ele>
        <time>2011-12-11T08:16:32Z</time>
      </trkpt>
      <trkpt lat="43.56868" lon="6.645">
        <ele>208</ele>
        <time>2011-12-11T08:16:33Z</time>
      </trkpt>
      <trkpt lat="43.56868" lon="6.64496">
        <ele>208</ele>
        <time>2011-12-11T08:16:34Z</time>
      </trkpt>
      <trkpt lat="43.56868" lon="6.64493">
        <ele>209</ele>
        <time>2011-12-11T08:16:35Z</time>
      </trkpt>
      <trkpt lat="43.56868" lon="6.64489">
        <ele>209</ele>
        <time>2011-12-11T08:16:36Z</time>
      </trkpt>
      <trkpt lat="43.56867" lon="6.64486">
        <ele>209</ele>
        <time>2011-12-11T08:16:37Z</time>
      </trkpt>
      <trkpt lat="43.56867" lon="6.64482">
        <ele>209</ele>
        <time>2011-12-11T08:16:38Z</time>
      </trkpt>
      <trkpt lat="43.56866" lon="6.64479">
        <ele>209</ele>
        <time>2011-12-11T08:16:39Z</time>
      </trkpt>
      <trkpt lat="43.56865" lon="6.64475">
        <ele>209</ele>
        <time>2011-12-11T08:16:40Z</time>
      </trkpt>
      <trkpt lat="43.56864" lon="6.64471">
        <ele>209</ele>
        <time>2011-12-11T08:16:41Z</time>
      </trkpt>
      <trkpt lat="43.56863" lon="6.64467">
        <ele>209</ele>
        <time>2011-12-11T08:16:42Z</time>
      </trkpt>
      <trkpt lat="43.56862" lon="6.64463">
        <ele>209</ele>
        <time>2011-12-11T08:16:43Z</time>
      </trkpt>
      <trkpt lat="43.56863" lon="6.64459">
        <ele>209</ele>
        <time>2011-12-11T08:16:44Z</time>
      </trkpt>
      <trkpt lat="43.56863" lon="6.64454">
        <ele>209</ele>
        <time>2011-12-11T08:16:45Z</time>
      </trkpt>
      <trkpt lat="43.56864" lon="6.6445">
        <ele>209</ele>
        <time>2011-12-11T08:16:46Z</time>
      </trkpt>
      <trkpt lat="43.56866" lon="6.64445">
        <ele>209</ele>
        <time>2011-12-11T08:16:47Z</time>
      </trkpt>
      <trkpt lat="43.56868" lon="6.64441">
        <ele>209</ele>
        <time>2011-12-11T08:16:48Z</time>
      </trkpt>
      <trkpt lat="43.56871" lon="6.64437">
        <ele>209</ele>
        <time>2011-12-11T08:16:49Z</time>
      </trkpt>
      <trkpt lat="43.56873" lon="6.64434">
        <ele>209</ele>
        <time>2011-12-11T08:16:50Z</time>
      </trkpt>
      <trkpt lat="43.56875" lon="6.6443">
        <ele>209</ele>
        <time>2011-12-11T08:16:51Z</time>
      </trkpt>
      <trkpt lat="43.56878" lon="6.64425">
        <ele>210</ele>
        <time>2011-12-11T08:16:52Z</time>
      </trkpt>
      <trkpt lat="43.56879" lon="6.6442">
        <ele>210</ele>
        <time>2011-12-11T08:16:53Z</time>
      </trkpt>
      <trkpt lat="43.56881" lon="6.64415">
        <ele>210</ele>
        <time>2011-12-11T08:16:54Z</time>
      </trkpt>
      <trkpt lat="43.56882" lon="6.6441">
        <ele>210</ele>
        <time>2011-12-11T08:16:55Z</time>
      </trkpt>
      <trkpt lat="43.56884" lon="6.64405">
        <ele>210</ele>
        <time>2011-12-11T08:16:56Z</time>
      </trkpt>
      <trkpt lat="43.56886" lon="6.64401">
        <ele>210</ele>
        <time>2011-12-11T08:16:57Z</time>
      </trkpt>
      <trkpt lat="43.56889" lon="6.64397">
        <ele>210</ele>
        <time>2011-12-11T08:16:58Z</time>
      </trkpt>
      <trkpt lat="43.56892" lon="6.64394">
        <ele>210</ele>
        <time>2011-12-11T08:16:59Z</time>
      </trkpt>
      <trkpt lat="43.56896" lon="6.64391">
        <ele>210</ele>
        <time>2011-12-11T08:17:00Z</time>
      </trkpt>
      <trkpt lat="43.56899" lon="6.64388">
        <ele>210</ele>
        <time>2011-12-11T08:17:01Z</time>
      </trkpt>
      <trkpt lat="43.56902" lon="6.64386">
        <ele>211</ele>
        <time>2011-12-11T08:17:02Z</time>
      </trkpt>
      <trkpt lat="43.56906" lon="6.64383">
        <ele>211</ele>
        <time>2011-12-11T08:17:03Z</time>
      </trkpt>
      <trkpt lat="43.56909" lon="6.6438">
        <ele>211</ele>
        <time>2011-12-11T08:17:04Z</time>
      </trkpt>
      <trkpt lat="43.56913" lon="6.64377">
        <ele>211</ele>
        <time>2011-12-11T08:17:05Z</time>
      </trkpt>
      <trkpt lat="43.56916" lon="6.64374">
        <ele>211</ele>
        <time>2011-12-11T08:17:06Z</time>
      </trkpt>
      <trkpt lat="43.5692" lon="6.64371">
        <ele>211</ele>
        <time>2011-12-11T08:17:07Z</time>
      </trkpt>
      <trkpt lat="43.56923" lon="6.64367">
        <ele>212</ele>
        <time>2011-12-11T08:17:08Z</time>
      </trkpt>
      <trkpt lat="43.56927" lon="6.64365">
        <ele>212</ele>
        <time>2011-12-11T08:17:09Z</time>
      </trkpt>
      <trkpt lat="43.5693" lon="6.64362">
        <ele>212</ele>
        <time>2011-12-11T08:17:10Z</time>
      </trkpt>
      <trkpt lat="43.56934" lon="6.6436">
        <ele>212</ele>
        <time>2011-12-11T08:17:11Z</time>
      </trkpt>
      <trkpt lat="43.56937" lon="6.64358">
        <ele>212</ele>
        <time>2011-12-11T08:17:12Z</time>
      </trkpt>
      <trkpt lat="43.56941" lon="6.64357">
        <ele>212</ele>
        <time>2011-12-11T08:17:13Z</time>
      </trkpt>
      <trkpt lat="43.56945" lon="6.64357">
        <ele>212</ele>
        <time>2011-12-11T08:17:14Z</time>
      </trkpt>
      <trkpt lat="43.56949" lon="6.64358">
        <ele>212</ele>
        <time>2011-12-11T08:17:15Z</time>
      </trkpt>
      <trkpt lat="43.56953" lon="6.6436">
        <ele>212</ele>
        <time>2011-12-11T08:17:16Z</time>
      </trkpt>
      <trkpt lat="43.56957" lon="6.64363">
        <ele>211</ele>
        <time>2011-12-11T08:17:17Z</time>
      </trkpt>
      <trkpt lat="43.5696" lon="6.64367">
        <ele>211</ele>
        <time>2011-12-11T08:17:18Z</time>
      </trkpt>
      <trkpt lat="43.56963" lon="6.64371">
        <ele>211</ele>
        <time>2011-12-11T08:17:19Z</time>
      </trkpt>
      <trkpt lat="43.56966" lon="6.64376">
        <ele>211</ele>
        <time>2011-12-11T08:17:20Z</time>
      </trkpt>
      <trkpt lat="43.56969" lon="6.6438">
        <ele>211</ele>
        <time>2011-12-11T08:17:21Z</time>
      </trkpt>
      <trkpt lat="43.56972" lon="6.64385">
        <ele>211</ele>
        <time>2011-12-11T08:17:22Z</time>
      </trkpt>
      <trkpt lat="43.56975" lon="6.64388">
        <ele>211</ele>
        <time>2011-12-11T08:17:23Z</time>
      </trkpt>
      <trkpt lat="43.56979" lon="6.6439">
        <ele>211</ele>
        <time>2011-12-11T08:17:24Z</time>
      </trkpt>
      <trkpt lat="43.56981" lon="6.64389">
        <ele>211</ele>
        <time>2011-12-11T08:17:25Z</time>
      </trkpt>
      <trkpt lat="43.56983" lon="6.64387">
        <ele>211</ele>
        <time>2011-12-11T08:17:26Z</time>
      </trkpt>
      <trkpt lat="43.56983" lon="6.64383">
        <ele>211</ele>
        <time>2011-12-11T08:17:27Z</time>
      </trkpt>
      <trkpt lat="43.56983" lon="6.64378">
        <ele>211</ele>
        <time>2011-12-11T08:17:28Z</time>
      </trkpt>
      <trkpt lat="43.56983" lon="6.64373">
        <ele>211</ele>
        <time>2011-12-11T08:17:29Z</time>
      </trkpt>
      <trkpt lat="43.56983" lon="6.64368">
        <ele>212</ele>
        <time>2011-12-11T08:17:30Z</time>
      </trkpt>
      <trkpt lat="43.56983" lon="6.64362">
        <ele>212</ele>
        <time>2011-12-11T08:17:31Z</time>
      </trkpt>
      <trkpt lat="43.56984" lon="6.64357">
        <ele>212</ele>
        <time>2011-12-11T08:17:32Z</time>
      </trkpt>
      <trkpt lat="43.56985" lon="6.64351">
        <ele>212</ele>
        <time>2011-12-11T08:17:33Z</time>
      </trkpt>
      <trkpt lat="43.56988" lon="6.64347">
        <ele>212</ele>
        <time>2011-12-11T08:17:34Z</time>
      </trkpt>
      <trkpt lat="43.5699" lon="6.64342">
        <ele>212</ele>
        <time>2011-12-11T08:17:35Z</time>
      </trkpt>
      <trkpt lat="43.56993" lon="6.64338">
        <ele>212</ele>
        <time>2011-12-11T08:17:36Z</time>
      </trkpt>
      <trkpt lat="43.56996" lon="6.64333">
        <ele>212</ele>
        <time>2011-12-11T08:17:37Z</time>
      </trkpt>
      <trkpt lat="43.56999" lon="6.64329">
        <ele>212</ele>
        <time>2011-12-11T08:17:38Z</time>
      </trkpt>
      <trkpt lat="43.57002" lon="6.64325">
        <ele>213</ele>
        <time>2011-12-11T08:17:39Z</time>
      </trkpt>
      <trkpt lat="43.57005" lon="6.64321">
        <ele>212</ele>
        <time>2011-12-11T08:17:40Z</time>
      </trkpt>
      <trkpt lat="43.57008" lon="6.64318">
        <ele>213</ele>
        <time>2011-12-11T08:17:41Z</time>
      </trkpt>
      <trkpt lat="43.57011" lon="6.64314">
        <ele>213</ele>
        <time>2011-12-11T08:17:42Z</time>
      </trkpt>
      <trkpt lat="43.57015" lon="6.64311">
        <ele>213</ele>
        <time>2011-12-11T08:17:43Z</time>
      </trkpt>
      <trkpt lat="43.57018" lon="6.64308">
        <ele>213</ele>
        <time>2011-12-11T08:17:44Z</time>
      </trkpt>
      <trkpt lat="43.57022" lon="6.64305">
        <ele>213</ele>
        <time>2011-12-11T08:17:45Z</time>
      </trkpt>
      <trkpt lat="43.57025" lon="6.64303">
        <ele>213</ele>
        <time>2011-12-11T08:17:46Z</time>
      </trkpt>
      <trkpt lat="43.57029" lon="6.64301">
        <ele>213</ele>
        <time>2011-12-11T08:17:47Z</time>
      </trkpt>
      <trkpt lat="43.57033" lon="6.64298">
        <ele>213</ele>
        <time>2011-12-11T08:17:48Z</time>
      </trkpt>
      <trkpt lat="43.57036" lon="6.64296">
        <ele>213</ele>
        <time>2011-12-11T08:17:49Z</time>
      </trkpt>
      <trkpt lat="43.5704" lon="6.64293">
        <ele>213</ele>
        <time>2011-12-11T08:17:50Z</time>
      </trkpt>
      <trkpt lat="43.57045" lon="6.6429">
        <ele>213</ele>
        <time>2011-12-11T08:17:51Z</time>
      </trkpt>
      <trkpt lat="43.57049" lon="6.64288">
        <ele>213</ele>
        <time>2011-12-11T08:17:52Z</time>
      </trkpt>
      <trkpt lat="43.57054" lon="6.64286">
        <ele>213</ele>
        <time>2011-12-11T08:17:53Z</time>
      </trkpt>
      <trkpt lat="43.57059" lon="6.64285">
        <ele>213</ele>
        <time>2011-12-11T08:17:54Z</time>
      </trkpt>
      <trkpt lat="43.57064" lon="6.64284">
        <ele>213</ele>
        <time>2011-12-11T08:17:55Z</time>
      </trkpt>
      <trkpt lat="43.57069" lon="6.64283">
        <ele>213</ele>
        <time>2011-12-11T08:17:56Z</time>
      </trkpt>
      <trkpt lat="43.57074" lon="6.64284">
        <ele>213</ele>
        <time>2011-12-11T08:17:57Z</time>
      </trkpt>
      <trkpt lat="43.57079" lon="6.64285">
        <ele>213</ele>
        <time>2011-12-11T08:17:58Z</time>
      </trkpt>
      <trkpt lat="43.57083" lon="6.64285">
        <ele>213</ele>
        <time>2011-12-11T08:17:59Z</time>
      </trkpt>
      <trkpt lat="43.57086" lon="6.64284">
        <ele>213</ele>
        <time>2011-12-11T08:18:00Z</time>
      </trkpt>
      <trkpt lat="43.57089" lon="6.64281">
        <ele>213</ele>
        <time>2011-12-11T08:18:01Z</time>
      </trkpt>
      <trkpt lat="43.57091" lon="6.64276">
        <ele>212</ele>
        <time>2011-12-11T08:18:02Z</time>
      </trkpt>
      <trkpt lat="43.57091" lon="6.64271">
        <ele>213</ele>
        <time>2011-12-11T08:18:03Z</time>
      </trkpt>
      <trkpt lat="43.57089" lon="6.64267">
        <ele>213</ele>
        <time>2011-12-11T08:18:04Z</time>
      </trkpt>
      <trkpt lat="43.57087" lon="6.64265">
        <ele>213</ele>
        <time>2011-12-11T08:18:05Z</time>
      </trkpt>
      <trkpt lat="43.57085" lon="6.64264">
        <ele>212</ele>
        <time>2011-12-11T08:18:06Z</time>
      </trkpt>
      <trkpt lat="43.57083" lon="6.64263">
        <ele>212</ele>
        <time>2011-12-11T08:18:07Z</time>
      </trkpt>
      <trkpt lat="43.57081" lon="6.64262">
        <ele>213</ele>
        <time>2011-12-11T08:18:08Z</time>
      </trkpt>
      <trkpt lat="43.5708" lon="6.6426">
        <ele>213</ele>
        <time>2011-12-11T08:18:09Z</time>
      </trkpt>
      <trkpt lat="43.57078" lon="6.64259">
        <ele>213</ele>
        <time>2011-12-11T08:18:10Z</time>
      </trkpt>
      <trkpt lat="43.57076" lon="6.64258">
        <ele>213</ele>
        <time>2011-12-11T08:18:11Z</time>
      </trkpt>
      <trkpt lat="43.57073" lon="6.64256">
        <ele>213</ele>
        <time>2011-12-11T08:18:12Z</time>
      </trkpt>
      <trkpt lat="43.57071" lon="6.64254">
        <ele>214</ele>
        <time>2011-12-11T08:18:13Z</time>
      </trkpt>
      <trkpt lat="43.57069" lon="6.64252">
        <ele>214</ele>
        <time>2011-12-11T08:18:14Z</time>
      </trkpt>
      <trkpt lat="43.57067" lon="6.64251">
        <ele>214</ele>
        <time>2011-12-11T08:18:15Z</time>
      </trkpt>
      <trkpt lat="43.57065" lon="6.6425">
        <ele>214</ele>
        <time>2011-12-11T08:18:16Z</time>
      </trkpt>
      <trkpt lat="43.57063" lon="6.64249">
        <ele>214</ele>
        <time>2011-12-11T08:18:17Z</time>
      </trkpt>
      <trkpt lat="43.57062" lon="6.64248">
        <ele>215</ele>
        <time>2011-12-11T08:18:18Z</time>
      </trkpt>
      <trkpt lat="43.5706" lon="6.64247">
        <ele>215</ele>
        <time>2011-12-11T08:18:19Z</time>
      </trkpt>
      <trkpt lat="43.57059" lon="6.64246">
        <ele>215</ele>
        <time>2011-12-11T08:18:20Z</time>
      </trkpt>
      <trkpt lat="43.57056" lon="6.64245">
        <ele>215</ele>
        <time>2011-12-11T08:18:21Z</time>
      </trkpt>
      <trkpt lat="43.57054" lon="6.64244">
        <ele>215</ele>
        <time>2011-12-11T08:18:22Z</time>
      </trkpt>
      <trkpt lat="43.57051" lon="6.64244">
        <ele>215</ele>
        <time>2011-12-11T08:18:23Z</time>
      </trkpt>
      <trkpt lat="43.57049" lon="6.64244">
        <ele>215</ele>
        <time>2011-12-11T08:18:24Z</time>
      </trkpt>
      <trkpt lat="43.57046" lon="6.64245">
        <ele>215</ele>
        <time>2011-12-11T08:18:25Z</time>
      </trkpt>
      <trkpt lat="43.57043" lon="6.64246">
        <ele>215</ele>
        <time>2011-12-11T08:18:26Z</time>
      </trkpt>
      <trkpt lat="43.5704" lon="6.64246">
        <ele>215</ele>
        <time>2011-12-11T08:18:27Z</time>
      </trkpt>
      <trkpt lat="43.57037" lon="6.64247">
        <ele>215</ele>
        <time>2011-12-11T08:18:28Z</time>
      </trkpt>
      <trkpt lat="43.57033" lon="6.64247">
        <ele>214</ele>
        <time>2011-12-11T08:18:29Z</time>
      </trkpt>
      <trkpt lat="43.5703" lon="6.64248">
        <ele>214</ele>
        <time>2011-12-11T08:18:30Z</time>
      </trkpt>
      <trkpt lat="43.57026" lon="6.64249">
        <ele>214</ele>
        <time>2011-12-11T08:18:31Z</time>
      </trkpt>
      <trkpt lat="43.57023" lon="6.64249">
        <ele>214</ele>
        <time>2011-12-11T08:18:32Z</time>
      </trkpt>
      <trkpt lat="43.5702" lon="6.6425">
        <ele>214</ele>
        <time>2011-12-11T08:18:33Z</time>
      </trkpt>
      <trkpt lat="43.57016" lon="6.64251">
        <ele>214</ele>
        <time>2011-12-11T08:18:34Z</time>
      </trkpt>
      <trkpt lat="43.57013" lon="6.64252">
        <ele>214</ele>
        <time>2011-12-11T08:18:35Z</time>
      </trkpt>
      <trkpt lat="43.5701" lon="6.64254">
        <ele>214</ele>
        <time>2011-12-11T08:18:36Z</time>
      </trkpt>
      <trkpt lat="43.57007" lon="6.64255">
        <ele>214</ele>
        <time>2011-12-11T08:18:37Z</time>
      </trkpt>
      <trkpt lat="43.57004" lon="6.64256">
        <ele>214</ele>
        <time>2011-12-11T08:18:38Z</time>
      </trkpt>
      <trkpt lat="43.57001" lon="6.64257">
        <ele>214</ele>
        <time>2011-12-11T08:18:39Z</time>
      </trkpt>
      <trkpt lat="43.56997" lon="6.64259">
        <ele>214</ele>
        <time>2011-12-11T08:18:40Z</time>
      </trkpt>
      <trkpt lat="43.56994" lon="6.6426">
        <ele>214</ele>
        <time>2011-12-11T08:18:41Z</time>
      </trkpt>
      <trkpt lat="43.56991" lon="6.64261">
        <ele>214</ele>
        <time>2011-12-11T08:18:42Z</time>
      </trkpt>
      <trkpt lat="43.56987" lon="6.64261">
        <ele>214</ele>
        <time>2011-12-11T08:18:43Z</time>
      </trkpt>
      <trkpt lat="43.56983" lon="6.64261">
        <ele>215</ele>
        <time>2011-12-11T08:18:44Z</time>
      </trkpt>
      <trkpt lat="43.5698" lon="6.6426">
        <ele>215</ele>
        <time>2011-12-11T08:18:45Z</time>
      </trkpt>
      <trkpt lat="43.56977" lon="6.64257">
        <ele>214</ele>
        <time>2011-12-11T08:18:46Z</time>
      </trkpt>
      <trkpt lat="43.56974" lon="6.64253">
        <ele>214</ele>
        <time>2011-12-11T08:18:47Z</time>
      </trkpt>
      <trkpt lat="43.56973" lon="6.64249">
        <ele>214</ele>
        <time>2011-12-11T08:18:48Z</time>
      </trkpt>
      <trkpt lat="43.56972" lon="6.64244">
        <ele>214</ele>
        <time>2011-12-11T08:18:49Z</time>
      </trkpt>
      <trkpt lat="43.56971" lon="6.64239">
        <ele>214</ele>
        <time>2011-12-11T08:18:50Z</time>
      </trkpt>
      <trkpt lat="43.56971" lon="6.64234">
        <ele>214</ele>
        <time>2011-12-11T08:18:51Z</time>
      </trkpt>
      <trkpt lat="43.56971" lon="6.64229">
        <ele>214</ele>
        <time>2011-12-11T08:18:52Z</time>
      </trkpt>
      <trkpt lat="43.56971" lon="6.64223">
        <ele>214</ele>
        <time>2011-12-11T08:18:53Z</time>
      </trkpt>
      <trkpt lat="43.56971" lon="6.64218">
        <ele>214</ele>
        <time>2011-12-11T08:18:54Z</time>
      </trkpt>
      <trkpt lat="43.56972" lon="6.64212">
        <ele>214</ele>
        <time>2011-12-11T08:18:55Z</time>
      </trkpt>
      <trkpt lat="43.56973" lon="6.64207">
        <ele>214</ele>
        <time>2011-12-11T08:18:56Z</time>
      </trkpt>
      <trkpt lat="43.56974" lon="6.64201">
        <ele>214</ele>
        <time>2011-12-11T08:18:57Z</time>
      </trkpt>
      <trkpt lat="43.56976" lon="6.64195">
        <ele>214</ele>
        <time>2011-12-11T08:18:58Z</time>
      </trkpt>
      <trkpt lat="43.56978" lon="6.64189">
        <ele>214</ele>
        <time>2011-12-11T08:18:59Z</time>
      </trkpt>
      <trkpt lat="43.5698" lon="6.64184">
        <ele>213</ele>
        <time>2011-12-11T08:19:00Z</time>
      </trkpt>
      <trkpt lat="43.56983" lon="6.64178">
        <ele>213</ele>
        <time>2011-12-11T08:19:01Z</time>
      </trkpt>
      <trkpt lat="43.56987" lon="6.64172">
        <ele>213</ele>
        <time>2011-12-11T08:19:02Z</time>
      </trkpt>
      <trkpt lat="43.5701" lon="6.64105">
        <ele>212</ele>
        <time>2011-12-11T08:19:12Z</time>
      </trkpt>
      <trkpt lat="43.5705" lon="6.64063">
        <ele>210</ele>
        <time>2011-12-11T08:19:22Z</time>
      </trkpt>
      <trkpt lat="43.57055" lon="6.64065">
        <ele>210</ele>
        <time>2011-12-11T08:19:23Z</time>
      </trkpt>
      <trkpt lat="43.5706" lon="6.64068">
        <ele>210</ele>
        <time>2011-12-11T08:19:24Z</time>
      </trkpt>
      <trkpt lat="43.57084" lon="6.64039">
        <ele>208</ele>
        <time>2011-12-11T08:19:34Z</time>
      </trkpt>
      <trkpt lat="43.57086" lon="6.64032">
        <ele>208</ele>
        <time>2011-12-11T08:19:35Z</time>
      </trkpt>
      <trkpt lat="43.57089" lon="6.64026">
        <ele>208</ele>
        <time>2011-12-11T08:19:36Z</time>
      </trkpt>
      <trkpt lat="43.57139" lon="6.63999">
        <ele>205</ele>
        <time>2011-12-11T08:19:46Z</time>
      </trkpt>
      <trkpt lat="43.57186" lon="6.64044">
        <ele>204</ele>
        <time>2011-12-11T08:19:56Z</time>
      </trkpt>
      <trkpt lat="43.57209" lon="6.64048">
        <ele>200</ele>
        <time>2011-12-11T08:20:06Z</time>
      </trkpt>
      <trkpt lat="43.5721" lon="6.64044">
        <ele>200</ele>
        <time>2011-12-11T08:20:07Z</time>
      </trkpt>
      <trkpt lat="43.57211" lon="6.6404">
        <ele>200</ele>
        <time>2011-12-11T08:20:08Z</time>
      </trkpt>
      <trkpt lat="43.57211" lon="6.64036">
        <ele>200</ele>
        <time>2011-12-11T08:20:09Z</time>
      </trkpt>
      <trkpt lat="43.57211" lon="6.64032">
        <ele>200</ele>
        <time>2011-12-11T08:20:10Z</time>
      </trkpt>
      <trkpt lat="43.57211" lon="6.64027">
        <ele>201</ele>
        <time>2011-12-11T08:20:11Z</time>
      </trkpt>
      <trkpt lat="43.57209" lon="6.64022">
        <ele>201</ele>
        <time>2011-12-11T08:20:12Z</time>
      </trkpt>
      <trkpt lat="43.57208" lon="6.64018">
        <ele>201</ele>
        <time>2011-12-11T08:20:13Z</time>
      </trkpt>
      <trkpt lat="43.57206" lon="6.64014">
        <ele>201</ele>
        <time>2011-12-11T08:20:14Z</time>
      </trkpt>
      <trkpt lat="43.57205" lon="6.64009">
        <ele>201</ele>
        <time>2011-12-11T08:20:15Z</time>
      </trkpt>
      <trkpt lat="43.57203" lon="6.64005">
        <ele>202</ele>
        <time>2011-12-11T08:20:16Z</time>
      </trkpt>
      <trkpt lat="43.57202" lon="6.64001">
        <ele>202</ele>
        <time>2011-12-11T08:20:17Z</time>
      </trkpt>
      <trkpt lat="43.572" lon="6.63996">
        <ele>202</ele>
        <time>2011-12-11T08:20:18Z</time>
      </trkpt>
      <trkpt lat="43.57199" lon="6.63991">
        <ele>202</ele>
        <time>2011-12-11T08:20:19Z</time>
      </trkpt>
      <trkpt lat="43.57197" lon="6.63986">
        <ele>202</ele>
        <time>2011-12-11T08:20:20Z</time>
      </trkpt>
      <trkpt lat="43.57196" lon="6.63981">
        <ele>202</ele>
        <time>2011-12-11T08:20:21Z</time>
      </trkpt>
      <trkpt lat="43.57195" lon="6.63976">
        <ele>202</ele>
        <time>2011-12-11T08:20:22Z</time>
      </trkpt>
      <trkpt lat="43.57195" lon="6.6397">
        <ele>202</ele>
        <time>2011-12-11T08:20:23Z</time>
      </trkpt>
      <trkpt lat="43.57195" lon="6.63964">
        <ele>202</ele>
        <time>2011-12-11T08:20:24Z</time>
      </trkpt>
      <trkpt lat="43.57196" lon="6.63959">
        <ele>202</ele>
        <time>2011-12-11T08:20:25Z</time>
      </trkpt>
      <trkpt lat="43.57197" lon="6.63954">
        <ele>202</ele>
        <time>2011-12-11T08:20:26Z</time>
      </trkpt>
      <trkpt lat="43.57199" lon="6.63949">
        <ele>202</ele>
        <time>2011-12-11T08:20:27Z</time>
      </trkpt>
      <trkpt lat="43.57202" lon="6.63945">
        <ele>203</ele>
        <time>2011-12-11T08:20:28Z</time>
      </trkpt>
      <trkpt lat="43.57204" lon="6.63941">
        <ele>203</ele>
        <time>2011-12-11T08:20:29Z</time>
      </trkpt>
      <trkpt lat="43.57208" lon="6.63938">
        <ele>203</ele>
        <time>2011-12-11T08:20:30Z</time>
      </trkpt>
      <trkpt lat="43.57211" lon="6.63935">
        <ele>203</ele>
        <time>2011-12-11T08:20:31Z</time>
      </trkpt>
      <trkpt lat="43.57215" lon="6.63932">
        <ele>203</ele>
        <time>2011-12-11T08:20:32Z</time>
      </trkpt>
      <trkpt lat="43.57219" lon="6.63929">
        <ele>203</ele>
        <time>2011-12-11T08:20:33Z</time>
      </trkpt>
      <trkpt lat="43.57223" lon="6.63926">
        <ele>203</ele>
        <time>2011-12-11T08:20:34Z</time>
      </trkpt>
      <trkpt lat="43.57227" lon="6.63924">
        <ele>204</ele>
        <time>2011-12-11T08:20:35Z</time>
      </trkpt>
      <trkpt lat="43.57231" lon="6.63923">
        <ele>204</ele>
        <time>2011-12-11T08:20:36Z</time>
      </trkpt>
      <trkpt lat="43.57235" lon="6.63923">
        <ele>204</ele>
        <time>2011-12-11T08:20:37Z</time>
      </trkpt>
      <trkpt lat="43.57239" lon="6.63923">
        <ele>204</ele>
        <time>2011-12-11T08:20:38Z</time>
      </trkpt>
      <trkpt lat="43.57242" lon="6.63922">
        <ele>205</ele>
        <time>2011-12-11T08:20:39Z</time>
      </trkpt>
      <trkpt lat="43.57246" lon="6.63921">
        <ele>205</ele>
        <time>2011-12-11T08:20:40Z</time>
      </trkpt>
      <trkpt lat="43.5725" lon="6.6392">
        <ele>206</ele>
        <time>2011-12-11T08:20:41Z</time>
      </trkpt>
      <trkpt lat="43.57253" lon="6.63918">
        <ele>206</ele>
        <time>2011-12-11T08:20:42Z</time>
      </trkpt>
      <trkpt lat="43.57257" lon="6.63917">
        <ele>207</ele>
        <time>2011-12-11T08:20:43Z</time>
      </trkpt>
      <trkpt lat="43.57261" lon="6.63916">
        <ele>207</ele>
        <time>2011-12-11T08:20:44Z</time>
      </trkpt>
      <trkpt lat="43.57265" lon="6.63914">
        <ele>208</ele>
        <time>2011-12-11T08:20:45Z</time>
      </trkpt>
      <trkpt lat="43.57266" lon="6.6391">
        <ele>208</ele>
        <time>2011-12-11T08:20:46Z</time>
      </trkpt>
      <trkpt lat="43.57269" lon="6.63909">
        <ele>208</ele>
        <time>2011-12-11T08:20:47Z</time>
      </trkpt>
      <trkpt lat="43.57271" lon="6.63908">
        <ele>208</ele>
        <time>2011-12-11T08:20:48Z</time>
      </trkpt>
      <trkpt lat="43.57273" lon="6.63907">
        <ele>208</ele>
        <time>2011-12-11T08:20:49Z</time>
      </trkpt>
      <trkpt lat="43.57275" lon="6.63906">
        <ele>208</ele>
        <time>2011-12-11T08:20:50Z</time>
      </trkpt>
      <trkpt lat="43.57277" lon="6.63904">
        <ele>208</ele>
        <time>2011-12-11T08:20:51Z</time>
      </trkpt>
      <trkpt lat="43.57279" lon="6.63903">
        <ele>209</ele>
        <time>2011-12-11T08:20:52Z</time>
      </trkpt>
      <trkpt lat="43.57281" lon="6.639">
        <ele>209</ele>
        <time>2011-12-11T08:20:53Z</time>
      </trkpt>
      <trkpt lat="43.57284" lon="6.63898">
        <ele>208</ele>
        <time>2011-12-11T08:20:54Z</time>
      </trkpt>
      <trkpt lat="43.57287" lon="6.63894">
        <ele>208</ele>
        <time>2011-12-11T08:20:55Z</time>
      </trkpt>
      <trkpt lat="43.5729" lon="6.63891">
        <ele>207</ele>
        <time>2011-12-11T08:20:56Z</time>
      </trkpt>
      <trkpt lat="43.57293" lon="6.63887">
        <ele>207</ele>
        <time>2011-12-11T08:20:57Z</time>
      </trkpt>
      <trkpt lat="43.57297" lon="6.63882">
        <ele>207</ele>
        <time>2011-12-11T08:20:58Z</time>
      </trkpt>
      <trkpt lat="43.57301" lon="6.63878">
        <ele>206</ele>
        <time>2011-12-11T08:20:59Z</time>
      </trkpt>
      <trkpt lat="43.57361" lon="6.63864">
        <ele>202</ele>
        <time>2011-12-11T08:21:09Z</time>
      </trkpt>
      <trkpt lat="43.57392" lon="6.6385">
        <ele>200</ele>
        <time>2011-12-11T08:21:19Z</time>
      </trkpt>
      <trkpt lat="43.57392" lon="6.63846">
        <ele>200</ele>
        <time>2011-12-11T08:21:20Z</time>
      </trkpt>
      <trkpt lat="43.57391" lon="6.63842">
        <ele>201</ele>
        <time>2011-12-11T08:21:21Z</time>
      </trkpt>
      <trkpt lat="43.57389" lon="6.63839">
        <ele>200</ele>
        <time>2011-12-11T08:21:22Z</time>
      </trkpt>
      <trkpt lat="43.57387" lon="6.63838">
        <ele>200</ele>
        <time>2011-12-11T08:21:23Z</time>
      </trkpt>
      <trkpt lat="43.57384" lon="6.63837">
        <ele>200</ele>
        <time>2011-12-11T08:21:24Z</time>
      </trkpt>
      <trkpt lat="43.57381" lon="6.63835">
        <ele>200</ele>
        <time>2011-12-11T08:21:25Z</time>
      </trkpt>
      <trkpt lat="43.57378" lon="6.63834">
        <ele>200</ele>
        <time>2011-12-11T08:21:26Z</time>
      </trkpt>
      <trkpt lat="43.57375" lon="6.63833">
        <ele>200</ele>
        <time>2011-12-11T08:21:27Z</time>
      </trkpt>
      <trkpt lat="43.57371" lon="6.63833">
        <ele>200</ele>
        <time>2011-12-11T08:21:28Z</time>
      </trkpt>
      <trkpt lat="43.57368" lon="6.63832">
        <ele>200</ele>
        <time>2011-12-11T08:21:29Z</time>
      </trkpt>
      <trkpt lat="43.57365" lon="6.63831">
        <ele>200</ele>
        <time>2011-12-11T08:21:30Z</time>
      </trkpt>
      <trkpt lat="43.57362" lon="6.6383">
        <ele>201</ele>
        <time>2011-12-11T08:21:31Z</time>
      </trkpt>
      <trkpt lat="43.57359" lon="6.63829">
        <ele>201</ele>
        <time>2011-12-11T08:21:32Z</time>
      </trkpt>
      <trkpt lat="43.57356" lon="6.63828">
        <ele>201</ele>
        <time>2011-12-11T08:21:33Z</time>
      </trkpt>
      <trkpt lat="43.57353" lon="6.63827">
        <ele>201</ele>
        <time>2011-12-11T08:21:34Z</time>
      </trkpt>
      <trkpt lat="43.57351" lon="6.63826">
        <ele>201</ele>
        <time>2011-12-11T08:21:35Z</time>
      </trkpt>
      <trkpt lat="43.57348" lon="6.63825">
        <ele>202</ele>
        <time>2011-12-11T08:21:36Z</time>
      </trkpt>
      <trkpt lat="43.57345" lon="6.63823">
        <ele>202</ele>
        <time>2011-12-11T08:21:37Z</time>
      </trkpt>
      <trkpt lat="43.57342" lon="6.63822">
        <ele>202</ele>
        <time>2011-12-11T08:21:38Z</time>
      </trkpt>
      <trkpt lat="43.57339" lon="6.6382">
        <ele>202</ele>
        <time>2011-12-11T08:21:39Z</time>
      </trkpt>
      <trkpt lat="43.57337" lon="6.63818">
        <ele>202</ele>
        <time>2011-12-11T08:21:40Z</time>
      </trkpt>
      <trkpt lat="43.57334" lon="6.63816">
        <ele>202</ele>
        <time>2011-12-11T08:21:41Z</time>
      </trkpt>
      <trkpt lat="43.57332" lon="6.63815">
        <ele>202</ele>
        <time>2011-12-11T08:21:42Z</time>
      </trkpt>
      <trkpt lat="43.57329" lon="6.63813">
        <ele>202</ele>
        <time>2011-12-11T08:21:43Z</time>
      </trkpt>
      <trkpt lat="43.57326" lon="6.63812">
        <ele>202</ele>
        <time>2011-12-11T08:21:44Z</time>
      </trkpt>
      <trkpt lat="43.57323" lon="6.6381">
        <ele>203</ele>
        <time>2011-12-11T08:21:45Z</time>
      </trkpt>
      <trkpt lat="43.57321" lon="6.63809">
        <ele>203</ele>
        <time>2011-12-11T08:21:46Z</time>
      </trkpt>
      <trkpt lat="43.57318" lon="6.63807">
        <ele>203</ele>
        <time>2011-12-11T08:21:47Z</time>
      </trkpt>
      <trkpt lat="43.57315" lon="6.63806">
        <ele>203</ele>
        <time>2011-12-11T08:21:48Z</time>
      </trkpt>
      <trkpt lat="43.57312" lon="6.63805">
        <ele>203</ele>
        <time>2011-12-11T08:21:49Z</time>
      </trkpt>
      <trkpt lat="43.57309" lon="6.63804">
        <ele>204</ele>
        <time>2011-12-11T08:21:50Z</time>
      </trkpt>
      <trkpt lat="43.57306" lon="6.63803">
        <ele>204</ele>
        <time>2011-12-11T08:21:51Z</time>
      </trkpt>
      <trkpt lat="43.57304" lon="6.63801">
        <ele>204</ele>
        <time>2011-12-11T08:21:52Z</time>
      </trkpt>
      <trkpt lat="43.57301" lon="6.63798">
        <ele>204</ele>
        <time>2011-12-11T08:21:53Z</time>
      </trkpt>
      <trkpt lat="43.57299" lon="6.63796">
        <ele>205</ele>
        <time>2011-12-11T08:21:54Z</time>
      </trkpt>
      <trkpt lat="43.57298" lon="6.63793">
        <ele>205</ele>
        <time>2011-12-11T08:21:55Z</time>
      </trkpt>
      <trkpt lat="43.57297" lon="6.63789">
        <ele>205</ele>
        <time>2011-12-11T08:21:56Z</time>
      </trkpt>
      <trkpt lat="43.57295" lon="6.63785">
        <ele>205</ele>
        <time>2011-12-11T08:21:57Z</time>
      </trkpt>
      <trkpt lat="43.57294" lon="6.63781">
        <ele>205</ele>
        <time>2011-12-11T08:21:58Z</time>
      </trkpt>
      <trkpt lat="43.57293" lon="6.63778">
        <ele>206</ele>
        <time>2011-12-11T08:21:59Z</time>
      </trkpt>
      <trkpt lat="43.57292" lon="6.63774">
        <ele>206</ele>
        <time>2011-12-11T08:22:00Z</time>
      </trkpt>
      <trkpt lat="43.57292" lon="6.6377">
        <ele>206</ele>
        <time>2011-12-11T08:22:01Z</time>
      </trkpt>
      <trkpt lat="43.57293" lon="6.63767">
        <ele>207</ele>
        <time>2011-12-11T08:22:02Z</time>
      </trkpt>
      <trkpt lat="43.57293" lon="6.63763">
        <ele>207</ele>
        <time>2011-12-11T08:22:03Z</time>
      </trkpt>
      <trkpt lat="43.57294" lon="6.6376">
        <ele>207</ele>
        <time>2011-12-11T08:22:04Z</time>
      </trkpt>
      <trkpt lat="43.57295" lon="6.63756">
        <ele>207</ele>
        <time>2011-12-11T08:22:05Z</time>
      </trkpt>
      <trkpt lat="43.57297" lon="6.63753">
        <ele>208</ele>
        <time>2011-12-11T08:22:06Z</time>
      </trkpt>
      <trkpt lat="43.57297" lon="6.6375">
        <ele>208</ele>
        <time>2011-12-11T08:22:07Z</time>
      </trkpt>
      <trkpt lat="43.57297" lon="6.63746">
        <ele>208</ele>
        <time>2011-12-11T08:22:08Z</time>
      </trkpt>
      <trkpt lat="43.57297" lon="6.63743">
        <ele>208</ele>
        <time>2011-12-11T08:22:09Z</time>
      </trkpt>
      <trkpt lat="43.57297" lon="6.6374">
        <ele>208</ele>
        <time>2011-12-11T08:22:10Z</time>
      </trkpt>
      <trkpt lat="43.57297" lon="6.63736">
        <ele>209</ele>
        <time>2011-12-11T08:22:11Z</time>
      </trkpt>
      <trkpt lat="43.57297" lon="6.63733">
        <ele>209</ele>
        <time>2011-12-11T08:22:12Z</time>
      </trkpt>
      <trkpt lat="43.57296" lon="6.6373">
        <ele>209</ele>
        <time>2011-12-11T08:22:13Z</time>
      </trkpt>
      <trkpt lat="43.57295" lon="6.63727">
        <ele>209</ele>
        <time>2011-12-11T08:22:14Z</time>
      </trkpt>
      <trkpt lat="43.57294" lon="6.63725">
        <ele>209</ele>
        <time>2011-12-11T08:22:15Z</time>
      </trkpt>
      <trkpt lat="43.57294" lon="6.63722">
        <ele>209</ele>
        <time>2011-12-11T08:22:16Z</time>
      </trkpt>
      <trkpt lat="43.57294" lon="6.63719">
        <ele>210</ele>
        <time>2011-12-11T08:22:17Z</time>
      </trkpt>
      <trkpt lat="43.57294" lon="6.63717">
        <ele>210</ele>
        <time>2011-12-11T08:22:18Z</time>
      </trkpt>
      <trkpt lat="43.57294" lon="6.63715">
        <ele>210</ele>
        <time>2011-12-11T08:22:19Z</time>
      </trkpt>
      <trkpt lat="43.57293" lon="6.63712">
        <ele>210</ele>
        <time>2011-12-11T08:22:20Z</time>
      </trkpt>
      <trkpt lat="43.57293" lon="6.63709">
        <ele>210</ele>
        <time>2011-12-11T08:22:21Z</time>
      </trkpt>
      <trkpt lat="43.57292" lon="6.63707">
        <ele>210</ele>
        <time>2011-12-11T08:22:22Z</time>
      </trkpt>
      <trkpt lat="43.57292" lon="6.63705">
        <ele>210</ele>
        <time>2011-12-11T08:22:23Z</time>
      </trkpt>
      <trkpt lat="43.57292" lon="6.63703">
        <ele>210</ele>
        <time>2011-12-11T08:22:24Z</time>
      </trkpt>
      <trkpt lat="43.57293" lon="6.63701">
        <ele>210</ele>
        <time>2011-12-11T08:22:25Z</time>
      </trkpt>
      <trkpt lat="43.57293" lon="6.63698">
        <ele>210</ele>
        <time>2011-12-11T08:22:26Z</time>
      </trkpt>
      <trkpt lat="43.57294" lon="6.63697">
        <ele>210</ele>
        <time>2011-12-11T08:22:27Z</time>
      </trkpt>
      <trkpt lat="43.57295" lon="6.63695">
        <ele>210</ele>
        <time>2011-12-11T08:22:28Z</time>
      </trkpt>
      <trkpt lat="43.57295" lon="6.63693">
        <ele>210</ele>
        <time>2011-12-11T08:22:29Z</time>
      </trkpt>
      <trkpt lat="43.57296" lon="6.6369">
        <ele>210</ele>
        <time>2011-12-11T08:22:30Z</time>
      </trkpt>
      <trkpt lat="43.57297" lon="6.63688">
        <ele>211</ele>
        <time>2011-12-11T08:22:31Z</time>
      </trkpt>
      <trkpt lat="43.57298" lon="6.63685">
        <ele>211</ele>
        <time>2011-12-11T08:22:32Z</time>
      </trkpt>
      <trkpt lat="43.57299" lon="6.63683">
        <ele>211</ele>
        <time>2011-12-11T08:22:33Z</time>
      </trkpt>
      <trkpt lat="43.573" lon="6.6368">
        <ele>211</ele>
        <time>2011-12-11T08:22:34Z</time>
      </trkpt>
      <trkpt lat="43.57301" lon="6.63677">
        <ele>211</ele>
        <time>2011-12-11T08:22:35Z</time>
      </trkpt>
      <trkpt lat="43.57302" lon="6.63675">
        <ele>212</ele>
        <time>2011-12-11T08:22:36Z</time>
      </trkpt>
      <trkpt lat="43.57303" lon="6.63672">
        <ele>212</ele>
        <time>2011-12-11T08:22:37Z</time>
      </trkpt>
      <trkpt lat="43.57304" lon="6.63669">
        <ele>212</ele>
        <time>2011-12-11T08:22:38Z</time>
      </trkpt>
      <trkpt lat="43.57306" lon="6.63667">
        <ele>212</ele>
        <time>2011-12-11T08:22:39Z</time>
      </trkpt>
      <trkpt lat="43.57307" lon="6.63664">
        <ele>212</ele>
        <time>2011-12-11T08:22:40Z</time>
      </trkpt>
      <trkpt lat="43.57308" lon="6.63662">
        <ele>213</ele>
        <time>2011-12-11T08:22:41Z</time>
      </trkpt>
      <trkpt lat="43.57309" lon="6.63659">
        <ele>213</ele>
        <time>2011-12-11T08:22:42Z</time>
      </trkpt>
      <trkpt lat="43.5731" lon="6.63656">
        <ele>213</ele>
        <time>2011-12-11T08:22:43Z</time>
      </trkpt>
      <trkpt lat="43.57311" lon="6.63654">
        <ele>213</ele>
        <time>2011-12-11T08:22:44Z</time>
      </trkpt>
      <trkpt lat="43.57313" lon="6.63652">
        <ele>213</ele>
        <time>2011-12-11T08:22:45Z</time>
      </trkpt>
      <trkpt lat="43.57315" lon="6.63649">
        <ele>214</ele>
        <time>2011-12-11T08:22:46Z</time>
      </trkpt>
      <trkpt lat="43.57316" lon="6.63647">
        <ele>214</ele>
        <time>2011-12-11T08:22:47Z</time>
      </trkpt>
      <trkpt lat="43.57318" lon="6.63645">
        <ele>214</ele>
        <time>2011-12-11T08:22:48Z</time>
      </trkpt>
      <trkpt lat="43.57319" lon="6.63643">
        <ele>214</ele>
        <time>2011-12-11T08:22:49Z</time>
      </trkpt>
      <trkpt lat="43.57321" lon="6.63641">
        <ele>214</ele>
        <time>2011-12-11T08:22:50Z</time>
      </trkpt>
      <trkpt lat="43.57322" lon="6.63638">
        <ele>214</ele>
        <time>2011-12-11T08:22:51Z</time>
      </trkpt>
      <trkpt lat="43.57324" lon="6.63636">
        <ele>215</ele>
        <time>2011-12-11T08:22:52Z</time>
      </trkpt>
      <trkpt lat="43.57325" lon="6.63633">
        <ele>215</ele>
        <time>2011-12-11T08:22:53Z</time>
      </trkpt>
      <trkpt lat="43.57327" lon="6.63631">
        <ele>215</ele>
        <time>2011-12-11T08:22:54Z</time>
      </trkpt>
      <trkpt lat="43.57328" lon="6.63628">
        <ele>215</ele>
        <time>2011-12-11T08:22:55Z</time>
      </trkpt>
      <trkpt lat="43.57329" lon="6.63626">
        <ele>215</ele>
        <time>2011-12-11T08:22:56Z</time>
      </trkpt>
      <trkpt lat="43.5733" lon="6.63623">
        <ele>216</ele>
        <time>2011-12-11T08:22:57Z</time>
      </trkpt>
      <trkpt lat="43.57331" lon="6.6362">
        <ele>216</ele>
        <time>2011-12-11T08:22:58Z</time>
      </trkpt>
      <trkpt lat="43.57333" lon="6.63618">
        <ele>216</ele>
        <time>2011-12-11T08:22:59Z</time>
      </trkpt>
      <trkpt lat="43.57335" lon="6.63616">
        <ele>216</ele>
        <time>2011-12-11T08:23:00Z</time>
      </trkpt>
      <trkpt lat="43.57336" lon="6.63614">
        <ele>217</ele>
        <time>2011-12-11T08:23:01Z</time>
      </trkpt>
      <trkpt lat="43.57338" lon="6.63612">
        <ele>217</ele>
        <time>2011-12-11T08:23:02Z</time>
      </trkpt>
      <trkpt lat="43.5734" lon="6.6361">
        <ele>217</ele>
        <time>2011-12-11T08:23:03Z</time>
      </trkpt>
      <trkpt lat="43.57342" lon="6.63609">
        <ele>217</ele>
        <time>2011-12-11T08:23:04Z</time>
      </trkpt>
      <trkpt lat="43.57344" lon="6.63607">
        <ele>217</ele>
        <time>2011-12-11T08:23:05Z</time>
      </trkpt>
      <trkpt lat="43.57346" lon="6.63607">
        <ele>218</ele>
        <time>2011-12-11T08:23:06Z</time>
      </trkpt>
      <trkpt lat="43.57348" lon="6.63606">
        <ele>218</ele>
        <time>2011-12-11T08:23:07Z</time>
      </trkpt>
      <trkpt lat="43.5735" lon="6.63606">
        <ele>218</ele>
        <time>2011-12-11T08:23:08Z</time>
      </trkpt>
      <trkpt lat="43.57353" lon="6.63605">
        <ele>218</ele>
        <time>2011-12-11T08:23:09Z</time>
      </trkpt>
      <trkpt lat="43.57355" lon="6.63604">
        <ele>218</ele>
        <time>2011-12-11T08:23:10Z</time>
      </trkpt>
      <trkpt lat="43.57357" lon="6.63604">
        <ele>219</ele>
        <time>2011-12-11T08:23:11Z</time>
      </trkpt>
      <trkpt lat="43.57359" lon="6.63603">
        <ele>219</ele>
        <time>2011-12-11T08:23:12Z</time>
      </trkpt>
      <trkpt lat="43.57361" lon="6.63602">
        <ele>219</ele>
        <time>2011-12-11T08:23:13Z</time>
      </trkpt>
      <trkpt lat="43.57363" lon="6.636">
        <ele>219</ele>
        <time>2011-12-11T08:23:14Z</time>
      </trkpt>
      <trkpt lat="43.57366" lon="6.63599">
        <ele>219</ele>
        <time>2011-12-11T08:23:15Z</time>
      </trkpt>
      <trkpt lat="43.57367" lon="6.63598">
        <ele>220</ele>
        <time>2011-12-11T08:23:16Z</time>
      </trkpt>
      <trkpt lat="43.57369" lon="6.63596">
        <ele>220</ele>
        <time>2011-12-11T08:23:17Z</time>
      </trkpt>
      <trkpt lat="43.57371" lon="6.63594">
        <ele>220</ele>
        <time>2011-12-11T08:23:18Z</time>
      </trkpt>
      <trkpt lat="43.57373" lon="6.63592">
        <ele>220</ele>
        <time>2011-12-11T08:23:19Z</time>
      </trkpt>
      <trkpt lat="43.57375" lon="6.63589">
        <ele>221</ele>
        <time>2011-12-11T08:23:20Z</time>
      </trkpt>
      <trkpt lat="43.57377" lon="6.63588">
        <ele>221</ele>
        <time>2011-12-11T08:23:21Z</time>
      </trkpt>
      <trkpt lat="43.57379" lon="6.63586">
        <ele>221</ele>
        <time>2011-12-11T08:23:22Z</time>
      </trkpt>
      <trkpt lat="43.57381" lon="6.63585">
        <ele>221</ele>
        <time>2011-12-11T08:23:23Z</time>
      </trkpt>
      <trkpt lat="43.57383" lon="6.63582">
        <ele>221</ele>
        <time>2011-12-11T08:23:24Z</time>
      </trkpt>
      <trkpt lat="43.57385" lon="6.6358">
        <ele>221</ele>
        <time>2011-12-11T08:23:25Z</time>
      </trkpt>
      <trkpt lat="43.57386" lon="6.63577">
        <ele>222</ele>
        <time>2011-12-11T08:23:26Z</time>
      </trkpt>
      <trkpt lat="43.57388" lon="6.63575">
        <ele>222</ele>
        <time>2011-12-11T08:23:27Z</time>
      </trkpt>
      <trkpt lat="43.5739" lon="6.63572">
        <ele>222</ele>
        <time>2011-12-11T08:23:28Z</time>
      </trkpt>
      <trkpt lat="43.57391" lon="6.63569">
        <ele>222</ele>
        <time>2011-12-11T08:23:29Z</time>
      </trkpt>
      <trkpt lat="43.57393" lon="6.63567">
        <ele>222</ele>
        <time>2011-12-11T08:23:30Z</time>
      </trkpt>
      <trkpt lat="43.57394" lon="6.63564">
        <ele>222</ele>
        <time>2011-12-11T08:23:31Z</time>
      </trkpt>
      <trkpt lat="43.57395" lon="6.63561">
        <ele>223</ele>
        <time>2011-12-11T08:23:32Z</time>
      </trkpt>
      <trkpt lat="43.57397" lon="6.63558">
        <ele>223</ele>
        <time>2011-12-11T08:23:33Z</time>
      </trkpt>
      <trkpt lat="43.57398" lon="6.63555">
        <ele>223</ele>
        <time>2011-12-11T08:23:34Z</time>
      </trkpt>
      <trkpt lat="43.57399" lon="6.63551">
        <ele>223</ele>
        <time>2011-12-11T08:23:35Z</time>
      </trkpt>
      <trkpt lat="43.57401" lon="6.63548">
        <ele>223</ele>
        <time>2011-12-11T08:23:36Z</time>
      </trkpt>
      <trkpt lat="43.57402" lon="6.63545">
        <ele>223</ele>
        <time>2011-12-11T08:23:37Z</time>
      </trkpt>
      <trkpt lat="43.57404" lon="6.63542">
        <ele>224</ele>
        <time>2011-12-11T08:23:38Z</time>
      </trkpt>
      <trkpt lat="43.57405" lon="6.6354">
        <ele>224</ele>
        <time>2011-12-11T08:23:39Z</time>
      </trkpt>
      <trkpt lat="43.57407" lon="6.63537">
        <ele>224</ele>
        <time>2011-12-11T08:23:40Z</time>
      </trkpt>
      <trkpt lat="43.57409" lon="6.63535">
        <ele>224</ele>
        <time>2011-12-11T08:23:41Z</time>
      </trkpt>
      <trkpt lat="43.5741" lon="6.63532">
        <ele>224</ele>
        <time>2011-12-11T08:23:42Z</time>
      </trkpt>
      <trkpt lat="43.57412" lon="6.6353">
        <ele>224</ele>
        <time>2011-12-11T08:23:43Z</time>
      </trkpt>
      <trkpt lat="43.57414" lon="6.63527">
        <ele>225</ele>
        <time>2011-12-11T08:23:44Z</time>
      </trkpt>
      <trkpt lat="43.57415" lon="6.63525">
        <ele>225</ele>
        <time>2011-12-11T08:23:45Z</time>
      </trkpt>
      <trkpt lat="43.57417" lon="6.63522">
        <ele>225</ele>
        <time>2011-12-11T08:23:46Z</time>
      </trkpt>
      <trkpt lat="43.57419" lon="6.63519">
        <ele>225</ele>
        <time>2011-12-11T08:23:47Z</time>
      </trkpt>
      <trkpt lat="43.57421" lon="6.63517">
        <ele>225</ele>
        <time>2011-12-11T08:23:48Z</time>
      </trkpt>
      <trkpt lat="43.57422" lon="6.63515">
        <ele>226</ele>
        <time>2011-12-11T08:23:49Z</time>
      </trkpt>
      <trkpt lat="43.57424" lon="6.63512">
        <ele>226</ele>
        <time>2011-12-11T08:23:50Z</time>
      </trkpt>
      <trkpt lat="43.57426" lon="6.6351">
        <ele>226</ele>
        <time>2011-12-11T08:23:51Z</time>
      </trkpt>
      <trkpt lat="43.57428" lon="6.63508">
        <ele>226</ele>
        <time>2011-12-11T08:23:52Z</time>
      </trkpt>
      <trkpt lat="43.57429" lon="6.63505">
        <ele>227</ele>
        <time>2011-12-11T08:23:53Z</time>
      </trkpt>
      <trkpt lat="43.57431" lon="6.63503">
        <ele>227</ele>
        <time>2011-12-11T08:23:54Z</time>
      </trkpt>
      <trkpt lat="43.57433" lon="6.63501">
        <ele>227</ele>
        <time>2011-12-11T08:23:55Z</time>
      </trkpt>
      <trkpt lat="43.57436" lon="6.63499">
        <ele>227</ele>
        <time>2011-12-11T08:23:56Z</time>
      </trkpt>
      <trkpt lat="43.57437" lon="6.63497">
        <ele>227</ele>
        <time>2011-12-11T08:23:57Z</time>
      </trkpt>
      <trkpt lat="43.5744" lon="6.63495">
        <ele>228</ele>
        <time>2011-12-11T08:23:58Z</time>
      </trkpt>
      <trkpt lat="43.57442" lon="6.63494">
        <ele>228</ele>
        <time>2011-12-11T08:23:59Z</time>
      </trkpt>
      <trkpt lat="43.57444" lon="6.63492">
        <ele>228</ele>
        <time>2011-12-11T08:24:00Z</time>
      </trkpt>
      <trkpt lat="43.57446" lon="6.63491">
        <ele>228</ele>
        <time>2011-12-11T08:24:01Z</time>
      </trkpt>
      <trkpt lat="43.57449" lon="6.63491">
        <ele>229</ele>
        <time>2011-12-11T08:24:02Z</time>
      </trkpt>
      <trkpt lat="43.57451" lon="6.6349">
        <ele>229</ele>
        <time>2011-12-11T08:24:03Z</time>
      </trkpt>
      <trkpt lat="43.57454" lon="6.6349">
        <ele>229</ele>
        <time>2011-12-11T08:24:04Z</time>
      </trkpt>
      <trkpt lat="43.57456" lon="6.63491">
        <ele>230</ele>
        <time>2011-12-11T08:24:05Z</time>
      </trkpt>
      <trkpt lat="43.57458" lon="6.63492">
        <ele>230</ele>
        <time>2011-12-11T08:24:06Z</time>
      </trkpt>
      <trkpt lat="43.57461" lon="6.63493">
        <ele>230</ele>
        <time>2011-12-11T08:24:07Z</time>
      </trkpt>
      <trkpt lat="43.57463" lon="6.63495">
        <ele>230</ele>
        <time>2011-12-11T08:24:08Z</time>
      </trkpt>
      <trkpt lat="43.57465" lon="6.63497">
        <ele>230</ele>
        <time>2011-12-11T08:24:09Z</time>
      </trkpt>
      <trkpt lat="43.57468" lon="6.63499">
        <ele>231</ele>
        <time>2011-12-11T08:24:10Z</time>
      </trkpt>
      <trkpt lat="43.5747" lon="6.63501">
        <ele>231</ele>
        <time>2011-12-11T08:24:11Z</time>
      </trkpt>
      <trkpt lat="43.57472" lon="6.63503">
        <ele>231</ele>
        <time>2011-12-11T08:24:12Z</time>
      </trkpt>
      <trkpt lat="43.57474" lon="6.63505">
        <ele>231</ele>
        <time>2011-12-11T08:24:13Z</time>
      </trkpt>
      <trkpt lat="43.57476" lon="6.63507">
        <ele>232</ele>
        <time>2011-12-11T08:24:14Z</time>
      </trkpt>
      <trkpt lat="43.57479" lon="6.63509">
        <ele>232</ele>
        <time>2011-12-11T08:24:15Z</time>
      </trkpt>
      <trkpt lat="43.57481" lon="6.6351">
        <ele>232</ele>
        <time>2011-12-11T08:24:16Z</time>
      </trkpt>
      <trkpt lat="43.57484" lon="6.63511">
        <ele>232</ele>
        <time>2011-12-11T08:24:17Z</time>
      </trkpt>
      <trkpt lat="43.57487" lon="6.63512">
        <ele>232</ele>
        <time>2011-12-11T08:24:18Z</time>
      </trkpt>
      <trkpt lat="43.57489" lon="6.63512">
        <ele>233</ele>
        <time>2011-12-11T08:24:19Z</time>
      </trkpt>
      <trkpt lat="43.57492" lon="6.63511">
        <ele>233</ele>
        <time>2011-12-11T08:24:20Z</time>
      </trkpt>
      <trkpt lat="43.57495" lon="6.6351">
        <ele>233</ele>
        <time>2011-12-11T08:24:21Z</time>
      </trkpt>
      <trkpt lat="43.57497" lon="6.63508">
        <ele>233</ele>
        <time>2011-12-11T08:24:22Z</time>
      </trkpt>
      <trkpt lat="43.575" lon="6.63506">
        <ele>233</ele>
        <time>2011-12-11T08:24:23Z</time>
      </trkpt>
      <trkpt lat="43.57502" lon="6.63503">
        <ele>233</ele>
        <time>2011-12-11T08:24:24Z</time>
      </trkpt>
      <trkpt lat="43.57505" lon="6.63501">
        <ele>233</ele>
        <time>2011-12-11T08:24:25Z</time>
      </trkpt>
      <trkpt lat="43.57507" lon="6.635">
        <ele>234</ele>
        <time>2011-12-11T08:24:26Z</time>
      </trkpt>
      <trkpt lat="43.5751" lon="6.63499">
        <ele>234</ele>
        <time>2011-12-11T08:24:27Z</time>
      </trkpt>
      <trkpt lat="43.57512" lon="6.63497">
        <ele>234</ele>
        <time>2011-12-11T08:24:28Z</time>
      </trkpt>
      <trkpt lat="43.57515" lon="6.63496">
        <ele>235</ele>
        <time>2011-12-11T08:24:29Z</time>
      </trkpt>
      <trkpt lat="43.57518" lon="6.63496">
        <ele>235</ele>
        <time>2011-12-11T08:24:30Z</time>
      </trkpt>
      <trkpt lat="43.57521" lon="6.63495">
        <ele>235</ele>
        <time>2011-12-11T08:24:31Z</time>
      </trkpt>
      <trkpt lat="43.57524" lon="6.63495">
        <ele>235</ele>
        <time>2011-12-11T08:24:32Z</time>
      </trkpt>
      <trkpt lat="43.57527" lon="6.63494">
        <ele>235</ele>
        <time>2011-12-11T08:24:33Z</time>
      </trkpt>
      <trkpt lat="43.57529" lon="6.63491">
        <ele>235</ele>
        <time>2011-12-11T08:24:34Z</time>
      </trkpt>
      <trkpt lat="43.57531" lon="6.63489">
        <ele>236</ele>
        <time>2011-12-11T08:24:35Z</time>
      </trkpt>
      <trkpt lat="43.57533" lon="6.63486">
        <ele>236</ele>
        <time>2011-12-11T08:24:36Z</time>
      </trkpt>
      <trkpt lat="43.57534" lon="6.63482">
        <ele>236</ele>
        <time>2011-12-11T08:24:37Z</time>
      </trkpt>
      <trkpt lat="43.57536" lon="6.63479">
        <ele>237</ele>
        <time>2011-12-11T08:24:38Z</time>
      </trkpt>
      <trkpt lat="43.57537" lon="6.63475">
        <ele>237</ele>
        <time>2011-12-11T08:24:39Z</time>
      </trkpt>
      <trkpt lat="43.57537" lon="6.63472">
        <ele>237</ele>
        <time>2011-12-11T08:24:40Z</time>
      </trkpt>
      <trkpt lat="43.57538" lon="6.63468">
        <ele>237</ele>
        <time>2011-12-11T08:24:41Z</time>
      </trkpt>
      <trkpt lat="43.57539" lon="6.63464">
        <ele>237</ele>
        <time>2011-12-11T08:24:42Z</time>
      </trkpt>
      <trkpt lat="43.57539" lon="6.6346">
        <ele>237</ele>
        <time>2011-12-11T08:24:43Z</time>
      </trkpt>
      <trkpt lat="43.5754" lon="6.63456">
        <ele>238</ele>
        <time>2011-12-11T08:24:44Z</time>
      </trkpt>
      <trkpt lat="43.57541" lon="6.63452">
        <ele>238</ele>
        <time>2011-12-11T08:24:45Z</time>
      </trkpt>
      <trkpt lat="43.57541" lon="6.63448">
        <ele>238</ele>
        <time>2011-12-11T08:24:46Z</time>
      </trkpt>
      <trkpt lat="43.57543" lon="6.63444">
        <ele>238</ele>
        <time>2011-12-11T08:24:47Z</time>
      </trkpt>
      <trkpt lat="43.57544" lon="6.63441">
        <ele>238</ele>
        <time>2011-12-11T08:24:48Z</time>
      </trkpt>
      <trkpt lat="43.57545" lon="6.63437">
        <ele>239</ele>
        <time>2011-12-11T08:24:49Z</time>
      </trkpt>
      <trkpt lat="43.57546" lon="6.63434">
        <ele>239</ele>
        <time>2011-12-11T08:24:50Z</time>
      </trkpt>
      <trkpt lat="43.57548" lon="6.6343">
        <ele>239</ele>
        <time>2011-12-11T08:24:51Z</time>
      </trkpt>
      <trkpt lat="43.57549" lon="6.63428">
        <ele>239</ele>
        <time>2011-12-11T08:24:52Z</time>
      </trkpt>
      <trkpt lat="43.57552" lon="6.63425">
        <ele>239</ele>
        <time>2011-12-11T08:24:53Z</time>
      </trkpt>
      <trkpt lat="43.57554" lon="6.63424">
        <ele>240</ele>
        <time>2011-12-11T08:24:54Z</time>
      </trkpt>
      <trkpt lat="43.57556" lon="6.63423">
        <ele>240</ele>
        <time>2011-12-11T08:24:55Z</time>
      </trkpt>
      <trkpt lat="43.57559" lon="6.63423">
        <ele>240</ele>
        <time>2011-12-11T08:24:56Z</time>
      </trkpt>
      <trkpt lat="43.57562" lon="6.63423">
        <ele>240</ele>
        <time>2011-12-11T08:24:57Z</time>
      </trkpt>
      <trkpt lat="43.57565" lon="6.63424">
        <ele>240</ele>
        <time>2011-12-11T08:24:58Z</time>
      </trkpt>
      <trkpt lat="43.57568" lon="6.63425">
        <ele>240</ele>
        <time>2011-12-11T08:24:59Z</time>
      </trkpt>
      <trkpt lat="43.57571" lon="6.63428">
        <ele>240</ele>
        <time>2011-12-11T08:25:00Z</time>
      </trkpt>
      <trkpt lat="43.57574" lon="6.63429">
        <ele>240</ele>
        <time>2011-12-11T08:25:01Z</time>
      </trkpt>
      <trkpt lat="43.57576" lon="6.63431">
        <ele>240</ele>
        <time>2011-12-11T08:25:02Z</time>
      </trkpt>
      <trkpt lat="43.57579" lon="6.63433">
        <ele>240</ele>
        <time>2011-12-11T08:25:03Z</time>
      </trkpt>
      <trkpt lat="43.57582" lon="6.63435">
        <ele>240</ele>
        <time>2011-12-11T08:25:04Z</time>
      </trkpt>
      <trkpt lat="43.57584" lon="6.63436">
        <ele>240</ele>
        <time>2011-12-11T08:25:05Z</time>
      </trkpt>
      <trkpt lat="43.57587" lon="6.63437">
        <ele>240</ele>
        <time>2011-12-11T08:25:06Z</time>
      </trkpt>
      <trkpt lat="43.5759" lon="6.63438">
        <ele>240</ele>
        <time>2011-12-11T08:25:07Z</time>
      </trkpt>
      <trkpt lat="43.57593" lon="6.63437">
        <ele>240</ele>
        <time>2011-12-11T08:25:08Z</time>
      </trkpt>
      <trkpt lat="43.57595" lon="6.63436">
        <ele>241</ele>
        <time>2011-12-11T08:25:09Z</time>
      </trkpt>
      <trkpt lat="43.57598" lon="6.63434">
        <ele>241</ele>
        <time>2011-12-11T08:25:10Z</time>
      </trkpt>
      <trkpt lat="43.576" lon="6.63432">
        <ele>241</ele>
        <time>2011-12-11T08:25:11Z</time>
      </trkpt>
      <trkpt lat="43.57602" lon="6.63429">
        <ele>241</ele>
        <time>2011-12-11T08:25:12Z</time>
      </trkpt>
      <trkpt lat="43.57604" lon="6.63427">
        <ele>241</ele>
        <time>2011-12-11T08:25:13Z</time>
      </trkpt>
      <trkpt lat="43.57606" lon="6.63424">
        <ele>241</ele>
        <time>2011-12-11T08:25:14Z</time>
      </trkpt>
      <trkpt lat="43.57607" lon="6.63421">
        <ele>241</ele>
        <time>2011-12-11T08:25:15Z</time>
      </trkpt>
      <trkpt lat="43.57609" lon="6.63418">
        <ele>241</ele>
        <time>2011-12-11T08:25:16Z</time>
      </trkpt>
      <trkpt lat="43.57611" lon="6.63415">
        <ele>241</ele>
        <time>2011-12-11T08:25:17Z</time>
      </trkpt>
      <trkpt lat="43.57612" lon="6.63411">
        <ele>242</ele>
        <time>2011-12-11T08:25:18Z</time>
      </trkpt>
      <trkpt lat="43.57614" lon="6.63408">
        <ele>242</ele>
        <time>2011-12-11T08:25:19Z</time>
      </trkpt>
      <trkpt lat="43.57615" lon="6.63405">
        <ele>242</ele>
        <time>2011-12-11T08:25:20Z</time>
      </trkpt>
      <trkpt lat="43.57616" lon="6.63401">
        <ele>244</ele>
        <time>2011-12-11T08:25:21Z</time>
      </trkpt>
      <trkpt lat="43.57617" lon="6.63398">
        <ele>245</ele>
        <time>2011-12-11T08:25:22Z</time>
      </trkpt>
      <trkpt lat="43.57618" lon="6.63396">
        <ele>245</ele>
        <time>2011-12-11T08:25:23Z</time>
      </trkpt>
      <trkpt lat="43.57621" lon="6.63393">
        <ele>245</ele>
        <time>2011-12-11T08:25:24Z</time>
      </trkpt>
      <trkpt lat="43.57623" lon="6.63391">
        <ele>245</ele>
        <time>2011-12-11T08:25:25Z</time>
      </trkpt>
      <trkpt lat="43.57627" lon="6.6339">
        <ele>244</ele>
        <time>2011-12-11T08:25:26Z</time>
      </trkpt>
      <trkpt lat="43.5763" lon="6.63391">
        <ele>244</ele>
        <time>2011-12-11T08:25:27Z</time>
      </trkpt>
      <trkpt lat="43.57634" lon="6.63393">
        <ele>244</ele>
        <time>2011-12-11T08:25:28Z</time>
      </trkpt>
      <trkpt lat="43.57637" lon="6.63395">
        <ele>244</ele>
        <time>2011-12-11T08:25:29Z</time>
      </trkpt>
      <trkpt lat="43.5764" lon="6.63398">
        <ele>244</ele>
        <time>2011-12-11T08:25:30Z</time>
      </trkpt>
      <trkpt lat="43.57643" lon="6.63401">
        <ele>244</ele>
        <time>2011-12-11T08:25:31Z</time>
      </trkpt>
      <trkpt lat="43.57645" lon="6.63405">
        <ele>245</ele>
        <time>2011-12-11T08:25:32Z</time>
      </trkpt>
      <trkpt lat="43.57647" lon="6.63409">
        <ele>245</ele>
        <time>2011-12-11T08:25:33Z</time>
      </trkpt>
      <trkpt lat="43.5765" lon="6.63415">
        <ele>244</ele>
        <time>2011-12-11T08:25:34Z</time>
      </trkpt>
      <trkpt lat="43.57652" lon="6.63421">
        <ele>244</ele>
        <time>2011-12-11T08:25:35Z</time>
      </trkpt>
      <trkpt lat="43.57656" lon="6.63427">
        <ele>244</ele>
        <time>2011-12-11T08:25:36Z</time>
      </trkpt>
      <trkpt lat="43.5766" lon="6.63431">
        <ele>244</ele>
        <time>2011-12-11T08:25:37Z</time>
      </trkpt>
      <trkpt lat="43.57664" lon="6.63433">
        <ele>244</ele>
        <time>2011-12-11T08:25:38Z</time>
      </trkpt>
      <trkpt lat="43.57669" lon="6.63431">
        <ele>244</ele>
        <time>2011-12-11T08:25:39Z</time>
      </trkpt>
      <trkpt lat="43.57673" lon="6.63428">
        <ele>244</ele>
        <time>2011-12-11T08:25:40Z</time>
      </trkpt>
      <trkpt lat="43.57677" lon="6.63423">
        <ele>244</ele>
        <time>2011-12-11T08:25:41Z</time>
      </trkpt>
      <trkpt lat="43.57681" lon="6.6342">
        <ele>244</ele>
        <time>2011-12-11T08:25:42Z</time>
      </trkpt>
      <trkpt lat="43.57686" lon="6.63418">
        <ele>243</ele>
        <time>2011-12-11T08:25:43Z</time>
      </trkpt>
      <trkpt lat="43.5769" lon="6.63416">
        <ele>243</ele>
        <time>2011-12-11T08:25:44Z</time>
      </trkpt>
      <trkpt lat="43.57694" lon="6.63414">
        <ele>243</ele>
        <time>2011-12-11T08:25:45Z</time>
      </trkpt>
      <trkpt lat="43.57698" lon="6.6341">
        <ele>243</ele>
        <time>2011-12-11T08:25:46Z</time>
      </trkpt>
      <trkpt lat="43.577" lon="6.63405">
        <ele>243</ele>
        <time>2011-12-11T08:25:47Z</time>
      </trkpt>
      <trkpt lat="43.57701" lon="6.634">
        <ele>243</ele>
        <time>2011-12-11T08:25:48Z</time>
      </trkpt>
      <trkpt lat="43.577" lon="6.63394">
        <ele>243</ele>
        <time>2011-12-11T08:25:49Z</time>
      </trkpt>
      <trkpt lat="43.57699" lon="6.63389">
        <ele>243</ele>
        <time>2011-12-11T08:25:50Z</time>
      </trkpt>
      <trkpt lat="43.57697" lon="6.63383">
        <ele>243</ele>
        <time>2011-12-11T08:25:51Z</time>
      </trkpt>
      <trkpt lat="43.57696" lon="6.63377">
        <ele>243</ele>
        <time>2011-12-11T08:25:52Z</time>
      </trkpt>
      <trkpt lat="43.57696" lon="6.63371">
        <ele>242</ele>
        <time>2011-12-11T08:25:53Z</time>
      </trkpt>
      <trkpt lat="43.57696" lon="6.63364">
        <ele>241</ele>
        <time>2011-12-11T08:25:54Z</time>
      </trkpt>
      <trkpt lat="43.57697" lon="6.63358">
        <ele>241</ele>
        <time>2011-12-11T08:25:55Z</time>
      </trkpt>
      <trkpt lat="43.577" lon="6.63352">
        <ele>240</ele>
        <time>2011-12-11T08:25:56Z</time>
      </trkpt>
      <trkpt lat="43.57703" lon="6.63347">
        <ele>239</ele>
        <time>2011-12-11T08:25:57Z</time>
      </trkpt>
      <trkpt lat="43.57707" lon="6.63343">
        <ele>239</ele>
        <time>2011-12-11T08:25:58Z</time>
      </trkpt>
      <trkpt lat="43.57712" lon="6.63339">
        <ele>238</ele>
        <time>2011-12-11T08:25:59Z</time>
      </trkpt>
      <trkpt lat="43.57716" lon="6.63336">
        <ele>238</ele>
        <time>2011-12-11T08:26:00Z</time>
      </trkpt>
      <trkpt lat="43.57716" lon="6.63299">
        <ele>237</ele>
        <time>2011-12-11T08:26:10Z</time>
      </trkpt>
      <trkpt lat="43.57712" lon="6.63296">
        <ele>237</ele>
        <time>2011-12-11T08:26:11Z</time>
      </trkpt>
      <trkpt lat="43.57709" lon="6.63294">
        <ele>237</ele>
        <time>2011-12-11T08:26:12Z</time>
      </trkpt>
      <trkpt lat="43.57706" lon="6.6329">
        <ele>237</ele>
        <time>2011-12-11T08:26:13Z</time>
      </trkpt>
      <trkpt lat="43.57704" lon="6.63286">
        <ele>237</ele>
        <time>2011-12-11T08:26:14Z</time>
      </trkpt>
      <trkpt lat="43.57703" lon="6.63282">
        <ele>237</ele>
        <time>2011-12-11T08:26:15Z</time>
      </trkpt>
      <trkpt lat="43.57702" lon="6.63278">
        <ele>237</ele>
        <time>2011-12-11T08:26:16Z</time>
      </trkpt>
      <trkpt lat="43.577" lon="6.63274">
        <ele>237</ele>
        <time>2011-12-11T08:26:17Z</time>
      </trkpt>
      <trkpt lat="43.57699" lon="6.63271">
        <ele>237</ele>
        <time>2011-12-11T08:26:18Z</time>
      </trkpt>
      <trkpt lat="43.57697" lon="6.63269">
        <ele>237</ele>
        <time>2011-12-11T08:26:19Z</time>
      </trkpt>
      <trkpt lat="43.57694" lon="6.63268">
        <ele>237</ele>
        <time>2011-12-11T08:26:20Z</time>
      </trkpt>
      <trkpt lat="43.5769" lon="6.63268">
        <ele>237</ele>
        <time>2011-12-11T08:26:21Z</time>
      </trkpt>
      <trkpt lat="43.57686" lon="6.63268">
        <ele>237</ele>
        <time>2011-12-11T08:26:22Z</time>
      </trkpt>
      <trkpt lat="43.57683" lon="6.6327">
        <ele>237</ele>
        <time>2011-12-11T08:26:23Z</time>
      </trkpt>
      <trkpt lat="43.57679" lon="6.63271">
        <ele>237</ele>
        <time>2011-12-11T08:26:24Z</time>
      </trkpt>
      <trkpt lat="43.57676" lon="6.63271">
        <ele>237</ele>
        <time>2011-12-11T08:26:25Z</time>
      </trkpt>
      <trkpt lat="43.57672" lon="6.63271">
        <ele>238</ele>
        <time>2011-12-11T08:26:26Z</time>
      </trkpt>
      <trkpt lat="43.57669" lon="6.6327">
        <ele>238</ele>
        <time>2011-12-11T08:26:27Z</time>
      </trkpt>
      <trkpt lat="43.57667" lon="6.63269">
        <ele>238</ele>
        <time>2011-12-11T08:26:28Z</time>
      </trkpt>
      <trkpt lat="43.57663" lon="6.63266">
        <ele>238</ele>
        <time>2011-12-11T08:26:29Z</time>
      </trkpt>
      <trkpt lat="43.57661" lon="6.63264">
        <ele>238</ele>
        <time>2011-12-11T08:26:30Z</time>
      </trkpt>
      <trkpt lat="43.57657" lon="6.63262">
        <ele>238</ele>
        <time>2011-12-11T08:26:31Z</time>
      </trkpt>
      <trkpt lat="43.57653" lon="6.6326">
        <ele>238</ele>
        <time>2011-12-11T08:26:32Z</time>
      </trkpt>
      <trkpt lat="43.5765" lon="6.63259">
        <ele>239</ele>
        <time>2011-12-11T08:26:33Z</time>
      </trkpt>
      <trkpt lat="43.57646" lon="6.63258">
        <ele>239</ele>
        <time>2011-12-11T08:26:34Z</time>
      </trkpt>
      <trkpt lat="43.57643" lon="6.63256">
        <ele>240</ele>
        <time>2011-12-11T08:26:35Z</time>
      </trkpt>
      <trkpt lat="43.57641" lon="6.63254">
        <ele>240</ele>
        <time>2011-12-11T08:26:36Z</time>
      </trkpt>
      <trkpt lat="43.57638" lon="6.6325">
        <ele>240</ele>
        <time>2011-12-11T08:26:37Z</time>
      </trkpt>
      <trkpt lat="43.57638" lon="6.63246">
        <ele>240</ele>
        <time>2011-12-11T08:26:38Z</time>
      </trkpt>
      <trkpt lat="43.57638" lon="6.63242">
        <ele>240</ele>
        <time>2011-12-11T08:26:39Z</time>
      </trkpt>
      <trkpt lat="43.57639" lon="6.63237">
        <ele>240</ele>
        <time>2011-12-11T08:26:40Z</time>
      </trkpt>
      <trkpt lat="43.57642" lon="6.63233">
        <ele>240</ele>
        <time>2011-12-11T08:26:41Z</time>
      </trkpt>
      <trkpt lat="43.57644" lon="6.6323">
        <ele>240</ele>
        <time>2011-12-11T08:26:42Z</time>
      </trkpt>
      <trkpt lat="43.57646" lon="6.63228">
        <ele>241</ele>
        <time>2011-12-11T08:26:43Z</time>
      </trkpt>
      <trkpt lat="43.57649" lon="6.63225">
        <ele>241</ele>
        <time>2011-12-11T08:26:44Z</time>
      </trkpt>
      <trkpt lat="43.57651" lon="6.63222">
        <ele>242</ele>
        <time>2011-12-11T08:26:45Z</time>
      </trkpt>
      <trkpt lat="43.57653" lon="6.63219">
        <ele>242</ele>
        <time>2011-12-11T08:26:46Z</time>
      </trkpt>
      <trkpt lat="43.57654" lon="6.63217">
        <ele>243</ele>
        <time>2011-12-11T08:26:47Z</time>
      </trkpt>
      <trkpt lat="43.57657" lon="6.63215">
        <ele>244</ele>
        <time>2011-12-11T08:26:48Z</time>
      </trkpt>
      <trkpt lat="43.57659" lon="6.63212">
        <ele>245</ele>
        <time>2011-12-11T08:26:49Z</time>
      </trkpt>
      <trkpt lat="43.57661" lon="6.6321">
        <ele>245</ele>
        <time>2011-12-11T08:26:50Z</time>
      </trkpt>
      <trkpt lat="43.57664" lon="6.63209">
        <ele>245</ele>
        <time>2011-12-11T08:26:51Z</time>
      </trkpt>
      <trkpt lat="43.57666" lon="6.63208">
        <ele>245</ele>
        <time>2011-12-11T08:26:52Z</time>
      </trkpt>
      <trkpt lat="43.57669" lon="6.63206">
        <ele>246</ele>
        <time>2011-12-11T08:26:53Z</time>
      </trkpt>
      <trkpt lat="43.57671" lon="6.63205">
        <ele>246</ele>
        <time>2011-12-11T08:26:54Z</time>
      </trkpt>
      <trkpt lat="43.57674" lon="6.63204">
        <ele>246</ele>
        <time>2011-12-11T08:26:55Z</time>
      </trkpt>
      <trkpt lat="43.57677" lon="6.63204">
        <ele>246</ele>
        <time>2011-12-11T08:26:56Z</time>
      </trkpt>
      <trkpt lat="43.5768" lon="6.63203">
        <ele>246</ele>
        <time>2011-12-11T08:26:57Z</time>
      </trkpt>
      <trkpt lat="43.57682" lon="6.63203">
        <ele>247</ele>
        <time>2011-12-11T08:26:58Z</time>
      </trkpt>
      <trkpt lat="43.57685" lon="6.63204">
        <ele>246</ele>
        <time>2011-12-11T08:26:59Z</time>
      </trkpt>
      <trkpt lat="43.57688" lon="6.63206">
        <ele>246</ele>
        <time>2011-12-11T08:27:00Z</time>
      </trkpt>
      <trkpt lat="43.57691" lon="6.63208">
        <ele>247</ele>
        <time>2011-12-11T08:27:01Z</time>
      </trkpt>
      <trkpt lat="43.57693" lon="6.63209">
        <ele>247</ele>
        <time>2011-12-11T08:27:02Z</time>
      </trkpt>
      <trkpt lat="43.57696" lon="6.63209">
        <ele>248</ele>
        <time>2011-12-11T08:27:03Z</time>
      </trkpt>
      <trkpt lat="43.57699" lon="6.63209">
        <ele>249</ele>
        <time>2011-12-11T08:27:04Z</time>
      </trkpt>
      <trkpt lat="43.57702" lon="6.63209">
        <ele>249</ele>
        <time>2011-12-11T08:27:05Z</time>
      </trkpt>
      <trkpt lat="43.57705" lon="6.63208">
        <ele>250</ele>
        <time>2011-12-11T08:27:06Z</time>
      </trkpt>
      <trkpt lat="43.57707" lon="6.63206">
        <ele>251</ele>
        <time>2011-12-11T08:27:07Z</time>
      </trkpt>
      <trkpt lat="43.57709" lon="6.63203">
        <ele>251</ele>
        <time>2011-12-11T08:27:08Z</time>
      </trkpt>
      <trkpt lat="43.57711" lon="6.632">
        <ele>252</ele>
        <time>2011-12-11T08:27:09Z</time>
      </trkpt>
      <trkpt lat="43.57713" lon="6.63198">
        <ele>252</ele>
        <time>2011-12-11T08:27:10Z</time>
      </trkpt>
      <trkpt lat="43.57716" lon="6.63196">
        <ele>252</ele>
        <time>2011-12-11T08:27:11Z</time>
      </trkpt>
      <trkpt lat="43.57718" lon="6.63194">
        <ele>253</ele>
        <time>2011-12-11T08:27:12Z</time>
      </trkpt>
      <trkpt lat="43.5772" lon="6.63193">
        <ele>253</ele>
        <time>2011-12-11T08:27:13Z</time>
      </trkpt>
      <trkpt lat="43.57723" lon="6.63192">
        <ele>253</ele>
        <time>2011-12-11T08:27:14Z</time>
      </trkpt>
      <trkpt lat="43.57725" lon="6.63191">
        <ele>254</ele>
        <time>2011-12-11T08:27:15Z</time>
      </trkpt>
      <trkpt lat="43.57728" lon="6.63189">
        <ele>254</ele>
        <time>2011-12-11T08:27:16Z</time>
      </trkpt>
      <trkpt lat="43.5773" lon="6.63187">
        <ele>254</ele>
        <time>2011-12-11T08:27:17Z</time>
      </trkpt>
      <trkpt lat="43.57733" lon="6.63185">
        <ele>254</ele>
        <time>2011-12-11T08:27:18Z</time>
      </trkpt>
      <trkpt lat="43.57735" lon="6.63182">
        <ele>254</ele>
        <time>2011-12-11T08:27:19Z</time>
      </trkpt>
      <trkpt lat="43.57736" lon="6.63178">
        <ele>254</ele>
        <time>2011-12-11T08:27:20Z</time>
      </trkpt>
      <trkpt lat="43.57736" lon="6.63174">
        <ele>254</ele>
        <time>2011-12-11T08:27:21Z</time>
      </trkpt>
      <trkpt lat="43.57736" lon="6.63171">
        <ele>254</ele>
        <time>2011-12-11T08:27:22Z</time>
      </trkpt>
      <trkpt lat="43.57735" lon="6.63167">
        <ele>254</ele>
        <time>2011-12-11T08:27:23Z</time>
      </trkpt>
      <trkpt lat="43.57735" lon="6.63163">
        <ele>254</ele>
        <time>2011-12-11T08:27:24Z</time>
      </trkpt>
      <trkpt lat="43.57733" lon="6.63159">
        <ele>254</ele>
        <time>2011-12-11T08:27:25Z</time>
      </trkpt>
      <trkpt lat="43.57732" lon="6.63156">
        <ele>254</ele>
        <time>2011-12-11T08:27:26Z</time>
      </trkpt>
      <trkpt lat="43.5773" lon="6.63155">
        <ele>254</ele>
        <time>2011-12-11T08:27:27Z</time>
      </trkpt>
      <trkpt lat="43.57728" lon="6.63154">
        <ele>255</ele>
        <time>2011-12-11T08:27:28Z</time>
      </trkpt>
      <trkpt lat="43.57726" lon="6.63154">
        <ele>255</ele>
        <time>2011-12-11T08:27:29Z</time>
      </trkpt>
      <trkpt lat="43.57723" lon="6.63154">
        <ele>255</ele>
        <time>2011-12-11T08:27:30Z</time>
      </trkpt>
      <trkpt lat="43.5772" lon="6.63155">
        <ele>255</ele>
        <time>2011-12-11T08:27:31Z</time>
      </trkpt>
      <trkpt lat="43.57716" lon="6.63156">
        <ele>255</ele>
        <time>2011-12-11T08:27:32Z</time>
      </trkpt>
      <trkpt lat="43.57713" lon="6.63157">
        <ele>255</ele>
        <time>2011-12-11T08:27:33Z</time>
      </trkpt>
      <trkpt lat="43.5771" lon="6.63159">
        <ele>256</ele>
        <time>2011-12-11T08:27:34Z</time>
      </trkpt>
      <trkpt lat="43.57707" lon="6.6316">
        <ele>256</ele>
        <time>2011-12-11T08:27:35Z</time>
      </trkpt>
      <trkpt lat="43.57703" lon="6.6316">
        <ele>256</ele>
        <time>2011-12-11T08:27:36Z</time>
      </trkpt>
      <trkpt lat="43.577" lon="6.63159">
        <ele>256</ele>
        <time>2011-12-11T08:27:37Z</time>
      </trkpt>
      <trkpt lat="43.57698" lon="6.63156">
        <ele>256</ele>
        <time>2011-12-11T08:27:38Z</time>
      </trkpt>
      <trkpt lat="43.57696" lon="6.63153">
        <ele>257</ele>
        <time>2011-12-11T08:27:39Z</time>
      </trkpt>
      <trkpt lat="43.57695" lon="6.63149">
        <ele>257</ele>
        <time>2011-12-11T08:27:40Z</time>
      </trkpt>
      <trkpt lat="43.57694" lon="6.63145">
        <ele>257</ele>
        <time>2011-12-11T08:27:41Z</time>
      </trkpt>
      <trkpt lat="43.57694" lon="6.6314">
        <ele>257</ele>
        <time>2011-12-11T08:27:42Z</time>
      </trkpt>
      <trkpt lat="43.57693" lon="6.63136">
        <ele>257</ele>
        <time>2011-12-11T08:27:43Z</time>
      </trkpt>
      <trkpt lat="43.57692" lon="6.63133">
        <ele>257</ele>
        <time>2011-12-11T08:27:44Z</time>
      </trkpt>
      <trkpt lat="43.57691" lon="6.63129">
        <ele>257</ele>
        <time>2011-12-11T08:27:45Z</time>
      </trkpt>
      <trkpt lat="43.57689" lon="6.63125">
        <ele>257</ele>
        <time>2011-12-11T08:27:46Z</time>
      </trkpt>
      <trkpt lat="43.57688" lon="6.63123">
        <ele>257</ele>
        <time>2011-12-11T08:27:47Z</time>
      </trkpt>
      <trkpt lat="43.57687" lon="6.63121">
        <ele>257</ele>
        <time>2011-12-11T08:27:48Z</time>
      </trkpt>
      <trkpt lat="43.57687" lon="6.63119">
        <ele>257</ele>
        <time>2011-12-11T08:27:49Z</time>
      </trkpt>
      <trkpt lat="43.57686" lon="6.63117">
        <ele>257</ele>
        <time>2011-12-11T08:27:50Z</time>
      </trkpt>
      <trkpt lat="43.57686" lon="6.63116">
        <ele>257</ele>
        <time>2011-12-11T08:27:51Z</time>
      </trkpt>
      <trkpt lat="43.57686" lon="6.63114">
        <ele>257</ele>
        <time>2011-12-11T08:27:52Z</time>
      </trkpt>
      <trkpt lat="43.57686" lon="6.63114">
        <ele>257</ele>
        <time>2011-12-11T08:27:53Z</time>
      </trkpt>
      <trkpt lat="43.57687" lon="6.63113">
        <ele>257</ele>
        <time>2011-12-11T08:27:54Z</time>
      </trkpt>
      <trkpt lat="43.57687" lon="6.63112">
        <ele>257</ele>
        <time>2011-12-11T08:27:55Z</time>
      </trkpt>
      <trkpt lat="43.57688" lon="6.63111">
        <ele>257</ele>
        <time>2011-12-11T08:27:56Z</time>
      </trkpt>
      <trkpt lat="43.57688" lon="6.63111">
        <ele>257</ele>
        <time>2011-12-11T08:27:57Z</time>
      </trkpt>
      <trkpt lat="43.57689" lon="6.6311">
        <ele>257</ele>
        <time>2011-12-11T08:27:58Z</time>
      </trkpt>
      <trkpt lat="43.57689" lon="6.63109">
        <ele>257</ele>
        <time>2011-12-11T08:27:59Z</time>
      </trkpt>
      <trkpt lat="43.5769" lon="6.63108">
        <ele>257</ele>
        <time>2011-12-11T08:28:00Z</time>
      </trkpt>
      <trkpt lat="43.57691" lon="6.63108">
        <ele>257</ele>
        <time>2011-12-11T08:28:01Z</time>
      </trkpt>
      <trkpt lat="43.57691" lon="6.63107">
        <ele>257</ele>
        <time>2011-12-11T08:28:02Z</time>
      </trkpt>
      <trkpt lat="43.57692" lon="6.63105">
        <ele>257</ele>
        <time>2011-12-11T08:28:03Z</time>
      </trkpt>
      <trkpt lat="43.57694" lon="6.63104">
        <ele>257</ele>
        <time>2011-12-11T08:28:04Z</time>
      </trkpt>
      <trkpt lat="43.57695" lon="6.63103">
        <ele>257</ele>
        <time>2011-12-11T08:28:05Z</time>
      </trkpt>
      <trkpt lat="43.57698" lon="6.63101">
        <ele>257</ele>
        <time>2011-12-11T08:28:06Z</time>
      </trkpt>
      <trkpt lat="43.577" lon="6.631">
        <ele>257</ele>
        <time>2011-12-11T08:28:07Z</time>
      </trkpt>
      <trkpt lat="43.57702" lon="6.63098">
        <ele>258</ele>
        <time>2011-12-11T08:28:08Z</time>
      </trkpt>
      <trkpt lat="43.57705" lon="6.63097">
        <ele>258</ele>
        <time>2011-12-11T08:28:09Z</time>
      </trkpt>
      <trkpt lat="43.57707" lon="6.63097">
        <ele>258</ele>
        <time>2011-12-11T08:28:10Z</time>
      </trkpt>
      <trkpt lat="43.5771" lon="6.63096">
        <ele>258</ele>
        <time>2011-12-11T08:28:11Z</time>
      </trkpt>
      <trkpt lat="43.57713" lon="6.63096">
        <ele>258</ele>
        <time>2011-12-11T08:28:12Z</time>
      </trkpt>
      <trkpt lat="43.57716" lon="6.63095">
        <ele>258</ele>
        <time>2011-12-11T08:28:13Z</time>
      </trkpt>
      <trkpt lat="43.5772" lon="6.63095">
        <ele>258</ele>
        <time>2011-12-11T08:28:14Z</time>
      </trkpt>
      <trkpt lat="43.57723" lon="6.63095">
        <ele>259</ele>
        <time>2011-12-11T08:28:15Z</time>
      </trkpt>
      <trkpt lat="43.57726" lon="6.63094">
        <ele>259</ele>
        <time>2011-12-11T08:28:16Z</time>
      </trkpt>
      <trkpt lat="43.57729" lon="6.63093">
        <ele>259</ele>
        <time>2011-12-11T08:28:17Z</time>
      </trkpt>
      <trkpt lat="43.57732" lon="6.63092">
        <ele>259</ele>
        <time>2011-12-11T08:28:18Z</time>
      </trkpt>
      <trkpt lat="43.57735" lon="6.63091">
        <ele>259</ele>
        <time>2011-12-11T08:28:19Z</time>
      </trkpt>
      <trkpt lat="43.57737" lon="6.63091">
        <ele>260</ele>
        <time>2011-12-11T08:28:20Z</time>
      </trkpt>
      <trkpt lat="43.5774" lon="6.6309">
        <ele>261</ele>
        <time>2011-12-11T08:28:21Z</time>
      </trkpt>
      <trkpt lat="43.57743" lon="6.6309">
        <ele>261</ele>
        <time>2011-12-11T08:28:22Z</time>
      </trkpt>
      <trkpt lat="43.57747" lon="6.6309">
        <ele>260</ele>
        <time>2011-12-11T08:28:23Z</time>
      </trkpt>
      <trkpt lat="43.57749" lon="6.63089">
        <ele>260</ele>
        <time>2011-12-11T08:28:24Z</time>
      </trkpt>
      <trkpt lat="43.57752" lon="6.63088">
        <ele>260</ele>
        <time>2011-12-11T08:28:25Z</time>
      </trkpt>
      <trkpt lat="43.57754" lon="6.63086">
        <ele>260</ele>
        <time>2011-12-11T08:28:26Z</time>
      </trkpt>
      <trkpt lat="43.57758" lon="6.63086">
        <ele>260</ele>
        <time>2011-12-11T08:28:27Z</time>
      </trkpt>
      <trkpt lat="43.57761" lon="6.63084">
        <ele>260</ele>
        <time>2011-12-11T08:28:28Z</time>
      </trkpt>
      <trkpt lat="43.57764" lon="6.63083">
        <ele>260</ele>
        <time>2011-12-11T08:28:29Z</time>
      </trkpt>
      <trkpt lat="43.57767" lon="6.63083">
        <ele>260</ele>
        <time>2011-12-11T08:28:30Z</time>
      </trkpt>
      <trkpt lat="43.5777" lon="6.63083">
        <ele>260</ele>
        <time>2011-12-11T08:28:31Z</time>
      </trkpt>
      <trkpt lat="43.57773" lon="6.63083">
        <ele>260</ele>
        <time>2011-12-11T08:28:32Z</time>
      </trkpt>
      <trkpt lat="43.57778" lon="6.63086">
        <ele>260</ele>
        <time>2011-12-11T08:28:33Z</time>
      </trkpt>
      <trkpt lat="43.57782" lon="6.63088">
        <ele>260</ele>
        <time>2011-12-11T08:28:34Z</time>
      </trkpt>
      <trkpt lat="43.57786" lon="6.63091">
        <ele>260</ele>
        <time>2011-12-11T08:28:35Z</time>
      </trkpt>
      <trkpt lat="43.57788" lon="6.63094">
        <ele>260</ele>
        <time>2011-12-11T08:28:36Z</time>
      </trkpt>
      <trkpt lat="43.5779" lon="6.63098">
        <ele>260</ele>
        <time>2011-12-11T08:28:37Z</time>
      </trkpt>
      <trkpt lat="43.57793" lon="6.63101">
        <ele>261</ele>
        <time>2011-12-11T08:28:38Z</time>
      </trkpt>
      <trkpt lat="43.57795" lon="6.63106">
        <ele>260</ele>
        <time>2011-12-11T08:28:39Z</time>
      </trkpt>
      <trkpt lat="43.57797" lon="6.63111">
        <ele>260</ele>
        <time>2011-12-11T08:28:40Z</time>
      </trkpt>
      <trkpt lat="43.57799" lon="6.63115">
        <ele>260</ele>
        <time>2011-12-11T08:28:41Z</time>
      </trkpt>
      <trkpt lat="43.57804" lon="6.63121">
        <ele>259</ele>
        <time>2011-12-11T08:28:42Z</time>
      </trkpt>
      <trkpt lat="43.57807" lon="6.63124">
        <ele>259</ele>
        <time>2011-12-11T08:28:43Z</time>
      </trkpt>
      <trkpt lat="43.5781" lon="6.63125">
        <ele>259</ele>
        <time>2011-12-11T08:28:44Z</time>
      </trkpt>
      <trkpt lat="43.57815" lon="6.63124">
        <ele>259</ele>
        <time>2011-12-11T08:28:45Z</time>
      </trkpt>
      <trkpt lat="43.57817" lon="6.63121">
        <ele>259</ele>
        <time>2011-12-11T08:28:46Z</time>
      </trkpt>
      <trkpt lat="43.57818" lon="6.63118">
        <ele>259</ele>
        <time>2011-12-11T08:28:47Z</time>
      </trkpt>
      <trkpt lat="43.57822" lon="6.63117">
        <ele>259</ele>
        <time>2011-12-11T08:28:48Z</time>
      </trkpt>
      <trkpt lat="43.57825" lon="6.63118">
        <ele>259</ele>
        <time>2011-12-11T08:28:49Z</time>
      </trkpt>
      <trkpt lat="43.57828" lon="6.63119">
        <ele>259</ele>
        <time>2011-12-11T08:28:50Z</time>
      </trkpt>
      <trkpt lat="43.57832" lon="6.6312">
        <ele>259</ele>
        <time>2011-12-11T08:28:51Z</time>
      </trkpt>
      <trkpt lat="43.57836" lon="6.63121">
        <ele>259</ele>
        <time>2011-12-11T08:28:52Z</time>
      </trkpt>
      <trkpt lat="43.57841" lon="6.6312">
        <ele>259</ele>
        <time>2011-12-11T08:28:53Z</time>
      </trkpt>
      <trkpt lat="43.57844" lon="6.63117">
        <ele>259</ele>
        <time>2011-12-11T08:28:54Z</time>
      </trkpt>
      <trkpt lat="43.57847" lon="6.63114">
        <ele>259</ele>
        <time>2011-12-11T08:28:55Z</time>
      </trkpt>
      <trkpt lat="43.57849" lon="6.6311">
        <ele>259</ele>
        <time>2011-12-11T08:28:56Z</time>
      </trkpt>
      <trkpt lat="43.57852" lon="6.63105">
        <ele>259</ele>
        <time>2011-12-11T08:28:57Z</time>
      </trkpt>
      <trkpt lat="43.57854" lon="6.63101">
        <ele>259</ele>
        <time>2011-12-11T08:28:58Z</time>
      </trkpt>
      <trkpt lat="43.57856" lon="6.63096">
        <ele>259</ele>
        <time>2011-12-11T08:28:59Z</time>
      </trkpt>
      <trkpt lat="43.57858" lon="6.63092">
        <ele>259</ele>
        <time>2011-12-11T08:29:00Z</time>
      </trkpt>
      <trkpt lat="43.57862" lon="6.63088">
        <ele>258</ele>
        <time>2011-12-11T08:29:01Z</time>
      </trkpt>
      <trkpt lat="43.57865" lon="6.63084">
        <ele>257</ele>
        <time>2011-12-11T08:29:02Z</time>
      </trkpt>
      <trkpt lat="43.57869" lon="6.63081">
        <ele>257</ele>
        <time>2011-12-11T08:29:03Z</time>
      </trkpt>
      <trkpt lat="43.57873" lon="6.63077">
        <ele>256</ele>
        <time>2011-12-11T08:29:04Z</time>
      </trkpt>
      <trkpt lat="43.57877" lon="6.63073">
        <ele>255</ele>
        <time>2011-12-11T08:29:05Z</time>
      </trkpt>
      <trkpt lat="43.5788" lon="6.63068">
        <ele>255</ele>
        <time>2011-12-11T08:29:06Z</time>
      </trkpt>
      <trkpt lat="43.57883" lon="6.63063">
        <ele>254</ele>
        <time>2011-12-11T08:29:07Z</time>
      </trkpt>
      <trkpt lat="43.57885" lon="6.63059">
        <ele>254</ele>
        <time>2011-12-11T08:29:08Z</time>
      </trkpt>
      <trkpt lat="43.57888" lon="6.63055">
        <ele>254</ele>
        <time>2011-12-11T08:29:09Z</time>
      </trkpt>
      <trkpt lat="43.5789" lon="6.63051">
        <ele>253</ele>
        <time>2011-12-11T08:29:10Z</time>
      </trkpt>
      <trkpt lat="43.5789" lon="6.63046">
        <ele>254</ele>
        <time>2011-12-11T08:29:11Z</time>
      </trkpt>
      <trkpt lat="43.5789" lon="6.63041">
        <ele>254</ele>
        <time>2011-12-11T08:29:12Z</time>
      </trkpt>
      <trkpt lat="43.57889" lon="6.63037">
        <ele>254</ele>
        <time>2011-12-11T08:29:13Z</time>
      </trkpt>
      <trkpt lat="43.57884" lon="6.63034">
        <ele>254</ele>
        <time>2011-12-11T08:29:14Z</time>
      </trkpt>
      <trkpt lat="43.5788" lon="6.63031">
        <ele>254</ele>
        <time>2011-12-11T08:29:15Z</time>
      </trkpt>
      <trkpt lat="43.57877" lon="6.63027">
        <ele>254</ele>
        <time>2011-12-11T08:29:16Z</time>
      </trkpt>
      <trkpt lat="43.57873" lon="6.63023">
        <ele>254</ele>
        <time>2011-12-11T08:29:17Z</time>
      </trkpt>
      <trkpt lat="43.5787" lon="6.6302">
        <ele>253</ele>
        <time>2011-12-11T08:29:18Z</time>
      </trkpt>
      <trkpt lat="43.57868" lon="6.63016">
        <ele>253</ele>
        <time>2011-12-11T08:29:19Z</time>
      </trkpt>
      <trkpt lat="43.57866" lon="6.63012">
        <ele>253</ele>
        <time>2011-12-11T08:29:20Z</time>
      </trkpt>
      <trkpt lat="43.57864" lon="6.63009">
        <ele>253</ele>
        <time>2011-12-11T08:29:21Z</time>
      </trkpt>
      <trkpt lat="43.57862" lon="6.63005">
        <ele>253</ele>
        <time>2011-12-11T08:29:22Z</time>
      </trkpt>
      <trkpt lat="43.5786" lon="6.63001">
        <ele>253</ele>
        <time>2011-12-11T08:29:23Z</time>
      </trkpt>
      <trkpt lat="43.57858" lon="6.62997">
        <ele>253</ele>
        <time>2011-12-11T08:29:24Z</time>
      </trkpt>
      <trkpt lat="43.57856" lon="6.62993">
        <ele>253</ele>
        <time>2011-12-11T08:29:25Z</time>
      </trkpt>
      <trkpt lat="43.57855" lon="6.62988">
        <ele>253</ele>
        <time>2011-12-11T08:29:26Z</time>
      </trkpt>
      <trkpt lat="43.57852" lon="6.62984">
        <ele>253</ele>
        <time>2011-12-11T08:29:27Z</time>
      </trkpt>
      <trkpt lat="43.57851" lon="6.62979">
        <ele>253</ele>
        <time>2011-12-11T08:29:28Z</time>
      </trkpt>
      <trkpt lat="43.5785" lon="6.62975">
        <ele>253</ele>
        <time>2011-12-11T08:29:29Z</time>
      </trkpt>
      <trkpt lat="43.57848" lon="6.62969">
        <ele>253</ele>
        <time>2011-12-11T08:29:30Z</time>
      </trkpt>
      <trkpt lat="43.57848" lon="6.62964">
        <ele>253</ele>
        <time>2011-12-11T08:29:31Z</time>
      </trkpt>
      <trkpt lat="43.57847" lon="6.62958">
        <ele>253</ele>
        <time>2011-12-11T08:29:32Z</time>
      </trkpt>
      <trkpt lat="43.57845" lon="6.62952">
        <ele>253</ele>
        <time>2011-12-11T08:29:33Z</time>
      </trkpt>
      <trkpt lat="43.57845" lon="6.62946">
        <ele>253</ele>
        <time>2011-12-11T08:29:34Z</time>
      </trkpt>
      <trkpt lat="43.57844" lon="6.6294">
        <ele>252</ele>
        <time>2011-12-11T08:29:35Z</time>
      </trkpt>
      <trkpt lat="43.57844" lon="6.62935">
        <ele>252</ele>
        <time>2011-12-11T08:29:36Z</time>
      </trkpt>
      <trkpt lat="43.57845" lon="6.62929">
        <ele>252</ele>
        <time>2011-12-11T08:29:37Z</time>
      </trkpt>
      <trkpt lat="43.57846" lon="6.62924">
        <ele>253</ele>
        <time>2011-12-11T08:29:38Z</time>
      </trkpt>
      <trkpt lat="43.57847" lon="6.62919">
        <ele>253</ele>
        <time>2011-12-11T08:29:39Z</time>
      </trkpt>
      <trkpt lat="43.57848" lon="6.62914">
        <ele>253</ele>
        <time>2011-12-11T08:29:40Z</time>
      </trkpt>
      <trkpt lat="43.57848" lon="6.62909">
        <ele>253</ele>
        <time>2011-12-11T08:29:41Z</time>
      </trkpt>
      <trkpt lat="43.57849" lon="6.62904">
        <ele>253</ele>
        <time>2011-12-11T08:29:42Z</time>
      </trkpt>
      <trkpt lat="43.57851" lon="6.62899">
        <ele>253</ele>
        <time>2011-12-11T08:29:43Z</time>
      </trkpt>
      <trkpt lat="43.57853" lon="6.62895">
        <ele>253</ele>
        <time>2011-12-11T08:29:44Z</time>
      </trkpt>
      <trkpt lat="43.57856" lon="6.62891">
        <ele>253</ele>
        <time>2011-12-11T08:29:45Z</time>
      </trkpt>
      <trkpt lat="43.57859" lon="6.62888">
        <ele>253</ele>
        <time>2011-12-11T08:29:46Z</time>
      </trkpt>
      <trkpt lat="43.57862" lon="6.62886">
        <ele>254</ele>
        <time>2011-12-11T08:29:47Z</time>
      </trkpt>
      <trkpt lat="43.57865" lon="6.62884">
        <ele>254</ele>
        <time>2011-12-11T08:29:48Z</time>
      </trkpt>
      <trkpt lat="43.57867" lon="6.62883">
        <ele>254</ele>
        <time>2011-12-11T08:29:49Z</time>
      </trkpt>
      <trkpt lat="43.5787" lon="6.62883">
        <ele>254</ele>
        <time>2011-12-11T08:29:50Z</time>
      </trkpt>
      <trkpt lat="43.57873" lon="6.62883">
        <ele>254</ele>
        <time>2011-12-11T08:29:51Z</time>
      </trkpt>
      <trkpt lat="43.57876" lon="6.62882">
        <ele>254</ele>
        <time>2011-12-11T08:29:52Z</time>
      </trkpt>
      <trkpt lat="43.57878" lon="6.6288">
        <ele>254</ele>
        <time>2011-12-11T08:29:53Z</time>
      </trkpt>
      <trkpt lat="43.5788" lon="6.62876">
        <ele>254</ele>
        <time>2011-12-11T08:29:54Z</time>
      </trkpt>
      <trkpt lat="43.57881" lon="6.62872">
        <ele>254</ele>
        <time>2011-12-11T08:29:55Z</time>
      </trkpt>
      <trkpt lat="43.57882" lon="6.62868">
        <ele>254</ele>
        <time>2011-12-11T08:29:56Z</time>
      </trkpt>
      <trkpt lat="43.57883" lon="6.62864">
        <ele>254</ele>
        <time>2011-12-11T08:29:57Z</time>
      </trkpt>
      <trkpt lat="43.57884" lon="6.6286">
        <ele>254</ele>
        <time>2011-12-11T08:29:58Z</time>
      </trkpt>
      <trkpt lat="43.57884" lon="6.62856">
        <ele>254</ele>
        <time>2011-12-11T08:29:59Z</time>
      </trkpt>
      <trkpt lat="43.57884" lon="6.62852">
        <ele>254</ele>
        <time>2011-12-11T08:30:00Z</time>
      </trkpt>
      <trkpt lat="43.57885" lon="6.62848">
        <ele>255</ele>
        <time>2011-12-11T08:30:01Z</time>
      </trkpt>
      <trkpt lat="43.57886" lon="6.62844">
        <ele>255</ele>
        <time>2011-12-11T08:30:02Z</time>
      </trkpt>
      <trkpt lat="43.57887" lon="6.6284">
        <ele>255</ele>
        <time>2011-12-11T08:30:03Z</time>
      </trkpt>
      <trkpt lat="43.57889" lon="6.62836">
        <ele>255</ele>
        <time>2011-12-11T08:30:04Z</time>
      </trkpt>
      <trkpt lat="43.5789" lon="6.62833">
        <ele>255</ele>
        <time>2011-12-11T08:30:05Z</time>
      </trkpt>
      <trkpt lat="43.57892" lon="6.62829">
        <ele>256</ele>
        <time>2011-12-11T08:30:06Z</time>
      </trkpt>
      <trkpt lat="43.57894" lon="6.62827">
        <ele>256</ele>
        <time>2011-12-11T08:30:07Z</time>
      </trkpt>
      <trkpt lat="43.57896" lon="6.62824">
        <ele>257</ele>
        <time>2011-12-11T08:30:08Z</time>
      </trkpt>
      <trkpt lat="43.57898" lon="6.62822">
        <ele>257</ele>
        <time>2011-12-11T08:30:09Z</time>
      </trkpt>
      <trkpt lat="43.579" lon="6.6282">
        <ele>257</ele>
        <time>2011-12-11T08:30:10Z</time>
      </trkpt>
      <trkpt lat="43.57903" lon="6.62818">
        <ele>257</ele>
        <time>2011-12-11T08:30:11Z</time>
      </trkpt>
      <trkpt lat="43.57906" lon="6.62818">
        <ele>257</ele>
        <time>2011-12-11T08:30:12Z</time>
      </trkpt>
      <trkpt lat="43.57908" lon="6.62817">
        <ele>257</ele>
        <time>2011-12-11T08:30:13Z</time>
      </trkpt>
      <trkpt lat="43.57911" lon="6.62815">
        <ele>257</ele>
        <time>2011-12-11T08:30:14Z</time>
      </trkpt>
      <trkpt lat="43.57913" lon="6.62815">
        <ele>257</ele>
        <time>2011-12-11T08:30:15Z</time>
      </trkpt>
      <trkpt lat="43.57916" lon="6.62815">
        <ele>258</ele>
        <time>2011-12-11T08:30:16Z</time>
      </trkpt>
      <trkpt lat="43.57918" lon="6.62815">
        <ele>258</ele>
        <time>2011-12-11T08:30:17Z</time>
      </trkpt>
      <trkpt lat="43.57921" lon="6.62814">
        <ele>258</ele>
        <time>2011-12-11T08:30:18Z</time>
      </trkpt>
      <trkpt lat="43.57924" lon="6.62814">
        <ele>258</ele>
        <time>2011-12-11T08:30:19Z</time>
      </trkpt>
      <trkpt lat="43.57926" lon="6.62815">
        <ele>259</ele>
        <time>2011-12-11T08:30:20Z</time>
      </trkpt>
      <trkpt lat="43.57929" lon="6.62816">
        <ele>259</ele>
        <time>2011-12-11T08:30:21Z</time>
      </trkpt>
      <trkpt lat="43.57932" lon="6.62817">
        <ele>259</ele>
        <time>2011-12-11T08:30:22Z</time>
      </trkpt>
      <trkpt lat="43.57934" lon="6.62818">
        <ele>260</ele>
        <time>2011-12-11T08:30:23Z</time>
      </trkpt>
      <trkpt lat="43.57937" lon="6.62819">
        <ele>260</ele>
        <time>2011-12-11T08:30:24Z</time>
      </trkpt>
      <trkpt lat="43.5794" lon="6.62819">
        <ele>260</ele>
        <time>2011-12-11T08:30:25Z</time>
      </trkpt>
      <trkpt lat="43.57942" lon="6.62819">
        <ele>260</ele>
        <time>2011-12-11T08:30:26Z</time>
      </trkpt>
      <trkpt lat="43.57945" lon="6.62818">
        <ele>260</ele>
        <time>2011-12-11T08:30:27Z</time>
      </trkpt>
      <trkpt lat="43.57947" lon="6.62817">
        <ele>261</ele>
        <time>2011-12-11T08:30:28Z</time>
      </trkpt>
      <trkpt lat="43.5795" lon="6.62815">
        <ele>261</ele>
        <time>2011-12-11T08:30:29Z</time>
      </trkpt>
      <trkpt lat="43.57951" lon="6.62814">
        <ele>261</ele>
        <time>2011-12-11T08:30:30Z</time>
      </trkpt>
      <trkpt lat="43.57954" lon="6.62813">
        <ele>261</ele>
        <time>2011-12-11T08:30:31Z</time>
      </trkpt>
      <trkpt lat="43.57956" lon="6.62812">
        <ele>261</ele>
        <time>2011-12-11T08:30:32Z</time>
      </trkpt>
      <trkpt lat="43.57958" lon="6.62811">
        <ele>261</ele>
        <time>2011-12-11T08:30:33Z</time>
      </trkpt>
      <trkpt lat="43.5796" lon="6.6281">
        <ele>262</ele>
        <time>2011-12-11T08:30:34Z</time>
      </trkpt>
      <trkpt lat="43.57962" lon="6.6281">
        <ele>262</ele>
        <time>2011-12-11T08:30:35Z</time>
      </trkpt>
      <trkpt lat="43.57964" lon="6.62809">
        <ele>262</ele>
        <time>2011-12-11T08:30:36Z</time>
      </trkpt>
      <trkpt lat="43.57966" lon="6.62808">
        <ele>263</ele>
        <time>2011-12-11T08:30:37Z</time>
      </trkpt>
      <trkpt lat="43.57968" lon="6.62807">
        <ele>264</ele>
        <time>2011-12-11T08:30:38Z</time>
      </trkpt>
      <trkpt lat="43.57971" lon="6.62807">
        <ele>263</ele>
        <time>2011-12-11T08:30:39Z</time>
      </trkpt>
      <trkpt lat="43.57973" lon="6.62807">
        <ele>263</ele>
        <time>2011-12-11T08:30:40Z</time>
      </trkpt>
      <trkpt lat="43.57975" lon="6.62807">
        <ele>263</ele>
        <time>2011-12-11T08:30:41Z</time>
      </trkpt>
      <trkpt lat="43.57978" lon="6.62807">
        <ele>263</ele>
        <time>2011-12-11T08:30:42Z</time>
      </trkpt>
      <trkpt lat="43.5798" lon="6.62806">
        <ele>263</ele>
        <time>2011-12-11T08:30:43Z</time>
      </trkpt>
      <trkpt lat="43.57984" lon="6.62806">
        <ele>263</ele>
        <time>2011-12-11T08:30:44Z</time>
      </trkpt>
      <trkpt lat="43.57986" lon="6.62806">
        <ele>264</ele>
        <time>2011-12-11T08:30:45Z</time>
      </trkpt>
      <trkpt lat="43.57989" lon="6.62806">
        <ele>264</ele>
        <time>2011-12-11T08:30:46Z</time>
      </trkpt>
      <trkpt lat="43.57991" lon="6.62807">
        <ele>264</ele>
        <time>2011-12-11T08:30:47Z</time>
      </trkpt>
      <trkpt lat="43.57994" lon="6.62807">
        <ele>264</ele>
        <time>2011-12-11T08:30:48Z</time>
      </trkpt>
      <trkpt lat="43.57997" lon="6.62807">
        <ele>264</ele>
        <time>2011-12-11T08:30:49Z</time>
      </trkpt>
      <trkpt lat="43.58" lon="6.62807">
        <ele>264</ele>
        <time>2011-12-11T08:30:50Z</time>
      </trkpt>
      <trkpt lat="43.58002" lon="6.62806">
        <ele>265</ele>
        <time>2011-12-11T08:30:51Z</time>
      </trkpt>
      <trkpt lat="43.58004" lon="6.62805">
        <ele>265</ele>
        <time>2011-12-11T08:30:52Z</time>
      </trkpt>
      <trkpt lat="43.58007" lon="6.62806">
        <ele>264</ele>
        <time>2011-12-11T08:30:53Z</time>
      </trkpt>
      <trkpt lat="43.58009" lon="6.62805">
        <ele>264</ele>
        <time>2011-12-11T08:30:54Z</time>
      </trkpt>
      <trkpt lat="43.58011" lon="6.62805">
        <ele>265</ele>
        <time>2011-12-11T08:30:55Z</time>
      </trkpt>
      <trkpt lat="43.58013" lon="6.62805">
        <ele>265</ele>
        <time>2011-12-11T08:30:56Z</time>
      </trkpt>
      <trkpt lat="43.58014" lon="6.62805">
        <ele>265</ele>
        <time>2011-12-11T08:30:57Z</time>
      </trkpt>
      <trkpt lat="43.58015" lon="6.62805">
        <ele>266</ele>
        <time>2011-12-11T08:30:59Z</time>
      </trkpt>
      <trkpt lat="43.58015" lon="6.62805">
        <ele>266</ele>
        <time>2011-12-11T08:31:00Z</time>
      </trkpt>
      <trkpt lat="43.58017" lon="6.62805">
        <ele>266</ele>
        <time>2011-12-11T08:31:01Z</time>
      </trkpt>
      <trkpt lat="43.58018" lon="6.62805">
        <ele>266</ele>
        <time>2011-12-11T08:31:02Z</time>
      </trkpt>
      <trkpt lat="43.58021" lon="6.62805">
        <ele>266</ele>
        <time>2011-12-11T08:31:03Z</time>
      </trkpt>
      <trkpt lat="43.58023" lon="6.62807">
        <ele>266</ele>
        <time>2011-12-11T08:31:04Z</time>
      </trkpt>
      <trkpt lat="43.58025" lon="6.62808">
        <ele>266</ele>
        <time>2011-12-11T08:31:05Z</time>
      </trkpt>
      <trkpt lat="43.58027" lon="6.62809">
        <ele>266</ele>
        <time>2011-12-11T08:31:06Z</time>
      </trkpt>
      <trkpt lat="43.58029" lon="6.62811">
        <ele>267</ele>
        <time>2011-12-11T08:31:07Z</time>
      </trkpt>
      <trkpt lat="43.58031" lon="6.62812">
        <ele>267</ele>
        <time>2011-12-11T08:31:08Z</time>
      </trkpt>
      <trkpt lat="43.58034" lon="6.62815">
        <ele>268</ele>
        <time>2011-12-11T08:31:09Z</time>
      </trkpt>
      <trkpt lat="43.58036" lon="6.62817">
        <ele>267</ele>
        <time>2011-12-11T08:31:10Z</time>
      </trkpt>
      <trkpt lat="43.58038" lon="6.6282">
        <ele>268</ele>
        <time>2011-12-11T08:31:11Z</time>
      </trkpt>
      <trkpt lat="43.5804" lon="6.62823">
        <ele>267</ele>
        <time>2011-12-11T08:31:12Z</time>
      </trkpt>
      <trkpt lat="43.58041" lon="6.62827">
        <ele>267</ele>
        <time>2011-12-11T08:31:13Z</time>
      </trkpt>
      <trkpt lat="43.58042" lon="6.6283">
        <ele>267</ele>
        <time>2011-12-11T08:31:14Z</time>
      </trkpt>
      <trkpt lat="43.58042" lon="6.62834">
        <ele>267</ele>
        <time>2011-12-11T08:31:15Z</time>
      </trkpt>
      <trkpt lat="43.58043" lon="6.62837">
        <ele>267</ele>
        <time>2011-12-11T08:31:16Z</time>
      </trkpt>
      <trkpt lat="43.58043" lon="6.6284">
        <ele>268</ele>
        <time>2011-12-11T08:31:17Z</time>
      </trkpt>
      <trkpt lat="43.58043" lon="6.62843">
        <ele>268</ele>
        <time>2011-12-11T08:31:18Z</time>
      </trkpt>
      <trkpt lat="43.58043" lon="6.62846">
        <ele>268</ele>
        <time>2011-12-11T08:31:19Z</time>
      </trkpt>
      <trkpt lat="43.58043" lon="6.62849">
        <ele>268</ele>
        <time>2011-12-11T08:31:20Z</time>
      </trkpt>
      <trkpt lat="43.58043" lon="6.62853">
        <ele>268</ele>
        <time>2011-12-11T08:31:21Z</time>
      </trkpt>
      <trkpt lat="43.58043" lon="6.62856">
        <ele>268</ele>
        <time>2011-12-11T08:31:22Z</time>
      </trkpt>
      <trkpt lat="43.58043" lon="6.62859">
        <ele>268</ele>
        <time>2011-12-11T08:31:23Z</time>
      </trkpt>
      <trkpt lat="43.58044" lon="6.62861">
        <ele>268</ele>
        <time>2011-12-11T08:31:24Z</time>
      </trkpt>
      <trkpt lat="43.58044" lon="6.62864">
        <ele>268</ele>
        <time>2011-12-11T08:31:25Z</time>
      </trkpt>
      <trkpt lat="43.58046" lon="6.62867">
        <ele>268</ele>
        <time>2011-12-11T08:31:26Z</time>
      </trkpt>
      <trkpt lat="43.58047" lon="6.62869">
        <ele>268</ele>
        <time>2011-12-11T08:31:27Z</time>
      </trkpt>
      <trkpt lat="43.58049" lon="6.6287">
        <ele>268</ele>
        <time>2011-12-11T08:31:28Z</time>
      </trkpt>
      <trkpt lat="43.5805" lon="6.6287">
        <ele>270</ele>
        <time>2011-12-11T08:31:29Z</time>
      </trkpt>
      <trkpt lat="43.58051" lon="6.62873">
        <ele>270</ele>
        <time>2011-12-11T08:31:30Z</time>
      </trkpt>
      <trkpt lat="43.58051" lon="6.62876">
        <ele>271</ele>
        <time>2011-12-11T08:31:31Z</time>
      </trkpt>
      <trkpt lat="43.58051" lon="6.62879">
        <ele>271</ele>
        <time>2011-12-11T08:31:32Z</time>
      </trkpt>
      <trkpt lat="43.58052" lon="6.62882">
        <ele>271</ele>
        <time>2011-12-11T08:31:33Z</time>
      </trkpt>
      <trkpt lat="43.58052" lon="6.62884">
        <ele>271</ele>
        <time>2011-12-11T08:31:34Z</time>
      </trkpt>
      <trkpt lat="43.58053" lon="6.62886">
        <ele>271</ele>
        <time>2011-12-11T08:31:35Z</time>
      </trkpt>
      <trkpt lat="43.58054" lon="6.62887">
        <ele>271</ele>
        <time>2011-12-11T08:31:36Z</time>
      </trkpt>
      <trkpt lat="43.58057" lon="6.62887">
        <ele>271</ele>
        <time>2011-12-11T08:31:37Z</time>
      </trkpt>
      <trkpt lat="43.58059" lon="6.62884">
        <ele>271</ele>
        <time>2011-12-11T08:31:38Z</time>
      </trkpt>
      <trkpt lat="43.5806" lon="6.62881">
        <ele>271</ele>
        <time>2011-12-11T08:31:39Z</time>
      </trkpt>
      <trkpt lat="43.58061" lon="6.62876">
        <ele>271</ele>
        <time>2011-12-11T08:31:40Z</time>
      </trkpt>
      <trkpt lat="43.58061" lon="6.62871">
        <ele>271</ele>
        <time>2011-12-11T08:31:41Z</time>
      </trkpt>
      <trkpt lat="43.58062" lon="6.62866">
        <ele>271</ele>
        <time>2011-12-11T08:31:42Z</time>
      </trkpt>
      <trkpt lat="43.58063" lon="6.62861">
        <ele>271</ele>
        <time>2011-12-11T08:31:43Z</time>
      </trkpt>
      <trkpt lat="43.58064" lon="6.62855">
        <ele>271</ele>
        <time>2011-12-11T08:31:44Z</time>
      </trkpt>
      <trkpt lat="43.58066" lon="6.6285">
        <ele>271</ele>
        <time>2011-12-11T08:31:45Z</time>
      </trkpt>
      <trkpt lat="43.58067" lon="6.62845">
        <ele>271</ele>
        <time>2011-12-11T08:31:46Z</time>
      </trkpt>
      <trkpt lat="43.58069" lon="6.62841">
        <ele>270</ele>
        <time>2011-12-11T08:31:47Z</time>
      </trkpt>
      <trkpt lat="43.5807" lon="6.62835">
        <ele>270</ele>
        <time>2011-12-11T08:31:48Z</time>
      </trkpt>
      <trkpt lat="43.58072" lon="6.6283">
        <ele>270</ele>
        <time>2011-12-11T08:31:49Z</time>
      </trkpt>
      <trkpt lat="43.58074" lon="6.62825">
        <ele>270</ele>
        <time>2011-12-11T08:31:50Z</time>
      </trkpt>
      <trkpt lat="43.58076" lon="6.6282">
        <ele>270</ele>
        <time>2011-12-11T08:31:51Z</time>
      </trkpt>
      <trkpt lat="43.58077" lon="6.62815">
        <ele>270</ele>
        <time>2011-12-11T08:31:52Z</time>
      </trkpt>
      <trkpt lat="43.58079" lon="6.6281">
        <ele>269</ele>
        <time>2011-12-11T08:31:53Z</time>
      </trkpt>
      <trkpt lat="43.58081" lon="6.62804">
        <ele>269</ele>
        <time>2011-12-11T08:31:54Z</time>
      </trkpt>
      <trkpt lat="43.58083" lon="6.62799">
        <ele>269</ele>
        <time>2011-12-11T08:31:55Z</time>
      </trkpt>
      <trkpt lat="43.58085" lon="6.62793">
        <ele>269</ele>
        <time>2011-12-11T08:31:56Z</time>
      </trkpt>
      <trkpt lat="43.58087" lon="6.62788">
        <ele>269</ele>
        <time>2011-12-11T08:31:57Z</time>
      </trkpt>
      <trkpt lat="43.58089" lon="6.62782">
        <ele>269</ele>
        <time>2011-12-11T08:31:58Z</time>
      </trkpt>
      <trkpt lat="43.58092" lon="6.62776">
        <ele>268</ele>
        <time>2011-12-11T08:31:59Z</time>
      </trkpt>
      <trkpt lat="43.58095" lon="6.62771">
        <ele>268</ele>
        <time>2011-12-11T08:32:00Z</time>
      </trkpt>
      <trkpt lat="43.58098" lon="6.62766">
        <ele>268</ele>
        <time>2011-12-11T08:32:01Z</time>
      </trkpt>
      <trkpt lat="43.58101" lon="6.62761">
        <ele>268</ele>
        <time>2011-12-11T08:32:02Z</time>
      </trkpt>
      <trkpt lat="43.58104" lon="6.62755">
        <ele>268</ele>
        <time>2011-12-11T08:32:03Z</time>
      </trkpt>
      <trkpt lat="43.58107" lon="6.6275">
        <ele>268</ele>
        <time>2011-12-11T08:32:04Z</time>
      </trkpt>
      <trkpt lat="43.5811" lon="6.62745">
        <ele>267</ele>
        <time>2011-12-11T08:32:05Z</time>
      </trkpt>
      <trkpt lat="43.58114" lon="6.6274">
        <ele>267</ele>
        <time>2011-12-11T08:32:06Z</time>
      </trkpt>
      <trkpt lat="43.58117" lon="6.62735">
        <ele>267</ele>
        <time>2011-12-11T08:32:07Z</time>
      </trkpt>
      <trkpt lat="43.5812" lon="6.6273">
        <ele>267</ele>
        <time>2011-12-11T08:32:08Z</time>
      </trkpt>
      <trkpt lat="43.58124" lon="6.62725">
        <ele>267</ele>
        <time>2011-12-11T08:32:09Z</time>
      </trkpt>
      <trkpt lat="43.58127" lon="6.6272">
        <ele>266</ele>
        <time>2011-12-11T08:32:10Z</time>
      </trkpt>
      <trkpt lat="43.58131" lon="6.62714">
        <ele>266</ele>
        <time>2011-12-11T08:32:11Z</time>
      </trkpt>
      <trkpt lat="43.58134" lon="6.62709">
        <ele>266</ele>
        <time>2011-12-11T08:32:12Z</time>
      </trkpt>
      <trkpt lat="43.58136" lon="6.62703">
        <ele>266</ele>
        <time>2011-12-11T08:32:13Z</time>
      </trkpt>
      <trkpt lat="43.58145" lon="6.62626">
        <ele>266</ele>
        <time>2011-12-11T08:32:23Z</time>
      </trkpt>
      <trkpt lat="43.58129" lon="6.62564">
        <ele>268</ele>
        <time>2011-12-11T08:32:33Z</time>
      </trkpt>
      <trkpt lat="43.58128" lon="6.62558">
        <ele>269</ele>
        <time>2011-12-11T08:32:34Z</time>
      </trkpt>
      <trkpt lat="43.58127" lon="6.62552">
        <ele>269</ele>
        <time>2011-12-11T08:32:35Z</time>
      </trkpt>
      <trkpt lat="43.58126" lon="6.62546">
        <ele>269</ele>
        <time>2011-12-11T08:32:36Z</time>
      </trkpt>
      <trkpt lat="43.58126" lon="6.62541">
        <ele>269</ele>
        <time>2011-12-11T08:32:37Z</time>
      </trkpt>
      <trkpt lat="43.58125" lon="6.62535">
        <ele>269</ele>
        <time>2011-12-11T08:32:38Z</time>
      </trkpt>
      <trkpt lat="43.58125" lon="6.62528">
        <ele>269</ele>
        <time>2011-12-11T08:32:39Z</time>
      </trkpt>
      <trkpt lat="43.58125" lon="6.62522">
        <ele>269</ele>
        <time>2011-12-11T08:32:40Z</time>
      </trkpt>
      <trkpt lat="43.58125" lon="6.62516">
        <ele>269</ele>
        <time>2011-12-11T08:32:41Z</time>
      </trkpt>
      <trkpt lat="43.58125" lon="6.6251">
        <ele>269</ele>
        <time>2011-12-11T08:32:42Z</time>
      </trkpt>
      <trkpt lat="43.58125" lon="6.62503">
        <ele>269</ele>
        <time>2011-12-11T08:32:43Z</time>
      </trkpt>
      <trkpt lat="43.58124" lon="6.62497">
        <ele>269</ele>
        <time>2011-12-11T08:32:44Z</time>
      </trkpt>
      <trkpt lat="43.58124" lon="6.62491">
        <ele>269</ele>
        <time>2011-12-11T08:32:45Z</time>
      </trkpt>
      <trkpt lat="43.58123" lon="6.62485">
        <ele>269</ele>
        <time>2011-12-11T08:32:46Z</time>
      </trkpt>
      <trkpt lat="43.58122" lon="6.62479">
        <ele>269</ele>
        <time>2011-12-11T08:32:47Z</time>
      </trkpt>
      <trkpt lat="43.58121" lon="6.62473">
        <ele>270</ele>
        <time>2011-12-11T08:32:48Z</time>
      </trkpt>
      <trkpt lat="43.58121" lon="6.62466">
        <ele>270</ele>
        <time>2011-12-11T08:32:49Z</time>
      </trkpt>
      <trkpt lat="43.58119" lon="6.62461">
        <ele>270</ele>
        <time>2011-12-11T08:32:50Z</time>
      </trkpt>
      <trkpt lat="43.58118" lon="6.62455">
        <ele>270</ele>
        <time>2011-12-11T08:32:51Z</time>
      </trkpt>
      <trkpt lat="43.58117" lon="6.62449">
        <ele>270</ele>
        <time>2011-12-11T08:32:52Z</time>
      </trkpt>
      <trkpt lat="43.58115" lon="6.62443">
        <ele>270</ele>
        <time>2011-12-11T08:32:53Z</time>
      </trkpt>
      <trkpt lat="43.58113" lon="6.62437">
        <ele>270</ele>
        <time>2011-12-11T08:32:54Z</time>
      </trkpt>
      <trkpt lat="43.58111" lon="6.62431">
        <ele>270</ele>
        <time>2011-12-11T08:32:55Z</time>
      </trkpt>
      <trkpt lat="43.5811" lon="6.62426">
        <ele>270</ele>
        <time>2011-12-11T08:32:56Z</time>
      </trkpt>
      <trkpt lat="43.58107" lon="6.62421">
        <ele>271</ele>
        <time>2011-12-11T08:32:57Z</time>
      </trkpt>
      <trkpt lat="43.58106" lon="6.62417">
        <ele>271</ele>
        <time>2011-12-11T08:32:58Z</time>
      </trkpt>
      <trkpt lat="43.58103" lon="6.62412">
        <ele>271</ele>
        <time>2011-12-11T08:32:59Z</time>
      </trkpt>
      <trkpt lat="43.58101" lon="6.62408">
        <ele>271</ele>
        <time>2011-12-11T08:33:00Z</time>
      </trkpt>
      <trkpt lat="43.58099" lon="6.62404">
        <ele>271</ele>
        <time>2011-12-11T08:33:01Z</time>
      </trkpt>
      <trkpt lat="43.58097" lon="6.624">
        <ele>272</ele>
        <time>2011-12-11T08:33:02Z</time>
      </trkpt>
      <trkpt lat="43.58094" lon="6.62396">
        <ele>272</ele>
        <time>2011-12-11T08:33:03Z</time>
      </trkpt>
      <trkpt lat="43.58092" lon="6.62391">
        <ele>272</ele>
        <time>2011-12-11T08:33:04Z</time>
      </trkpt>
      <trkpt lat="43.5809" lon="6.62387">
        <ele>272</ele>
        <time>2011-12-11T08:33:05Z</time>
      </trkpt>
      <trkpt lat="43.58087" lon="6.62383">
        <ele>272</ele>
        <time>2011-12-11T08:33:06Z</time>
      </trkpt>
      <trkpt lat="43.58084" lon="6.62379">
        <ele>273</ele>
        <time>2011-12-11T08:33:07Z</time>
      </trkpt>
      <trkpt lat="43.58082" lon="6.62375">
        <ele>273</ele>
        <time>2011-12-11T08:33:08Z</time>
      </trkpt>
      <trkpt lat="43.5808" lon="6.62371">
        <ele>273</ele>
        <time>2011-12-11T08:33:09Z</time>
      </trkpt>
      <trkpt lat="43.58077" lon="6.62367">
        <ele>273</ele>
        <time>2011-12-11T08:33:10Z</time>
      </trkpt>
      <trkpt lat="43.58075" lon="6.62364">
        <ele>274</ele>
        <time>2011-12-11T08:33:11Z</time>
      </trkpt>
      <trkpt lat="43.58072" lon="6.62361">
        <ele>274</ele>
        <time>2011-12-11T08:33:12Z</time>
      </trkpt>
      <trkpt lat="43.58069" lon="6.62358">
        <ele>274</ele>
        <time>2011-12-11T08:33:13Z</time>
      </trkpt>
      <trkpt lat="43.58067" lon="6.62355">
        <ele>275</ele>
        <time>2011-12-11T08:33:14Z</time>
      </trkpt>
      <trkpt lat="43.58064" lon="6.62353">
        <ele>275</ele>
        <time>2011-12-11T08:33:15Z</time>
      </trkpt>
      <trkpt lat="43.58061" lon="6.6235">
        <ele>275</ele>
        <time>2011-12-11T08:33:16Z</time>
      </trkpt>
      <trkpt lat="43.58059" lon="6.62347">
        <ele>275</ele>
        <time>2011-12-11T08:33:17Z</time>
      </trkpt>
      <trkpt lat="43.58056" lon="6.62345">
        <ele>276</ele>
        <time>2011-12-11T08:33:18Z</time>
      </trkpt>
      <trkpt lat="43.58054" lon="6.62341">
        <ele>276</ele>
        <time>2011-12-11T08:33:19Z</time>
      </trkpt>
      <trkpt lat="43.58052" lon="6.62337">
        <ele>276</ele>
        <time>2011-12-11T08:33:20Z</time>
      </trkpt>
      <trkpt lat="43.5805" lon="6.62332">
        <ele>276</ele>
        <time>2011-12-11T08:33:21Z</time>
      </trkpt>
      <trkpt lat="43.58049" lon="6.62328">
        <ele>277</ele>
        <time>2011-12-11T08:33:22Z</time>
      </trkpt>
      <trkpt lat="43.58049" lon="6.62323">
        <ele>277</ele>
        <time>2011-12-11T08:33:23Z</time>
      </trkpt>
      <trkpt lat="43.58048" lon="6.62318">
        <ele>277</ele>
        <time>2011-12-11T08:33:24Z</time>
      </trkpt>
      <trkpt lat="43.58047" lon="6.62313">
        <ele>277</ele>
        <time>2011-12-11T08:33:25Z</time>
      </trkpt>
      <trkpt lat="43.58047" lon="6.62308">
        <ele>277</ele>
        <time>2011-12-11T08:33:26Z</time>
      </trkpt>
      <trkpt lat="43.58046" lon="6.62303">
        <ele>277</ele>
        <time>2011-12-11T08:33:27Z</time>
      </trkpt>
      <trkpt lat="43.58046" lon="6.62299">
        <ele>278</ele>
        <time>2011-12-11T08:33:28Z</time>
      </trkpt>
      <trkpt lat="43.58045" lon="6.62294">
        <ele>278</ele>
        <time>2011-12-11T08:33:29Z</time>
      </trkpt>
      <trkpt lat="43.58045" lon="6.6229">
        <ele>278</ele>
        <time>2011-12-11T08:33:30Z</time>
      </trkpt>
      <trkpt lat="43.58044" lon="6.62286">
        <ele>278</ele>
        <time>2011-12-11T08:33:31Z</time>
      </trkpt>
      <trkpt lat="43.58042" lon="6.62281">
        <ele>278</ele>
        <time>2011-12-11T08:33:32Z</time>
      </trkpt>
      <trkpt lat="43.58041" lon="6.62277">
        <ele>278</ele>
        <time>2011-12-11T08:33:33Z</time>
      </trkpt>
      <trkpt lat="43.58039" lon="6.62273">
        <ele>278</ele>
        <time>2011-12-11T08:33:34Z</time>
      </trkpt>
      <trkpt lat="43.58037" lon="6.62269">
        <ele>278</ele>
        <time>2011-12-11T08:33:35Z</time>
      </trkpt>
      <trkpt lat="43.58034" lon="6.62266">
        <ele>278</ele>
        <time>2011-12-11T08:33:36Z</time>
      </trkpt>
      <trkpt lat="43.58032" lon="6.62262">
        <ele>278</ele>
        <time>2011-12-11T08:33:37Z</time>
      </trkpt>
      <trkpt lat="43.5803" lon="6.62258">
        <ele>278</ele>
        <time>2011-12-11T08:33:38Z</time>
      </trkpt>
      <trkpt lat="43.58028" lon="6.62255">
        <ele>278</ele>
        <time>2011-12-11T08:33:39Z</time>
      </trkpt>
      <trkpt lat="43.58026" lon="6.62251">
        <ele>278</ele>
        <time>2011-12-11T08:33:40Z</time>
      </trkpt>
      <trkpt lat="43.58024" lon="6.62248">
        <ele>279</ele>
        <time>2011-12-11T08:33:41Z</time>
      </trkpt>
      <trkpt lat="43.58022" lon="6.62246">
        <ele>279</ele>
        <time>2011-12-11T08:33:42Z</time>
      </trkpt>
      <trkpt lat="43.58019" lon="6.62244">
        <ele>279</ele>
        <time>2011-12-11T08:33:43Z</time>
      </trkpt>
      <trkpt lat="43.58016" lon="6.62242">
        <ele>280</ele>
        <time>2011-12-11T08:33:44Z</time>
      </trkpt>
      <trkpt lat="43.58013" lon="6.62241">
        <ele>280</ele>
        <time>2011-12-11T08:33:45Z</time>
      </trkpt>
      <trkpt lat="43.5801" lon="6.6224">
        <ele>280</ele>
        <time>2011-12-11T08:33:46Z</time>
      </trkpt>
      <trkpt lat="43.58007" lon="6.62239">
        <ele>280</ele>
        <time>2011-12-11T08:33:47Z</time>
      </trkpt>
      <trkpt lat="43.58005" lon="6.62238">
        <ele>280</ele>
        <time>2011-12-11T08:33:48Z</time>
      </trkpt>
      <trkpt lat="43.58002" lon="6.62237">
        <ele>280</ele>
        <time>2011-12-11T08:33:49Z</time>
      </trkpt>
      <trkpt lat="43.57999" lon="6.62237">
        <ele>280</ele>
        <time>2011-12-11T08:33:50Z</time>
      </trkpt>
      <trkpt lat="43.57997" lon="6.62236">
        <ele>281</ele>
        <time>2011-12-11T08:33:51Z</time>
      </trkpt>
      <trkpt lat="43.57994" lon="6.62236">
        <ele>281</ele>
        <time>2011-12-11T08:33:52Z</time>
      </trkpt>
      <trkpt lat="43.57991" lon="6.62236">
        <ele>281</ele>
        <time>2011-12-11T08:33:53Z</time>
      </trkpt>
      <trkpt lat="43.57988" lon="6.62237">
        <ele>281</ele>
        <time>2011-12-11T08:33:54Z</time>
      </trkpt>
      <trkpt lat="43.57985" lon="6.62238">
        <ele>282</ele>
        <time>2011-12-11T08:33:55Z</time>
      </trkpt>
      <trkpt lat="43.57983" lon="6.62238">
        <ele>282</ele>
        <time>2011-12-11T08:33:56Z</time>
      </trkpt>
      <trkpt lat="43.5798" lon="6.6224">
        <ele>282</ele>
        <time>2011-12-11T08:33:57Z</time>
      </trkpt>
      <trkpt lat="43.57977" lon="6.62241">
        <ele>282</ele>
        <time>2011-12-11T08:33:58Z</time>
      </trkpt>
      <trkpt lat="43.57974" lon="6.62243">
        <ele>282</ele>
        <time>2011-12-11T08:33:59Z</time>
      </trkpt>
      <trkpt lat="43.57971" lon="6.62244">
        <ele>282</ele>
        <time>2011-12-11T08:34:00Z</time>
      </trkpt>
      <trkpt lat="43.57968" lon="6.62246">
        <ele>282</ele>
        <time>2011-12-11T08:34:01Z</time>
      </trkpt>
      <trkpt lat="43.57965" lon="6.62247">
        <ele>282</ele>
        <time>2011-12-11T08:34:02Z</time>
      </trkpt>
      <trkpt lat="43.57962" lon="6.62248">
        <ele>282</ele>
        <time>2011-12-11T08:34:03Z</time>
      </trkpt>
      <trkpt lat="43.5796" lon="6.62249">
        <ele>282</ele>
        <time>2011-12-11T08:34:04Z</time>
      </trkpt>
      <trkpt lat="43.57957" lon="6.62251">
        <ele>282</ele>
        <time>2011-12-11T08:34:05Z</time>
      </trkpt>
      <trkpt lat="43.57954" lon="6.62252">
        <ele>282</ele>
        <time>2011-12-11T08:34:06Z</time>
      </trkpt>
      <trkpt lat="43.57952" lon="6.62254">
        <ele>283</ele>
        <time>2011-12-11T08:34:07Z</time>
      </trkpt>
      <trkpt lat="43.57949" lon="6.62255">
        <ele>283</ele>
        <time>2011-12-11T08:34:08Z</time>
      </trkpt>
      <trkpt lat="43.57946" lon="6.62256">
        <ele>283</ele>
        <time>2011-12-11T08:34:09Z</time>
      </trkpt>
      <trkpt lat="43.57943" lon="6.62257">
        <ele>283</ele>
        <time>2011-12-11T08:34:10Z</time>
      </trkpt>
      <trkpt lat="43.57939" lon="6.62258">
        <ele>283</ele>
        <time>2011-12-11T08:34:11Z</time>
      </trkpt>
      <trkpt lat="43.57936" lon="6.62259">
        <ele>283</ele>
        <time>2011-12-11T08:34:12Z</time>
      </trkpt>
      <trkpt lat="43.57932" lon="6.6226">
        <ele>283</ele>
        <time>2011-12-11T08:34:13Z</time>
      </trkpt>
      <trkpt lat="43.57929" lon="6.6226">
        <ele>284</ele>
        <time>2011-12-11T08:34:14Z</time>
      </trkpt>
      <trkpt lat="43.57925" lon="6.62259">
        <ele>284</ele>
        <time>2011-12-11T08:34:15Z</time>
      </trkpt>
      <trkpt lat="43.57922" lon="6.62258">
        <ele>284</ele>
        <time>2011-12-11T08:34:16Z</time>
      </trkpt>
      <trkpt lat="43.57918" lon="6.62258">
        <ele>284</ele>
        <time>2011-12-11T08:34:17Z</time>
      </trkpt>
      <trkpt lat="43.57915" lon="6.62258">
        <ele>285</ele>
        <time>2011-12-11T08:34:18Z</time>
      </trkpt>
      <trkpt lat="43.57911" lon="6.62257">
        <ele>285</ele>
        <time>2011-12-11T08:34:19Z</time>
      </trkpt>
      <trkpt lat="43.57907" lon="6.62257">
        <ele>286</ele>
        <time>2011-12-11T08:34:20Z</time>
      </trkpt>
      <trkpt lat="43.57904" lon="6.62257">
        <ele>286</ele>
        <time>2011-12-11T08:34:21Z</time>
      </trkpt>
      <trkpt lat="43.579" lon="6.62257">
        <ele>286</ele>
        <time>2011-12-11T08:34:22Z</time>
      </trkpt>
      <trkpt lat="43.57897" lon="6.62257">
        <ele>287</ele>
        <time>2011-12-11T08:34:23Z</time>
      </trkpt>
      <trkpt lat="43.57893" lon="6.62258">
        <ele>287</ele>
        <time>2011-12-11T08:34:24Z</time>
      </trkpt>
      <trkpt lat="43.5789" lon="6.62258">
        <ele>288</ele>
        <time>2011-12-11T08:34:25Z</time>
      </trkpt>
      <trkpt lat="43.57887" lon="6.62258">
        <ele>288</ele>
        <time>2011-12-11T08:34:26Z</time>
      </trkpt>
      <trkpt lat="43.57884" lon="6.62258">
        <ele>288</ele>
        <time>2011-12-11T08:34:27Z</time>
      </trkpt>
      <trkpt lat="43.57881" lon="6.62259">
        <ele>288</ele>
        <time>2011-12-11T08:34:28Z</time>
      </trkpt>
      <trkpt lat="43.57878" lon="6.62259">
        <ele>289</ele>
        <time>2011-12-11T08:34:29Z</time>
      </trkpt>
      <trkpt lat="43.57875" lon="6.62258">
        <ele>289</ele>
        <time>2011-12-11T08:34:30Z</time>
      </trkpt>
      <trkpt lat="43.57873" lon="6.62258">
        <ele>289</ele>
        <time>2011-12-11T08:34:31Z</time>
      </trkpt>
      <trkpt lat="43.5787" lon="6.62258">
        <ele>289</ele>
        <time>2011-12-11T08:34:32Z</time>
      </trkpt>
      <trkpt lat="43.57868" lon="6.62258">
        <ele>290</ele>
        <time>2011-12-11T08:34:33Z</time>
      </trkpt>
      <trkpt lat="43.57865" lon="6.62258">
        <ele>290</ele>
        <time>2011-12-11T08:34:34Z</time>
      </trkpt>
      <trkpt lat="43.57863" lon="6.62259">
        <ele>290</ele>
        <time>2011-12-11T08:34:35Z</time>
      </trkpt>
      <trkpt lat="43.5786" lon="6.62259">
        <ele>291</ele>
        <time>2011-12-11T08:34:36Z</time>
      </trkpt>
      <trkpt lat="43.57856" lon="6.6226">
        <ele>291</ele>
        <time>2011-12-11T08:34:37Z</time>
      </trkpt>
      <trkpt lat="43.57854" lon="6.62262">
        <ele>291</ele>
        <time>2011-12-11T08:34:38Z</time>
      </trkpt>
      <trkpt lat="43.57851" lon="6.62263">
        <ele>292</ele>
        <time>2011-12-11T08:34:39Z</time>
      </trkpt>
      <trkpt lat="43.57849" lon="6.62265">
        <ele>292</ele>
        <time>2011-12-11T08:34:40Z</time>
      </trkpt>
      <trkpt lat="43.57847" lon="6.62267">
        <ele>292</ele>
        <time>2011-12-11T08:34:41Z</time>
      </trkpt>
      <trkpt lat="43.57845" lon="6.6227">
        <ele>292</ele>
        <time>2011-12-11T08:34:42Z</time>
      </trkpt>
      <trkpt lat="43.57843" lon="6.62273">
        <ele>292</ele>
        <time>2011-12-11T08:34:43Z</time>
      </trkpt>
      <trkpt lat="43.57841" lon="6.62276">
        <ele>292</ele>
        <time>2011-12-11T08:34:44Z</time>
      </trkpt>
      <trkpt lat="43.57838" lon="6.62279">
        <ele>293</ele>
        <time>2011-12-11T08:34:45Z</time>
      </trkpt>
      <trkpt lat="43.57836" lon="6.62282">
        <ele>293</ele>
        <time>2011-12-11T08:34:46Z</time>
      </trkpt>
      <trkpt lat="43.57833" lon="6.62286">
        <ele>293</ele>
        <time>2011-12-11T08:34:47Z</time>
      </trkpt>
      <trkpt lat="43.57831" lon="6.62289">
        <ele>293</ele>
        <time>2011-12-11T08:34:48Z</time>
      </trkpt>
      <trkpt lat="43.57828" lon="6.62292">
        <ele>293</ele>
        <time>2011-12-11T08:34:49Z</time>
      </trkpt>
      <trkpt lat="43.57826" lon="6.62295">
        <ele>294</ele>
        <time>2011-12-11T08:34:50Z</time>
      </trkpt>
      <trkpt lat="43.57823" lon="6.62298">
        <ele>294</ele>
        <time>2011-12-11T08:34:51Z</time>
      </trkpt>
      <trkpt lat="43.57821" lon="6.62302">
        <ele>294</ele>
        <time>2011-12-11T08:34:52Z</time>
      </trkpt>
      <trkpt lat="43.57819" lon="6.62305">
        <ele>295</ele>
        <time>2011-12-11T08:34:53Z</time>
      </trkpt>
      <trkpt lat="43.57817" lon="6.62308">
        <ele>295</ele>
        <time>2011-12-11T08:34:54Z</time>
      </trkpt>
      <trkpt lat="43.57815" lon="6.62312">
        <ele>295</ele>
        <time>2011-12-11T08:34:55Z</time>
      </trkpt>
      <trkpt lat="43.57814" lon="6.62315">
        <ele>295</ele>
        <time>2011-12-11T08:34:56Z</time>
      </trkpt>
      <trkpt lat="43.57812" lon="6.62318">
        <ele>296</ele>
        <time>2011-12-11T08:34:57Z</time>
      </trkpt>
      <trkpt lat="43.57811" lon="6.62322">
        <ele>296</ele>
        <time>2011-12-11T08:34:58Z</time>
      </trkpt>
      <trkpt lat="43.5781" lon="6.62326">
        <ele>296</ele>
        <time>2011-12-11T08:34:59Z</time>
      </trkpt>
      <trkpt lat="43.57809" lon="6.62331">
        <ele>296</ele>
        <time>2011-12-11T08:35:00Z</time>
      </trkpt>
      <trkpt lat="43.57807" lon="6.62335">
        <ele>296</ele>
        <time>2011-12-11T08:35:01Z</time>
      </trkpt>
      <trkpt lat="43.57807" lon="6.6234">
        <ele>296</ele>
        <time>2011-12-11T08:35:02Z</time>
      </trkpt>
      <trkpt lat="43.57806" lon="6.62344">
        <ele>296</ele>
        <time>2011-12-11T08:35:03Z</time>
      </trkpt>
      <trkpt lat="43.57805" lon="6.62349">
        <ele>297</ele>
        <time>2011-12-11T08:35:04Z</time>
      </trkpt>
      <trkpt lat="43.57804" lon="6.62353">
        <ele>297</ele>
        <time>2011-12-11T08:35:05Z</time>
      </trkpt>
      <trkpt lat="43.57802" lon="6.62357">
        <ele>297</ele>
        <time>2011-12-11T08:35:06Z</time>
      </trkpt>
      <trkpt lat="43.57801" lon="6.62361">
        <ele>297</ele>
        <time>2011-12-11T08:35:07Z</time>
      </trkpt>
      <trkpt lat="43.578" lon="6.62366">
        <ele>297</ele>
        <time>2011-12-11T08:35:08Z</time>
      </trkpt>
      <trkpt lat="43.57798" lon="6.6237">
        <ele>297</ele>
        <time>2011-12-11T08:35:09Z</time>
      </trkpt>
      <trkpt lat="43.57796" lon="6.62373">
        <ele>298</ele>
        <time>2011-12-11T08:35:10Z</time>
      </trkpt>
      <trkpt lat="43.57794" lon="6.62377">
        <ele>297</ele>
        <time>2011-12-11T08:35:11Z</time>
      </trkpt>
      <trkpt lat="43.57793" lon="6.62381">
        <ele>297</ele>
        <time>2011-12-11T08:35:12Z</time>
      </trkpt>
      <trkpt lat="43.5779" lon="6.62384">
        <ele>298</ele>
        <time>2011-12-11T08:35:13Z</time>
      </trkpt>
      <trkpt lat="43.57789" lon="6.62388">
        <ele>298</ele>
        <time>2011-12-11T08:35:14Z</time>
      </trkpt>
      <trkpt lat="43.57786" lon="6.62391">
        <ele>298</ele>
        <time>2011-12-11T08:35:15Z</time>
      </trkpt>
      <trkpt lat="43.57784" lon="6.62394">
        <ele>298</ele>
        <time>2011-12-11T08:35:16Z</time>
      </trkpt>
      <trkpt lat="43.57782" lon="6.62397">
        <ele>298</ele>
        <time>2011-12-11T08:35:17Z</time>
      </trkpt>
      <trkpt lat="43.5778" lon="6.624">
        <ele>298</ele>
        <time>2011-12-11T08:35:18Z</time>
      </trkpt>
      <trkpt lat="43.57778" lon="6.62404">
        <ele>298</ele>
        <time>2011-12-11T08:35:19Z</time>
      </trkpt>
      <trkpt lat="43.57776" lon="6.62408">
        <ele>297</ele>
        <time>2011-12-11T08:35:20Z</time>
      </trkpt>
      <trkpt lat="43.57774" lon="6.62412">
        <ele>297</ele>
        <time>2011-12-11T08:35:21Z</time>
      </trkpt>
      <trkpt lat="43.57772" lon="6.62416">
        <ele>297</ele>
        <time>2011-12-11T08:35:22Z</time>
      </trkpt>
      <trkpt lat="43.57769" lon="6.6242">
        <ele>297</ele>
        <time>2011-12-11T08:35:23Z</time>
      </trkpt>
      <trkpt lat="43.57766" lon="6.62424">
        <ele>297</ele>
        <time>2011-12-11T08:35:24Z</time>
      </trkpt>
      <trkpt lat="43.57764" lon="6.62428">
        <ele>297</ele>
        <time>2011-12-11T08:35:25Z</time>
      </trkpt>
      <trkpt lat="43.57761" lon="6.62432">
        <ele>297</ele>
        <time>2011-12-11T08:35:26Z</time>
      </trkpt>
      <trkpt lat="43.57758" lon="6.62437">
        <ele>296</ele>
        <time>2011-12-11T08:35:27Z</time>
      </trkpt>
      <trkpt lat="43.57754" lon="6.62442">
        <ele>296</ele>
        <time>2011-12-11T08:35:28Z</time>
      </trkpt>
      <trkpt lat="43.57751" lon="6.62446">
        <ele>295</ele>
        <time>2011-12-11T08:35:29Z</time>
      </trkpt>
      <trkpt lat="43.57701" lon="6.62487">
        <ele>291</ele>
        <time>2011-12-11T08:35:39Z</time>
      </trkpt>
      <trkpt lat="43.57644" lon="6.62499">
        <ele>285</ele>
        <time>2011-12-11T08:35:49Z</time>
      </trkpt>
      <trkpt lat="43.57584" lon="6.62481">
        <ele>282</ele>
        <time>2011-12-11T08:35:59Z</time>
      </trkpt>
      <trkpt lat="43.57546" lon="6.62473">
        <ele>283</ele>
        <time>2011-12-11T08:36:09Z</time>
      </trkpt>
      <trkpt lat="43.57543" lon="6.62473">
        <ele>283</ele>
        <time>2011-12-11T08:36:10Z</time>
      </trkpt>
      <trkpt lat="43.57538" lon="6.62473">
        <ele>283</ele>
        <time>2011-12-11T08:36:11Z</time>
      </trkpt>
      <trkpt lat="43.57533" lon="6.62473">
        <ele>283</ele>
        <time>2011-12-11T08:36:12Z</time>
      </trkpt>
      <trkpt lat="43.57528" lon="6.62473">
        <ele>283</ele>
        <time>2011-12-11T08:36:13Z</time>
      </trkpt>
      <trkpt lat="43.57524" lon="6.62474">
        <ele>283</ele>
        <time>2011-12-11T08:36:14Z</time>
      </trkpt>
      <trkpt lat="43.5752" lon="6.62475">
        <ele>283</ele>
        <time>2011-12-11T08:36:15Z</time>
      </trkpt>
      <trkpt lat="43.57515" lon="6.62476">
        <ele>283</ele>
        <time>2011-12-11T08:36:16Z</time>
      </trkpt>
      <trkpt lat="43.5751" lon="6.62477">
        <ele>283</ele>
        <time>2011-12-11T08:36:17Z</time>
      </trkpt>
      <trkpt lat="43.57504" lon="6.62479">
        <ele>283</ele>
        <time>2011-12-11T08:36:18Z</time>
      </trkpt>
      <trkpt lat="43.57499" lon="6.6248">
        <ele>283</ele>
        <time>2011-12-11T08:36:19Z</time>
      </trkpt>
      <trkpt lat="43.57493" lon="6.62482">
        <ele>283</ele>
        <time>2011-12-11T08:36:20Z</time>
      </trkpt>
      <trkpt lat="43.57488" lon="6.62484">
        <ele>282</ele>
        <time>2011-12-11T08:36:21Z</time>
      </trkpt>
      <trkpt lat="43.57483" lon="6.62486">
        <ele>282</ele>
        <time>2011-12-11T08:36:22Z</time>
      </trkpt>
      <trkpt lat="43.57478" lon="6.62488">
        <ele>282</ele>
        <time>2011-12-11T08:36:23Z</time>
      </trkpt>
      <trkpt lat="43.57474" lon="6.62489">
        <ele>281</ele>
        <time>2011-12-11T08:36:24Z</time>
      </trkpt>
      <trkpt lat="43.57469" lon="6.62491">
        <ele>281</ele>
        <time>2011-12-11T08:36:25Z</time>
      </trkpt>
      <trkpt lat="43.57466" lon="6.62493">
        <ele>281</ele>
        <time>2011-12-11T08:36:26Z</time>
      </trkpt>
      <trkpt lat="43.57462" lon="6.62496">
        <ele>281</ele>
        <time>2011-12-11T08:36:27Z</time>
      </trkpt>
      <trkpt lat="43.57459" lon="6.62498">
        <ele>281</ele>
        <time>2011-12-11T08:36:28Z</time>
      </trkpt>
      <trkpt lat="43.57455" lon="6.625">
        <ele>281</ele>
        <time>2011-12-11T08:36:29Z</time>
      </trkpt>
      <trkpt lat="43.57451" lon="6.62502">
        <ele>281</ele>
        <time>2011-12-11T08:36:30Z</time>
      </trkpt>
      <trkpt lat="43.57448" lon="6.62504">
        <ele>281</ele>
        <time>2011-12-11T08:36:31Z</time>
      </trkpt>
      <trkpt lat="43.57445" lon="6.62506">
        <ele>281</ele>
        <time>2011-12-11T08:36:32Z</time>
      </trkpt>
      <trkpt lat="43.57442" lon="6.62509">
        <ele>281</ele>
        <time>2011-12-11T08:36:33Z</time>
      </trkpt>
      <trkpt lat="43.57438" lon="6.6251">
        <ele>281</ele>
        <time>2011-12-11T08:36:34Z</time>
      </trkpt>
      <trkpt lat="43.57434" lon="6.62511">
        <ele>281</ele>
        <time>2011-12-11T08:36:35Z</time>
      </trkpt>
      <trkpt lat="43.57431" lon="6.62511">
        <ele>281</ele>
        <time>2011-12-11T08:36:36Z</time>
      </trkpt>
      <trkpt lat="43.57427" lon="6.62511">
        <ele>281</ele>
        <time>2011-12-11T08:36:37Z</time>
      </trkpt>
      <trkpt lat="43.57424" lon="6.62511">
        <ele>281</ele>
        <time>2011-12-11T08:36:38Z</time>
      </trkpt>
      <trkpt lat="43.5742" lon="6.6251">
        <ele>281</ele>
        <time>2011-12-11T08:36:39Z</time>
      </trkpt>
      <trkpt lat="43.57416" lon="6.62509">
        <ele>282</ele>
        <time>2011-12-11T08:36:40Z</time>
      </trkpt>
      <trkpt lat="43.57413" lon="6.62507">
        <ele>282</ele>
        <time>2011-12-11T08:36:41Z</time>
      </trkpt>
      <trkpt lat="43.5741" lon="6.62506">
        <ele>282</ele>
        <time>2011-12-11T08:36:42Z</time>
      </trkpt>
      <trkpt lat="43.57408" lon="6.62503">
        <ele>282</ele>
        <time>2011-12-11T08:36:43Z</time>
      </trkpt>
      <trkpt lat="43.57406" lon="6.625">
        <ele>282</ele>
        <time>2011-12-11T08:36:44Z</time>
      </trkpt>
      <trkpt lat="43.57404" lon="6.62497">
        <ele>282</ele>
        <time>2011-12-11T08:36:45Z</time>
      </trkpt>
      <trkpt lat="43.57401" lon="6.62493">
        <ele>283</ele>
        <time>2011-12-11T08:36:46Z</time>
      </trkpt>
      <trkpt lat="43.57399" lon="6.6249">
        <ele>283</ele>
        <time>2011-12-11T08:36:47Z</time>
      </trkpt>
      <trkpt lat="43.57397" lon="6.62487">
        <ele>283</ele>
        <time>2011-12-11T08:36:48Z</time>
      </trkpt>
      <trkpt lat="43.57393" lon="6.62483">
        <ele>283</ele>
        <time>2011-12-11T08:36:49Z</time>
      </trkpt>
      <trkpt lat="43.57391" lon="6.6248">
        <ele>283</ele>
        <time>2011-12-11T08:36:50Z</time>
      </trkpt>
      <trkpt lat="43.57389" lon="6.62478">
        <ele>283</ele>
        <time>2011-12-11T08:36:51Z</time>
      </trkpt>
      <trkpt lat="43.57386" lon="6.62476">
        <ele>283</ele>
        <time>2011-12-11T08:36:52Z</time>
      </trkpt>
      <trkpt lat="43.57384" lon="6.62473">
        <ele>283</ele>
        <time>2011-12-11T08:36:53Z</time>
      </trkpt>
      <trkpt lat="43.57381" lon="6.6247">
        <ele>284</ele>
        <time>2011-12-11T08:36:54Z</time>
      </trkpt>
      <trkpt lat="43.57379" lon="6.62467">
        <ele>284</ele>
        <time>2011-12-11T08:36:55Z</time>
      </trkpt>
      <trkpt lat="43.57377" lon="6.62464">
        <ele>284</ele>
        <time>2011-12-11T08:36:56Z</time>
      </trkpt>
      <trkpt lat="43.57375" lon="6.62461">
        <ele>284</ele>
        <time>2011-12-11T08:36:57Z</time>
      </trkpt>
      <trkpt lat="43.57373" lon="6.62458">
        <ele>284</ele>
        <time>2011-12-11T08:36:58Z</time>
      </trkpt>
      <trkpt lat="43.57371" lon="6.62455">
        <ele>284</ele>
        <time>2011-12-11T08:36:59Z</time>
      </trkpt>
      <trkpt lat="43.5737" lon="6.62452">
        <ele>284</ele>
        <time>2011-12-11T08:37:00Z</time>
      </trkpt>
      <trkpt lat="43.57368" lon="6.6245">
        <ele>285</ele>
        <time>2011-12-11T08:37:01Z</time>
      </trkpt>
      <trkpt lat="43.57367" lon="6.62447">
        <ele>285</ele>
        <time>2011-12-11T08:37:02Z</time>
      </trkpt>
      <trkpt lat="43.57365" lon="6.62443">
        <ele>285</ele>
        <time>2011-12-11T08:37:03Z</time>
      </trkpt>
      <trkpt lat="43.57364" lon="6.62441">
        <ele>285</ele>
        <time>2011-12-11T08:37:04Z</time>
      </trkpt>
      <trkpt lat="43.57362" lon="6.62438">
        <ele>285</ele>
        <time>2011-12-11T08:37:05Z</time>
      </trkpt>
      <trkpt lat="43.5736" lon="6.62436">
        <ele>285</ele>
        <time>2011-12-11T08:37:06Z</time>
      </trkpt>
      <trkpt lat="43.57358" lon="6.62434">
        <ele>285</ele>
        <time>2011-12-11T08:37:07Z</time>
      </trkpt>
      <trkpt lat="43.57356" lon="6.62431">
        <ele>285</ele>
        <time>2011-12-11T08:37:08Z</time>
      </trkpt>
      <trkpt lat="43.57353" lon="6.62429">
        <ele>285</ele>
        <time>2011-12-11T08:37:09Z</time>
      </trkpt>
      <trkpt lat="43.5735" lon="6.62428">
        <ele>285</ele>
        <time>2011-12-11T08:37:10Z</time>
      </trkpt>
      <trkpt lat="43.57348" lon="6.62428">
        <ele>285</ele>
        <time>2011-12-11T08:37:11Z</time>
      </trkpt>
      <trkpt lat="43.57346" lon="6.62428">
        <ele>285</ele>
        <time>2011-12-11T08:37:12Z</time>
      </trkpt>
      <trkpt lat="43.57344" lon="6.62429">
        <ele>285</ele>
        <time>2011-12-11T08:37:13Z</time>
      </trkpt>
      <trkpt lat="43.57342" lon="6.62432">
        <ele>285</ele>
        <time>2011-12-11T08:37:14Z</time>
      </trkpt>
      <trkpt lat="43.57341" lon="6.62434">
        <ele>285</ele>
        <time>2011-12-11T08:37:15Z</time>
      </trkpt>
      <trkpt lat="43.5734" lon="6.62437">
        <ele>286</ele>
        <time>2011-12-11T08:37:16Z</time>
      </trkpt>
      <trkpt lat="43.57338" lon="6.6244">
        <ele>286</ele>
        <time>2011-12-11T08:37:17Z</time>
      </trkpt>
      <trkpt lat="43.57336" lon="6.62442">
        <ele>286</ele>
        <time>2011-12-11T08:37:18Z</time>
      </trkpt>
      <trkpt lat="43.57335" lon="6.62445">
        <ele>286</ele>
        <time>2011-12-11T08:37:19Z</time>
      </trkpt>
      <trkpt lat="43.57332" lon="6.62448">
        <ele>286</ele>
        <time>2011-12-11T08:37:20Z</time>
      </trkpt>
      <trkpt lat="43.5733" lon="6.62451">
        <ele>286</ele>
        <time>2011-12-11T08:37:21Z</time>
      </trkpt>
      <trkpt lat="43.57329" lon="6.62455">
        <ele>286</ele>
        <time>2011-12-11T08:37:22Z</time>
      </trkpt>
      <trkpt lat="43.57327" lon="6.62458">
        <ele>286</ele>
        <time>2011-12-11T08:37:23Z</time>
      </trkpt>
      <trkpt lat="43.57325" lon="6.62461">
        <ele>287</ele>
        <time>2011-12-11T08:37:24Z</time>
      </trkpt>
      <trkpt lat="43.57323" lon="6.62464">
        <ele>287</ele>
        <time>2011-12-11T08:37:25Z</time>
      </trkpt>
      <trkpt lat="43.57321" lon="6.62468">
        <ele>287</ele>
        <time>2011-12-11T08:37:26Z</time>
      </trkpt>
      <trkpt lat="43.57319" lon="6.6247">
        <ele>287</ele>
        <time>2011-12-11T08:37:27Z</time>
      </trkpt>
      <trkpt lat="43.57318" lon="6.62473">
        <ele>287</ele>
        <time>2011-12-11T08:37:28Z</time>
      </trkpt>
      <trkpt lat="43.57314" lon="6.62476">
        <ele>287</ele>
        <time>2011-12-11T08:37:29Z</time>
      </trkpt>
      <trkpt lat="43.57312" lon="6.62478">
        <ele>287</ele>
        <time>2011-12-11T08:37:30Z</time>
      </trkpt>
      <trkpt lat="43.57309" lon="6.62481">
        <ele>288</ele>
        <time>2011-12-11T08:37:31Z</time>
      </trkpt>
      <trkpt lat="43.57306" lon="6.62482">
        <ele>288</ele>
        <time>2011-12-11T08:37:32Z</time>
      </trkpt>
      <trkpt lat="43.57303" lon="6.62484">
        <ele>288</ele>
        <time>2011-12-11T08:37:33Z</time>
      </trkpt>
      <trkpt lat="43.573" lon="6.62486">
        <ele>288</ele>
        <time>2011-12-11T08:37:34Z</time>
      </trkpt>
      <trkpt lat="43.57297" lon="6.62487">
        <ele>289</ele>
        <time>2011-12-11T08:37:35Z</time>
      </trkpt>
      <trkpt lat="43.57294" lon="6.62488">
        <ele>289</ele>
        <time>2011-12-11T08:37:36Z</time>
      </trkpt>
      <trkpt lat="43.57292" lon="6.62489">
        <ele>289</ele>
        <time>2011-12-11T08:37:37Z</time>
      </trkpt>
      <trkpt lat="43.57289" lon="6.62491">
        <ele>289</ele>
        <time>2011-12-11T08:37:38Z</time>
      </trkpt>
      <trkpt lat="43.57286" lon="6.62492">
        <ele>289</ele>
        <time>2011-12-11T08:37:39Z</time>
      </trkpt>
      <trkpt lat="43.57283" lon="6.62494">
        <ele>290</ele>
        <time>2011-12-11T08:37:40Z</time>
      </trkpt>
      <trkpt lat="43.57281" lon="6.62496">
        <ele>290</ele>
        <time>2011-12-11T08:37:41Z</time>
      </trkpt>
      <trkpt lat="43.57279" lon="6.62498">
        <ele>290</ele>
        <time>2011-12-11T08:37:42Z</time>
      </trkpt>
      <trkpt lat="43.57276" lon="6.62501">
        <ele>290</ele>
        <time>2011-12-11T08:37:43Z</time>
      </trkpt>
      <trkpt lat="43.57275" lon="6.62504">
        <ele>290</ele>
        <time>2011-12-11T08:37:44Z</time>
      </trkpt>
      <trkpt lat="43.57272" lon="6.62507">
        <ele>289</ele>
        <time>2011-12-11T08:37:45Z</time>
      </trkpt>
      <trkpt lat="43.57272" lon="6.62511">
        <ele>289</ele>
        <time>2011-12-11T08:37:46Z</time>
      </trkpt>
      <trkpt lat="43.5727" lon="6.62514">
        <ele>289</ele>
        <time>2011-12-11T08:37:47Z</time>
      </trkpt>
      <trkpt lat="43.57268" lon="6.62517">
        <ele>289</ele>
        <time>2011-12-11T08:37:48Z</time>
      </trkpt>
      <trkpt lat="43.57267" lon="6.62521">
        <ele>289</ele>
        <time>2011-12-11T08:37:49Z</time>
      </trkpt>
      <trkpt lat="43.57265" lon="6.62524">
        <ele>289</ele>
        <time>2011-12-11T08:37:50Z</time>
      </trkpt>
      <trkpt lat="43.57264" lon="6.62527">
        <ele>290</ele>
        <time>2011-12-11T08:37:51Z</time>
      </trkpt>
      <trkpt lat="43.57263" lon="6.62531">
        <ele>290</ele>
        <time>2011-12-11T08:37:52Z</time>
      </trkpt>
      <trkpt lat="43.57262" lon="6.62534">
        <ele>290</ele>
        <time>2011-12-11T08:37:53Z</time>
      </trkpt>
      <trkpt lat="43.57261" lon="6.62537">
        <ele>290</ele>
        <time>2011-12-11T08:37:54Z</time>
      </trkpt>
      <trkpt lat="43.5726" lon="6.6254">
        <ele>290</ele>
        <time>2011-12-11T08:37:55Z</time>
      </trkpt>
      <trkpt lat="43.57258" lon="6.62543">
        <ele>290</ele>
        <time>2011-12-11T08:37:56Z</time>
      </trkpt>
      <trkpt lat="43.57257" lon="6.62546">
        <ele>290</ele>
        <time>2011-12-11T08:37:57Z</time>
      </trkpt>
      <trkpt lat="43.57255" lon="6.62548">
        <ele>290</ele>
        <time>2011-12-11T08:37:58Z</time>
      </trkpt>
      <trkpt lat="43.57253" lon="6.62551">
        <ele>291</ele>
        <time>2011-12-11T08:37:59Z</time>
      </trkpt>
      <trkpt lat="43.57251" lon="6.62554">
        <ele>290</ele>
        <time>2011-12-11T08:38:00Z</time>
      </trkpt>
      <trkpt lat="43.57249" lon="6.62556">
        <ele>290</ele>
        <time>2011-12-11T08:38:01Z</time>
      </trkpt>
      <trkpt lat="43.57247" lon="6.62559">
        <ele>290</ele>
        <time>2011-12-11T08:38:02Z</time>
      </trkpt>
      <trkpt lat="43.57245" lon="6.62562">
        <ele>290</ele>
        <time>2011-12-11T08:38:03Z</time>
      </trkpt>
      <trkpt lat="43.57243" lon="6.62565">
        <ele>290</ele>
        <time>2011-12-11T08:38:04Z</time>
      </trkpt>
      <trkpt lat="43.57241" lon="6.62568">
        <ele>289</ele>
        <time>2011-12-11T08:38:05Z</time>
      </trkpt>
      <trkpt lat="43.57238" lon="6.62571">
        <ele>289</ele>
        <time>2011-12-11T08:38:06Z</time>
      </trkpt>
      <trkpt lat="43.57236" lon="6.62574">
        <ele>289</ele>
        <time>2011-12-11T08:38:07Z</time>
      </trkpt>
      <trkpt lat="43.57233" lon="6.62578">
        <ele>289</ele>
        <time>2011-12-11T08:38:08Z</time>
      </trkpt>
      <trkpt lat="43.5723" lon="6.62581">
        <ele>288</ele>
        <time>2011-12-11T08:38:09Z</time>
      </trkpt>
      <trkpt lat="43.57227" lon="6.62585">
        <ele>288</ele>
        <time>2011-12-11T08:38:10Z</time>
      </trkpt>
      <trkpt lat="43.57224" lon="6.62588">
        <ele>287</ele>
        <time>2011-12-11T08:38:11Z</time>
      </trkpt>
      <trkpt lat="43.57221" lon="6.62592">
        <ele>287</ele>
        <time>2011-12-11T08:38:12Z</time>
      </trkpt>
      <trkpt lat="43.57217" lon="6.62596">
        <ele>286</ele>
        <time>2011-12-11T08:38:13Z</time>
      </trkpt>
      <trkpt lat="43.57214" lon="6.62601">
        <ele>286</ele>
        <time>2011-12-11T08:38:14Z</time>
      </trkpt>
      <trkpt lat="43.57209" lon="6.62605">
        <ele>286</ele>
        <time>2011-12-11T08:38:15Z</time>
      </trkpt>
      <trkpt lat="43.57204" lon="6.6261">
        <ele>286</ele>
        <time>2011-12-11T08:38:16Z</time>
      </trkpt>
      <trkpt lat="43.57155" lon="6.62646">
        <ele>286</ele>
        <time>2011-12-11T08:38:26Z</time>
      </trkpt>
      <trkpt lat="43.57151" lon="6.62645">
        <ele>286</ele>
        <time>2011-12-11T08:38:27Z</time>
      </trkpt>
      <trkpt lat="43.57149" lon="6.62642">
        <ele>286</ele>
        <time>2011-12-11T08:38:28Z</time>
      </trkpt>
      <trkpt lat="43.57147" lon="6.62637">
        <ele>286</ele>
        <time>2011-12-11T08:38:29Z</time>
      </trkpt>
      <trkpt lat="43.57147" lon="6.62631">
        <ele>286</ele>
        <time>2011-12-11T08:38:30Z</time>
      </trkpt>
      <trkpt lat="43.57149" lon="6.62625">
        <ele>285</ele>
        <time>2011-12-11T08:38:31Z</time>
      </trkpt>
      <trkpt lat="43.57151" lon="6.62619">
        <ele>285</ele>
        <time>2011-12-11T08:38:32Z</time>
      </trkpt>
      <trkpt lat="43.57154" lon="6.62613">
        <ele>284</ele>
        <time>2011-12-11T08:38:33Z</time>
      </trkpt>
      <trkpt lat="43.57155" lon="6.62607">
        <ele>283</ele>
        <time>2011-12-11T08:38:34Z</time>
      </trkpt>
      <trkpt lat="43.57153" lon="6.62511">
        <ele>274</ele>
        <time>2011-12-11T08:38:44Z</time>
      </trkpt>
      <trkpt lat="43.57094" lon="6.62449">
        <ele>272</ele>
        <time>2011-12-11T08:38:54Z</time>
      </trkpt>
      <trkpt lat="43.57053" lon="6.6245">
        <ele>268</ele>
        <time>2011-12-11T08:39:04Z</time>
      </trkpt>
      <trkpt lat="43.57" lon="6.62426">
        <ele>263</ele>
        <time>2011-12-11T08:39:14Z</time>
      </trkpt>
      <trkpt lat="43.56996" lon="6.62428">
        <ele>263</ele>
        <time>2011-12-11T08:39:15Z</time>
      </trkpt>
      <trkpt lat="43.5699" lon="6.6243">
        <ele>262</ele>
        <time>2011-12-11T08:39:16Z</time>
      </trkpt>
      <trkpt lat="43.56934" lon="6.62441">
        <ele>257</ele>
        <time>2011-12-11T08:39:26Z</time>
      </trkpt>
      <trkpt lat="43.56864" lon="6.62421">
        <ele>249</ele>
        <time>2011-12-11T08:39:36Z</time>
      </trkpt>
      <trkpt lat="43.56799" lon="6.62381">
        <ele>244</ele>
        <time>2011-12-11T08:39:46Z</time>
      </trkpt>
      <trkpt lat="43.56722" lon="6.62411">
        <ele>244</ele>
        <time>2011-12-11T08:39:56Z</time>
      </trkpt>
      <trkpt lat="43.56662" lon="6.62399">
        <ele>245</ele>
        <time>2011-12-11T08:40:06Z</time>
      </trkpt>
      <trkpt lat="43.56661" lon="6.62395">
        <ele>243</ele>
        <time>2011-12-11T08:40:07Z</time>
      </trkpt>
      <trkpt lat="43.56661" lon="6.6239">
        <ele>242</ele>
        <time>2011-12-11T08:40:08Z</time>
      </trkpt>
      <trkpt lat="43.5666" lon="6.62383">
        <ele>241</ele>
        <time>2011-12-11T08:40:09Z</time>
      </trkpt>
      <trkpt lat="43.56679" lon="6.62305">
        <ele>239</ele>
        <time>2011-12-11T08:40:19Z</time>
      </trkpt>
      <trkpt lat="43.56702" lon="6.62234">
        <ele>239</ele>
        <time>2011-12-11T08:40:29Z</time>
      </trkpt>
      <trkpt lat="43.56701" lon="6.62228">
        <ele>238</ele>
        <time>2011-12-11T08:40:30Z</time>
      </trkpt>
      <trkpt lat="43.56697" lon="6.62224">
        <ele>238</ele>
        <time>2011-12-11T08:40:31Z</time>
      </trkpt>
      <trkpt lat="43.56638" lon="6.62224">
        <ele>236</ele>
        <time>2011-12-11T08:40:41Z</time>
      </trkpt>
      <trkpt lat="43.56568" lon="6.62229">
        <ele>234</ele>
        <time>2011-12-11T08:40:51Z</time>
      </trkpt>
      <trkpt lat="43.56505" lon="6.62276">
        <ele>233</ele>
        <time>2011-12-11T08:41:01Z</time>
      </trkpt>
      <trkpt lat="43.56503" lon="6.62277">
        <ele>232</ele>
        <time>2011-12-11T08:41:02Z</time>
      </trkpt>
      <trkpt lat="43.56499" lon="6.62278">
        <ele>232</ele>
        <time>2011-12-11T08:41:03Z</time>
      </trkpt>
      <trkpt lat="43.56496" lon="6.62278">
        <ele>232</ele>
        <time>2011-12-11T08:41:04Z</time>
      </trkpt>
      <trkpt lat="43.56493" lon="6.62278">
        <ele>231</ele>
        <time>2011-12-11T08:41:05Z</time>
      </trkpt>
      <trkpt lat="43.5649" lon="6.62278">
        <ele>231</ele>
        <time>2011-12-11T08:41:06Z</time>
      </trkpt>
      <trkpt lat="43.56489" lon="6.62277">
        <ele>230</ele>
        <time>2011-12-11T08:41:07Z</time>
      </trkpt>
      <trkpt lat="43.56486" lon="6.62276">
        <ele>230</ele>
        <time>2011-12-11T08:41:08Z</time>
      </trkpt>
      <trkpt lat="43.56483" lon="6.62273">
        <ele>230</ele>
        <time>2011-12-11T08:41:09Z</time>
      </trkpt>
      <trkpt lat="43.56482" lon="6.62271">
        <ele>228</ele>
        <time>2011-12-11T08:41:10Z</time>
      </trkpt>
      <trkpt lat="43.56478" lon="6.6227">
        <ele>227</ele>
        <time>2011-12-11T08:41:11Z</time>
      </trkpt>
      <trkpt lat="43.56426" lon="6.62262">
        <ele>218</ele>
        <time>2011-12-11T08:41:21Z</time>
      </trkpt>
      <trkpt lat="43.56374" lon="6.62256">
        <ele>215</ele>
        <time>2011-12-11T08:41:31Z</time>
      </trkpt>
      <trkpt lat="43.5637" lon="6.62255">
        <ele>215</ele>
        <time>2011-12-11T08:41:32Z</time>
      </trkpt>
      <trkpt lat="43.56366" lon="6.62252">
        <ele>214</ele>
        <time>2011-12-11T08:41:33Z</time>
      </trkpt>
      <trkpt lat="43.56361" lon="6.6225">
        <ele>215</ele>
        <time>2011-12-11T08:41:34Z</time>
      </trkpt>
      <trkpt lat="43.5636" lon="6.62248">
        <ele>214</ele>
        <time>2011-12-11T08:41:35Z</time>
      </trkpt>
      <trkpt lat="43.56356" lon="6.62246">
        <ele>214</ele>
        <time>2011-12-11T08:41:36Z</time>
      </trkpt>
      <trkpt lat="43.56351" lon="6.62243">
        <ele>214</ele>
        <time>2011-12-11T08:41:37Z</time>
      </trkpt>
      <trkpt lat="43.56345" lon="6.62239">
        <ele>214</ele>
        <time>2011-12-11T08:41:38Z</time>
      </trkpt>
      <trkpt lat="43.56341" lon="6.62235">
        <ele>214</ele>
        <time>2011-12-11T08:41:39Z</time>
      </trkpt>
      <trkpt lat="43.56336" lon="6.6223">
        <ele>214</ele>
        <time>2011-12-11T08:41:40Z</time>
      </trkpt>
      <trkpt lat="43.56295" lon="6.62164">
        <ele>211</ele>
        <time>2011-12-11T08:41:50Z</time>
      </trkpt>
      <trkpt lat="43.56268" lon="6.62073">
        <ele>204</ele>
        <time>2011-12-11T08:42:00Z</time>
      </trkpt>
      <trkpt lat="43.56216" lon="6.62031">
        <ele>192</ele>
        <time>2011-12-11T08:42:10Z</time>
      </trkpt>
      <trkpt lat="43.56211" lon="6.62031">
        <ele>191</ele>
        <time>2011-12-11T08:42:11Z</time>
      </trkpt>
      <trkpt lat="43.56205" lon="6.62031">
        <ele>191</ele>
        <time>2011-12-11T08:42:12Z</time>
      </trkpt>
      <trkpt lat="43.56157" lon="6.62017">
        <ele>187</ele>
        <time>2011-12-11T08:42:22Z</time>
      </trkpt>
      <trkpt lat="43.56108" lon="6.6199">
        <ele>185</ele>
        <time>2011-12-11T08:42:32Z</time>
      </trkpt>
      <trkpt lat="43.56105" lon="6.61989">
        <ele>185</ele>
        <time>2011-12-11T08:42:33Z</time>
      </trkpt>
      <trkpt lat="43.56101" lon="6.61989">
        <ele>185</ele>
        <time>2011-12-11T08:42:34Z</time>
      </trkpt>
      <trkpt lat="43.56097" lon="6.6199">
        <ele>185</ele>
        <time>2011-12-11T08:42:35Z</time>
      </trkpt>
      <trkpt lat="43.56093" lon="6.6199">
        <ele>185</ele>
        <time>2011-12-11T08:42:36Z</time>
      </trkpt>
      <trkpt lat="43.56089" lon="6.61991">
        <ele>185</ele>
        <time>2011-12-11T08:42:37Z</time>
      </trkpt>
      <trkpt lat="43.56086" lon="6.61992">
        <ele>185</ele>
        <time>2011-12-11T08:42:38Z</time>
      </trkpt>
      <trkpt lat="43.56083" lon="6.61992">
        <ele>185</ele>
        <time>2011-12-11T08:42:39Z</time>
      </trkpt>
      <trkpt lat="43.56081" lon="6.61991">
        <ele>185</ele>
        <time>2011-12-11T08:42:40Z</time>
      </trkpt>
      <trkpt lat="43.56078" lon="6.6199">
        <ele>185</ele>
        <time>2011-12-11T08:42:41Z</time>
      </trkpt>
      <trkpt lat="43.56075" lon="6.6199">
        <ele>185</ele>
        <time>2011-12-11T08:42:42Z</time>
      </trkpt>
      <trkpt lat="43.56071" lon="6.6199">
        <ele>185</ele>
        <time>2011-12-11T08:42:43Z</time>
      </trkpt>
      <trkpt lat="43.56068" lon="6.61993">
        <ele>183</ele>
        <time>2011-12-11T08:42:44Z</time>
      </trkpt>
      <trkpt lat="43.56059" lon="6.61993">
        <ele>183</ele>
        <time>2011-12-11T08:42:45Z</time>
      </trkpt>
      <trkpt lat="43.56055" lon="6.61993">
        <ele>182</ele>
        <time>2011-12-11T08:42:46Z</time>
      </trkpt>
      <trkpt lat="43.56052" lon="6.61995">
        <ele>182</ele>
        <time>2011-12-11T08:42:47Z</time>
      </trkpt>
      <trkpt lat="43.56047" lon="6.61997">
        <ele>182</ele>
        <time>2011-12-11T08:42:48Z</time>
      </trkpt>
      <trkpt lat="43.56043" lon="6.61999">
        <ele>182</ele>
        <time>2011-12-11T08:42:49Z</time>
      </trkpt>
      <trkpt lat="43.56039" lon="6.62002">
        <ele>182</ele>
        <time>2011-12-11T08:42:50Z</time>
      </trkpt>
      <trkpt lat="43.56034" lon="6.62005">
        <ele>182</ele>
        <time>2011-12-11T08:42:51Z</time>
      </trkpt>
      <trkpt lat="43.56029" lon="6.62008">
        <ele>182</ele>
        <time>2011-12-11T08:42:52Z</time>
      </trkpt>
      <trkpt lat="43.56024" lon="6.6201">
        <ele>182</ele>
        <time>2011-12-11T08:42:53Z</time>
      </trkpt>
      <trkpt lat="43.56019" lon="6.62013">
        <ele>182</ele>
        <time>2011-12-11T08:42:54Z</time>
      </trkpt>
      <trkpt lat="43.56015" lon="6.62015">
        <ele>182</ele>
        <time>2011-12-11T08:42:55Z</time>
      </trkpt>
      <trkpt lat="43.5601" lon="6.62017">
        <ele>182</ele>
        <time>2011-12-11T08:42:56Z</time>
      </trkpt>
      <trkpt lat="43.56006" lon="6.62019">
        <ele>182</ele>
        <time>2011-12-11T08:42:57Z</time>
      </trkpt>
      <trkpt lat="43.56002" lon="6.62022">
        <ele>181</ele>
        <time>2011-12-11T08:42:58Z</time>
      </trkpt>
      <trkpt lat="43.55999" lon="6.62024">
        <ele>181</ele>
        <time>2011-12-11T08:42:59Z</time>
      </trkpt>
      <trkpt lat="43.55995" lon="6.62026">
        <ele>181</ele>
        <time>2011-12-11T08:43:00Z</time>
      </trkpt>
      <trkpt lat="43.55991" lon="6.62028">
        <ele>181</ele>
        <time>2011-12-11T08:43:01Z</time>
      </trkpt>
      <trkpt lat="43.55987" lon="6.6203">
        <ele>181</ele>
        <time>2011-12-11T08:43:02Z</time>
      </trkpt>
      <trkpt lat="43.55982" lon="6.62031">
        <ele>181</ele>
        <time>2011-12-11T08:43:03Z</time>
      </trkpt>
      <trkpt lat="43.55977" lon="6.62032">
        <ele>181</ele>
        <time>2011-12-11T08:43:04Z</time>
      </trkpt>
      <trkpt lat="43.55972" lon="6.62033">
        <ele>181</ele>
        <time>2011-12-11T08:43:05Z</time>
      </trkpt>
      <trkpt lat="43.55967" lon="6.62034">
        <ele>181</ele>
        <time>2011-12-11T08:43:06Z</time>
      </trkpt>
      <trkpt lat="43.55962" lon="6.62035">
        <ele>181</ele>
        <time>2011-12-11T08:43:07Z</time>
      </trkpt>
      <trkpt lat="43.55958" lon="6.62036">
        <ele>181</ele>
        <time>2011-12-11T08:43:08Z</time>
      </trkpt>
      <trkpt lat="43.55954" lon="6.62036">
        <ele>181</ele>
        <time>2011-12-11T08:43:09Z</time>
      </trkpt>
      <trkpt lat="43.5595" lon="6.62037">
        <ele>180</ele>
        <time>2011-12-11T08:43:10Z</time>
      </trkpt>
      <trkpt lat="43.55947" lon="6.62037">
        <ele>180</ele>
        <time>2011-12-11T08:43:11Z</time>
      </trkpt>
      <trkpt lat="43.55945" lon="6.62037">
        <ele>180</ele>
        <time>2011-12-11T08:43:12Z</time>
      </trkpt>
      <trkpt lat="43.55942" lon="6.62036">
        <ele>180</ele>
        <time>2011-12-11T08:43:13Z</time>
      </trkpt>
      <trkpt lat="43.5594" lon="6.62034">
        <ele>180</ele>
        <time>2011-12-11T08:43:14Z</time>
      </trkpt>
      <trkpt lat="43.55938" lon="6.6203">
        <ele>179</ele>
        <time>2011-12-11T08:43:15Z</time>
      </trkpt>
      <trkpt lat="43.55938" lon="6.62026">
        <ele>179</ele>
        <time>2011-12-11T08:43:16Z</time>
      </trkpt>
      <trkpt lat="43.55938" lon="6.62021">
        <ele>179</ele>
        <time>2011-12-11T08:43:17Z</time>
      </trkpt>
      <trkpt lat="43.5594" lon="6.62017">
        <ele>179</ele>
        <time>2011-12-11T08:43:18Z</time>
      </trkpt>
      <trkpt lat="43.55943" lon="6.62015">
        <ele>179</ele>
        <time>2011-12-11T08:43:19Z</time>
      </trkpt>
      <trkpt lat="43.55945" lon="6.62013">
        <ele>179</ele>
        <time>2011-12-11T08:43:20Z</time>
      </trkpt>
      <trkpt lat="43.55949" lon="6.62011">
        <ele>179</ele>
        <time>2011-12-11T08:43:21Z</time>
      </trkpt>
      <trkpt lat="43.55953" lon="6.62008">
        <ele>179</ele>
        <time>2011-12-11T08:43:22Z</time>
      </trkpt>
      <trkpt lat="43.55956" lon="6.62005">
        <ele>178</ele>
        <time>2011-12-11T08:43:23Z</time>
      </trkpt>
      <trkpt lat="43.55959" lon="6.62001">
        <ele>178</ele>
        <time>2011-12-11T08:43:24Z</time>
      </trkpt>
      <trkpt lat="43.5596" lon="6.61995">
        <ele>178</ele>
        <time>2011-12-11T08:43:25Z</time>
      </trkpt>
      <trkpt lat="43.55963" lon="6.6199">
        <ele>178</ele>
        <time>2011-12-11T08:43:26Z</time>
      </trkpt>
      <trkpt lat="43.55966" lon="6.61984">
        <ele>178</ele>
        <time>2011-12-11T08:43:27Z</time>
      </trkpt>
      <trkpt lat="43.55969" lon="6.61979">
        <ele>177</ele>
        <time>2011-12-11T08:43:28Z</time>
      </trkpt>
      <trkpt lat="43.55971" lon="6.61972">
        <ele>177</ele>
        <time>2011-12-11T08:43:29Z</time>
      </trkpt>
      <trkpt lat="43.55973" lon="6.61967">
        <ele>176</ele>
        <time>2011-12-11T08:43:30Z</time>
      </trkpt>
      <trkpt lat="43.55975" lon="6.61961">
        <ele>176</ele>
        <time>2011-12-11T08:43:31Z</time>
      </trkpt>
      <trkpt lat="43.55978" lon="6.61956">
        <ele>176</ele>
        <time>2011-12-11T08:43:32Z</time>
      </trkpt>
      <trkpt lat="43.55981" lon="6.6195">
        <ele>176</ele>
        <time>2011-12-11T08:43:33Z</time>
      </trkpt>
      <trkpt lat="43.55984" lon="6.61944">
        <ele>175</ele>
        <time>2011-12-11T08:43:34Z</time>
      </trkpt>
      <trkpt lat="43.55987" lon="6.61939">
        <ele>175</ele>
        <time>2011-12-11T08:43:35Z</time>
      </trkpt>
      <trkpt lat="43.5599" lon="6.61934">
        <ele>174</ele>
        <time>2011-12-11T08:43:36Z</time>
      </trkpt>
      <trkpt lat="43.55994" lon="6.61929">
        <ele>174</ele>
        <time>2011-12-11T08:43:37Z</time>
      </trkpt>
      <trkpt lat="43.55998" lon="6.61925">
        <ele>173</ele>
        <time>2011-12-11T08:43:38Z</time>
      </trkpt>
      <trkpt lat="43.56002" lon="6.61922">
        <ele>173</ele>
        <time>2011-12-11T08:43:39Z</time>
      </trkpt>
      <trkpt lat="43.56006" lon="6.61918">
        <ele>172</ele>
        <time>2011-12-11T08:43:40Z</time>
      </trkpt>
      <trkpt lat="43.56011" lon="6.61914">
        <ele>172</ele>
        <time>2011-12-11T08:43:41Z</time>
      </trkpt>
      <trkpt lat="43.56015" lon="6.6191">
        <ele>171</ele>
        <time>2011-12-11T08:43:42Z</time>
      </trkpt>
      <trkpt lat="43.56019" lon="6.61906">
        <ele>171</ele>
        <time>2011-12-11T08:43:43Z</time>
      </trkpt>
      <trkpt lat="43.56022" lon="6.61902">
        <ele>170</ele>
        <time>2011-12-11T08:43:44Z</time>
      </trkpt>
      <trkpt lat="43.56024" lon="6.61898">
        <ele>170</ele>
        <time>2011-12-11T08:43:45Z</time>
      </trkpt>
      <trkpt lat="43.56026" lon="6.61895">
        <ele>170</ele>
        <time>2011-12-11T08:43:46Z</time>
      </trkpt>
      <trkpt lat="43.56027" lon="6.61893">
        <ele>169</ele>
        <time>2011-12-11T08:43:47Z</time>
      </trkpt>
      <trkpt lat="43.56029" lon="6.6189">
        <ele>168</ele>
        <time>2011-12-11T08:43:48Z</time>
      </trkpt>
      <trkpt lat="43.5603" lon="6.61887">
        <ele>168</ele>
        <time>2011-12-11T08:43:49Z</time>
      </trkpt>
      <trkpt lat="43.56031" lon="6.61884">
        <ele>167</ele>
        <time>2011-12-11T08:43:50Z</time>
      </trkpt>
      <trkpt lat="43.56033" lon="6.61881">
        <ele>167</ele>
        <time>2011-12-11T08:43:51Z</time>
      </trkpt>
      <trkpt lat="43.56034" lon="6.61877">
        <ele>166</ele>
        <time>2011-12-11T08:43:52Z</time>
      </trkpt>
      <trkpt lat="43.56035" lon="6.61872">
        <ele>165</ele>
        <time>2011-12-11T08:43:53Z</time>
      </trkpt>
      <trkpt lat="43.56037" lon="6.61867">
        <ele>165</ele>
        <time>2011-12-11T08:43:54Z</time>
      </trkpt>
      <trkpt lat="43.56038" lon="6.61861">
        <ele>164</ele>
        <time>2011-12-11T08:43:55Z</time>
      </trkpt>
      <trkpt lat="43.5604" lon="6.61855">
        <ele>163</ele>
        <time>2011-12-11T08:43:56Z</time>
      </trkpt>
      <trkpt lat="43.56041" lon="6.6185">
        <ele>163</ele>
        <time>2011-12-11T08:43:57Z</time>
      </trkpt>
      <trkpt lat="43.56042" lon="6.61845">
        <ele>162</ele>
        <time>2011-12-11T08:43:58Z</time>
      </trkpt>
      <trkpt lat="43.56043" lon="6.61839">
        <ele>162</ele>
        <time>2011-12-11T08:43:59Z</time>
      </trkpt>
      <trkpt lat="43.56044" lon="6.61833">
        <ele>161</ele>
        <time>2011-12-11T08:44:00Z</time>
      </trkpt>
      <trkpt lat="43.56044" lon="6.61827">
        <ele>160</ele>
        <time>2011-12-11T08:44:01Z</time>
      </trkpt>
      <trkpt lat="43.56044" lon="6.61821">
        <ele>160</ele>
        <time>2011-12-11T08:44:02Z</time>
      </trkpt>
      <trkpt lat="43.56045" lon="6.61815">
        <ele>159</ele>
        <time>2011-12-11T08:44:03Z</time>
      </trkpt>
      <trkpt lat="43.56045" lon="6.61809">
        <ele>158</ele>
        <time>2011-12-11T08:44:04Z</time>
      </trkpt>
      <trkpt lat="43.56046" lon="6.61803">
        <ele>158</ele>
        <time>2011-12-11T08:44:05Z</time>
      </trkpt>
      <trkpt lat="43.56047" lon="6.61798">
        <ele>158</ele>
        <time>2011-12-11T08:44:06Z</time>
      </trkpt>
      <trkpt lat="43.56049" lon="6.61793">
        <ele>158</ele>
        <time>2011-12-11T08:44:07Z</time>
      </trkpt>
      <trkpt lat="43.56051" lon="6.61789">
        <ele>157</ele>
        <time>2011-12-11T08:44:08Z</time>
      </trkpt>
      <trkpt lat="43.56053" lon="6.61784">
        <ele>157</ele>
        <time>2011-12-11T08:44:09Z</time>
      </trkpt>
      <trkpt lat="43.56056" lon="6.6178">
        <ele>156</ele>
        <time>2011-12-11T08:44:10Z</time>
      </trkpt>
      <trkpt lat="43.56059" lon="6.61775">
        <ele>155</ele>
        <time>2011-12-11T08:44:11Z</time>
      </trkpt>
      <trkpt lat="43.56063" lon="6.6177">
        <ele>155</ele>
        <time>2011-12-11T08:44:12Z</time>
      </trkpt>
      <trkpt lat="43.56066" lon="6.61766">
        <ele>155</ele>
        <time>2011-12-11T08:44:13Z</time>
      </trkpt>
      <trkpt lat="43.56071" lon="6.61763">
        <ele>154</ele>
        <time>2011-12-11T08:44:14Z</time>
      </trkpt>
      <trkpt lat="43.56075" lon="6.6176">
        <ele>154</ele>
        <time>2011-12-11T08:44:15Z</time>
      </trkpt>
      <trkpt lat="43.56079" lon="6.61757">
        <ele>154</ele>
        <time>2011-12-11T08:44:16Z</time>
      </trkpt>
      <trkpt lat="43.56083" lon="6.61755">
        <ele>154</ele>
        <time>2011-12-11T08:44:17Z</time>
      </trkpt>
      <trkpt lat="43.56087" lon="6.61753">
        <ele>153</ele>
        <time>2011-12-11T08:44:18Z</time>
      </trkpt>
      <trkpt lat="43.56092" lon="6.61751">
        <ele>153</ele>
        <time>2011-12-11T08:44:19Z</time>
      </trkpt>
      <trkpt lat="43.56096" lon="6.61748">
        <ele>152</ele>
        <time>2011-12-11T08:44:20Z</time>
      </trkpt>
      <trkpt lat="43.56101" lon="6.61744">
        <ele>152</ele>
        <time>2011-12-11T08:44:21Z</time>
      </trkpt>
      <trkpt lat="43.56134" lon="6.61712">
        <ele>150</ele>
        <time>2011-12-11T08:44:31Z</time>
      </trkpt>
      <trkpt lat="43.56134" lon="6.61708">
        <ele>150</ele>
        <time>2011-12-11T08:44:32Z</time>
      </trkpt>
      <trkpt lat="43.56135" lon="6.61704">
        <ele>149</ele>
        <time>2011-12-11T08:44:33Z</time>
      </trkpt>
      <trkpt lat="43.56134" lon="6.61701">
        <ele>150</ele>
        <time>2011-12-11T08:44:34Z</time>
      </trkpt>
      <trkpt lat="43.56133" lon="6.61697">
        <ele>150</ele>
        <time>2011-12-11T08:44:35Z</time>
      </trkpt>
      <trkpt lat="43.56131" lon="6.61694">
        <ele>149</ele>
        <time>2011-12-11T08:44:36Z</time>
      </trkpt>
      <trkpt lat="43.56131" lon="6.61691">
        <ele>149</ele>
        <time>2011-12-11T08:44:37Z</time>
      </trkpt>
      <trkpt lat="43.5613" lon="6.61689">
        <ele>149</ele>
        <time>2011-12-11T08:44:38Z</time>
      </trkpt>
      <trkpt lat="43.56129" lon="6.61688">
        <ele>150</ele>
        <time>2011-12-11T08:44:39Z</time>
      </trkpt>
      <trkpt lat="43.56129" lon="6.61686">
        <ele>150</ele>
        <time>2011-12-11T08:44:40Z</time>
      </trkpt>
      <trkpt lat="43.56129" lon="6.61686">
        <ele>149</ele>
        <time>2011-12-11T08:44:41Z</time>
      </trkpt>
      <trkpt lat="43.56129" lon="6.61684">
        <ele>149</ele>
        <time>2011-12-11T08:44:42Z</time>
      </trkpt>
      <trkpt lat="43.56129" lon="6.61684">
        <ele>148</ele>
        <time>2011-12-11T08:44:43Z</time>
      </trkpt>
      <trkpt lat="43.5613" lon="6.61684">
        <ele>148</ele>
        <time>2011-12-11T08:44:44Z</time>
      </trkpt>
      <trkpt lat="43.5613" lon="6.61683">
        <ele>148</ele>
        <time>2011-12-11T08:44:45Z</time>
      </trkpt>
      <trkpt lat="43.5613" lon="6.61682">
        <ele>147</ele>
        <time>2011-12-11T08:44:46Z</time>
      </trkpt>
      <trkpt lat="43.5613" lon="6.61682">
        <ele>147</ele>
        <time>2011-12-11T08:44:47Z</time>
      </trkpt>
      <trkpt lat="43.5613" lon="6.6168">
        <ele>147</ele>
        <time>2011-12-11T08:44:48Z</time>
      </trkpt>
      <trkpt lat="43.56129" lon="6.6168">
        <ele>148</ele>
        <time>2011-12-11T08:44:49Z</time>
      </trkpt>
      <trkpt lat="43.56129" lon="6.61679">
        <ele>148</ele>
        <time>2011-12-11T08:44:50Z</time>
      </trkpt>
      <trkpt lat="43.56128" lon="6.61679">
        <ele>148</ele>
        <time>2011-12-11T08:44:51Z</time>
      </trkpt>
      <trkpt lat="43.56128" lon="6.61679">
        <ele>148</ele>
        <time>2011-12-11T08:44:52Z</time>
      </trkpt>
      <trkpt lat="43.56127" lon="6.61678">
        <ele>149</ele>
        <time>2011-12-11T08:44:53Z</time>
      </trkpt>
      <trkpt lat="43.56126" lon="6.61678">
        <ele>149</ele>
        <time>2011-12-11T08:44:54Z</time>
      </trkpt>
      <trkpt lat="43.56125" lon="6.61678">
        <ele>149</ele>
        <time>2011-12-11T08:44:55Z</time>
      </trkpt>
      <trkpt lat="43.56124" lon="6.61677">
        <ele>149</ele>
        <time>2011-12-11T08:44:56Z</time>
      </trkpt>
      <trkpt lat="43.56124" lon="6.61677">
        <ele>149</ele>
        <time>2011-12-11T08:44:57Z</time>
      </trkpt>
      <trkpt lat="43.56123" lon="6.61677">
        <ele>149</ele>
        <time>2011-12-11T08:44:58Z</time>
      </trkpt>
      <trkpt lat="43.56123" lon="6.61678">
        <ele>149</ele>
        <time>2011-12-11T08:44:59Z</time>
      </trkpt>
      <trkpt lat="43.56122" lon="6.61678">
        <ele>149</ele>
        <time>2011-12-11T08:45:00Z</time>
      </trkpt>
      <trkpt lat="43.56121" lon="6.61678">
        <ele>149</ele>
        <time>2011-12-11T08:45:01Z</time>
      </trkpt>
      <trkpt lat="43.56121" lon="6.61678">
        <ele>149</ele>
        <time>2011-12-11T08:45:02Z</time>
      </trkpt>
      <trkpt lat="43.5612" lon="6.61678">
        <ele>149</ele>
        <time>2011-12-11T08:45:03Z</time>
      </trkpt>
      <trkpt lat="43.56119" lon="6.61679">
        <ele>149</ele>
        <time>2011-12-11T08:45:04Z</time>
      </trkpt>
      <trkpt lat="43.56118" lon="6.61679">
        <ele>149</ele>
        <time>2011-12-11T08:45:05Z</time>
      </trkpt>
      <trkpt lat="43.56118" lon="6.61679">
        <ele>149</ele>
        <time>2011-12-11T08:45:06Z</time>
      </trkpt>
      <trkpt lat="43.56117" lon="6.6168">
        <ele>149</ele>
        <time>2011-12-11T08:45:07Z</time>
      </trkpt>
      <trkpt lat="43.56116" lon="6.6168">
        <ele>149</ele>
        <time>2011-12-11T08:45:08Z</time>
      </trkpt>
      <trkpt lat="43.56115" lon="6.6168">
        <ele>150</ele>
        <time>2011-12-11T08:45:09Z</time>
      </trkpt>
      <trkpt lat="43.56114" lon="6.6168">
        <ele>150</ele>
        <time>2011-12-11T08:45:10Z</time>
      </trkpt>
      <trkpt lat="43.56113" lon="6.6168">
        <ele>150</ele>
        <time>2011-12-11T08:45:11Z</time>
      </trkpt>
      <trkpt lat="43.56113" lon="6.61681">
        <ele>150</ele>
        <time>2011-12-11T08:45:12Z</time>
      </trkpt>
      <trkpt lat="43.56112" lon="6.61681">
        <ele>150</ele>
        <time>2011-12-11T08:45:13Z</time>
      </trkpt>
      <trkpt lat="43.56111" lon="6.61682">
        <ele>150</ele>
        <time>2011-12-11T08:45:14Z</time>
      </trkpt>
      <trkpt lat="43.5611" lon="6.61682">
        <ele>150</ele>
        <time>2011-12-11T08:45:15Z</time>
      </trkpt>
      <trkpt lat="43.5611" lon="6.61683">
        <ele>150</ele>
        <time>2011-12-11T08:45:16Z</time>
      </trkpt>
      <trkpt lat="43.56111" lon="6.61683">
        <ele>151</ele>
        <time>2011-12-11T08:45:31Z</time>
      </trkpt>
      <trkpt lat="43.56111" lon="6.61683">
        <ele>151</ele>
        <time>2011-12-11T08:46:07Z</time>
      </trkpt>
      <trkpt lat="43.5611" lon="6.61683">
        <ele>151</ele>
        <time>2011-12-11T08:46:08Z</time>
      </trkpt>
      <trkpt lat="43.56108" lon="6.61684">
        <ele>151</ele>
        <time>2011-12-11T08:46:09Z</time>
      </trkpt>
      <trkpt lat="43.56105" lon="6.61685">
        <ele>151</ele>
        <time>2011-12-11T08:46:10Z</time>
      </trkpt>
      <trkpt lat="43.56102" lon="6.61686">
        <ele>151</ele>
        <time>2011-12-11T08:46:11Z</time>
      </trkpt>
      <trkpt lat="43.56098" lon="6.61689">
        <ele>151</ele>
        <time>2011-12-11T08:46:12Z</time>
      </trkpt>
      <trkpt lat="43.56095" lon="6.61691">
        <ele>150</ele>
        <time>2011-12-11T08:46:13Z</time>
      </trkpt>
      <trkpt lat="43.56091" lon="6.61693">
        <ele>150</ele>
        <time>2011-12-11T08:46:14Z</time>
      </trkpt>
      <trkpt lat="43.56088" lon="6.61694">
        <ele>150</ele>
        <time>2011-12-11T08:46:15Z</time>
      </trkpt>
      <trkpt lat="43.56086" lon="6.61695">
        <ele>150</ele>
        <time>2011-12-11T08:46:16Z</time>
      </trkpt>
      <trkpt lat="43.56084" lon="6.61697">
        <ele>150</ele>
        <time>2011-12-11T08:46:17Z</time>
      </trkpt>
      <trkpt lat="43.56082" lon="6.61698">
        <ele>150</ele>
        <time>2011-12-11T08:46:18Z</time>
      </trkpt>
      <trkpt lat="43.5608" lon="6.61699">
        <ele>150</ele>
        <time>2011-12-11T08:46:19Z</time>
      </trkpt>
      <trkpt lat="43.56078" lon="6.61701">
        <ele>150</ele>
        <time>2011-12-11T08:46:20Z</time>
      </trkpt>
      <trkpt lat="43.56076" lon="6.61703">
        <ele>150</ele>
        <time>2011-12-11T08:46:21Z</time>
      </trkpt>
      <trkpt lat="43.56074" lon="6.61704">
        <ele>150</ele>
        <time>2011-12-11T08:46:22Z</time>
      </trkpt>
      <trkpt lat="43.56071" lon="6.61706">
        <ele>150</ele>
        <time>2011-12-11T08:46:23Z</time>
      </trkpt>
      <trkpt lat="43.56069" lon="6.61708">
        <ele>150</ele>
        <time>2011-12-11T08:46:24Z</time>
      </trkpt>
      <trkpt lat="43.56066" lon="6.61711">
        <ele>150</ele>
        <time>2011-12-11T08:46:25Z</time>
      </trkpt>
      <trkpt lat="43.56064" lon="6.61714">
        <ele>150</ele>
        <time>2011-12-11T08:46:26Z</time>
      </trkpt>
      <trkpt lat="43.56061" lon="6.61716">
        <ele>150</ele>
        <time>2011-12-11T08:46:27Z</time>
      </trkpt>
      <trkpt lat="43.56057" lon="6.61718">
        <ele>150</ele>
        <time>2011-12-11T08:46:28Z</time>
      </trkpt>
      <trkpt lat="43.56054" lon="6.61721">
        <ele>150</ele>
        <time>2011-12-11T08:46:29Z</time>
      </trkpt>
      <trkpt lat="43.5605" lon="6.61723">
        <ele>150</ele>
        <time>2011-12-11T08:46:30Z</time>
      </trkpt>
      <trkpt lat="43.56047" lon="6.61725">
        <ele>150</ele>
        <time>2011-12-11T08:46:31Z</time>
      </trkpt>
      <trkpt lat="43.56043" lon="6.61726">
        <ele>150</ele>
        <time>2011-12-11T08:46:32Z</time>
      </trkpt>
      <trkpt lat="43.56039" lon="6.61727">
        <ele>150</ele>
        <time>2011-12-11T08:46:33Z</time>
      </trkpt>
      <trkpt lat="43.56036" lon="6.61728">
        <ele>150</ele>
        <time>2011-12-11T08:46:34Z</time>
      </trkpt>
      <trkpt lat="43.56031" lon="6.61729">
        <ele>150</ele>
        <time>2011-12-11T08:46:35Z</time>
      </trkpt>
      <trkpt lat="43.56028" lon="6.6173">
        <ele>150</ele>
        <time>2011-12-11T08:46:36Z</time>
      </trkpt>
      <trkpt lat="43.56024" lon="6.61731">
        <ele>150</ele>
        <time>2011-12-11T08:46:37Z</time>
      </trkpt>
      <trkpt lat="43.56021" lon="6.61732">
        <ele>150</ele>
        <time>2011-12-11T08:46:38Z</time>
      </trkpt>
      <trkpt lat="43.56018" lon="6.61733">
        <ele>150</ele>
        <time>2011-12-11T08:46:39Z</time>
      </trkpt>
      <trkpt lat="43.56014" lon="6.61734">
        <ele>150</ele>
        <time>2011-12-11T08:46:40Z</time>
      </trkpt>
      <trkpt lat="43.5601" lon="6.61735">
        <ele>151</ele>
        <time>2011-12-11T08:46:41Z</time>
      </trkpt>
      <trkpt lat="43.56007" lon="6.61736">
        <ele>151</ele>
        <time>2011-12-11T08:46:42Z</time>
      </trkpt>
      <trkpt lat="43.56004" lon="6.61738">
        <ele>151</ele>
        <time>2011-12-11T08:46:43Z</time>
      </trkpt>
      <trkpt lat="43.56001" lon="6.6174">
        <ele>151</ele>
        <time>2011-12-11T08:46:44Z</time>
      </trkpt>
      <trkpt lat="43.55998" lon="6.6174">
        <ele>152</ele>
        <time>2011-12-11T08:46:45Z</time>
      </trkpt>
      <trkpt lat="43.55995" lon="6.61741">
        <ele>152</ele>
        <time>2011-12-11T08:46:46Z</time>
      </trkpt>
      <trkpt lat="43.55992" lon="6.61742">
        <ele>152</ele>
        <time>2011-12-11T08:46:47Z</time>
      </trkpt>
      <trkpt lat="43.55989" lon="6.61743">
        <ele>152</ele>
        <time>2011-12-11T08:46:48Z</time>
      </trkpt>
      <trkpt lat="43.55987" lon="6.61744">
        <ele>152</ele>
        <time>2011-12-11T08:46:49Z</time>
      </trkpt>
      <trkpt lat="43.55986" lon="6.61745">
        <ele>152</ele>
        <time>2011-12-11T08:46:50Z</time>
      </trkpt>
      <trkpt lat="43.55984" lon="6.61745">
        <ele>152</ele>
        <time>2011-12-11T08:46:51Z</time>
      </trkpt>
      <trkpt lat="43.55983" lon="6.61746">
        <ele>152</ele>
        <time>2011-12-11T08:46:52Z</time>
      </trkpt>
      <trkpt lat="43.55982" lon="6.61747">
        <ele>153</ele>
        <time>2011-12-11T08:46:53Z</time>
      </trkpt>
      <trkpt lat="43.55981" lon="6.61747">
        <ele>153</ele>
        <time>2011-12-11T08:46:54Z</time>
      </trkpt>
      <trkpt lat="43.55979" lon="6.61748">
        <ele>153</ele>
        <time>2011-12-11T08:46:55Z</time>
      </trkpt>
      <trkpt lat="43.55978" lon="6.61749">
        <ele>153</ele>
        <time>2011-12-11T08:46:56Z</time>
      </trkpt>
      <trkpt lat="43.55978" lon="6.61751">
        <ele>153</ele>
        <time>2011-12-11T08:46:57Z</time>
      </trkpt>
      <trkpt lat="43.55977" lon="6.61753">
        <ele>153</ele>
        <time>2011-12-11T08:46:58Z</time>
      </trkpt>
      <trkpt lat="43.55976" lon="6.61755">
        <ele>154</ele>
        <time>2011-12-11T08:46:59Z</time>
      </trkpt>
      <trkpt lat="43.55973" lon="6.61756">
        <ele>154</ele>
        <time>2011-12-11T08:47:00Z</time>
      </trkpt>
      <trkpt lat="43.55971" lon="6.61757">
        <ele>154</ele>
        <time>2011-12-11T08:47:01Z</time>
      </trkpt>
      <trkpt lat="43.55969" lon="6.61759">
        <ele>154</ele>
        <time>2011-12-11T08:47:02Z</time>
      </trkpt>
      <trkpt lat="43.55967" lon="6.61761">
        <ele>154</ele>
        <time>2011-12-11T08:47:03Z</time>
      </trkpt>
      <trkpt lat="43.55966" lon="6.61763">
        <ele>154</ele>
        <time>2011-12-11T08:47:04Z</time>
      </trkpt>
      <trkpt lat="43.55964" lon="6.61765">
        <ele>154</ele>
        <time>2011-12-11T08:47:05Z</time>
      </trkpt>
      <trkpt lat="43.55963" lon="6.61768">
        <ele>154</ele>
        <time>2011-12-11T08:47:06Z</time>
      </trkpt>
      <trkpt lat="43.55961" lon="6.6177">
        <ele>154</ele>
        <time>2011-12-11T08:47:07Z</time>
      </trkpt>
      <trkpt lat="43.55959" lon="6.61772">
        <ele>154</ele>
        <time>2011-12-11T08:47:08Z</time>
      </trkpt>
      <trkpt lat="43.55957" lon="6.61775">
        <ele>155</ele>
        <time>2011-12-11T08:47:09Z</time>
      </trkpt>
      <trkpt lat="43.55956" lon="6.61777">
        <ele>155</ele>
        <time>2011-12-11T08:47:10Z</time>
      </trkpt>
      <trkpt lat="43.55955" lon="6.61779">
        <ele>155</ele>
        <time>2011-12-11T08:47:11Z</time>
      </trkpt>
      <trkpt lat="43.55955" lon="6.61778">
        <ele>154</ele>
        <time>2011-12-11T08:47:13Z</time>
      </trkpt>
      <trkpt lat="43.55955" lon="6.61778">
        <ele>154</ele>
        <time>2011-12-11T08:47:20Z</time>
      </trkpt>
      <trkpt lat="43.55954" lon="6.61779">
        <ele>154</ele>
        <time>2011-12-11T08:47:22Z</time>
      </trkpt>
      <trkpt lat="43.55954" lon="6.61779">
        <ele>154</ele>
        <time>2011-12-11T08:47:23Z</time>
      </trkpt>
      <trkpt lat="43.55953" lon="6.6178">
        <ele>154</ele>
        <time>2011-12-11T08:47:24Z</time>
      </trkpt>
      <trkpt lat="43.55952" lon="6.61781">
        <ele>155</ele>
        <time>2011-12-11T08:47:25Z</time>
      </trkpt>
      <trkpt lat="43.5595" lon="6.61783">
        <ele>155</ele>
        <time>2011-12-11T08:47:26Z</time>
      </trkpt>
      <trkpt lat="43.55947" lon="6.61786">
        <ele>155</ele>
        <time>2011-12-11T08:47:27Z</time>
      </trkpt>
      <trkpt lat="43.55945" lon="6.61789">
        <ele>155</ele>
        <time>2011-12-11T08:47:28Z</time>
      </trkpt>
      <trkpt lat="43.55942" lon="6.61792">
        <ele>155</ele>
        <time>2011-12-11T08:47:29Z</time>
      </trkpt>
      <trkpt lat="43.55939" lon="6.61795">
        <ele>155</ele>
        <time>2011-12-11T08:47:30Z</time>
      </trkpt>
      <trkpt lat="43.55936" lon="6.61798">
        <ele>155</ele>
        <time>2011-12-11T08:47:31Z</time>
      </trkpt>
      <trkpt lat="43.55933" lon="6.61801">
        <ele>155</ele>
        <time>2011-12-11T08:47:32Z</time>
      </trkpt>
      <trkpt lat="43.55929" lon="6.61803">
        <ele>155</ele>
        <time>2011-12-11T08:47:33Z</time>
      </trkpt>
      <trkpt lat="43.55926" lon="6.61804">
        <ele>155</ele>
        <time>2011-12-11T08:47:34Z</time>
      </trkpt>
      <trkpt lat="43.55922" lon="6.61805">
        <ele>155</ele>
        <time>2011-12-11T08:47:35Z</time>
      </trkpt>
      <trkpt lat="43.55918" lon="6.61805">
        <ele>155</ele>
        <time>2011-12-11T08:47:36Z</time>
      </trkpt>
      <trkpt lat="43.55913" lon="6.61805">
        <ele>155</ele>
        <time>2011-12-11T08:47:37Z</time>
      </trkpt>
      <trkpt lat="43.55909" lon="6.61805">
        <ele>155</ele>
        <time>2011-12-11T08:47:38Z</time>
      </trkpt>
      <trkpt lat="43.55904" lon="6.61804">
        <ele>154</ele>
        <time>2011-12-11T08:47:39Z</time>
      </trkpt>
      <trkpt lat="43.55899" lon="6.61803">
        <ele>154</ele>
        <time>2011-12-11T08:47:40Z</time>
      </trkpt>
      <trkpt lat="43.55894" lon="6.61803">
        <ele>155</ele>
        <time>2011-12-11T08:47:41Z</time>
      </trkpt>
      <trkpt lat="43.5589" lon="6.61803">
        <ele>155</ele>
        <time>2011-12-11T08:47:42Z</time>
      </trkpt>
      <trkpt lat="43.55885" lon="6.61803">
        <ele>155</ele>
        <time>2011-12-11T08:47:43Z</time>
      </trkpt>
      <trkpt lat="43.5588" lon="6.61802">
        <ele>155</ele>
        <time>2011-12-11T08:47:44Z</time>
      </trkpt>
      <trkpt lat="43.55876" lon="6.61801">
        <ele>154</ele>
        <time>2011-12-11T08:47:45Z</time>
      </trkpt>
      <trkpt lat="43.55872" lon="6.618">
        <ele>154</ele>
        <time>2011-12-11T08:47:46Z</time>
      </trkpt>
      <trkpt lat="43.55867" lon="6.61799">
        <ele>154</ele>
        <time>2011-12-11T08:47:47Z</time>
      </trkpt>
      <trkpt lat="43.55863" lon="6.61797">
        <ele>154</ele>
        <time>2011-12-11T08:47:48Z</time>
      </trkpt>
      <trkpt lat="43.5586" lon="6.61796">
        <ele>154</ele>
        <time>2011-12-11T08:47:49Z</time>
      </trkpt>
      <trkpt lat="43.55857" lon="6.61794">
        <ele>154</ele>
        <time>2011-12-11T08:47:50Z</time>
      </trkpt>
      <trkpt lat="43.55856" lon="6.61794">
        <ele>154</ele>
        <time>2011-12-11T08:47:51Z</time>
      </trkpt>
      <trkpt lat="43.55854" lon="6.61794">
        <ele>153</ele>
        <time>2011-12-11T08:47:52Z</time>
      </trkpt>
      <trkpt lat="43.55853" lon="6.61794">
        <ele>153</ele>
        <time>2011-12-11T08:47:53Z</time>
      </trkpt>
      <trkpt lat="43.55851" lon="6.61794">
        <ele>153</ele>
        <time>2011-12-11T08:47:54Z</time>
      </trkpt>
      <trkpt lat="43.55849" lon="6.61794">
        <ele>153</ele>
        <time>2011-12-11T08:47:55Z</time>
      </trkpt>
      <trkpt lat="43.55848" lon="6.61795">
        <ele>153</ele>
        <time>2011-12-11T08:47:56Z</time>
      </trkpt>
      <trkpt lat="43.55847" lon="6.61795">
        <ele>153</ele>
        <time>2011-12-11T08:47:57Z</time>
      </trkpt>
      <trkpt lat="43.55846" lon="6.61795">
        <ele>154</ele>
        <time>2011-12-11T08:48:00Z</time>
      </trkpt>
      <trkpt lat="43.55846" lon="6.61795">
        <ele>154</ele>
        <time>2011-12-11T08:48:01Z</time>
      </trkpt>
      <trkpt lat="43.55845" lon="6.61794">
        <ele>154</ele>
        <time>2011-12-11T08:48:02Z</time>
      </trkpt>
      <trkpt lat="43.55845" lon="6.61794">
        <ele>154</ele>
        <time>2011-12-11T08:48:03Z</time>
      </trkpt>
      <trkpt lat="43.55844" lon="6.61793">
        <ele>154</ele>
        <time>2011-12-11T08:48:04Z</time>
      </trkpt>
      <trkpt lat="43.55843" lon="6.61792">
        <ele>154</ele>
        <time>2011-12-11T08:48:05Z</time>
      </trkpt>
      <trkpt lat="43.55841" lon="6.61791">
        <ele>154</ele>
        <time>2011-12-11T08:48:06Z</time>
      </trkpt>
      <trkpt lat="43.5584" lon="6.61791">
        <ele>154</ele>
        <time>2011-12-11T08:48:07Z</time>
      </trkpt>
      <trkpt lat="43.55838" lon="6.6179">
        <ele>154</ele>
        <time>2011-12-11T08:48:08Z</time>
      </trkpt>
      <trkpt lat="43.55835" lon="6.6179">
        <ele>154</ele>
        <time>2011-12-11T08:48:09Z</time>
      </trkpt>
      <trkpt lat="43.55832" lon="6.61789">
        <ele>154</ele>
        <time>2011-12-11T08:48:10Z</time>
      </trkpt>
      <trkpt lat="43.5583" lon="6.61789">
        <ele>154</ele>
        <time>2011-12-11T08:48:11Z</time>
      </trkpt>
      <trkpt lat="43.55828" lon="6.61789">
        <ele>154</ele>
        <time>2011-12-11T08:48:12Z</time>
      </trkpt>
      <trkpt lat="43.55825" lon="6.61789">
        <ele>154</ele>
        <time>2011-12-11T08:48:13Z</time>
      </trkpt>
      <trkpt lat="43.55821" lon="6.61787">
        <ele>155</ele>
        <time>2011-12-11T08:48:14Z</time>
      </trkpt>
      <trkpt lat="43.55816" lon="6.61787">
        <ele>155</ele>
        <time>2011-12-11T08:48:15Z</time>
      </trkpt>
      <trkpt lat="43.55813" lon="6.61788">
        <ele>155</ele>
        <time>2011-12-11T08:48:16Z</time>
      </trkpt>
      <trkpt lat="43.55809" lon="6.61787">
        <ele>155</ele>
        <time>2011-12-11T08:48:17Z</time>
      </trkpt>
      <trkpt lat="43.55807" lon="6.61787">
        <ele>156</ele>
        <time>2011-12-11T08:48:18Z</time>
      </trkpt>
      <trkpt lat="43.55804" lon="6.61787">
        <ele>156</ele>
        <time>2011-12-11T08:48:19Z</time>
      </trkpt>
      <trkpt lat="43.55802" lon="6.61787">
        <ele>156</ele>
        <time>2011-12-11T08:48:20Z</time>
      </trkpt>
      <trkpt lat="43.558" lon="6.61788">
        <ele>157</ele>
        <time>2011-12-11T08:48:21Z</time>
      </trkpt>
      <trkpt lat="43.55798" lon="6.61789">
        <ele>157</ele>
        <time>2011-12-11T08:48:22Z</time>
      </trkpt>
      <trkpt lat="43.55797" lon="6.61791">
        <ele>157</ele>
        <time>2011-12-11T08:48:23Z</time>
      </trkpt>
      <trkpt lat="43.55795" lon="6.61792">
        <ele>157</ele>
        <time>2011-12-11T08:48:24Z</time>
      </trkpt>
      <trkpt lat="43.55792" lon="6.61794">
        <ele>157</ele>
        <time>2011-12-11T08:48:25Z</time>
      </trkpt>
      <trkpt lat="43.55789" lon="6.61795">
        <ele>157</ele>
        <time>2011-12-11T08:48:26Z</time>
      </trkpt>
      <trkpt lat="43.55787" lon="6.61797">
        <ele>158</ele>
        <time>2011-12-11T08:48:27Z</time>
      </trkpt>
      <trkpt lat="43.55784" lon="6.61798">
        <ele>158</ele>
        <time>2011-12-11T08:48:28Z</time>
      </trkpt>
      <trkpt lat="43.55782" lon="6.61799">
        <ele>158</ele>
        <time>2011-12-11T08:48:29Z</time>
      </trkpt>
      <trkpt lat="43.55779" lon="6.61801">
        <ele>158</ele>
        <time>2011-12-11T08:48:30Z</time>
      </trkpt>
      <trkpt lat="43.55775" lon="6.61802">
        <ele>158</ele>
        <time>2011-12-11T08:48:31Z</time>
      </trkpt>
      <trkpt lat="43.55771" lon="6.61804">
        <ele>158</ele>
        <time>2011-12-11T08:48:32Z</time>
      </trkpt>
      <trkpt lat="43.55768" lon="6.61805">
        <ele>158</ele>
        <time>2011-12-11T08:48:33Z</time>
      </trkpt>
      <trkpt lat="43.55766" lon="6.61807">
        <ele>158</ele>
        <time>2011-12-11T08:48:34Z</time>
      </trkpt>
      <trkpt lat="43.55763" lon="6.61808">
        <ele>158</ele>
        <time>2011-12-11T08:48:35Z</time>
      </trkpt>
      <trkpt lat="43.5576" lon="6.61809">
        <ele>159</ele>
        <time>2011-12-11T08:48:36Z</time>
      </trkpt>
      <trkpt lat="43.55757" lon="6.61811">
        <ele>159</ele>
        <time>2011-12-11T08:48:37Z</time>
      </trkpt>
      <trkpt lat="43.55755" lon="6.61811">
        <ele>159</ele>
        <time>2011-12-11T08:48:38Z</time>
      </trkpt>
      <trkpt lat="43.55752" lon="6.61813">
        <ele>159</ele>
        <time>2011-12-11T08:48:39Z</time>
      </trkpt>
      <trkpt lat="43.5575" lon="6.61813">
        <ele>159</ele>
        <time>2011-12-11T08:48:40Z</time>
      </trkpt>
      <trkpt lat="43.55746" lon="6.61814">
        <ele>160</ele>
        <time>2011-12-11T08:48:41Z</time>
      </trkpt>
      <trkpt lat="43.55744" lon="6.61815">
        <ele>160</ele>
        <time>2011-12-11T08:48:42Z</time>
      </trkpt>
      <trkpt lat="43.55741" lon="6.61814">
        <ele>160</ele>
        <time>2011-12-11T08:48:43Z</time>
      </trkpt>
      <trkpt lat="43.55739" lon="6.61812">
        <ele>159</ele>
        <time>2011-12-11T08:48:44Z</time>
      </trkpt>
      <trkpt lat="43.55736" lon="6.61811">
        <ele>159</ele>
        <time>2011-12-11T08:48:45Z</time>
      </trkpt>
      <trkpt lat="43.55733" lon="6.61808">
        <ele>159</ele>
        <time>2011-12-11T08:48:46Z</time>
      </trkpt>
      <trkpt lat="43.55731" lon="6.61806">
        <ele>159</ele>
        <time>2011-12-11T08:48:47Z</time>
      </trkpt>
      <trkpt lat="43.55729" lon="6.61803">
        <ele>159</ele>
        <time>2011-12-11T08:48:48Z</time>
      </trkpt>
      <trkpt lat="43.55728" lon="6.618">
        <ele>159</ele>
        <time>2011-12-11T08:48:49Z</time>
      </trkpt>
      <trkpt lat="43.55726" lon="6.61796">
        <ele>159</ele>
        <time>2011-12-11T08:48:50Z</time>
      </trkpt>
      <trkpt lat="43.55724" lon="6.61793">
        <ele>159</ele>
        <time>2011-12-11T08:48:51Z</time>
      </trkpt>
      <trkpt lat="43.55723" lon="6.61789">
        <ele>159</ele>
        <time>2011-12-11T08:48:52Z</time>
      </trkpt>
      <trkpt lat="43.55721" lon="6.61785">
        <ele>159</ele>
        <time>2011-12-11T08:48:53Z</time>
      </trkpt>
      <trkpt lat="43.5572" lon="6.6178">
        <ele>159</ele>
        <time>2011-12-11T08:48:54Z</time>
      </trkpt>
      <trkpt lat="43.55718" lon="6.61776">
        <ele>160</ele>
        <time>2011-12-11T08:48:55Z</time>
      </trkpt>
      <trkpt lat="43.55716" lon="6.61773">
        <ele>160</ele>
        <time>2011-12-11T08:48:56Z</time>
      </trkpt>
      <trkpt lat="43.55714" lon="6.61769">
        <ele>159</ele>
        <time>2011-12-11T08:48:57Z</time>
      </trkpt>
      <trkpt lat="43.55712" lon="6.61766">
        <ele>160</ele>
        <time>2011-12-11T08:48:58Z</time>
      </trkpt>
      <trkpt lat="43.5571" lon="6.61763">
        <ele>160</ele>
        <time>2011-12-11T08:48:59Z</time>
      </trkpt>
      <trkpt lat="43.55708" lon="6.6176">
        <ele>160</ele>
        <time>2011-12-11T08:49:00Z</time>
      </trkpt>
      <trkpt lat="43.55706" lon="6.61758">
        <ele>160</ele>
        <time>2011-12-11T08:49:01Z</time>
      </trkpt>
      <trkpt lat="43.55704" lon="6.61756">
        <ele>160</ele>
        <time>2011-12-11T08:49:02Z</time>
      </trkpt>
      <trkpt lat="43.55702" lon="6.61753">
        <ele>160</ele>
        <time>2011-12-11T08:49:03Z</time>
      </trkpt>
      <trkpt lat="43.557" lon="6.6175">
        <ele>160</ele>
        <time>2011-12-11T08:49:04Z</time>
      </trkpt>
      <trkpt lat="43.55698" lon="6.61748">
        <ele>160</ele>
        <time>2011-12-11T08:49:05Z</time>
      </trkpt>
      <trkpt lat="43.55696" lon="6.61745">
        <ele>160</ele>
        <time>2011-12-11T08:49:06Z</time>
      </trkpt>
      <trkpt lat="43.55694" lon="6.61741">
        <ele>160</ele>
        <time>2011-12-11T08:49:07Z</time>
      </trkpt>
      <trkpt lat="43.55692" lon="6.61738">
        <ele>160</ele>
        <time>2011-12-11T08:49:08Z</time>
      </trkpt>
      <trkpt lat="43.5569" lon="6.61734">
        <ele>160</ele>
        <time>2011-12-11T08:49:09Z</time>
      </trkpt>
      <trkpt lat="43.55688" lon="6.6173">
        <ele>160</ele>
        <time>2011-12-11T08:49:10Z</time>
      </trkpt>
      <trkpt lat="43.55686" lon="6.61726">
        <ele>159</ele>
        <time>2011-12-11T08:49:11Z</time>
      </trkpt>
      <trkpt lat="43.55684" lon="6.61722">
        <ele>159</ele>
        <time>2011-12-11T08:49:12Z</time>
      </trkpt>
      <trkpt lat="43.55682" lon="6.61718">
        <ele>159</ele>
        <time>2011-12-11T08:49:13Z</time>
      </trkpt>
      <trkpt lat="43.5568" lon="6.61713">
        <ele>159</ele>
        <time>2011-12-11T08:49:14Z</time>
      </trkpt>
      <trkpt lat="43.55678" lon="6.61708">
        <ele>159</ele>
        <time>2011-12-11T08:49:15Z</time>
      </trkpt>
      <trkpt lat="43.55676" lon="6.61704">
        <ele>158</ele>
        <time>2011-12-11T08:49:16Z</time>
      </trkpt>
      <trkpt lat="43.55673" lon="6.617">
        <ele>158</ele>
        <time>2011-12-11T08:49:17Z</time>
      </trkpt>
      <trkpt lat="43.5567" lon="6.61696">
        <ele>158</ele>
        <time>2011-12-11T08:49:18Z</time>
      </trkpt>
      <trkpt lat="43.55668" lon="6.61692">
        <ele>158</ele>
        <time>2011-12-11T08:49:19Z</time>
      </trkpt>
      <trkpt lat="43.55666" lon="6.61687">
        <ele>158</ele>
        <time>2011-12-11T08:49:20Z</time>
      </trkpt>
      <trkpt lat="43.55665" lon="6.61682">
        <ele>158</ele>
        <time>2011-12-11T08:49:21Z</time>
      </trkpt>
      <trkpt lat="43.55663" lon="6.61678">
        <ele>157</ele>
        <time>2011-12-11T08:49:22Z</time>
      </trkpt>
      <trkpt lat="43.55662" lon="6.61673">
        <ele>157</ele>
        <time>2011-12-11T08:49:23Z</time>
      </trkpt>
      <trkpt lat="43.55661" lon="6.61669">
        <ele>157</ele>
        <time>2011-12-11T08:49:24Z</time>
      </trkpt>
      <trkpt lat="43.5566" lon="6.61665">
        <ele>157</ele>
        <time>2011-12-11T08:49:25Z</time>
      </trkpt>
      <trkpt lat="43.5566" lon="6.61661">
        <ele>157</ele>
        <time>2011-12-11T08:49:26Z</time>
      </trkpt>
      <trkpt lat="43.55659" lon="6.61656">
        <ele>156</ele>
        <time>2011-12-11T08:49:27Z</time>
      </trkpt>
      <trkpt lat="43.55659" lon="6.61652">
        <ele>156</ele>
        <time>2011-12-11T08:49:28Z</time>
      </trkpt>
      <trkpt lat="43.55658" lon="6.61649">
        <ele>156</ele>
        <time>2011-12-11T08:49:29Z</time>
      </trkpt>
      <trkpt lat="43.55657" lon="6.61645">
        <ele>155</ele>
        <time>2011-12-11T08:49:30Z</time>
      </trkpt>
      <trkpt lat="43.55656" lon="6.61642">
        <ele>155</ele>
        <time>2011-12-11T08:49:31Z</time>
      </trkpt>
      <trkpt lat="43.55655" lon="6.61638">
        <ele>155</ele>
        <time>2011-12-11T08:49:32Z</time>
      </trkpt>
      <trkpt lat="43.55654" lon="6.61634">
        <ele>155</ele>
        <time>2011-12-11T08:49:33Z</time>
      </trkpt>
      <trkpt lat="43.55653" lon="6.6163">
        <ele>155</ele>
        <time>2011-12-11T08:49:34Z</time>
      </trkpt>
      <trkpt lat="43.55652" lon="6.61626">
        <ele>155</ele>
        <time>2011-12-11T08:49:35Z</time>
      </trkpt>
      <trkpt lat="43.5565" lon="6.61621">
        <ele>155</ele>
        <time>2011-12-11T08:49:36Z</time>
      </trkpt>
      <trkpt lat="43.55649" lon="6.61617">
        <ele>155</ele>
        <time>2011-12-11T08:49:37Z</time>
      </trkpt>
      <trkpt lat="43.55648" lon="6.61612">
        <ele>154</ele>
        <time>2011-12-11T08:49:38Z</time>
      </trkpt>
      <trkpt lat="43.55646" lon="6.61606">
        <ele>154</ele>
        <time>2011-12-11T08:49:39Z</time>
      </trkpt>
      <trkpt lat="43.55645" lon="6.61601">
        <ele>154</ele>
        <time>2011-12-11T08:49:40Z</time>
      </trkpt>
      <trkpt lat="43.55644" lon="6.61596">
        <ele>154</ele>
        <time>2011-12-11T08:49:41Z</time>
      </trkpt>
      <trkpt lat="43.55642" lon="6.61591">
        <ele>154</ele>
        <time>2011-12-11T08:49:42Z</time>
      </trkpt>
      <trkpt lat="43.55641" lon="6.61587">
        <ele>154</ele>
        <time>2011-12-11T08:49:43Z</time>
      </trkpt>
      <trkpt lat="43.55639" lon="6.61582">
        <ele>154</ele>
        <time>2011-12-11T08:49:44Z</time>
      </trkpt>
      <trkpt lat="43.55638" lon="6.61578">
        <ele>153</ele>
        <time>2011-12-11T08:49:45Z</time>
      </trkpt>
      <trkpt lat="43.55636" lon="6.61574">
        <ele>153</ele>
        <time>2011-12-11T08:49:46Z</time>
      </trkpt>
      <trkpt lat="43.55635" lon="6.6157">
        <ele>153</ele>
        <time>2011-12-11T08:49:47Z</time>
      </trkpt>
      <trkpt lat="43.55634" lon="6.61565">
        <ele>153</ele>
        <time>2011-12-11T08:49:48Z</time>
      </trkpt>
      <trkpt lat="43.55633" lon="6.61561">
        <ele>153</ele>
        <time>2011-12-11T08:49:49Z</time>
      </trkpt>
      <trkpt lat="43.55632" lon="6.61556">
        <ele>153</ele>
        <time>2011-12-11T08:49:50Z</time>
      </trkpt>
      <trkpt lat="43.55631" lon="6.61551">
        <ele>153</ele>
        <time>2011-12-11T08:49:51Z</time>
      </trkpt>
      <trkpt lat="43.5563" lon="6.61547">
        <ele>153</ele>
        <time>2011-12-11T08:49:52Z</time>
      </trkpt>
      <trkpt lat="43.55629" lon="6.61543">
        <ele>153</ele>
        <time>2011-12-11T08:49:53Z</time>
      </trkpt>
      <trkpt lat="43.55628" lon="6.61539">
        <ele>153</ele>
        <time>2011-12-11T08:49:54Z</time>
      </trkpt>
      <trkpt lat="43.55627" lon="6.61535">
        <ele>153</ele>
        <time>2011-12-11T08:49:55Z</time>
      </trkpt>
      <trkpt lat="43.55626" lon="6.61531">
        <ele>153</ele>
        <time>2011-12-11T08:49:56Z</time>
      </trkpt>
      <trkpt lat="43.55626" lon="6.61528">
        <ele>153</ele>
        <time>2011-12-11T08:49:57Z</time>
      </trkpt>
      <trkpt lat="43.55625" lon="6.61525">
        <ele>153</ele>
        <time>2011-12-11T08:49:58Z</time>
      </trkpt>
      <trkpt lat="43.55625" lon="6.61523">
        <ele>152</ele>
        <time>2011-12-11T08:49:59Z</time>
      </trkpt>
      <trkpt lat="43.55624" lon="6.61521">
        <ele>152</ele>
        <time>2011-12-11T08:50:00Z</time>
      </trkpt>
      <trkpt lat="43.55624" lon="6.61518">
        <ele>152</ele>
        <time>2011-12-11T08:50:01Z</time>
      </trkpt>
      <trkpt lat="43.55623" lon="6.61515">
        <ele>152</ele>
        <time>2011-12-11T08:50:02Z</time>
      </trkpt>
      <trkpt lat="43.55623" lon="6.61512">
        <ele>152</ele>
        <time>2011-12-11T08:50:03Z</time>
      </trkpt>
      <trkpt lat="43.55623" lon="6.61508">
        <ele>152</ele>
        <time>2011-12-11T08:50:04Z</time>
      </trkpt>
      <trkpt lat="43.55622" lon="6.61505">
        <ele>152</ele>
        <time>2011-12-11T08:50:05Z</time>
      </trkpt>
      <trkpt lat="43.55621" lon="6.61501">
        <ele>152</ele>
        <time>2011-12-11T08:50:06Z</time>
      </trkpt>
      <trkpt lat="43.55619" lon="6.61498">
        <ele>152</ele>
        <time>2011-12-11T08:50:07Z</time>
      </trkpt>
      <trkpt lat="43.55617" lon="6.61496">
        <ele>152</ele>
        <time>2011-12-11T08:50:08Z</time>
      </trkpt>
      <trkpt lat="43.55615" lon="6.61492">
        <ele>152</ele>
        <time>2011-12-11T08:50:09Z</time>
      </trkpt>
      <trkpt lat="43.55613" lon="6.61489">
        <ele>152</ele>
        <time>2011-12-11T08:50:10Z</time>
      </trkpt>
      <trkpt lat="43.55611" lon="6.61484">
        <ele>152</ele>
        <time>2011-12-11T08:50:11Z</time>
      </trkpt>
      <trkpt lat="43.5561" lon="6.6148">
        <ele>152</ele>
        <time>2011-12-11T08:50:12Z</time>
      </trkpt>
      <trkpt lat="43.55609" lon="6.61476">
        <ele>152</ele>
        <time>2011-12-11T08:50:13Z</time>
      </trkpt>
      <trkpt lat="43.55608" lon="6.61471">
        <ele>152</ele>
        <time>2011-12-11T08:50:14Z</time>
      </trkpt>
      <trkpt lat="43.55607" lon="6.61466">
        <ele>152</ele>
        <time>2011-12-11T08:50:15Z</time>
      </trkpt>
      <trkpt lat="43.55606" lon="6.61461">
        <ele>152</ele>
        <time>2011-12-11T08:50:16Z</time>
      </trkpt>
      <trkpt lat="43.55605" lon="6.61456">
        <ele>152</ele>
        <time>2011-12-11T08:50:17Z</time>
      </trkpt>
      <trkpt lat="43.55604" lon="6.6145">
        <ele>152</ele>
        <time>2011-12-11T08:50:18Z</time>
      </trkpt>
      <trkpt lat="43.55603" lon="6.61445">
        <ele>152</ele>
        <time>2011-12-11T08:50:19Z</time>
      </trkpt>
      <trkpt lat="43.55601" lon="6.61439">
        <ele>152</ele>
        <time>2011-12-11T08:50:20Z</time>
      </trkpt>
      <trkpt lat="43.556" lon="6.61434">
        <ele>152</ele>
        <time>2011-12-11T08:50:21Z</time>
      </trkpt>
      <trkpt lat="43.55599" lon="6.61428">
        <ele>152</ele>
        <time>2011-12-11T08:50:22Z</time>
      </trkpt>
      <trkpt lat="43.55597" lon="6.61422">
        <ele>152</ele>
        <time>2011-12-11T08:50:23Z</time>
      </trkpt>
      <trkpt lat="43.55596" lon="6.61416">
        <ele>152</ele>
        <time>2011-12-11T08:50:24Z</time>
      </trkpt>
      <trkpt lat="43.55594" lon="6.6141">
        <ele>151</ele>
        <time>2011-12-11T08:50:25Z</time>
      </trkpt>
      <trkpt lat="43.55592" lon="6.61405">
        <ele>151</ele>
        <time>2011-12-11T08:50:26Z</time>
      </trkpt>
      <trkpt lat="43.5559" lon="6.614">
        <ele>151</ele>
        <time>2011-12-11T08:50:27Z</time>
      </trkpt>
      <trkpt lat="43.55588" lon="6.61396">
        <ele>151</ele>
        <time>2011-12-11T08:50:28Z</time>
      </trkpt>
      <trkpt lat="43.55585" lon="6.61392">
        <ele>151</ele>
        <time>2011-12-11T08:50:29Z</time>
      </trkpt>
      <trkpt lat="43.55582" lon="6.61389">
        <ele>151</ele>
        <time>2011-12-11T08:50:30Z</time>
      </trkpt>
      <trkpt lat="43.5558" lon="6.61385">
        <ele>151</ele>
        <time>2011-12-11T08:50:31Z</time>
      </trkpt>
      <trkpt lat="43.55578" lon="6.6138">
        <ele>151</ele>
        <time>2011-12-11T08:50:32Z</time>
      </trkpt>
      <trkpt lat="43.55576" lon="6.61376">
        <ele>151</ele>
        <time>2011-12-11T08:50:33Z</time>
      </trkpt>
      <trkpt lat="43.55574" lon="6.61372">
        <ele>151</ele>
        <time>2011-12-11T08:50:34Z</time>
      </trkpt>
      <trkpt lat="43.55572" lon="6.61368">
        <ele>151</ele>
        <time>2011-12-11T08:50:35Z</time>
      </trkpt>
      <trkpt lat="43.55571" lon="6.61364">
        <ele>151</ele>
        <time>2011-12-11T08:50:36Z</time>
      </trkpt>
      <trkpt lat="43.5557" lon="6.6136">
        <ele>151</ele>
        <time>2011-12-11T08:50:37Z</time>
      </trkpt>
      <trkpt lat="43.55569" lon="6.61355">
        <ele>151</ele>
        <time>2011-12-11T08:50:38Z</time>
      </trkpt>
      <trkpt lat="43.55569" lon="6.61351">
        <ele>151</ele>
        <time>2011-12-11T08:50:39Z</time>
      </trkpt>
      <trkpt lat="43.55569" lon="6.61347">
        <ele>151</ele>
        <time>2011-12-11T08:50:40Z</time>
      </trkpt>
      <trkpt lat="43.55571" lon="6.61343">
        <ele>151</ele>
        <time>2011-12-11T08:50:41Z</time>
      </trkpt>
      <trkpt lat="43.55573" lon="6.61339">
        <ele>151</ele>
        <time>2011-12-11T08:50:42Z</time>
      </trkpt>
      <trkpt lat="43.55575" lon="6.61335">
        <ele>151</ele>
        <time>2011-12-11T08:50:43Z</time>
      </trkpt>
      <trkpt lat="43.55578" lon="6.61332">
        <ele>151</ele>
        <time>2011-12-11T08:50:44Z</time>
      </trkpt>
      <trkpt lat="43.5558" lon="6.61329">
        <ele>151</ele>
        <time>2011-12-11T08:50:45Z</time>
      </trkpt>
      <trkpt lat="43.55582" lon="6.61326">
        <ele>151</ele>
        <time>2011-12-11T08:50:46Z</time>
      </trkpt>
      <trkpt lat="43.55584" lon="6.61323">
        <ele>151</ele>
        <time>2011-12-11T08:50:47Z</time>
      </trkpt>
      <trkpt lat="43.55585" lon="6.61319">
        <ele>151</ele>
        <time>2011-12-11T08:50:48Z</time>
      </trkpt>
      <trkpt lat="43.55586" lon="6.61316">
        <ele>151</ele>
        <time>2011-12-11T08:50:49Z</time>
      </trkpt>
      <trkpt lat="43.55586" lon="6.61313">
        <ele>151</ele>
        <time>2011-12-11T08:50:50Z</time>
      </trkpt>
      <trkpt lat="43.55587" lon="6.61309">
        <ele>152</ele>
        <time>2011-12-11T08:50:51Z</time>
      </trkpt>
      <trkpt lat="43.55587" lon="6.61306">
        <ele>152</ele>
        <time>2011-12-11T08:50:52Z</time>
      </trkpt>
      <trkpt lat="43.55587" lon="6.61303">
        <ele>152</ele>
        <time>2011-12-11T08:50:53Z</time>
      </trkpt>
      <trkpt lat="43.55588" lon="6.613">
        <ele>152</ele>
        <time>2011-12-11T08:50:54Z</time>
      </trkpt>
      <trkpt lat="43.55589" lon="6.61298">
        <ele>152</ele>
        <time>2011-12-11T08:50:55Z</time>
      </trkpt>
      <trkpt lat="43.55589" lon="6.61295">
        <ele>152</ele>
        <time>2011-12-11T08:50:56Z</time>
      </trkpt>
      <trkpt lat="43.55589" lon="6.61293">
        <ele>152</ele>
        <time>2011-12-11T08:50:57Z</time>
      </trkpt>
      <trkpt lat="43.55589" lon="6.61291">
        <ele>152</ele>
        <time>2011-12-11T08:50:58Z</time>
      </trkpt>
      <trkpt lat="43.55588" lon="6.61289">
        <ele>153</ele>
        <time>2011-12-11T08:50:59Z</time>
      </trkpt>
      <trkpt lat="43.55587" lon="6.61287">
        <ele>153</ele>
        <time>2011-12-11T08:51:00Z</time>
      </trkpt>
      <trkpt lat="43.55585" lon="6.61286">
        <ele>153</ele>
        <time>2011-12-11T08:51:01Z</time>
      </trkpt>
      <trkpt lat="43.55583" lon="6.61285">
        <ele>153</ele>
        <time>2011-12-11T08:51:02Z</time>
      </trkpt>
      <trkpt lat="43.55582" lon="6.61285">
        <ele>153</ele>
        <time>2011-12-11T08:51:03Z</time>
      </trkpt>
      <trkpt lat="43.55579" lon="6.61285">
        <ele>153</ele>
        <time>2011-12-11T08:51:04Z</time>
      </trkpt>
      <trkpt lat="43.55578" lon="6.61285">
        <ele>153</ele>
        <time>2011-12-11T08:51:05Z</time>
      </trkpt>
      <trkpt lat="43.55575" lon="6.61286">
        <ele>153</ele>
        <time>2011-12-11T08:51:06Z</time>
      </trkpt>
      <trkpt lat="43.55574" lon="6.61288">
        <ele>153</ele>
        <time>2011-12-11T08:51:07Z</time>
      </trkpt>
      <trkpt lat="43.55572" lon="6.61289">
        <ele>153</ele>
        <time>2011-12-11T08:51:08Z</time>
      </trkpt>
      <trkpt lat="43.5557" lon="6.6129">
        <ele>153</ele>
        <time>2011-12-11T08:51:09Z</time>
      </trkpt>
      <trkpt lat="43.55568" lon="6.61289">
        <ele>153</ele>
        <time>2011-12-11T08:51:10Z</time>
      </trkpt>
      <trkpt lat="43.55565" lon="6.61288">
        <ele>154</ele>
        <time>2011-12-11T08:51:11Z</time>
      </trkpt>
      <trkpt lat="43.55562" lon="6.61288">
        <ele>154</ele>
        <time>2011-12-11T08:51:12Z</time>
      </trkpt>
      <trkpt lat="43.5556" lon="6.61287">
        <ele>154</ele>
        <time>2011-12-11T08:51:13Z</time>
      </trkpt>
      <trkpt lat="43.55558" lon="6.61285">
        <ele>154</ele>
        <time>2011-12-11T08:51:14Z</time>
      </trkpt>
      <trkpt lat="43.55555" lon="6.61283">
        <ele>154</ele>
        <time>2011-12-11T08:51:15Z</time>
      </trkpt>
      <trkpt lat="43.55553" lon="6.61281">
        <ele>154</ele>
        <time>2011-12-11T08:51:16Z</time>
      </trkpt>
      <trkpt lat="43.55551" lon="6.61278">
        <ele>154</ele>
        <time>2011-12-11T08:51:17Z</time>
      </trkpt>
      <trkpt lat="43.55548" lon="6.61275">
        <ele>154</ele>
        <time>2011-12-11T08:51:18Z</time>
      </trkpt>
      <trkpt lat="43.55547" lon="6.61272">
        <ele>155</ele>
        <time>2011-12-11T08:51:19Z</time>
      </trkpt>
      <trkpt lat="43.55545" lon="6.61269">
        <ele>155</ele>
        <time>2011-12-11T08:51:20Z</time>
      </trkpt>
      <trkpt lat="43.55543" lon="6.61266">
        <ele>155</ele>
        <time>2011-12-11T08:51:21Z</time>
      </trkpt>
      <trkpt lat="43.55541" lon="6.61262">
        <ele>155</ele>
        <time>2011-12-11T08:51:22Z</time>
      </trkpt>
      <trkpt lat="43.55539" lon="6.61258">
        <ele>155</ele>
        <time>2011-12-11T08:51:23Z</time>
      </trkpt>
      <trkpt lat="43.55537" lon="6.61255">
        <ele>156</ele>
        <time>2011-12-11T08:51:24Z</time>
      </trkpt>
      <trkpt lat="43.55536" lon="6.61251">
        <ele>156</ele>
        <time>2011-12-11T08:51:25Z</time>
      </trkpt>
      <trkpt lat="43.55533" lon="6.61249">
        <ele>156</ele>
        <time>2011-12-11T08:51:26Z</time>
      </trkpt>
      <trkpt lat="43.5553" lon="6.61247">
        <ele>156</ele>
        <time>2011-12-11T08:51:27Z</time>
      </trkpt>
      <trkpt lat="43.55528" lon="6.61244">
        <ele>156</ele>
        <time>2011-12-11T08:51:28Z</time>
      </trkpt>
      <trkpt lat="43.55525" lon="6.61242">
        <ele>156</ele>
        <time>2011-12-11T08:51:29Z</time>
      </trkpt>
      <trkpt lat="43.55523" lon="6.61239">
        <ele>156</ele>
        <time>2011-12-11T08:51:30Z</time>
      </trkpt>
      <trkpt lat="43.5552" lon="6.61236">
        <ele>156</ele>
        <time>2011-12-11T08:51:31Z</time>
      </trkpt>
      <trkpt lat="43.55518" lon="6.61233">
        <ele>157</ele>
        <time>2011-12-11T08:51:32Z</time>
      </trkpt>
      <trkpt lat="43.55516" lon="6.61229">
        <ele>157</ele>
        <time>2011-12-11T08:51:33Z</time>
      </trkpt>
      <trkpt lat="43.55515" lon="6.61226">
        <ele>157</ele>
        <time>2011-12-11T08:51:34Z</time>
      </trkpt>
      <trkpt lat="43.55514" lon="6.61222">
        <ele>157</ele>
        <time>2011-12-11T08:51:35Z</time>
      </trkpt>
      <trkpt lat="43.55513" lon="6.61218">
        <ele>157</ele>
        <time>2011-12-11T08:51:36Z</time>
      </trkpt>
      <trkpt lat="43.55512" lon="6.61213">
        <ele>157</ele>
        <time>2011-12-11T08:51:37Z</time>
      </trkpt>
      <trkpt lat="43.55512" lon="6.61209">
        <ele>157</ele>
        <time>2011-12-11T08:51:38Z</time>
      </trkpt>
      <trkpt lat="43.55512" lon="6.61205">
        <ele>157</ele>
        <time>2011-12-11T08:51:39Z</time>
      </trkpt>
      <trkpt lat="43.55511" lon="6.61201">
        <ele>157</ele>
        <time>2011-12-11T08:51:40Z</time>
      </trkpt>
      <trkpt lat="43.5551" lon="6.61197">
        <ele>158</ele>
        <time>2011-12-11T08:51:41Z</time>
      </trkpt>
      <trkpt lat="43.5551" lon="6.61193">
        <ele>158</ele>
        <time>2011-12-11T08:51:42Z</time>
      </trkpt>
      <trkpt lat="43.55509" lon="6.6119">
        <ele>158</ele>
        <time>2011-12-11T08:51:43Z</time>
      </trkpt>
      <trkpt lat="43.55508" lon="6.61187">
        <ele>158</ele>
        <time>2011-12-11T08:51:44Z</time>
      </trkpt>
      <trkpt lat="43.55506" lon="6.61184">
        <ele>158</ele>
        <time>2011-12-11T08:51:45Z</time>
      </trkpt>
      <trkpt lat="43.55504" lon="6.61182">
        <ele>158</ele>
        <time>2011-12-11T08:51:46Z</time>
      </trkpt>
      <trkpt lat="43.55503" lon="6.6118">
        <ele>158</ele>
        <time>2011-12-11T08:51:47Z</time>
      </trkpt>
      <trkpt lat="43.55501" lon="6.61178">
        <ele>158</ele>
        <time>2011-12-11T08:51:48Z</time>
      </trkpt>
      <trkpt lat="43.55499" lon="6.61175">
        <ele>159</ele>
        <time>2011-12-11T08:51:49Z</time>
      </trkpt>
      <trkpt lat="43.55498" lon="6.61173">
        <ele>159</ele>
        <time>2011-12-11T08:51:50Z</time>
      </trkpt>
      <trkpt lat="43.55497" lon="6.61171">
        <ele>159</ele>
        <time>2011-12-11T08:51:51Z</time>
      </trkpt>
      <trkpt lat="43.55495" lon="6.61169">
        <ele>159</ele>
        <time>2011-12-11T08:51:52Z</time>
      </trkpt>
      <trkpt lat="43.55495" lon="6.61167">
        <ele>159</ele>
        <time>2011-12-11T08:51:53Z</time>
      </trkpt>
      <trkpt lat="43.55494" lon="6.61167">
        <ele>159</ele>
        <time>2011-12-11T08:51:55Z</time>
      </trkpt>
      <trkpt lat="43.55494" lon="6.61167">
        <ele>159</ele>
        <time>2011-12-11T08:51:56Z</time>
      </trkpt>
      <trkpt lat="43.55493" lon="6.61167">
        <ele>159</ele>
        <time>2011-12-11T08:51:57Z</time>
      </trkpt>
      <trkpt lat="43.55493" lon="6.61166">
        <ele>159</ele>
        <time>2011-12-11T08:51:58Z</time>
      </trkpt>
      <trkpt lat="43.55493" lon="6.61166">
        <ele>159</ele>
        <time>2011-12-11T08:51:59Z</time>
      </trkpt>
      <trkpt lat="43.55493" lon="6.61166">
        <ele>159</ele>
        <time>2011-12-11T08:52:00Z</time>
      </trkpt>
      <trkpt lat="43.55492" lon="6.61165">
        <ele>160</ele>
        <time>2011-12-11T08:52:02Z</time>
      </trkpt>
      <trkpt lat="43.55492" lon="6.61164">
        <ele>160</ele>
        <time>2011-12-11T08:52:03Z</time>
      </trkpt>
      <trkpt lat="43.55492" lon="6.61163">
        <ele>160</ele>
        <time>2011-12-11T08:52:04Z</time>
      </trkpt>
      <trkpt lat="43.55492" lon="6.61161">
        <ele>160</ele>
        <time>2011-12-11T08:52:05Z</time>
      </trkpt>
      <trkpt lat="43.55492" lon="6.61159">
        <ele>160</ele>
        <time>2011-12-11T08:52:06Z</time>
      </trkpt>
      <trkpt lat="43.55492" lon="6.61158">
        <ele>160</ele>
        <time>2011-12-11T08:52:07Z</time>
      </trkpt>
      <trkpt lat="43.55491" lon="6.61157">
        <ele>160</ele>
        <time>2011-12-11T08:52:08Z</time>
      </trkpt>
      <trkpt lat="43.55491" lon="6.61156">
        <ele>160</ele>
        <time>2011-12-11T08:52:09Z</time>
      </trkpt>
      <trkpt lat="43.55491" lon="6.61154">
        <ele>160</ele>
        <time>2011-12-11T08:52:10Z</time>
      </trkpt>
      <trkpt lat="43.55491" lon="6.61154">
        <ele>160</ele>
        <time>2011-12-11T08:52:14Z</time>
      </trkpt>
      <trkpt lat="43.5549" lon="6.61152">
        <ele>160</ele>
        <time>2011-12-11T08:52:15Z</time>
      </trkpt>
      <trkpt lat="43.5549" lon="6.61151">
        <ele>161</ele>
        <time>2011-12-11T08:52:16Z</time>
      </trkpt>
      <trkpt lat="43.55489" lon="6.61149">
        <ele>161</ele>
        <time>2011-12-11T08:52:17Z</time>
      </trkpt>
      <trkpt lat="43.55488" lon="6.61147">
        <ele>161</ele>
        <time>2011-12-11T08:52:18Z</time>
      </trkpt>
      <trkpt lat="43.55488" lon="6.61145">
        <ele>161</ele>
        <time>2011-12-11T08:52:19Z</time>
      </trkpt>
      <trkpt lat="43.55487" lon="6.61142">
        <ele>161</ele>
        <time>2011-12-11T08:52:20Z</time>
      </trkpt>
      <trkpt lat="43.55486" lon="6.61139">
        <ele>162</ele>
        <time>2011-12-11T08:52:21Z</time>
      </trkpt>
      <trkpt lat="43.55485" lon="6.61136">
        <ele>162</ele>
        <time>2011-12-11T08:52:22Z</time>
      </trkpt>
      <trkpt lat="43.55484" lon="6.61133">
        <ele>162</ele>
        <time>2011-12-11T08:52:23Z</time>
      </trkpt>
      <trkpt lat="43.55483" lon="6.6113">
        <ele>162</ele>
        <time>2011-12-11T08:52:24Z</time>
      </trkpt>
      <trkpt lat="43.55482" lon="6.61127">
        <ele>162</ele>
        <time>2011-12-11T08:52:25Z</time>
      </trkpt>
      <trkpt lat="43.55481" lon="6.61125">
        <ele>162</ele>
        <time>2011-12-11T08:52:26Z</time>
      </trkpt>
      <trkpt lat="43.5548" lon="6.61122">
        <ele>163</ele>
        <time>2011-12-11T08:52:27Z</time>
      </trkpt>
      <trkpt lat="43.55479" lon="6.61119">
        <ele>163</ele>
        <time>2011-12-11T08:52:28Z</time>
      </trkpt>
      <trkpt lat="43.55478" lon="6.61117">
        <ele>163</ele>
        <time>2011-12-11T08:52:29Z</time>
      </trkpt>
      <trkpt lat="43.55476" lon="6.61115">
        <ele>163</ele>
        <time>2011-12-11T08:52:30Z</time>
      </trkpt>
      <trkpt lat="43.55475" lon="6.61113">
        <ele>163</ele>
        <time>2011-12-11T08:52:31Z</time>
      </trkpt>
      <trkpt lat="43.55474" lon="6.6111">
        <ele>163</ele>
        <time>2011-12-11T08:52:32Z</time>
      </trkpt>
      <trkpt lat="43.55472" lon="6.61108">
        <ele>164</ele>
        <time>2011-12-11T08:52:33Z</time>
      </trkpt>
      <trkpt lat="43.55472" lon="6.61105">
        <ele>164</ele>
        <time>2011-12-11T08:52:34Z</time>
      </trkpt>
      <trkpt lat="43.55471" lon="6.61101">
        <ele>164</ele>
        <time>2011-12-11T08:52:35Z</time>
      </trkpt>
      <trkpt lat="43.55471" lon="6.61099">
        <ele>164</ele>
        <time>2011-12-11T08:52:36Z</time>
      </trkpt>
      <trkpt lat="43.5547" lon="6.61096">
        <ele>164</ele>
        <time>2011-12-11T08:52:37Z</time>
      </trkpt>
      <trkpt lat="43.55469" lon="6.61093">
        <ele>164</ele>
        <time>2011-12-11T08:52:38Z</time>
      </trkpt>
      <trkpt lat="43.55469" lon="6.6109">
        <ele>165</ele>
        <time>2011-12-11T08:52:39Z</time>
      </trkpt>
      <trkpt lat="43.55468" lon="6.61087">
        <ele>165</ele>
        <time>2011-12-11T08:52:40Z</time>
      </trkpt>
      <trkpt lat="43.55467" lon="6.61085">
        <ele>165</ele>
        <time>2011-12-11T08:52:41Z</time>
      </trkpt>
      <trkpt lat="43.55467" lon="6.61082">
        <ele>165</ele>
        <time>2011-12-11T08:52:42Z</time>
      </trkpt>
      <trkpt lat="43.55466" lon="6.61079">
        <ele>165</ele>
        <time>2011-12-11T08:52:43Z</time>
      </trkpt>
      <trkpt lat="43.55466" lon="6.61076">
        <ele>165</ele>
        <time>2011-12-11T08:52:44Z</time>
      </trkpt>
      <trkpt lat="43.55465" lon="6.61073">
        <ele>165</ele>
        <time>2011-12-11T08:52:45Z</time>
      </trkpt>
      <trkpt lat="43.55465" lon="6.6107">
        <ele>165</ele>
        <time>2011-12-11T08:52:46Z</time>
      </trkpt>
      <trkpt lat="43.55464" lon="6.61067">
        <ele>165</ele>
        <time>2011-12-11T08:52:47Z</time>
      </trkpt>
      <trkpt lat="43.55463" lon="6.61064">
        <ele>165</ele>
        <time>2011-12-11T08:52:48Z</time>
      </trkpt>
      <trkpt lat="43.55463" lon="6.61061">
        <ele>166</ele>
        <time>2011-12-11T08:52:49Z</time>
      </trkpt>
      <trkpt lat="43.55462" lon="6.61058">
        <ele>166</ele>
        <time>2011-12-11T08:52:50Z</time>
      </trkpt>
      <trkpt lat="43.55462" lon="6.61055">
        <ele>166</ele>
        <time>2011-12-11T08:52:51Z</time>
      </trkpt>
      <trkpt lat="43.55461" lon="6.61052">
        <ele>166</ele>
        <time>2011-12-11T08:52:52Z</time>
      </trkpt>
      <trkpt lat="43.5546" lon="6.61049">
        <ele>166</ele>
        <time>2011-12-11T08:52:53Z</time>
      </trkpt>
      <trkpt lat="43.55459" lon="6.61046">
        <ele>167</ele>
        <time>2011-12-11T08:52:54Z</time>
      </trkpt>
      <trkpt lat="43.55458" lon="6.61043">
        <ele>167</ele>
        <time>2011-12-11T08:52:55Z</time>
      </trkpt>
      <trkpt lat="43.55457" lon="6.6104">
        <ele>167</ele>
        <time>2011-12-11T08:52:56Z</time>
      </trkpt>
      <trkpt lat="43.55457" lon="6.61038">
        <ele>167</ele>
        <time>2011-12-11T08:52:57Z</time>
      </trkpt>
      <trkpt lat="43.55456" lon="6.61036">
        <ele>167</ele>
        <time>2011-12-11T08:52:58Z</time>
      </trkpt>
      <trkpt lat="43.55455" lon="6.61033">
        <ele>168</ele>
        <time>2011-12-11T08:52:59Z</time>
      </trkpt>
      <trkpt lat="43.55454" lon="6.6103">
        <ele>168</ele>
        <time>2011-12-11T08:53:00Z</time>
      </trkpt>
      <trkpt lat="43.55453" lon="6.61028">
        <ele>168</ele>
        <time>2011-12-11T08:53:01Z</time>
      </trkpt>
      <trkpt lat="43.55452" lon="6.61026">
        <ele>168</ele>
        <time>2011-12-11T08:53:02Z</time>
      </trkpt>
      <trkpt lat="43.55451" lon="6.61023">
        <ele>168</ele>
        <time>2011-12-11T08:53:03Z</time>
      </trkpt>
      <trkpt lat="43.5545" lon="6.6102">
        <ele>169</ele>
        <time>2011-12-11T08:53:04Z</time>
      </trkpt>
      <trkpt lat="43.55448" lon="6.61018">
        <ele>169</ele>
        <time>2011-12-11T08:53:05Z</time>
      </trkpt>
      <trkpt lat="43.55446" lon="6.61016">
        <ele>169</ele>
        <time>2011-12-11T08:53:06Z</time>
      </trkpt>
      <trkpt lat="43.55445" lon="6.61014">
        <ele>169</ele>
        <time>2011-12-11T08:53:07Z</time>
      </trkpt>
      <trkpt lat="43.55443" lon="6.61011">
        <ele>169</ele>
        <time>2011-12-11T08:53:08Z</time>
      </trkpt>
      <trkpt lat="43.55442" lon="6.61008">
        <ele>170</ele>
        <time>2011-12-11T08:53:09Z</time>
      </trkpt>
      <trkpt lat="43.55441" lon="6.61005">
        <ele>170</ele>
        <time>2011-12-11T08:53:10Z</time>
      </trkpt>
      <trkpt lat="43.5544" lon="6.61003">
        <ele>170</ele>
        <time>2011-12-11T08:53:11Z</time>
      </trkpt>
      <trkpt lat="43.55439" lon="6.60999">
        <ele>170</ele>
        <time>2011-12-11T08:53:12Z</time>
      </trkpt>
      <trkpt lat="43.55439" lon="6.60996">
        <ele>170</ele>
        <time>2011-12-11T08:53:13Z</time>
      </trkpt>
      <trkpt lat="43.55438" lon="6.60993">
        <ele>170</ele>
        <time>2011-12-11T08:53:14Z</time>
      </trkpt>
      <trkpt lat="43.55438" lon="6.6099">
        <ele>170</ele>
        <time>2011-12-11T08:53:15Z</time>
      </trkpt>
      <trkpt lat="43.55437" lon="6.60987">
        <ele>170</ele>
        <time>2011-12-11T08:53:16Z</time>
      </trkpt>
      <trkpt lat="43.55436" lon="6.60984">
        <ele>170</ele>
        <time>2011-12-11T08:53:17Z</time>
      </trkpt>
      <trkpt lat="43.55434" lon="6.60982">
        <ele>170</ele>
        <time>2011-12-11T08:53:18Z</time>
      </trkpt>
      <trkpt lat="43.55433" lon="6.6098">
        <ele>170</ele>
        <time>2011-12-11T08:53:19Z</time>
      </trkpt>
      <trkpt lat="43.5543" lon="6.60979">
        <ele>171</ele>
        <time>2011-12-11T08:53:20Z</time>
      </trkpt>
      <trkpt lat="43.55429" lon="6.60978">
        <ele>171</ele>
        <time>2011-12-11T08:53:21Z</time>
      </trkpt>
      <trkpt lat="43.55427" lon="6.60976">
        <ele>171</ele>
        <time>2011-12-11T08:53:22Z</time>
      </trkpt>
      <trkpt lat="43.55425" lon="6.60975">
        <ele>171</ele>
        <time>2011-12-11T08:53:23Z</time>
      </trkpt>
      <trkpt lat="43.55422" lon="6.60973">
        <ele>171</ele>
        <time>2011-12-11T08:53:24Z</time>
      </trkpt>
      <trkpt lat="43.5542" lon="6.60973">
        <ele>171</ele>
        <time>2011-12-11T08:53:25Z</time>
      </trkpt>
      <trkpt lat="43.55418" lon="6.60972">
        <ele>171</ele>
        <time>2011-12-11T08:53:26Z</time>
      </trkpt>
      <trkpt lat="43.55416" lon="6.60971">
        <ele>171</ele>
        <time>2011-12-11T08:53:27Z</time>
      </trkpt>
      <trkpt lat="43.55413" lon="6.6097">
        <ele>171</ele>
        <time>2011-12-11T08:53:28Z</time>
      </trkpt>
      <trkpt lat="43.5541" lon="6.60968">
        <ele>172</ele>
        <time>2011-12-11T08:53:29Z</time>
      </trkpt>
      <trkpt lat="43.55407" lon="6.60966">
        <ele>172</ele>
        <time>2011-12-11T08:53:30Z</time>
      </trkpt>
      <trkpt lat="43.55404" lon="6.60964">
        <ele>172</ele>
        <time>2011-12-11T08:53:31Z</time>
      </trkpt>
      <trkpt lat="43.55401" lon="6.60961">
        <ele>172</ele>
        <time>2011-12-11T08:53:32Z</time>
      </trkpt>
      <trkpt lat="43.55397" lon="6.60959">
        <ele>172</ele>
        <time>2011-12-11T08:53:33Z</time>
      </trkpt>
      <trkpt lat="43.55395" lon="6.60957">
        <ele>172</ele>
        <time>2011-12-11T08:53:34Z</time>
      </trkpt>
      <trkpt lat="43.55392" lon="6.60955">
        <ele>172</ele>
        <time>2011-12-11T08:53:35Z</time>
      </trkpt>
      <trkpt lat="43.5539" lon="6.60953">
        <ele>172</ele>
        <time>2011-12-11T08:53:36Z</time>
      </trkpt>
      <trkpt lat="43.55387" lon="6.60952">
        <ele>172</ele>
        <time>2011-12-11T08:53:37Z</time>
      </trkpt>
      <trkpt lat="43.55384" lon="6.60951">
        <ele>172</ele>
        <time>2011-12-11T08:53:38Z</time>
      </trkpt>
      <trkpt lat="43.55381" lon="6.60949">
        <ele>173</ele>
        <time>2011-12-11T08:53:39Z</time>
      </trkpt>
      <trkpt lat="43.55379" lon="6.60947">
        <ele>173</ele>
        <time>2011-12-11T08:53:40Z</time>
      </trkpt>
      <trkpt lat="43.55376" lon="6.60945">
        <ele>173</ele>
        <time>2011-12-11T08:53:41Z</time>
      </trkpt>
      <trkpt lat="43.55373" lon="6.60943">
        <ele>173</ele>
        <time>2011-12-11T08:53:42Z</time>
      </trkpt>
      <trkpt lat="43.55371" lon="6.60941">
        <ele>173</ele>
        <time>2011-12-11T08:53:43Z</time>
      </trkpt>
      <trkpt lat="43.55367" lon="6.60939">
        <ele>172</ele>
        <time>2011-12-11T08:53:44Z</time>
      </trkpt>
      <trkpt lat="43.55364" lon="6.60936">
        <ele>172</ele>
        <time>2011-12-11T08:53:45Z</time>
      </trkpt>
      <trkpt lat="43.55361" lon="6.60934">
        <ele>172</ele>
        <time>2011-12-11T08:53:46Z</time>
      </trkpt>
      <trkpt lat="43.55357" lon="6.60932">
        <ele>172</ele>
        <time>2011-12-11T08:53:47Z</time>
      </trkpt>
      <trkpt lat="43.55354" lon="6.6093">
        <ele>172</ele>
        <time>2011-12-11T08:53:48Z</time>
      </trkpt>
      <trkpt lat="43.5535" lon="6.60928">
        <ele>172</ele>
        <time>2011-12-11T08:53:49Z</time>
      </trkpt>
      <trkpt lat="43.55348" lon="6.60926">
        <ele>171</ele>
        <time>2011-12-11T08:53:50Z</time>
      </trkpt>
      <trkpt lat="43.55345" lon="6.60924">
        <ele>171</ele>
        <time>2011-12-11T08:53:51Z</time>
      </trkpt>
      <trkpt lat="43.55342" lon="6.60922">
        <ele>170</ele>
        <time>2011-12-11T08:53:52Z</time>
      </trkpt>
      <trkpt lat="43.55338" lon="6.60919">
        <ele>170</ele>
        <time>2011-12-11T08:53:53Z</time>
      </trkpt>
      <trkpt lat="43.55335" lon="6.60916">
        <ele>169</ele>
        <time>2011-12-11T08:53:54Z</time>
      </trkpt>
      <trkpt lat="43.55332" lon="6.60913">
        <ele>169</ele>
        <time>2011-12-11T08:53:55Z</time>
      </trkpt>
      <trkpt lat="43.55329" lon="6.6091">
        <ele>168</ele>
        <time>2011-12-11T08:53:56Z</time>
      </trkpt>
      <trkpt lat="43.55327" lon="6.60907">
        <ele>167</ele>
        <time>2011-12-11T08:53:57Z</time>
      </trkpt>
      <trkpt lat="43.55324" lon="6.60904">
        <ele>167</ele>
        <time>2011-12-11T08:53:58Z</time>
      </trkpt>
      <trkpt lat="43.55322" lon="6.609">
        <ele>166</ele>
        <time>2011-12-11T08:53:59Z</time>
      </trkpt>
      <trkpt lat="43.5532" lon="6.60896">
        <ele>165</ele>
        <time>2011-12-11T08:54:00Z</time>
      </trkpt>
      <trkpt lat="43.55318" lon="6.60892">
        <ele>164</ele>
        <time>2011-12-11T08:54:01Z</time>
      </trkpt>
      <trkpt lat="43.55317" lon="6.60888">
        <ele>164</ele>
        <time>2011-12-11T08:54:02Z</time>
      </trkpt>
      <trkpt lat="43.55316" lon="6.60884">
        <ele>163</ele>
        <time>2011-12-11T08:54:03Z</time>
      </trkpt>
      <trkpt lat="43.55316" lon="6.60879">
        <ele>163</ele>
        <time>2011-12-11T08:54:04Z</time>
      </trkpt>
      <trkpt lat="43.55317" lon="6.60873">
        <ele>162</ele>
        <time>2011-12-11T08:54:05Z</time>
      </trkpt>
      <trkpt lat="43.55318" lon="6.60867">
        <ele>161</ele>
        <time>2011-12-11T08:54:06Z</time>
      </trkpt>
      <trkpt lat="43.55319" lon="6.60861">
        <ele>161</ele>
        <time>2011-12-11T08:54:07Z</time>
      </trkpt>
      <trkpt lat="43.55321" lon="6.60854">
        <ele>160</ele>
        <time>2011-12-11T08:54:08Z</time>
      </trkpt>
      <trkpt lat="43.55306" lon="6.60784">
        <ele>154</ele>
        <time>2011-12-11T08:54:18Z</time>
      </trkpt>
      <trkpt lat="43.55272" lon="6.6073">
        <ele>149</ele>
        <time>2011-12-11T08:54:28Z</time>
      </trkpt>
      <trkpt lat="43.55268" lon="6.60726">
        <ele>148</ele>
        <time>2011-12-11T08:54:29Z</time>
      </trkpt>
      <trkpt lat="43.55264" lon="6.60723">
        <ele>147</ele>
        <time>2011-12-11T08:54:30Z</time>
      </trkpt>
      <trkpt lat="43.55261" lon="6.60721">
        <ele>147</ele>
        <time>2011-12-11T08:54:31Z</time>
      </trkpt>
      <trkpt lat="43.55259" lon="6.60718">
        <ele>146</ele>
        <time>2011-12-11T08:54:32Z</time>
      </trkpt>
      <trkpt lat="43.55256" lon="6.60715">
        <ele>145</ele>
        <time>2011-12-11T08:54:33Z</time>
      </trkpt>
      <trkpt lat="43.55253" lon="6.60714">
        <ele>144</ele>
        <time>2011-12-11T08:54:34Z</time>
      </trkpt>
      <trkpt lat="43.5525" lon="6.60714">
        <ele>144</ele>
        <time>2011-12-11T08:54:35Z</time>
      </trkpt>
      <trkpt lat="43.55248" lon="6.60716">
        <ele>143</ele>
        <time>2011-12-11T08:54:36Z</time>
      </trkpt>
      <trkpt lat="43.55245" lon="6.60719">
        <ele>143</ele>
        <time>2011-12-11T08:54:37Z</time>
      </trkpt>
      <trkpt lat="43.55243" lon="6.60721">
        <ele>142</ele>
        <time>2011-12-11T08:54:38Z</time>
      </trkpt>
      <trkpt lat="43.55241" lon="6.60722">
        <ele>142</ele>
        <time>2011-12-11T08:54:39Z</time>
      </trkpt>
      <trkpt lat="43.5524" lon="6.60723">
        <ele>141</ele>
        <time>2011-12-11T08:54:40Z</time>
      </trkpt>
      <trkpt lat="43.55238" lon="6.60724">
        <ele>141</ele>
        <time>2011-12-11T08:54:41Z</time>
      </trkpt>
      <trkpt lat="43.55236" lon="6.60725">
        <ele>140</ele>
        <time>2011-12-11T08:54:42Z</time>
      </trkpt>
      <trkpt lat="43.55234" lon="6.60726">
        <ele>140</ele>
        <time>2011-12-11T08:54:43Z</time>
      </trkpt>
      <trkpt lat="43.55233" lon="6.60726">
        <ele>140</ele>
        <time>2011-12-11T08:54:44Z</time>
      </trkpt>
      <trkpt lat="43.55231" lon="6.60726">
        <ele>139</ele>
        <time>2011-12-11T08:54:45Z</time>
      </trkpt>
      <trkpt lat="43.55229" lon="6.60726">
        <ele>139</ele>
        <time>2011-12-11T08:54:46Z</time>
      </trkpt>
      <trkpt lat="43.55227" lon="6.60727">
        <ele>139</ele>
        <time>2011-12-11T08:54:47Z</time>
      </trkpt>
      <trkpt lat="43.55225" lon="6.60728">
        <ele>138</ele>
        <time>2011-12-11T08:54:48Z</time>
      </trkpt>
      <trkpt lat="43.55224" lon="6.60728">
        <ele>138</ele>
        <time>2011-12-11T08:54:49Z</time>
      </trkpt>
      <trkpt lat="43.55224" lon="6.60729">
        <ele>138</ele>
        <time>2011-12-11T08:54:50Z</time>
      </trkpt>
      <trkpt lat="43.55224" lon="6.60729">
        <ele>138</ele>
        <time>2011-12-11T08:54:51Z</time>
      </trkpt>
      <trkpt lat="43.55224" lon="6.6073">
        <ele>138</ele>
        <time>2011-12-11T08:54:52Z</time>
      </trkpt>
      <trkpt lat="43.55224" lon="6.60729">
        <ele>138</ele>
        <time>2011-12-11T08:55:12Z</time>
      </trkpt>
      <trkpt lat="43.55223" lon="6.60728">
        <ele>138</ele>
        <time>2011-12-11T08:55:14Z</time>
      </trkpt>
      <trkpt lat="43.55223" lon="6.60728">
        <ele>138</ele>
        <time>2011-12-11T08:55:18Z</time>
      </trkpt>
      <trkpt lat="43.55222" lon="6.60727">
        <ele>138</ele>
        <time>2011-12-11T08:55:19Z</time>
      </trkpt>
      <trkpt lat="43.5522" lon="6.60726">
        <ele>138</ele>
        <time>2011-12-11T08:55:20Z</time>
      </trkpt>
      <trkpt lat="43.55219" lon="6.60725">
        <ele>138</ele>
        <time>2011-12-11T08:55:21Z</time>
      </trkpt>
      <trkpt lat="43.55218" lon="6.60723">
        <ele>138</ele>
        <time>2011-12-11T08:55:22Z</time>
      </trkpt>
      <trkpt lat="43.55217" lon="6.60721">
        <ele>138</ele>
        <time>2011-12-11T08:55:23Z</time>
      </trkpt>
      <trkpt lat="43.55217" lon="6.6072">
        <ele>138</ele>
        <time>2011-12-11T08:55:24Z</time>
      </trkpt>
      <trkpt lat="43.55216" lon="6.60719">
        <ele>138</ele>
        <time>2011-12-11T08:55:25Z</time>
      </trkpt>
      <trkpt lat="43.55215" lon="6.60717">
        <ele>138</ele>
        <time>2011-12-11T08:55:26Z</time>
      </trkpt>
      <trkpt lat="43.55213" lon="6.60715">
        <ele>138</ele>
        <time>2011-12-11T08:55:27Z</time>
      </trkpt>
      <trkpt lat="43.55211" lon="6.60713">
        <ele>137</ele>
        <time>2011-12-11T08:55:28Z</time>
      </trkpt>
      <trkpt lat="43.55208" lon="6.60711">
        <ele>137</ele>
        <time>2011-12-11T08:55:29Z</time>
      </trkpt>
      <trkpt lat="43.55205" lon="6.60709">
        <ele>137</ele>
        <time>2011-12-11T08:55:30Z</time>
      </trkpt>
      <trkpt lat="43.55203" lon="6.60708">
        <ele>136</ele>
        <time>2011-12-11T08:55:31Z</time>
      </trkpt>
      <trkpt lat="43.552" lon="6.60707">
        <ele>136</ele>
        <time>2011-12-11T08:55:32Z</time>
      </trkpt>
      <trkpt lat="43.55198" lon="6.60707">
        <ele>136</ele>
        <time>2011-12-11T08:55:33Z</time>
      </trkpt>
      <trkpt lat="43.55196" lon="6.60706">
        <ele>136</ele>
        <time>2011-12-11T08:55:34Z</time>
      </trkpt>
      <trkpt lat="43.55194" lon="6.60705">
        <ele>135</ele>
        <time>2011-12-11T08:55:35Z</time>
      </trkpt>
      <trkpt lat="43.55191" lon="6.60705">
        <ele>135</ele>
        <time>2011-12-11T08:55:36Z</time>
      </trkpt>
      <trkpt lat="43.55189" lon="6.60704">
        <ele>135</ele>
        <time>2011-12-11T08:55:37Z</time>
      </trkpt>
      <trkpt lat="43.55187" lon="6.60704">
        <ele>135</ele>
        <time>2011-12-11T08:55:38Z</time>
      </trkpt>
      <trkpt lat="43.55185" lon="6.60704">
        <ele>135</ele>
        <time>2011-12-11T08:55:39Z</time>
      </trkpt>
      <trkpt lat="43.55184" lon="6.60704">
        <ele>135</ele>
        <time>2011-12-11T08:55:40Z</time>
      </trkpt>
      <trkpt lat="43.55183" lon="6.60704">
        <ele>135</ele>
        <time>2011-12-11T08:56:51Z</time>
      </trkpt>
      <trkpt lat="43.55183" lon="6.60704">
        <ele>135</ele>
        <time>2011-12-11T08:57:34Z</time>
      </trkpt>
      <trkpt lat="43.55182" lon="6.60705">
        <ele>135</ele>
        <time>2011-12-11T08:57:35Z</time>
      </trkpt>
      <trkpt lat="43.55181" lon="6.60705">
        <ele>135</ele>
        <time>2011-12-11T08:57:36Z</time>
      </trkpt>
      <trkpt lat="43.55179" lon="6.60705">
        <ele>135</ele>
        <time>2011-12-11T08:57:37Z</time>
      </trkpt>
      <trkpt lat="43.55177" lon="6.60705">
        <ele>135</ele>
        <time>2011-12-11T08:57:38Z</time>
      </trkpt>
      <trkpt lat="43.55175" lon="6.60704">
        <ele>135</ele>
        <time>2011-12-11T08:57:39Z</time>
      </trkpt>
      <trkpt lat="43.55174" lon="6.60704">
        <ele>135</ele>
        <time>2011-12-11T08:57:40Z</time>
      </trkpt>
      <trkpt lat="43.55172" lon="6.60703">
        <ele>135</ele>
        <time>2011-12-11T08:57:41Z</time>
      </trkpt>
      <trkpt lat="43.5517" lon="6.60702">
        <ele>135</ele>
        <time>2011-12-11T08:57:42Z</time>
      </trkpt>
      <trkpt lat="43.55168" lon="6.60702">
        <ele>135</ele>
        <time>2011-12-11T08:57:43Z</time>
      </trkpt>
      <trkpt lat="43.55165" lon="6.60702">
        <ele>135</ele>
        <time>2011-12-11T08:57:44Z</time>
      </trkpt>
      <trkpt lat="43.55163" lon="6.60702">
        <ele>135</ele>
        <time>2011-12-11T08:57:45Z</time>
      </trkpt>
      <trkpt lat="43.5516" lon="6.60701">
        <ele>135</ele>
        <time>2011-12-11T08:57:46Z</time>
      </trkpt>
      <trkpt lat="43.55158" lon="6.60701">
        <ele>135</ele>
        <time>2011-12-11T08:57:47Z</time>
      </trkpt>
      <trkpt lat="43.55156" lon="6.60701">
        <ele>136</ele>
        <time>2011-12-11T08:57:48Z</time>
      </trkpt>
      <trkpt lat="43.55153" lon="6.607">
        <ele>136</ele>
        <time>2011-12-11T08:57:49Z</time>
      </trkpt>
      <trkpt lat="43.55151" lon="6.60699">
        <ele>136</ele>
        <time>2011-12-11T08:57:50Z</time>
      </trkpt>
      <trkpt lat="43.55149" lon="6.60698">
        <ele>136</ele>
        <time>2011-12-11T08:57:51Z</time>
      </trkpt>
      <trkpt lat="43.55147" lon="6.60696">
        <ele>136</ele>
        <time>2011-12-11T08:57:52Z</time>
      </trkpt>
      <trkpt lat="43.55145" lon="6.60695">
        <ele>136</ele>
        <time>2011-12-11T08:57:53Z</time>
      </trkpt>
      <trkpt lat="43.55143" lon="6.60694">
        <ele>136</ele>
        <time>2011-12-11T08:57:54Z</time>
      </trkpt>
      <trkpt lat="43.55141" lon="6.60693">
        <ele>136</ele>
        <time>2011-12-11T08:57:55Z</time>
      </trkpt>
      <trkpt lat="43.55139" lon="6.60692">
        <ele>136</ele>
        <time>2011-12-11T08:57:56Z</time>
      </trkpt>
      <trkpt lat="43.55137" lon="6.60691">
        <ele>136</ele>
        <time>2011-12-11T08:57:57Z</time>
      </trkpt>
      <trkpt lat="43.55135" lon="6.60689">
        <ele>137</ele>
        <time>2011-12-11T08:57:58Z</time>
      </trkpt>
      <trkpt lat="43.55133" lon="6.60688">
        <ele>137</ele>
        <time>2011-12-11T08:57:59Z</time>
      </trkpt>
      <trkpt lat="43.55131" lon="6.60686">
        <ele>137</ele>
        <time>2011-12-11T08:58:00Z</time>
      </trkpt>
      <trkpt lat="43.55129" lon="6.60684">
        <ele>137</ele>
        <time>2011-12-11T08:58:01Z</time>
      </trkpt>
      <trkpt lat="43.55128" lon="6.60682">
        <ele>137</ele>
        <time>2011-12-11T08:58:02Z</time>
      </trkpt>
      <trkpt lat="43.55126" lon="6.6068">
        <ele>137</ele>
        <time>2011-12-11T08:58:03Z</time>
      </trkpt>
      <trkpt lat="43.55125" lon="6.60677">
        <ele>137</ele>
        <time>2011-12-11T08:58:04Z</time>
      </trkpt>
      <trkpt lat="43.55123" lon="6.60675">
        <ele>137</ele>
        <time>2011-12-11T08:58:05Z</time>
      </trkpt>
      <trkpt lat="43.55122" lon="6.60672">
        <ele>137</ele>
        <time>2011-12-11T08:58:06Z</time>
      </trkpt>
      <trkpt lat="43.5512" lon="6.6067">
        <ele>137</ele>
        <time>2011-12-11T08:58:07Z</time>
      </trkpt>
      <trkpt lat="43.55118" lon="6.60667">
        <ele>138</ele>
        <time>2011-12-11T08:58:08Z</time>
      </trkpt>
      <trkpt lat="43.55117" lon="6.60664">
        <ele>138</ele>
        <time>2011-12-11T08:58:09Z</time>
      </trkpt>
      <trkpt lat="43.55115" lon="6.60661">
        <ele>138</ele>
        <time>2011-12-11T08:58:10Z</time>
      </trkpt>
      <trkpt lat="43.55113" lon="6.60659">
        <ele>138</ele>
        <time>2011-12-11T08:58:11Z</time>
      </trkpt>
      <trkpt lat="43.55111" lon="6.60656">
        <ele>138</ele>
        <time>2011-12-11T08:58:12Z</time>
      </trkpt>
      <trkpt lat="43.55109" lon="6.60654">
        <ele>138</ele>
        <time>2011-12-11T08:58:13Z</time>
      </trkpt>
      <trkpt lat="43.55107" lon="6.60652">
        <ele>138</ele>
        <time>2011-12-11T08:58:14Z</time>
      </trkpt>
      <trkpt lat="43.55105" lon="6.60649">
        <ele>138</ele>
        <time>2011-12-11T08:58:15Z</time>
      </trkpt>
      <trkpt lat="43.55103" lon="6.60647">
        <ele>138</ele>
        <time>2011-12-11T08:58:16Z</time>
      </trkpt>
      <trkpt lat="43.55101" lon="6.60645">
        <ele>138</ele>
        <time>2011-12-11T08:58:17Z</time>
      </trkpt>
      <trkpt lat="43.55099" lon="6.60643">
        <ele>138</ele>
        <time>2011-12-11T08:58:18Z</time>
      </trkpt>
      <trkpt lat="43.55098" lon="6.60641">
        <ele>139</ele>
        <time>2011-12-11T08:58:19Z</time>
      </trkpt>
      <trkpt lat="43.55096" lon="6.60639">
        <ele>139</ele>
        <time>2011-12-11T08:58:20Z</time>
      </trkpt>
      <trkpt lat="43.55094" lon="6.60636">
        <ele>139</ele>
        <time>2011-12-11T08:58:21Z</time>
      </trkpt>
      <trkpt lat="43.55092" lon="6.60634">
        <ele>139</ele>
        <time>2011-12-11T08:58:22Z</time>
      </trkpt>
      <trkpt lat="43.55091" lon="6.60632">
        <ele>139</ele>
        <time>2011-12-11T08:58:23Z</time>
      </trkpt>
      <trkpt lat="43.55089" lon="6.6063">
        <ele>139</ele>
        <time>2011-12-11T08:58:24Z</time>
      </trkpt>
      <trkpt lat="43.55087" lon="6.60628">
        <ele>139</ele>
        <time>2011-12-11T08:58:25Z</time>
      </trkpt>
      <trkpt lat="43.55085" lon="6.60625">
        <ele>140</ele>
        <time>2011-12-11T08:58:26Z</time>
      </trkpt>
      <trkpt lat="43.55083" lon="6.60624">
        <ele>140</ele>
        <time>2011-12-11T08:58:27Z</time>
      </trkpt>
      <trkpt lat="43.55081" lon="6.60621">
        <ele>140</ele>
        <time>2011-12-11T08:58:28Z</time>
      </trkpt>
      <trkpt lat="43.5508" lon="6.60619">
        <ele>140</ele>
        <time>2011-12-11T08:58:29Z</time>
      </trkpt>
      <trkpt lat="43.55078" lon="6.60617">
        <ele>140</ele>
        <time>2011-12-11T08:58:30Z</time>
      </trkpt>
      <trkpt lat="43.55076" lon="6.60615">
        <ele>140</ele>
        <time>2011-12-11T08:58:31Z</time>
      </trkpt>
      <trkpt lat="43.55075" lon="6.60613">
        <ele>141</ele>
        <time>2011-12-11T08:58:32Z</time>
      </trkpt>
      <trkpt lat="43.55073" lon="6.60611">
        <ele>141</ele>
        <time>2011-12-11T08:58:33Z</time>
      </trkpt>
      <trkpt lat="43.55072" lon="6.60608">
        <ele>141</ele>
        <time>2011-12-11T08:58:34Z</time>
      </trkpt>
      <trkpt lat="43.5507" lon="6.60606">
        <ele>141</ele>
        <time>2011-12-11T08:58:35Z</time>
      </trkpt>
      <trkpt lat="43.55068" lon="6.60603">
        <ele>141</ele>
        <time>2011-12-11T08:58:36Z</time>
      </trkpt>
      <trkpt lat="43.55066" lon="6.606">
        <ele>141</ele>
        <time>2011-12-11T08:58:37Z</time>
      </trkpt>
      <trkpt lat="43.55065" lon="6.60597">
        <ele>141</ele>
        <time>2011-12-11T08:58:38Z</time>
      </trkpt>
      <trkpt lat="43.55063" lon="6.60594">
        <ele>141</ele>
        <time>2011-12-11T08:58:39Z</time>
      </trkpt>
      <trkpt lat="43.55061" lon="6.60591">
        <ele>142</ele>
        <time>2011-12-11T08:58:40Z</time>
      </trkpt>
      <trkpt lat="43.55059" lon="6.60589">
        <ele>142</ele>
        <time>2011-12-11T08:58:41Z</time>
      </trkpt>
      <trkpt lat="43.55057" lon="6.60586">
        <ele>142</ele>
        <time>2011-12-11T08:58:42Z</time>
      </trkpt>
      <trkpt lat="43.55056" lon="6.60583">
        <ele>142</ele>
        <time>2011-12-11T08:58:43Z</time>
      </trkpt>
      <trkpt lat="43.55054" lon="6.6058">
        <ele>142</ele>
        <time>2011-12-11T08:58:44Z</time>
      </trkpt>
      <trkpt lat="43.55053" lon="6.60578">
        <ele>143</ele>
        <time>2011-12-11T08:58:45Z</time>
      </trkpt>
      <trkpt lat="43.55051" lon="6.60575">
        <ele>143</ele>
        <time>2011-12-11T08:58:46Z</time>
      </trkpt>
      <trkpt lat="43.5505" lon="6.60572">
        <ele>143</ele>
        <time>2011-12-11T08:58:47Z</time>
      </trkpt>
      <trkpt lat="43.55049" lon="6.60568">
        <ele>143</ele>
        <time>2011-12-11T08:58:48Z</time>
      </trkpt>
      <trkpt lat="43.55048" lon="6.60565">
        <ele>143</ele>
        <time>2011-12-11T08:58:49Z</time>
      </trkpt>
      <trkpt lat="43.55047" lon="6.60561">
        <ele>143</ele>
        <time>2011-12-11T08:58:50Z</time>
      </trkpt>
      <trkpt lat="43.55046" lon="6.60558">
        <ele>143</ele>
        <time>2011-12-11T08:58:51Z</time>
      </trkpt>
      <trkpt lat="43.55045" lon="6.60554">
        <ele>144</ele>
        <time>2011-12-11T08:58:52Z</time>
      </trkpt>
      <trkpt lat="43.55044" lon="6.60551">
        <ele>144</ele>
        <time>2011-12-11T08:58:53Z</time>
      </trkpt>
      <trkpt lat="43.55043" lon="6.60547">
        <ele>144</ele>
        <time>2011-12-11T08:58:54Z</time>
      </trkpt>
      <trkpt lat="43.55042" lon="6.60544">
        <ele>144</ele>
        <time>2011-12-11T08:58:55Z</time>
      </trkpt>
      <trkpt lat="43.55041" lon="6.60541">
        <ele>144</ele>
        <time>2011-12-11T08:58:56Z</time>
      </trkpt>
      <trkpt lat="43.55039" lon="6.60539">
        <ele>144</ele>
        <time>2011-12-11T08:58:57Z</time>
      </trkpt>
      <trkpt lat="43.55037" lon="6.60537">
        <ele>144</ele>
        <time>2011-12-11T08:58:58Z</time>
      </trkpt>
      <trkpt lat="43.55035" lon="6.60536">
        <ele>144</ele>
        <time>2011-12-11T08:58:59Z</time>
      </trkpt>
      <trkpt lat="43.55033" lon="6.60534">
        <ele>145</ele>
        <time>2011-12-11T08:59:00Z</time>
      </trkpt>
      <trkpt lat="43.55031" lon="6.60532">
        <ele>145</ele>
        <time>2011-12-11T08:59:01Z</time>
      </trkpt>
      <trkpt lat="43.55028" lon="6.6053">
        <ele>145</ele>
        <time>2011-12-11T08:59:02Z</time>
      </trkpt>
      <trkpt lat="43.55026" lon="6.60527">
        <ele>145</ele>
        <time>2011-12-11T08:59:03Z</time>
      </trkpt>
      <trkpt lat="43.55024" lon="6.60524">
        <ele>145</ele>
        <time>2011-12-11T08:59:04Z</time>
      </trkpt>
      <trkpt lat="43.55023" lon="6.60521">
        <ele>146</ele>
        <time>2011-12-11T08:59:05Z</time>
      </trkpt>
      <trkpt lat="43.55021" lon="6.60518">
        <ele>146</ele>
        <time>2011-12-11T08:59:06Z</time>
      </trkpt>
      <trkpt lat="43.5502" lon="6.60514">
        <ele>146</ele>
        <time>2011-12-11T08:59:07Z</time>
      </trkpt>
      <trkpt lat="43.55019" lon="6.60511">
        <ele>146</ele>
        <time>2011-12-11T08:59:08Z</time>
      </trkpt>
      <trkpt lat="43.55017" lon="6.60508">
        <ele>146</ele>
        <time>2011-12-11T08:59:09Z</time>
      </trkpt>
      <trkpt lat="43.55016" lon="6.60505">
        <ele>146</ele>
        <time>2011-12-11T08:59:10Z</time>
      </trkpt>
      <trkpt lat="43.55015" lon="6.60502">
        <ele>146</ele>
        <time>2011-12-11T08:59:11Z</time>
      </trkpt>
      <trkpt lat="43.55014" lon="6.60499">
        <ele>146</ele>
        <time>2011-12-11T08:59:12Z</time>
      </trkpt>
      <trkpt lat="43.55012" lon="6.60496">
        <ele>146</ele>
        <time>2011-12-11T08:59:13Z</time>
      </trkpt>
      <trkpt lat="43.5501" lon="6.60494">
        <ele>146</ele>
        <time>2011-12-11T08:59:14Z</time>
      </trkpt>
      <trkpt lat="43.55008" lon="6.60492">
        <ele>146</ele>
        <time>2011-12-11T08:59:15Z</time>
      </trkpt>
      <trkpt lat="43.55006" lon="6.60491">
        <ele>146</ele>
        <time>2011-12-11T08:59:16Z</time>
      </trkpt>
      <trkpt lat="43.55004" lon="6.60489">
        <ele>146</ele>
        <time>2011-12-11T08:59:17Z</time>
      </trkpt>
      <trkpt lat="43.55002" lon="6.60488">
        <ele>146</ele>
        <time>2011-12-11T08:59:18Z</time>
      </trkpt>
      <trkpt lat="43.55" lon="6.60487">
        <ele>146</ele>
        <time>2011-12-11T08:59:19Z</time>
      </trkpt>
      <trkpt lat="43.54998" lon="6.60486">
        <ele>146</ele>
        <time>2011-12-11T08:59:20Z</time>
      </trkpt>
      <trkpt lat="43.54996" lon="6.60485">
        <ele>147</ele>
        <time>2011-12-11T08:59:21Z</time>
      </trkpt>
      <trkpt lat="43.54994" lon="6.60484">
        <ele>147</ele>
        <time>2011-12-11T08:59:22Z</time>
      </trkpt>
      <trkpt lat="43.54992" lon="6.60482">
        <ele>147</ele>
        <time>2011-12-11T08:59:23Z</time>
      </trkpt>
      <trkpt lat="43.5499" lon="6.60481">
        <ele>147</ele>
        <time>2011-12-11T08:59:24Z</time>
      </trkpt>
      <trkpt lat="43.54988" lon="6.60479">
        <ele>147</ele>
        <time>2011-12-11T08:59:25Z</time>
      </trkpt>
      <trkpt lat="43.54986" lon="6.60477">
        <ele>147</ele>
        <time>2011-12-11T08:59:26Z</time>
      </trkpt>
      <trkpt lat="43.54985" lon="6.60475">
        <ele>147</ele>
        <time>2011-12-11T08:59:27Z</time>
      </trkpt>
      <trkpt lat="43.54984" lon="6.60472">
        <ele>147</ele>
        <time>2011-12-11T08:59:28Z</time>
      </trkpt>
      <trkpt lat="43.54982" lon="6.60469">
        <ele>148</ele>
        <time>2011-12-11T08:59:29Z</time>
      </trkpt>
      <trkpt lat="43.54982" lon="6.60466">
        <ele>148</ele>
        <time>2011-12-11T08:59:30Z</time>
      </trkpt>
      <trkpt lat="43.54981" lon="6.60463">
        <ele>148</ele>
        <time>2011-12-11T08:59:31Z</time>
      </trkpt>
      <trkpt lat="43.54981" lon="6.6046">
        <ele>148</ele>
        <time>2011-12-11T08:59:32Z</time>
      </trkpt>
      <trkpt lat="43.54981" lon="6.60456">
        <ele>148</ele>
        <time>2011-12-11T08:59:33Z</time>
      </trkpt>
      <trkpt lat="43.54981" lon="6.60453">
        <ele>148</ele>
        <time>2011-12-11T08:59:34Z</time>
      </trkpt>
      <trkpt lat="43.54981" lon="6.6045">
        <ele>148</ele>
        <time>2011-12-11T08:59:35Z</time>
      </trkpt>
      <trkpt lat="43.54982" lon="6.60448">
        <ele>148</ele>
        <time>2011-12-11T08:59:36Z</time>
      </trkpt>
      <trkpt lat="43.54982" lon="6.60446">
        <ele>149</ele>
        <time>2011-12-11T08:59:37Z</time>
      </trkpt>
      <trkpt lat="43.54983" lon="6.60445">
        <ele>149</ele>
        <time>2011-12-11T08:59:38Z</time>
      </trkpt>
      <trkpt lat="43.54984" lon="6.60443">
        <ele>149</ele>
        <time>2011-12-11T08:59:39Z</time>
      </trkpt>
      <trkpt lat="43.54984" lon="6.60442">
        <ele>149</ele>
        <time>2011-12-11T08:59:40Z</time>
      </trkpt>
      <trkpt lat="43.54984" lon="6.60443">
        <ele>149</ele>
        <time>2011-12-11T08:59:46Z</time>
      </trkpt>
      <trkpt lat="43.54985" lon="6.60443">
        <ele>149</ele>
        <time>2011-12-11T08:59:47Z</time>
      </trkpt>
      <trkpt lat="43.54985" lon="6.60443">
        <ele>149</ele>
        <time>2011-12-11T08:59:52Z</time>
      </trkpt>
      <trkpt lat="43.54985" lon="6.60443">
        <ele>149</ele>
        <time>2011-12-11T08:59:53Z</time>
      </trkpt>
      <trkpt lat="43.54985" lon="6.60441">
        <ele>149</ele>
        <time>2011-12-11T08:59:54Z</time>
      </trkpt>
      <trkpt lat="43.54984" lon="6.6044">
        <ele>149</ele>
        <time>2011-12-11T08:59:55Z</time>
      </trkpt>
      <trkpt lat="43.54983" lon="6.6044">
        <ele>149</ele>
        <time>2011-12-11T08:59:56Z</time>
      </trkpt>
      <trkpt lat="43.54982" lon="6.60439">
        <ele>149</ele>
        <time>2011-12-11T08:59:57Z</time>
      </trkpt>
      <trkpt lat="43.54981" lon="6.60439">
        <ele>149</ele>
        <time>2011-12-11T08:59:58Z</time>
      </trkpt>
      <trkpt lat="43.5498" lon="6.60439">
        <ele>149</ele>
        <time>2011-12-11T08:59:59Z</time>
      </trkpt>
      <trkpt lat="43.54979" lon="6.60439">
        <ele>149</ele>
        <time>2011-12-11T09:00:00Z</time>
      </trkpt>
      <trkpt lat="43.54979" lon="6.60439">
        <ele>149</ele>
        <time>2011-12-11T09:00:01Z</time>
      </trkpt>
      <trkpt lat="43.54979" lon="6.60438">
        <ele>149</ele>
        <time>2011-12-11T09:00:12Z</time>
      </trkpt>
      <trkpt lat="43.54979" lon="6.60438">
        <ele>149</ele>
        <time>2011-12-11T09:00:13Z</time>
      </trkpt>
      <trkpt lat="43.5498" lon="6.60437">
        <ele>149</ele>
        <time>2011-12-11T09:00:14Z</time>
      </trkpt>
      <trkpt lat="43.54982" lon="6.60435">
        <ele>148</ele>
        <time>2011-12-11T09:00:35Z</time>
      </trkpt>
      <trkpt lat="43.54983" lon="6.60435">
        <ele>148</ele>
        <time>2011-12-11T09:00:36Z</time>
      </trkpt>
      <trkpt lat="43.54984" lon="6.60435">
        <ele>148</ele>
        <time>2011-12-11T09:00:37Z</time>
      </trkpt>
      <trkpt lat="43.54985" lon="6.60436">
        <ele>149</ele>
        <time>2011-12-11T09:00:38Z</time>
      </trkpt>
      <trkpt lat="43.54985" lon="6.60436">
        <ele>149</ele>
        <time>2011-12-11T09:00:39Z</time>
      </trkpt>
      <trkpt lat="43.54986" lon="6.60437">
        <ele>149</ele>
        <time>2011-12-11T09:00:40Z</time>
      </trkpt>
      <trkpt lat="43.54986" lon="6.60437">
        <ele>149</ele>
        <time>2011-12-11T09:00:41Z</time>
      </trkpt>
      <trkpt lat="43.54986" lon="6.60438">
        <ele>149</ele>
        <time>2011-12-11T09:00:42Z</time>
      </trkpt>
      <trkpt lat="43.54987" lon="6.60439">
        <ele>149</ele>
        <time>2011-12-11T09:00:43Z</time>
      </trkpt>
      <trkpt lat="43.54986" lon="6.60439">
        <ele>149</ele>
        <time>2011-12-11T09:00:44Z</time>
      </trkpt>
      <trkpt lat="43.54986" lon="6.6044">
        <ele>149</ele>
        <time>2011-12-11T09:00:45Z</time>
      </trkpt>
      <trkpt lat="43.54986" lon="6.60441">
        <ele>149</ele>
        <time>2011-12-11T09:00:46Z</time>
      </trkpt>
      <trkpt lat="43.54986" lon="6.60441">
        <ele>148</ele>
        <time>2011-12-11T09:00:47Z</time>
      </trkpt>
      <trkpt lat="43.54986" lon="6.60441">
        <ele>148</ele>
        <time>2011-12-11T09:00:48Z</time>
      </trkpt>
      <trkpt lat="43.54986" lon="6.60441">
        <ele>148</ele>
        <time>2011-12-11T09:00:58Z</time>
      </trkpt>
      <trkpt lat="43.54986" lon="6.60441">
        <ele>148</ele>
        <time>2011-12-11T09:00:59Z</time>
      </trkpt>
      <trkpt lat="43.54986" lon="6.6044">
        <ele>148</ele>
        <time>2011-12-11T09:01:01Z</time>
      </trkpt>
      <trkpt lat="43.54986" lon="6.60441">
        <ele>148</ele>
        <time>2011-12-11T09:01:03Z</time>
      </trkpt>
      <trkpt lat="43.54986" lon="6.60441">
        <ele>148</ele>
        <time>2011-12-11T09:01:04Z</time>
      </trkpt>
      <trkpt lat="43.54986" lon="6.60442">
        <ele>148</ele>
        <time>2011-12-11T09:01:05Z</time>
      </trkpt>
      <trkpt lat="43.54986" lon="6.60442">
        <ele>148</ele>
        <time>2011-12-11T09:01:06Z</time>
      </trkpt>
      <trkpt lat="43.54987" lon="6.60442">
        <ele>148</ele>
        <time>2011-12-11T09:01:35Z</time>
      </trkpt>
      <trkpt lat="43.54987" lon="6.60443">
        <ele>148</ele>
        <time>2011-12-11T09:01:36Z</time>
      </trkpt>
      <trkpt lat="43.54986" lon="6.60445">
        <ele>148</ele>
        <time>2011-12-11T09:01:37Z</time>
      </trkpt>
      <trkpt lat="43.54985" lon="6.60448">
        <ele>148</ele>
        <time>2011-12-11T09:01:38Z</time>
      </trkpt>
      <trkpt lat="43.54985" lon="6.60451">
        <ele>148</ele>
        <time>2011-12-11T09:01:39Z</time>
      </trkpt>
      <trkpt lat="43.54985" lon="6.60454">
        <ele>148</ele>
        <time>2011-12-11T09:01:40Z</time>
      </trkpt>
      <trkpt lat="43.54985" lon="6.60458">
        <ele>148</ele>
        <time>2011-12-11T09:01:41Z</time>
      </trkpt>
      <trkpt lat="43.54985" lon="6.60461">
        <ele>147</ele>
        <time>2011-12-11T09:01:42Z</time>
      </trkpt>
      <trkpt lat="43.54986" lon="6.60465">
        <ele>147</ele>
        <time>2011-12-11T09:01:43Z</time>
      </trkpt>
      <trkpt lat="43.54987" lon="6.60469">
        <ele>147</ele>
        <time>2011-12-11T09:01:44Z</time>
      </trkpt>
      <trkpt lat="43.54988" lon="6.60473">
        <ele>147</ele>
        <time>2011-12-11T09:01:45Z</time>
      </trkpt>
      <trkpt lat="43.5499" lon="6.60476">
        <ele>147</ele>
        <time>2011-12-11T09:01:46Z</time>
      </trkpt>
      <trkpt lat="43.54992" lon="6.60479">
        <ele>147</ele>
        <time>2011-12-11T09:01:47Z</time>
      </trkpt>
      <trkpt lat="43.54994" lon="6.60482">
        <ele>147</ele>
        <time>2011-12-11T09:01:48Z</time>
      </trkpt>
      <trkpt lat="43.54996" lon="6.60484">
        <ele>147</ele>
        <time>2011-12-11T09:01:49Z</time>
      </trkpt>
      <trkpt lat="43.54999" lon="6.60485">
        <ele>147</ele>
        <time>2011-12-11T09:01:50Z</time>
      </trkpt>
      <trkpt lat="43.55002" lon="6.60486">
        <ele>146</ele>
        <time>2011-12-11T09:01:51Z</time>
      </trkpt>
      <trkpt lat="43.55005" lon="6.60487">
        <ele>146</ele>
        <time>2011-12-11T09:01:52Z</time>
      </trkpt>
      <trkpt lat="43.55007" lon="6.60489">
        <ele>146</ele>
        <time>2011-12-11T09:01:53Z</time>
      </trkpt>
      <trkpt lat="43.5501" lon="6.60491">
        <ele>146</ele>
        <time>2011-12-11T09:01:54Z</time>
      </trkpt>
      <trkpt lat="43.55013" lon="6.60493">
        <ele>145</ele>
        <time>2011-12-11T09:01:55Z</time>
      </trkpt>
      <trkpt lat="43.55015" lon="6.60496">
        <ele>145</ele>
        <time>2011-12-11T09:01:56Z</time>
      </trkpt>
      <trkpt lat="43.55017" lon="6.605">
        <ele>145</ele>
        <time>2011-12-11T09:01:57Z</time>
      </trkpt>
      <trkpt lat="43.55019" lon="6.60504">
        <ele>145</ele>
        <time>2011-12-11T09:01:58Z</time>
      </trkpt>
      <trkpt lat="43.55021" lon="6.60509">
        <ele>145</ele>
        <time>2011-12-11T09:01:59Z</time>
      </trkpt>
      <trkpt lat="43.55023" lon="6.60514">
        <ele>144</ele>
        <time>2011-12-11T09:02:00Z</time>
      </trkpt>
      <trkpt lat="43.55024" lon="6.60519">
        <ele>144</ele>
        <time>2011-12-11T09:02:01Z</time>
      </trkpt>
      <trkpt lat="43.55025" lon="6.60523">
        <ele>144</ele>
        <time>2011-12-11T09:02:02Z</time>
      </trkpt>
      <trkpt lat="43.55027" lon="6.60527">
        <ele>144</ele>
        <time>2011-12-11T09:02:03Z</time>
      </trkpt>
      <trkpt lat="43.55029" lon="6.6053">
        <ele>144</ele>
        <time>2011-12-11T09:02:04Z</time>
      </trkpt>
      <trkpt lat="43.55032" lon="6.60533">
        <ele>144</ele>
        <time>2011-12-11T09:02:05Z</time>
      </trkpt>
      <trkpt lat="43.55035" lon="6.60536">
        <ele>144</ele>
        <time>2011-12-11T09:02:06Z</time>
      </trkpt>
      <trkpt lat="43.55038" lon="6.60538">
        <ele>144</ele>
        <time>2011-12-11T09:02:07Z</time>
      </trkpt>
      <trkpt lat="43.55041" lon="6.6054">
        <ele>144</ele>
        <time>2011-12-11T09:02:08Z</time>
      </trkpt>
      <trkpt lat="43.55044" lon="6.60543">
        <ele>144</ele>
        <time>2011-12-11T09:02:09Z</time>
      </trkpt>
      <trkpt lat="43.55046" lon="6.60547">
        <ele>143</ele>
        <time>2011-12-11T09:02:10Z</time>
      </trkpt>
      <trkpt lat="43.55047" lon="6.60551">
        <ele>143</ele>
        <time>2011-12-11T09:02:11Z</time>
      </trkpt>
      <trkpt lat="43.55048" lon="6.60556">
        <ele>143</ele>
        <time>2011-12-11T09:02:12Z</time>
      </trkpt>
      <trkpt lat="43.55049" lon="6.60561">
        <ele>143</ele>
        <time>2011-12-11T09:02:13Z</time>
      </trkpt>
      <trkpt lat="43.55049" lon="6.60567">
        <ele>143</ele>
        <time>2011-12-11T09:02:14Z</time>
      </trkpt>
      <trkpt lat="43.55051" lon="6.60572">
        <ele>143</ele>
        <time>2011-12-11T09:02:15Z</time>
      </trkpt>
      <trkpt lat="43.55052" lon="6.60577">
        <ele>142</ele>
        <time>2011-12-11T09:02:16Z</time>
      </trkpt>
      <trkpt lat="43.55055" lon="6.60582">
        <ele>142</ele>
        <time>2011-12-11T09:02:17Z</time>
      </trkpt>
      <trkpt lat="43.55057" lon="6.60586">
        <ele>142</ele>
        <time>2011-12-11T09:02:18Z</time>
      </trkpt>
      <trkpt lat="43.5506" lon="6.6059">
        <ele>142</ele>
        <time>2011-12-11T09:02:19Z</time>
      </trkpt>
      <trkpt lat="43.55063" lon="6.60595">
        <ele>141</ele>
        <time>2011-12-11T09:02:20Z</time>
      </trkpt>
      <trkpt lat="43.55066" lon="6.606">
        <ele>141</ele>
        <time>2011-12-11T09:02:21Z</time>
      </trkpt>
      <trkpt lat="43.55069" lon="6.60604">
        <ele>141</ele>
        <time>2011-12-11T09:02:22Z</time>
      </trkpt>
      <trkpt lat="43.55072" lon="6.60609">
        <ele>141</ele>
        <time>2011-12-11T09:02:23Z</time>
      </trkpt>
      <trkpt lat="43.55074" lon="6.60613">
        <ele>141</ele>
        <time>2011-12-11T09:02:24Z</time>
      </trkpt>
      <trkpt lat="43.55077" lon="6.60617">
        <ele>141</ele>
        <time>2011-12-11T09:02:25Z</time>
      </trkpt>
      <trkpt lat="43.55081" lon="6.60621">
        <ele>141</ele>
        <time>2011-12-11T09:02:26Z</time>
      </trkpt>
      <trkpt lat="43.55084" lon="6.60625">
        <ele>141</ele>
        <time>2011-12-11T09:02:27Z</time>
      </trkpt>
      <trkpt lat="43.55087" lon="6.60629">
        <ele>140</ele>
        <time>2011-12-11T09:02:28Z</time>
      </trkpt>
      <trkpt lat="43.55091" lon="6.60634">
        <ele>140</ele>
        <time>2011-12-11T09:02:29Z</time>
      </trkpt>
      <trkpt lat="43.55095" lon="6.60638">
        <ele>140</ele>
        <time>2011-12-11T09:02:30Z</time>
      </trkpt>
      <trkpt lat="43.55098" lon="6.60643">
        <ele>139</ele>
        <time>2011-12-11T09:02:31Z</time>
      </trkpt>
      <trkpt lat="43.55102" lon="6.60647">
        <ele>139</ele>
        <time>2011-12-11T09:02:32Z</time>
      </trkpt>
      <trkpt lat="43.55106" lon="6.60651">
        <ele>139</ele>
        <time>2011-12-11T09:02:33Z</time>
      </trkpt>
      <trkpt lat="43.5511" lon="6.60656">
        <ele>138</ele>
        <time>2011-12-11T09:02:34Z</time>
      </trkpt>
      <trkpt lat="43.55113" lon="6.6066">
        <ele>138</ele>
        <time>2011-12-11T09:02:35Z</time>
      </trkpt>
      <trkpt lat="43.55117" lon="6.60664">
        <ele>138</ele>
        <time>2011-12-11T09:02:36Z</time>
      </trkpt>
      <trkpt lat="43.5512" lon="6.60669">
        <ele>138</ele>
        <time>2011-12-11T09:02:37Z</time>
      </trkpt>
      <trkpt lat="43.55123" lon="6.60674">
        <ele>138</ele>
        <time>2011-12-11T09:02:38Z</time>
      </trkpt>
      <trkpt lat="43.55126" lon="6.60679">
        <ele>137</ele>
        <time>2011-12-11T09:02:39Z</time>
      </trkpt>
      <trkpt lat="43.55128" lon="6.60683">
        <ele>137</ele>
        <time>2011-12-11T09:02:40Z</time>
      </trkpt>
      <trkpt lat="43.55132" lon="6.60687">
        <ele>137</ele>
        <time>2011-12-11T09:02:41Z</time>
      </trkpt>
      <trkpt lat="43.55135" lon="6.60691">
        <ele>137</ele>
        <time>2011-12-11T09:02:42Z</time>
      </trkpt>
      <trkpt lat="43.55139" lon="6.60694">
        <ele>137</ele>
        <time>2011-12-11T09:02:43Z</time>
      </trkpt>
      <trkpt lat="43.55142" lon="6.60696">
        <ele>136</ele>
        <time>2011-12-11T09:02:44Z</time>
      </trkpt>
      <trkpt lat="43.55146" lon="6.60699">
        <ele>136</ele>
        <time>2011-12-11T09:02:45Z</time>
      </trkpt>
      <trkpt lat="43.5515" lon="6.60701">
        <ele>136</ele>
        <time>2011-12-11T09:02:46Z</time>
      </trkpt>
      <trkpt lat="43.55154" lon="6.60702">
        <ele>136</ele>
        <time>2011-12-11T09:02:47Z</time>
      </trkpt>
      <trkpt lat="43.55158" lon="6.60702">
        <ele>135</ele>
        <time>2011-12-11T09:02:48Z</time>
      </trkpt>
      <trkpt lat="43.55163" lon="6.60702">
        <ele>135</ele>
        <time>2011-12-11T09:02:49Z</time>
      </trkpt>
      <trkpt lat="43.55166" lon="6.60701">
        <ele>135</ele>
        <time>2011-12-11T09:02:50Z</time>
      </trkpt>
      <trkpt lat="43.5517" lon="6.60702">
        <ele>135</ele>
        <time>2011-12-11T09:02:51Z</time>
      </trkpt>
      <trkpt lat="43.55173" lon="6.60703">
        <ele>135</ele>
        <time>2011-12-11T09:02:52Z</time>
      </trkpt>
      <trkpt lat="43.55177" lon="6.60705">
        <ele>134</ele>
        <time>2011-12-11T09:02:53Z</time>
      </trkpt>
      <trkpt lat="43.5518" lon="6.60706">
        <ele>134</ele>
        <time>2011-12-11T09:02:54Z</time>
      </trkpt>
      <trkpt lat="43.55184" lon="6.60708">
        <ele>134</ele>
        <time>2011-12-11T09:02:55Z</time>
      </trkpt>
      <trkpt lat="43.55187" lon="6.6071">
        <ele>134</ele>
        <time>2011-12-11T09:02:56Z</time>
      </trkpt>
      <trkpt lat="43.55191" lon="6.60711">
        <ele>133</ele>
        <time>2011-12-11T09:02:57Z</time>
      </trkpt>
      <trkpt lat="43.55195" lon="6.60714">
        <ele>133</ele>
        <time>2011-12-11T09:02:58Z</time>
      </trkpt>
      <trkpt lat="43.55198" lon="6.60717">
        <ele>132</ele>
        <time>2011-12-11T09:02:59Z</time>
      </trkpt>
      <trkpt lat="43.55202" lon="6.60721">
        <ele>132</ele>
        <time>2011-12-11T09:03:00Z</time>
      </trkpt>
      <trkpt lat="43.55205" lon="6.60726">
        <ele>132</ele>
        <time>2011-12-11T09:03:01Z</time>
      </trkpt>
      <trkpt lat="43.55208" lon="6.60732">
        <ele>132</ele>
        <time>2011-12-11T09:03:02Z</time>
      </trkpt>
      <trkpt lat="43.5521" lon="6.60739">
        <ele>132</ele>
        <time>2011-12-11T09:03:03Z</time>
      </trkpt>
      <trkpt lat="43.55211" lon="6.60745">
        <ele>132</ele>
        <time>2011-12-11T09:03:04Z</time>
      </trkpt>
      <trkpt lat="43.55212" lon="6.60751">
        <ele>132</ele>
        <time>2011-12-11T09:03:05Z</time>
      </trkpt>
      <trkpt lat="43.55214" lon="6.60757">
        <ele>131</ele>
        <time>2011-12-11T09:03:06Z</time>
      </trkpt>
      <trkpt lat="43.55216" lon="6.60764">
        <ele>131</ele>
        <time>2011-12-11T09:03:07Z</time>
      </trkpt>
      <trkpt lat="43.55218" lon="6.60771">
        <ele>131</ele>
        <time>2011-12-11T09:03:08Z</time>
      </trkpt>
      <trkpt lat="43.552" lon="6.60812">
        <ele>130</ele>
        <time>2011-12-11T09:03:18Z</time>
      </trkpt>
      <trkpt lat="43.55198" lon="6.60813">
        <ele>130</ele>
        <time>2011-12-11T09:03:19Z</time>
      </trkpt>
      <trkpt lat="43.55198" lon="6.60813">
        <ele>130</ele>
        <time>2011-12-11T09:03:44Z</time>
      </trkpt>
      <trkpt lat="43.55197" lon="6.60813">
        <ele>130</ele>
        <time>2011-12-11T09:03:45Z</time>
      </trkpt>
      <trkpt lat="43.55195" lon="6.60814">
        <ele>130</ele>
        <time>2011-12-11T09:03:46Z</time>
      </trkpt>
      <trkpt lat="43.55194" lon="6.60814">
        <ele>130</ele>
        <time>2011-12-11T09:03:47Z</time>
      </trkpt>
      <trkpt lat="43.55193" lon="6.60815">
        <ele>130</ele>
        <time>2011-12-11T09:03:48Z</time>
      </trkpt>
      <trkpt lat="43.55192" lon="6.60816">
        <ele>130</ele>
        <time>2011-12-11T09:03:49Z</time>
      </trkpt>
      <trkpt lat="43.5519" lon="6.60817">
        <ele>130</ele>
        <time>2011-12-11T09:03:50Z</time>
      </trkpt>
      <trkpt lat="43.55189" lon="6.60817">
        <ele>130</ele>
        <time>2011-12-11T09:03:51Z</time>
      </trkpt>
      <trkpt lat="43.55187" lon="6.60818">
        <ele>130</ele>
        <time>2011-12-11T09:03:52Z</time>
      </trkpt>
      <trkpt lat="43.55185" lon="6.60819">
        <ele>131</ele>
        <time>2011-12-11T09:03:53Z</time>
      </trkpt>
      <trkpt lat="43.55184" lon="6.6082">
        <ele>131</ele>
        <time>2011-12-11T09:03:54Z</time>
      </trkpt>
      <trkpt lat="43.55182" lon="6.6082">
        <ele>131</ele>
        <time>2011-12-11T09:03:55Z</time>
      </trkpt>
      <trkpt lat="43.5518" lon="6.6082">
        <ele>131</ele>
        <time>2011-12-11T09:03:56Z</time>
      </trkpt>
      <trkpt lat="43.55178" lon="6.6082">
        <ele>131</ele>
        <time>2011-12-11T09:03:57Z</time>
      </trkpt>
      <trkpt lat="43.55177" lon="6.60819">
        <ele>131</ele>
        <time>2011-12-11T09:03:58Z</time>
      </trkpt>
      <trkpt lat="43.55175" lon="6.60818">
        <ele>131</ele>
        <time>2011-12-11T09:03:59Z</time>
      </trkpt>
      <trkpt lat="43.55174" lon="6.60817">
        <ele>131</ele>
        <time>2011-12-11T09:04:00Z</time>
      </trkpt>
      <trkpt lat="43.55173" lon="6.60816">
        <ele>131</ele>
        <time>2011-12-11T09:04:01Z</time>
      </trkpt>
      <trkpt lat="43.55172" lon="6.60814">
        <ele>132</ele>
        <time>2011-12-11T09:04:02Z</time>
      </trkpt>
      <trkpt lat="43.5517" lon="6.60813">
        <ele>132</ele>
        <time>2011-12-11T09:04:03Z</time>
      </trkpt>
      <trkpt lat="43.55169" lon="6.60811">
        <ele>132</ele>
        <time>2011-12-11T09:04:04Z</time>
      </trkpt>
      <trkpt lat="43.55167" lon="6.60809">
        <ele>133</ele>
        <time>2011-12-11T09:04:05Z</time>
      </trkpt>
      <trkpt lat="43.55166" lon="6.60807">
        <ele>133</ele>
        <time>2011-12-11T09:04:06Z</time>
      </trkpt>
      <trkpt lat="43.55164" lon="6.60805">
        <ele>133</ele>
        <time>2011-12-11T09:04:07Z</time>
      </trkpt>
      <trkpt lat="43.55163" lon="6.60803">
        <ele>133</ele>
        <time>2011-12-11T09:04:08Z</time>
      </trkpt>
      <trkpt lat="43.55162" lon="6.60801">
        <ele>133</ele>
        <time>2011-12-11T09:04:09Z</time>
      </trkpt>
      <trkpt lat="43.5516" lon="6.60799">
        <ele>133</ele>
        <time>2011-12-11T09:04:10Z</time>
      </trkpt>
      <trkpt lat="43.5516" lon="6.60797">
        <ele>133</ele>
        <time>2011-12-11T09:04:11Z</time>
      </trkpt>
      <trkpt lat="43.55158" lon="6.60795">
        <ele>134</ele>
        <time>2011-12-11T09:04:12Z</time>
      </trkpt>
      <trkpt lat="43.55157" lon="6.60792">
        <ele>134</ele>
        <time>2011-12-11T09:04:13Z</time>
      </trkpt>
      <trkpt lat="43.55156" lon="6.6079">
        <ele>134</ele>
        <time>2011-12-11T09:04:14Z</time>
      </trkpt>
      <trkpt lat="43.55154" lon="6.60788">
        <ele>134</ele>
        <time>2011-12-11T09:04:15Z</time>
      </trkpt>
      <trkpt lat="43.55152" lon="6.60786">
        <ele>135</ele>
        <time>2011-12-11T09:04:16Z</time>
      </trkpt>
      <trkpt lat="43.5515" lon="6.60784">
        <ele>135</ele>
        <time>2011-12-11T09:04:17Z</time>
      </trkpt>
      <trkpt lat="43.55148" lon="6.60783">
        <ele>135</ele>
        <time>2011-12-11T09:04:18Z</time>
      </trkpt>
      <trkpt lat="43.55146" lon="6.60782">
        <ele>135</ele>
        <time>2011-12-11T09:04:19Z</time>
      </trkpt>
      <trkpt lat="43.55144" lon="6.60781">
        <ele>135</ele>
        <time>2011-12-11T09:04:20Z</time>
      </trkpt>
      <trkpt lat="43.55142" lon="6.6078">
        <ele>136</ele>
        <time>2011-12-11T09:04:21Z</time>
      </trkpt>
      <trkpt lat="43.5514" lon="6.6078">
        <ele>136</ele>
        <time>2011-12-11T09:04:22Z</time>
      </trkpt>
      <trkpt lat="43.55138" lon="6.6078">
        <ele>136</ele>
        <time>2011-12-11T09:04:23Z</time>
      </trkpt>
      <trkpt lat="43.55136" lon="6.6078">
        <ele>136</ele>
        <time>2011-12-11T09:04:24Z</time>
      </trkpt>
      <trkpt lat="43.55134" lon="6.60781">
        <ele>136</ele>
        <time>2011-12-11T09:04:25Z</time>
      </trkpt>
      <trkpt lat="43.55132" lon="6.60781">
        <ele>136</ele>
        <time>2011-12-11T09:04:26Z</time>
      </trkpt>
      <trkpt lat="43.5513" lon="6.60783">
        <ele>136</ele>
        <time>2011-12-11T09:04:27Z</time>
      </trkpt>
      <trkpt lat="43.55129" lon="6.60785">
        <ele>136</ele>
        <time>2011-12-11T09:04:28Z</time>
      </trkpt>
      <trkpt lat="43.55127" lon="6.60787">
        <ele>136</ele>
        <time>2011-12-11T09:04:29Z</time>
      </trkpt>
      <trkpt lat="43.55126" lon="6.60789">
        <ele>137</ele>
        <time>2011-12-11T09:04:30Z</time>
      </trkpt>
      <trkpt lat="43.55125" lon="6.60792">
        <ele>137</ele>
        <time>2011-12-11T09:04:31Z</time>
      </trkpt>
      <trkpt lat="43.55125" lon="6.60794">
        <ele>137</ele>
        <time>2011-12-11T09:04:32Z</time>
      </trkpt>
      <trkpt lat="43.55124" lon="6.60797">
        <ele>137</ele>
        <time>2011-12-11T09:04:33Z</time>
      </trkpt>
      <trkpt lat="43.55124" lon="6.608">
        <ele>137</ele>
        <time>2011-12-11T09:04:34Z</time>
      </trkpt>
      <trkpt lat="43.55124" lon="6.60803">
        <ele>138</ele>
        <time>2011-12-11T09:04:35Z</time>
      </trkpt>
      <trkpt lat="43.55123" lon="6.60806">
        <ele>138</ele>
        <time>2011-12-11T09:04:36Z</time>
      </trkpt>
      <trkpt lat="43.55123" lon="6.60809">
        <ele>138</ele>
        <time>2011-12-11T09:04:37Z</time>
      </trkpt>
      <trkpt lat="43.55123" lon="6.60811">
        <ele>138</ele>
        <time>2011-12-11T09:04:38Z</time>
      </trkpt>
      <trkpt lat="43.55123" lon="6.60814">
        <ele>139</ele>
        <time>2011-12-11T09:04:39Z</time>
      </trkpt>
      <trkpt lat="43.55123" lon="6.60816">
        <ele>139</ele>
        <time>2011-12-11T09:04:40Z</time>
      </trkpt>
      <trkpt lat="43.55123" lon="6.60819">
        <ele>139</ele>
        <time>2011-12-11T09:04:41Z</time>
      </trkpt>
      <trkpt lat="43.55122" lon="6.60821">
        <ele>139</ele>
        <time>2011-12-11T09:04:42Z</time>
      </trkpt>
      <trkpt lat="43.55121" lon="6.60824">
        <ele>140</ele>
        <time>2011-12-11T09:04:43Z</time>
      </trkpt>
      <trkpt lat="43.55121" lon="6.60826">
        <ele>140</ele>
        <time>2011-12-11T09:04:44Z</time>
      </trkpt>
      <trkpt lat="43.5512" lon="6.60829">
        <ele>140</ele>
        <time>2011-12-11T09:04:45Z</time>
      </trkpt>
      <trkpt lat="43.55119" lon="6.60832">
        <ele>141</ele>
        <time>2011-12-11T09:04:46Z</time>
      </trkpt>
      <trkpt lat="43.55119" lon="6.60834">
        <ele>141</ele>
        <time>2011-12-11T09:04:47Z</time>
      </trkpt>
      <trkpt lat="43.55118" lon="6.60837">
        <ele>141</ele>
        <time>2011-12-11T09:04:48Z</time>
      </trkpt>
      <trkpt lat="43.55117" lon="6.60839">
        <ele>142</ele>
        <time>2011-12-11T09:04:49Z</time>
      </trkpt>
      <trkpt lat="43.55116" lon="6.60842">
        <ele>142</ele>
        <time>2011-12-11T09:04:50Z</time>
      </trkpt>
      <trkpt lat="43.55115" lon="6.60844">
        <ele>142</ele>
        <time>2011-12-11T09:04:51Z</time>
      </trkpt>
      <trkpt lat="43.55114" lon="6.60847">
        <ele>142</ele>
        <time>2011-12-11T09:04:52Z</time>
      </trkpt>
      <trkpt lat="43.55112" lon="6.60849">
        <ele>143</ele>
        <time>2011-12-11T09:04:53Z</time>
      </trkpt>
      <trkpt lat="43.55111" lon="6.60852">
        <ele>143</ele>
        <time>2011-12-11T09:04:54Z</time>
      </trkpt>
      <trkpt lat="43.5511" lon="6.60855">
        <ele>143</ele>
        <time>2011-12-11T09:04:55Z</time>
      </trkpt>
      <trkpt lat="43.55109" lon="6.60857">
        <ele>144</ele>
        <time>2011-12-11T09:04:56Z</time>
      </trkpt>
      <trkpt lat="43.55107" lon="6.60859">
        <ele>144</ele>
        <time>2011-12-11T09:04:57Z</time>
      </trkpt>
      <trkpt lat="43.55106" lon="6.60862">
        <ele>145</ele>
        <time>2011-12-11T09:04:58Z</time>
      </trkpt>
      <trkpt lat="43.55105" lon="6.60865">
        <ele>145</ele>
        <time>2011-12-11T09:04:59Z</time>
      </trkpt>
      <trkpt lat="43.55105" lon="6.60867">
        <ele>146</ele>
        <time>2011-12-11T09:05:00Z</time>
      </trkpt>
      <trkpt lat="43.55104" lon="6.6087">
        <ele>146</ele>
        <time>2011-12-11T09:05:01Z</time>
      </trkpt>
      <trkpt lat="43.55103" lon="6.60872">
        <ele>146</ele>
        <time>2011-12-11T09:05:02Z</time>
      </trkpt>
      <trkpt lat="43.55102" lon="6.60875">
        <ele>146</ele>
        <time>2011-12-11T09:05:03Z</time>
      </trkpt>
      <trkpt lat="43.55101" lon="6.60878">
        <ele>147</ele>
        <time>2011-12-11T09:05:04Z</time>
      </trkpt>
      <trkpt lat="43.551" lon="6.6088">
        <ele>147</ele>
        <time>2011-12-11T09:05:05Z</time>
      </trkpt>
      <trkpt lat="43.55099" lon="6.60883">
        <ele>147</ele>
        <time>2011-12-11T09:05:06Z</time>
      </trkpt>
      <trkpt lat="43.55098" lon="6.60885">
        <ele>147</ele>
        <time>2011-12-11T09:05:07Z</time>
      </trkpt>
      <trkpt lat="43.55097" lon="6.60887">
        <ele>147</ele>
        <time>2011-12-11T09:05:08Z</time>
      </trkpt>
      <trkpt lat="43.55097" lon="6.6089">
        <ele>148</ele>
        <time>2011-12-11T09:05:09Z</time>
      </trkpt>
      <trkpt lat="43.55096" lon="6.60892">
        <ele>148</ele>
        <time>2011-12-11T09:05:10Z</time>
      </trkpt>
      <trkpt lat="43.55095" lon="6.60895">
        <ele>148</ele>
        <time>2011-12-11T09:05:11Z</time>
      </trkpt>
      <trkpt lat="43.55094" lon="6.60897">
        <ele>148</ele>
        <time>2011-12-11T09:05:12Z</time>
      </trkpt>
      <trkpt lat="43.55093" lon="6.609">
        <ele>149</ele>
        <time>2011-12-11T09:05:13Z</time>
      </trkpt>
      <trkpt lat="43.55093" lon="6.60902">
        <ele>149</ele>
        <time>2011-12-11T09:05:14Z</time>
      </trkpt>
      <trkpt lat="43.55092" lon="6.60904">
        <ele>149</ele>
        <time>2011-12-11T09:05:15Z</time>
      </trkpt>
      <trkpt lat="43.55091" lon="6.60907">
        <ele>149</ele>
        <time>2011-12-11T09:05:16Z</time>
      </trkpt>
      <trkpt lat="43.55091" lon="6.6091">
        <ele>149</ele>
        <time>2011-12-11T09:05:17Z</time>
      </trkpt>
      <trkpt lat="43.5509" lon="6.60912">
        <ele>150</ele>
        <time>2011-12-11T09:05:18Z</time>
      </trkpt>
      <trkpt lat="43.5509" lon="6.60915">
        <ele>150</ele>
        <time>2011-12-11T09:05:19Z</time>
      </trkpt>
      <trkpt lat="43.5509" lon="6.60918">
        <ele>150</ele>
        <time>2011-12-11T09:05:20Z</time>
      </trkpt>
      <trkpt lat="43.5509" lon="6.6092">
        <ele>150</ele>
        <time>2011-12-11T09:05:21Z</time>
      </trkpt>
      <trkpt lat="43.55089" lon="6.60923">
        <ele>150</ele>
        <time>2011-12-11T09:05:22Z</time>
      </trkpt>
      <trkpt lat="43.55089" lon="6.60926">
        <ele>150</ele>
        <time>2011-12-11T09:05:23Z</time>
      </trkpt>
      <trkpt lat="43.55089" lon="6.60929">
        <ele>151</ele>
        <time>2011-12-11T09:05:24Z</time>
      </trkpt>
      <trkpt lat="43.55088" lon="6.60932">
        <ele>151</ele>
        <time>2011-12-11T09:05:25Z</time>
      </trkpt>
      <trkpt lat="43.55088" lon="6.60935">
        <ele>151</ele>
        <time>2011-12-11T09:05:26Z</time>
      </trkpt>
      <trkpt lat="43.55088" lon="6.60938">
        <ele>151</ele>
        <time>2011-12-11T09:05:27Z</time>
      </trkpt>
      <trkpt lat="43.55088" lon="6.60941">
        <ele>152</ele>
        <time>2011-12-11T09:05:28Z</time>
      </trkpt>
      <trkpt lat="43.55088" lon="6.60944">
        <ele>152</ele>
        <time>2011-12-11T09:05:29Z</time>
      </trkpt>
      <trkpt lat="43.55088" lon="6.60947">
        <ele>152</ele>
        <time>2011-12-11T09:05:30Z</time>
      </trkpt>
      <trkpt lat="43.55088" lon="6.6095">
        <ele>152</ele>
        <time>2011-12-11T09:05:31Z</time>
      </trkpt>
      <trkpt lat="43.55088" lon="6.60953">
        <ele>153</ele>
        <time>2011-12-11T09:05:32Z</time>
      </trkpt>
      <trkpt lat="43.55089" lon="6.60955">
        <ele>153</ele>
        <time>2011-12-11T09:05:33Z</time>
      </trkpt>
      <trkpt lat="43.55089" lon="6.60958">
        <ele>153</ele>
        <time>2011-12-11T09:05:34Z</time>
      </trkpt>
      <trkpt lat="43.55089" lon="6.60961">
        <ele>154</ele>
        <time>2011-12-11T09:05:35Z</time>
      </trkpt>
      <trkpt lat="43.5509" lon="6.60964">
        <ele>154</ele>
        <time>2011-12-11T09:05:36Z</time>
      </trkpt>
      <trkpt lat="43.5509" lon="6.60966">
        <ele>154</ele>
        <time>2011-12-11T09:05:37Z</time>
      </trkpt>
      <trkpt lat="43.5509" lon="6.60969">
        <ele>154</ele>
        <time>2011-12-11T09:05:38Z</time>
      </trkpt>
      <trkpt lat="43.55091" lon="6.60972">
        <ele>155</ele>
        <time>2011-12-11T09:05:39Z</time>
      </trkpt>
      <trkpt lat="43.55091" lon="6.60974">
        <ele>155</ele>
        <time>2011-12-11T09:05:40Z</time>
      </trkpt>
      <trkpt lat="43.55092" lon="6.60977">
        <ele>155</ele>
        <time>2011-12-11T09:05:41Z</time>
      </trkpt>
      <trkpt lat="43.55093" lon="6.60979">
        <ele>156</ele>
        <time>2011-12-11T09:05:42Z</time>
      </trkpt>
      <trkpt lat="43.55093" lon="6.60982">
        <ele>156</ele>
        <time>2011-12-11T09:05:43Z</time>
      </trkpt>
      <trkpt lat="43.55094" lon="6.60984">
        <ele>156</ele>
        <time>2011-12-11T09:05:44Z</time>
      </trkpt>
      <trkpt lat="43.55095" lon="6.60987">
        <ele>157</ele>
        <time>2011-12-11T09:05:45Z</time>
      </trkpt>
      <trkpt lat="43.55096" lon="6.60989">
        <ele>157</ele>
        <time>2011-12-11T09:05:46Z</time>
      </trkpt>
      <trkpt lat="43.55097" lon="6.60992">
        <ele>157</ele>
        <time>2011-12-11T09:05:47Z</time>
      </trkpt>
      <trkpt lat="43.55098" lon="6.60994">
        <ele>158</ele>
        <time>2011-12-11T09:05:48Z</time>
      </trkpt>
      <trkpt lat="43.55099" lon="6.60996">
        <ele>158</ele>
        <time>2011-12-11T09:05:49Z</time>
      </trkpt>
      <trkpt lat="43.55101" lon="6.60998">
        <ele>158</ele>
        <time>2011-12-11T09:05:50Z</time>
      </trkpt>
      <trkpt lat="43.55102" lon="6.61001">
        <ele>158</ele>
        <time>2011-12-11T09:05:51Z</time>
      </trkpt>
      <trkpt lat="43.55104" lon="6.61003">
        <ele>159</ele>
        <time>2011-12-11T09:05:52Z</time>
      </trkpt>
      <trkpt lat="43.55105" lon="6.61005">
        <ele>159</ele>
        <time>2011-12-11T09:05:53Z</time>
      </trkpt>
      <trkpt lat="43.55107" lon="6.61008">
        <ele>159</ele>
        <time>2011-12-11T09:05:54Z</time>
      </trkpt>
      <trkpt lat="43.55108" lon="6.6101">
        <ele>159</ele>
        <time>2011-12-11T09:05:55Z</time>
      </trkpt>
      <trkpt lat="43.55109" lon="6.61012">
        <ele>160</ele>
        <time>2011-12-11T09:05:56Z</time>
      </trkpt>
      <trkpt lat="43.55111" lon="6.61014">
        <ele>160</ele>
        <time>2011-12-11T09:05:57Z</time>
      </trkpt>
      <trkpt lat="43.55112" lon="6.61016">
        <ele>160</ele>
        <time>2011-12-11T09:05:58Z</time>
      </trkpt>
      <trkpt lat="43.55114" lon="6.61019">
        <ele>161</ele>
        <time>2011-12-11T09:05:59Z</time>
      </trkpt>
      <trkpt lat="43.55115" lon="6.61021">
        <ele>161</ele>
        <time>2011-12-11T09:06:00Z</time>
      </trkpt>
      <trkpt lat="43.55116" lon="6.61023">
        <ele>161</ele>
        <time>2011-12-11T09:06:01Z</time>
      </trkpt>
      <trkpt lat="43.55118" lon="6.61025">
        <ele>161</ele>
        <time>2011-12-11T09:06:02Z</time>
      </trkpt>
      <trkpt lat="43.55119" lon="6.61027">
        <ele>162</ele>
        <time>2011-12-11T09:06:03Z</time>
      </trkpt>
      <trkpt lat="43.55121" lon="6.61029">
        <ele>162</ele>
        <time>2011-12-11T09:06:04Z</time>
      </trkpt>
      <trkpt lat="43.55123" lon="6.6103">
        <ele>162</ele>
        <time>2011-12-11T09:06:05Z</time>
      </trkpt>
      <trkpt lat="43.55125" lon="6.61032">
        <ele>162</ele>
        <time>2011-12-11T09:06:06Z</time>
      </trkpt>
      <trkpt lat="43.55126" lon="6.61034">
        <ele>163</ele>
        <time>2011-12-11T09:06:07Z</time>
      </trkpt>
      <trkpt lat="43.55128" lon="6.61036">
        <ele>163</ele>
        <time>2011-12-11T09:06:08Z</time>
      </trkpt>
      <trkpt lat="43.55129" lon="6.61038">
        <ele>163</ele>
        <time>2011-12-11T09:06:09Z</time>
      </trkpt>
      <trkpt lat="43.55131" lon="6.61041">
        <ele>163</ele>
        <time>2011-12-11T09:06:10Z</time>
      </trkpt>
      <trkpt lat="43.55133" lon="6.61043">
        <ele>163</ele>
        <time>2011-12-11T09:06:11Z</time>
      </trkpt>
      <trkpt lat="43.55134" lon="6.61045">
        <ele>163</ele>
        <time>2011-12-11T09:06:12Z</time>
      </trkpt>
      <trkpt lat="43.55135" lon="6.61048">
        <ele>164</ele>
        <time>2011-12-11T09:06:13Z</time>
      </trkpt>
      <trkpt lat="43.55136" lon="6.61051">
        <ele>164</ele>
        <time>2011-12-11T09:06:14Z</time>
      </trkpt>
      <trkpt lat="43.55137" lon="6.61053">
        <ele>164</ele>
        <time>2011-12-11T09:06:15Z</time>
      </trkpt>
      <trkpt lat="43.55138" lon="6.61056">
        <ele>164</ele>
        <time>2011-12-11T09:06:16Z</time>
      </trkpt>
      <trkpt lat="43.55138" lon="6.61059">
        <ele>165</ele>
        <time>2011-12-11T09:06:17Z</time>
      </trkpt>
      <trkpt lat="43.55139" lon="6.61062">
        <ele>165</ele>
        <time>2011-12-11T09:06:18Z</time>
      </trkpt>
      <trkpt lat="43.55139" lon="6.61064">
        <ele>165</ele>
        <time>2011-12-11T09:06:19Z</time>
      </trkpt>
      <trkpt lat="43.5514" lon="6.61067">
        <ele>165</ele>
        <time>2011-12-11T09:06:20Z</time>
      </trkpt>
      <trkpt lat="43.5514" lon="6.6107">
        <ele>165</ele>
        <time>2011-12-11T09:06:21Z</time>
      </trkpt>
      <trkpt lat="43.55141" lon="6.61073">
        <ele>166</ele>
        <time>2011-12-11T09:06:22Z</time>
      </trkpt>
      <trkpt lat="43.55141" lon="6.61076">
        <ele>166</ele>
        <time>2011-12-11T09:06:23Z</time>
      </trkpt>
      <trkpt lat="43.55142" lon="6.61079">
        <ele>166</ele>
        <time>2011-12-11T09:06:24Z</time>
      </trkpt>
      <trkpt lat="43.55143" lon="6.61082">
        <ele>166</ele>
        <time>2011-12-11T09:06:25Z</time>
      </trkpt>
      <trkpt lat="43.55144" lon="6.61086">
        <ele>166</ele>
        <time>2011-12-11T09:06:26Z</time>
      </trkpt>
      <trkpt lat="43.55145" lon="6.61089">
        <ele>166</ele>
        <time>2011-12-11T09:06:27Z</time>
      </trkpt>
      <trkpt lat="43.55146" lon="6.61092">
        <ele>166</ele>
        <time>2011-12-11T09:06:28Z</time>
      </trkpt>
      <trkpt lat="43.55147" lon="6.61095">
        <ele>166</ele>
        <time>2011-12-11T09:06:29Z</time>
      </trkpt>
      <trkpt lat="43.55147" lon="6.61098">
        <ele>167</ele>
        <time>2011-12-11T09:06:30Z</time>
      </trkpt>
      <trkpt lat="43.55148" lon="6.61101">
        <ele>167</ele>
        <time>2011-12-11T09:06:31Z</time>
      </trkpt>
      <trkpt lat="43.55149" lon="6.61104">
        <ele>167</ele>
        <time>2011-12-11T09:06:32Z</time>
      </trkpt>
      <trkpt lat="43.55149" lon="6.61107">
        <ele>168</ele>
        <time>2011-12-11T09:06:33Z</time>
      </trkpt>
      <trkpt lat="43.55149" lon="6.61111">
        <ele>168</ele>
        <time>2011-12-11T09:06:34Z</time>
      </trkpt>
      <trkpt lat="43.5515" lon="6.61114">
        <ele>168</ele>
        <time>2011-12-11T09:06:35Z</time>
      </trkpt>
      <trkpt lat="43.55149" lon="6.61117">
        <ele>168</ele>
        <time>2011-12-11T09:06:36Z</time>
      </trkpt>
      <trkpt lat="43.55149" lon="6.6112">
        <ele>169</ele>
        <time>2011-12-11T09:06:37Z</time>
      </trkpt>
      <trkpt lat="43.55149" lon="6.61123">
        <ele>169</ele>
        <time>2011-12-11T09:06:38Z</time>
      </trkpt>
      <trkpt lat="43.55149" lon="6.61126">
        <ele>169</ele>
        <time>2011-12-11T09:06:39Z</time>
      </trkpt>
      <trkpt lat="43.55149" lon="6.61129">
        <ele>169</ele>
        <time>2011-12-11T09:06:40Z</time>
      </trkpt>
      <trkpt lat="43.55149" lon="6.61132">
        <ele>169</ele>
        <time>2011-12-11T09:06:41Z</time>
      </trkpt>
      <trkpt lat="43.5515" lon="6.61135">
        <ele>170</ele>
        <time>2011-12-11T09:06:42Z</time>
      </trkpt>
      <trkpt lat="43.5515" lon="6.61138">
        <ele>170</ele>
        <time>2011-12-11T09:06:43Z</time>
      </trkpt>
      <trkpt lat="43.5515" lon="6.61141">
        <ele>170</ele>
        <time>2011-12-11T09:06:44Z</time>
      </trkpt>
      <trkpt lat="43.55151" lon="6.61143">
        <ele>170</ele>
        <time>2011-12-11T09:06:45Z</time>
      </trkpt>
      <trkpt lat="43.55151" lon="6.61146">
        <ele>170</ele>
        <time>2011-12-11T09:06:46Z</time>
      </trkpt>
      <trkpt lat="43.55152" lon="6.61149">
        <ele>170</ele>
        <time>2011-12-11T09:06:47Z</time>
      </trkpt>
      <trkpt lat="43.55153" lon="6.61152">
        <ele>171</ele>
        <time>2011-12-11T09:06:48Z</time>
      </trkpt>
      <trkpt lat="43.55153" lon="6.61154">
        <ele>171</ele>
        <time>2011-12-11T09:06:49Z</time>
      </trkpt>
      <trkpt lat="43.55154" lon="6.61157">
        <ele>171</ele>
        <time>2011-12-11T09:06:50Z</time>
      </trkpt>
      <trkpt lat="43.55154" lon="6.6116">
        <ele>171</ele>
        <time>2011-12-11T09:06:51Z</time>
      </trkpt>
      <trkpt lat="43.55155" lon="6.61162">
        <ele>171</ele>
        <time>2011-12-11T09:06:52Z</time>
      </trkpt>
      <trkpt lat="43.55155" lon="6.61165">
        <ele>172</ele>
        <time>2011-12-11T09:06:53Z</time>
      </trkpt>
      <trkpt lat="43.55156" lon="6.61168">
        <ele>172</ele>
        <time>2011-12-11T09:06:54Z</time>
      </trkpt>
      <trkpt lat="43.55156" lon="6.61171">
        <ele>172</ele>
        <time>2011-12-11T09:06:55Z</time>
      </trkpt>
      <trkpt lat="43.55157" lon="6.61174">
        <ele>172</ele>
        <time>2011-12-11T09:06:56Z</time>
      </trkpt>
      <trkpt lat="43.55157" lon="6.61177">
        <ele>172</ele>
        <time>2011-12-11T09:06:57Z</time>
      </trkpt>
      <trkpt lat="43.55158" lon="6.6118">
        <ele>173</ele>
        <time>2011-12-11T09:06:58Z</time>
      </trkpt>
      <trkpt lat="43.55159" lon="6.61183">
        <ele>173</ele>
        <time>2011-12-11T09:06:59Z</time>
      </trkpt>
      <trkpt lat="43.5516" lon="6.61186">
        <ele>173</ele>
        <time>2011-12-11T09:07:00Z</time>
      </trkpt>
      <trkpt lat="43.5516" lon="6.61189">
        <ele>173</ele>
        <time>2011-12-11T09:07:01Z</time>
      </trkpt>
      <trkpt lat="43.55161" lon="6.61192">
        <ele>173</ele>
        <time>2011-12-11T09:07:02Z</time>
      </trkpt>
      <trkpt lat="43.55162" lon="6.61195">
        <ele>173</ele>
        <time>2011-12-11T09:07:03Z</time>
      </trkpt>
      <trkpt lat="43.55163" lon="6.61199">
        <ele>173</ele>
        <time>2011-12-11T09:07:04Z</time>
      </trkpt>
      <trkpt lat="43.55164" lon="6.61202">
        <ele>174</ele>
        <time>2011-12-11T09:07:05Z</time>
      </trkpt>
      <trkpt lat="43.55165" lon="6.61205">
        <ele>174</ele>
        <time>2011-12-11T09:07:06Z</time>
      </trkpt>
      <trkpt lat="43.55166" lon="6.61208">
        <ele>174</ele>
        <time>2011-12-11T09:07:07Z</time>
      </trkpt>
      <trkpt lat="43.55167" lon="6.61212">
        <ele>174</ele>
        <time>2011-12-11T09:07:08Z</time>
      </trkpt>
      <trkpt lat="43.55168" lon="6.61215">
        <ele>174</ele>
        <time>2011-12-11T09:07:09Z</time>
      </trkpt>
      <trkpt lat="43.55169" lon="6.61218">
        <ele>175</ele>
        <time>2011-12-11T09:07:10Z</time>
      </trkpt>
      <trkpt lat="43.5517" lon="6.61221">
        <ele>175</ele>
        <time>2011-12-11T09:07:11Z</time>
      </trkpt>
      <trkpt lat="43.5517" lon="6.61225">
        <ele>175</ele>
        <time>2011-12-11T09:07:12Z</time>
      </trkpt>
      <trkpt lat="43.55171" lon="6.61228">
        <ele>175</ele>
        <time>2011-12-11T09:07:13Z</time>
      </trkpt>
      <trkpt lat="43.55172" lon="6.6123">
        <ele>176</ele>
        <time>2011-12-11T09:07:14Z</time>
      </trkpt>
      <trkpt lat="43.55173" lon="6.61234">
        <ele>176</ele>
        <time>2011-12-11T09:07:15Z</time>
      </trkpt>
      <trkpt lat="43.55174" lon="6.61238">
        <ele>176</ele>
        <time>2011-12-11T09:07:16Z</time>
      </trkpt>
      <trkpt lat="43.55174" lon="6.61242">
        <ele>176</ele>
        <time>2011-12-11T09:07:17Z</time>
      </trkpt>
      <trkpt lat="43.55174" lon="6.61246">
        <ele>176</ele>
        <time>2011-12-11T09:07:18Z</time>
      </trkpt>
      <trkpt lat="43.55175" lon="6.61249">
        <ele>177</ele>
        <time>2011-12-11T09:07:19Z</time>
      </trkpt>
      <trkpt lat="43.55175" lon="6.61253">
        <ele>177</ele>
        <time>2011-12-11T09:07:20Z</time>
      </trkpt>
      <trkpt lat="43.55176" lon="6.61256">
        <ele>177</ele>
        <time>2011-12-11T09:07:21Z</time>
      </trkpt>
      <trkpt lat="43.55177" lon="6.61259">
        <ele>177</ele>
        <time>2011-12-11T09:07:22Z</time>
      </trkpt>
      <trkpt lat="43.55178" lon="6.61263">
        <ele>178</ele>
        <time>2011-12-11T09:07:23Z</time>
      </trkpt>
      <trkpt lat="43.55179" lon="6.61266">
        <ele>178</ele>
        <time>2011-12-11T09:07:24Z</time>
      </trkpt>
      <trkpt lat="43.55181" lon="6.6127">
        <ele>178</ele>
        <time>2011-12-11T09:07:25Z</time>
      </trkpt>
      <trkpt lat="43.55182" lon="6.61273">
        <ele>178</ele>
        <time>2011-12-11T09:07:26Z</time>
      </trkpt>
      <trkpt lat="43.55182" lon="6.61277">
        <ele>178</ele>
        <time>2011-12-11T09:07:27Z</time>
      </trkpt>
      <trkpt lat="43.55183" lon="6.61281">
        <ele>178</ele>
        <time>2011-12-11T09:07:28Z</time>
      </trkpt>
      <trkpt lat="43.55184" lon="6.61284">
        <ele>178</ele>
        <time>2011-12-11T09:07:29Z</time>
      </trkpt>
      <trkpt lat="43.55184" lon="6.61288">
        <ele>179</ele>
        <time>2011-12-11T09:07:30Z</time>
      </trkpt>
      <trkpt lat="43.55184" lon="6.61291">
        <ele>179</ele>
        <time>2011-12-11T09:07:31Z</time>
      </trkpt>
      <trkpt lat="43.55184" lon="6.61295">
        <ele>179</ele>
        <time>2011-12-11T09:07:32Z</time>
      </trkpt>
      <trkpt lat="43.55185" lon="6.61298">
        <ele>179</ele>
        <time>2011-12-11T09:07:33Z</time>
      </trkpt>
      <trkpt lat="43.55185" lon="6.61302">
        <ele>180</ele>
        <time>2011-12-11T09:07:34Z</time>
      </trkpt>
      <trkpt lat="43.55185" lon="6.61305">
        <ele>180</ele>
        <time>2011-12-11T09:07:35Z</time>
      </trkpt>
      <trkpt lat="43.55186" lon="6.61309">
        <ele>180</ele>
        <time>2011-12-11T09:07:36Z</time>
      </trkpt>
      <trkpt lat="43.55186" lon="6.61312">
        <ele>180</ele>
        <time>2011-12-11T09:07:37Z</time>
      </trkpt>
      <trkpt lat="43.55186" lon="6.61316">
        <ele>180</ele>
        <time>2011-12-11T09:07:38Z</time>
      </trkpt>
      <trkpt lat="43.55185" lon="6.61319">
        <ele>180</ele>
        <time>2011-12-11T09:07:39Z</time>
      </trkpt>
      <trkpt lat="43.55185" lon="6.61323">
        <ele>180</ele>
        <time>2011-12-11T09:07:40Z</time>
      </trkpt>
      <trkpt lat="43.55185" lon="6.61326">
        <ele>181</ele>
        <time>2011-12-11T09:07:41Z</time>
      </trkpt>
      <trkpt lat="43.55184" lon="6.6133">
        <ele>182</ele>
        <time>2011-12-11T09:07:42Z</time>
      </trkpt>
      <trkpt lat="43.55184" lon="6.61333">
        <ele>182</ele>
        <time>2011-12-11T09:07:43Z</time>
      </trkpt>
      <trkpt lat="43.55184" lon="6.61336">
        <ele>183</ele>
        <time>2011-12-11T09:07:44Z</time>
      </trkpt>
      <trkpt lat="43.55184" lon="6.61339">
        <ele>183</ele>
        <time>2011-12-11T09:07:45Z</time>
      </trkpt>
      <trkpt lat="43.55183" lon="6.61343">
        <ele>183</ele>
        <time>2011-12-11T09:07:46Z</time>
      </trkpt>
      <trkpt lat="43.55183" lon="6.61346">
        <ele>184</ele>
        <time>2011-12-11T09:07:47Z</time>
      </trkpt>
      <trkpt lat="43.55183" lon="6.61349">
        <ele>184</ele>
        <time>2011-12-11T09:07:48Z</time>
      </trkpt>
      <trkpt lat="43.55183" lon="6.61352">
        <ele>184</ele>
        <time>2011-12-11T09:07:49Z</time>
      </trkpt>
      <trkpt lat="43.55182" lon="6.61356">
        <ele>185</ele>
        <time>2011-12-11T09:07:50Z</time>
      </trkpt>
      <trkpt lat="43.55181" lon="6.61359">
        <ele>185</ele>
        <time>2011-12-11T09:07:51Z</time>
      </trkpt>
      <trkpt lat="43.55181" lon="6.61362">
        <ele>185</ele>
        <time>2011-12-11T09:07:52Z</time>
      </trkpt>
      <trkpt lat="43.55181" lon="6.61366">
        <ele>186</ele>
        <time>2011-12-11T09:07:53Z</time>
      </trkpt>
      <trkpt lat="43.55181" lon="6.61369">
        <ele>186</ele>
        <time>2011-12-11T09:07:54Z</time>
      </trkpt>
      <trkpt lat="43.5518" lon="6.61373">
        <ele>186</ele>
        <time>2011-12-11T09:07:55Z</time>
      </trkpt>
      <trkpt lat="43.5518" lon="6.61376">
        <ele>187</ele>
        <time>2011-12-11T09:07:56Z</time>
      </trkpt>
      <trkpt lat="43.5518" lon="6.6138">
        <ele>187</ele>
        <time>2011-12-11T09:07:57Z</time>
      </trkpt>
      <trkpt lat="43.55179" lon="6.61383">
        <ele>187</ele>
        <time>2011-12-11T09:07:58Z</time>
      </trkpt>
      <trkpt lat="43.55179" lon="6.61387">
        <ele>187</ele>
        <time>2011-12-11T09:07:59Z</time>
      </trkpt>
      <trkpt lat="43.55179" lon="6.6139">
        <ele>187</ele>
        <time>2011-12-11T09:08:00Z</time>
      </trkpt>
      <trkpt lat="43.55179" lon="6.61394">
        <ele>188</ele>
        <time>2011-12-11T09:08:01Z</time>
      </trkpt>
      <trkpt lat="43.55179" lon="6.61397">
        <ele>188</ele>
        <time>2011-12-11T09:08:02Z</time>
      </trkpt>
      <trkpt lat="43.55179" lon="6.61401">
        <ele>188</ele>
        <time>2011-12-11T09:08:03Z</time>
      </trkpt>
      <trkpt lat="43.55179" lon="6.61405">
        <ele>188</ele>
        <time>2011-12-11T09:08:04Z</time>
      </trkpt>
      <trkpt lat="43.55178" lon="6.61408">
        <ele>188</ele>
        <time>2011-12-11T09:08:05Z</time>
      </trkpt>
      <trkpt lat="43.55178" lon="6.61412">
        <ele>189</ele>
        <time>2011-12-11T09:08:06Z</time>
      </trkpt>
      <trkpt lat="43.55179" lon="6.61416">
        <ele>189</ele>
        <time>2011-12-11T09:08:07Z</time>
      </trkpt>
      <trkpt lat="43.55179" lon="6.6142">
        <ele>189</ele>
        <time>2011-12-11T09:08:08Z</time>
      </trkpt>
      <trkpt lat="43.55179" lon="6.61424">
        <ele>189</ele>
        <time>2011-12-11T09:08:09Z</time>
      </trkpt>
      <trkpt lat="43.55179" lon="6.61427">
        <ele>189</ele>
        <time>2011-12-11T09:08:10Z</time>
      </trkpt>
      <trkpt lat="43.55179" lon="6.61431">
        <ele>189</ele>
        <time>2011-12-11T09:08:11Z</time>
      </trkpt>
      <trkpt lat="43.55179" lon="6.61435">
        <ele>189</ele>
        <time>2011-12-11T09:08:12Z</time>
      </trkpt>
      <trkpt lat="43.5518" lon="6.6144">
        <ele>189</ele>
        <time>2011-12-11T09:08:13Z</time>
      </trkpt>
      <trkpt lat="43.5518" lon="6.61443">
        <ele>190</ele>
        <time>2011-12-11T09:08:14Z</time>
      </trkpt>
      <trkpt lat="43.55181" lon="6.61448">
        <ele>190</ele>
        <time>2011-12-11T09:08:15Z</time>
      </trkpt>
      <trkpt lat="43.55181" lon="6.61451">
        <ele>190</ele>
        <time>2011-12-11T09:08:16Z</time>
      </trkpt>
      <trkpt lat="43.55182" lon="6.61455">
        <ele>190</ele>
        <time>2011-12-11T09:08:17Z</time>
      </trkpt>
      <trkpt lat="43.55182" lon="6.61459">
        <ele>190</ele>
        <time>2011-12-11T09:08:18Z</time>
      </trkpt>
      <trkpt lat="43.55183" lon="6.61463">
        <ele>190</ele>
        <time>2011-12-11T09:08:19Z</time>
      </trkpt>
      <trkpt lat="43.55184" lon="6.61467">
        <ele>190</ele>
        <time>2011-12-11T09:08:20Z</time>
      </trkpt>
      <trkpt lat="43.55185" lon="6.61472">
        <ele>190</ele>
        <time>2011-12-11T09:08:21Z</time>
      </trkpt>
      <trkpt lat="43.55185" lon="6.61476">
        <ele>190</ele>
        <time>2011-12-11T09:08:22Z</time>
      </trkpt>
      <trkpt lat="43.55186" lon="6.61481">
        <ele>190</ele>
        <time>2011-12-11T09:08:23Z</time>
      </trkpt>
      <trkpt lat="43.55187" lon="6.61486">
        <ele>190</ele>
        <time>2011-12-11T09:08:24Z</time>
      </trkpt>
      <trkpt lat="43.55188" lon="6.61491">
        <ele>190</ele>
        <time>2011-12-11T09:08:25Z</time>
      </trkpt>
      <trkpt lat="43.55189" lon="6.61496">
        <ele>190</ele>
        <time>2011-12-11T09:08:26Z</time>
      </trkpt>
      <trkpt lat="43.55191" lon="6.615">
        <ele>190</ele>
        <time>2011-12-11T09:08:27Z</time>
      </trkpt>
      <trkpt lat="43.55191" lon="6.61504">
        <ele>191</ele>
        <time>2011-12-11T09:08:28Z</time>
      </trkpt>
      <trkpt lat="43.55193" lon="6.61508">
        <ele>191</ele>
        <time>2011-12-11T09:08:29Z</time>
      </trkpt>
      <trkpt lat="43.55195" lon="6.61513">
        <ele>191</ele>
        <time>2011-12-11T09:08:30Z</time>
      </trkpt>
      <trkpt lat="43.55196" lon="6.61517">
        <ele>191</ele>
        <time>2011-12-11T09:08:31Z</time>
      </trkpt>
      <trkpt lat="43.55198" lon="6.61521">
        <ele>191</ele>
        <time>2011-12-11T09:08:32Z</time>
      </trkpt>
      <trkpt lat="43.552" lon="6.61525">
        <ele>192</ele>
        <time>2011-12-11T09:08:33Z</time>
      </trkpt>
      <trkpt lat="43.55202" lon="6.61529">
        <ele>192</ele>
        <time>2011-12-11T09:08:34Z</time>
      </trkpt>
      <trkpt lat="43.55204" lon="6.61532">
        <ele>192</ele>
        <time>2011-12-11T09:08:35Z</time>
      </trkpt>
      <trkpt lat="43.55206" lon="6.61536">
        <ele>192</ele>
        <time>2011-12-11T09:08:36Z</time>
      </trkpt>
      <trkpt lat="43.55208" lon="6.61539">
        <ele>192</ele>
        <time>2011-12-11T09:08:37Z</time>
      </trkpt>
      <trkpt lat="43.5521" lon="6.61542">
        <ele>192</ele>
        <time>2011-12-11T09:08:38Z</time>
      </trkpt>
      <trkpt lat="43.55212" lon="6.61546">
        <ele>193</ele>
        <time>2011-12-11T09:08:39Z</time>
      </trkpt>
      <trkpt lat="43.55214" lon="6.61549">
        <ele>193</ele>
        <time>2011-12-11T09:08:40Z</time>
      </trkpt>
      <trkpt lat="43.55216" lon="6.61553">
        <ele>194</ele>
        <time>2011-12-11T09:08:41Z</time>
      </trkpt>
      <trkpt lat="43.55218" lon="6.61556">
        <ele>194</ele>
        <time>2011-12-11T09:08:42Z</time>
      </trkpt>
      <trkpt lat="43.5522" lon="6.61559">
        <ele>195</ele>
        <time>2011-12-11T09:08:43Z</time>
      </trkpt>
      <trkpt lat="43.55222" lon="6.61563">
        <ele>195</ele>
        <time>2011-12-11T09:08:44Z</time>
      </trkpt>
      <trkpt lat="43.55223" lon="6.61566">
        <ele>196</ele>
        <time>2011-12-11T09:08:45Z</time>
      </trkpt>
      <trkpt lat="43.55225" lon="6.61569">
        <ele>196</ele>
        <time>2011-12-11T09:08:46Z</time>
      </trkpt>
      <trkpt lat="43.55226" lon="6.61572">
        <ele>196</ele>
        <time>2011-12-11T09:08:47Z</time>
      </trkpt>
      <trkpt lat="43.55228" lon="6.61576">
        <ele>197</ele>
        <time>2011-12-11T09:08:48Z</time>
      </trkpt>
      <trkpt lat="43.55229" lon="6.61579">
        <ele>197</ele>
        <time>2011-12-11T09:08:49Z</time>
      </trkpt>
      <trkpt lat="43.5523" lon="6.61582">
        <ele>197</ele>
        <time>2011-12-11T09:08:50Z</time>
      </trkpt>
      <trkpt lat="43.55232" lon="6.61586">
        <ele>197</ele>
        <time>2011-12-11T09:08:51Z</time>
      </trkpt>
      <trkpt lat="43.55234" lon="6.6159">
        <ele>197</ele>
        <time>2011-12-11T09:08:52Z</time>
      </trkpt>
      <trkpt lat="43.55235" lon="6.61594">
        <ele>198</ele>
        <time>2011-12-11T09:08:53Z</time>
      </trkpt>
      <trkpt lat="43.55237" lon="6.61597">
        <ele>198</ele>
        <time>2011-12-11T09:08:54Z</time>
      </trkpt>
      <trkpt lat="43.55238" lon="6.61601">
        <ele>198</ele>
        <time>2011-12-11T09:08:55Z</time>
      </trkpt>
      <trkpt lat="43.55239" lon="6.61604">
        <ele>198</ele>
        <time>2011-12-11T09:08:56Z</time>
      </trkpt>
      <trkpt lat="43.55241" lon="6.61608">
        <ele>198</ele>
        <time>2011-12-11T09:08:57Z</time>
      </trkpt>
      <trkpt lat="43.55242" lon="6.61612">
        <ele>198</ele>
        <time>2011-12-11T09:08:58Z</time>
      </trkpt>
      <trkpt lat="43.55243" lon="6.61615">
        <ele>198</ele>
        <time>2011-12-11T09:08:59Z</time>
      </trkpt>
      <trkpt lat="43.55244" lon="6.61619">
        <ele>199</ele>
        <time>2011-12-11T09:09:00Z</time>
      </trkpt>
      <trkpt lat="43.55245" lon="6.61623">
        <ele>199</ele>
        <time>2011-12-11T09:09:01Z</time>
      </trkpt>
      <trkpt lat="43.55246" lon="6.61626">
        <ele>199</ele>
        <time>2011-12-11T09:09:02Z</time>
      </trkpt>
      <trkpt lat="43.55247" lon="6.61631">
        <ele>199</ele>
        <time>2011-12-11T09:09:03Z</time>
      </trkpt>
      <trkpt lat="43.55248" lon="6.61635">
        <ele>199</ele>
        <time>2011-12-11T09:09:04Z</time>
      </trkpt>
      <trkpt lat="43.55248" lon="6.6164">
        <ele>199</ele>
        <time>2011-12-11T09:09:05Z</time>
      </trkpt>
      <trkpt lat="43.55249" lon="6.61644">
        <ele>199</ele>
        <time>2011-12-11T09:09:06Z</time>
      </trkpt>
      <trkpt lat="43.55249" lon="6.61649">
        <ele>199</ele>
        <time>2011-12-11T09:09:07Z</time>
      </trkpt>
      <trkpt lat="43.55249" lon="6.61654">
        <ele>199</ele>
        <time>2011-12-11T09:09:08Z</time>
      </trkpt>
      <trkpt lat="43.55249" lon="6.61658">
        <ele>199</ele>
        <time>2011-12-11T09:09:09Z</time>
      </trkpt>
      <trkpt lat="43.5525" lon="6.61663">
        <ele>199</ele>
        <time>2011-12-11T09:09:10Z</time>
      </trkpt>
      <trkpt lat="43.5525" lon="6.61667">
        <ele>199</ele>
        <time>2011-12-11T09:09:11Z</time>
      </trkpt>
      <trkpt lat="43.5525" lon="6.61672">
        <ele>199</ele>
        <time>2011-12-11T09:09:12Z</time>
      </trkpt>
      <trkpt lat="43.55251" lon="6.61676">
        <ele>199</ele>
        <time>2011-12-11T09:09:13Z</time>
      </trkpt>
      <trkpt lat="43.55251" lon="6.61681">
        <ele>199</ele>
        <time>2011-12-11T09:09:14Z</time>
      </trkpt>
      <trkpt lat="43.55251" lon="6.61686">
        <ele>199</ele>
        <time>2011-12-11T09:09:15Z</time>
      </trkpt>
      <trkpt lat="43.55252" lon="6.6169">
        <ele>199</ele>
        <time>2011-12-11T09:09:16Z</time>
      </trkpt>
      <trkpt lat="43.55252" lon="6.61694">
        <ele>199</ele>
        <time>2011-12-11T09:09:17Z</time>
      </trkpt>
      <trkpt lat="43.55252" lon="6.61699">
        <ele>199</ele>
        <time>2011-12-11T09:09:18Z</time>
      </trkpt>
      <trkpt lat="43.55253" lon="6.61703">
        <ele>200</ele>
        <time>2011-12-11T09:09:19Z</time>
      </trkpt>
      <trkpt lat="43.55253" lon="6.61708">
        <ele>199</ele>
        <time>2011-12-11T09:09:20Z</time>
      </trkpt>
      <trkpt lat="43.55254" lon="6.61712">
        <ele>200</ele>
        <time>2011-12-11T09:09:21Z</time>
      </trkpt>
      <trkpt lat="43.55255" lon="6.61717">
        <ele>200</ele>
        <time>2011-12-11T09:09:22Z</time>
      </trkpt>
      <trkpt lat="43.55256" lon="6.61721">
        <ele>200</ele>
        <time>2011-12-11T09:09:23Z</time>
      </trkpt>
      <trkpt lat="43.55258" lon="6.61725">
        <ele>201</ele>
        <time>2011-12-11T09:09:24Z</time>
      </trkpt>
      <trkpt lat="43.55259" lon="6.61728">
        <ele>201</ele>
        <time>2011-12-11T09:09:25Z</time>
      </trkpt>
      <trkpt lat="43.55261" lon="6.61732">
        <ele>201</ele>
        <time>2011-12-11T09:09:26Z</time>
      </trkpt>
      <trkpt lat="43.55262" lon="6.61736">
        <ele>202</ele>
        <time>2011-12-11T09:09:27Z</time>
      </trkpt>
      <trkpt lat="43.55265" lon="6.61739">
        <ele>201</ele>
        <time>2011-12-11T09:09:28Z</time>
      </trkpt>
      <trkpt lat="43.55266" lon="6.61742">
        <ele>201</ele>
        <time>2011-12-11T09:09:29Z</time>
      </trkpt>
      <trkpt lat="43.55269" lon="6.61746">
        <ele>201</ele>
        <time>2011-12-11T09:09:30Z</time>
      </trkpt>
      <trkpt lat="43.55271" lon="6.61751">
        <ele>201</ele>
        <time>2011-12-11T09:09:31Z</time>
      </trkpt>
      <trkpt lat="43.55274" lon="6.61755">
        <ele>201</ele>
        <time>2011-12-11T09:09:32Z</time>
      </trkpt>
      <trkpt lat="43.55276" lon="6.6176">
        <ele>201</ele>
        <time>2011-12-11T09:09:33Z</time>
      </trkpt>
      <trkpt lat="43.55278" lon="6.61766">
        <ele>201</ele>
        <time>2011-12-11T09:09:34Z</time>
      </trkpt>
      <trkpt lat="43.55279" lon="6.61773">
        <ele>201</ele>
        <time>2011-12-11T09:09:35Z</time>
      </trkpt>
      <trkpt lat="43.55282" lon="6.61781">
        <ele>200</ele>
        <time>2011-12-11T09:09:36Z</time>
      </trkpt>
      <trkpt lat="43.55293" lon="6.61848">
        <ele>201</ele>
        <time>2011-12-11T09:09:46Z</time>
      </trkpt>
      <trkpt lat="43.55292" lon="6.61853">
        <ele>201</ele>
        <time>2011-12-11T09:09:47Z</time>
      </trkpt>
      <trkpt lat="43.55293" lon="6.61858">
        <ele>202</ele>
        <time>2011-12-11T09:09:48Z</time>
      </trkpt>
      <trkpt lat="43.55294" lon="6.61863">
        <ele>202</ele>
        <time>2011-12-11T09:09:49Z</time>
      </trkpt>
      <trkpt lat="43.55296" lon="6.61868">
        <ele>202</ele>
        <time>2011-12-11T09:09:50Z</time>
      </trkpt>
      <trkpt lat="43.55297" lon="6.61872">
        <ele>202</ele>
        <time>2011-12-11T09:09:51Z</time>
      </trkpt>
      <trkpt lat="43.55299" lon="6.61876">
        <ele>202</ele>
        <time>2011-12-11T09:09:52Z</time>
      </trkpt>
      <trkpt lat="43.55302" lon="6.6188">
        <ele>203</ele>
        <time>2011-12-11T09:09:53Z</time>
      </trkpt>
      <trkpt lat="43.55304" lon="6.61883">
        <ele>203</ele>
        <time>2011-12-11T09:09:54Z</time>
      </trkpt>
      <trkpt lat="43.55306" lon="6.61887">
        <ele>203</ele>
        <time>2011-12-11T09:09:55Z</time>
      </trkpt>
      <trkpt lat="43.55308" lon="6.6189">
        <ele>203</ele>
        <time>2011-12-11T09:09:56Z</time>
      </trkpt>
      <trkpt lat="43.5531" lon="6.61892">
        <ele>203</ele>
        <time>2011-12-11T09:09:57Z</time>
      </trkpt>
      <trkpt lat="43.55312" lon="6.61895">
        <ele>202</ele>
        <time>2011-12-11T09:09:58Z</time>
      </trkpt>
      <trkpt lat="43.55313" lon="6.61897">
        <ele>202</ele>
        <time>2011-12-11T09:09:59Z</time>
      </trkpt>
      <trkpt lat="43.55314" lon="6.61899">
        <ele>202</ele>
        <time>2011-12-11T09:10:00Z</time>
      </trkpt>
      <trkpt lat="43.55314" lon="6.61901">
        <ele>202</ele>
        <time>2011-12-11T09:10:01Z</time>
      </trkpt>
      <trkpt lat="43.55313" lon="6.61904">
        <ele>202</ele>
        <time>2011-12-11T09:10:02Z</time>
      </trkpt>
      <trkpt lat="43.55313" lon="6.61906">
        <ele>202</ele>
        <time>2011-12-11T09:10:03Z</time>
      </trkpt>
      <trkpt lat="43.55312" lon="6.6191">
        <ele>202</ele>
        <time>2011-12-11T09:10:04Z</time>
      </trkpt>
      <trkpt lat="43.55311" lon="6.61913">
        <ele>202</ele>
        <time>2011-12-11T09:10:05Z</time>
      </trkpt>
      <trkpt lat="43.55311" lon="6.61917">
        <ele>202</ele>
        <time>2011-12-11T09:10:06Z</time>
      </trkpt>
      <trkpt lat="43.55311" lon="6.61921">
        <ele>202</ele>
        <time>2011-12-11T09:10:07Z</time>
      </trkpt>
      <trkpt lat="43.55311" lon="6.61926">
        <ele>202</ele>
        <time>2011-12-11T09:10:08Z</time>
      </trkpt>
      <trkpt lat="43.5531" lon="6.6193">
        <ele>202</ele>
        <time>2011-12-11T09:10:09Z</time>
      </trkpt>
      <trkpt lat="43.5531" lon="6.61934">
        <ele>202</ele>
        <time>2011-12-11T09:10:10Z</time>
      </trkpt>
      <trkpt lat="43.55309" lon="6.61938">
        <ele>202</ele>
        <time>2011-12-11T09:10:11Z</time>
      </trkpt>
      <trkpt lat="43.55309" lon="6.61942">
        <ele>202</ele>
        <time>2011-12-11T09:10:12Z</time>
      </trkpt>
      <trkpt lat="43.55309" lon="6.61947">
        <ele>202</ele>
        <time>2011-12-11T09:10:13Z</time>
      </trkpt>
      <trkpt lat="43.55309" lon="6.61951">
        <ele>202</ele>
        <time>2011-12-11T09:10:14Z</time>
      </trkpt>
      <trkpt lat="43.55309" lon="6.61956">
        <ele>201</ele>
        <time>2011-12-11T09:10:15Z</time>
      </trkpt>
      <trkpt lat="43.55308" lon="6.6196">
        <ele>201</ele>
        <time>2011-12-11T09:10:16Z</time>
      </trkpt>
      <trkpt lat="43.55308" lon="6.61965">
        <ele>201</ele>
        <time>2011-12-11T09:10:17Z</time>
      </trkpt>
      <trkpt lat="43.55307" lon="6.61969">
        <ele>201</ele>
        <time>2011-12-11T09:10:18Z</time>
      </trkpt>
      <trkpt lat="43.55306" lon="6.61974">
        <ele>201</ele>
        <time>2011-12-11T09:10:19Z</time>
      </trkpt>
      <trkpt lat="43.55305" lon="6.61979">
        <ele>201</ele>
        <time>2011-12-11T09:10:20Z</time>
      </trkpt>
      <trkpt lat="43.55304" lon="6.61984">
        <ele>201</ele>
        <time>2011-12-11T09:10:21Z</time>
      </trkpt>
      <trkpt lat="43.55302" lon="6.6199">
        <ele>201</ele>
        <time>2011-12-11T09:10:22Z</time>
      </trkpt>
      <trkpt lat="43.553" lon="6.61996">
        <ele>201</ele>
        <time>2011-12-11T09:10:23Z</time>
      </trkpt>
      <trkpt lat="43.55297" lon="6.62001">
        <ele>200</ele>
        <time>2011-12-11T09:10:24Z</time>
      </trkpt>
      <trkpt lat="43.55294" lon="6.62006">
        <ele>200</ele>
        <time>2011-12-11T09:10:25Z</time>
      </trkpt>
      <trkpt lat="43.55292" lon="6.62011">
        <ele>200</ele>
        <time>2011-12-11T09:10:26Z</time>
      </trkpt>
      <trkpt lat="43.5529" lon="6.62016">
        <ele>199</ele>
        <time>2011-12-11T09:10:27Z</time>
      </trkpt>
      <trkpt lat="43.55287" lon="6.62022">
        <ele>199</ele>
        <time>2011-12-11T09:10:28Z</time>
      </trkpt>
      <trkpt lat="43.55285" lon="6.62027">
        <ele>199</ele>
        <time>2011-12-11T09:10:29Z</time>
      </trkpt>
      <trkpt lat="43.55282" lon="6.62032">
        <ele>199</ele>
        <time>2011-12-11T09:10:30Z</time>
      </trkpt>
      <trkpt lat="43.55279" lon="6.62037">
        <ele>199</ele>
        <time>2011-12-11T09:10:31Z</time>
      </trkpt>
      <trkpt lat="43.55276" lon="6.62041">
        <ele>198</ele>
        <time>2011-12-11T09:10:32Z</time>
      </trkpt>
      <trkpt lat="43.55272" lon="6.62045">
        <ele>198</ele>
        <time>2011-12-11T09:10:33Z</time>
      </trkpt>
      <trkpt lat="43.55269" lon="6.6205">
        <ele>198</ele>
        <time>2011-12-11T09:10:34Z</time>
      </trkpt>
      <trkpt lat="43.55266" lon="6.62054">
        <ele>198</ele>
        <time>2011-12-11T09:10:35Z</time>
      </trkpt>
      <trkpt lat="43.55263" lon="6.62059">
        <ele>198</ele>
        <time>2011-12-11T09:10:36Z</time>
      </trkpt>
      <trkpt lat="43.5526" lon="6.62064">
        <ele>198</ele>
        <time>2011-12-11T09:10:37Z</time>
      </trkpt>
      <trkpt lat="43.55257" lon="6.62069">
        <ele>197</ele>
        <time>2011-12-11T09:10:38Z</time>
      </trkpt>
      <trkpt lat="43.55253" lon="6.62073">
        <ele>197</ele>
        <time>2011-12-11T09:10:39Z</time>
      </trkpt>
      <trkpt lat="43.5525" lon="6.62077">
        <ele>197</ele>
        <time>2011-12-11T09:10:40Z</time>
      </trkpt>
      <trkpt lat="43.55247" lon="6.62081">
        <ele>196</ele>
        <time>2011-12-11T09:10:41Z</time>
      </trkpt>
      <trkpt lat="43.55244" lon="6.62086">
        <ele>196</ele>
        <time>2011-12-11T09:10:42Z</time>
      </trkpt>
      <trkpt lat="43.55242" lon="6.62091">
        <ele>196</ele>
        <time>2011-12-11T09:10:43Z</time>
      </trkpt>
      <trkpt lat="43.55241" lon="6.62097">
        <ele>196</ele>
        <time>2011-12-11T09:10:44Z</time>
      </trkpt>
      <trkpt lat="43.55241" lon="6.62103">
        <ele>196</ele>
        <time>2011-12-11T09:10:45Z</time>
      </trkpt>
      <trkpt lat="43.5524" lon="6.62109">
        <ele>196</ele>
        <time>2011-12-11T09:10:46Z</time>
      </trkpt>
      <trkpt lat="43.55238" lon="6.62115">
        <ele>196</ele>
        <time>2011-12-11T09:10:47Z</time>
      </trkpt>
      <trkpt lat="43.55235" lon="6.62121">
        <ele>196</ele>
        <time>2011-12-11T09:10:48Z</time>
      </trkpt>
      <trkpt lat="43.55231" lon="6.62126">
        <ele>196</ele>
        <time>2011-12-11T09:10:49Z</time>
      </trkpt>
      <trkpt lat="43.55227" lon="6.62129">
        <ele>195</ele>
        <time>2011-12-11T09:10:50Z</time>
      </trkpt>
      <trkpt lat="43.55222" lon="6.62131">
        <ele>195</ele>
        <time>2011-12-11T09:10:51Z</time>
      </trkpt>
      <trkpt lat="43.55217" lon="6.62131">
        <ele>195</ele>
        <time>2011-12-11T09:10:52Z</time>
      </trkpt>
      <trkpt lat="43.55212" lon="6.62132">
        <ele>195</ele>
        <time>2011-12-11T09:10:53Z</time>
      </trkpt>
      <trkpt lat="43.55207" lon="6.62133">
        <ele>195</ele>
        <time>2011-12-11T09:10:54Z</time>
      </trkpt>
      <trkpt lat="43.55202" lon="6.62133">
        <ele>194</ele>
        <time>2011-12-11T09:10:55Z</time>
      </trkpt>
      <trkpt lat="43.55197" lon="6.62134">
        <ele>194</ele>
        <time>2011-12-11T09:10:56Z</time>
      </trkpt>
      <trkpt lat="43.55161" lon="6.62163">
        <ele>191</ele>
        <time>2011-12-11T09:11:06Z</time>
      </trkpt>
      <trkpt lat="43.55161" lon="6.62169">
        <ele>191</ele>
        <time>2011-12-11T09:11:07Z</time>
      </trkpt>
      <trkpt lat="43.55161" lon="6.62175">
        <ele>191</ele>
        <time>2011-12-11T09:11:08Z</time>
      </trkpt>
      <trkpt lat="43.5516" lon="6.6218">
        <ele>191</ele>
        <time>2011-12-11T09:11:09Z</time>
      </trkpt>
      <trkpt lat="43.55157" lon="6.62184">
        <ele>191</ele>
        <time>2011-12-11T09:11:10Z</time>
      </trkpt>
      <trkpt lat="43.55154" lon="6.62188">
        <ele>191</ele>
        <time>2011-12-11T09:11:11Z</time>
      </trkpt>
      <trkpt lat="43.55151" lon="6.62192">
        <ele>191</ele>
        <time>2011-12-11T09:11:12Z</time>
      </trkpt>
      <trkpt lat="43.55149" lon="6.62197">
        <ele>191</ele>
        <time>2011-12-11T09:11:13Z</time>
      </trkpt>
      <trkpt lat="43.55146" lon="6.62202">
        <ele>191</ele>
        <time>2011-12-11T09:11:14Z</time>
      </trkpt>
      <trkpt lat="43.55144" lon="6.62207">
        <ele>191</ele>
        <time>2011-12-11T09:11:15Z</time>
      </trkpt>
      <trkpt lat="43.55143" lon="6.62213">
        <ele>191</ele>
        <time>2011-12-11T09:11:16Z</time>
      </trkpt>
      <trkpt lat="43.55142" lon="6.62219">
        <ele>191</ele>
        <time>2011-12-11T09:11:17Z</time>
      </trkpt>
      <trkpt lat="43.5514" lon="6.62225">
        <ele>191</ele>
        <time>2011-12-11T09:11:18Z</time>
      </trkpt>
      <trkpt lat="43.55139" lon="6.62231">
        <ele>191</ele>
        <time>2011-12-11T09:11:19Z</time>
      </trkpt>
      <trkpt lat="43.55139" lon="6.62237">
        <ele>191</ele>
        <time>2011-12-11T09:11:20Z</time>
      </trkpt>
      <trkpt lat="43.55138" lon="6.62242">
        <ele>190</ele>
        <time>2011-12-11T09:11:21Z</time>
      </trkpt>
      <trkpt lat="43.55137" lon="6.62248">
        <ele>190</ele>
        <time>2011-12-11T09:11:22Z</time>
      </trkpt>
      <trkpt lat="43.55136" lon="6.62253">
        <ele>190</ele>
        <time>2011-12-11T09:11:23Z</time>
      </trkpt>
      <trkpt lat="43.55134" lon="6.62257">
        <ele>190</ele>
        <time>2011-12-11T09:11:24Z</time>
      </trkpt>
      <trkpt lat="43.5513" lon="6.6226">
        <ele>189</ele>
        <time>2011-12-11T09:11:25Z</time>
      </trkpt>
      <trkpt lat="43.55127" lon="6.62262">
        <ele>189</ele>
        <time>2011-12-11T09:11:26Z</time>
      </trkpt>
      <trkpt lat="43.55124" lon="6.62262">
        <ele>189</ele>
        <time>2011-12-11T09:11:27Z</time>
      </trkpt>
      <trkpt lat="43.55119" lon="6.62262">
        <ele>188</ele>
        <time>2011-12-11T09:11:28Z</time>
      </trkpt>
      <trkpt lat="43.55115" lon="6.62261">
        <ele>188</ele>
        <time>2011-12-11T09:11:29Z</time>
      </trkpt>
      <trkpt lat="43.5511" lon="6.6226">
        <ele>188</ele>
        <time>2011-12-11T09:11:30Z</time>
      </trkpt>
      <trkpt lat="43.55106" lon="6.6226">
        <ele>188</ele>
        <time>2011-12-11T09:11:31Z</time>
      </trkpt>
      <trkpt lat="43.55101" lon="6.6226">
        <ele>188</ele>
        <time>2011-12-11T09:11:32Z</time>
      </trkpt>
      <trkpt lat="43.55097" lon="6.62262">
        <ele>188</ele>
        <time>2011-12-11T09:11:33Z</time>
      </trkpt>
      <trkpt lat="43.55094" lon="6.62267">
        <ele>188</ele>
        <time>2011-12-11T09:11:34Z</time>
      </trkpt>
      <trkpt lat="43.55093" lon="6.62273">
        <ele>187</ele>
        <time>2011-12-11T09:11:35Z</time>
      </trkpt>
      <trkpt lat="43.55094" lon="6.62279">
        <ele>187</ele>
        <time>2011-12-11T09:11:36Z</time>
      </trkpt>
      <trkpt lat="43.55096" lon="6.62285">
        <ele>187</ele>
        <time>2011-12-11T09:11:37Z</time>
      </trkpt>
      <trkpt lat="43.55097" lon="6.62291">
        <ele>187</ele>
        <time>2011-12-11T09:11:38Z</time>
      </trkpt>
      <trkpt lat="43.55098" lon="6.62297">
        <ele>186</ele>
        <time>2011-12-11T09:11:39Z</time>
      </trkpt>
      <trkpt lat="43.55099" lon="6.62304">
        <ele>186</ele>
        <time>2011-12-11T09:11:40Z</time>
      </trkpt>
      <trkpt lat="43.55098" lon="6.62311">
        <ele>186</ele>
        <time>2011-12-11T09:11:41Z</time>
      </trkpt>
      <trkpt lat="43.55097" lon="6.62318">
        <ele>185</ele>
        <time>2011-12-11T09:11:42Z</time>
      </trkpt>
      <trkpt lat="43.5509" lon="6.62368">
        <ele>183</ele>
        <time>2011-12-11T09:11:52Z</time>
      </trkpt>
      <trkpt lat="43.55088" lon="6.62369">
        <ele>184</ele>
        <time>2011-12-11T09:11:53Z</time>
      </trkpt>
      <trkpt lat="43.55086" lon="6.62369">
        <ele>184</ele>
        <time>2011-12-11T09:11:54Z</time>
      </trkpt>
      <trkpt lat="43.55085" lon="6.62367">
        <ele>184</ele>
        <time>2011-12-11T09:11:55Z</time>
      </trkpt>
      <trkpt lat="43.55084" lon="6.62364">
        <ele>185</ele>
        <time>2011-12-11T09:11:56Z</time>
      </trkpt>
      <trkpt lat="43.55084" lon="6.6236">
        <ele>185</ele>
        <time>2011-12-11T09:11:57Z</time>
      </trkpt>
      <trkpt lat="43.55083" lon="6.62357">
        <ele>185</ele>
        <time>2011-12-11T09:11:58Z</time>
      </trkpt>
      <trkpt lat="43.55083" lon="6.62355">
        <ele>186</ele>
        <time>2011-12-11T09:11:59Z</time>
      </trkpt>
      <trkpt lat="43.55082" lon="6.62352">
        <ele>186</ele>
        <time>2011-12-11T09:12:00Z</time>
      </trkpt>
      <trkpt lat="43.55081" lon="6.6235">
        <ele>186</ele>
        <time>2011-12-11T09:12:01Z</time>
      </trkpt>
      <trkpt lat="43.5508" lon="6.62347">
        <ele>186</ele>
        <time>2011-12-11T09:12:02Z</time>
      </trkpt>
      <trkpt lat="43.55079" lon="6.62345">
        <ele>187</ele>
        <time>2011-12-11T09:12:03Z</time>
      </trkpt>
      <trkpt lat="43.55079" lon="6.62343">
        <ele>187</ele>
        <time>2011-12-11T09:12:04Z</time>
      </trkpt>
      <trkpt lat="43.55078" lon="6.6234">
        <ele>187</ele>
        <time>2011-12-11T09:12:05Z</time>
      </trkpt>
      <trkpt lat="43.55078" lon="6.62338">
        <ele>188</ele>
        <time>2011-12-11T09:12:06Z</time>
      </trkpt>
      <trkpt lat="43.55077" lon="6.62336">
        <ele>188</ele>
        <time>2011-12-11T09:12:07Z</time>
      </trkpt>
      <trkpt lat="43.55076" lon="6.62334">
        <ele>188</ele>
        <time>2011-12-11T09:12:08Z</time>
      </trkpt>
      <trkpt lat="43.55075" lon="6.62332">
        <ele>189</ele>
        <time>2011-12-11T09:12:09Z</time>
      </trkpt>
      <trkpt lat="43.55074" lon="6.62329">
        <ele>189</ele>
        <time>2011-12-11T09:12:10Z</time>
      </trkpt>
      <trkpt lat="43.55073" lon="6.62328">
        <ele>189</ele>
        <time>2011-12-11T09:12:11Z</time>
      </trkpt>
      <trkpt lat="43.55072" lon="6.62325">
        <ele>189</ele>
        <time>2011-12-11T09:12:12Z</time>
      </trkpt>
      <trkpt lat="43.5507" lon="6.62324">
        <ele>189</ele>
        <time>2011-12-11T09:12:13Z</time>
      </trkpt>
      <trkpt lat="43.55069" lon="6.62322">
        <ele>189</ele>
        <time>2011-12-11T09:12:14Z</time>
      </trkpt>
      <trkpt lat="43.55068" lon="6.62321">
        <ele>189</ele>
        <time>2011-12-11T09:12:15Z</time>
      </trkpt>
      <trkpt lat="43.55066" lon="6.62319">
        <ele>189</ele>
        <time>2011-12-11T09:12:16Z</time>
      </trkpt>
      <trkpt lat="43.55065" lon="6.62317">
        <ele>189</ele>
        <time>2011-12-11T09:12:17Z</time>
      </trkpt>
      <trkpt lat="43.55063" lon="6.62315">
        <ele>189</ele>
        <time>2011-12-11T09:12:18Z</time>
      </trkpt>
      <trkpt lat="43.55062" lon="6.62314">
        <ele>189</ele>
        <time>2011-12-11T09:12:19Z</time>
      </trkpt>
      <trkpt lat="43.55061" lon="6.62312">
        <ele>189</ele>
        <time>2011-12-11T09:12:20Z</time>
      </trkpt>
      <trkpt lat="43.5506" lon="6.62311">
        <ele>189</ele>
        <time>2011-12-11T09:12:21Z</time>
      </trkpt>
      <trkpt lat="43.55059" lon="6.62309">
        <ele>190</ele>
        <time>2011-12-11T09:12:22Z</time>
      </trkpt>
      <trkpt lat="43.55058" lon="6.62306">
        <ele>190</ele>
        <time>2011-12-11T09:12:23Z</time>
      </trkpt>
      <trkpt lat="43.55057" lon="6.62304">
        <ele>190</ele>
        <time>2011-12-11T09:12:24Z</time>
      </trkpt>
      <trkpt lat="43.55057" lon="6.62301">
        <ele>190</ele>
        <time>2011-12-11T09:12:25Z</time>
      </trkpt>
      <trkpt lat="43.55056" lon="6.62299">
        <ele>191</ele>
        <time>2011-12-11T09:12:26Z</time>
      </trkpt>
      <trkpt lat="43.55055" lon="6.62297">
        <ele>191</ele>
        <time>2011-12-11T09:12:27Z</time>
      </trkpt>
      <trkpt lat="43.55055" lon="6.62295">
        <ele>192</ele>
        <time>2011-12-11T09:12:28Z</time>
      </trkpt>
      <trkpt lat="43.55054" lon="6.62293">
        <ele>192</ele>
        <time>2011-12-11T09:12:29Z</time>
      </trkpt>
      <trkpt lat="43.55053" lon="6.62291">
        <ele>192</ele>
        <time>2011-12-11T09:12:30Z</time>
      </trkpt>
      <trkpt lat="43.55052" lon="6.62288">
        <ele>192</ele>
        <time>2011-12-11T09:12:31Z</time>
      </trkpt>
      <trkpt lat="43.55052" lon="6.62286">
        <ele>192</ele>
        <time>2011-12-11T09:12:32Z</time>
      </trkpt>
      <trkpt lat="43.55051" lon="6.62284">
        <ele>192</ele>
        <time>2011-12-11T09:12:33Z</time>
      </trkpt>
      <trkpt lat="43.5505" lon="6.62282">
        <ele>192</ele>
        <time>2011-12-11T09:12:34Z</time>
      </trkpt>
      <trkpt lat="43.55049" lon="6.62279">
        <ele>192</ele>
        <time>2011-12-11T09:12:35Z</time>
      </trkpt>
      <trkpt lat="43.55048" lon="6.62277">
        <ele>192</ele>
        <time>2011-12-11T09:12:36Z</time>
      </trkpt>
      <trkpt lat="43.55047" lon="6.62275">
        <ele>192</ele>
        <time>2011-12-11T09:12:37Z</time>
      </trkpt>
      <trkpt lat="43.55046" lon="6.62272">
        <ele>192</ele>
        <time>2011-12-11T09:12:38Z</time>
      </trkpt>
      <trkpt lat="43.55046" lon="6.6227">
        <ele>192</ele>
        <time>2011-12-11T09:12:39Z</time>
      </trkpt>
      <trkpt lat="43.55045" lon="6.62267">
        <ele>192</ele>
        <time>2011-12-11T09:12:40Z</time>
      </trkpt>
      <trkpt lat="43.55044" lon="6.62265">
        <ele>192</ele>
        <time>2011-12-11T09:12:41Z</time>
      </trkpt>
      <trkpt lat="43.55043" lon="6.62262">
        <ele>192</ele>
        <time>2011-12-11T09:12:42Z</time>
      </trkpt>
      <trkpt lat="43.55043" lon="6.62259">
        <ele>192</ele>
        <time>2011-12-11T09:12:43Z</time>
      </trkpt>
      <trkpt lat="43.55042" lon="6.62256">
        <ele>192</ele>
        <time>2011-12-11T09:12:44Z</time>
      </trkpt>
      <trkpt lat="43.55042" lon="6.62253">
        <ele>193</ele>
        <time>2011-12-11T09:12:45Z</time>
      </trkpt>
      <trkpt lat="43.55041" lon="6.6225">
        <ele>193</ele>
        <time>2011-12-11T09:12:46Z</time>
      </trkpt>
      <trkpt lat="43.55041" lon="6.62246">
        <ele>193</ele>
        <time>2011-12-11T09:12:47Z</time>
      </trkpt>
      <trkpt lat="43.55041" lon="6.62243">
        <ele>193</ele>
        <time>2011-12-11T09:12:48Z</time>
      </trkpt>
      <trkpt lat="43.5504" lon="6.62239">
        <ele>193</ele>
        <time>2011-12-11T09:12:49Z</time>
      </trkpt>
      <trkpt lat="43.55039" lon="6.62236">
        <ele>194</ele>
        <time>2011-12-11T09:12:50Z</time>
      </trkpt>
      <trkpt lat="43.55039" lon="6.62232">
        <ele>194</ele>
        <time>2011-12-11T09:12:51Z</time>
      </trkpt>
      <trkpt lat="43.55038" lon="6.62229">
        <ele>194</ele>
        <time>2011-12-11T09:12:52Z</time>
      </trkpt>
      <trkpt lat="43.55038" lon="6.62226">
        <ele>194</ele>
        <time>2011-12-11T09:12:53Z</time>
      </trkpt>
      <trkpt lat="43.55038" lon="6.62223">
        <ele>194</ele>
        <time>2011-12-11T09:12:54Z</time>
      </trkpt>
      <trkpt lat="43.55037" lon="6.6222">
        <ele>194</ele>
        <time>2011-12-11T09:12:55Z</time>
      </trkpt>
      <trkpt lat="43.55037" lon="6.62217">
        <ele>194</ele>
        <time>2011-12-11T09:12:56Z</time>
      </trkpt>
      <trkpt lat="43.55037" lon="6.62214">
        <ele>194</ele>
        <time>2011-12-11T09:12:57Z</time>
      </trkpt>
      <trkpt lat="43.55037" lon="6.62212">
        <ele>194</ele>
        <time>2011-12-11T09:12:58Z</time>
      </trkpt>
      <trkpt lat="43.55036" lon="6.62209">
        <ele>194</ele>
        <time>2011-12-11T09:12:59Z</time>
      </trkpt>
      <trkpt lat="43.55036" lon="6.62206">
        <ele>195</ele>
        <time>2011-12-11T09:13:00Z</time>
      </trkpt>
      <trkpt lat="43.55035" lon="6.62204">
        <ele>195</ele>
        <time>2011-12-11T09:13:01Z</time>
      </trkpt>
      <trkpt lat="43.55033" lon="6.62203">
        <ele>195</ele>
        <time>2011-12-11T09:13:02Z</time>
      </trkpt>
      <trkpt lat="43.55032" lon="6.62203">
        <ele>195</ele>
        <time>2011-12-11T09:13:03Z</time>
      </trkpt>
      <trkpt lat="43.55031" lon="6.62203">
        <ele>195</ele>
        <time>2011-12-11T09:13:04Z</time>
      </trkpt>
      <trkpt lat="43.5503" lon="6.62204">
        <ele>195</ele>
        <time>2011-12-11T09:13:05Z</time>
      </trkpt>
      <trkpt lat="43.55029" lon="6.62205">
        <ele>195</ele>
        <time>2011-12-11T09:13:06Z</time>
      </trkpt>
      <trkpt lat="43.55028" lon="6.62206">
        <ele>195</ele>
        <time>2011-12-11T09:13:07Z</time>
      </trkpt>
      <trkpt lat="43.55027" lon="6.62207">
        <ele>195</ele>
        <time>2011-12-11T09:13:08Z</time>
      </trkpt>
      <trkpt lat="43.55025" lon="6.62209">
        <ele>194</ele>
        <time>2011-12-11T09:13:09Z</time>
      </trkpt>
      <trkpt lat="43.55024" lon="6.62211">
        <ele>194</ele>
        <time>2011-12-11T09:13:10Z</time>
      </trkpt>
      <trkpt lat="43.55023" lon="6.62214">
        <ele>194</ele>
        <time>2011-12-11T09:13:11Z</time>
      </trkpt>
      <trkpt lat="43.55021" lon="6.62216">
        <ele>194</ele>
        <time>2011-12-11T09:13:12Z</time>
      </trkpt>
      <trkpt lat="43.5502" lon="6.62219">
        <ele>194</ele>
        <time>2011-12-11T09:13:13Z</time>
      </trkpt>
      <trkpt lat="43.55018" lon="6.62222">
        <ele>194</ele>
        <time>2011-12-11T09:13:14Z</time>
      </trkpt>
      <trkpt lat="43.55017" lon="6.62225">
        <ele>194</ele>
        <time>2011-12-11T09:13:15Z</time>
      </trkpt>
      <trkpt lat="43.55015" lon="6.62228">
        <ele>194</ele>
        <time>2011-12-11T09:13:16Z</time>
      </trkpt>
      <trkpt lat="43.55014" lon="6.62231">
        <ele>194</ele>
        <time>2011-12-11T09:13:17Z</time>
      </trkpt>
      <trkpt lat="43.55011" lon="6.62233">
        <ele>194</ele>
        <time>2011-12-11T09:13:18Z</time>
      </trkpt>
      <trkpt lat="43.55009" lon="6.62234">
        <ele>194</ele>
        <time>2011-12-11T09:13:19Z</time>
      </trkpt>
      <trkpt lat="43.55006" lon="6.62234">
        <ele>194</ele>
        <time>2011-12-11T09:13:20Z</time>
      </trkpt>
      <trkpt lat="43.55003" lon="6.62232">
        <ele>194</ele>
        <time>2011-12-11T09:13:21Z</time>
      </trkpt>
      <trkpt lat="43.55002" lon="6.6223">
        <ele>194</ele>
        <time>2011-12-11T09:13:22Z</time>
      </trkpt>
      <trkpt lat="43.55001" lon="6.62226">
        <ele>194</ele>
        <time>2011-12-11T09:13:23Z</time>
      </trkpt>
      <trkpt lat="43.55001" lon="6.62222">
        <ele>194</ele>
        <time>2011-12-11T09:13:24Z</time>
      </trkpt>
      <trkpt lat="43.55001" lon="6.62218">
        <ele>194</ele>
        <time>2011-12-11T09:13:25Z</time>
      </trkpt>
      <trkpt lat="43.55" lon="6.62213">
        <ele>194</ele>
        <time>2011-12-11T09:13:26Z</time>
      </trkpt>
      <trkpt lat="43.55" lon="6.62208">
        <ele>194</ele>
        <time>2011-12-11T09:13:27Z</time>
      </trkpt>
      <trkpt lat="43.55" lon="6.62204">
        <ele>194</ele>
        <time>2011-12-11T09:13:28Z</time>
      </trkpt>
      <trkpt lat="43.54999" lon="6.62199">
        <ele>194</ele>
        <time>2011-12-11T09:13:29Z</time>
      </trkpt>
      <trkpt lat="43.54999" lon="6.62195">
        <ele>194</ele>
        <time>2011-12-11T09:13:30Z</time>
      </trkpt>
      <trkpt lat="43.54999" lon="6.6219">
        <ele>194</ele>
        <time>2011-12-11T09:13:31Z</time>
      </trkpt>
      <trkpt lat="43.54999" lon="6.62185">
        <ele>194</ele>
        <time>2011-12-11T09:13:32Z</time>
      </trkpt>
      <trkpt lat="43.54999" lon="6.62182">
        <ele>195</ele>
        <time>2011-12-11T09:13:33Z</time>
      </trkpt>
      <trkpt lat="43.54998" lon="6.62179">
        <ele>196</ele>
        <time>2011-12-11T09:13:34Z</time>
      </trkpt>
      <trkpt lat="43.54997" lon="6.62175">
        <ele>196</ele>
        <time>2011-12-11T09:13:35Z</time>
      </trkpt>
      <trkpt lat="43.54995" lon="6.62171">
        <ele>196</ele>
        <time>2011-12-11T09:13:36Z</time>
      </trkpt>
      <trkpt lat="43.54993" lon="6.62167">
        <ele>196</ele>
        <time>2011-12-11T09:13:37Z</time>
      </trkpt>
      <trkpt lat="43.54991" lon="6.62163">
        <ele>196</ele>
        <time>2011-12-11T09:13:38Z</time>
      </trkpt>
      <trkpt lat="43.54989" lon="6.62159">
        <ele>196</ele>
        <time>2011-12-11T09:13:39Z</time>
      </trkpt>
      <trkpt lat="43.54988" lon="6.62155">
        <ele>196</ele>
        <time>2011-12-11T09:13:40Z</time>
      </trkpt>
      <trkpt lat="43.54986" lon="6.62152">
        <ele>197</ele>
        <time>2011-12-11T09:13:41Z</time>
      </trkpt>
      <trkpt lat="43.54984" lon="6.62149">
        <ele>197</ele>
        <time>2011-12-11T09:13:42Z</time>
      </trkpt>
      <trkpt lat="43.54982" lon="6.62147">
        <ele>197</ele>
        <time>2011-12-11T09:13:43Z</time>
      </trkpt>
      <trkpt lat="43.5498" lon="6.62145">
        <ele>198</ele>
        <time>2011-12-11T09:13:44Z</time>
      </trkpt>
      <trkpt lat="43.54977" lon="6.62144">
        <ele>198</ele>
        <time>2011-12-11T09:13:45Z</time>
      </trkpt>
      <trkpt lat="43.54974" lon="6.62145">
        <ele>198</ele>
        <time>2011-12-11T09:13:46Z</time>
      </trkpt>
      <trkpt lat="43.54971" lon="6.62147">
        <ele>198</ele>
        <time>2011-12-11T09:13:47Z</time>
      </trkpt>
      <trkpt lat="43.54968" lon="6.62148">
        <ele>198</ele>
        <time>2011-12-11T09:13:48Z</time>
      </trkpt>
      <trkpt lat="43.54965" lon="6.6215">
        <ele>198</ele>
        <time>2011-12-11T09:13:49Z</time>
      </trkpt>
      <trkpt lat="43.54962" lon="6.62152">
        <ele>198</ele>
        <time>2011-12-11T09:13:50Z</time>
      </trkpt>
      <trkpt lat="43.54959" lon="6.62154">
        <ele>199</ele>
        <time>2011-12-11T09:13:51Z</time>
      </trkpt>
      <trkpt lat="43.54957" lon="6.62155">
        <ele>199</ele>
        <time>2011-12-11T09:13:52Z</time>
      </trkpt>
      <trkpt lat="43.54954" lon="6.62156">
        <ele>199</ele>
        <time>2011-12-11T09:13:53Z</time>
      </trkpt>
      <trkpt lat="43.54951" lon="6.62157">
        <ele>199</ele>
        <time>2011-12-11T09:13:54Z</time>
      </trkpt>
      <trkpt lat="43.54948" lon="6.62157">
        <ele>200</ele>
        <time>2011-12-11T09:13:55Z</time>
      </trkpt>
      <trkpt lat="43.54945" lon="6.62157">
        <ele>200</ele>
        <time>2011-12-11T09:13:56Z</time>
      </trkpt>
      <trkpt lat="43.54942" lon="6.62157">
        <ele>200</ele>
        <time>2011-12-11T09:13:57Z</time>
      </trkpt>
      <trkpt lat="43.5494" lon="6.62157">
        <ele>200</ele>
        <time>2011-12-11T09:13:58Z</time>
      </trkpt>
      <trkpt lat="43.54936" lon="6.62158">
        <ele>200</ele>
        <time>2011-12-11T09:13:59Z</time>
      </trkpt>
      <trkpt lat="43.54934" lon="6.62159">
        <ele>200</ele>
        <time>2011-12-11T09:14:00Z</time>
      </trkpt>
      <trkpt lat="43.54931" lon="6.62161">
        <ele>200</ele>
        <time>2011-12-11T09:14:01Z</time>
      </trkpt>
      <trkpt lat="43.54928" lon="6.62162">
        <ele>200</ele>
        <time>2011-12-11T09:14:02Z</time>
      </trkpt>
      <trkpt lat="43.54926" lon="6.62163">
        <ele>201</ele>
        <time>2011-12-11T09:14:03Z</time>
      </trkpt>
      <trkpt lat="43.54923" lon="6.62164">
        <ele>201</ele>
        <time>2011-12-11T09:14:04Z</time>
      </trkpt>
      <trkpt lat="43.54921" lon="6.62165">
        <ele>201</ele>
        <time>2011-12-11T09:14:05Z</time>
      </trkpt>
      <trkpt lat="43.54918" lon="6.62166">
        <ele>202</ele>
        <time>2011-12-11T09:14:06Z</time>
      </trkpt>
      <trkpt lat="43.54916" lon="6.62168">
        <ele>202</ele>
        <time>2011-12-11T09:14:07Z</time>
      </trkpt>
      <trkpt lat="43.54914" lon="6.62169">
        <ele>202</ele>
        <time>2011-12-11T09:14:08Z</time>
      </trkpt>
      <trkpt lat="43.54913" lon="6.62171">
        <ele>202</ele>
        <time>2011-12-11T09:14:09Z</time>
      </trkpt>
      <trkpt lat="43.54911" lon="6.62175">
        <ele>203</ele>
        <time>2011-12-11T09:14:10Z</time>
      </trkpt>
      <trkpt lat="43.5491" lon="6.62178">
        <ele>203</ele>
        <time>2011-12-11T09:14:11Z</time>
      </trkpt>
      <trkpt lat="43.54909" lon="6.62181">
        <ele>203</ele>
        <time>2011-12-11T09:14:12Z</time>
      </trkpt>
      <trkpt lat="43.54908" lon="6.62185">
        <ele>204</ele>
        <time>2011-12-11T09:14:13Z</time>
      </trkpt>
      <trkpt lat="43.54907" lon="6.62188">
        <ele>204</ele>
        <time>2011-12-11T09:14:14Z</time>
      </trkpt>
      <trkpt lat="43.54906" lon="6.62191">
        <ele>204</ele>
        <time>2011-12-11T09:14:15Z</time>
      </trkpt>
      <trkpt lat="43.54905" lon="6.62194">
        <ele>204</ele>
        <time>2011-12-11T09:14:16Z</time>
      </trkpt>
      <trkpt lat="43.54903" lon="6.62196">
        <ele>204</ele>
        <time>2011-12-11T09:14:17Z</time>
      </trkpt>
      <trkpt lat="43.54902" lon="6.62199">
        <ele>204</ele>
        <time>2011-12-11T09:14:18Z</time>
      </trkpt>
      <trkpt lat="43.549" lon="6.62202">
        <ele>204</ele>
        <time>2011-12-11T09:14:19Z</time>
      </trkpt>
      <trkpt lat="43.54899" lon="6.62204">
        <ele>204</ele>
        <time>2011-12-11T09:14:20Z</time>
      </trkpt>
      <trkpt lat="43.54897" lon="6.62207">
        <ele>204</ele>
        <time>2011-12-11T09:14:21Z</time>
      </trkpt>
      <trkpt lat="43.54896" lon="6.62211">
        <ele>205</ele>
        <time>2011-12-11T09:14:22Z</time>
      </trkpt>
      <trkpt lat="43.54894" lon="6.62214">
        <ele>205</ele>
        <time>2011-12-11T09:14:23Z</time>
      </trkpt>
      <trkpt lat="43.54893" lon="6.62217">
        <ele>205</ele>
        <time>2011-12-11T09:14:24Z</time>
      </trkpt>
      <trkpt lat="43.54891" lon="6.6222">
        <ele>205</ele>
        <time>2011-12-11T09:14:25Z</time>
      </trkpt>
      <trkpt lat="43.54889" lon="6.62222">
        <ele>205</ele>
        <time>2011-12-11T09:14:26Z</time>
      </trkpt>
      <trkpt lat="43.54887" lon="6.62225">
        <ele>205</ele>
        <time>2011-12-11T09:14:27Z</time>
      </trkpt>
      <trkpt lat="43.54885" lon="6.62227">
        <ele>205</ele>
        <time>2011-12-11T09:14:28Z</time>
      </trkpt>
      <trkpt lat="43.54883" lon="6.6223">
        <ele>205</ele>
        <time>2011-12-11T09:14:29Z</time>
      </trkpt>
      <trkpt lat="43.54881" lon="6.62231">
        <ele>205</ele>
        <time>2011-12-11T09:14:30Z</time>
      </trkpt>
      <trkpt lat="43.54879" lon="6.62234">
        <ele>205</ele>
        <time>2011-12-11T09:14:31Z</time>
      </trkpt>
      <trkpt lat="43.54878" lon="6.62237">
        <ele>205</ele>
        <time>2011-12-11T09:14:32Z</time>
      </trkpt>
      <trkpt lat="43.54876" lon="6.62239">
        <ele>205</ele>
        <time>2011-12-11T09:14:33Z</time>
      </trkpt>
      <trkpt lat="43.54873" lon="6.62241">
        <ele>205</ele>
        <time>2011-12-11T09:14:34Z</time>
      </trkpt>
      <trkpt lat="43.54871" lon="6.62242">
        <ele>205</ele>
        <time>2011-12-11T09:14:35Z</time>
      </trkpt>
      <trkpt lat="43.54868" lon="6.62241">
        <ele>205</ele>
        <time>2011-12-11T09:14:36Z</time>
      </trkpt>
      <trkpt lat="43.54867" lon="6.62238">
        <ele>204</ele>
        <time>2011-12-11T09:14:37Z</time>
      </trkpt>
      <trkpt lat="43.54865" lon="6.62236">
        <ele>205</ele>
        <time>2011-12-11T09:14:38Z</time>
      </trkpt>
      <trkpt lat="43.54865" lon="6.62232">
        <ele>204</ele>
        <time>2011-12-11T09:14:39Z</time>
      </trkpt>
      <trkpt lat="43.54865" lon="6.62229">
        <ele>205</ele>
        <time>2011-12-11T09:14:40Z</time>
      </trkpt>
      <trkpt lat="43.54865" lon="6.62225">
        <ele>204</ele>
        <time>2011-12-11T09:14:41Z</time>
      </trkpt>
      <trkpt lat="43.54866" lon="6.62221">
        <ele>204</ele>
        <time>2011-12-11T09:14:42Z</time>
      </trkpt>
      <trkpt lat="43.54866" lon="6.62217">
        <ele>204</ele>
        <time>2011-12-11T09:14:43Z</time>
      </trkpt>
      <trkpt lat="43.54868" lon="6.62213">
        <ele>204</ele>
        <time>2011-12-11T09:14:44Z</time>
      </trkpt>
      <trkpt lat="43.5487" lon="6.6221">
        <ele>204</ele>
        <time>2011-12-11T09:14:45Z</time>
      </trkpt>
      <trkpt lat="43.54871" lon="6.62206">
        <ele>204</ele>
        <time>2011-12-11T09:14:46Z</time>
      </trkpt>
      <trkpt lat="43.54873" lon="6.62202">
        <ele>204</ele>
        <time>2011-12-11T09:14:47Z</time>
      </trkpt>
      <trkpt lat="43.54875" lon="6.62197">
        <ele>204</ele>
        <time>2011-12-11T09:14:48Z</time>
      </trkpt>
      <trkpt lat="43.54875" lon="6.62193">
        <ele>205</ele>
        <time>2011-12-11T09:14:49Z</time>
      </trkpt>
      <trkpt lat="43.54877" lon="6.62188">
        <ele>205</ele>
        <time>2011-12-11T09:14:50Z</time>
      </trkpt>
      <trkpt lat="43.54877" lon="6.62183">
        <ele>205</ele>
        <time>2011-12-11T09:14:51Z</time>
      </trkpt>
      <trkpt lat="43.54877" lon="6.62179">
        <ele>205</ele>
        <time>2011-12-11T09:14:52Z</time>
      </trkpt>
      <trkpt lat="43.54878" lon="6.62174">
        <ele>205</ele>
        <time>2011-12-11T09:14:53Z</time>
      </trkpt>
      <trkpt lat="43.54878" lon="6.62169">
        <ele>205</ele>
        <time>2011-12-11T09:14:54Z</time>
      </trkpt>
      <trkpt lat="43.54878" lon="6.62164">
        <ele>206</ele>
        <time>2011-12-11T09:14:55Z</time>
      </trkpt>
      <trkpt lat="43.54878" lon="6.6216">
        <ele>207</ele>
        <time>2011-12-11T09:14:56Z</time>
      </trkpt>
      <trkpt lat="43.54877" lon="6.62155">
        <ele>208</ele>
        <time>2011-12-11T09:14:57Z</time>
      </trkpt>
      <trkpt lat="43.54877" lon="6.6215">
        <ele>207</ele>
        <time>2011-12-11T09:14:58Z</time>
      </trkpt>
      <trkpt lat="43.54877" lon="6.62147">
        <ele>208</ele>
        <time>2011-12-11T09:14:59Z</time>
      </trkpt>
      <trkpt lat="43.54877" lon="6.62142">
        <ele>208</ele>
        <time>2011-12-11T09:15:00Z</time>
      </trkpt>
      <trkpt lat="43.54878" lon="6.62138">
        <ele>208</ele>
        <time>2011-12-11T09:15:01Z</time>
      </trkpt>
      <trkpt lat="43.54878" lon="6.62134">
        <ele>208</ele>
        <time>2011-12-11T09:15:02Z</time>
      </trkpt>
      <trkpt lat="43.54878" lon="6.6213">
        <ele>208</ele>
        <time>2011-12-11T09:15:03Z</time>
      </trkpt>
      <trkpt lat="43.54878" lon="6.62126">
        <ele>208</ele>
        <time>2011-12-11T09:15:04Z</time>
      </trkpt>
      <trkpt lat="43.54877" lon="6.62123">
        <ele>208</ele>
        <time>2011-12-11T09:15:05Z</time>
      </trkpt>
      <trkpt lat="43.54877" lon="6.62121">
        <ele>209</ele>
        <time>2011-12-11T09:15:06Z</time>
      </trkpt>
      <trkpt lat="43.54876" lon="6.62119">
        <ele>209</ele>
        <time>2011-12-11T09:15:07Z</time>
      </trkpt>
      <trkpt lat="43.54876" lon="6.62116">
        <ele>209</ele>
        <time>2011-12-11T09:15:08Z</time>
      </trkpt>
      <trkpt lat="43.54875" lon="6.62113">
        <ele>209</ele>
        <time>2011-12-11T09:15:09Z</time>
      </trkpt>
      <trkpt lat="43.54873" lon="6.6211">
        <ele>209</ele>
        <time>2011-12-11T09:15:10Z</time>
      </trkpt>
      <trkpt lat="43.54871" lon="6.62107">
        <ele>209</ele>
        <time>2011-12-11T09:15:11Z</time>
      </trkpt>
      <trkpt lat="43.54869" lon="6.62106">
        <ele>209</ele>
        <time>2011-12-11T09:15:12Z</time>
      </trkpt>
      <trkpt lat="43.54866" lon="6.62107">
        <ele>209</ele>
        <time>2011-12-11T09:15:13Z</time>
      </trkpt>
      <trkpt lat="43.54863" lon="6.62109">
        <ele>211</ele>
        <time>2011-12-11T09:15:14Z</time>
      </trkpt>
      <trkpt lat="43.54861" lon="6.62112">
        <ele>211</ele>
        <time>2011-12-11T09:15:15Z</time>
      </trkpt>
      <trkpt lat="43.5486" lon="6.62115">
        <ele>212</ele>
        <time>2011-12-11T09:15:16Z</time>
      </trkpt>
      <trkpt lat="43.5486" lon="6.62119">
        <ele>212</ele>
        <time>2011-12-11T09:15:17Z</time>
      </trkpt>
      <trkpt lat="43.54861" lon="6.62123">
        <ele>212</ele>
        <time>2011-12-11T09:15:18Z</time>
      </trkpt>
      <trkpt lat="43.54863" lon="6.62127">
        <ele>212</ele>
        <time>2011-12-11T09:15:19Z</time>
      </trkpt>
      <trkpt lat="43.54865" lon="6.62131">
        <ele>212</ele>
        <time>2011-12-11T09:15:20Z</time>
      </trkpt>
      <trkpt lat="43.54867" lon="6.62135">
        <ele>212</ele>
        <time>2011-12-11T09:15:21Z</time>
      </trkpt>
      <trkpt lat="43.54867" lon="6.6214">
        <ele>212</ele>
        <time>2011-12-11T09:15:22Z</time>
      </trkpt>
      <trkpt lat="43.54868" lon="6.62144">
        <ele>212</ele>
        <time>2011-12-11T09:15:23Z</time>
      </trkpt>
      <trkpt lat="43.54868" lon="6.62149">
        <ele>212</ele>
        <time>2011-12-11T09:15:24Z</time>
      </trkpt>
      <trkpt lat="43.54868" lon="6.62154">
        <ele>212</ele>
        <time>2011-12-11T09:15:25Z</time>
      </trkpt>
      <trkpt lat="43.54868" lon="6.62158">
        <ele>213</ele>
        <time>2011-12-11T09:15:26Z</time>
      </trkpt>
      <trkpt lat="43.54867" lon="6.62163">
        <ele>213</ele>
        <time>2011-12-11T09:15:27Z</time>
      </trkpt>
      <trkpt lat="43.54867" lon="6.62166">
        <ele>213</ele>
        <time>2011-12-11T09:15:28Z</time>
      </trkpt>
      <trkpt lat="43.54865" lon="6.62171">
        <ele>213</ele>
        <time>2011-12-11T09:15:29Z</time>
      </trkpt>
      <trkpt lat="43.54864" lon="6.62175">
        <ele>213</ele>
        <time>2011-12-11T09:15:30Z</time>
      </trkpt>
      <trkpt lat="43.54863" lon="6.62178">
        <ele>212</ele>
        <time>2011-12-11T09:15:31Z</time>
      </trkpt>
      <trkpt lat="43.54861" lon="6.62182">
        <ele>212</ele>
        <time>2011-12-11T09:15:32Z</time>
      </trkpt>
      <trkpt lat="43.54861" lon="6.62186">
        <ele>213</ele>
        <time>2011-12-11T09:15:33Z</time>
      </trkpt>
      <trkpt lat="43.5486" lon="6.62189">
        <ele>213</ele>
        <time>2011-12-11T09:15:34Z</time>
      </trkpt>
      <trkpt lat="43.54858" lon="6.62193">
        <ele>213</ele>
        <time>2011-12-11T09:15:35Z</time>
      </trkpt>
      <trkpt lat="43.54857" lon="6.62196">
        <ele>213</ele>
        <time>2011-12-11T09:15:36Z</time>
      </trkpt>
      <trkpt lat="43.54856" lon="6.622">
        <ele>213</ele>
        <time>2011-12-11T09:15:37Z</time>
      </trkpt>
      <trkpt lat="43.54855" lon="6.62203">
        <ele>213</ele>
        <time>2011-12-11T09:15:38Z</time>
      </trkpt>
      <trkpt lat="43.54854" lon="6.62207">
        <ele>214</ele>
        <time>2011-12-11T09:15:39Z</time>
      </trkpt>
      <trkpt lat="43.54852" lon="6.62211">
        <ele>214</ele>
        <time>2011-12-11T09:15:40Z</time>
      </trkpt>
      <trkpt lat="43.5485" lon="6.62214">
        <ele>214</ele>
        <time>2011-12-11T09:15:41Z</time>
      </trkpt>
      <trkpt lat="43.54849" lon="6.62217">
        <ele>215</ele>
        <time>2011-12-11T09:15:42Z</time>
      </trkpt>
      <trkpt lat="43.54847" lon="6.62221">
        <ele>215</ele>
        <time>2011-12-11T09:15:43Z</time>
      </trkpt>
      <trkpt lat="43.54846" lon="6.62224">
        <ele>215</ele>
        <time>2011-12-11T09:15:44Z</time>
      </trkpt>
      <trkpt lat="43.54844" lon="6.62227">
        <ele>215</ele>
        <time>2011-12-11T09:15:45Z</time>
      </trkpt>
      <trkpt lat="43.54842" lon="6.62231">
        <ele>215</ele>
        <time>2011-12-11T09:15:46Z</time>
      </trkpt>
      <trkpt lat="43.54841" lon="6.62234">
        <ele>216</ele>
        <time>2011-12-11T09:15:47Z</time>
      </trkpt>
      <trkpt lat="43.54839" lon="6.62237">
        <ele>216</ele>
        <time>2011-12-11T09:15:48Z</time>
      </trkpt>
      <trkpt lat="43.54837" lon="6.62241">
        <ele>217</ele>
        <time>2011-12-11T09:15:49Z</time>
      </trkpt>
      <trkpt lat="43.54836" lon="6.62243">
        <ele>217</ele>
        <time>2011-12-11T09:15:50Z</time>
      </trkpt>
      <trkpt lat="43.54836" lon="6.62246">
        <ele>218</ele>
        <time>2011-12-11T09:15:51Z</time>
      </trkpt>
      <trkpt lat="43.54835" lon="6.62249">
        <ele>219</ele>
        <time>2011-12-11T09:15:52Z</time>
      </trkpt>
      <trkpt lat="43.54833" lon="6.62253">
        <ele>219</ele>
        <time>2011-12-11T09:15:53Z</time>
      </trkpt>
      <trkpt lat="43.54832" lon="6.62256">
        <ele>219</ele>
        <time>2011-12-11T09:15:54Z</time>
      </trkpt>
      <trkpt lat="43.5483" lon="6.6226">
        <ele>219</ele>
        <time>2011-12-11T09:15:55Z</time>
      </trkpt>
      <trkpt lat="43.54828" lon="6.62263">
        <ele>219</ele>
        <time>2011-12-11T09:15:56Z</time>
      </trkpt>
      <trkpt lat="43.54826" lon="6.62266">
        <ele>219</ele>
        <time>2011-12-11T09:15:57Z</time>
      </trkpt>
      <trkpt lat="43.54825" lon="6.62269">
        <ele>219</ele>
        <time>2011-12-11T09:15:58Z</time>
      </trkpt>
      <trkpt lat="43.54823" lon="6.62272">
        <ele>220</ele>
        <time>2011-12-11T09:15:59Z</time>
      </trkpt>
      <trkpt lat="43.54822" lon="6.62275">
        <ele>220</ele>
        <time>2011-12-11T09:16:00Z</time>
      </trkpt>
      <trkpt lat="43.54821" lon="6.62278">
        <ele>221</ele>
        <time>2011-12-11T09:16:01Z</time>
      </trkpt>
      <trkpt lat="43.54819" lon="6.62281">
        <ele>221</ele>
        <time>2011-12-11T09:16:02Z</time>
      </trkpt>
      <trkpt lat="43.54817" lon="6.62284">
        <ele>221</ele>
        <time>2011-12-11T09:16:03Z</time>
      </trkpt>
      <trkpt lat="43.54815" lon="6.62286">
        <ele>221</ele>
        <time>2011-12-11T09:16:04Z</time>
      </trkpt>
      <trkpt lat="43.54813" lon="6.62288">
        <ele>222</ele>
        <time>2011-12-11T09:16:05Z</time>
      </trkpt>
      <trkpt lat="43.54811" lon="6.6229">
        <ele>221</ele>
        <time>2011-12-11T09:16:06Z</time>
      </trkpt>
      <trkpt lat="43.54809" lon="6.62293">
        <ele>221</ele>
        <time>2011-12-11T09:16:07Z</time>
      </trkpt>
      <trkpt lat="43.54807" lon="6.62295">
        <ele>221</ele>
        <time>2011-12-11T09:16:08Z</time>
      </trkpt>
      <trkpt lat="43.54806" lon="6.62298">
        <ele>221</ele>
        <time>2011-12-11T09:16:09Z</time>
      </trkpt>
      <trkpt lat="43.54805" lon="6.62302">
        <ele>222</ele>
        <time>2011-12-11T09:16:10Z</time>
      </trkpt>
      <trkpt lat="43.54805" lon="6.62306">
        <ele>222</ele>
        <time>2011-12-11T09:16:11Z</time>
      </trkpt>
      <trkpt lat="43.54804" lon="6.62309">
        <ele>222</ele>
        <time>2011-12-11T09:16:12Z</time>
      </trkpt>
      <trkpt lat="43.54804" lon="6.62312">
        <ele>222</ele>
        <time>2011-12-11T09:16:13Z</time>
      </trkpt>
      <trkpt lat="43.54803" lon="6.62315">
        <ele>223</ele>
        <time>2011-12-11T09:16:14Z</time>
      </trkpt>
      <trkpt lat="43.54802" lon="6.62319">
        <ele>223</ele>
        <time>2011-12-11T09:16:15Z</time>
      </trkpt>
      <trkpt lat="43.54801" lon="6.62322">
        <ele>223</ele>
        <time>2011-12-11T09:16:16Z</time>
      </trkpt>
      <trkpt lat="43.54799" lon="6.62324">
        <ele>223</ele>
        <time>2011-12-11T09:16:17Z</time>
      </trkpt>
      <trkpt lat="43.54797" lon="6.62327">
        <ele>223</ele>
        <time>2011-12-11T09:16:18Z</time>
      </trkpt>
      <trkpt lat="43.54795" lon="6.62329">
        <ele>223</ele>
        <time>2011-12-11T09:16:19Z</time>
      </trkpt>
      <trkpt lat="43.54794" lon="6.62332">
        <ele>223</ele>
        <time>2011-12-11T09:16:20Z</time>
      </trkpt>
      <trkpt lat="43.54792" lon="6.62333">
        <ele>224</ele>
        <time>2011-12-11T09:16:21Z</time>
      </trkpt>
      <trkpt lat="43.5479" lon="6.62335">
        <ele>224</ele>
        <time>2011-12-11T09:16:22Z</time>
      </trkpt>
      <trkpt lat="43.54788" lon="6.62337">
        <ele>225</ele>
        <time>2011-12-11T09:16:23Z</time>
      </trkpt>
      <trkpt lat="43.54787" lon="6.62339">
        <ele>226</ele>
        <time>2011-12-11T09:16:24Z</time>
      </trkpt>
      <trkpt lat="43.54786" lon="6.62342">
        <ele>226</ele>
        <time>2011-12-11T09:16:25Z</time>
      </trkpt>
      <trkpt lat="43.54785" lon="6.62344">
        <ele>226</ele>
        <time>2011-12-11T09:16:26Z</time>
      </trkpt>
      <trkpt lat="43.54784" lon="6.62348">
        <ele>226</ele>
        <time>2011-12-11T09:16:27Z</time>
      </trkpt>
      <trkpt lat="43.54784" lon="6.62351">
        <ele>226</ele>
        <time>2011-12-11T09:16:28Z</time>
      </trkpt>
      <trkpt lat="43.54785" lon="6.62354">
        <ele>226</ele>
        <time>2011-12-11T09:16:29Z</time>
      </trkpt>
      <trkpt lat="43.54787" lon="6.62357">
        <ele>226</ele>
        <time>2011-12-11T09:16:30Z</time>
      </trkpt>
      <trkpt lat="43.54789" lon="6.62358">
        <ele>226</ele>
        <time>2011-12-11T09:16:31Z</time>
      </trkpt>
      <trkpt lat="43.54792" lon="6.62359">
        <ele>227</ele>
        <time>2011-12-11T09:16:32Z</time>
      </trkpt>
      <trkpt lat="43.54795" lon="6.62358">
        <ele>227</ele>
        <time>2011-12-11T09:16:33Z</time>
      </trkpt>
      <trkpt lat="43.54798" lon="6.62357">
        <ele>227</ele>
        <time>2011-12-11T09:16:34Z</time>
      </trkpt>
      <trkpt lat="43.54802" lon="6.62355">
        <ele>227</ele>
        <time>2011-12-11T09:16:35Z</time>
      </trkpt>
      <trkpt lat="43.54805" lon="6.62353">
        <ele>227</ele>
        <time>2011-12-11T09:16:36Z</time>
      </trkpt>
      <trkpt lat="43.54808" lon="6.62352">
        <ele>227</ele>
        <time>2011-12-11T09:16:37Z</time>
      </trkpt>
      <trkpt lat="43.54811" lon="6.6235">
        <ele>227</ele>
        <time>2011-12-11T09:16:38Z</time>
      </trkpt>
      <trkpt lat="43.54814" lon="6.62349">
        <ele>227</ele>
        <time>2011-12-11T09:16:39Z</time>
      </trkpt>
      <trkpt lat="43.54817" lon="6.62347">
        <ele>227</ele>
        <time>2011-12-11T09:16:40Z</time>
      </trkpt>
      <trkpt lat="43.5482" lon="6.62345">
        <ele>227</ele>
        <time>2011-12-11T09:16:41Z</time>
      </trkpt>
      <trkpt lat="43.54823" lon="6.62343">
        <ele>228</ele>
        <time>2011-12-11T09:16:42Z</time>
      </trkpt>
      <trkpt lat="43.54825" lon="6.62342">
        <ele>228</ele>
        <time>2011-12-11T09:16:43Z</time>
      </trkpt>
      <trkpt lat="43.54828" lon="6.6234">
        <ele>228</ele>
        <time>2011-12-11T09:16:44Z</time>
      </trkpt>
      <trkpt lat="43.5483" lon="6.62339">
        <ele>228</ele>
        <time>2011-12-11T09:16:45Z</time>
      </trkpt>
      <trkpt lat="43.54833" lon="6.62337">
        <ele>228</ele>
        <time>2011-12-11T09:16:46Z</time>
      </trkpt>
      <trkpt lat="43.54835" lon="6.62336">
        <ele>228</ele>
        <time>2011-12-11T09:16:47Z</time>
      </trkpt>
      <trkpt lat="43.54838" lon="6.62334">
        <ele>228</ele>
        <time>2011-12-11T09:16:48Z</time>
      </trkpt>
      <trkpt lat="43.5484" lon="6.62333">
        <ele>228</ele>
        <time>2011-12-11T09:16:49Z</time>
      </trkpt>
      <trkpt lat="43.54842" lon="6.62331">
        <ele>227</ele>
        <time>2011-12-11T09:16:50Z</time>
      </trkpt>
      <trkpt lat="43.54845" lon="6.6233">
        <ele>227</ele>
        <time>2011-12-11T09:16:51Z</time>
      </trkpt>
      <trkpt lat="43.54847" lon="6.62329">
        <ele>228</ele>
        <time>2011-12-11T09:16:52Z</time>
      </trkpt>
      <trkpt lat="43.5485" lon="6.62328">
        <ele>228</ele>
        <time>2011-12-11T09:16:53Z</time>
      </trkpt>
      <trkpt lat="43.54853" lon="6.62328">
        <ele>228</ele>
        <time>2011-12-11T09:16:54Z</time>
      </trkpt>
      <trkpt lat="43.54856" lon="6.62327">
        <ele>228</ele>
        <time>2011-12-11T09:16:55Z</time>
      </trkpt>
      <trkpt lat="43.54858" lon="6.62326">
        <ele>228</ele>
        <time>2011-12-11T09:16:56Z</time>
      </trkpt>
      <trkpt lat="43.5486" lon="6.62325">
        <ele>228</ele>
        <time>2011-12-11T09:16:57Z</time>
      </trkpt>
      <trkpt lat="43.54863" lon="6.62322">
        <ele>228</ele>
        <time>2011-12-11T09:16:58Z</time>
      </trkpt>
      <trkpt lat="43.54865" lon="6.62321">
        <ele>228</ele>
        <time>2011-12-11T09:16:59Z</time>
      </trkpt>
      <trkpt lat="43.54867" lon="6.62318">
        <ele>228</ele>
        <time>2011-12-11T09:17:00Z</time>
      </trkpt>
      <trkpt lat="43.5487" lon="6.62316">
        <ele>228</ele>
        <time>2011-12-11T09:17:01Z</time>
      </trkpt>
      <trkpt lat="43.54872" lon="6.62314">
        <ele>228</ele>
        <time>2011-12-11T09:17:02Z</time>
      </trkpt>
      <trkpt lat="43.54875" lon="6.62312">
        <ele>228</ele>
        <time>2011-12-11T09:17:03Z</time>
      </trkpt>
      <trkpt lat="43.54877" lon="6.62311">
        <ele>228</ele>
        <time>2011-12-11T09:17:04Z</time>
      </trkpt>
      <trkpt lat="43.5488" lon="6.62311">
        <ele>228</ele>
        <time>2011-12-11T09:17:05Z</time>
      </trkpt>
      <trkpt lat="43.54882" lon="6.62312">
        <ele>228</ele>
        <time>2011-12-11T09:17:06Z</time>
      </trkpt>
      <trkpt lat="43.54884" lon="6.62314">
        <ele>228</ele>
        <time>2011-12-11T09:17:07Z</time>
      </trkpt>
      <trkpt lat="43.54886" lon="6.62316">
        <ele>228</ele>
        <time>2011-12-11T09:17:08Z</time>
      </trkpt>
      <trkpt lat="43.54888" lon="6.62319">
        <ele>228</ele>
        <time>2011-12-11T09:17:09Z</time>
      </trkpt>
      <trkpt lat="43.54888" lon="6.62321">
        <ele>228</ele>
        <time>2011-12-11T09:17:10Z</time>
      </trkpt>
      <trkpt lat="43.54889" lon="6.62321">
        <ele>228</ele>
        <time>2011-12-11T09:17:11Z</time>
      </trkpt>
      <trkpt lat="43.54889" lon="6.62321">
        <ele>228</ele>
        <time>2011-12-11T09:17:12Z</time>
      </trkpt>
      <trkpt lat="43.54889" lon="6.62322">
        <ele>228</ele>
        <time>2011-12-11T09:17:13Z</time>
      </trkpt>
      <trkpt lat="43.54888" lon="6.62323">
        <ele>228</ele>
        <time>2011-12-11T09:17:16Z</time>
      </trkpt>
      <trkpt lat="43.54888" lon="6.62323">
        <ele>228</ele>
        <time>2011-12-11T09:17:17Z</time>
      </trkpt>
      <trkpt lat="43.54888" lon="6.62324">
        <ele>228</ele>
        <time>2011-12-11T09:17:18Z</time>
      </trkpt>
      <trkpt lat="43.54888" lon="6.62325">
        <ele>228</ele>
        <time>2011-12-11T09:17:19Z</time>
      </trkpt>
      <trkpt lat="43.54888" lon="6.62326">
        <ele>229</ele>
        <time>2011-12-11T09:17:20Z</time>
      </trkpt>
      <trkpt lat="43.54888" lon="6.62328">
        <ele>229</ele>
        <time>2011-12-11T09:17:21Z</time>
      </trkpt>
      <trkpt lat="43.54888" lon="6.62331">
        <ele>229</ele>
        <time>2011-12-11T09:17:22Z</time>
      </trkpt>
      <trkpt lat="43.54888" lon="6.62334">
        <ele>229</ele>
        <time>2011-12-11T09:17:23Z</time>
      </trkpt>
      <trkpt lat="43.54888" lon="6.62336">
        <ele>229</ele>
        <time>2011-12-11T09:17:24Z</time>
      </trkpt>
      <trkpt lat="43.54888" lon="6.62339">
        <ele>230</ele>
        <time>2011-12-11T09:17:25Z</time>
      </trkpt>
      <trkpt lat="43.54888" lon="6.62343">
        <ele>230</ele>
        <time>2011-12-11T09:17:26Z</time>
      </trkpt>
      <trkpt lat="43.54889" lon="6.62346">
        <ele>230</ele>
        <time>2011-12-11T09:17:27Z</time>
      </trkpt>
      <trkpt lat="43.54889" lon="6.62349">
        <ele>230</ele>
        <time>2011-12-11T09:17:28Z</time>
      </trkpt>
      <trkpt lat="43.5489" lon="6.62352">
        <ele>230</ele>
        <time>2011-12-11T09:17:29Z</time>
      </trkpt>
      <trkpt lat="43.54891" lon="6.62355">
        <ele>231</ele>
        <time>2011-12-11T09:17:30Z</time>
      </trkpt>
      <trkpt lat="43.54891" lon="6.62358">
        <ele>231</ele>
        <time>2011-12-11T09:17:31Z</time>
      </trkpt>
      <trkpt lat="43.54892" lon="6.62361">
        <ele>231</ele>
        <time>2011-12-11T09:17:32Z</time>
      </trkpt>
      <trkpt lat="43.54892" lon="6.62363">
        <ele>231</ele>
        <time>2011-12-11T09:17:33Z</time>
      </trkpt>
      <trkpt lat="43.54893" lon="6.62366">
        <ele>231</ele>
        <time>2011-12-11T09:17:34Z</time>
      </trkpt>
      <trkpt lat="43.54894" lon="6.62369">
        <ele>231</ele>
        <time>2011-12-11T09:17:35Z</time>
      </trkpt>
      <trkpt lat="43.54896" lon="6.62371">
        <ele>231</ele>
        <time>2011-12-11T09:17:36Z</time>
      </trkpt>
      <trkpt lat="43.54898" lon="6.62372">
        <ele>231</ele>
        <time>2011-12-11T09:17:37Z</time>
      </trkpt>
      <trkpt lat="43.549" lon="6.62372">
        <ele>231</ele>
        <time>2011-12-11T09:17:38Z</time>
      </trkpt>
      <trkpt lat="43.54902" lon="6.62371">
        <ele>231</ele>
        <time>2011-12-11T09:17:39Z</time>
      </trkpt>
      <trkpt lat="43.54905" lon="6.62369">
        <ele>231</ele>
        <time>2011-12-11T09:17:40Z</time>
      </trkpt>
      <trkpt lat="43.54906" lon="6.62367">
        <ele>232</ele>
        <time>2011-12-11T09:17:41Z</time>
      </trkpt>
      <trkpt lat="43.54908" lon="6.62364">
        <ele>232</ele>
        <time>2011-12-11T09:17:42Z</time>
      </trkpt>
      <trkpt lat="43.54911" lon="6.62362">
        <ele>232</ele>
        <time>2011-12-11T09:17:43Z</time>
      </trkpt>
      <trkpt lat="43.54913" lon="6.6236">
        <ele>232</ele>
        <time>2011-12-11T09:17:44Z</time>
      </trkpt>
      <trkpt lat="43.54915" lon="6.62359">
        <ele>232</ele>
        <time>2011-12-11T09:17:45Z</time>
      </trkpt>
      <trkpt lat="43.54918" lon="6.62359">
        <ele>232</ele>
        <time>2011-12-11T09:17:46Z</time>
      </trkpt>
      <trkpt lat="43.54921" lon="6.6236">
        <ele>232</ele>
        <time>2011-12-11T09:17:47Z</time>
      </trkpt>
      <trkpt lat="43.54923" lon="6.62362">
        <ele>232</ele>
        <time>2011-12-11T09:17:48Z</time>
      </trkpt>
      <trkpt lat="43.54925" lon="6.62365">
        <ele>232</ele>
        <time>2011-12-11T09:17:49Z</time>
      </trkpt>
      <trkpt lat="43.54926" lon="6.62368">
        <ele>232</ele>
        <time>2011-12-11T09:17:50Z</time>
      </trkpt>
      <trkpt lat="43.54927" lon="6.62372">
        <ele>232</ele>
        <time>2011-12-11T09:17:51Z</time>
      </trkpt>
      <trkpt lat="43.54928" lon="6.62376">
        <ele>232</ele>
        <time>2011-12-11T09:17:52Z</time>
      </trkpt>
      <trkpt lat="43.54928" lon="6.6238">
        <ele>232</ele>
        <time>2011-12-11T09:17:53Z</time>
      </trkpt>
      <trkpt lat="43.54928" lon="6.62384">
        <ele>232</ele>
        <time>2011-12-11T09:17:54Z</time>
      </trkpt>
      <trkpt lat="43.54928" lon="6.62387">
        <ele>232</ele>
        <time>2011-12-11T09:17:55Z</time>
      </trkpt>
      <trkpt lat="43.54927" lon="6.62391">
        <ele>232</ele>
        <time>2011-12-11T09:17:56Z</time>
      </trkpt>
      <trkpt lat="43.54926" lon="6.62395">
        <ele>232</ele>
        <time>2011-12-11T09:17:57Z</time>
      </trkpt>
      <trkpt lat="43.54925" lon="6.62398">
        <ele>232</ele>
        <time>2011-12-11T09:17:58Z</time>
      </trkpt>
      <trkpt lat="43.54924" lon="6.62401">
        <ele>233</ele>
        <time>2011-12-11T09:17:59Z</time>
      </trkpt>
      <trkpt lat="43.54923" lon="6.62405">
        <ele>233</ele>
        <time>2011-12-11T09:18:00Z</time>
      </trkpt>
      <trkpt lat="43.54923" lon="6.62408">
        <ele>233</ele>
        <time>2011-12-11T09:18:01Z</time>
      </trkpt>
      <trkpt lat="43.54923" lon="6.62411">
        <ele>233</ele>
        <time>2011-12-11T09:18:02Z</time>
      </trkpt>
      <trkpt lat="43.54924" lon="6.62414">
        <ele>233</ele>
        <time>2011-12-11T09:18:03Z</time>
      </trkpt>
      <trkpt lat="43.54925" lon="6.62417">
        <ele>233</ele>
        <time>2011-12-11T09:18:04Z</time>
      </trkpt>
      <trkpt lat="43.54926" lon="6.62421">
        <ele>233</ele>
        <time>2011-12-11T09:18:05Z</time>
      </trkpt>
      <trkpt lat="43.54927" lon="6.62424">
        <ele>233</ele>
        <time>2011-12-11T09:18:06Z</time>
      </trkpt>
      <trkpt lat="43.54927" lon="6.62428">
        <ele>233</ele>
        <time>2011-12-11T09:18:07Z</time>
      </trkpt>
      <trkpt lat="43.54927" lon="6.62431">
        <ele>233</ele>
        <time>2011-12-11T09:18:08Z</time>
      </trkpt>
      <trkpt lat="43.54927" lon="6.62435">
        <ele>234</ele>
        <time>2011-12-11T09:18:09Z</time>
      </trkpt>
      <trkpt lat="43.54927" lon="6.62439">
        <ele>234</ele>
        <time>2011-12-11T09:18:10Z</time>
      </trkpt>
      <trkpt lat="43.54927" lon="6.62442">
        <ele>234</ele>
        <time>2011-12-11T09:18:11Z</time>
      </trkpt>
      <trkpt lat="43.54927" lon="6.62446">
        <ele>234</ele>
        <time>2011-12-11T09:18:12Z</time>
      </trkpt>
      <trkpt lat="43.54927" lon="6.6245">
        <ele>234</ele>
        <time>2011-12-11T09:18:13Z</time>
      </trkpt>
      <trkpt lat="43.54927" lon="6.62453">
        <ele>234</ele>
        <time>2011-12-11T09:18:14Z</time>
      </trkpt>
      <trkpt lat="43.54927" lon="6.62456">
        <ele>234</ele>
        <time>2011-12-11T09:18:15Z</time>
      </trkpt>
      <trkpt lat="43.54928" lon="6.6246">
        <ele>234</ele>
        <time>2011-12-11T09:18:16Z</time>
      </trkpt>
      <trkpt lat="43.54927" lon="6.62464">
        <ele>234</ele>
        <time>2011-12-11T09:18:17Z</time>
      </trkpt>
      <trkpt lat="43.54927" lon="6.62467">
        <ele>234</ele>
        <time>2011-12-11T09:18:18Z</time>
      </trkpt>
      <trkpt lat="43.54927" lon="6.62471">
        <ele>234</ele>
        <time>2011-12-11T09:18:19Z</time>
      </trkpt>
      <trkpt lat="43.54926" lon="6.62475">
        <ele>234</ele>
        <time>2011-12-11T09:18:20Z</time>
      </trkpt>
      <trkpt lat="43.54926" lon="6.62478">
        <ele>234</ele>
        <time>2011-12-11T09:18:21Z</time>
      </trkpt>
      <trkpt lat="43.54926" lon="6.62482">
        <ele>234</ele>
        <time>2011-12-11T09:18:22Z</time>
      </trkpt>
      <trkpt lat="43.54925" lon="6.62485">
        <ele>234</ele>
        <time>2011-12-11T09:18:23Z</time>
      </trkpt>
      <trkpt lat="43.54924" lon="6.62489">
        <ele>234</ele>
        <time>2011-12-11T09:18:24Z</time>
      </trkpt>
      <trkpt lat="43.54924" lon="6.62492">
        <ele>234</ele>
        <time>2011-12-11T09:18:25Z</time>
      </trkpt>
      <trkpt lat="43.54924" lon="6.62496">
        <ele>234</ele>
        <time>2011-12-11T09:18:26Z</time>
      </trkpt>
      <trkpt lat="43.54923" lon="6.62499">
        <ele>234</ele>
        <time>2011-12-11T09:18:27Z</time>
      </trkpt>
      <trkpt lat="43.54923" lon="6.62502">
        <ele>235</ele>
        <time>2011-12-11T09:18:28Z</time>
      </trkpt>
      <trkpt lat="43.54923" lon="6.62506">
        <ele>235</ele>
        <time>2011-12-11T09:18:29Z</time>
      </trkpt>
      <trkpt lat="43.54923" lon="6.62509">
        <ele>235</ele>
        <time>2011-12-11T09:18:30Z</time>
      </trkpt>
      <trkpt lat="43.54922" lon="6.62513">
        <ele>235</ele>
        <time>2011-12-11T09:18:31Z</time>
      </trkpt>
      <trkpt lat="43.54922" lon="6.62517">
        <ele>235</ele>
        <time>2011-12-11T09:18:32Z</time>
      </trkpt>
      <trkpt lat="43.54922" lon="6.6252">
        <ele>235</ele>
        <time>2011-12-11T09:18:33Z</time>
      </trkpt>
      <trkpt lat="43.54922" lon="6.62524">
        <ele>235</ele>
        <time>2011-12-11T09:18:34Z</time>
      </trkpt>
      <trkpt lat="43.54921" lon="6.62528">
        <ele>235</ele>
        <time>2011-12-11T09:18:35Z</time>
      </trkpt>
      <trkpt lat="43.54921" lon="6.62531">
        <ele>235</ele>
        <time>2011-12-11T09:18:36Z</time>
      </trkpt>
      <trkpt lat="43.5492" lon="6.62535">
        <ele>236</ele>
        <time>2011-12-11T09:18:37Z</time>
      </trkpt>
      <trkpt lat="43.54919" lon="6.62538">
        <ele>236</ele>
        <time>2011-12-11T09:18:38Z</time>
      </trkpt>
      <trkpt lat="43.54918" lon="6.62542">
        <ele>236</ele>
        <time>2011-12-11T09:18:39Z</time>
      </trkpt>
      <trkpt lat="43.54917" lon="6.62545">
        <ele>236</ele>
        <time>2011-12-11T09:18:40Z</time>
      </trkpt>
      <trkpt lat="43.54916" lon="6.62549">
        <ele>236</ele>
        <time>2011-12-11T09:18:41Z</time>
      </trkpt>
      <trkpt lat="43.54914" lon="6.62552">
        <ele>237</ele>
        <time>2011-12-11T09:18:42Z</time>
      </trkpt>
      <trkpt lat="43.54913" lon="6.62555">
        <ele>237</ele>
        <time>2011-12-11T09:18:43Z</time>
      </trkpt>
      <trkpt lat="43.54912" lon="6.62559">
        <ele>237</ele>
        <time>2011-12-11T09:18:44Z</time>
      </trkpt>
      <trkpt lat="43.5491" lon="6.62562">
        <ele>237</ele>
        <time>2011-12-11T09:18:45Z</time>
      </trkpt>
      <trkpt lat="43.54909" lon="6.62565">
        <ele>237</ele>
        <time>2011-12-11T09:18:46Z</time>
      </trkpt>
      <trkpt lat="43.54909" lon="6.62568">
        <ele>238</ele>
        <time>2011-12-11T09:18:47Z</time>
      </trkpt>
      <trkpt lat="43.54908" lon="6.62571">
        <ele>238</ele>
        <time>2011-12-11T09:18:48Z</time>
      </trkpt>
      <trkpt lat="43.54907" lon="6.62574">
        <ele>238</ele>
        <time>2011-12-11T09:18:49Z</time>
      </trkpt>
      <trkpt lat="43.54906" lon="6.62577">
        <ele>238</ele>
        <time>2011-12-11T09:18:50Z</time>
      </trkpt>
      <trkpt lat="43.54905" lon="6.6258">
        <ele>239</ele>
        <time>2011-12-11T09:18:51Z</time>
      </trkpt>
      <trkpt lat="43.54904" lon="6.62583">
        <ele>239</ele>
        <time>2011-12-11T09:18:52Z</time>
      </trkpt>
      <trkpt lat="43.54903" lon="6.62586">
        <ele>239</ele>
        <time>2011-12-11T09:18:53Z</time>
      </trkpt>
      <trkpt lat="43.54902" lon="6.62589">
        <ele>239</ele>
        <time>2011-12-11T09:18:54Z</time>
      </trkpt>
      <trkpt lat="43.549" lon="6.62593">
        <ele>239</ele>
        <time>2011-12-11T09:18:55Z</time>
      </trkpt>
      <trkpt lat="43.54899" lon="6.62596">
        <ele>239</ele>
        <time>2011-12-11T09:18:56Z</time>
      </trkpt>
      <trkpt lat="43.54898" lon="6.62599">
        <ele>239</ele>
        <time>2011-12-11T09:18:57Z</time>
      </trkpt>
      <trkpt lat="43.54896" lon="6.62602">
        <ele>240</ele>
        <time>2011-12-11T09:18:58Z</time>
      </trkpt>
      <trkpt lat="43.54894" lon="6.62605">
        <ele>240</ele>
        <time>2011-12-11T09:18:59Z</time>
      </trkpt>
      <trkpt lat="43.54893" lon="6.62608">
        <ele>241</ele>
        <time>2011-12-11T09:19:00Z</time>
      </trkpt>
      <trkpt lat="43.54892" lon="6.6261">
        <ele>241</ele>
        <time>2011-12-11T09:19:01Z</time>
      </trkpt>
      <trkpt lat="43.54891" lon="6.62613">
        <ele>241</ele>
        <time>2011-12-11T09:19:02Z</time>
      </trkpt>
      <trkpt lat="43.54889" lon="6.62615">
        <ele>241</ele>
        <time>2011-12-11T09:19:03Z</time>
      </trkpt>
      <trkpt lat="43.54888" lon="6.62618">
        <ele>241</ele>
        <time>2011-12-11T09:19:04Z</time>
      </trkpt>
      <trkpt lat="43.54886" lon="6.62621">
        <ele>242</ele>
        <time>2011-12-11T09:19:05Z</time>
      </trkpt>
      <trkpt lat="43.54885" lon="6.62624">
        <ele>242</ele>
        <time>2011-12-11T09:19:06Z</time>
      </trkpt>
      <trkpt lat="43.54884" lon="6.62627">
        <ele>242</ele>
        <time>2011-12-11T09:19:07Z</time>
      </trkpt>
      <trkpt lat="43.54883" lon="6.6263">
        <ele>242</ele>
        <time>2011-12-11T09:19:08Z</time>
      </trkpt>
      <trkpt lat="43.54882" lon="6.62633">
        <ele>242</ele>
        <time>2011-12-11T09:19:09Z</time>
      </trkpt>
      <trkpt lat="43.54881" lon="6.62636">
        <ele>242</ele>
        <time>2011-12-11T09:19:10Z</time>
      </trkpt>
      <trkpt lat="43.5488" lon="6.62639">
        <ele>242</ele>
        <time>2011-12-11T09:19:11Z</time>
      </trkpt>
      <trkpt lat="43.54879" lon="6.62643">
        <ele>242</ele>
        <time>2011-12-11T09:19:12Z</time>
      </trkpt>
      <trkpt lat="43.54878" lon="6.62646">
        <ele>243</ele>
        <time>2011-12-11T09:19:13Z</time>
      </trkpt>
      <trkpt lat="43.54877" lon="6.6265">
        <ele>243</ele>
        <time>2011-12-11T09:19:14Z</time>
      </trkpt>
      <trkpt lat="43.54876" lon="6.62654">
        <ele>243</ele>
        <time>2011-12-11T09:19:15Z</time>
      </trkpt>
      <trkpt lat="43.54875" lon="6.62658">
        <ele>243</ele>
        <time>2011-12-11T09:19:16Z</time>
      </trkpt>
      <trkpt lat="43.54875" lon="6.62662">
        <ele>243</ele>
        <time>2011-12-11T09:19:17Z</time>
      </trkpt>
      <trkpt lat="43.54875" lon="6.62666">
        <ele>243</ele>
        <time>2011-12-11T09:19:18Z</time>
      </trkpt>
      <trkpt lat="43.54876" lon="6.6267">
        <ele>243</ele>
        <time>2011-12-11T09:19:19Z</time>
      </trkpt>
      <trkpt lat="43.54878" lon="6.62673">
        <ele>244</ele>
        <time>2011-12-11T09:19:20Z</time>
      </trkpt>
      <trkpt lat="43.54879" lon="6.62676">
        <ele>244</ele>
        <time>2011-12-11T09:19:21Z</time>
      </trkpt>
      <trkpt lat="43.54881" lon="6.62679">
        <ele>244</ele>
        <time>2011-12-11T09:19:22Z</time>
      </trkpt>
      <trkpt lat="43.54884" lon="6.62681">
        <ele>244</ele>
        <time>2011-12-11T09:19:23Z</time>
      </trkpt>
      <trkpt lat="43.54886" lon="6.62682">
        <ele>244</ele>
        <time>2011-12-11T09:19:24Z</time>
      </trkpt>
      <trkpt lat="43.54889" lon="6.62683">
        <ele>244</ele>
        <time>2011-12-11T09:19:25Z</time>
      </trkpt>
      <trkpt lat="43.54892" lon="6.62684">
        <ele>244</ele>
        <time>2011-12-11T09:19:26Z</time>
      </trkpt>
      <trkpt lat="43.54895" lon="6.62685">
        <ele>245</ele>
        <time>2011-12-11T09:19:27Z</time>
      </trkpt>
      <trkpt lat="43.54898" lon="6.62686">
        <ele>245</ele>
        <time>2011-12-11T09:19:28Z</time>
      </trkpt>
      <trkpt lat="43.54901" lon="6.62687">
        <ele>245</ele>
        <time>2011-12-11T09:19:29Z</time>
      </trkpt>
      <trkpt lat="43.54903" lon="6.62689">
        <ele>245</ele>
        <time>2011-12-11T09:19:30Z</time>
      </trkpt>
      <trkpt lat="43.54906" lon="6.6269">
        <ele>245</ele>
        <time>2011-12-11T09:19:31Z</time>
      </trkpt>
      <trkpt lat="43.54909" lon="6.62691">
        <ele>245</ele>
        <time>2011-12-11T09:19:32Z</time>
      </trkpt>
      <trkpt lat="43.54912" lon="6.62693">
        <ele>245</ele>
        <time>2011-12-11T09:19:33Z</time>
      </trkpt>
      <trkpt lat="43.54914" lon="6.62695">
        <ele>245</ele>
        <time>2011-12-11T09:19:34Z</time>
      </trkpt>
      <trkpt lat="43.54916" lon="6.62698">
        <ele>245</ele>
        <time>2011-12-11T09:19:35Z</time>
      </trkpt>
      <trkpt lat="43.54918" lon="6.627">
        <ele>245</ele>
        <time>2011-12-11T09:19:36Z</time>
      </trkpt>
      <trkpt lat="43.54919" lon="6.62704">
        <ele>245</ele>
        <time>2011-12-11T09:19:37Z</time>
      </trkpt>
      <trkpt lat="43.5492" lon="6.62707">
        <ele>245</ele>
        <time>2011-12-11T09:19:38Z</time>
      </trkpt>
      <trkpt lat="43.54922" lon="6.6271">
        <ele>245</ele>
        <time>2011-12-11T09:19:39Z</time>
      </trkpt>
      <trkpt lat="43.54922" lon="6.62713">
        <ele>246</ele>
        <time>2011-12-11T09:19:40Z</time>
      </trkpt>
      <trkpt lat="43.54923" lon="6.62716">
        <ele>246</ele>
        <time>2011-12-11T09:19:41Z</time>
      </trkpt>
      <trkpt lat="43.54924" lon="6.62719">
        <ele>246</ele>
        <time>2011-12-11T09:19:42Z</time>
      </trkpt>
      <trkpt lat="43.54924" lon="6.62723">
        <ele>247</ele>
        <time>2011-12-11T09:19:43Z</time>
      </trkpt>
      <trkpt lat="43.54924" lon="6.62726">
        <ele>247</ele>
        <time>2011-12-11T09:19:44Z</time>
      </trkpt>
      <trkpt lat="43.54923" lon="6.6273">
        <ele>247</ele>
        <time>2011-12-11T09:19:45Z</time>
      </trkpt>
      <trkpt lat="43.54922" lon="6.62733">
        <ele>247</ele>
        <time>2011-12-11T09:19:46Z</time>
      </trkpt>
      <trkpt lat="43.5492" lon="6.62736">
        <ele>247</ele>
        <time>2011-12-11T09:19:47Z</time>
      </trkpt>
      <trkpt lat="43.54919" lon="6.62739">
        <ele>248</ele>
        <time>2011-12-11T09:19:48Z</time>
      </trkpt>
      <trkpt lat="43.54918" lon="6.62742">
        <ele>248</ele>
        <time>2011-12-11T09:19:49Z</time>
      </trkpt>
      <trkpt lat="43.54917" lon="6.62745">
        <ele>248</ele>
        <time>2011-12-11T09:19:50Z</time>
      </trkpt>
      <trkpt lat="43.54915" lon="6.62748">
        <ele>248</ele>
        <time>2011-12-11T09:19:51Z</time>
      </trkpt>
      <trkpt lat="43.54914" lon="6.62751">
        <ele>248</ele>
        <time>2011-12-11T09:19:52Z</time>
      </trkpt>
      <trkpt lat="43.54913" lon="6.62755">
        <ele>249</ele>
        <time>2011-12-11T09:19:53Z</time>
      </trkpt>
      <trkpt lat="43.54912" lon="6.62758">
        <ele>249</ele>
        <time>2011-12-11T09:19:54Z</time>
      </trkpt>
      <trkpt lat="43.54911" lon="6.62761">
        <ele>249</ele>
        <time>2011-12-11T09:19:55Z</time>
      </trkpt>
      <trkpt lat="43.5491" lon="6.62764">
        <ele>249</ele>
        <time>2011-12-11T09:19:56Z</time>
      </trkpt>
      <trkpt lat="43.54909" lon="6.62767">
        <ele>250</ele>
        <time>2011-12-11T09:19:57Z</time>
      </trkpt>
      <trkpt lat="43.54908" lon="6.6277">
        <ele>250</ele>
        <time>2011-12-11T09:19:58Z</time>
      </trkpt>
      <trkpt lat="43.54906" lon="6.62774">
        <ele>250</ele>
        <time>2011-12-11T09:19:59Z</time>
      </trkpt>
      <trkpt lat="43.54905" lon="6.62777">
        <ele>250</ele>
        <time>2011-12-11T09:20:00Z</time>
      </trkpt>
      <trkpt lat="43.54904" lon="6.6278">
        <ele>250</ele>
        <time>2011-12-11T09:20:01Z</time>
      </trkpt>
      <trkpt lat="43.54902" lon="6.62783">
        <ele>251</ele>
        <time>2011-12-11T09:20:02Z</time>
      </trkpt>
      <trkpt lat="43.54901" lon="6.62786">
        <ele>251</ele>
        <time>2011-12-11T09:20:03Z</time>
      </trkpt>
      <trkpt lat="43.549" lon="6.62789">
        <ele>251</ele>
        <time>2011-12-11T09:20:04Z</time>
      </trkpt>
      <trkpt lat="43.54899" lon="6.62792">
        <ele>251</ele>
        <time>2011-12-11T09:20:05Z</time>
      </trkpt>
      <trkpt lat="43.54899" lon="6.62795">
        <ele>251</ele>
        <time>2011-12-11T09:20:06Z</time>
      </trkpt>
      <trkpt lat="43.54899" lon="6.62798">
        <ele>251</ele>
        <time>2011-12-11T09:20:07Z</time>
      </trkpt>
      <trkpt lat="43.54899" lon="6.62802">
        <ele>251</ele>
        <time>2011-12-11T09:20:08Z</time>
      </trkpt>
      <trkpt lat="43.54899" lon="6.62805">
        <ele>251</ele>
        <time>2011-12-11T09:20:09Z</time>
      </trkpt>
      <trkpt lat="43.54901" lon="6.62808">
        <ele>251</ele>
        <time>2011-12-11T09:20:10Z</time>
      </trkpt>
      <trkpt lat="43.54903" lon="6.62811">
        <ele>252</ele>
        <time>2011-12-11T09:20:11Z</time>
      </trkpt>
      <trkpt lat="43.54905" lon="6.62814">
        <ele>252</ele>
        <time>2011-12-11T09:20:12Z</time>
      </trkpt>
      <trkpt lat="43.54906" lon="6.62816">
        <ele>252</ele>
        <time>2011-12-11T09:20:13Z</time>
      </trkpt>
      <trkpt lat="43.54909" lon="6.62818">
        <ele>252</ele>
        <time>2011-12-11T09:20:14Z</time>
      </trkpt>
      <trkpt lat="43.54911" lon="6.6282">
        <ele>252</ele>
        <time>2011-12-11T09:20:15Z</time>
      </trkpt>
      <trkpt lat="43.54914" lon="6.62821">
        <ele>252</ele>
        <time>2011-12-11T09:20:16Z</time>
      </trkpt>
      <trkpt lat="43.54916" lon="6.62821">
        <ele>252</ele>
        <time>2011-12-11T09:20:17Z</time>
      </trkpt>
      <trkpt lat="43.54919" lon="6.62821">
        <ele>252</ele>
        <time>2011-12-11T09:20:18Z</time>
      </trkpt>
      <trkpt lat="43.54922" lon="6.6282">
        <ele>252</ele>
        <time>2011-12-11T09:20:19Z</time>
      </trkpt>
      <trkpt lat="43.54924" lon="6.62819">
        <ele>252</ele>
        <time>2011-12-11T09:20:20Z</time>
      </trkpt>
      <trkpt lat="43.54927" lon="6.62818">
        <ele>253</ele>
        <time>2011-12-11T09:20:21Z</time>
      </trkpt>
      <trkpt lat="43.5493" lon="6.62817">
        <ele>253</ele>
        <time>2011-12-11T09:20:22Z</time>
      </trkpt>
      <trkpt lat="43.54933" lon="6.62817">
        <ele>253</ele>
        <time>2011-12-11T09:20:23Z</time>
      </trkpt>
      <trkpt lat="43.54936" lon="6.62816">
        <ele>253</ele>
        <time>2011-12-11T09:20:24Z</time>
      </trkpt>
      <trkpt lat="43.54938" lon="6.62815">
        <ele>253</ele>
        <time>2011-12-11T09:20:25Z</time>
      </trkpt>
      <trkpt lat="43.54941" lon="6.62815">
        <ele>253</ele>
        <time>2011-12-11T09:20:26Z</time>
      </trkpt>
      <trkpt lat="43.54943" lon="6.62816">
        <ele>253</ele>
        <time>2011-12-11T09:20:27Z</time>
      </trkpt>
      <trkpt lat="43.54946" lon="6.62816">
        <ele>253</ele>
        <time>2011-12-11T09:20:28Z</time>
      </trkpt>
      <trkpt lat="43.54949" lon="6.62816">
        <ele>253</ele>
        <time>2011-12-11T09:20:29Z</time>
      </trkpt>
      <trkpt lat="43.54952" lon="6.62816">
        <ele>253</ele>
        <time>2011-12-11T09:20:30Z</time>
      </trkpt>
      <trkpt lat="43.54954" lon="6.62817">
        <ele>254</ele>
        <time>2011-12-11T09:20:31Z</time>
      </trkpt>
      <trkpt lat="43.54957" lon="6.62819">
        <ele>254</ele>
        <time>2011-12-11T09:20:32Z</time>
      </trkpt>
      <trkpt lat="43.54958" lon="6.62822">
        <ele>254</ele>
        <time>2011-12-11T09:20:33Z</time>
      </trkpt>
      <trkpt lat="43.5496" lon="6.62824">
        <ele>254</ele>
        <time>2011-12-11T09:20:34Z</time>
      </trkpt>
      <trkpt lat="43.54961" lon="6.62828">
        <ele>254</ele>
        <time>2011-12-11T09:20:35Z</time>
      </trkpt>
      <trkpt lat="43.54962" lon="6.62831">
        <ele>254</ele>
        <time>2011-12-11T09:20:36Z</time>
      </trkpt>
      <trkpt lat="43.54962" lon="6.62835">
        <ele>254</ele>
        <time>2011-12-11T09:20:37Z</time>
      </trkpt>
      <trkpt lat="43.54962" lon="6.62838">
        <ele>254</ele>
        <time>2011-12-11T09:20:38Z</time>
      </trkpt>
      <trkpt lat="43.54961" lon="6.62842">
        <ele>254</ele>
        <time>2011-12-11T09:20:39Z</time>
      </trkpt>
      <trkpt lat="43.54961" lon="6.62846">
        <ele>254</ele>
        <time>2011-12-11T09:20:40Z</time>
      </trkpt>
      <trkpt lat="43.5496" lon="6.6285">
        <ele>254</ele>
        <time>2011-12-11T09:20:41Z</time>
      </trkpt>
      <trkpt lat="43.54958" lon="6.62854">
        <ele>254</ele>
        <time>2011-12-11T09:20:42Z</time>
      </trkpt>
      <trkpt lat="43.54957" lon="6.62858">
        <ele>254</ele>
        <time>2011-12-11T09:20:43Z</time>
      </trkpt>
      <trkpt lat="43.54956" lon="6.62861">
        <ele>254</ele>
        <time>2011-12-11T09:20:44Z</time>
      </trkpt>
      <trkpt lat="43.54954" lon="6.62864">
        <ele>255</ele>
        <time>2011-12-11T09:20:45Z</time>
      </trkpt>
      <trkpt lat="43.54951" lon="6.62867">
        <ele>255</ele>
        <time>2011-12-11T09:20:46Z</time>
      </trkpt>
      <trkpt lat="43.5495" lon="6.62869">
        <ele>255</ele>
        <time>2011-12-11T09:20:47Z</time>
      </trkpt>
      <trkpt lat="43.54947" lon="6.62872">
        <ele>255</ele>
        <time>2011-12-11T09:20:48Z</time>
      </trkpt>
      <trkpt lat="43.54945" lon="6.62875">
        <ele>255</ele>
        <time>2011-12-11T09:20:49Z</time>
      </trkpt>
      <trkpt lat="43.54943" lon="6.62878">
        <ele>255</ele>
        <time>2011-12-11T09:20:50Z</time>
      </trkpt>
      <trkpt lat="43.54941" lon="6.62881">
        <ele>255</ele>
        <time>2011-12-11T09:20:51Z</time>
      </trkpt>
      <trkpt lat="43.54938" lon="6.62883">
        <ele>255</ele>
        <time>2011-12-11T09:20:52Z</time>
      </trkpt>
      <trkpt lat="43.54936" lon="6.62885">
        <ele>255</ele>
        <time>2011-12-11T09:20:53Z</time>
      </trkpt>
      <trkpt lat="43.54933" lon="6.62888">
        <ele>256</ele>
        <time>2011-12-11T09:20:54Z</time>
      </trkpt>
      <trkpt lat="43.54931" lon="6.6289">
        <ele>256</ele>
        <time>2011-12-11T09:20:55Z</time>
      </trkpt>
      <trkpt lat="43.54928" lon="6.62892">
        <ele>256</ele>
        <time>2011-12-11T09:20:56Z</time>
      </trkpt>
      <trkpt lat="43.54926" lon="6.62894">
        <ele>256</ele>
        <time>2011-12-11T09:20:57Z</time>
      </trkpt>
      <trkpt lat="43.54924" lon="6.62896">
        <ele>256</ele>
        <time>2011-12-11T09:20:58Z</time>
      </trkpt>
      <trkpt lat="43.54922" lon="6.62899">
        <ele>256</ele>
        <time>2011-12-11T09:20:59Z</time>
      </trkpt>
      <trkpt lat="43.5492" lon="6.62902">
        <ele>257</ele>
        <time>2011-12-11T09:21:00Z</time>
      </trkpt>
      <trkpt lat="43.54919" lon="6.62904">
        <ele>257</ele>
        <time>2011-12-11T09:21:01Z</time>
      </trkpt>
      <trkpt lat="43.54917" lon="6.62907">
        <ele>257</ele>
        <time>2011-12-11T09:21:02Z</time>
      </trkpt>
      <trkpt lat="43.54915" lon="6.62909">
        <ele>257</ele>
        <time>2011-12-11T09:21:03Z</time>
      </trkpt>
      <trkpt lat="43.54914" lon="6.62912">
        <ele>257</ele>
        <time>2011-12-11T09:21:04Z</time>
      </trkpt>
      <trkpt lat="43.54912" lon="6.62915">
        <ele>257</ele>
        <time>2011-12-11T09:21:05Z</time>
      </trkpt>
      <trkpt lat="43.54911" lon="6.62917">
        <ele>258</ele>
        <time>2011-12-11T09:21:06Z</time>
      </trkpt>
      <trkpt lat="43.5491" lon="6.6292">
        <ele>258</ele>
        <time>2011-12-11T09:21:07Z</time>
      </trkpt>
      <trkpt lat="43.54909" lon="6.62923">
        <ele>258</ele>
        <time>2011-12-11T09:21:08Z</time>
      </trkpt>
      <trkpt lat="43.54908" lon="6.62927">
        <ele>258</ele>
        <time>2011-12-11T09:21:09Z</time>
      </trkpt>
      <trkpt lat="43.54908" lon="6.6293">
        <ele>258</ele>
        <time>2011-12-11T09:21:10Z</time>
      </trkpt>
      <trkpt lat="43.54907" lon="6.62934">
        <ele>259</ele>
        <time>2011-12-11T09:21:11Z</time>
      </trkpt>
      <trkpt lat="43.54907" lon="6.62937">
        <ele>259</ele>
        <time>2011-12-11T09:21:12Z</time>
      </trkpt>
      <trkpt lat="43.54906" lon="6.6294">
        <ele>259</ele>
        <time>2011-12-11T09:21:13Z</time>
      </trkpt>
      <trkpt lat="43.54905" lon="6.62944">
        <ele>259</ele>
        <time>2011-12-11T09:21:14Z</time>
      </trkpt>
      <trkpt lat="43.54905" lon="6.62947">
        <ele>259</ele>
        <time>2011-12-11T09:21:15Z</time>
      </trkpt>
      <trkpt lat="43.54903" lon="6.6295">
        <ele>259</ele>
        <time>2011-12-11T09:21:16Z</time>
      </trkpt>
      <trkpt lat="43.54903" lon="6.62953">
        <ele>259</ele>
        <time>2011-12-11T09:21:17Z</time>
      </trkpt>
      <trkpt lat="43.54902" lon="6.62956">
        <ele>260</ele>
        <time>2011-12-11T09:21:18Z</time>
      </trkpt>
      <trkpt lat="43.54901" lon="6.62959">
        <ele>260</ele>
        <time>2011-12-11T09:21:19Z</time>
      </trkpt>
      <trkpt lat="43.549" lon="6.62962">
        <ele>260</ele>
        <time>2011-12-11T09:21:20Z</time>
      </trkpt>
      <trkpt lat="43.54899" lon="6.62965">
        <ele>260</ele>
        <time>2011-12-11T09:21:21Z</time>
      </trkpt>
      <trkpt lat="43.54897" lon="6.62968">
        <ele>260</ele>
        <time>2011-12-11T09:21:22Z</time>
      </trkpt>
      <trkpt lat="43.54896" lon="6.62971">
        <ele>260</ele>
        <time>2011-12-11T09:21:23Z</time>
      </trkpt>
      <trkpt lat="43.54894" lon="6.62974">
        <ele>260</ele>
        <time>2011-12-11T09:21:24Z</time>
      </trkpt>
      <trkpt lat="43.54891" lon="6.62976">
        <ele>260</ele>
        <time>2011-12-11T09:21:25Z</time>
      </trkpt>
      <trkpt lat="43.54889" lon="6.62978">
        <ele>260</ele>
        <time>2011-12-11T09:21:26Z</time>
      </trkpt>
      <trkpt lat="43.54886" lon="6.62978">
        <ele>261</ele>
        <time>2011-12-11T09:21:27Z</time>
      </trkpt>
      <trkpt lat="43.54884" lon="6.62978">
        <ele>261</ele>
        <time>2011-12-11T09:21:28Z</time>
      </trkpt>
      <trkpt lat="43.54881" lon="6.62977">
        <ele>261</ele>
        <time>2011-12-11T09:21:29Z</time>
      </trkpt>
      <trkpt lat="43.54879" lon="6.62975">
        <ele>261</ele>
        <time>2011-12-11T09:21:30Z</time>
      </trkpt>
      <trkpt lat="43.54877" lon="6.62972">
        <ele>261</ele>
        <time>2011-12-11T09:21:31Z</time>
      </trkpt>
      <trkpt lat="43.54875" lon="6.6297">
        <ele>262</ele>
        <time>2011-12-11T09:21:32Z</time>
      </trkpt>
      <trkpt lat="43.54874" lon="6.62967">
        <ele>262</ele>
        <time>2011-12-11T09:21:33Z</time>
      </trkpt>
      <trkpt lat="43.54872" lon="6.62964">
        <ele>262</ele>
        <time>2011-12-11T09:21:34Z</time>
      </trkpt>
      <trkpt lat="43.5487" lon="6.62962">
        <ele>262</ele>
        <time>2011-12-11T09:21:35Z</time>
      </trkpt>
      <trkpt lat="43.54869" lon="6.6296">
        <ele>262</ele>
        <time>2011-12-11T09:21:36Z</time>
      </trkpt>
      <trkpt lat="43.54868" lon="6.62957">
        <ele>263</ele>
        <time>2011-12-11T09:21:37Z</time>
      </trkpt>
      <trkpt lat="43.54867" lon="6.62954">
        <ele>263</ele>
        <time>2011-12-11T09:21:38Z</time>
      </trkpt>
      <trkpt lat="43.54866" lon="6.62951">
        <ele>263</ele>
        <time>2011-12-11T09:21:39Z</time>
      </trkpt>
      <trkpt lat="43.54865" lon="6.62949">
        <ele>263</ele>
        <time>2011-12-11T09:21:40Z</time>
      </trkpt>
      <trkpt lat="43.54863" lon="6.62947">
        <ele>263</ele>
        <time>2011-12-11T09:21:41Z</time>
      </trkpt>
      <trkpt lat="43.54862" lon="6.62944">
        <ele>263</ele>
        <time>2011-12-11T09:21:42Z</time>
      </trkpt>
      <trkpt lat="43.54861" lon="6.62942">
        <ele>263</ele>
        <time>2011-12-11T09:21:43Z</time>
      </trkpt>
      <trkpt lat="43.5486" lon="6.62939">
        <ele>263</ele>
        <time>2011-12-11T09:21:44Z</time>
      </trkpt>
      <trkpt lat="43.54858" lon="6.62938">
        <ele>264</ele>
        <time>2011-12-11T09:21:45Z</time>
      </trkpt>
      <trkpt lat="43.54856" lon="6.62936">
        <ele>264</ele>
        <time>2011-12-11T09:21:46Z</time>
      </trkpt>
      <trkpt lat="43.54854" lon="6.62935">
        <ele>264</ele>
        <time>2011-12-11T09:21:47Z</time>
      </trkpt>
      <trkpt lat="43.54853" lon="6.62933">
        <ele>264</ele>
        <time>2011-12-11T09:21:48Z</time>
      </trkpt>
      <trkpt lat="43.54851" lon="6.62932">
        <ele>264</ele>
        <time>2011-12-11T09:21:49Z</time>
      </trkpt>
      <trkpt lat="43.54849" lon="6.62931">
        <ele>265</ele>
        <time>2011-12-11T09:21:50Z</time>
      </trkpt>
      <trkpt lat="43.54847" lon="6.62929">
        <ele>265</ele>
        <time>2011-12-11T09:21:51Z</time>
      </trkpt>
      <trkpt lat="43.54845" lon="6.62929">
        <ele>265</ele>
        <time>2011-12-11T09:21:52Z</time>
      </trkpt>
      <trkpt lat="43.54843" lon="6.62927">
        <ele>265</ele>
        <time>2011-12-11T09:21:53Z</time>
      </trkpt>
      <trkpt lat="43.54841" lon="6.62927">
        <ele>265</ele>
        <time>2011-12-11T09:21:54Z</time>
      </trkpt>
      <trkpt lat="43.54839" lon="6.62926">
        <ele>265</ele>
        <time>2011-12-11T09:21:55Z</time>
      </trkpt>
      <trkpt lat="43.54837" lon="6.62926">
        <ele>265</ele>
        <time>2011-12-11T09:21:56Z</time>
      </trkpt>
      <trkpt lat="43.54835" lon="6.62926">
        <ele>265</ele>
        <time>2011-12-11T09:21:57Z</time>
      </trkpt>
      <trkpt lat="43.54832" lon="6.62925">
        <ele>265</ele>
        <time>2011-12-11T09:21:58Z</time>
      </trkpt>
      <trkpt lat="43.5483" lon="6.62925">
        <ele>265</ele>
        <time>2011-12-11T09:21:59Z</time>
      </trkpt>
      <trkpt lat="43.54828" lon="6.62925">
        <ele>265</ele>
        <time>2011-12-11T09:22:00Z</time>
      </trkpt>
      <trkpt lat="43.54826" lon="6.62925">
        <ele>266</ele>
        <time>2011-12-11T09:22:01Z</time>
      </trkpt>
      <trkpt lat="43.54824" lon="6.62925">
        <ele>266</ele>
        <time>2011-12-11T09:22:02Z</time>
      </trkpt>
      <trkpt lat="43.54822" lon="6.62925">
        <ele>266</ele>
        <time>2011-12-11T09:22:03Z</time>
      </trkpt>
      <trkpt lat="43.5482" lon="6.62926">
        <ele>266</ele>
        <time>2011-12-11T09:22:04Z</time>
      </trkpt>
      <trkpt lat="43.54818" lon="6.62927">
        <ele>266</ele>
        <time>2011-12-11T09:22:05Z</time>
      </trkpt>
      <trkpt lat="43.54816" lon="6.62928">
        <ele>266</ele>
        <time>2011-12-11T09:22:06Z</time>
      </trkpt>
      <trkpt lat="43.54814" lon="6.6293">
        <ele>266</ele>
        <time>2011-12-11T09:22:07Z</time>
      </trkpt>
      <trkpt lat="43.54812" lon="6.62932">
        <ele>267</ele>
        <time>2011-12-11T09:22:08Z</time>
      </trkpt>
      <trkpt lat="43.54811" lon="6.62933">
        <ele>267</ele>
        <time>2011-12-11T09:22:09Z</time>
      </trkpt>
      <trkpt lat="43.54809" lon="6.62935">
        <ele>267</ele>
        <time>2011-12-11T09:22:10Z</time>
      </trkpt>
      <trkpt lat="43.54807" lon="6.62937">
        <ele>267</ele>
        <time>2011-12-11T09:22:11Z</time>
      </trkpt>
      <trkpt lat="43.54805" lon="6.62939">
        <ele>268</ele>
        <time>2011-12-11T09:22:12Z</time>
      </trkpt>
      <trkpt lat="43.54804" lon="6.6294">
        <ele>268</ele>
        <time>2011-12-11T09:22:13Z</time>
      </trkpt>
      <trkpt lat="43.54801" lon="6.62941">
        <ele>268</ele>
        <time>2011-12-11T09:22:14Z</time>
      </trkpt>
      <trkpt lat="43.54799" lon="6.62943">
        <ele>268</ele>
        <time>2011-12-11T09:22:15Z</time>
      </trkpt>
      <trkpt lat="43.54797" lon="6.62944">
        <ele>268</ele>
        <time>2011-12-11T09:22:16Z</time>
      </trkpt>
      <trkpt lat="43.54795" lon="6.62945">
        <ele>269</ele>
        <time>2011-12-11T09:22:17Z</time>
      </trkpt>
      <trkpt lat="43.54793" lon="6.62945">
        <ele>269</ele>
        <time>2011-12-11T09:22:18Z</time>
      </trkpt>
      <trkpt lat="43.54791" lon="6.62946">
        <ele>269</ele>
        <time>2011-12-11T09:22:19Z</time>
      </trkpt>
      <trkpt lat="43.54789" lon="6.62946">
        <ele>269</ele>
        <time>2011-12-11T09:22:20Z</time>
      </trkpt>
      <trkpt lat="43.54787" lon="6.62945">
        <ele>270</ele>
        <time>2011-12-11T09:22:21Z</time>
      </trkpt>
      <trkpt lat="43.54785" lon="6.62945">
        <ele>270</ele>
        <time>2011-12-11T09:22:22Z</time>
      </trkpt>
      <trkpt lat="43.54783" lon="6.62944">
        <ele>270</ele>
        <time>2011-12-11T09:22:23Z</time>
      </trkpt>
      <trkpt lat="43.54781" lon="6.62943">
        <ele>270</ele>
        <time>2011-12-11T09:22:24Z</time>
      </trkpt>
      <trkpt lat="43.54779" lon="6.62942">
        <ele>270</ele>
        <time>2011-12-11T09:22:25Z</time>
      </trkpt>
      <trkpt lat="43.54777" lon="6.62941">
        <ele>270</ele>
        <time>2011-12-11T09:22:26Z</time>
      </trkpt>
      <trkpt lat="43.54775" lon="6.62941">
        <ele>271</ele>
        <time>2011-12-11T09:22:27Z</time>
      </trkpt>
      <trkpt lat="43.54773" lon="6.62941">
        <ele>271</ele>
        <time>2011-12-11T09:22:28Z</time>
      </trkpt>
      <trkpt lat="43.54771" lon="6.62942">
        <ele>271</ele>
        <time>2011-12-11T09:22:29Z</time>
      </trkpt>
      <trkpt lat="43.54769" lon="6.62943">
        <ele>272</ele>
        <time>2011-12-11T09:22:30Z</time>
      </trkpt>
      <trkpt lat="43.54767" lon="6.62944">
        <ele>272</ele>
        <time>2011-12-11T09:22:31Z</time>
      </trkpt>
      <trkpt lat="43.54765" lon="6.62946">
        <ele>272</ele>
        <time>2011-12-11T09:22:32Z</time>
      </trkpt>
      <trkpt lat="43.54763" lon="6.62947">
        <ele>273</ele>
        <time>2011-12-11T09:22:33Z</time>
      </trkpt>
      <trkpt lat="43.54761" lon="6.62949">
        <ele>273</ele>
        <time>2011-12-11T09:22:34Z</time>
      </trkpt>
      <trkpt lat="43.54759" lon="6.6295">
        <ele>273</ele>
        <time>2011-12-11T09:22:35Z</time>
      </trkpt>
      <trkpt lat="43.54757" lon="6.62951">
        <ele>274</ele>
        <time>2011-12-11T09:22:36Z</time>
      </trkpt>
      <trkpt lat="43.54755" lon="6.62952">
        <ele>274</ele>
        <time>2011-12-11T09:22:37Z</time>
      </trkpt>
      <trkpt lat="43.54753" lon="6.62953">
        <ele>274</ele>
        <time>2011-12-11T09:22:38Z</time>
      </trkpt>
      <trkpt lat="43.54751" lon="6.62953">
        <ele>275</ele>
        <time>2011-12-11T09:22:39Z</time>
      </trkpt>
      <trkpt lat="43.54749" lon="6.62954">
        <ele>275</ele>
        <time>2011-12-11T09:22:40Z</time>
      </trkpt>
      <trkpt lat="43.54747" lon="6.62955">
        <ele>275</ele>
        <time>2011-12-11T09:22:41Z</time>
      </trkpt>
      <trkpt lat="43.54744" lon="6.62955">
        <ele>275</ele>
        <time>2011-12-11T09:22:42Z</time>
      </trkpt>
      <trkpt lat="43.54742" lon="6.62956">
        <ele>275</ele>
        <time>2011-12-11T09:22:43Z</time>
      </trkpt>
      <trkpt lat="43.5474" lon="6.62956">
        <ele>275</ele>
        <time>2011-12-11T09:22:44Z</time>
      </trkpt>
      <trkpt lat="43.54738" lon="6.62957">
        <ele>276</ele>
        <time>2011-12-11T09:22:45Z</time>
      </trkpt>
      <trkpt lat="43.54736" lon="6.62958">
        <ele>276</ele>
        <time>2011-12-11T09:22:46Z</time>
      </trkpt>
      <trkpt lat="43.54735" lon="6.6296">
        <ele>276</ele>
        <time>2011-12-11T09:22:47Z</time>
      </trkpt>
      <trkpt lat="43.54734" lon="6.62962">
        <ele>277</ele>
        <time>2011-12-11T09:22:48Z</time>
      </trkpt>
      <trkpt lat="43.54733" lon="6.62965">
        <ele>277</ele>
        <time>2011-12-11T09:22:49Z</time>
      </trkpt>
      <trkpt lat="43.54733" lon="6.62968">
        <ele>277</ele>
        <time>2011-12-11T09:22:50Z</time>
      </trkpt>
      <trkpt lat="43.54733" lon="6.62972">
        <ele>277</ele>
        <time>2011-12-11T09:22:51Z</time>
      </trkpt>
      <trkpt lat="43.54734" lon="6.62975">
        <ele>277</ele>
        <time>2011-12-11T09:22:52Z</time>
      </trkpt>
      <trkpt lat="43.54734" lon="6.62978">
        <ele>277</ele>
        <time>2011-12-11T09:22:53Z</time>
      </trkpt>
      <trkpt lat="43.54734" lon="6.62982">
        <ele>277</ele>
        <time>2011-12-11T09:22:54Z</time>
      </trkpt>
      <trkpt lat="43.54734" lon="6.62985">
        <ele>277</ele>
        <time>2011-12-11T09:22:55Z</time>
      </trkpt>
      <trkpt lat="43.54732" lon="6.62988">
        <ele>277</ele>
        <time>2011-12-11T09:22:56Z</time>
      </trkpt>
      <trkpt lat="43.54731" lon="6.6299">
        <ele>277</ele>
        <time>2011-12-11T09:22:57Z</time>
      </trkpt>
      <trkpt lat="43.54729" lon="6.62993">
        <ele>278</ele>
        <time>2011-12-11T09:22:58Z</time>
      </trkpt>
      <trkpt lat="43.54727" lon="6.62995">
        <ele>278</ele>
        <time>2011-12-11T09:22:59Z</time>
      </trkpt>
      <trkpt lat="43.54725" lon="6.62997">
        <ele>278</ele>
        <time>2011-12-11T09:23:00Z</time>
      </trkpt>
      <trkpt lat="43.54723" lon="6.62999">
        <ele>278</ele>
        <time>2011-12-11T09:23:01Z</time>
      </trkpt>
      <trkpt lat="43.5472" lon="6.63">
        <ele>278</ele>
        <time>2011-12-11T09:23:02Z</time>
      </trkpt>
      <trkpt lat="43.54718" lon="6.63002">
        <ele>278</ele>
        <time>2011-12-11T09:23:03Z</time>
      </trkpt>
      <trkpt lat="43.54716" lon="6.63003">
        <ele>278</ele>
        <time>2011-12-11T09:23:04Z</time>
      </trkpt>
      <trkpt lat="43.54714" lon="6.63005">
        <ele>278</ele>
        <time>2011-12-11T09:23:05Z</time>
      </trkpt>
      <trkpt lat="43.54713" lon="6.63007">
        <ele>278</ele>
        <time>2011-12-11T09:23:06Z</time>
      </trkpt>
      <trkpt lat="43.54712" lon="6.63009">
        <ele>278</ele>
        <time>2011-12-11T09:23:07Z</time>
      </trkpt>
      <trkpt lat="43.5471" lon="6.63011">
        <ele>278</ele>
        <time>2011-12-11T09:23:08Z</time>
      </trkpt>
      <trkpt lat="43.5471" lon="6.63014">
        <ele>278</ele>
        <time>2011-12-11T09:23:09Z</time>
      </trkpt>
      <trkpt lat="43.54709" lon="6.63017">
        <ele>278</ele>
        <time>2011-12-11T09:23:10Z</time>
      </trkpt>
      <trkpt lat="43.54709" lon="6.6302">
        <ele>278</ele>
        <time>2011-12-11T09:23:11Z</time>
      </trkpt>
      <trkpt lat="43.54709" lon="6.63023">
        <ele>278</ele>
        <time>2011-12-11T09:23:12Z</time>
      </trkpt>
      <trkpt lat="43.54709" lon="6.63026">
        <ele>278</ele>
        <time>2011-12-11T09:23:13Z</time>
      </trkpt>
      <trkpt lat="43.54709" lon="6.63028">
        <ele>278</ele>
        <time>2011-12-11T09:23:14Z</time>
      </trkpt>
      <trkpt lat="43.5471" lon="6.63031">
        <ele>278</ele>
        <time>2011-12-11T09:23:15Z</time>
      </trkpt>
      <trkpt lat="43.5471" lon="6.63034">
        <ele>279</ele>
        <time>2011-12-11T09:23:16Z</time>
      </trkpt>
      <trkpt lat="43.54711" lon="6.63037">
        <ele>279</ele>
        <time>2011-12-11T09:23:17Z</time>
      </trkpt>
      <trkpt lat="43.54713" lon="6.63039">
        <ele>279</ele>
        <time>2011-12-11T09:23:18Z</time>
      </trkpt>
      <trkpt lat="43.54714" lon="6.63041">
        <ele>279</ele>
        <time>2011-12-11T09:23:19Z</time>
      </trkpt>
      <trkpt lat="43.54716" lon="6.63043">
        <ele>279</ele>
        <time>2011-12-11T09:23:20Z</time>
      </trkpt>
      <trkpt lat="43.54717" lon="6.63045">
        <ele>279</ele>
        <time>2011-12-11T09:23:21Z</time>
      </trkpt>
      <trkpt lat="43.54718" lon="6.63048">
        <ele>279</ele>
        <time>2011-12-11T09:23:22Z</time>
      </trkpt>
      <trkpt lat="43.5472" lon="6.6305">
        <ele>280</ele>
        <time>2011-12-11T09:23:23Z</time>
      </trkpt>
      <trkpt lat="43.5472" lon="6.63053">
        <ele>280</ele>
        <time>2011-12-11T09:23:24Z</time>
      </trkpt>
      <trkpt lat="43.54721" lon="6.63056">
        <ele>280</ele>
        <time>2011-12-11T09:23:25Z</time>
      </trkpt>
      <trkpt lat="43.54722" lon="6.63059">
        <ele>280</ele>
        <time>2011-12-11T09:23:26Z</time>
      </trkpt>
      <trkpt lat="43.54723" lon="6.63062">
        <ele>280</ele>
        <time>2011-12-11T09:23:27Z</time>
      </trkpt>
      <trkpt lat="43.54723" lon="6.63065">
        <ele>280</ele>
        <time>2011-12-11T09:23:28Z</time>
      </trkpt>
      <trkpt lat="43.54724" lon="6.63068">
        <ele>280</ele>
        <time>2011-12-11T09:23:29Z</time>
      </trkpt>
      <trkpt lat="43.54724" lon="6.63071">
        <ele>280</ele>
        <time>2011-12-11T09:23:30Z</time>
      </trkpt>
      <trkpt lat="43.54725" lon="6.63074">
        <ele>281</ele>
        <time>2011-12-11T09:23:31Z</time>
      </trkpt>
      <trkpt lat="43.54726" lon="6.63077">
        <ele>281</ele>
        <time>2011-12-11T09:23:32Z</time>
      </trkpt>
      <trkpt lat="43.54727" lon="6.63081">
        <ele>281</ele>
        <time>2011-12-11T09:23:33Z</time>
      </trkpt>
      <trkpt lat="43.54728" lon="6.63084">
        <ele>281</ele>
        <time>2011-12-11T09:23:34Z</time>
      </trkpt>
      <trkpt lat="43.54728" lon="6.63087">
        <ele>281</ele>
        <time>2011-12-11T09:23:35Z</time>
      </trkpt>
      <trkpt lat="43.54728" lon="6.63091">
        <ele>281</ele>
        <time>2011-12-11T09:23:36Z</time>
      </trkpt>
      <trkpt lat="43.54728" lon="6.63094">
        <ele>281</ele>
        <time>2011-12-11T09:23:37Z</time>
      </trkpt>
      <trkpt lat="43.54729" lon="6.63098">
        <ele>281</ele>
        <time>2011-12-11T09:23:38Z</time>
      </trkpt>
      <trkpt lat="43.54728" lon="6.63102">
        <ele>281</ele>
        <time>2011-12-11T09:23:39Z</time>
      </trkpt>
      <trkpt lat="43.54728" lon="6.63105">
        <ele>281</ele>
        <time>2011-12-11T09:23:40Z</time>
      </trkpt>
      <trkpt lat="43.54727" lon="6.63109">
        <ele>281</ele>
        <time>2011-12-11T09:23:41Z</time>
      </trkpt>
      <trkpt lat="43.54727" lon="6.63112">
        <ele>281</ele>
        <time>2011-12-11T09:23:42Z</time>
      </trkpt>
      <trkpt lat="43.54727" lon="6.63115">
        <ele>281</ele>
        <time>2011-12-11T09:23:43Z</time>
      </trkpt>
      <trkpt lat="43.54726" lon="6.63119">
        <ele>281</ele>
        <time>2011-12-11T09:23:44Z</time>
      </trkpt>
      <trkpt lat="43.54725" lon="6.63122">
        <ele>281</ele>
        <time>2011-12-11T09:23:45Z</time>
      </trkpt>
      <trkpt lat="43.54725" lon="6.63126">
        <ele>281</ele>
        <time>2011-12-11T09:23:46Z</time>
      </trkpt>
      <trkpt lat="43.54724" lon="6.63129">
        <ele>281</ele>
        <time>2011-12-11T09:23:47Z</time>
      </trkpt>
      <trkpt lat="43.54724" lon="6.63133">
        <ele>281</ele>
        <time>2011-12-11T09:23:48Z</time>
      </trkpt>
      <trkpt lat="43.54723" lon="6.63136">
        <ele>281</ele>
        <time>2011-12-11T09:23:49Z</time>
      </trkpt>
      <trkpt lat="43.54723" lon="6.6314">
        <ele>281</ele>
        <time>2011-12-11T09:23:50Z</time>
      </trkpt>
      <trkpt lat="43.54723" lon="6.63144">
        <ele>282</ele>
        <time>2011-12-11T09:23:51Z</time>
      </trkpt>
      <trkpt lat="43.54722" lon="6.63147">
        <ele>282</ele>
        <time>2011-12-11T09:23:52Z</time>
      </trkpt>
      <trkpt lat="43.54721" lon="6.63151">
        <ele>282</ele>
        <time>2011-12-11T09:23:53Z</time>
      </trkpt>
      <trkpt lat="43.5472" lon="6.63155">
        <ele>282</ele>
        <time>2011-12-11T09:23:54Z</time>
      </trkpt>
      <trkpt lat="43.54719" lon="6.63159">
        <ele>282</ele>
        <time>2011-12-11T09:23:55Z</time>
      </trkpt>
      <trkpt lat="43.54718" lon="6.63163">
        <ele>282</ele>
        <time>2011-12-11T09:23:56Z</time>
      </trkpt>
      <trkpt lat="43.54717" lon="6.63166">
        <ele>282</ele>
        <time>2011-12-11T09:23:57Z</time>
      </trkpt>
      <trkpt lat="43.54716" lon="6.63171">
        <ele>282</ele>
        <time>2011-12-11T09:23:58Z</time>
      </trkpt>
      <trkpt lat="43.54715" lon="6.63175">
        <ele>283</ele>
        <time>2011-12-11T09:23:59Z</time>
      </trkpt>
      <trkpt lat="43.54713" lon="6.63179">
        <ele>283</ele>
        <time>2011-12-11T09:24:00Z</time>
      </trkpt>
      <trkpt lat="43.54712" lon="6.63183">
        <ele>283</ele>
        <time>2011-12-11T09:24:01Z</time>
      </trkpt>
      <trkpt lat="43.5471" lon="6.63187">
        <ele>283</ele>
        <time>2011-12-11T09:24:02Z</time>
      </trkpt>
      <trkpt lat="43.54709" lon="6.63191">
        <ele>283</ele>
        <time>2011-12-11T09:24:03Z</time>
      </trkpt>
      <trkpt lat="43.54707" lon="6.63195">
        <ele>283</ele>
        <time>2011-12-11T09:24:04Z</time>
      </trkpt>
      <trkpt lat="43.54706" lon="6.63199">
        <ele>283</ele>
        <time>2011-12-11T09:24:05Z</time>
      </trkpt>
      <trkpt lat="43.54704" lon="6.63203">
        <ele>283</ele>
        <time>2011-12-11T09:24:06Z</time>
      </trkpt>
      <trkpt lat="43.54703" lon="6.63207">
        <ele>283</ele>
        <time>2011-12-11T09:24:07Z</time>
      </trkpt>
      <trkpt lat="43.54701" lon="6.6321">
        <ele>283</ele>
        <time>2011-12-11T09:24:08Z</time>
      </trkpt>
      <trkpt lat="43.547" lon="6.63213">
        <ele>283</ele>
        <time>2011-12-11T09:24:09Z</time>
      </trkpt>
      <trkpt lat="43.54699" lon="6.63216">
        <ele>284</ele>
        <time>2011-12-11T09:24:10Z</time>
      </trkpt>
      <trkpt lat="43.54697" lon="6.63219">
        <ele>284</ele>
        <time>2011-12-11T09:24:11Z</time>
      </trkpt>
      <trkpt lat="43.54696" lon="6.63222">
        <ele>284</ele>
        <time>2011-12-11T09:24:12Z</time>
      </trkpt>
      <trkpt lat="43.54694" lon="6.63225">
        <ele>284</ele>
        <time>2011-12-11T09:24:13Z</time>
      </trkpt>
      <trkpt lat="43.54692" lon="6.63227">
        <ele>284</ele>
        <time>2011-12-11T09:24:14Z</time>
      </trkpt>
      <trkpt lat="43.54691" lon="6.6323">
        <ele>284</ele>
        <time>2011-12-11T09:24:15Z</time>
      </trkpt>
      <trkpt lat="43.54689" lon="6.63233">
        <ele>284</ele>
        <time>2011-12-11T09:24:16Z</time>
      </trkpt>
      <trkpt lat="43.54687" lon="6.63235">
        <ele>284</ele>
        <time>2011-12-11T09:24:17Z</time>
      </trkpt>
      <trkpt lat="43.54685" lon="6.63238">
        <ele>284</ele>
        <time>2011-12-11T09:24:18Z</time>
      </trkpt>
      <trkpt lat="43.54684" lon="6.6324">
        <ele>285</ele>
        <time>2011-12-11T09:24:19Z</time>
      </trkpt>
      <trkpt lat="43.54682" lon="6.63243">
        <ele>285</ele>
        <time>2011-12-11T09:24:20Z</time>
      </trkpt>
      <trkpt lat="43.5468" lon="6.63244">
        <ele>285</ele>
        <time>2011-12-11T09:24:21Z</time>
      </trkpt>
      <trkpt lat="43.54678" lon="6.63244">
        <ele>285</ele>
        <time>2011-12-11T09:24:22Z</time>
      </trkpt>
      <trkpt lat="43.54676" lon="6.63243">
        <ele>285</ele>
        <time>2011-12-11T09:24:23Z</time>
      </trkpt>
      <trkpt lat="43.54674" lon="6.6324">
        <ele>285</ele>
        <time>2011-12-11T09:24:24Z</time>
      </trkpt>
      <trkpt lat="43.54674" lon="6.63238">
        <ele>286</ele>
        <time>2011-12-11T09:24:25Z</time>
      </trkpt>
      <trkpt lat="43.54675" lon="6.63235">
        <ele>286</ele>
        <time>2011-12-11T09:24:26Z</time>
      </trkpt>
      <trkpt lat="43.54676" lon="6.63233">
        <ele>286</ele>
        <time>2011-12-11T09:24:27Z</time>
      </trkpt>
      <trkpt lat="43.54678" lon="6.63232">
        <ele>287</ele>
        <time>2011-12-11T09:24:28Z</time>
      </trkpt>
      <trkpt lat="43.54679" lon="6.63229">
        <ele>287</ele>
        <time>2011-12-11T09:24:29Z</time>
      </trkpt>
      <trkpt lat="43.5468" lon="6.63227">
        <ele>287</ele>
        <time>2011-12-11T09:24:30Z</time>
      </trkpt>
      <trkpt lat="43.5468" lon="6.63225">
        <ele>287</ele>
        <time>2011-12-11T09:24:31Z</time>
      </trkpt>
      <trkpt lat="43.54681" lon="6.63223">
        <ele>287</ele>
        <time>2011-12-11T09:24:32Z</time>
      </trkpt>
      <trkpt lat="43.54682" lon="6.63221">
        <ele>287</ele>
        <time>2011-12-11T09:24:33Z</time>
      </trkpt>
      <trkpt lat="43.54683" lon="6.63219">
        <ele>287</ele>
        <time>2011-12-11T09:24:34Z</time>
      </trkpt>
      <trkpt lat="43.54684" lon="6.63218">
        <ele>287</ele>
        <time>2011-12-11T09:24:35Z</time>
      </trkpt>
      <trkpt lat="43.54685" lon="6.63216">
        <ele>288</ele>
        <time>2011-12-11T09:24:36Z</time>
      </trkpt>
      <trkpt lat="43.54685" lon="6.63213">
        <ele>288</ele>
        <time>2011-12-11T09:24:37Z</time>
      </trkpt>
      <trkpt lat="43.54686" lon="6.63211">
        <ele>288</ele>
        <time>2011-12-11T09:24:38Z</time>
      </trkpt>
      <trkpt lat="43.54686" lon="6.63208">
        <ele>288</ele>
        <time>2011-12-11T09:24:39Z</time>
      </trkpt>
      <trkpt lat="43.54687" lon="6.63206">
        <ele>288</ele>
        <time>2011-12-11T09:24:40Z</time>
      </trkpt>
      <trkpt lat="43.54687" lon="6.63203">
        <ele>288</ele>
        <time>2011-12-11T09:24:41Z</time>
      </trkpt>
      <trkpt lat="43.54688" lon="6.63201">
        <ele>288</ele>
        <time>2011-12-11T09:24:42Z</time>
      </trkpt>
      <trkpt lat="43.54688" lon="6.63199">
        <ele>289</ele>
        <time>2011-12-11T09:24:43Z</time>
      </trkpt>
      <trkpt lat="43.54689" lon="6.63196">
        <ele>289</ele>
        <time>2011-12-11T09:24:44Z</time>
      </trkpt>
      <trkpt lat="43.54689" lon="6.63194">
        <ele>289</ele>
        <time>2011-12-11T09:24:45Z</time>
      </trkpt>
      <trkpt lat="43.54689" lon="6.63192">
        <ele>289</ele>
        <time>2011-12-11T09:24:46Z</time>
      </trkpt>
      <trkpt lat="43.54689" lon="6.63189">
        <ele>290</ele>
        <time>2011-12-11T09:24:47Z</time>
      </trkpt>
      <trkpt lat="43.54689" lon="6.63187">
        <ele>290</ele>
        <time>2011-12-11T09:24:48Z</time>
      </trkpt>
      <trkpt lat="43.54689" lon="6.63185">
        <ele>290</ele>
        <time>2011-12-11T09:24:49Z</time>
      </trkpt>
      <trkpt lat="43.5469" lon="6.63182">
        <ele>291</ele>
        <time>2011-12-11T09:24:50Z</time>
      </trkpt>
      <trkpt lat="43.5469" lon="6.6318">
        <ele>291</ele>
        <time>2011-12-11T09:24:51Z</time>
      </trkpt>
      <trkpt lat="43.5469" lon="6.63177">
        <ele>291</ele>
        <time>2011-12-11T09:24:52Z</time>
      </trkpt>
      <trkpt lat="43.54691" lon="6.63175">
        <ele>291</ele>
        <time>2011-12-11T09:24:53Z</time>
      </trkpt>
      <trkpt lat="43.54691" lon="6.63173">
        <ele>291</ele>
        <time>2011-12-11T09:24:54Z</time>
      </trkpt>
      <trkpt lat="43.54692" lon="6.6317">
        <ele>291</ele>
        <time>2011-12-11T09:24:55Z</time>
      </trkpt>
      <trkpt lat="43.54693" lon="6.63167">
        <ele>291</ele>
        <time>2011-12-11T09:24:56Z</time>
      </trkpt>
      <trkpt lat="43.54693" lon="6.63165">
        <ele>292</ele>
        <time>2011-12-11T09:24:57Z</time>
      </trkpt>
      <trkpt lat="43.54693" lon="6.63162">
        <ele>292</ele>
        <time>2011-12-11T09:24:58Z</time>
      </trkpt>
      <trkpt lat="43.54693" lon="6.6316">
        <ele>292</ele>
        <time>2011-12-11T09:24:59Z</time>
      </trkpt>
      <trkpt lat="43.54693" lon="6.63157">
        <ele>292</ele>
        <time>2011-12-11T09:25:00Z</time>
      </trkpt>
      <trkpt lat="43.54693" lon="6.63154">
        <ele>292</ele>
        <time>2011-12-11T09:25:01Z</time>
      </trkpt>
      <trkpt lat="43.54693" lon="6.63152">
        <ele>292</ele>
        <time>2011-12-11T09:25:02Z</time>
      </trkpt>
      <trkpt lat="43.54693" lon="6.63149">
        <ele>293</ele>
        <time>2011-12-11T09:25:03Z</time>
      </trkpt>
      <trkpt lat="43.54693" lon="6.63146">
        <ele>293</ele>
        <time>2011-12-11T09:25:04Z</time>
      </trkpt>
      <trkpt lat="43.54692" lon="6.63144">
        <ele>293</ele>
        <time>2011-12-11T09:25:05Z</time>
      </trkpt>
      <trkpt lat="43.54692" lon="6.63141">
        <ele>293</ele>
        <time>2011-12-11T09:25:06Z</time>
      </trkpt>
      <trkpt lat="43.54692" lon="6.63139">
        <ele>294</ele>
        <time>2011-12-11T09:25:07Z</time>
      </trkpt>
      <trkpt lat="43.54692" lon="6.63136">
        <ele>294</ele>
        <time>2011-12-11T09:25:08Z</time>
      </trkpt>
      <trkpt lat="43.54692" lon="6.63133">
        <ele>294</ele>
        <time>2011-12-11T09:25:09Z</time>
      </trkpt>
      <trkpt lat="43.54692" lon="6.63131">
        <ele>294</ele>
        <time>2011-12-11T09:25:10Z</time>
      </trkpt>
      <trkpt lat="43.54692" lon="6.63128">
        <ele>295</ele>
        <time>2011-12-11T09:25:11Z</time>
      </trkpt>
      <trkpt lat="43.54691" lon="6.63126">
        <ele>295</ele>
        <time>2011-12-11T09:25:12Z</time>
      </trkpt>
      <trkpt lat="43.54692" lon="6.63123">
        <ele>296</ele>
        <time>2011-12-11T09:25:13Z</time>
      </trkpt>
      <trkpt lat="43.54692" lon="6.63121">
        <ele>296</ele>
        <time>2011-12-11T09:25:14Z</time>
      </trkpt>
      <trkpt lat="43.54692" lon="6.63118">
        <ele>296</ele>
        <time>2011-12-11T09:25:15Z</time>
      </trkpt>
      <trkpt lat="43.54692" lon="6.63115">
        <ele>296</ele>
        <time>2011-12-11T09:25:16Z</time>
      </trkpt>
      <trkpt lat="43.54692" lon="6.63113">
        <ele>297</ele>
        <time>2011-12-11T09:25:17Z</time>
      </trkpt>
      <trkpt lat="43.54692" lon="6.6311">
        <ele>297</ele>
        <time>2011-12-11T09:25:18Z</time>
      </trkpt>
      <trkpt lat="43.54691" lon="6.63107">
        <ele>297</ele>
        <time>2011-12-11T09:25:19Z</time>
      </trkpt>
      <trkpt lat="43.54691" lon="6.63104">
        <ele>297</ele>
        <time>2011-12-11T09:25:20Z</time>
      </trkpt>
      <trkpt lat="43.5469" lon="6.63102">
        <ele>297</ele>
        <time>2011-12-11T09:25:21Z</time>
      </trkpt>
      <trkpt lat="43.5469" lon="6.63099">
        <ele>298</ele>
        <time>2011-12-11T09:25:22Z</time>
      </trkpt>
      <trkpt lat="43.54689" lon="6.63097">
        <ele>298</ele>
        <time>2011-12-11T09:25:23Z</time>
      </trkpt>
      <trkpt lat="43.54688" lon="6.63094">
        <ele>298</ele>
        <time>2011-12-11T09:25:24Z</time>
      </trkpt>
      <trkpt lat="43.54688" lon="6.63092">
        <ele>298</ele>
        <time>2011-12-11T09:25:25Z</time>
      </trkpt>
      <trkpt lat="43.54687" lon="6.63089">
        <ele>299</ele>
        <time>2011-12-11T09:25:26Z</time>
      </trkpt>
      <trkpt lat="43.54686" lon="6.63087">
        <ele>299</ele>
        <time>2011-12-11T09:25:27Z</time>
      </trkpt>
      <trkpt lat="43.54685" lon="6.63085">
        <ele>298</ele>
        <time>2011-12-11T09:25:28Z</time>
      </trkpt>
      <trkpt lat="43.54684" lon="6.63083">
        <ele>298</ele>
        <time>2011-12-11T09:25:29Z</time>
      </trkpt>
      <trkpt lat="43.54683" lon="6.63081">
        <ele>298</ele>
        <time>2011-12-11T09:25:30Z</time>
      </trkpt>
      <trkpt lat="43.54682" lon="6.63079">
        <ele>299</ele>
        <time>2011-12-11T09:25:31Z</time>
      </trkpt>
      <trkpt lat="43.54681" lon="6.63077">
        <ele>299</ele>
        <time>2011-12-11T09:25:32Z</time>
      </trkpt>
      <trkpt lat="43.5468" lon="6.63075">
        <ele>299</ele>
        <time>2011-12-11T09:25:33Z</time>
      </trkpt>
      <trkpt lat="43.54679" lon="6.63073">
        <ele>299</ele>
        <time>2011-12-11T09:25:34Z</time>
      </trkpt>
      <trkpt lat="43.54678" lon="6.63071">
        <ele>299</ele>
        <time>2011-12-11T09:25:35Z</time>
      </trkpt>
      <trkpt lat="43.54677" lon="6.63069">
        <ele>299</ele>
        <time>2011-12-11T09:25:36Z</time>
      </trkpt>
      <trkpt lat="43.54677" lon="6.63066">
        <ele>299</ele>
        <time>2011-12-11T09:25:37Z</time>
      </trkpt>
      <trkpt lat="43.54676" lon="6.63065">
        <ele>299</ele>
        <time>2011-12-11T09:25:38Z</time>
      </trkpt>
      <trkpt lat="43.54675" lon="6.63062">
        <ele>299</ele>
        <time>2011-12-11T09:25:39Z</time>
      </trkpt>
      <trkpt lat="43.54674" lon="6.63061">
        <ele>300</ele>
        <time>2011-12-11T09:25:40Z</time>
      </trkpt>
      <trkpt lat="43.54674" lon="6.63059">
        <ele>300</ele>
        <time>2011-12-11T09:25:41Z</time>
      </trkpt>
      <trkpt lat="43.54673" lon="6.63058">
        <ele>300</ele>
        <time>2011-12-11T09:25:42Z</time>
      </trkpt>
      <trkpt lat="43.54673" lon="6.63056">
        <ele>300</ele>
        <time>2011-12-11T09:25:43Z</time>
      </trkpt>
      <trkpt lat="43.54673" lon="6.63055">
        <ele>300</ele>
        <time>2011-12-11T09:25:44Z</time>
      </trkpt>
      <trkpt lat="43.54672" lon="6.63054">
        <ele>301</ele>
        <time>2011-12-11T09:25:45Z</time>
      </trkpt>
      <trkpt lat="43.54672" lon="6.63052">
        <ele>301</ele>
        <time>2011-12-11T09:25:46Z</time>
      </trkpt>
      <trkpt lat="43.54672" lon="6.63051">
        <ele>302</ele>
        <time>2011-12-11T09:25:47Z</time>
      </trkpt>
      <trkpt lat="43.54671" lon="6.6305">
        <ele>302</ele>
        <time>2011-12-11T09:25:48Z</time>
      </trkpt>
      <trkpt lat="43.54671" lon="6.63049">
        <ele>302</ele>
        <time>2011-12-11T09:25:49Z</time>
      </trkpt>
      <trkpt lat="43.54671" lon="6.63048">
        <ele>302</ele>
        <time>2011-12-11T09:25:50Z</time>
      </trkpt>
      <trkpt lat="43.54671" lon="6.63047">
        <ele>302</ele>
        <time>2011-12-11T09:25:51Z</time>
      </trkpt>
      <trkpt lat="43.54671" lon="6.63046">
        <ele>302</ele>
        <time>2011-12-11T09:25:52Z</time>
      </trkpt>
      <trkpt lat="43.54671" lon="6.63045">
        <ele>302</ele>
        <time>2011-12-11T09:25:53Z</time>
      </trkpt>
      <trkpt lat="43.54671" lon="6.63044">
        <ele>302</ele>
        <time>2011-12-11T09:25:54Z</time>
      </trkpt>
      <trkpt lat="43.5467" lon="6.63043">
        <ele>302</ele>
        <time>2011-12-11T09:25:55Z</time>
      </trkpt>
      <trkpt lat="43.5467" lon="6.63042">
        <ele>302</ele>
        <time>2011-12-11T09:25:56Z</time>
      </trkpt>
      <trkpt lat="43.5467" lon="6.63041">
        <ele>302</ele>
        <time>2011-12-11T09:25:57Z</time>
      </trkpt>
      <trkpt lat="43.5467" lon="6.6304">
        <ele>302</ele>
        <time>2011-12-11T09:25:58Z</time>
      </trkpt>
      <trkpt lat="43.5467" lon="6.63039">
        <ele>303</ele>
        <time>2011-12-11T09:25:59Z</time>
      </trkpt>
      <trkpt lat="43.5467" lon="6.63039">
        <ele>303</ele>
        <time>2011-12-11T09:26:00Z</time>
      </trkpt>
      <trkpt lat="43.5467" lon="6.63039">
        <ele>303</ele>
        <time>2011-12-11T09:26:01Z</time>
      </trkpt>
      <trkpt lat="43.54669" lon="6.63039">
        <ele>303</ele>
        <time>2011-12-11T09:26:02Z</time>
      </trkpt>
      <trkpt lat="43.54669" lon="6.63039">
        <ele>303</ele>
        <time>2011-12-11T09:26:18Z</time>
      </trkpt>
      <trkpt lat="43.54669" lon="6.63037">
        <ele>303</ele>
        <time>2011-12-11T09:26:19Z</time>
      </trkpt>
      <trkpt lat="43.54668" lon="6.63035">
        <ele>303</ele>
        <time>2011-12-11T09:26:20Z</time>
      </trkpt>
      <trkpt lat="43.54668" lon="6.63034">
        <ele>303</ele>
        <time>2011-12-11T09:26:21Z</time>
      </trkpt>
      <trkpt lat="43.54668" lon="6.63032">
        <ele>303</ele>
        <time>2011-12-11T09:26:22Z</time>
      </trkpt>
      <trkpt lat="43.54667" lon="6.6303">
        <ele>303</ele>
        <time>2011-12-11T09:26:23Z</time>
      </trkpt>
      <trkpt lat="43.54667" lon="6.63028">
        <ele>303</ele>
        <time>2011-12-11T09:26:24Z</time>
      </trkpt>
      <trkpt lat="43.54666" lon="6.63026">
        <ele>303</ele>
        <time>2011-12-11T09:26:25Z</time>
      </trkpt>
      <trkpt lat="43.54666" lon="6.63024">
        <ele>303</ele>
        <time>2011-12-11T09:26:26Z</time>
      </trkpt>
      <trkpt lat="43.54665" lon="6.63022">
        <ele>303</ele>
        <time>2011-12-11T09:26:27Z</time>
      </trkpt>
      <trkpt lat="43.54665" lon="6.6302">
        <ele>303</ele>
        <time>2011-12-11T09:26:28Z</time>
      </trkpt>
      <trkpt lat="43.54664" lon="6.63018">
        <ele>303</ele>
        <time>2011-12-11T09:26:29Z</time>
      </trkpt>
      <trkpt lat="43.54664" lon="6.63016">
        <ele>303</ele>
        <time>2011-12-11T09:26:30Z</time>
      </trkpt>
      <trkpt lat="43.54664" lon="6.63014">
        <ele>303</ele>
        <time>2011-12-11T09:26:31Z</time>
      </trkpt>
      <trkpt lat="43.54664" lon="6.63011">
        <ele>303</ele>
        <time>2011-12-11T09:26:32Z</time>
      </trkpt>
      <trkpt lat="43.54664" lon="6.63009">
        <ele>303</ele>
        <time>2011-12-11T09:26:33Z</time>
      </trkpt>
      <trkpt lat="43.54664" lon="6.63006">
        <ele>303</ele>
        <time>2011-12-11T09:26:34Z</time>
      </trkpt>
      <trkpt lat="43.54664" lon="6.63002">
        <ele>303</ele>
        <time>2011-12-11T09:26:35Z</time>
      </trkpt>
      <trkpt lat="43.54665" lon="6.62999">
        <ele>303</ele>
        <time>2011-12-11T09:26:36Z</time>
      </trkpt>
      <trkpt lat="43.54666" lon="6.62996">
        <ele>303</ele>
        <time>2011-12-11T09:26:37Z</time>
      </trkpt>
      <trkpt lat="43.54667" lon="6.62993">
        <ele>303</ele>
        <time>2011-12-11T09:26:38Z</time>
      </trkpt>
      <trkpt lat="43.54668" lon="6.62991">
        <ele>303</ele>
        <time>2011-12-11T09:26:39Z</time>
      </trkpt>
      <trkpt lat="43.5467" lon="6.62988">
        <ele>303</ele>
        <time>2011-12-11T09:26:40Z</time>
      </trkpt>
      <trkpt lat="43.54672" lon="6.62985">
        <ele>304</ele>
        <time>2011-12-11T09:26:41Z</time>
      </trkpt>
      <trkpt lat="43.54673" lon="6.62982">
        <ele>304</ele>
        <time>2011-12-11T09:26:42Z</time>
      </trkpt>
      <trkpt lat="43.54674" lon="6.6298">
        <ele>304</ele>
        <time>2011-12-11T09:26:43Z</time>
      </trkpt>
      <trkpt lat="43.54676" lon="6.62978">
        <ele>304</ele>
        <time>2011-12-11T09:26:44Z</time>
      </trkpt>
      <trkpt lat="43.54677" lon="6.62975">
        <ele>304</ele>
        <time>2011-12-11T09:26:45Z</time>
      </trkpt>
      <trkpt lat="43.54678" lon="6.62972">
        <ele>304</ele>
        <time>2011-12-11T09:26:46Z</time>
      </trkpt>
      <trkpt lat="43.54679" lon="6.62969">
        <ele>304</ele>
        <time>2011-12-11T09:26:47Z</time>
      </trkpt>
      <trkpt lat="43.54679" lon="6.62966">
        <ele>304</ele>
        <time>2011-12-11T09:26:48Z</time>
      </trkpt>
      <trkpt lat="43.5468" lon="6.62963">
        <ele>304</ele>
        <time>2011-12-11T09:26:49Z</time>
      </trkpt>
      <trkpt lat="43.5468" lon="6.6296">
        <ele>304</ele>
        <time>2011-12-11T09:26:50Z</time>
      </trkpt>
      <trkpt lat="43.54681" lon="6.62957">
        <ele>304</ele>
        <time>2011-12-11T09:26:51Z</time>
      </trkpt>
      <trkpt lat="43.54681" lon="6.62954">
        <ele>304</ele>
        <time>2011-12-11T09:26:52Z</time>
      </trkpt>
      <trkpt lat="43.54681" lon="6.62951">
        <ele>304</ele>
        <time>2011-12-11T09:26:53Z</time>
      </trkpt>
      <trkpt lat="43.54681" lon="6.62948">
        <ele>304</ele>
        <time>2011-12-11T09:26:54Z</time>
      </trkpt>
      <trkpt lat="43.54681" lon="6.62945">
        <ele>304</ele>
        <time>2011-12-11T09:26:55Z</time>
      </trkpt>
      <trkpt lat="43.54681" lon="6.62942">
        <ele>304</ele>
        <time>2011-12-11T09:26:56Z</time>
      </trkpt>
      <trkpt lat="43.54682" lon="6.62939">
        <ele>304</ele>
        <time>2011-12-11T09:26:57Z</time>
      </trkpt>
      <trkpt lat="43.54682" lon="6.62936">
        <ele>305</ele>
        <time>2011-12-11T09:26:58Z</time>
      </trkpt>
      <trkpt lat="43.54682" lon="6.62933">
        <ele>305</ele>
        <time>2011-12-11T09:26:59Z</time>
      </trkpt>
      <trkpt lat="43.54683" lon="6.6293">
        <ele>305</ele>
        <time>2011-12-11T09:27:00Z</time>
      </trkpt>
      <trkpt lat="43.54683" lon="6.62927">
        <ele>305</ele>
        <time>2011-12-11T09:27:01Z</time>
      </trkpt>
      <trkpt lat="43.54684" lon="6.62924">
        <ele>305</ele>
        <time>2011-12-11T09:27:02Z</time>
      </trkpt>
      <trkpt lat="43.54685" lon="6.62921">
        <ele>305</ele>
        <time>2011-12-11T09:27:03Z</time>
      </trkpt>
      <trkpt lat="43.54686" lon="6.62918">
        <ele>306</ele>
        <time>2011-12-11T09:27:04Z</time>
      </trkpt>
      <trkpt lat="43.54687" lon="6.62916">
        <ele>306</ele>
        <time>2011-12-11T09:27:05Z</time>
      </trkpt>
      <trkpt lat="43.54689" lon="6.62913">
        <ele>306</ele>
        <time>2011-12-11T09:27:06Z</time>
      </trkpt>
      <trkpt lat="43.5469" lon="6.62911">
        <ele>306</ele>
        <time>2011-12-11T09:27:07Z</time>
      </trkpt>
      <trkpt lat="43.54692" lon="6.62908">
        <ele>306</ele>
        <time>2011-12-11T09:27:08Z</time>
      </trkpt>
      <trkpt lat="43.54693" lon="6.62906">
        <ele>306</ele>
        <time>2011-12-11T09:27:09Z</time>
      </trkpt>
      <trkpt lat="43.54695" lon="6.62903">
        <ele>306</ele>
        <time>2011-12-11T09:27:10Z</time>
      </trkpt>
      <trkpt lat="43.54696" lon="6.62901">
        <ele>307</ele>
        <time>2011-12-11T09:27:11Z</time>
      </trkpt>
      <trkpt lat="43.54697" lon="6.62898">
        <ele>307</ele>
        <time>2011-12-11T09:27:12Z</time>
      </trkpt>
      <trkpt lat="43.54699" lon="6.62895">
        <ele>307</ele>
        <time>2011-12-11T09:27:13Z</time>
      </trkpt>
      <trkpt lat="43.547" lon="6.62892">
        <ele>307</ele>
        <time>2011-12-11T09:27:14Z</time>
      </trkpt>
      <trkpt lat="43.54702" lon="6.6289">
        <ele>307</ele>
        <time>2011-12-11T09:27:15Z</time>
      </trkpt>
      <trkpt lat="43.54704" lon="6.62888">
        <ele>307</ele>
        <time>2011-12-11T09:27:16Z</time>
      </trkpt>
      <trkpt lat="43.54706" lon="6.62885">
        <ele>307</ele>
        <time>2011-12-11T09:27:17Z</time>
      </trkpt>
      <trkpt lat="43.54708" lon="6.62883">
        <ele>307</ele>
        <time>2011-12-11T09:27:18Z</time>
      </trkpt>
      <trkpt lat="43.5471" lon="6.62881">
        <ele>307</ele>
        <time>2011-12-11T09:27:19Z</time>
      </trkpt>
      <trkpt lat="43.54712" lon="6.62878">
        <ele>307</ele>
        <time>2011-12-11T09:27:20Z</time>
      </trkpt>
      <trkpt lat="43.54713" lon="6.62876">
        <ele>307</ele>
        <time>2011-12-11T09:27:21Z</time>
      </trkpt>
      <trkpt lat="43.54715" lon="6.62875">
        <ele>307</ele>
        <time>2011-12-11T09:27:22Z</time>
      </trkpt>
      <trkpt lat="43.54717" lon="6.62873">
        <ele>307</ele>
        <time>2011-12-11T09:27:23Z</time>
      </trkpt>
      <trkpt lat="43.54719" lon="6.62871">
        <ele>307</ele>
        <time>2011-12-11T09:27:24Z</time>
      </trkpt>
      <trkpt lat="43.54721" lon="6.62869">
        <ele>307</ele>
        <time>2011-12-11T09:27:25Z</time>
      </trkpt>
      <trkpt lat="43.54723" lon="6.62867">
        <ele>307</ele>
        <time>2011-12-11T09:27:26Z</time>
      </trkpt>
      <trkpt lat="43.54724" lon="6.62864">
        <ele>308</ele>
        <time>2011-12-11T09:27:27Z</time>
      </trkpt>
      <trkpt lat="43.54726" lon="6.62862">
        <ele>307</ele>
        <time>2011-12-11T09:27:28Z</time>
      </trkpt>
      <trkpt lat="43.54728" lon="6.6286">
        <ele>307</ele>
        <time>2011-12-11T09:27:29Z</time>
      </trkpt>
      <trkpt lat="43.54729" lon="6.62858">
        <ele>308</ele>
        <time>2011-12-11T09:27:30Z</time>
      </trkpt>
      <trkpt lat="43.54731" lon="6.62856">
        <ele>308</ele>
        <time>2011-12-11T09:27:31Z</time>
      </trkpt>
      <trkpt lat="43.54732" lon="6.62853">
        <ele>308</ele>
        <time>2011-12-11T09:27:32Z</time>
      </trkpt>
      <trkpt lat="43.54732" lon="6.6285">
        <ele>308</ele>
        <time>2011-12-11T09:27:33Z</time>
      </trkpt>
      <trkpt lat="43.54733" lon="6.62846">
        <ele>308</ele>
        <time>2011-12-11T09:27:34Z</time>
      </trkpt>
      <trkpt lat="43.54733" lon="6.62843">
        <ele>308</ele>
        <time>2011-12-11T09:27:35Z</time>
      </trkpt>
      <trkpt lat="43.54734" lon="6.62841">
        <ele>309</ele>
        <time>2011-12-11T09:27:36Z</time>
      </trkpt>
      <trkpt lat="43.54735" lon="6.62838">
        <ele>309</ele>
        <time>2011-12-11T09:27:37Z</time>
      </trkpt>
      <trkpt lat="43.54736" lon="6.62835">
        <ele>309</ele>
        <time>2011-12-11T09:27:38Z</time>
      </trkpt>
      <trkpt lat="43.54737" lon="6.62832">
        <ele>309</ele>
        <time>2011-12-11T09:27:39Z</time>
      </trkpt>
      <trkpt lat="43.54737" lon="6.62829">
        <ele>309</ele>
        <time>2011-12-11T09:27:40Z</time>
      </trkpt>
      <trkpt lat="43.54737" lon="6.62825">
        <ele>309</ele>
        <time>2011-12-11T09:27:41Z</time>
      </trkpt>
      <trkpt lat="43.54737" lon="6.62822">
        <ele>309</ele>
        <time>2011-12-11T09:27:42Z</time>
      </trkpt>
      <trkpt lat="43.54736" lon="6.6282">
        <ele>309</ele>
        <time>2011-12-11T09:27:43Z</time>
      </trkpt>
      <trkpt lat="43.54736" lon="6.62817">
        <ele>309</ele>
        <time>2011-12-11T09:27:44Z</time>
      </trkpt>
      <trkpt lat="43.54736" lon="6.62815">
        <ele>309</ele>
        <time>2011-12-11T09:27:45Z</time>
      </trkpt>
      <trkpt lat="43.54736" lon="6.62813">
        <ele>310</ele>
        <time>2011-12-11T09:27:46Z</time>
      </trkpt>
      <trkpt lat="43.54736" lon="6.62812">
        <ele>310</ele>
        <time>2011-12-11T09:27:47Z</time>
      </trkpt>
      <trkpt lat="43.54737" lon="6.6281">
        <ele>310</ele>
        <time>2011-12-11T09:27:48Z</time>
      </trkpt>
      <trkpt lat="43.54737" lon="6.62809">
        <ele>310</ele>
        <time>2011-12-11T09:27:49Z</time>
      </trkpt>
      <trkpt lat="43.54737" lon="6.62808">
        <ele>310</ele>
        <time>2011-12-11T09:27:50Z</time>
      </trkpt>
      <trkpt lat="43.54737" lon="6.62806">
        <ele>310</ele>
        <time>2011-12-11T09:27:51Z</time>
      </trkpt>
      <trkpt lat="43.54737" lon="6.62804">
        <ele>309</ele>
        <time>2011-12-11T09:27:52Z</time>
      </trkpt>
      <trkpt lat="43.54737" lon="6.62801">
        <ele>309</ele>
        <time>2011-12-11T09:27:53Z</time>
      </trkpt>
      <trkpt lat="43.54736" lon="6.62798">
        <ele>309</ele>
        <time>2011-12-11T09:27:54Z</time>
      </trkpt>
      <trkpt lat="43.54736" lon="6.62796">
        <ele>309</ele>
        <time>2011-12-11T09:27:55Z</time>
      </trkpt>
      <trkpt lat="43.54737" lon="6.62793">
        <ele>309</ele>
        <time>2011-12-11T09:27:56Z</time>
      </trkpt>
      <trkpt lat="43.54737" lon="6.6279">
        <ele>309</ele>
        <time>2011-12-11T09:27:57Z</time>
      </trkpt>
      <trkpt lat="43.54737" lon="6.62788">
        <ele>310</ele>
        <time>2011-12-11T09:27:58Z</time>
      </trkpt>
      <trkpt lat="43.54737" lon="6.62785">
        <ele>310</ele>
        <time>2011-12-11T09:27:59Z</time>
      </trkpt>
      <trkpt lat="43.54737" lon="6.62782">
        <ele>310</ele>
        <time>2011-12-11T09:28:00Z</time>
      </trkpt>
      <trkpt lat="43.54736" lon="6.62779">
        <ele>310</ele>
        <time>2011-12-11T09:28:01Z</time>
      </trkpt>
      <trkpt lat="43.54736" lon="6.62777">
        <ele>310</ele>
        <time>2011-12-11T09:28:02Z</time>
      </trkpt>
      <trkpt lat="43.54736" lon="6.62774">
        <ele>310</ele>
        <time>2011-12-11T09:28:03Z</time>
      </trkpt>
      <trkpt lat="43.54735" lon="6.62771">
        <ele>311</ele>
        <time>2011-12-11T09:28:04Z</time>
      </trkpt>
      <trkpt lat="43.54735" lon="6.62768">
        <ele>311</ele>
        <time>2011-12-11T09:28:05Z</time>
      </trkpt>
      <trkpt lat="43.54735" lon="6.62765">
        <ele>311</ele>
        <time>2011-12-11T09:28:06Z</time>
      </trkpt>
      <trkpt lat="43.54734" lon="6.62762">
        <ele>312</ele>
        <time>2011-12-11T09:28:07Z</time>
      </trkpt>
      <trkpt lat="43.54733" lon="6.62759">
        <ele>312</ele>
        <time>2011-12-11T09:28:08Z</time>
      </trkpt>
      <trkpt lat="43.54732" lon="6.62756">
        <ele>312</ele>
        <time>2011-12-11T09:28:09Z</time>
      </trkpt>
      <trkpt lat="43.54731" lon="6.62753">
        <ele>312</ele>
        <time>2011-12-11T09:28:10Z</time>
      </trkpt>
      <trkpt lat="43.5473" lon="6.62751">
        <ele>312</ele>
        <time>2011-12-11T09:28:11Z</time>
      </trkpt>
      <trkpt lat="43.54729" lon="6.62748">
        <ele>312</ele>
        <time>2011-12-11T09:28:12Z</time>
      </trkpt>
      <trkpt lat="43.54728" lon="6.62746">
        <ele>312</ele>
        <time>2011-12-11T09:28:13Z</time>
      </trkpt>
      <trkpt lat="43.54728" lon="6.62744">
        <ele>312</ele>
        <time>2011-12-11T09:28:14Z</time>
      </trkpt>
      <trkpt lat="43.54727" lon="6.62741">
        <ele>312</ele>
        <time>2011-12-11T09:28:15Z</time>
      </trkpt>
      <trkpt lat="43.54726" lon="6.62738">
        <ele>313</ele>
        <time>2011-12-11T09:28:16Z</time>
      </trkpt>
      <trkpt lat="43.54725" lon="6.62735">
        <ele>313</ele>
        <time>2011-12-11T09:28:17Z</time>
      </trkpt>
      <trkpt lat="43.54724" lon="6.62732">
        <ele>313</ele>
        <time>2011-12-11T09:28:18Z</time>
      </trkpt>
      <trkpt lat="43.54723" lon="6.62729">
        <ele>313</ele>
        <time>2011-12-11T09:28:19Z</time>
      </trkpt>
      <trkpt lat="43.54722" lon="6.62726">
        <ele>313</ele>
        <time>2011-12-11T09:28:20Z</time>
      </trkpt>
      <trkpt lat="43.54721" lon="6.62723">
        <ele>313</ele>
        <time>2011-12-11T09:28:21Z</time>
      </trkpt>
      <trkpt lat="43.5472" lon="6.62721">
        <ele>313</ele>
        <time>2011-12-11T09:28:22Z</time>
      </trkpt>
      <trkpt lat="43.54719" lon="6.62718">
        <ele>313</ele>
        <time>2011-12-11T09:28:23Z</time>
      </trkpt>
      <trkpt lat="43.54719" lon="6.62715">
        <ele>313</ele>
        <time>2011-12-11T09:28:24Z</time>
      </trkpt>
      <trkpt lat="43.54718" lon="6.62713">
        <ele>314</ele>
        <time>2011-12-11T09:28:25Z</time>
      </trkpt>
      <trkpt lat="43.54717" lon="6.6271">
        <ele>314</ele>
        <time>2011-12-11T09:28:26Z</time>
      </trkpt>
      <trkpt lat="43.54716" lon="6.62707">
        <ele>314</ele>
        <time>2011-12-11T09:28:27Z</time>
      </trkpt>
      <trkpt lat="43.54715" lon="6.62705">
        <ele>314</ele>
        <time>2011-12-11T09:28:28Z</time>
      </trkpt>
      <trkpt lat="43.54714" lon="6.62702">
        <ele>315</ele>
        <time>2011-12-11T09:28:29Z</time>
      </trkpt>
      <trkpt lat="43.54713" lon="6.62699">
        <ele>315</ele>
        <time>2011-12-11T09:28:30Z</time>
      </trkpt>
      <trkpt lat="43.54712" lon="6.62696">
        <ele>314</ele>
        <time>2011-12-11T09:28:31Z</time>
      </trkpt>
      <trkpt lat="43.54711" lon="6.62693">
        <ele>314</ele>
        <time>2011-12-11T09:28:32Z</time>
      </trkpt>
      <trkpt lat="43.5471" lon="6.6269">
        <ele>314</ele>
        <time>2011-12-11T09:28:33Z</time>
      </trkpt>
      <trkpt lat="43.54708" lon="6.62687">
        <ele>315</ele>
        <time>2011-12-11T09:28:34Z</time>
      </trkpt>
      <trkpt lat="43.54707" lon="6.62684">
        <ele>315</ele>
        <time>2011-12-11T09:28:35Z</time>
      </trkpt>
      <trkpt lat="43.54706" lon="6.62681">
        <ele>315</ele>
        <time>2011-12-11T09:28:36Z</time>
      </trkpt>
      <trkpt lat="43.54705" lon="6.62679">
        <ele>315</ele>
        <time>2011-12-11T09:28:37Z</time>
      </trkpt>
      <trkpt lat="43.54703" lon="6.62677">
        <ele>315</ele>
        <time>2011-12-11T09:28:38Z</time>
      </trkpt>
      <trkpt lat="43.54702" lon="6.62674">
        <ele>315</ele>
        <time>2011-12-11T09:28:39Z</time>
      </trkpt>
      <trkpt lat="43.54701" lon="6.62672">
        <ele>316</ele>
        <time>2011-12-11T09:28:40Z</time>
      </trkpt>
      <trkpt lat="43.54699" lon="6.6267">
        <ele>316</ele>
        <time>2011-12-11T09:28:41Z</time>
      </trkpt>
      <trkpt lat="43.54698" lon="6.62668">
        <ele>316</ele>
        <time>2011-12-11T09:28:42Z</time>
      </trkpt>
      <trkpt lat="43.54696" lon="6.62666">
        <ele>316</ele>
        <time>2011-12-11T09:28:43Z</time>
      </trkpt>
      <trkpt lat="43.54695" lon="6.62664">
        <ele>316</ele>
        <time>2011-12-11T09:28:44Z</time>
      </trkpt>
      <trkpt lat="43.54693" lon="6.62662">
        <ele>316</ele>
        <time>2011-12-11T09:28:45Z</time>
      </trkpt>
      <trkpt lat="43.54692" lon="6.6266">
        <ele>316</ele>
        <time>2011-12-11T09:28:46Z</time>
      </trkpt>
      <trkpt lat="43.5469" lon="6.62659">
        <ele>317</ele>
        <time>2011-12-11T09:28:47Z</time>
      </trkpt>
      <trkpt lat="43.54689" lon="6.62658">
        <ele>317</ele>
        <time>2011-12-11T09:28:48Z</time>
      </trkpt>
      <trkpt lat="43.54687" lon="6.62656">
        <ele>317</ele>
        <time>2011-12-11T09:28:49Z</time>
      </trkpt>
      <trkpt lat="43.54685" lon="6.62656">
        <ele>317</ele>
        <time>2011-12-11T09:28:50Z</time>
      </trkpt>
      <trkpt lat="43.54683" lon="6.62656">
        <ele>317</ele>
        <time>2011-12-11T09:28:51Z</time>
      </trkpt>
      <trkpt lat="43.54681" lon="6.62657">
        <ele>317</ele>
        <time>2011-12-11T09:28:52Z</time>
      </trkpt>
      <trkpt lat="43.54679" lon="6.62659">
        <ele>317</ele>
        <time>2011-12-11T09:28:53Z</time>
      </trkpt>
      <trkpt lat="43.54677" lon="6.62661">
        <ele>317</ele>
        <time>2011-12-11T09:28:54Z</time>
      </trkpt>
      <trkpt lat="43.54675" lon="6.62663">
        <ele>318</ele>
        <time>2011-12-11T09:28:55Z</time>
      </trkpt>
      <trkpt lat="43.54674" lon="6.62665">
        <ele>318</ele>
        <time>2011-12-11T09:28:56Z</time>
      </trkpt>
      <trkpt lat="43.54672" lon="6.62667">
        <ele>318</ele>
        <time>2011-12-11T09:28:57Z</time>
      </trkpt>
      <trkpt lat="43.5467" lon="6.6267">
        <ele>318</ele>
        <time>2011-12-11T09:28:58Z</time>
      </trkpt>
      <trkpt lat="43.54668" lon="6.62672">
        <ele>318</ele>
        <time>2011-12-11T09:28:59Z</time>
      </trkpt>
      <trkpt lat="43.54667" lon="6.62674">
        <ele>318</ele>
        <time>2011-12-11T09:29:00Z</time>
      </trkpt>
      <trkpt lat="43.54664" lon="6.62677">
        <ele>318</ele>
        <time>2011-12-11T09:29:01Z</time>
      </trkpt>
      <trkpt lat="43.54662" lon="6.62679">
        <ele>318</ele>
        <time>2011-12-11T09:29:02Z</time>
      </trkpt>
      <trkpt lat="43.54661" lon="6.62681">
        <ele>318</ele>
        <time>2011-12-11T09:29:03Z</time>
      </trkpt>
      <trkpt lat="43.54658" lon="6.62684">
        <ele>319</ele>
        <time>2011-12-11T09:29:04Z</time>
      </trkpt>
      <trkpt lat="43.54656" lon="6.62686">
        <ele>319</ele>
        <time>2011-12-11T09:29:05Z</time>
      </trkpt>
      <trkpt lat="43.54654" lon="6.62688">
        <ele>319</ele>
        <time>2011-12-11T09:29:06Z</time>
      </trkpt>
      <trkpt lat="43.54651" lon="6.62689">
        <ele>319</ele>
        <time>2011-12-11T09:29:07Z</time>
      </trkpt>
      <trkpt lat="43.54649" lon="6.6269">
        <ele>319</ele>
        <time>2011-12-11T09:29:08Z</time>
      </trkpt>
      <trkpt lat="43.54646" lon="6.62691">
        <ele>319</ele>
        <time>2011-12-11T09:29:09Z</time>
      </trkpt>
      <trkpt lat="43.54643" lon="6.62692">
        <ele>319</ele>
        <time>2011-12-11T09:29:10Z</time>
      </trkpt>
      <trkpt lat="43.54641" lon="6.62692">
        <ele>319</ele>
        <time>2011-12-11T09:29:11Z</time>
      </trkpt>
      <trkpt lat="43.54638" lon="6.62692">
        <ele>319</ele>
        <time>2011-12-11T09:29:12Z</time>
      </trkpt>
      <trkpt lat="43.54636" lon="6.62691">
        <ele>319</ele>
        <time>2011-12-11T09:29:13Z</time>
      </trkpt>
      <trkpt lat="43.54634" lon="6.6269">
        <ele>319</ele>
        <time>2011-12-11T09:29:14Z</time>
      </trkpt>
      <trkpt lat="43.54631" lon="6.62688">
        <ele>320</ele>
        <time>2011-12-11T09:29:15Z</time>
      </trkpt>
      <trkpt lat="43.5463" lon="6.62686">
        <ele>320</ele>
        <time>2011-12-11T09:29:16Z</time>
      </trkpt>
      <trkpt lat="43.54628" lon="6.62683">
        <ele>320</ele>
        <time>2011-12-11T09:29:17Z</time>
      </trkpt>
      <trkpt lat="43.54626" lon="6.62681">
        <ele>320</ele>
        <time>2011-12-11T09:29:18Z</time>
      </trkpt>
      <trkpt lat="43.54624" lon="6.62679">
        <ele>320</ele>
        <time>2011-12-11T09:29:19Z</time>
      </trkpt>
      <trkpt lat="43.54622" lon="6.62677">
        <ele>320</ele>
        <time>2011-12-11T09:29:20Z</time>
      </trkpt>
      <trkpt lat="43.5462" lon="6.62676">
        <ele>321</ele>
        <time>2011-12-11T09:29:21Z</time>
      </trkpt>
      <trkpt lat="43.54618" lon="6.62675">
        <ele>321</ele>
        <time>2011-12-11T09:29:22Z</time>
      </trkpt>
      <trkpt lat="43.54616" lon="6.62674">
        <ele>321</ele>
        <time>2011-12-11T09:29:23Z</time>
      </trkpt>
      <trkpt lat="43.54614" lon="6.62673">
        <ele>321</ele>
        <time>2011-12-11T09:29:24Z</time>
      </trkpt>
      <trkpt lat="43.54611" lon="6.62672">
        <ele>321</ele>
        <time>2011-12-11T09:29:25Z</time>
      </trkpt>
      <trkpt lat="43.54609" lon="6.62672">
        <ele>321</ele>
        <time>2011-12-11T09:29:26Z</time>
      </trkpt>
      <trkpt lat="43.54606" lon="6.62673">
        <ele>321</ele>
        <time>2011-12-11T09:29:27Z</time>
      </trkpt>
      <trkpt lat="43.54604" lon="6.62673">
        <ele>321</ele>
        <time>2011-12-11T09:29:28Z</time>
      </trkpt>
      <trkpt lat="43.54601" lon="6.62672">
        <ele>321</ele>
        <time>2011-12-11T09:29:29Z</time>
      </trkpt>
      <trkpt lat="43.54599" lon="6.62672">
        <ele>321</ele>
        <time>2011-12-11T09:29:30Z</time>
      </trkpt>
      <trkpt lat="43.54596" lon="6.62672">
        <ele>322</ele>
        <time>2011-12-11T09:29:31Z</time>
      </trkpt>
      <trkpt lat="43.54594" lon="6.62671">
        <ele>322</ele>
        <time>2011-12-11T09:29:32Z</time>
      </trkpt>
      <trkpt lat="43.54592" lon="6.62671">
        <ele>322</ele>
        <time>2011-12-11T09:29:33Z</time>
      </trkpt>
      <trkpt lat="43.54589" lon="6.6267">
        <ele>322</ele>
        <time>2011-12-11T09:29:34Z</time>
      </trkpt>
      <trkpt lat="43.54587" lon="6.62668">
        <ele>322</ele>
        <time>2011-12-11T09:29:35Z</time>
      </trkpt>
      <trkpt lat="43.54585" lon="6.62667">
        <ele>322</ele>
        <time>2011-12-11T09:29:36Z</time>
      </trkpt>
      <trkpt lat="43.54583" lon="6.62665">
        <ele>322</ele>
        <time>2011-12-11T09:29:37Z</time>
      </trkpt>
      <trkpt lat="43.54581" lon="6.62662">
        <ele>322</ele>
        <time>2011-12-11T09:29:38Z</time>
      </trkpt>
      <trkpt lat="43.54579" lon="6.6266">
        <ele>322</ele>
        <time>2011-12-11T09:29:39Z</time>
      </trkpt>
      <trkpt lat="43.54577" lon="6.62657">
        <ele>322</ele>
        <time>2011-12-11T09:29:40Z</time>
      </trkpt>
      <trkpt lat="43.54575" lon="6.62654">
        <ele>323</ele>
        <time>2011-12-11T09:29:41Z</time>
      </trkpt>
      <trkpt lat="43.54573" lon="6.62652">
        <ele>323</ele>
        <time>2011-12-11T09:29:42Z</time>
      </trkpt>
      <trkpt lat="43.54571" lon="6.6265">
        <ele>323</ele>
        <time>2011-12-11T09:29:43Z</time>
      </trkpt>
      <trkpt lat="43.54569" lon="6.62648">
        <ele>323</ele>
        <time>2011-12-11T09:29:44Z</time>
      </trkpt>
      <trkpt lat="43.54567" lon="6.62647">
        <ele>323</ele>
        <time>2011-12-11T09:29:45Z</time>
      </trkpt>
      <trkpt lat="43.54566" lon="6.62646">
        <ele>323</ele>
        <time>2011-12-11T09:29:46Z</time>
      </trkpt>
      <trkpt lat="43.54564" lon="6.62646">
        <ele>324</ele>
        <time>2011-12-11T09:29:47Z</time>
      </trkpt>
      <trkpt lat="43.54562" lon="6.62644">
        <ele>324</ele>
        <time>2011-12-11T09:29:48Z</time>
      </trkpt>
      <trkpt lat="43.5456" lon="6.62643">
        <ele>324</ele>
        <time>2011-12-11T09:29:49Z</time>
      </trkpt>
      <trkpt lat="43.54558" lon="6.62642">
        <ele>324</ele>
        <time>2011-12-11T09:29:50Z</time>
      </trkpt>
      <trkpt lat="43.54556" lon="6.62641">
        <ele>325</ele>
        <time>2011-12-11T09:29:51Z</time>
      </trkpt>
      <trkpt lat="43.54554" lon="6.6264">
        <ele>325</ele>
        <time>2011-12-11T09:29:52Z</time>
      </trkpt>
      <trkpt lat="43.54552" lon="6.62639">
        <ele>325</ele>
        <time>2011-12-11T09:29:53Z</time>
      </trkpt>
      <trkpt lat="43.5455" lon="6.62639">
        <ele>325</ele>
        <time>2011-12-11T09:29:54Z</time>
      </trkpt>
      <trkpt lat="43.54548" lon="6.62637">
        <ele>325</ele>
        <time>2011-12-11T09:29:55Z</time>
      </trkpt>
      <trkpt lat="43.54545" lon="6.62636">
        <ele>325</ele>
        <time>2011-12-11T09:29:56Z</time>
      </trkpt>
      <trkpt lat="43.54543" lon="6.62635">
        <ele>325</ele>
        <time>2011-12-11T09:29:57Z</time>
      </trkpt>
      <trkpt lat="43.54541" lon="6.62634">
        <ele>326</ele>
        <time>2011-12-11T09:29:58Z</time>
      </trkpt>
      <trkpt lat="43.54539" lon="6.62633">
        <ele>326</ele>
        <time>2011-12-11T09:29:59Z</time>
      </trkpt>
      <trkpt lat="43.54537" lon="6.62632">
        <ele>326</ele>
        <time>2011-12-11T09:30:00Z</time>
      </trkpt>
      <trkpt lat="43.54535" lon="6.6263">
        <ele>326</ele>
        <time>2011-12-11T09:30:01Z</time>
      </trkpt>
      <trkpt lat="43.54533" lon="6.62628">
        <ele>326</ele>
        <time>2011-12-11T09:30:02Z</time>
      </trkpt>
      <trkpt lat="43.54531" lon="6.62626">
        <ele>326</ele>
        <time>2011-12-11T09:30:03Z</time>
      </trkpt>
      <trkpt lat="43.5453" lon="6.62623">
        <ele>326</ele>
        <time>2011-12-11T09:30:04Z</time>
      </trkpt>
      <trkpt lat="43.54529" lon="6.6262">
        <ele>326</ele>
        <time>2011-12-11T09:30:05Z</time>
      </trkpt>
      <trkpt lat="43.54528" lon="6.62617">
        <ele>326</ele>
        <time>2011-12-11T09:30:06Z</time>
      </trkpt>
      <trkpt lat="43.54528" lon="6.62613">
        <ele>326</ele>
        <time>2011-12-11T09:30:07Z</time>
      </trkpt>
      <trkpt lat="43.54528" lon="6.62609">
        <ele>327</ele>
        <time>2011-12-11T09:30:08Z</time>
      </trkpt>
      <trkpt lat="43.54528" lon="6.62605">
        <ele>327</ele>
        <time>2011-12-11T09:30:09Z</time>
      </trkpt>
      <trkpt lat="43.54529" lon="6.62601">
        <ele>327</ele>
        <time>2011-12-11T09:30:10Z</time>
      </trkpt>
      <trkpt lat="43.54529" lon="6.62597">
        <ele>327</ele>
        <time>2011-12-11T09:30:11Z</time>
      </trkpt>
      <trkpt lat="43.5453" lon="6.62594">
        <ele>327</ele>
        <time>2011-12-11T09:30:12Z</time>
      </trkpt>
      <trkpt lat="43.54531" lon="6.6259">
        <ele>327</ele>
        <time>2011-12-11T09:30:13Z</time>
      </trkpt>
      <trkpt lat="43.54532" lon="6.62586">
        <ele>327</ele>
        <time>2011-12-11T09:30:14Z</time>
      </trkpt>
      <trkpt lat="43.54533" lon="6.62582">
        <ele>327</ele>
        <time>2011-12-11T09:30:15Z</time>
      </trkpt>
      <trkpt lat="43.54534" lon="6.62578">
        <ele>327</ele>
        <time>2011-12-11T09:30:16Z</time>
      </trkpt>
      <trkpt lat="43.54535" lon="6.62574">
        <ele>327</ele>
        <time>2011-12-11T09:30:17Z</time>
      </trkpt>
      <trkpt lat="43.54535" lon="6.6257">
        <ele>327</ele>
        <time>2011-12-11T09:30:18Z</time>
      </trkpt>
      <trkpt lat="43.54536" lon="6.62566">
        <ele>327</ele>
        <time>2011-12-11T09:30:19Z</time>
      </trkpt>
      <trkpt lat="43.54537" lon="6.62562">
        <ele>328</ele>
        <time>2011-12-11T09:30:20Z</time>
      </trkpt>
      <trkpt lat="43.54538" lon="6.62559">
        <ele>328</ele>
        <time>2011-12-11T09:30:21Z</time>
      </trkpt>
      <trkpt lat="43.54538" lon="6.62556">
        <ele>328</ele>
        <time>2011-12-11T09:30:22Z</time>
      </trkpt>
      <trkpt lat="43.54538" lon="6.62552">
        <ele>328</ele>
        <time>2011-12-11T09:30:23Z</time>
      </trkpt>
      <trkpt lat="43.54538" lon="6.62549">
        <ele>328</ele>
        <time>2011-12-11T09:30:24Z</time>
      </trkpt>
      <trkpt lat="43.54538" lon="6.62546">
        <ele>328</ele>
        <time>2011-12-11T09:30:25Z</time>
      </trkpt>
      <trkpt lat="43.54537" lon="6.62543">
        <ele>328</ele>
        <time>2011-12-11T09:30:26Z</time>
      </trkpt>
      <trkpt lat="43.54536" lon="6.62539">
        <ele>328</ele>
        <time>2011-12-11T09:30:27Z</time>
      </trkpt>
      <trkpt lat="43.54535" lon="6.62536">
        <ele>329</ele>
        <time>2011-12-11T09:30:28Z</time>
      </trkpt>
      <trkpt lat="43.54534" lon="6.62533">
        <ele>329</ele>
        <time>2011-12-11T09:30:29Z</time>
      </trkpt>
      <trkpt lat="43.54533" lon="6.62531">
        <ele>329</ele>
        <time>2011-12-11T09:30:30Z</time>
      </trkpt>
      <trkpt lat="43.54533" lon="6.62528">
        <ele>329</ele>
        <time>2011-12-11T09:30:31Z</time>
      </trkpt>
      <trkpt lat="43.54532" lon="6.62525">
        <ele>329</ele>
        <time>2011-12-11T09:30:32Z</time>
      </trkpt>
      <trkpt lat="43.54531" lon="6.62523">
        <ele>329</ele>
        <time>2011-12-11T09:30:33Z</time>
      </trkpt>
      <trkpt lat="43.5453" lon="6.6252">
        <ele>329</ele>
        <time>2011-12-11T09:30:34Z</time>
      </trkpt>
      <trkpt lat="43.54529" lon="6.62518">
        <ele>330</ele>
        <time>2011-12-11T09:30:35Z</time>
      </trkpt>
      <trkpt lat="43.54528" lon="6.62515">
        <ele>330</ele>
        <time>2011-12-11T09:30:36Z</time>
      </trkpt>
      <trkpt lat="43.54527" lon="6.62511">
        <ele>330</ele>
        <time>2011-12-11T09:30:37Z</time>
      </trkpt>
      <trkpt lat="43.54526" lon="6.62508">
        <ele>330</ele>
        <time>2011-12-11T09:30:38Z</time>
      </trkpt>
      <trkpt lat="43.54525" lon="6.62505">
        <ele>330</ele>
        <time>2011-12-11T09:30:39Z</time>
      </trkpt>
      <trkpt lat="43.54524" lon="6.62502">
        <ele>330</ele>
        <time>2011-12-11T09:30:40Z</time>
      </trkpt>
      <trkpt lat="43.54523" lon="6.62499">
        <ele>331</ele>
        <time>2011-12-11T09:30:41Z</time>
      </trkpt>
      <trkpt lat="43.54522" lon="6.62495">
        <ele>331</ele>
        <time>2011-12-11T09:30:42Z</time>
      </trkpt>
      <trkpt lat="43.54522" lon="6.62492">
        <ele>331</ele>
        <time>2011-12-11T09:30:43Z</time>
      </trkpt>
      <trkpt lat="43.54521" lon="6.62488">
        <ele>331</ele>
        <time>2011-12-11T09:30:44Z</time>
      </trkpt>
      <trkpt lat="43.5452" lon="6.62485">
        <ele>331</ele>
        <time>2011-12-11T09:30:45Z</time>
      </trkpt>
      <trkpt lat="43.5452" lon="6.62482">
        <ele>331</ele>
        <time>2011-12-11T09:30:46Z</time>
      </trkpt>
      <trkpt lat="43.54519" lon="6.62479">
        <ele>331</ele>
        <time>2011-12-11T09:30:47Z</time>
      </trkpt>
      <trkpt lat="43.54518" lon="6.62476">
        <ele>332</ele>
        <time>2011-12-11T09:30:48Z</time>
      </trkpt>
      <trkpt lat="43.54518" lon="6.62473">
        <ele>332</ele>
        <time>2011-12-11T09:30:49Z</time>
      </trkpt>
      <trkpt lat="43.54517" lon="6.62471">
        <ele>332</ele>
        <time>2011-12-11T09:30:50Z</time>
      </trkpt>
      <trkpt lat="43.54517" lon="6.62468">
        <ele>332</ele>
        <time>2011-12-11T09:30:51Z</time>
      </trkpt>
      <trkpt lat="43.54516" lon="6.62466">
        <ele>332</ele>
        <time>2011-12-11T09:30:52Z</time>
      </trkpt>
      <trkpt lat="43.54515" lon="6.62463">
        <ele>332</ele>
        <time>2011-12-11T09:30:53Z</time>
      </trkpt>
      <trkpt lat="43.54513" lon="6.62461">
        <ele>332</ele>
        <time>2011-12-11T09:30:54Z</time>
      </trkpt>
      <trkpt lat="43.54511" lon="6.6246">
        <ele>332</ele>
        <time>2011-12-11T09:30:55Z</time>
      </trkpt>
      <trkpt lat="43.5451" lon="6.62458">
        <ele>332</ele>
        <time>2011-12-11T09:30:56Z</time>
      </trkpt>
      <trkpt lat="43.54507" lon="6.62457">
        <ele>332</ele>
        <time>2011-12-11T09:30:57Z</time>
      </trkpt>
      <trkpt lat="43.54505" lon="6.62456">
        <ele>333</ele>
        <time>2011-12-11T09:30:58Z</time>
      </trkpt>
      <trkpt lat="43.54503" lon="6.62455">
        <ele>333</ele>
        <time>2011-12-11T09:30:59Z</time>
      </trkpt>
      <trkpt lat="43.54501" lon="6.62455">
        <ele>333</ele>
        <time>2011-12-11T09:31:00Z</time>
      </trkpt>
      <trkpt lat="43.54499" lon="6.62454">
        <ele>333</ele>
        <time>2011-12-11T09:31:01Z</time>
      </trkpt>
      <trkpt lat="43.54497" lon="6.62454">
        <ele>333</ele>
        <time>2011-12-11T09:31:02Z</time>
      </trkpt>
      <trkpt lat="43.54495" lon="6.62454">
        <ele>333</ele>
        <time>2011-12-11T09:31:03Z</time>
      </trkpt>
      <trkpt lat="43.54493" lon="6.62454">
        <ele>333</ele>
        <time>2011-12-11T09:31:04Z</time>
      </trkpt>
      <trkpt lat="43.54491" lon="6.62455">
        <ele>333</ele>
        <time>2011-12-11T09:31:05Z</time>
      </trkpt>
      <trkpt lat="43.54489" lon="6.62455">
        <ele>333</ele>
        <time>2011-12-11T09:31:06Z</time>
      </trkpt>
      <trkpt lat="43.54487" lon="6.62457">
        <ele>333</ele>
        <time>2011-12-11T09:31:07Z</time>
      </trkpt>
      <trkpt lat="43.54485" lon="6.62458">
        <ele>334</ele>
        <time>2011-12-11T09:31:08Z</time>
      </trkpt>
      <trkpt lat="43.54483" lon="6.62459">
        <ele>334</ele>
        <time>2011-12-11T09:31:09Z</time>
      </trkpt>
      <trkpt lat="43.54482" lon="6.62461">
        <ele>334</ele>
        <time>2011-12-11T09:31:10Z</time>
      </trkpt>
      <trkpt lat="43.5448" lon="6.62463">
        <ele>334</ele>
        <time>2011-12-11T09:31:11Z</time>
      </trkpt>
      <trkpt lat="43.54479" lon="6.62465">
        <ele>335</ele>
        <time>2011-12-11T09:31:12Z</time>
      </trkpt>
      <trkpt lat="43.54477" lon="6.62467">
        <ele>335</ele>
        <time>2011-12-11T09:31:13Z</time>
      </trkpt>
      <trkpt lat="43.54476" lon="6.62469">
        <ele>335</ele>
        <time>2011-12-11T09:31:14Z</time>
      </trkpt>
      <trkpt lat="43.54475" lon="6.62471">
        <ele>335</ele>
        <time>2011-12-11T09:31:15Z</time>
      </trkpt>
      <trkpt lat="43.54474" lon="6.62473">
        <ele>336</ele>
        <time>2011-12-11T09:31:16Z</time>
      </trkpt>
      <trkpt lat="43.54473" lon="6.62476">
        <ele>336</ele>
        <time>2011-12-11T09:31:17Z</time>
      </trkpt>
      <trkpt lat="43.54472" lon="6.62478">
        <ele>336</ele>
        <time>2011-12-11T09:31:18Z</time>
      </trkpt>
      <trkpt lat="43.54471" lon="6.6248">
        <ele>337</ele>
        <time>2011-12-11T09:31:19Z</time>
      </trkpt>
      <trkpt lat="43.5447" lon="6.62482">
        <ele>337</ele>
        <time>2011-12-11T09:31:20Z</time>
      </trkpt>
      <trkpt lat="43.54468" lon="6.62485">
        <ele>337</ele>
        <time>2011-12-11T09:31:21Z</time>
      </trkpt>
      <trkpt lat="43.54467" lon="6.62487">
        <ele>337</ele>
        <time>2011-12-11T09:31:22Z</time>
      </trkpt>
      <trkpt lat="43.54466" lon="6.6249">
        <ele>337</ele>
        <time>2011-12-11T09:31:23Z</time>
      </trkpt>
      <trkpt lat="43.54465" lon="6.62492">
        <ele>338</ele>
        <time>2011-12-11T09:31:24Z</time>
      </trkpt>
      <trkpt lat="43.54463" lon="6.62495">
        <ele>338</ele>
        <time>2011-12-11T09:31:25Z</time>
      </trkpt>
      <trkpt lat="43.54462" lon="6.62497">
        <ele>338</ele>
        <time>2011-12-11T09:31:26Z</time>
      </trkpt>
      <trkpt lat="43.54461" lon="6.625">
        <ele>338</ele>
        <time>2011-12-11T09:31:27Z</time>
      </trkpt>
      <trkpt lat="43.5446" lon="6.62503">
        <ele>338</ele>
        <time>2011-12-11T09:31:28Z</time>
      </trkpt>
      <trkpt lat="43.54459" lon="6.62505">
        <ele>339</ele>
        <time>2011-12-11T09:31:29Z</time>
      </trkpt>
      <trkpt lat="43.54458" lon="6.62508">
        <ele>339</ele>
        <time>2011-12-11T09:31:30Z</time>
      </trkpt>
      <trkpt lat="43.54457" lon="6.6251">
        <ele>339</ele>
        <time>2011-12-11T09:31:31Z</time>
      </trkpt>
      <trkpt lat="43.54456" lon="6.62513">
        <ele>339</ele>
        <time>2011-12-11T09:31:32Z</time>
      </trkpt>
      <trkpt lat="43.54455" lon="6.62516">
        <ele>340</ele>
        <time>2011-12-11T09:31:33Z</time>
      </trkpt>
      <trkpt lat="43.54454" lon="6.62518">
        <ele>340</ele>
        <time>2011-12-11T09:31:34Z</time>
      </trkpt>
      <trkpt lat="43.54453" lon="6.62521">
        <ele>340</ele>
        <time>2011-12-11T09:31:35Z</time>
      </trkpt>
      <trkpt lat="43.54452" lon="6.62524">
        <ele>340</ele>
        <time>2011-12-11T09:31:36Z</time>
      </trkpt>
      <trkpt lat="43.54452" lon="6.62526">
        <ele>341</ele>
        <time>2011-12-11T09:31:37Z</time>
      </trkpt>
      <trkpt lat="43.54451" lon="6.62528">
        <ele>341</ele>
        <time>2011-12-11T09:31:38Z</time>
      </trkpt>
      <trkpt lat="43.5445" lon="6.62531">
        <ele>341</ele>
        <time>2011-12-11T09:31:39Z</time>
      </trkpt>
      <trkpt lat="43.54449" lon="6.62533">
        <ele>341</ele>
        <time>2011-12-11T09:31:40Z</time>
      </trkpt>
      <trkpt lat="43.54448" lon="6.62536">
        <ele>341</ele>
        <time>2011-12-11T09:31:41Z</time>
      </trkpt>
      <trkpt lat="43.54448" lon="6.62539">
        <ele>341</ele>
        <time>2011-12-11T09:31:42Z</time>
      </trkpt>
      <trkpt lat="43.54447" lon="6.62542">
        <ele>341</ele>
        <time>2011-12-11T09:31:43Z</time>
      </trkpt>
      <trkpt lat="43.54446" lon="6.62545">
        <ele>341</ele>
        <time>2011-12-11T09:31:44Z</time>
      </trkpt>
      <trkpt lat="43.54446" lon="6.62547">
        <ele>341</ele>
        <time>2011-12-11T09:31:45Z</time>
      </trkpt>
      <trkpt lat="43.54445" lon="6.62549">
        <ele>342</ele>
        <time>2011-12-11T09:31:46Z</time>
      </trkpt>
      <trkpt lat="43.54445" lon="6.62552">
        <ele>342</ele>
        <time>2011-12-11T09:31:47Z</time>
      </trkpt>
      <trkpt lat="43.54444" lon="6.62554">
        <ele>342</ele>
        <time>2011-12-11T09:31:48Z</time>
      </trkpt>
      <trkpt lat="43.54443" lon="6.62556">
        <ele>342</ele>
        <time>2011-12-11T09:31:49Z</time>
      </trkpt>
      <trkpt lat="43.54442" lon="6.62559">
        <ele>342</ele>
        <time>2011-12-11T09:31:50Z</time>
      </trkpt>
      <trkpt lat="43.54441" lon="6.62561">
        <ele>343</ele>
        <time>2011-12-11T09:31:51Z</time>
      </trkpt>
      <trkpt lat="43.5444" lon="6.62564">
        <ele>343</ele>
        <time>2011-12-11T09:31:52Z</time>
      </trkpt>
      <trkpt lat="43.54439" lon="6.62567">
        <ele>343</ele>
        <time>2011-12-11T09:31:53Z</time>
      </trkpt>
      <trkpt lat="43.54438" lon="6.6257">
        <ele>343</ele>
        <time>2011-12-11T09:31:54Z</time>
      </trkpt>
      <trkpt lat="43.54437" lon="6.62573">
        <ele>343</ele>
        <time>2011-12-11T09:31:55Z</time>
      </trkpt>
      <trkpt lat="43.54435" lon="6.62575">
        <ele>343</ele>
        <time>2011-12-11T09:31:56Z</time>
      </trkpt>
      <trkpt lat="43.54434" lon="6.62578">
        <ele>343</ele>
        <time>2011-12-11T09:31:57Z</time>
      </trkpt>
      <trkpt lat="43.54432" lon="6.6258">
        <ele>344</ele>
        <time>2011-12-11T09:31:58Z</time>
      </trkpt>
      <trkpt lat="43.5443" lon="6.62583">
        <ele>344</ele>
        <time>2011-12-11T09:31:59Z</time>
      </trkpt>
      <trkpt lat="43.54429" lon="6.62585">
        <ele>344</ele>
        <time>2011-12-11T09:32:00Z</time>
      </trkpt>
      <trkpt lat="43.54427" lon="6.62588">
        <ele>344</ele>
        <time>2011-12-11T09:32:01Z</time>
      </trkpt>
      <trkpt lat="43.54425" lon="6.6259">
        <ele>344</ele>
        <time>2011-12-11T09:32:02Z</time>
      </trkpt>
      <trkpt lat="43.54423" lon="6.62592">
        <ele>344</ele>
        <time>2011-12-11T09:32:03Z</time>
      </trkpt>
      <trkpt lat="43.54421" lon="6.62595">
        <ele>345</ele>
        <time>2011-12-11T09:32:04Z</time>
      </trkpt>
      <trkpt lat="43.5442" lon="6.62597">
        <ele>345</ele>
        <time>2011-12-11T09:32:05Z</time>
      </trkpt>
      <trkpt lat="43.54418" lon="6.62599">
        <ele>345</ele>
        <time>2011-12-11T09:32:06Z</time>
      </trkpt>
      <trkpt lat="43.54416" lon="6.62602">
        <ele>345</ele>
        <time>2011-12-11T09:32:07Z</time>
      </trkpt>
      <trkpt lat="43.54414" lon="6.62604">
        <ele>345</ele>
        <time>2011-12-11T09:32:08Z</time>
      </trkpt>
      <trkpt lat="43.54413" lon="6.62607">
        <ele>346</ele>
        <time>2011-12-11T09:32:09Z</time>
      </trkpt>
      <trkpt lat="43.54411" lon="6.62609">
        <ele>346</ele>
        <time>2011-12-11T09:32:10Z</time>
      </trkpt>
      <trkpt lat="43.54409" lon="6.62612">
        <ele>346</ele>
        <time>2011-12-11T09:32:11Z</time>
      </trkpt>
      <trkpt lat="43.54407" lon="6.62614">
        <ele>346</ele>
        <time>2011-12-11T09:32:12Z</time>
      </trkpt>
      <trkpt lat="43.54405" lon="6.62617">
        <ele>346</ele>
        <time>2011-12-11T09:32:13Z</time>
      </trkpt>
      <trkpt lat="43.54403" lon="6.62619">
        <ele>346</ele>
        <time>2011-12-11T09:32:14Z</time>
      </trkpt>
      <trkpt lat="43.54402" lon="6.62622">
        <ele>346</ele>
        <time>2011-12-11T09:32:15Z</time>
      </trkpt>
      <trkpt lat="43.544" lon="6.62625">
        <ele>347</ele>
        <time>2011-12-11T09:32:16Z</time>
      </trkpt>
      <trkpt lat="43.54398" lon="6.62627">
        <ele>347</ele>
        <time>2011-12-11T09:32:17Z</time>
      </trkpt>
      <trkpt lat="43.54396" lon="6.62629">
        <ele>347</ele>
        <time>2011-12-11T09:32:18Z</time>
      </trkpt>
      <trkpt lat="43.54394" lon="6.62632">
        <ele>347</ele>
        <time>2011-12-11T09:32:19Z</time>
      </trkpt>
      <trkpt lat="43.54393" lon="6.62634">
        <ele>347</ele>
        <time>2011-12-11T09:32:20Z</time>
      </trkpt>
      <trkpt lat="43.54391" lon="6.62636">
        <ele>347</ele>
        <time>2011-12-11T09:32:21Z</time>
      </trkpt>
      <trkpt lat="43.54389" lon="6.62639">
        <ele>348</ele>
        <time>2011-12-11T09:32:22Z</time>
      </trkpt>
      <trkpt lat="43.54388" lon="6.62641">
        <ele>348</ele>
        <time>2011-12-11T09:32:23Z</time>
      </trkpt>
      <trkpt lat="43.54387" lon="6.62644">
        <ele>348</ele>
        <time>2011-12-11T09:32:24Z</time>
      </trkpt>
      <trkpt lat="43.54385" lon="6.62646">
        <ele>348</ele>
        <time>2011-12-11T09:32:25Z</time>
      </trkpt>
      <trkpt lat="43.54383" lon="6.62648">
        <ele>349</ele>
        <time>2011-12-11T09:32:26Z</time>
      </trkpt>
      <trkpt lat="43.54382" lon="6.6265">
        <ele>349</ele>
        <time>2011-12-11T09:32:27Z</time>
      </trkpt>
      <trkpt lat="43.5438" lon="6.62653">
        <ele>349</ele>
        <time>2011-12-11T09:32:28Z</time>
      </trkpt>
      <trkpt lat="43.54379" lon="6.62655">
        <ele>349</ele>
        <time>2011-12-11T09:32:29Z</time>
      </trkpt>
      <trkpt lat="43.54377" lon="6.62657">
        <ele>349</ele>
        <time>2011-12-11T09:32:30Z</time>
      </trkpt>
      <trkpt lat="43.54376" lon="6.6266">
        <ele>349</ele>
        <time>2011-12-11T09:32:31Z</time>
      </trkpt>
      <trkpt lat="43.54375" lon="6.62663">
        <ele>350</ele>
        <time>2011-12-11T09:32:32Z</time>
      </trkpt>
      <trkpt lat="43.54374" lon="6.62666">
        <ele>350</ele>
        <time>2011-12-11T09:32:33Z</time>
      </trkpt>
      <trkpt lat="43.54374" lon="6.62669">
        <ele>350</ele>
        <time>2011-12-11T09:32:34Z</time>
      </trkpt>
      <trkpt lat="43.54374" lon="6.62672">
        <ele>350</ele>
        <time>2011-12-11T09:32:35Z</time>
      </trkpt>
      <trkpt lat="43.54373" lon="6.62675">
        <ele>350</ele>
        <time>2011-12-11T09:32:36Z</time>
      </trkpt>
      <trkpt lat="43.54372" lon="6.62678">
        <ele>350</ele>
        <time>2011-12-11T09:32:37Z</time>
      </trkpt>
      <trkpt lat="43.54372" lon="6.62681">
        <ele>350</ele>
        <time>2011-12-11T09:32:38Z</time>
      </trkpt>
      <trkpt lat="43.54371" lon="6.62685">
        <ele>350</ele>
        <time>2011-12-11T09:32:39Z</time>
      </trkpt>
      <trkpt lat="43.54371" lon="6.62688">
        <ele>350</ele>
        <time>2011-12-11T09:32:40Z</time>
      </trkpt>
      <trkpt lat="43.5437" lon="6.62691">
        <ele>350</ele>
        <time>2011-12-11T09:32:41Z</time>
      </trkpt>
      <trkpt lat="43.5437" lon="6.62694">
        <ele>350</ele>
        <time>2011-12-11T09:32:42Z</time>
      </trkpt>
      <trkpt lat="43.54369" lon="6.62698">
        <ele>350</ele>
        <time>2011-12-11T09:32:43Z</time>
      </trkpt>
      <trkpt lat="43.54369" lon="6.62701">
        <ele>351</ele>
        <time>2011-12-11T09:32:44Z</time>
      </trkpt>
      <trkpt lat="43.54369" lon="6.62704">
        <ele>351</ele>
        <time>2011-12-11T09:32:45Z</time>
      </trkpt>
      <trkpt lat="43.54368" lon="6.62707">
        <ele>351</ele>
        <time>2011-12-11T09:32:46Z</time>
      </trkpt>
      <trkpt lat="43.54368" lon="6.62711">
        <ele>351</ele>
        <time>2011-12-11T09:32:47Z</time>
      </trkpt>
      <trkpt lat="43.54368" lon="6.62714">
        <ele>351</ele>
        <time>2011-12-11T09:32:48Z</time>
      </trkpt>
      <trkpt lat="43.54368" lon="6.62717">
        <ele>351</ele>
        <time>2011-12-11T09:32:49Z</time>
      </trkpt>
      <trkpt lat="43.54368" lon="6.62721">
        <ele>351</ele>
        <time>2011-12-11T09:32:50Z</time>
      </trkpt>
      <trkpt lat="43.54367" lon="6.62724">
        <ele>351</ele>
        <time>2011-12-11T09:32:51Z</time>
      </trkpt>
      <trkpt lat="43.54367" lon="6.62728">
        <ele>352</ele>
        <time>2011-12-11T09:32:52Z</time>
      </trkpt>
      <trkpt lat="43.54367" lon="6.62732">
        <ele>352</ele>
        <time>2011-12-11T09:32:53Z</time>
      </trkpt>
      <trkpt lat="43.54367" lon="6.62735">
        <ele>352</ele>
        <time>2011-12-11T09:32:54Z</time>
      </trkpt>
      <trkpt lat="43.54366" lon="6.62739">
        <ele>352</ele>
        <time>2011-12-11T09:32:55Z</time>
      </trkpt>
      <trkpt lat="43.54366" lon="6.62742">
        <ele>352</ele>
        <time>2011-12-11T09:32:56Z</time>
      </trkpt>
      <trkpt lat="43.54365" lon="6.62746">
        <ele>352</ele>
        <time>2011-12-11T09:32:57Z</time>
      </trkpt>
      <trkpt lat="43.54365" lon="6.62749">
        <ele>352</ele>
        <time>2011-12-11T09:32:58Z</time>
      </trkpt>
      <trkpt lat="43.54365" lon="6.62753">
        <ele>352</ele>
        <time>2011-12-11T09:32:59Z</time>
      </trkpt>
      <trkpt lat="43.54365" lon="6.62757">
        <ele>352</ele>
        <time>2011-12-11T09:33:00Z</time>
      </trkpt>
      <trkpt lat="43.54364" lon="6.62761">
        <ele>352</ele>
        <time>2011-12-11T09:33:01Z</time>
      </trkpt>
      <trkpt lat="43.54364" lon="6.62765">
        <ele>353</ele>
        <time>2011-12-11T09:33:02Z</time>
      </trkpt>
      <trkpt lat="43.54364" lon="6.62768">
        <ele>353</ele>
        <time>2011-12-11T09:33:03Z</time>
      </trkpt>
      <trkpt lat="43.54364" lon="6.62771">
        <ele>353</ele>
        <time>2011-12-11T09:33:04Z</time>
      </trkpt>
      <trkpt lat="43.54364" lon="6.62775">
        <ele>353</ele>
        <time>2011-12-11T09:33:05Z</time>
      </trkpt>
      <trkpt lat="43.54363" lon="6.62778">
        <ele>353</ele>
        <time>2011-12-11T09:33:06Z</time>
      </trkpt>
      <trkpt lat="43.54363" lon="6.62781">
        <ele>353</ele>
        <time>2011-12-11T09:33:07Z</time>
      </trkpt>
      <trkpt lat="43.54363" lon="6.62784">
        <ele>354</ele>
        <time>2011-12-11T09:33:08Z</time>
      </trkpt>
      <trkpt lat="43.54362" lon="6.62787">
        <ele>354</ele>
        <time>2011-12-11T09:33:09Z</time>
      </trkpt>
      <trkpt lat="43.54362" lon="6.6279">
        <ele>354</ele>
        <time>2011-12-11T09:33:10Z</time>
      </trkpt>
      <trkpt lat="43.54362" lon="6.62794">
        <ele>354</ele>
        <time>2011-12-11T09:33:11Z</time>
      </trkpt>
      <trkpt lat="43.54362" lon="6.62797">
        <ele>354</ele>
        <time>2011-12-11T09:33:12Z</time>
      </trkpt>
      <trkpt lat="43.54362" lon="6.628">
        <ele>354</ele>
        <time>2011-12-11T09:33:13Z</time>
      </trkpt>
      <trkpt lat="43.54361" lon="6.62804">
        <ele>354</ele>
        <time>2011-12-11T09:33:14Z</time>
      </trkpt>
      <trkpt lat="43.54361" lon="6.62807">
        <ele>355</ele>
        <time>2011-12-11T09:33:15Z</time>
      </trkpt>
      <trkpt lat="43.54361" lon="6.62811">
        <ele>355</ele>
        <time>2011-12-11T09:33:16Z</time>
      </trkpt>
      <trkpt lat="43.54361" lon="6.62814">
        <ele>355</ele>
        <time>2011-12-11T09:33:17Z</time>
      </trkpt>
      <trkpt lat="43.54361" lon="6.62818">
        <ele>355</ele>
        <time>2011-12-11T09:33:18Z</time>
      </trkpt>
      <trkpt lat="43.54361" lon="6.62821">
        <ele>356</ele>
        <time>2011-12-11T09:33:19Z</time>
      </trkpt>
      <trkpt lat="43.5436" lon="6.62825">
        <ele>356</ele>
        <time>2011-12-11T09:33:20Z</time>
      </trkpt>
      <trkpt lat="43.5436" lon="6.62828">
        <ele>356</ele>
        <time>2011-12-11T09:33:21Z</time>
      </trkpt>
      <trkpt lat="43.5436" lon="6.62832">
        <ele>356</ele>
        <time>2011-12-11T09:33:22Z</time>
      </trkpt>
      <trkpt lat="43.54359" lon="6.62836">
        <ele>356</ele>
        <time>2011-12-11T09:33:23Z</time>
      </trkpt>
      <trkpt lat="43.54359" lon="6.6284">
        <ele>356</ele>
        <time>2011-12-11T09:33:24Z</time>
      </trkpt>
      <trkpt lat="43.54358" lon="6.62843">
        <ele>357</ele>
        <time>2011-12-11T09:33:25Z</time>
      </trkpt>
      <trkpt lat="43.54357" lon="6.62846">
        <ele>357</ele>
        <time>2011-12-11T09:33:26Z</time>
      </trkpt>
      <trkpt lat="43.54356" lon="6.6285">
        <ele>357</ele>
        <time>2011-12-11T09:33:27Z</time>
      </trkpt>
      <trkpt lat="43.54355" lon="6.62853">
        <ele>357</ele>
        <time>2011-12-11T09:33:28Z</time>
      </trkpt>
      <trkpt lat="43.54354" lon="6.62856">
        <ele>357</ele>
        <time>2011-12-11T09:33:29Z</time>
      </trkpt>
      <trkpt lat="43.54353" lon="6.62859">
        <ele>357</ele>
        <time>2011-12-11T09:33:30Z</time>
      </trkpt>
      <trkpt lat="43.54352" lon="6.62862">
        <ele>358</ele>
        <time>2011-12-11T09:33:31Z</time>
      </trkpt>
      <trkpt lat="43.54351" lon="6.62865">
        <ele>358</ele>
        <time>2011-12-11T09:33:32Z</time>
      </trkpt>
      <trkpt lat="43.5435" lon="6.62867">
        <ele>359</ele>
        <time>2011-12-11T09:33:33Z</time>
      </trkpt>
      <trkpt lat="43.54349" lon="6.62869">
        <ele>359</ele>
        <time>2011-12-11T09:33:34Z</time>
      </trkpt>
      <trkpt lat="43.54348" lon="6.62872">
        <ele>359</ele>
        <time>2011-12-11T09:33:35Z</time>
      </trkpt>
      <trkpt lat="43.54347" lon="6.62874">
        <ele>359</ele>
        <time>2011-12-11T09:33:36Z</time>
      </trkpt>
      <trkpt lat="43.54346" lon="6.62877">
        <ele>359</ele>
        <time>2011-12-11T09:33:37Z</time>
      </trkpt>
      <trkpt lat="43.54345" lon="6.6288">
        <ele>360</ele>
        <time>2011-12-11T09:33:38Z</time>
      </trkpt>
      <trkpt lat="43.54344" lon="6.62883">
        <ele>360</ele>
        <time>2011-12-11T09:33:39Z</time>
      </trkpt>
      <trkpt lat="43.54343" lon="6.62885">
        <ele>360</ele>
        <time>2011-12-11T09:33:40Z</time>
      </trkpt>
      <trkpt lat="43.54343" lon="6.62888">
        <ele>360</ele>
        <time>2011-12-11T09:33:41Z</time>
      </trkpt>
      <trkpt lat="43.54341" lon="6.62891">
        <ele>360</ele>
        <time>2011-12-11T09:33:42Z</time>
      </trkpt>
      <trkpt lat="43.5434" lon="6.62894">
        <ele>360</ele>
        <time>2011-12-11T09:33:43Z</time>
      </trkpt>
      <trkpt lat="43.54339" lon="6.62897">
        <ele>361</ele>
        <time>2011-12-11T09:33:44Z</time>
      </trkpt>
      <trkpt lat="43.54338" lon="6.629">
        <ele>361</ele>
        <time>2011-12-11T09:33:45Z</time>
      </trkpt>
      <trkpt lat="43.54337" lon="6.62903">
        <ele>361</ele>
        <time>2011-12-11T09:33:46Z</time>
      </trkpt>
      <trkpt lat="43.54336" lon="6.62905">
        <ele>361</ele>
        <time>2011-12-11T09:33:47Z</time>
      </trkpt>
      <trkpt lat="43.54334" lon="6.62908">
        <ele>361</ele>
        <time>2011-12-11T09:33:48Z</time>
      </trkpt>
      <trkpt lat="43.54333" lon="6.62911">
        <ele>361</ele>
        <time>2011-12-11T09:33:49Z</time>
      </trkpt>
      <trkpt lat="43.54332" lon="6.62913">
        <ele>362</ele>
        <time>2011-12-11T09:33:50Z</time>
      </trkpt>
      <trkpt lat="43.5433" lon="6.62915">
        <ele>362</ele>
        <time>2011-12-11T09:33:51Z</time>
      </trkpt>
      <trkpt lat="43.54329" lon="6.62917">
        <ele>362</ele>
        <time>2011-12-11T09:33:52Z</time>
      </trkpt>
      <trkpt lat="43.54327" lon="6.62919">
        <ele>363</ele>
        <time>2011-12-11T09:33:53Z</time>
      </trkpt>
      <trkpt lat="43.54326" lon="6.62922">
        <ele>363</ele>
        <time>2011-12-11T09:33:54Z</time>
      </trkpt>
      <trkpt lat="43.54324" lon="6.62924">
        <ele>363</ele>
        <time>2011-12-11T09:33:55Z</time>
      </trkpt>
      <trkpt lat="43.54322" lon="6.62926">
        <ele>363</ele>
        <time>2011-12-11T09:33:56Z</time>
      </trkpt>
      <trkpt lat="43.5432" lon="6.62929">
        <ele>363</ele>
        <time>2011-12-11T09:33:57Z</time>
      </trkpt>
      <trkpt lat="43.54319" lon="6.62931">
        <ele>364</ele>
        <time>2011-12-11T09:33:58Z</time>
      </trkpt>
      <trkpt lat="43.54317" lon="6.62933">
        <ele>364</ele>
        <time>2011-12-11T09:33:59Z</time>
      </trkpt>
      <trkpt lat="43.54315" lon="6.62936">
        <ele>364</ele>
        <time>2011-12-11T09:34:00Z</time>
      </trkpt>
      <trkpt lat="43.54313" lon="6.62938">
        <ele>364</ele>
        <time>2011-12-11T09:34:01Z</time>
      </trkpt>
      <trkpt lat="43.54311" lon="6.6294">
        <ele>365</ele>
        <time>2011-12-11T09:34:02Z</time>
      </trkpt>
      <trkpt lat="43.54309" lon="6.62943">
        <ele>365</ele>
        <time>2011-12-11T09:34:03Z</time>
      </trkpt>
      <trkpt lat="43.54307" lon="6.62945">
        <ele>365</ele>
        <time>2011-12-11T09:34:04Z</time>
      </trkpt>
      <trkpt lat="43.54305" lon="6.62947">
        <ele>365</ele>
        <time>2011-12-11T09:34:05Z</time>
      </trkpt>
      <trkpt lat="43.54303" lon="6.62949">
        <ele>366</ele>
        <time>2011-12-11T09:34:06Z</time>
      </trkpt>
      <trkpt lat="43.54301" lon="6.62951">
        <ele>366</ele>
        <time>2011-12-11T09:34:07Z</time>
      </trkpt>
      <trkpt lat="43.54299" lon="6.62953">
        <ele>366</ele>
        <time>2011-12-11T09:34:08Z</time>
      </trkpt>
      <trkpt lat="43.54297" lon="6.62954">
        <ele>366</ele>
        <time>2011-12-11T09:34:09Z</time>
      </trkpt>
      <trkpt lat="43.54295" lon="6.62956">
        <ele>367</ele>
        <time>2011-12-11T09:34:10Z</time>
      </trkpt>
      <trkpt lat="43.54293" lon="6.62957">
        <ele>367</ele>
        <time>2011-12-11T09:34:11Z</time>
      </trkpt>
      <trkpt lat="43.54291" lon="6.62958">
        <ele>367</ele>
        <time>2011-12-11T09:34:12Z</time>
      </trkpt>
      <trkpt lat="43.54289" lon="6.62958">
        <ele>367</ele>
        <time>2011-12-11T09:34:13Z</time>
      </trkpt>
      <trkpt lat="43.54287" lon="6.62959">
        <ele>368</ele>
        <time>2011-12-11T09:34:14Z</time>
      </trkpt>
      <trkpt lat="43.54285" lon="6.6296">
        <ele>368</ele>
        <time>2011-12-11T09:34:15Z</time>
      </trkpt>
      <trkpt lat="43.54283" lon="6.6296">
        <ele>368</ele>
        <time>2011-12-11T09:34:16Z</time>
      </trkpt>
      <trkpt lat="43.54281" lon="6.6296">
        <ele>369</ele>
        <time>2011-12-11T09:34:17Z</time>
      </trkpt>
      <trkpt lat="43.54279" lon="6.6296">
        <ele>369</ele>
        <time>2011-12-11T09:34:18Z</time>
      </trkpt>
      <trkpt lat="43.54277" lon="6.62961">
        <ele>369</ele>
        <time>2011-12-11T09:34:19Z</time>
      </trkpt>
      <trkpt lat="43.54275" lon="6.62961">
        <ele>369</ele>
        <time>2011-12-11T09:34:20Z</time>
      </trkpt>
      <trkpt lat="43.54273" lon="6.62962">
        <ele>369</ele>
        <time>2011-12-11T09:34:21Z</time>
      </trkpt>
      <trkpt lat="43.54271" lon="6.62963">
        <ele>369</ele>
        <time>2011-12-11T09:34:22Z</time>
      </trkpt>
      <trkpt lat="43.5427" lon="6.62964">
        <ele>369</ele>
        <time>2011-12-11T09:34:23Z</time>
      </trkpt>
      <trkpt lat="43.54268" lon="6.62964">
        <ele>369</ele>
        <time>2011-12-11T09:34:24Z</time>
      </trkpt>
      <trkpt lat="43.54266" lon="6.62965">
        <ele>370</ele>
        <time>2011-12-11T09:34:25Z</time>
      </trkpt>
      <trkpt lat="43.54265" lon="6.62966">
        <ele>370</ele>
        <time>2011-12-11T09:34:26Z</time>
      </trkpt>
      <trkpt lat="43.54263" lon="6.62967">
        <ele>370</ele>
        <time>2011-12-11T09:34:27Z</time>
      </trkpt>
      <trkpt lat="43.54262" lon="6.62968">
        <ele>370</ele>
        <time>2011-12-11T09:34:28Z</time>
      </trkpt>
      <trkpt lat="43.5426" lon="6.62969">
        <ele>371</ele>
        <time>2011-12-11T09:34:29Z</time>
      </trkpt>
      <trkpt lat="43.54259" lon="6.62971">
        <ele>371</ele>
        <time>2011-12-11T09:34:30Z</time>
      </trkpt>
      <trkpt lat="43.54257" lon="6.62972">
        <ele>372</ele>
        <time>2011-12-11T09:34:31Z</time>
      </trkpt>
      <trkpt lat="43.54256" lon="6.62974">
        <ele>372</ele>
        <time>2011-12-11T09:34:32Z</time>
      </trkpt>
      <trkpt lat="43.54255" lon="6.62975">
        <ele>372</ele>
        <time>2011-12-11T09:34:33Z</time>
      </trkpt>
      <trkpt lat="43.54253" lon="6.62976">
        <ele>373</ele>
        <time>2011-12-11T09:34:34Z</time>
      </trkpt>
      <trkpt lat="43.54252" lon="6.62976">
        <ele>373</ele>
        <time>2011-12-11T09:34:35Z</time>
      </trkpt>
      <trkpt lat="43.5425" lon="6.62976">
        <ele>373</ele>
        <time>2011-12-11T09:34:36Z</time>
      </trkpt>
      <trkpt lat="43.54248" lon="6.62977">
        <ele>373</ele>
        <time>2011-12-11T09:34:37Z</time>
      </trkpt>
      <trkpt lat="43.54247" lon="6.62977">
        <ele>373</ele>
        <time>2011-12-11T09:34:38Z</time>
      </trkpt>
      <trkpt lat="43.54245" lon="6.62978">
        <ele>373</ele>
        <time>2011-12-11T09:34:39Z</time>
      </trkpt>
      <trkpt lat="43.54244" lon="6.62978">
        <ele>374</ele>
        <time>2011-12-11T09:34:40Z</time>
      </trkpt>
      <trkpt lat="43.54242" lon="6.62978">
        <ele>374</ele>
        <time>2011-12-11T09:34:41Z</time>
      </trkpt>
      <trkpt lat="43.5424" lon="6.62978">
        <ele>374</ele>
        <time>2011-12-11T09:34:42Z</time>
      </trkpt>
      <trkpt lat="43.54239" lon="6.62978">
        <ele>374</ele>
        <time>2011-12-11T09:34:43Z</time>
      </trkpt>
      <trkpt lat="43.54237" lon="6.62977">
        <ele>374</ele>
        <time>2011-12-11T09:34:44Z</time>
      </trkpt>
      <trkpt lat="43.54235" lon="6.62976">
        <ele>375</ele>
        <time>2011-12-11T09:34:45Z</time>
      </trkpt>
      <trkpt lat="43.54234" lon="6.62976">
        <ele>375</ele>
        <time>2011-12-11T09:34:46Z</time>
      </trkpt>
      <trkpt lat="43.54232" lon="6.62975">
        <ele>375</ele>
        <time>2011-12-11T09:34:47Z</time>
      </trkpt>
      <trkpt lat="43.54231" lon="6.62974">
        <ele>375</ele>
        <time>2011-12-11T09:34:48Z</time>
      </trkpt>
      <trkpt lat="43.54229" lon="6.62973">
        <ele>375</ele>
        <time>2011-12-11T09:34:49Z</time>
      </trkpt>
      <trkpt lat="43.54228" lon="6.62971">
        <ele>375</ele>
        <time>2011-12-11T09:34:50Z</time>
      </trkpt>
      <trkpt lat="43.54226" lon="6.62969">
        <ele>375</ele>
        <time>2011-12-11T09:34:51Z</time>
      </trkpt>
      <trkpt lat="43.54225" lon="6.62968">
        <ele>375</ele>
        <time>2011-12-11T09:34:52Z</time>
      </trkpt>
      <trkpt lat="43.54224" lon="6.62966">
        <ele>375</ele>
        <time>2011-12-11T09:34:53Z</time>
      </trkpt>
      <trkpt lat="43.54223" lon="6.62964">
        <ele>375</ele>
        <time>2011-12-11T09:34:54Z</time>
      </trkpt>
      <trkpt lat="43.54222" lon="6.62962">
        <ele>375</ele>
        <time>2011-12-11T09:34:55Z</time>
      </trkpt>
      <trkpt lat="43.54221" lon="6.6296">
        <ele>375</ele>
        <time>2011-12-11T09:34:56Z</time>
      </trkpt>
      <trkpt lat="43.54221" lon="6.62958">
        <ele>375</ele>
        <time>2011-12-11T09:34:57Z</time>
      </trkpt>
      <trkpt lat="43.5422" lon="6.62955">
        <ele>375</ele>
        <time>2011-12-11T09:34:58Z</time>
      </trkpt>
      <trkpt lat="43.54219" lon="6.62953">
        <ele>375</ele>
        <time>2011-12-11T09:34:59Z</time>
      </trkpt>
      <trkpt lat="43.54218" lon="6.62951">
        <ele>375</ele>
        <time>2011-12-11T09:35:00Z</time>
      </trkpt>
      <trkpt lat="43.54217" lon="6.62949">
        <ele>375</ele>
        <time>2011-12-11T09:35:01Z</time>
      </trkpt>
      <trkpt lat="43.54216" lon="6.62946">
        <ele>376</ele>
        <time>2011-12-11T09:35:02Z</time>
      </trkpt>
      <trkpt lat="43.54215" lon="6.62944">
        <ele>376</ele>
        <time>2011-12-11T09:35:03Z</time>
      </trkpt>
      <trkpt lat="43.54214" lon="6.62942">
        <ele>376</ele>
        <time>2011-12-11T09:35:04Z</time>
      </trkpt>
      <trkpt lat="43.54213" lon="6.6294">
        <ele>376</ele>
        <time>2011-12-11T09:35:05Z</time>
      </trkpt>
      <trkpt lat="43.54212" lon="6.62937">
        <ele>376</ele>
        <time>2011-12-11T09:35:06Z</time>
      </trkpt>
      <trkpt lat="43.54211" lon="6.62935">
        <ele>376</ele>
        <time>2011-12-11T09:35:07Z</time>
      </trkpt>
      <trkpt lat="43.5421" lon="6.62932">
        <ele>376</ele>
        <time>2011-12-11T09:35:08Z</time>
      </trkpt>
      <trkpt lat="43.54209" lon="6.6293">
        <ele>377</ele>
        <time>2011-12-11T09:35:09Z</time>
      </trkpt>
      <trkpt lat="43.54208" lon="6.62927">
        <ele>377</ele>
        <time>2011-12-11T09:35:10Z</time>
      </trkpt>
      <trkpt lat="43.54207" lon="6.62925">
        <ele>377</ele>
        <time>2011-12-11T09:35:11Z</time>
      </trkpt>
      <trkpt lat="43.54207" lon="6.62923">
        <ele>377</ele>
        <time>2011-12-11T09:35:12Z</time>
      </trkpt>
      <trkpt lat="43.54206" lon="6.62921">
        <ele>377</ele>
        <time>2011-12-11T09:35:13Z</time>
      </trkpt>
      <trkpt lat="43.54205" lon="6.62918">
        <ele>377</ele>
        <time>2011-12-11T09:35:14Z</time>
      </trkpt>
      <trkpt lat="43.54204" lon="6.62916">
        <ele>378</ele>
        <time>2011-12-11T09:35:15Z</time>
      </trkpt>
      <trkpt lat="43.54204" lon="6.62913">
        <ele>378</ele>
        <time>2011-12-11T09:35:16Z</time>
      </trkpt>
      <trkpt lat="43.54203" lon="6.6291">
        <ele>378</ele>
        <time>2011-12-11T09:35:17Z</time>
      </trkpt>
      <trkpt lat="43.54202" lon="6.62907">
        <ele>378</ele>
        <time>2011-12-11T09:35:18Z</time>
      </trkpt>
      <trkpt lat="43.54201" lon="6.62904">
        <ele>378</ele>
        <time>2011-12-11T09:35:19Z</time>
      </trkpt>
      <trkpt lat="43.542" lon="6.62902">
        <ele>378</ele>
        <time>2011-12-11T09:35:20Z</time>
      </trkpt>
      <trkpt lat="43.542" lon="6.629">
        <ele>378</ele>
        <time>2011-12-11T09:35:21Z</time>
      </trkpt>
      <trkpt lat="43.54199" lon="6.62897">
        <ele>378</ele>
        <time>2011-12-11T09:35:22Z</time>
      </trkpt>
      <trkpt lat="43.54198" lon="6.62895">
        <ele>378</ele>
        <time>2011-12-11T09:35:23Z</time>
      </trkpt>
      <trkpt lat="43.54198" lon="6.62893">
        <ele>379</ele>
        <time>2011-12-11T09:35:24Z</time>
      </trkpt>
      <trkpt lat="43.54197" lon="6.6289">
        <ele>379</ele>
        <time>2011-12-11T09:35:25Z</time>
      </trkpt>
      <trkpt lat="43.54197" lon="6.62887">
        <ele>379</ele>
        <time>2011-12-11T09:35:26Z</time>
      </trkpt>
      <trkpt lat="43.54196" lon="6.62884">
        <ele>379</ele>
        <time>2011-12-11T09:35:27Z</time>
      </trkpt>
      <trkpt lat="43.54196" lon="6.62881">
        <ele>379</ele>
        <time>2011-12-11T09:35:28Z</time>
      </trkpt>
      <trkpt lat="43.54195" lon="6.62878">
        <ele>379</ele>
        <time>2011-12-11T09:35:29Z</time>
      </trkpt>
      <trkpt lat="43.54195" lon="6.62875">
        <ele>379</ele>
        <time>2011-12-11T09:35:30Z</time>
      </trkpt>
      <trkpt lat="43.54194" lon="6.62872">
        <ele>380</ele>
        <time>2011-12-11T09:35:31Z</time>
      </trkpt>
      <trkpt lat="43.54193" lon="6.62869">
        <ele>380</ele>
        <time>2011-12-11T09:35:32Z</time>
      </trkpt>
      <trkpt lat="43.54193" lon="6.62865">
        <ele>380</ele>
        <time>2011-12-11T09:35:33Z</time>
      </trkpt>
      <trkpt lat="43.54192" lon="6.62862">
        <ele>380</ele>
        <time>2011-12-11T09:35:34Z</time>
      </trkpt>
      <trkpt lat="43.54191" lon="6.62859">
        <ele>381</ele>
        <time>2011-12-11T09:35:35Z</time>
      </trkpt>
      <trkpt lat="43.5419" lon="6.62857">
        <ele>382</ele>
        <time>2011-12-11T09:35:36Z</time>
      </trkpt>
      <trkpt lat="43.54189" lon="6.62854">
        <ele>382</ele>
        <time>2011-12-11T09:35:37Z</time>
      </trkpt>
      <trkpt lat="43.54189" lon="6.62851">
        <ele>382</ele>
        <time>2011-12-11T09:35:38Z</time>
      </trkpt>
      <trkpt lat="43.54188" lon="6.62848">
        <ele>382</ele>
        <time>2011-12-11T09:35:39Z</time>
      </trkpt>
      <trkpt lat="43.54188" lon="6.62845">
        <ele>382</ele>
        <time>2011-12-11T09:35:40Z</time>
      </trkpt>
      <trkpt lat="43.54187" lon="6.62842">
        <ele>382</ele>
        <time>2011-12-11T09:35:41Z</time>
      </trkpt>
      <trkpt lat="43.54186" lon="6.62839">
        <ele>382</ele>
        <time>2011-12-11T09:35:42Z</time>
      </trkpt>
      <trkpt lat="43.54185" lon="6.62836">
        <ele>382</ele>
        <time>2011-12-11T09:35:43Z</time>
      </trkpt>
      <trkpt lat="43.54184" lon="6.62833">
        <ele>382</ele>
        <time>2011-12-11T09:35:44Z</time>
      </trkpt>
      <trkpt lat="43.54183" lon="6.6283">
        <ele>382</ele>
        <time>2011-12-11T09:35:45Z</time>
      </trkpt>
      <trkpt lat="43.54182" lon="6.62828">
        <ele>382</ele>
        <time>2011-12-11T09:35:46Z</time>
      </trkpt>
      <trkpt lat="43.54181" lon="6.62825">
        <ele>382</ele>
        <time>2011-12-11T09:35:47Z</time>
      </trkpt>
      <trkpt lat="43.5418" lon="6.62822">
        <ele>382</ele>
        <time>2011-12-11T09:35:48Z</time>
      </trkpt>
      <trkpt lat="43.54179" lon="6.62819">
        <ele>382</ele>
        <time>2011-12-11T09:35:49Z</time>
      </trkpt>
      <trkpt lat="43.54178" lon="6.62816">
        <ele>382</ele>
        <time>2011-12-11T09:35:50Z</time>
      </trkpt>
      <trkpt lat="43.54177" lon="6.62813">
        <ele>383</ele>
        <time>2011-12-11T09:35:51Z</time>
      </trkpt>
      <trkpt lat="43.54176" lon="6.6281">
        <ele>383</ele>
        <time>2011-12-11T09:35:52Z</time>
      </trkpt>
      <trkpt lat="43.54175" lon="6.62807">
        <ele>383</ele>
        <time>2011-12-11T09:35:53Z</time>
      </trkpt>
      <trkpt lat="43.54175" lon="6.62804">
        <ele>383</ele>
        <time>2011-12-11T09:35:54Z</time>
      </trkpt>
      <trkpt lat="43.54174" lon="6.62801">
        <ele>384</ele>
        <time>2011-12-11T09:35:55Z</time>
      </trkpt>
      <trkpt lat="43.54173" lon="6.62797">
        <ele>384</ele>
        <time>2011-12-11T09:35:56Z</time>
      </trkpt>
      <trkpt lat="43.54173" lon="6.62794">
        <ele>384</ele>
        <time>2011-12-11T09:35:57Z</time>
      </trkpt>
      <trkpt lat="43.54172" lon="6.62791">
        <ele>385</ele>
        <time>2011-12-11T09:35:58Z</time>
      </trkpt>
      <trkpt lat="43.54172" lon="6.62787">
        <ele>385</ele>
        <time>2011-12-11T09:35:59Z</time>
      </trkpt>
      <trkpt lat="43.54172" lon="6.62784">
        <ele>386</ele>
        <time>2011-12-11T09:36:00Z</time>
      </trkpt>
      <trkpt lat="43.54171" lon="6.6278">
        <ele>386</ele>
        <time>2011-12-11T09:36:01Z</time>
      </trkpt>
      <trkpt lat="43.5417" lon="6.62777">
        <ele>386</ele>
        <time>2011-12-11T09:36:02Z</time>
      </trkpt>
      <trkpt lat="43.54169" lon="6.62773">
        <ele>386</ele>
        <time>2011-12-11T09:36:03Z</time>
      </trkpt>
      <trkpt lat="43.54169" lon="6.6277">
        <ele>386</ele>
        <time>2011-12-11T09:36:04Z</time>
      </trkpt>
      <trkpt lat="43.54169" lon="6.62766">
        <ele>386</ele>
        <time>2011-12-11T09:36:05Z</time>
      </trkpt>
      <trkpt lat="43.54168" lon="6.62763">
        <ele>386</ele>
        <time>2011-12-11T09:36:06Z</time>
      </trkpt>
      <trkpt lat="43.54168" lon="6.6276">
        <ele>387</ele>
        <time>2011-12-11T09:36:07Z</time>
      </trkpt>
      <trkpt lat="43.54167" lon="6.62756">
        <ele>387</ele>
        <time>2011-12-11T09:36:08Z</time>
      </trkpt>
      <trkpt lat="43.54166" lon="6.62752">
        <ele>387</ele>
        <time>2011-12-11T09:36:09Z</time>
      </trkpt>
      <trkpt lat="43.54165" lon="6.62748">
        <ele>387</ele>
        <time>2011-12-11T09:36:10Z</time>
      </trkpt>
      <trkpt lat="43.54165" lon="6.62745">
        <ele>387</ele>
        <time>2011-12-11T09:36:11Z</time>
      </trkpt>
      <trkpt lat="43.54165" lon="6.62742">
        <ele>387</ele>
        <time>2011-12-11T09:36:12Z</time>
      </trkpt>
      <trkpt lat="43.54164" lon="6.62738">
        <ele>387</ele>
        <time>2011-12-11T09:36:13Z</time>
      </trkpt>
      <trkpt lat="43.54164" lon="6.62735">
        <ele>387</ele>
        <time>2011-12-11T09:36:14Z</time>
      </trkpt>
      <trkpt lat="43.54164" lon="6.62732">
        <ele>387</ele>
        <time>2011-12-11T09:36:15Z</time>
      </trkpt>
      <trkpt lat="43.54163" lon="6.62729">
        <ele>386</ele>
        <time>2011-12-11T09:36:16Z</time>
      </trkpt>
      <trkpt lat="43.54163" lon="6.62726">
        <ele>386</ele>
        <time>2011-12-11T09:36:17Z</time>
      </trkpt>
      <trkpt lat="43.54163" lon="6.62723">
        <ele>387</ele>
        <time>2011-12-11T09:36:18Z</time>
      </trkpt>
      <trkpt lat="43.54162" lon="6.6272">
        <ele>387</ele>
        <time>2011-12-11T09:36:19Z</time>
      </trkpt>
      <trkpt lat="43.54162" lon="6.62717">
        <ele>388</ele>
        <time>2011-12-11T09:36:20Z</time>
      </trkpt>
      <trkpt lat="43.54161" lon="6.62714">
        <ele>388</ele>
        <time>2011-12-11T09:36:21Z</time>
      </trkpt>
      <trkpt lat="43.54161" lon="6.62711">
        <ele>388</ele>
        <time>2011-12-11T09:36:22Z</time>
      </trkpt>
      <trkpt lat="43.5416" lon="6.62708">
        <ele>388</ele>
        <time>2011-12-11T09:36:23Z</time>
      </trkpt>
      <trkpt lat="43.5416" lon="6.62705">
        <ele>388</ele>
        <time>2011-12-11T09:36:24Z</time>
      </trkpt>
      <trkpt lat="43.54159" lon="6.62702">
        <ele>388</ele>
        <time>2011-12-11T09:36:25Z</time>
      </trkpt>
      <trkpt lat="43.54159" lon="6.62699">
        <ele>388</ele>
        <time>2011-12-11T09:36:26Z</time>
      </trkpt>
      <trkpt lat="43.54158" lon="6.62696">
        <ele>388</ele>
        <time>2011-12-11T09:36:27Z</time>
      </trkpt>
      <trkpt lat="43.54158" lon="6.62693">
        <ele>388</ele>
        <time>2011-12-11T09:36:28Z</time>
      </trkpt>
      <trkpt lat="43.54157" lon="6.62689">
        <ele>388</ele>
        <time>2011-12-11T09:36:29Z</time>
      </trkpt>
      <trkpt lat="43.54156" lon="6.62686">
        <ele>388</ele>
        <time>2011-12-11T09:36:30Z</time>
      </trkpt>
      <trkpt lat="43.54156" lon="6.62683">
        <ele>388</ele>
        <time>2011-12-11T09:36:31Z</time>
      </trkpt>
      <trkpt lat="43.54155" lon="6.6268">
        <ele>388</ele>
        <time>2011-12-11T09:36:32Z</time>
      </trkpt>
      <trkpt lat="43.54154" lon="6.62677">
        <ele>389</ele>
        <time>2011-12-11T09:36:33Z</time>
      </trkpt>
      <trkpt lat="43.54153" lon="6.62674">
        <ele>389</ele>
        <time>2011-12-11T09:36:34Z</time>
      </trkpt>
      <trkpt lat="43.54153" lon="6.62671">
        <ele>389</ele>
        <time>2011-12-11T09:36:35Z</time>
      </trkpt>
      <trkpt lat="43.54152" lon="6.62668">
        <ele>389</ele>
        <time>2011-12-11T09:36:36Z</time>
      </trkpt>
      <trkpt lat="43.54151" lon="6.62664">
        <ele>390</ele>
        <time>2011-12-11T09:36:37Z</time>
      </trkpt>
      <trkpt lat="43.54151" lon="6.62661">
        <ele>390</ele>
        <time>2011-12-11T09:36:38Z</time>
      </trkpt>
      <trkpt lat="43.5415" lon="6.62658">
        <ele>389</ele>
        <time>2011-12-11T09:36:39Z</time>
      </trkpt>
      <trkpt lat="43.54149" lon="6.62654">
        <ele>389</ele>
        <time>2011-12-11T09:36:40Z</time>
      </trkpt>
      <trkpt lat="43.54148" lon="6.62651">
        <ele>390</ele>
        <time>2011-12-11T09:36:41Z</time>
      </trkpt>
      <trkpt lat="43.54147" lon="6.62648">
        <ele>390</ele>
        <time>2011-12-11T09:36:42Z</time>
      </trkpt>
      <trkpt lat="43.54146" lon="6.62645">
        <ele>390</ele>
        <time>2011-12-11T09:36:43Z</time>
      </trkpt>
      <trkpt lat="43.54145" lon="6.62641">
        <ele>390</ele>
        <time>2011-12-11T09:36:44Z</time>
      </trkpt>
      <trkpt lat="43.54144" lon="6.62637">
        <ele>390</ele>
        <time>2011-12-11T09:36:45Z</time>
      </trkpt>
      <trkpt lat="43.54142" lon="6.62634">
        <ele>390</ele>
        <time>2011-12-11T09:36:46Z</time>
      </trkpt>
      <trkpt lat="43.5414" lon="6.62631">
        <ele>390</ele>
        <time>2011-12-11T09:36:47Z</time>
      </trkpt>
      <trkpt lat="43.54139" lon="6.62628">
        <ele>389</ele>
        <time>2011-12-11T09:36:48Z</time>
      </trkpt>
      <trkpt lat="43.54137" lon="6.62625">
        <ele>389</ele>
        <time>2011-12-11T09:36:49Z</time>
      </trkpt>
      <trkpt lat="43.54136" lon="6.62622">
        <ele>389</ele>
        <time>2011-12-11T09:36:50Z</time>
      </trkpt>
      <trkpt lat="43.54135" lon="6.62619">
        <ele>389</ele>
        <time>2011-12-11T09:36:51Z</time>
      </trkpt>
      <trkpt lat="43.54133" lon="6.62616">
        <ele>390</ele>
        <time>2011-12-11T09:36:52Z</time>
      </trkpt>
      <trkpt lat="43.54133" lon="6.62613">
        <ele>390</ele>
        <time>2011-12-11T09:36:53Z</time>
      </trkpt>
      <trkpt lat="43.54131" lon="6.6261">
        <ele>391</ele>
        <time>2011-12-11T09:36:54Z</time>
      </trkpt>
      <trkpt lat="43.54131" lon="6.62607">
        <ele>392</ele>
        <time>2011-12-11T09:36:55Z</time>
      </trkpt>
      <trkpt lat="43.5413" lon="6.62604">
        <ele>392</ele>
        <time>2011-12-11T09:36:56Z</time>
      </trkpt>
      <trkpt lat="43.54129" lon="6.62601">
        <ele>394</ele>
        <time>2011-12-11T09:36:57Z</time>
      </trkpt>
      <trkpt lat="43.54128" lon="6.62598">
        <ele>394</ele>
        <time>2011-12-11T09:36:58Z</time>
      </trkpt>
      <trkpt lat="43.54127" lon="6.62595">
        <ele>394</ele>
        <time>2011-12-11T09:36:59Z</time>
      </trkpt>
      <trkpt lat="43.54127" lon="6.62591">
        <ele>393</ele>
        <time>2011-12-11T09:37:00Z</time>
      </trkpt>
      <trkpt lat="43.54127" lon="6.62588">
        <ele>393</ele>
        <time>2011-12-11T09:37:01Z</time>
      </trkpt>
      <trkpt lat="43.54126" lon="6.62585">
        <ele>393</ele>
        <time>2011-12-11T09:37:02Z</time>
      </trkpt>
      <trkpt lat="43.54125" lon="6.62582">
        <ele>393</ele>
        <time>2011-12-11T09:37:03Z</time>
      </trkpt>
      <trkpt lat="43.54125" lon="6.62578">
        <ele>393</ele>
        <time>2011-12-11T09:37:04Z</time>
      </trkpt>
      <trkpt lat="43.54124" lon="6.62575">
        <ele>393</ele>
        <time>2011-12-11T09:37:05Z</time>
      </trkpt>
      <trkpt lat="43.54123" lon="6.62573">
        <ele>393</ele>
        <time>2011-12-11T09:37:06Z</time>
      </trkpt>
      <trkpt lat="43.54123" lon="6.6257">
        <ele>394</ele>
        <time>2011-12-11T09:37:07Z</time>
      </trkpt>
      <trkpt lat="43.54122" lon="6.62567">
        <ele>394</ele>
        <time>2011-12-11T09:37:08Z</time>
      </trkpt>
      <trkpt lat="43.54121" lon="6.62564">
        <ele>394</ele>
        <time>2011-12-11T09:37:09Z</time>
      </trkpt>
      <trkpt lat="43.5412" lon="6.62562">
        <ele>395</ele>
        <time>2011-12-11T09:37:10Z</time>
      </trkpt>
      <trkpt lat="43.5412" lon="6.62559">
        <ele>395</ele>
        <time>2011-12-11T09:37:11Z</time>
      </trkpt>
      <trkpt lat="43.5412" lon="6.62556">
        <ele>395</ele>
        <time>2011-12-11T09:37:12Z</time>
      </trkpt>
      <trkpt lat="43.54119" lon="6.62552">
        <ele>396</ele>
        <time>2011-12-11T09:37:13Z</time>
      </trkpt>
      <trkpt lat="43.54119" lon="6.62549">
        <ele>396</ele>
        <time>2011-12-11T09:37:14Z</time>
      </trkpt>
      <trkpt lat="43.54119" lon="6.62546">
        <ele>396</ele>
        <time>2011-12-11T09:37:15Z</time>
      </trkpt>
      <trkpt lat="43.54118" lon="6.62543">
        <ele>396</ele>
        <time>2011-12-11T09:37:16Z</time>
      </trkpt>
      <trkpt lat="43.54118" lon="6.62541">
        <ele>396</ele>
        <time>2011-12-11T09:37:17Z</time>
      </trkpt>
      <trkpt lat="43.54117" lon="6.62538">
        <ele>397</ele>
        <time>2011-12-11T09:37:18Z</time>
      </trkpt>
      <trkpt lat="43.54117" lon="6.62535">
        <ele>397</ele>
        <time>2011-12-11T09:37:19Z</time>
      </trkpt>
      <trkpt lat="43.54116" lon="6.62532">
        <ele>397</ele>
        <time>2011-12-11T09:37:20Z</time>
      </trkpt>
      <trkpt lat="43.54116" lon="6.62529">
        <ele>397</ele>
        <time>2011-12-11T09:37:21Z</time>
      </trkpt>
      <trkpt lat="43.54116" lon="6.62526">
        <ele>397</ele>
        <time>2011-12-11T09:37:22Z</time>
      </trkpt>
      <trkpt lat="43.54116" lon="6.62522">
        <ele>397</ele>
        <time>2011-12-11T09:37:23Z</time>
      </trkpt>
      <trkpt lat="43.54115" lon="6.62518">
        <ele>397</ele>
        <time>2011-12-11T09:37:24Z</time>
      </trkpt>
      <trkpt lat="43.54115" lon="6.62515">
        <ele>397</ele>
        <time>2011-12-11T09:37:25Z</time>
      </trkpt>
      <trkpt lat="43.54115" lon="6.62512">
        <ele>397</ele>
        <time>2011-12-11T09:37:26Z</time>
      </trkpt>
      <trkpt lat="43.54114" lon="6.62509">
        <ele>397</ele>
        <time>2011-12-11T09:37:27Z</time>
      </trkpt>
      <trkpt lat="43.54114" lon="6.62506">
        <ele>397</ele>
        <time>2011-12-11T09:37:28Z</time>
      </trkpt>
      <trkpt lat="43.54113" lon="6.62502">
        <ele>397</ele>
        <time>2011-12-11T09:37:29Z</time>
      </trkpt>
      <trkpt lat="43.54113" lon="6.62499">
        <ele>397</ele>
        <time>2011-12-11T09:37:30Z</time>
      </trkpt>
      <trkpt lat="43.54113" lon="6.62496">
        <ele>397</ele>
        <time>2011-12-11T09:37:31Z</time>
      </trkpt>
      <trkpt lat="43.54114" lon="6.62492">
        <ele>398</ele>
        <time>2011-12-11T09:37:32Z</time>
      </trkpt>
      <trkpt lat="43.54115" lon="6.62489">
        <ele>398</ele>
        <time>2011-12-11T09:37:33Z</time>
      </trkpt>
      <trkpt lat="43.54116" lon="6.62486">
        <ele>398</ele>
        <time>2011-12-11T09:37:34Z</time>
      </trkpt>
      <trkpt lat="43.54116" lon="6.62482">
        <ele>399</ele>
        <time>2011-12-11T09:37:35Z</time>
      </trkpt>
      <trkpt lat="43.54116" lon="6.62479">
        <ele>400</ele>
        <time>2011-12-11T09:37:36Z</time>
      </trkpt>
      <trkpt lat="43.54116" lon="6.62475">
        <ele>400</ele>
        <time>2011-12-11T09:37:37Z</time>
      </trkpt>
      <trkpt lat="43.54115" lon="6.62472">
        <ele>400</ele>
        <time>2011-12-11T09:37:38Z</time>
      </trkpt>
      <trkpt lat="43.54116" lon="6.62468">
        <ele>400</ele>
        <time>2011-12-11T09:37:39Z</time>
      </trkpt>
      <trkpt lat="43.54116" lon="6.62464">
        <ele>399</ele>
        <time>2011-12-11T09:37:40Z</time>
      </trkpt>
      <trkpt lat="43.54117" lon="6.62461">
        <ele>399</ele>
        <time>2011-12-11T09:37:41Z</time>
      </trkpt>
      <trkpt lat="43.54117" lon="6.62457">
        <ele>399</ele>
        <time>2011-12-11T09:37:42Z</time>
      </trkpt>
      <trkpt lat="43.54117" lon="6.62454">
        <ele>399</ele>
        <time>2011-12-11T09:37:43Z</time>
      </trkpt>
      <trkpt lat="43.54117" lon="6.6245">
        <ele>399</ele>
        <time>2011-12-11T09:37:44Z</time>
      </trkpt>
      <trkpt lat="43.54118" lon="6.62447">
        <ele>400</ele>
        <time>2011-12-11T09:37:45Z</time>
      </trkpt>
      <trkpt lat="43.54119" lon="6.62443">
        <ele>400</ele>
        <time>2011-12-11T09:37:46Z</time>
      </trkpt>
      <trkpt lat="43.54119" lon="6.6244">
        <ele>400</ele>
        <time>2011-12-11T09:37:47Z</time>
      </trkpt>
      <trkpt lat="43.5412" lon="6.62436">
        <ele>400</ele>
        <time>2011-12-11T09:37:48Z</time>
      </trkpt>
      <trkpt lat="43.54121" lon="6.62432">
        <ele>400</ele>
        <time>2011-12-11T09:37:49Z</time>
      </trkpt>
      <trkpt lat="43.54121" lon="6.62428">
        <ele>400</ele>
        <time>2011-12-11T09:37:50Z</time>
      </trkpt>
      <trkpt lat="43.54121" lon="6.62425">
        <ele>400</ele>
        <time>2011-12-11T09:37:51Z</time>
      </trkpt>
      <trkpt lat="43.54121" lon="6.62422">
        <ele>400</ele>
        <time>2011-12-11T09:37:52Z</time>
      </trkpt>
      <trkpt lat="43.54122" lon="6.62418">
        <ele>400</ele>
        <time>2011-12-11T09:37:53Z</time>
      </trkpt>
      <trkpt lat="43.54123" lon="6.62414">
        <ele>400</ele>
        <time>2011-12-11T09:37:54Z</time>
      </trkpt>
      <trkpt lat="43.54123" lon="6.62411">
        <ele>400</ele>
        <time>2011-12-11T09:37:55Z</time>
      </trkpt>
      <trkpt lat="43.54123" lon="6.62407">
        <ele>400</ele>
        <time>2011-12-11T09:37:56Z</time>
      </trkpt>
      <trkpt lat="43.54124" lon="6.62404">
        <ele>400</ele>
        <time>2011-12-11T09:37:57Z</time>
      </trkpt>
      <trkpt lat="43.54124" lon="6.62401">
        <ele>400</ele>
        <time>2011-12-11T09:37:58Z</time>
      </trkpt>
      <trkpt lat="43.54124" lon="6.62398">
        <ele>401</ele>
        <time>2011-12-11T09:37:59Z</time>
      </trkpt>
      <trkpt lat="43.54124" lon="6.62395">
        <ele>401</ele>
        <time>2011-12-11T09:38:00Z</time>
      </trkpt>
      <trkpt lat="43.54124" lon="6.62391">
        <ele>401</ele>
        <time>2011-12-11T09:38:01Z</time>
      </trkpt>
      <trkpt lat="43.54124" lon="6.62389">
        <ele>401</ele>
        <time>2011-12-11T09:38:02Z</time>
      </trkpt>
      <trkpt lat="43.54124" lon="6.62386">
        <ele>401</ele>
        <time>2011-12-11T09:38:03Z</time>
      </trkpt>
      <trkpt lat="43.54124" lon="6.62383">
        <ele>402</ele>
        <time>2011-12-11T09:38:04Z</time>
      </trkpt>
      <trkpt lat="43.54124" lon="6.6238">
        <ele>402</ele>
        <time>2011-12-11T09:38:05Z</time>
      </trkpt>
      <trkpt lat="43.54123" lon="6.62377">
        <ele>403</ele>
        <time>2011-12-11T09:38:06Z</time>
      </trkpt>
      <trkpt lat="43.54123" lon="6.62374">
        <ele>403</ele>
        <time>2011-12-11T09:38:07Z</time>
      </trkpt>
      <trkpt lat="43.54123" lon="6.62371">
        <ele>403</ele>
        <time>2011-12-11T09:38:08Z</time>
      </trkpt>
      <trkpt lat="43.54123" lon="6.62368">
        <ele>403</ele>
        <time>2011-12-11T09:38:09Z</time>
      </trkpt>
      <trkpt lat="43.54122" lon="6.62365">
        <ele>403</ele>
        <time>2011-12-11T09:38:10Z</time>
      </trkpt>
      <trkpt lat="43.54122" lon="6.62362">
        <ele>403</ele>
        <time>2011-12-11T09:38:11Z</time>
      </trkpt>
      <trkpt lat="43.54121" lon="6.62358">
        <ele>403</ele>
        <time>2011-12-11T09:38:12Z</time>
      </trkpt>
      <trkpt lat="43.5412" lon="6.62355">
        <ele>403</ele>
        <time>2011-12-11T09:38:13Z</time>
      </trkpt>
      <trkpt lat="43.5412" lon="6.62352">
        <ele>403</ele>
        <time>2011-12-11T09:38:14Z</time>
      </trkpt>
      <trkpt lat="43.54119" lon="6.62349">
        <ele>403</ele>
        <time>2011-12-11T09:38:15Z</time>
      </trkpt>
      <trkpt lat="43.54119" lon="6.62345">
        <ele>403</ele>
        <time>2011-12-11T09:38:16Z</time>
      </trkpt>
      <trkpt lat="43.54118" lon="6.62341">
        <ele>403</ele>
        <time>2011-12-11T09:38:17Z</time>
      </trkpt>
      <trkpt lat="43.54118" lon="6.62338">
        <ele>403</ele>
        <time>2011-12-11T09:38:18Z</time>
      </trkpt>
      <trkpt lat="43.54117" lon="6.62334">
        <ele>403</ele>
        <time>2011-12-11T09:38:19Z</time>
      </trkpt>
      <trkpt lat="43.54117" lon="6.6233">
        <ele>403</ele>
        <time>2011-12-11T09:38:20Z</time>
      </trkpt>
      <trkpt lat="43.54118" lon="6.62327">
        <ele>403</ele>
        <time>2011-12-11T09:38:21Z</time>
      </trkpt>
      <trkpt lat="43.54118" lon="6.62323">
        <ele>403</ele>
        <time>2011-12-11T09:38:22Z</time>
      </trkpt>
      <trkpt lat="43.54118" lon="6.62319">
        <ele>404</ele>
        <time>2011-12-11T09:38:23Z</time>
      </trkpt>
      <trkpt lat="43.54118" lon="6.62315">
        <ele>404</ele>
        <time>2011-12-11T09:38:24Z</time>
      </trkpt>
      <trkpt lat="43.54118" lon="6.62311">
        <ele>404</ele>
        <time>2011-12-11T09:38:25Z</time>
      </trkpt>
      <trkpt lat="43.54118" lon="6.62308">
        <ele>404</ele>
        <time>2011-12-11T09:38:26Z</time>
      </trkpt>
      <trkpt lat="43.54118" lon="6.62304">
        <ele>405</ele>
        <time>2011-12-11T09:38:27Z</time>
      </trkpt>
      <trkpt lat="43.54119" lon="6.62301">
        <ele>405</ele>
        <time>2011-12-11T09:38:28Z</time>
      </trkpt>
      <trkpt lat="43.54119" lon="6.62297">
        <ele>405</ele>
        <time>2011-12-11T09:38:29Z</time>
      </trkpt>
      <trkpt lat="43.54119" lon="6.62294">
        <ele>405</ele>
        <time>2011-12-11T09:38:30Z</time>
      </trkpt>
      <trkpt lat="43.54119" lon="6.6229">
        <ele>405</ele>
        <time>2011-12-11T09:38:31Z</time>
      </trkpt>
      <trkpt lat="43.54119" lon="6.62287">
        <ele>405</ele>
        <time>2011-12-11T09:38:32Z</time>
      </trkpt>
      <trkpt lat="43.54119" lon="6.62283">
        <ele>405</ele>
        <time>2011-12-11T09:38:33Z</time>
      </trkpt>
      <trkpt lat="43.54119" lon="6.6228">
        <ele>406</ele>
        <time>2011-12-11T09:38:34Z</time>
      </trkpt>
      <trkpt lat="43.54118" lon="6.62277">
        <ele>406</ele>
        <time>2011-12-11T09:38:35Z</time>
      </trkpt>
      <trkpt lat="43.54118" lon="6.62273">
        <ele>406</ele>
        <time>2011-12-11T09:38:36Z</time>
      </trkpt>
      <trkpt lat="43.54117" lon="6.6227">
        <ele>406</ele>
        <time>2011-12-11T09:38:37Z</time>
      </trkpt>
      <trkpt lat="43.54117" lon="6.62266">
        <ele>406</ele>
        <time>2011-12-11T09:38:38Z</time>
      </trkpt>
      <trkpt lat="43.54116" lon="6.62262">
        <ele>406</ele>
        <time>2011-12-11T09:38:39Z</time>
      </trkpt>
      <trkpt lat="43.54115" lon="6.62258">
        <ele>407</ele>
        <time>2011-12-11T09:38:40Z</time>
      </trkpt>
      <trkpt lat="43.54114" lon="6.62255">
        <ele>407</ele>
        <time>2011-12-11T09:38:41Z</time>
      </trkpt>
      <trkpt lat="43.54113" lon="6.62251">
        <ele>407</ele>
        <time>2011-12-11T09:38:42Z</time>
      </trkpt>
      <trkpt lat="43.54112" lon="6.62248">
        <ele>407</ele>
        <time>2011-12-11T09:38:43Z</time>
      </trkpt>
      <trkpt lat="43.54112" lon="6.62244">
        <ele>407</ele>
        <time>2011-12-11T09:38:44Z</time>
      </trkpt>
      <trkpt lat="43.54111" lon="6.6224">
        <ele>408</ele>
        <time>2011-12-11T09:38:45Z</time>
      </trkpt>
      <trkpt lat="43.5411" lon="6.62237">
        <ele>408</ele>
        <time>2011-12-11T09:38:46Z</time>
      </trkpt>
      <trkpt lat="43.54109" lon="6.62233">
        <ele>408</ele>
        <time>2011-12-11T09:38:47Z</time>
      </trkpt>
      <trkpt lat="43.54108" lon="6.62229">
        <ele>408</ele>
        <time>2011-12-11T09:38:48Z</time>
      </trkpt>
      <trkpt lat="43.54107" lon="6.62225">
        <ele>408</ele>
        <time>2011-12-11T09:38:49Z</time>
      </trkpt>
      <trkpt lat="43.54107" lon="6.62221">
        <ele>408</ele>
        <time>2011-12-11T09:38:50Z</time>
      </trkpt>
      <trkpt lat="43.54106" lon="6.62218">
        <ele>408</ele>
        <time>2011-12-11T09:38:51Z</time>
      </trkpt>
      <trkpt lat="43.54105" lon="6.62214">
        <ele>408</ele>
        <time>2011-12-11T09:38:52Z</time>
      </trkpt>
      <trkpt lat="43.54105" lon="6.62211">
        <ele>408</ele>
        <time>2011-12-11T09:38:53Z</time>
      </trkpt>
      <trkpt lat="43.54105" lon="6.62207">
        <ele>408</ele>
        <time>2011-12-11T09:38:54Z</time>
      </trkpt>
      <trkpt lat="43.54104" lon="6.62204">
        <ele>409</ele>
        <time>2011-12-11T09:38:55Z</time>
      </trkpt>
      <trkpt lat="43.54103" lon="6.622">
        <ele>409</ele>
        <time>2011-12-11T09:38:56Z</time>
      </trkpt>
      <trkpt lat="43.54103" lon="6.62197">
        <ele>409</ele>
        <time>2011-12-11T09:38:57Z</time>
      </trkpt>
      <trkpt lat="43.54103" lon="6.62194">
        <ele>409</ele>
        <time>2011-12-11T09:38:58Z</time>
      </trkpt>
      <trkpt lat="43.54102" lon="6.6219">
        <ele>409</ele>
        <time>2011-12-11T09:38:59Z</time>
      </trkpt>
      <trkpt lat="43.54102" lon="6.62187">
        <ele>409</ele>
        <time>2011-12-11T09:39:00Z</time>
      </trkpt>
      <trkpt lat="43.54102" lon="6.62184">
        <ele>409</ele>
        <time>2011-12-11T09:39:01Z</time>
      </trkpt>
      <trkpt lat="43.54101" lon="6.6218">
        <ele>409</ele>
        <time>2011-12-11T09:39:02Z</time>
      </trkpt>
      <trkpt lat="43.54101" lon="6.62177">
        <ele>409</ele>
        <time>2011-12-11T09:39:03Z</time>
      </trkpt>
      <trkpt lat="43.54101" lon="6.62174">
        <ele>409</ele>
        <time>2011-12-11T09:39:04Z</time>
      </trkpt>
      <trkpt lat="43.541" lon="6.62171">
        <ele>409</ele>
        <time>2011-12-11T09:39:05Z</time>
      </trkpt>
      <trkpt lat="43.541" lon="6.62167">
        <ele>409</ele>
        <time>2011-12-11T09:39:06Z</time>
      </trkpt>
      <trkpt lat="43.54099" lon="6.62163">
        <ele>409</ele>
        <time>2011-12-11T09:39:07Z</time>
      </trkpt>
      <trkpt lat="43.54097" lon="6.62159">
        <ele>409</ele>
        <time>2011-12-11T09:39:08Z</time>
      </trkpt>
      <trkpt lat="43.54096" lon="6.62156">
        <ele>410</ele>
        <time>2011-12-11T09:39:09Z</time>
      </trkpt>
      <trkpt lat="43.54095" lon="6.62152">
        <ele>410</ele>
        <time>2011-12-11T09:39:10Z</time>
      </trkpt>
      <trkpt lat="43.54093" lon="6.62149">
        <ele>411</ele>
        <time>2011-12-11T09:39:11Z</time>
      </trkpt>
      <trkpt lat="43.54092" lon="6.62146">
        <ele>411</ele>
        <time>2011-12-11T09:39:12Z</time>
      </trkpt>
      <trkpt lat="43.54091" lon="6.62143">
        <ele>411</ele>
        <time>2011-12-11T09:39:13Z</time>
      </trkpt>
      <trkpt lat="43.5409" lon="6.6214">
        <ele>411</ele>
        <time>2011-12-11T09:39:14Z</time>
      </trkpt>
      <trkpt lat="43.54089" lon="6.62136">
        <ele>411</ele>
        <time>2011-12-11T09:39:15Z</time>
      </trkpt>
      <trkpt lat="43.54088" lon="6.62133">
        <ele>412</ele>
        <time>2011-12-11T09:39:16Z</time>
      </trkpt>
      <trkpt lat="43.54087" lon="6.6213">
        <ele>412</ele>
        <time>2011-12-11T09:39:17Z</time>
      </trkpt>
      <trkpt lat="43.54086" lon="6.62127">
        <ele>412</ele>
        <time>2011-12-11T09:39:18Z</time>
      </trkpt>
      <trkpt lat="43.54085" lon="6.62124">
        <ele>412</ele>
        <time>2011-12-11T09:39:19Z</time>
      </trkpt>
      <trkpt lat="43.54084" lon="6.62121">
        <ele>412</ele>
        <time>2011-12-11T09:39:20Z</time>
      </trkpt>
      <trkpt lat="43.54083" lon="6.62118">
        <ele>412</ele>
        <time>2011-12-11T09:39:21Z</time>
      </trkpt>
      <trkpt lat="43.54082" lon="6.62115">
        <ele>413</ele>
        <time>2011-12-11T09:39:22Z</time>
      </trkpt>
      <trkpt lat="43.54081" lon="6.62112">
        <ele>414</ele>
        <time>2011-12-11T09:39:23Z</time>
      </trkpt>
      <trkpt lat="43.5408" lon="6.62108">
        <ele>414</ele>
        <time>2011-12-11T09:39:24Z</time>
      </trkpt>
      <trkpt lat="43.5408" lon="6.62105">
        <ele>414</ele>
        <time>2011-12-11T09:39:25Z</time>
      </trkpt>
      <trkpt lat="43.5408" lon="6.62101">
        <ele>414</ele>
        <time>2011-12-11T09:39:26Z</time>
      </trkpt>
      <trkpt lat="43.5408" lon="6.62097">
        <ele>414</ele>
        <time>2011-12-11T09:39:27Z</time>
      </trkpt>
      <trkpt lat="43.5408" lon="6.62094">
        <ele>414</ele>
        <time>2011-12-11T09:39:28Z</time>
      </trkpt>
      <trkpt lat="43.5408" lon="6.6209">
        <ele>414</ele>
        <time>2011-12-11T09:39:29Z</time>
      </trkpt>
      <trkpt lat="43.54081" lon="6.62087">
        <ele>415</ele>
        <time>2011-12-11T09:39:30Z</time>
      </trkpt>
      <trkpt lat="43.54081" lon="6.62083">
        <ele>414</ele>
        <time>2011-12-11T09:39:31Z</time>
      </trkpt>
      <trkpt lat="43.54081" lon="6.6208">
        <ele>414</ele>
        <time>2011-12-11T09:39:32Z</time>
      </trkpt>
      <trkpt lat="43.54081" lon="6.62076">
        <ele>414</ele>
        <time>2011-12-11T09:39:33Z</time>
      </trkpt>
      <trkpt lat="43.5408" lon="6.62072">
        <ele>414</ele>
        <time>2011-12-11T09:39:34Z</time>
      </trkpt>
      <trkpt lat="43.54079" lon="6.62068">
        <ele>414</ele>
        <time>2011-12-11T09:39:35Z</time>
      </trkpt>
      <trkpt lat="43.54078" lon="6.62065">
        <ele>414</ele>
        <time>2011-12-11T09:39:36Z</time>
      </trkpt>
      <trkpt lat="43.54077" lon="6.62061">
        <ele>414</ele>
        <time>2011-12-11T09:39:37Z</time>
      </trkpt>
      <trkpt lat="43.54076" lon="6.62057">
        <ele>414</ele>
        <time>2011-12-11T09:39:38Z</time>
      </trkpt>
      <trkpt lat="43.54076" lon="6.62053">
        <ele>414</ele>
        <time>2011-12-11T09:39:39Z</time>
      </trkpt>
      <trkpt lat="43.54076" lon="6.6205">
        <ele>415</ele>
        <time>2011-12-11T09:39:40Z</time>
      </trkpt>
      <trkpt lat="43.54075" lon="6.62046">
        <ele>415</ele>
        <time>2011-12-11T09:39:41Z</time>
      </trkpt>
      <trkpt lat="43.54075" lon="6.62043">
        <ele>415</ele>
        <time>2011-12-11T09:39:42Z</time>
      </trkpt>
      <trkpt lat="43.54075" lon="6.62039">
        <ele>415</ele>
        <time>2011-12-11T09:39:43Z</time>
      </trkpt>
      <trkpt lat="43.54075" lon="6.62036">
        <ele>415</ele>
        <time>2011-12-11T09:39:44Z</time>
      </trkpt>
      <trkpt lat="43.54074" lon="6.62032">
        <ele>416</ele>
        <time>2011-12-11T09:39:45Z</time>
      </trkpt>
      <trkpt lat="43.54074" lon="6.62029">
        <ele>416</ele>
        <time>2011-12-11T09:39:46Z</time>
      </trkpt>
      <trkpt lat="43.54074" lon="6.62026">
        <ele>416</ele>
        <time>2011-12-11T09:39:47Z</time>
      </trkpt>
      <trkpt lat="43.54074" lon="6.62022">
        <ele>416</ele>
        <time>2011-12-11T09:39:48Z</time>
      </trkpt>
      <trkpt lat="43.54073" lon="6.62018">
        <ele>417</ele>
        <time>2011-12-11T09:39:49Z</time>
      </trkpt>
      <trkpt lat="43.54073" lon="6.62015">
        <ele>417</ele>
        <time>2011-12-11T09:39:50Z</time>
      </trkpt>
      <trkpt lat="43.54072" lon="6.62012">
        <ele>417</ele>
        <time>2011-12-11T09:39:51Z</time>
      </trkpt>
      <trkpt lat="43.54072" lon="6.62008">
        <ele>417</ele>
        <time>2011-12-11T09:39:52Z</time>
      </trkpt>
      <trkpt lat="43.54071" lon="6.62005">
        <ele>418</ele>
        <time>2011-12-11T09:39:53Z</time>
      </trkpt>
      <trkpt lat="43.54071" lon="6.62003">
        <ele>418</ele>
        <time>2011-12-11T09:39:54Z</time>
      </trkpt>
      <trkpt lat="43.54071" lon="6.62">
        <ele>418</ele>
        <time>2011-12-11T09:39:55Z</time>
      </trkpt>
      <trkpt lat="43.54071" lon="6.61997">
        <ele>418</ele>
        <time>2011-12-11T09:39:56Z</time>
      </trkpt>
      <trkpt lat="43.54072" lon="6.61993">
        <ele>418</ele>
        <time>2011-12-11T09:39:57Z</time>
      </trkpt>
      <trkpt lat="43.54072" lon="6.6199">
        <ele>418</ele>
        <time>2011-12-11T09:39:58Z</time>
      </trkpt>
      <trkpt lat="43.54073" lon="6.61987">
        <ele>419</ele>
        <time>2011-12-11T09:39:59Z</time>
      </trkpt>
      <trkpt lat="43.54074" lon="6.61984">
        <ele>419</ele>
        <time>2011-12-11T09:40:00Z</time>
      </trkpt>
      <trkpt lat="43.54076" lon="6.61981">
        <ele>419</ele>
        <time>2011-12-11T09:40:01Z</time>
      </trkpt>
      <trkpt lat="43.54078" lon="6.61978">
        <ele>419</ele>
        <time>2011-12-11T09:40:02Z</time>
      </trkpt>
      <trkpt lat="43.54079" lon="6.61975">
        <ele>420</ele>
        <time>2011-12-11T09:40:03Z</time>
      </trkpt>
      <trkpt lat="43.54081" lon="6.61972">
        <ele>420</ele>
        <time>2011-12-11T09:40:04Z</time>
      </trkpt>
      <trkpt lat="43.54082" lon="6.61969">
        <ele>420</ele>
        <time>2011-12-11T09:40:05Z</time>
      </trkpt>
      <trkpt lat="43.54084" lon="6.61965">
        <ele>420</ele>
        <time>2011-12-11T09:40:06Z</time>
      </trkpt>
      <trkpt lat="43.54086" lon="6.61962">
        <ele>420</ele>
        <time>2011-12-11T09:40:07Z</time>
      </trkpt>
      <trkpt lat="43.54087" lon="6.61959">
        <ele>420</ele>
        <time>2011-12-11T09:40:08Z</time>
      </trkpt>
      <trkpt lat="43.54089" lon="6.61955">
        <ele>421</ele>
        <time>2011-12-11T09:40:09Z</time>
      </trkpt>
      <trkpt lat="43.5409" lon="6.61952">
        <ele>421</ele>
        <time>2011-12-11T09:40:10Z</time>
      </trkpt>
      <trkpt lat="43.54091" lon="6.61948">
        <ele>421</ele>
        <time>2011-12-11T09:40:11Z</time>
      </trkpt>
      <trkpt lat="43.54093" lon="6.61944">
        <ele>421</ele>
        <time>2011-12-11T09:40:12Z</time>
      </trkpt>
      <trkpt lat="43.54094" lon="6.61941">
        <ele>421</ele>
        <time>2011-12-11T09:40:13Z</time>
      </trkpt>
      <trkpt lat="43.54096" lon="6.61937">
        <ele>421</ele>
        <time>2011-12-11T09:40:14Z</time>
      </trkpt>
      <trkpt lat="43.54097" lon="6.61933">
        <ele>421</ele>
        <time>2011-12-11T09:40:15Z</time>
      </trkpt>
      <trkpt lat="43.54098" lon="6.6193">
        <ele>421</ele>
        <time>2011-12-11T09:40:16Z</time>
      </trkpt>
      <trkpt lat="43.541" lon="6.61926">
        <ele>421</ele>
        <time>2011-12-11T09:40:17Z</time>
      </trkpt>
      <trkpt lat="43.54101" lon="6.61922">
        <ele>421</ele>
        <time>2011-12-11T09:40:18Z</time>
      </trkpt>
      <trkpt lat="43.54102" lon="6.61918">
        <ele>421</ele>
        <time>2011-12-11T09:40:19Z</time>
      </trkpt>
      <trkpt lat="43.54103" lon="6.61915">
        <ele>421</ele>
        <time>2011-12-11T09:40:20Z</time>
      </trkpt>
      <trkpt lat="43.54105" lon="6.61911">
        <ele>421</ele>
        <time>2011-12-11T09:40:21Z</time>
      </trkpt>
      <trkpt lat="43.54106" lon="6.61907">
        <ele>422</ele>
        <time>2011-12-11T09:40:22Z</time>
      </trkpt>
      <trkpt lat="43.54107" lon="6.61904">
        <ele>422</ele>
        <time>2011-12-11T09:40:23Z</time>
      </trkpt>
      <trkpt lat="43.54109" lon="6.619">
        <ele>422</ele>
        <time>2011-12-11T09:40:24Z</time>
      </trkpt>
      <trkpt lat="43.5411" lon="6.61897">
        <ele>422</ele>
        <time>2011-12-11T09:40:25Z</time>
      </trkpt>
      <trkpt lat="43.54111" lon="6.61894">
        <ele>423</ele>
        <time>2011-12-11T09:40:26Z</time>
      </trkpt>
      <trkpt lat="43.54112" lon="6.61891">
        <ele>423</ele>
        <time>2011-12-11T09:40:27Z</time>
      </trkpt>
      <trkpt lat="43.54113" lon="6.61888">
        <ele>423</ele>
        <time>2011-12-11T09:40:28Z</time>
      </trkpt>
      <trkpt lat="43.54114" lon="6.61885">
        <ele>423</ele>
        <time>2011-12-11T09:40:29Z</time>
      </trkpt>
      <trkpt lat="43.54115" lon="6.61881">
        <ele>423</ele>
        <time>2011-12-11T09:40:30Z</time>
      </trkpt>
      <trkpt lat="43.54116" lon="6.61878">
        <ele>424</ele>
        <time>2011-12-11T09:40:31Z</time>
      </trkpt>
      <trkpt lat="43.54116" lon="6.61875">
        <ele>424</ele>
        <time>2011-12-11T09:40:32Z</time>
      </trkpt>
      <trkpt lat="43.54117" lon="6.61872">
        <ele>424</ele>
        <time>2011-12-11T09:40:33Z</time>
      </trkpt>
      <trkpt lat="43.54117" lon="6.61869">
        <ele>425</ele>
        <time>2011-12-11T09:40:34Z</time>
      </trkpt>
      <trkpt lat="43.54118" lon="6.61866">
        <ele>425</ele>
        <time>2011-12-11T09:40:35Z</time>
      </trkpt>
      <trkpt lat="43.54118" lon="6.61862">
        <ele>425</ele>
        <time>2011-12-11T09:40:36Z</time>
      </trkpt>
      <trkpt lat="43.54118" lon="6.61858">
        <ele>425</ele>
        <time>2011-12-11T09:40:37Z</time>
      </trkpt>
      <trkpt lat="43.54118" lon="6.61854">
        <ele>425</ele>
        <time>2011-12-11T09:40:38Z</time>
      </trkpt>
      <trkpt lat="43.54118" lon="6.6185">
        <ele>425</ele>
        <time>2011-12-11T09:40:39Z</time>
      </trkpt>
      <trkpt lat="43.54118" lon="6.61846">
        <ele>425</ele>
        <time>2011-12-11T09:40:40Z</time>
      </trkpt>
      <trkpt lat="43.54118" lon="6.61843">
        <ele>425</ele>
        <time>2011-12-11T09:40:41Z</time>
      </trkpt>
      <trkpt lat="43.54118" lon="6.61839">
        <ele>425</ele>
        <time>2011-12-11T09:40:42Z</time>
      </trkpt>
      <trkpt lat="43.54119" lon="6.61835">
        <ele>426</ele>
        <time>2011-12-11T09:40:43Z</time>
      </trkpt>
      <trkpt lat="43.54119" lon="6.61831">
        <ele>426</ele>
        <time>2011-12-11T09:40:44Z</time>
      </trkpt>
      <trkpt lat="43.54119" lon="6.61827">
        <ele>426</ele>
        <time>2011-12-11T09:40:45Z</time>
      </trkpt>
      <trkpt lat="43.54119" lon="6.61823">
        <ele>426</ele>
        <time>2011-12-11T09:40:46Z</time>
      </trkpt>
      <trkpt lat="43.54119" lon="6.6182">
        <ele>427</ele>
        <time>2011-12-11T09:40:47Z</time>
      </trkpt>
      <trkpt lat="43.54119" lon="6.61816">
        <ele>427</ele>
        <time>2011-12-11T09:40:48Z</time>
      </trkpt>
      <trkpt lat="43.5412" lon="6.61813">
        <ele>427</ele>
        <time>2011-12-11T09:40:49Z</time>
      </trkpt>
      <trkpt lat="43.5412" lon="6.61809">
        <ele>427</ele>
        <time>2011-12-11T09:40:50Z</time>
      </trkpt>
      <trkpt lat="43.54121" lon="6.61806">
        <ele>427</ele>
        <time>2011-12-11T09:40:51Z</time>
      </trkpt>
      <trkpt lat="43.54121" lon="6.61802">
        <ele>427</ele>
        <time>2011-12-11T09:40:52Z</time>
      </trkpt>
      <trkpt lat="43.54121" lon="6.61799">
        <ele>427</ele>
        <time>2011-12-11T09:40:53Z</time>
      </trkpt>
      <trkpt lat="43.54122" lon="6.61795">
        <ele>427</ele>
        <time>2011-12-11T09:40:54Z</time>
      </trkpt>
      <trkpt lat="43.54123" lon="6.61792">
        <ele>428</ele>
        <time>2011-12-11T09:40:55Z</time>
      </trkpt>
      <trkpt lat="43.54123" lon="6.61789">
        <ele>428</ele>
        <time>2011-12-11T09:40:56Z</time>
      </trkpt>
      <trkpt lat="43.54124" lon="6.61787">
        <ele>428</ele>
        <time>2011-12-11T09:40:57Z</time>
      </trkpt>
      <trkpt lat="43.54125" lon="6.61784">
        <ele>428</ele>
        <time>2011-12-11T09:40:58Z</time>
      </trkpt>
      <trkpt lat="43.54126" lon="6.61781">
        <ele>428</ele>
        <time>2011-12-11T09:40:59Z</time>
      </trkpt>
      <trkpt lat="43.54126" lon="6.61777">
        <ele>428</ele>
        <time>2011-12-11T09:41:00Z</time>
      </trkpt>
      <trkpt lat="43.54126" lon="6.61773">
        <ele>428</ele>
        <time>2011-12-11T09:41:01Z</time>
      </trkpt>
      <trkpt lat="43.54126" lon="6.61769">
        <ele>428</ele>
        <time>2011-12-11T09:41:02Z</time>
      </trkpt>
      <trkpt lat="43.54125" lon="6.61765">
        <ele>428</ele>
        <time>2011-12-11T09:41:03Z</time>
      </trkpt>
      <trkpt lat="43.54127" lon="6.61761">
        <ele>428</ele>
        <time>2011-12-11T09:41:04Z</time>
      </trkpt>
      <trkpt lat="43.54128" lon="6.61758">
        <ele>428</ele>
        <time>2011-12-11T09:41:05Z</time>
      </trkpt>
      <trkpt lat="43.54128" lon="6.61754">
        <ele>428</ele>
        <time>2011-12-11T09:41:06Z</time>
      </trkpt>
      <trkpt lat="43.54129" lon="6.6175">
        <ele>428</ele>
        <time>2011-12-11T09:41:07Z</time>
      </trkpt>
      <trkpt lat="43.5413" lon="6.61747">
        <ele>428</ele>
        <time>2011-12-11T09:41:08Z</time>
      </trkpt>
      <trkpt lat="43.54132" lon="6.61743">
        <ele>428</ele>
        <time>2011-12-11T09:41:09Z</time>
      </trkpt>
      <trkpt lat="43.54133" lon="6.6174">
        <ele>428</ele>
        <time>2011-12-11T09:41:10Z</time>
      </trkpt>
      <trkpt lat="43.54133" lon="6.61738">
        <ele>429</ele>
        <time>2011-12-11T09:41:11Z</time>
      </trkpt>
      <trkpt lat="43.54134" lon="6.61735">
        <ele>429</ele>
        <time>2011-12-11T09:41:12Z</time>
      </trkpt>
      <trkpt lat="43.54135" lon="6.61732">
        <ele>429</ele>
        <time>2011-12-11T09:41:13Z</time>
      </trkpt>
      <trkpt lat="43.54137" lon="6.61729">
        <ele>430</ele>
        <time>2011-12-11T09:41:14Z</time>
      </trkpt>
      <trkpt lat="43.54137" lon="6.61726">
        <ele>430</ele>
        <time>2011-12-11T09:41:15Z</time>
      </trkpt>
      <trkpt lat="43.54138" lon="6.61723">
        <ele>430</ele>
        <time>2011-12-11T09:41:16Z</time>
      </trkpt>
      <trkpt lat="43.54139" lon="6.6172">
        <ele>431</ele>
        <time>2011-12-11T09:41:17Z</time>
      </trkpt>
      <trkpt lat="43.5414" lon="6.61718">
        <ele>431</ele>
        <time>2011-12-11T09:41:18Z</time>
      </trkpt>
      <trkpt lat="43.54141" lon="6.61716">
        <ele>431</ele>
        <time>2011-12-11T09:41:19Z</time>
      </trkpt>
      <trkpt lat="43.54141" lon="6.61713">
        <ele>431</ele>
        <time>2011-12-11T09:41:20Z</time>
      </trkpt>
      <trkpt lat="43.54142" lon="6.61708">
        <ele>431</ele>
        <time>2011-12-11T09:41:21Z</time>
      </trkpt>
      <trkpt lat="43.54143" lon="6.61705">
        <ele>431</ele>
        <time>2011-12-11T09:41:22Z</time>
      </trkpt>
      <trkpt lat="43.54143" lon="6.61703">
        <ele>431</ele>
        <time>2011-12-11T09:41:23Z</time>
      </trkpt>
      <trkpt lat="43.54144" lon="6.61698">
        <ele>432</ele>
        <time>2011-12-11T09:41:24Z</time>
      </trkpt>
      <trkpt lat="43.54144" lon="6.61695">
        <ele>432</ele>
        <time>2011-12-11T09:41:25Z</time>
      </trkpt>
      <trkpt lat="43.54145" lon="6.61692">
        <ele>432</ele>
        <time>2011-12-11T09:41:26Z</time>
      </trkpt>
      <trkpt lat="43.54145" lon="6.61688">
        <ele>432</ele>
        <time>2011-12-11T09:41:27Z</time>
      </trkpt>
      <trkpt lat="43.54145" lon="6.61685">
        <ele>432</ele>
        <time>2011-12-11T09:41:28Z</time>
      </trkpt>
      <trkpt lat="43.54146" lon="6.61681">
        <ele>433</ele>
        <time>2011-12-11T09:41:29Z</time>
      </trkpt>
      <trkpt lat="43.54146" lon="6.61677">
        <ele>433</ele>
        <time>2011-12-11T09:41:30Z</time>
      </trkpt>
      <trkpt lat="43.54147" lon="6.61672">
        <ele>433</ele>
        <time>2011-12-11T09:41:31Z</time>
      </trkpt>
      <trkpt lat="43.54148" lon="6.61669">
        <ele>433</ele>
        <time>2011-12-11T09:41:32Z</time>
      </trkpt>
      <trkpt lat="43.54149" lon="6.61666">
        <ele>433</ele>
        <time>2011-12-11T09:41:33Z</time>
      </trkpt>
      <trkpt lat="43.54151" lon="6.61663">
        <ele>433</ele>
        <time>2011-12-11T09:41:34Z</time>
      </trkpt>
      <trkpt lat="43.54151" lon="6.61659">
        <ele>433</ele>
        <time>2011-12-11T09:41:35Z</time>
      </trkpt>
      <trkpt lat="43.54151" lon="6.61655">
        <ele>433</ele>
        <time>2011-12-11T09:41:36Z</time>
      </trkpt>
      <trkpt lat="43.54153" lon="6.61652">
        <ele>433</ele>
        <time>2011-12-11T09:41:37Z</time>
      </trkpt>
      <trkpt lat="43.54154" lon="6.61648">
        <ele>433</ele>
        <time>2011-12-11T09:41:38Z</time>
      </trkpt>
      <trkpt lat="43.54156" lon="6.61644">
        <ele>434</ele>
        <time>2011-12-11T09:41:39Z</time>
      </trkpt>
      <trkpt lat="43.54157" lon="6.61641">
        <ele>434</ele>
        <time>2011-12-11T09:41:40Z</time>
      </trkpt>
      <trkpt lat="43.54158" lon="6.61637">
        <ele>434</ele>
        <time>2011-12-11T09:41:41Z</time>
      </trkpt>
      <trkpt lat="43.54158" lon="6.61634">
        <ele>435</ele>
        <time>2011-12-11T09:41:42Z</time>
      </trkpt>
      <trkpt lat="43.5416" lon="6.61631">
        <ele>435</ele>
        <time>2011-12-11T09:41:43Z</time>
      </trkpt>
      <trkpt lat="43.54162" lon="6.61628">
        <ele>435</ele>
        <time>2011-12-11T09:41:44Z</time>
      </trkpt>
      <trkpt lat="43.54165" lon="6.61625">
        <ele>435</ele>
        <time>2011-12-11T09:41:45Z</time>
      </trkpt>
      <trkpt lat="43.54167" lon="6.61621">
        <ele>435</ele>
        <time>2011-12-11T09:41:46Z</time>
      </trkpt>
      <trkpt lat="43.54168" lon="6.61617">
        <ele>435</ele>
        <time>2011-12-11T09:41:47Z</time>
      </trkpt>
      <trkpt lat="43.5417" lon="6.61614">
        <ele>435</ele>
        <time>2011-12-11T09:41:48Z</time>
      </trkpt>
      <trkpt lat="43.54172" lon="6.61609">
        <ele>435</ele>
        <time>2011-12-11T09:41:49Z</time>
      </trkpt>
      <trkpt lat="43.54175" lon="6.61605">
        <ele>435</ele>
        <time>2011-12-11T09:41:50Z</time>
      </trkpt>
      <trkpt lat="43.54177" lon="6.616">
        <ele>435</ele>
        <time>2011-12-11T09:41:51Z</time>
      </trkpt>
      <trkpt lat="43.54179" lon="6.61592">
        <ele>435</ele>
        <time>2011-12-11T09:41:52Z</time>
      </trkpt>
      <trkpt lat="43.54207" lon="6.61529">
        <ele>430</ele>
        <time>2011-12-11T09:42:02Z</time>
      </trkpt>
      <trkpt lat="43.54227" lon="6.61461">
        <ele>426</ele>
        <time>2011-12-11T09:42:12Z</time>
      </trkpt>
      <trkpt lat="43.54227" lon="6.61455">
        <ele>426</ele>
        <time>2011-12-11T09:42:13Z</time>
      </trkpt>
      <trkpt lat="43.54227" lon="6.61449">
        <ele>425</ele>
        <time>2011-12-11T09:42:14Z</time>
      </trkpt>
      <trkpt lat="43.54227" lon="6.61443">
        <ele>425</ele>
        <time>2011-12-11T09:42:15Z</time>
      </trkpt>
      <trkpt lat="43.54227" lon="6.61437">
        <ele>424</ele>
        <time>2011-12-11T09:42:16Z</time>
      </trkpt>
      <trkpt lat="43.54227" lon="6.6143">
        <ele>424</ele>
        <time>2011-12-11T09:42:17Z</time>
      </trkpt>
      <trkpt lat="43.54226" lon="6.61423">
        <ele>423</ele>
        <time>2011-12-11T09:42:18Z</time>
      </trkpt>
      <trkpt lat="43.54203" lon="6.61349">
        <ele>419</ele>
        <time>2011-12-11T09:42:28Z</time>
      </trkpt>
      <trkpt lat="43.54201" lon="6.61343">
        <ele>419</ele>
        <time>2011-12-11T09:42:29Z</time>
      </trkpt>
      <trkpt lat="43.54201" lon="6.61336">
        <ele>418</ele>
        <time>2011-12-11T09:42:30Z</time>
      </trkpt>
      <trkpt lat="43.54201" lon="6.61329">
        <ele>418</ele>
        <time>2011-12-11T09:42:31Z</time>
      </trkpt>
      <trkpt lat="43.54218" lon="6.61256">
        <ele>414</ele>
        <time>2011-12-11T09:42:41Z</time>
      </trkpt>
      <trkpt lat="43.54238" lon="6.61158">
        <ele>408</ele>
        <time>2011-12-11T09:42:51Z</time>
      </trkpt>
      <trkpt lat="43.54239" lon="6.61068">
        <ele>402</ele>
        <time>2011-12-11T09:43:01Z</time>
      </trkpt>
      <trkpt lat="43.54193" lon="6.60986">
        <ele>397</ele>
        <time>2011-12-11T09:43:11Z</time>
      </trkpt>
      <trkpt lat="43.54158" lon="6.60917">
        <ele>398</ele>
        <time>2011-12-11T09:43:21Z</time>
      </trkpt>
      <trkpt lat="43.54156" lon="6.60912">
        <ele>398</ele>
        <time>2011-12-11T09:43:22Z</time>
      </trkpt>
      <trkpt lat="43.54153" lon="6.60907">
        <ele>398</ele>
        <time>2011-12-11T09:43:23Z</time>
      </trkpt>
      <trkpt lat="43.54151" lon="6.60901">
        <ele>398</ele>
        <time>2011-12-11T09:43:24Z</time>
      </trkpt>
      <trkpt lat="43.54147" lon="6.60897">
        <ele>398</ele>
        <time>2011-12-11T09:43:25Z</time>
      </trkpt>
      <trkpt lat="43.54145" lon="6.60892">
        <ele>398</ele>
        <time>2011-12-11T09:43:26Z</time>
      </trkpt>
      <trkpt lat="43.54142" lon="6.60888">
        <ele>399</ele>
        <time>2011-12-11T09:43:27Z</time>
      </trkpt>
      <trkpt lat="43.54139" lon="6.60884">
        <ele>399</ele>
        <time>2011-12-11T09:43:28Z</time>
      </trkpt>
      <trkpt lat="43.54137" lon="6.6088">
        <ele>399</ele>
        <time>2011-12-11T09:43:29Z</time>
      </trkpt>
      <trkpt lat="43.54134" lon="6.60876">
        <ele>399</ele>
        <time>2011-12-11T09:43:30Z</time>
      </trkpt>
      <trkpt lat="43.54131" lon="6.60873">
        <ele>399</ele>
        <time>2011-12-11T09:43:31Z</time>
      </trkpt>
      <trkpt lat="43.5413" lon="6.6087">
        <ele>399</ele>
        <time>2011-12-11T09:43:32Z</time>
      </trkpt>
      <trkpt lat="43.54127" lon="6.60868">
        <ele>399</ele>
        <time>2011-12-11T09:43:33Z</time>
      </trkpt>
      <trkpt lat="43.54126" lon="6.60865">
        <ele>399</ele>
        <time>2011-12-11T09:43:34Z</time>
      </trkpt>
      <trkpt lat="43.54124" lon="6.60863">
        <ele>399</ele>
        <time>2011-12-11T09:43:35Z</time>
      </trkpt>
      <trkpt lat="43.54122" lon="6.60861">
        <ele>399</ele>
        <time>2011-12-11T09:43:36Z</time>
      </trkpt>
      <trkpt lat="43.5412" lon="6.60859">
        <ele>399</ele>
        <time>2011-12-11T09:43:37Z</time>
      </trkpt>
      <trkpt lat="43.54119" lon="6.60857">
        <ele>399</ele>
        <time>2011-12-11T09:43:38Z</time>
      </trkpt>
      <trkpt lat="43.54117" lon="6.60855">
        <ele>399</ele>
        <time>2011-12-11T09:43:39Z</time>
      </trkpt>
      <trkpt lat="43.54116" lon="6.60853">
        <ele>400</ele>
        <time>2011-12-11T09:43:40Z</time>
      </trkpt>
      <trkpt lat="43.54114" lon="6.60852">
        <ele>400</ele>
        <time>2011-12-11T09:43:41Z</time>
      </trkpt>
      <trkpt lat="43.54112" lon="6.6085">
        <ele>400</ele>
        <time>2011-12-11T09:43:42Z</time>
      </trkpt>
      <trkpt lat="43.54111" lon="6.60849">
        <ele>400</ele>
        <time>2011-12-11T09:43:43Z</time>
      </trkpt>
      <trkpt lat="43.54109" lon="6.60848">
        <ele>400</ele>
        <time>2011-12-11T09:43:44Z</time>
      </trkpt>
      <trkpt lat="43.54107" lon="6.60847">
        <ele>400</ele>
        <time>2011-12-11T09:43:45Z</time>
      </trkpt>
      <trkpt lat="43.54106" lon="6.60846">
        <ele>400</ele>
        <time>2011-12-11T09:43:46Z</time>
      </trkpt>
      <trkpt lat="43.54104" lon="6.60845">
        <ele>400</ele>
        <time>2011-12-11T09:43:47Z</time>
      </trkpt>
      <trkpt lat="43.54102" lon="6.60844">
        <ele>400</ele>
        <time>2011-12-11T09:43:48Z</time>
      </trkpt>
      <trkpt lat="43.541" lon="6.60843">
        <ele>400</ele>
        <time>2011-12-11T09:43:49Z</time>
      </trkpt>
      <trkpt lat="43.54098" lon="6.60842">
        <ele>400</ele>
        <time>2011-12-11T09:43:50Z</time>
      </trkpt>
      <trkpt lat="43.54096" lon="6.60842">
        <ele>401</ele>
        <time>2011-12-11T09:43:51Z</time>
      </trkpt>
      <trkpt lat="43.54094" lon="6.60842">
        <ele>401</ele>
        <time>2011-12-11T09:43:52Z</time>
      </trkpt>
      <trkpt lat="43.54092" lon="6.60841">
        <ele>401</ele>
        <time>2011-12-11T09:43:53Z</time>
      </trkpt>
      <trkpt lat="43.54091" lon="6.60841">
        <ele>401</ele>
        <time>2011-12-11T09:43:54Z</time>
      </trkpt>
      <trkpt lat="43.54088" lon="6.60841">
        <ele>401</ele>
        <time>2011-12-11T09:43:55Z</time>
      </trkpt>
      <trkpt lat="43.54086" lon="6.60841">
        <ele>401</ele>
        <time>2011-12-11T09:43:56Z</time>
      </trkpt>
      <trkpt lat="43.54084" lon="6.60841">
        <ele>401</ele>
        <time>2011-12-11T09:43:57Z</time>
      </trkpt>
      <trkpt lat="43.54082" lon="6.60841">
        <ele>401</ele>
        <time>2011-12-11T09:43:58Z</time>
      </trkpt>
      <trkpt lat="43.5408" lon="6.60841">
        <ele>401</ele>
        <time>2011-12-11T09:43:59Z</time>
      </trkpt>
      <trkpt lat="43.54078" lon="6.6084">
        <ele>401</ele>
        <time>2011-12-11T09:44:00Z</time>
      </trkpt>
      <trkpt lat="43.54075" lon="6.6084">
        <ele>402</ele>
        <time>2011-12-11T09:44:01Z</time>
      </trkpt>
      <trkpt lat="43.54073" lon="6.6084">
        <ele>402</ele>
        <time>2011-12-11T09:44:02Z</time>
      </trkpt>
      <trkpt lat="43.54071" lon="6.6084">
        <ele>402</ele>
        <time>2011-12-11T09:44:03Z</time>
      </trkpt>
      <trkpt lat="43.5407" lon="6.60839">
        <ele>402</ele>
        <time>2011-12-11T09:44:04Z</time>
      </trkpt>
      <trkpt lat="43.54067" lon="6.60838">
        <ele>402</ele>
        <time>2011-12-11T09:44:05Z</time>
      </trkpt>
      <trkpt lat="43.54065" lon="6.60838">
        <ele>402</ele>
        <time>2011-12-11T09:44:06Z</time>
      </trkpt>
      <trkpt lat="43.54063" lon="6.60837">
        <ele>402</ele>
        <time>2011-12-11T09:44:07Z</time>
      </trkpt>
      <trkpt lat="43.5406" lon="6.60836">
        <ele>402</ele>
        <time>2011-12-11T09:44:08Z</time>
      </trkpt>
      <trkpt lat="43.54058" lon="6.60835">
        <ele>402</ele>
        <time>2011-12-11T09:44:09Z</time>
      </trkpt>
      <trkpt lat="43.54055" lon="6.60833">
        <ele>402</ele>
        <time>2011-12-11T09:44:10Z</time>
      </trkpt>
      <trkpt lat="43.54053" lon="6.60832">
        <ele>402</ele>
        <time>2011-12-11T09:44:11Z</time>
      </trkpt>
      <trkpt lat="43.54051" lon="6.6083">
        <ele>402</ele>
        <time>2011-12-11T09:44:12Z</time>
      </trkpt>
      <trkpt lat="43.54049" lon="6.60829">
        <ele>402</ele>
        <time>2011-12-11T09:44:13Z</time>
      </trkpt>
      <trkpt lat="43.54047" lon="6.60828">
        <ele>402</ele>
        <time>2011-12-11T09:44:14Z</time>
      </trkpt>
      <trkpt lat="43.54045" lon="6.60827">
        <ele>403</ele>
        <time>2011-12-11T09:44:15Z</time>
      </trkpt>
      <trkpt lat="43.54043" lon="6.60825">
        <ele>403</ele>
        <time>2011-12-11T09:44:16Z</time>
      </trkpt>
      <trkpt lat="43.54042" lon="6.60823">
        <ele>403</ele>
        <time>2011-12-11T09:44:17Z</time>
      </trkpt>
      <trkpt lat="43.54041" lon="6.60821">
        <ele>403</ele>
        <time>2011-12-11T09:44:18Z</time>
      </trkpt>
      <trkpt lat="43.54039" lon="6.60819">
        <ele>403</ele>
        <time>2011-12-11T09:44:19Z</time>
      </trkpt>
      <trkpt lat="43.54038" lon="6.60817">
        <ele>403</ele>
        <time>2011-12-11T09:44:20Z</time>
      </trkpt>
      <trkpt lat="43.54036" lon="6.60816">
        <ele>403</ele>
        <time>2011-12-11T09:44:21Z</time>
      </trkpt>
      <trkpt lat="43.54034" lon="6.60814">
        <ele>403</ele>
        <time>2011-12-11T09:44:22Z</time>
      </trkpt>
      <trkpt lat="43.54032" lon="6.60813">
        <ele>403</ele>
        <time>2011-12-11T09:44:23Z</time>
      </trkpt>
      <trkpt lat="43.5403" lon="6.60811">
        <ele>403</ele>
        <time>2011-12-11T09:44:24Z</time>
      </trkpt>
      <trkpt lat="43.54029" lon="6.6081">
        <ele>403</ele>
        <time>2011-12-11T09:44:25Z</time>
      </trkpt>
      <trkpt lat="43.54027" lon="6.60809">
        <ele>403</ele>
        <time>2011-12-11T09:44:26Z</time>
      </trkpt>
      <trkpt lat="43.54025" lon="6.60807">
        <ele>403</ele>
        <time>2011-12-11T09:44:27Z</time>
      </trkpt>
      <trkpt lat="43.54023" lon="6.60806">
        <ele>403</ele>
        <time>2011-12-11T09:44:28Z</time>
      </trkpt>
      <trkpt lat="43.54022" lon="6.60805">
        <ele>403</ele>
        <time>2011-12-11T09:44:29Z</time>
      </trkpt>
      <trkpt lat="43.5402" lon="6.60804">
        <ele>403</ele>
        <time>2011-12-11T09:44:30Z</time>
      </trkpt>
      <trkpt lat="43.54019" lon="6.60803">
        <ele>403</ele>
        <time>2011-12-11T09:44:31Z</time>
      </trkpt>
      <trkpt lat="43.54018" lon="6.60802">
        <ele>403</ele>
        <time>2011-12-11T09:44:32Z</time>
      </trkpt>
      <trkpt lat="43.54016" lon="6.60802">
        <ele>403</ele>
        <time>2011-12-11T09:44:33Z</time>
      </trkpt>
      <trkpt lat="43.54015" lon="6.60801">
        <ele>403</ele>
        <time>2011-12-11T09:44:34Z</time>
      </trkpt>
      <trkpt lat="43.54014" lon="6.60799">
        <ele>402</ele>
        <time>2011-12-11T09:44:35Z</time>
      </trkpt>
      <trkpt lat="43.54013" lon="6.60798">
        <ele>402</ele>
        <time>2011-12-11T09:44:36Z</time>
      </trkpt>
      <trkpt lat="43.54012" lon="6.60796">
        <ele>402</ele>
        <time>2011-12-11T09:44:37Z</time>
      </trkpt>
      <trkpt lat="43.54012" lon="6.60794">
        <ele>402</ele>
        <time>2011-12-11T09:44:38Z</time>
      </trkpt>
      <trkpt lat="43.54012" lon="6.60792">
        <ele>402</ele>
        <time>2011-12-11T09:44:39Z</time>
      </trkpt>
      <trkpt lat="43.54012" lon="6.60791">
        <ele>402</ele>
        <time>2011-12-11T09:44:40Z</time>
      </trkpt>
      <trkpt lat="43.54012" lon="6.60789">
        <ele>402</ele>
        <time>2011-12-11T09:44:41Z</time>
      </trkpt>
      <trkpt lat="43.54012" lon="6.60788">
        <ele>402</ele>
        <time>2011-12-11T09:44:42Z</time>
      </trkpt>
      <trkpt lat="43.54012" lon="6.60788">
        <ele>402</ele>
        <time>2011-12-11T09:44:44Z</time>
      </trkpt>
      <trkpt lat="43.54012" lon="6.60788">
        <ele>402</ele>
        <time>2011-12-11T09:44:45Z</time>
      </trkpt>
      <trkpt lat="43.54012" lon="6.60787">
        <ele>402</ele>
        <time>2011-12-11T09:44:46Z</time>
      </trkpt>
      <trkpt lat="43.54012" lon="6.60787">
        <ele>403</ele>
        <time>2011-12-11T09:45:09Z</time>
      </trkpt>
      <trkpt lat="43.54012" lon="6.60787">
        <ele>403</ele>
        <time>2011-12-11T09:48:02Z</time>
      </trkpt>
      <trkpt lat="43.54012" lon="6.60787">
        <ele>403</ele>
        <time>2011-12-11T09:48:03Z</time>
      </trkpt>
      <trkpt lat="43.54011" lon="6.60787">
        <ele>403</ele>
        <time>2011-12-11T09:48:04Z</time>
      </trkpt>
      <trkpt lat="43.54011" lon="6.60787">
        <ele>403</ele>
        <time>2011-12-11T09:48:05Z</time>
      </trkpt>
      <trkpt lat="43.5401" lon="6.60787">
        <ele>403</ele>
        <time>2011-12-11T09:48:06Z</time>
      </trkpt>
      <trkpt lat="43.5401" lon="6.60787">
        <ele>403</ele>
        <time>2011-12-11T09:48:07Z</time>
      </trkpt>
      <trkpt lat="43.5401" lon="6.60787">
        <ele>403</ele>
        <time>2011-12-11T09:48:09Z</time>
      </trkpt>
      <trkpt lat="43.5401" lon="6.60788">
        <ele>403</ele>
        <time>2011-12-11T09:48:10Z</time>
      </trkpt>
      <trkpt lat="43.5401" lon="6.60788">
        <ele>403</ele>
        <time>2011-12-11T09:48:13Z</time>
      </trkpt>
      <trkpt lat="43.54011" lon="6.60789">
        <ele>403</ele>
        <time>2011-12-11T09:48:14Z</time>
      </trkpt>
      <trkpt lat="43.54011" lon="6.60791">
        <ele>403</ele>
        <time>2011-12-11T09:48:15Z</time>
      </trkpt>
      <trkpt lat="43.54011" lon="6.60793">
        <ele>403</ele>
        <time>2011-12-11T09:48:16Z</time>
      </trkpt>
      <trkpt lat="43.54012" lon="6.60795">
        <ele>403</ele>
        <time>2011-12-11T09:48:17Z</time>
      </trkpt>
      <trkpt lat="43.54013" lon="6.60798">
        <ele>404</ele>
        <time>2011-12-11T09:48:18Z</time>
      </trkpt>
      <trkpt lat="43.54013" lon="6.60801">
        <ele>404</ele>
        <time>2011-12-11T09:48:19Z</time>
      </trkpt>
      <trkpt lat="43.54013" lon="6.60804">
        <ele>404</ele>
        <time>2011-12-11T09:48:20Z</time>
      </trkpt>
      <trkpt lat="43.54013" lon="6.60807">
        <ele>404</ele>
        <time>2011-12-11T09:48:21Z</time>
      </trkpt>
      <trkpt lat="43.54012" lon="6.6081">
        <ele>404</ele>
        <time>2011-12-11T09:48:22Z</time>
      </trkpt>
      <trkpt lat="43.54012" lon="6.60814">
        <ele>404</ele>
        <time>2011-12-11T09:48:23Z</time>
      </trkpt>
      <trkpt lat="43.54012" lon="6.60817">
        <ele>404</ele>
        <time>2011-12-11T09:48:24Z</time>
      </trkpt>
      <trkpt lat="43.54011" lon="6.6082">
        <ele>404</ele>
        <time>2011-12-11T09:48:25Z</time>
      </trkpt>
      <trkpt lat="43.5401" lon="6.60823">
        <ele>404</ele>
        <time>2011-12-11T09:48:26Z</time>
      </trkpt>
      <trkpt lat="43.54009" lon="6.60827">
        <ele>405</ele>
        <time>2011-12-11T09:48:27Z</time>
      </trkpt>
      <trkpt lat="43.54008" lon="6.60831">
        <ele>405</ele>
        <time>2011-12-11T09:48:28Z</time>
      </trkpt>
      <trkpt lat="43.54006" lon="6.60834">
        <ele>405</ele>
        <time>2011-12-11T09:48:29Z</time>
      </trkpt>
      <trkpt lat="43.54004" lon="6.60838">
        <ele>405</ele>
        <time>2011-12-11T09:48:30Z</time>
      </trkpt>
      <trkpt lat="43.54002" lon="6.60842">
        <ele>405</ele>
        <time>2011-12-11T09:48:31Z</time>
      </trkpt>
      <trkpt lat="43.54001" lon="6.60845">
        <ele>405</ele>
        <time>2011-12-11T09:48:32Z</time>
      </trkpt>
      <trkpt lat="43.53999" lon="6.60849">
        <ele>405</ele>
        <time>2011-12-11T09:48:33Z</time>
      </trkpt>
      <trkpt lat="43.53998" lon="6.60852">
        <ele>405</ele>
        <time>2011-12-11T09:48:34Z</time>
      </trkpt>
      <trkpt lat="43.53996" lon="6.60855">
        <ele>405</ele>
        <time>2011-12-11T09:48:35Z</time>
      </trkpt>
      <trkpt lat="43.53994" lon="6.60858">
        <ele>405</ele>
        <time>2011-12-11T09:48:36Z</time>
      </trkpt>
      <trkpt lat="43.53993" lon="6.60862">
        <ele>405</ele>
        <time>2011-12-11T09:48:37Z</time>
      </trkpt>
      <trkpt lat="43.53991" lon="6.60865">
        <ele>405</ele>
        <time>2011-12-11T09:48:38Z</time>
      </trkpt>
      <trkpt lat="43.5399" lon="6.60868">
        <ele>405</ele>
        <time>2011-12-11T09:48:39Z</time>
      </trkpt>
      <trkpt lat="43.53988" lon="6.60871">
        <ele>405</ele>
        <time>2011-12-11T09:48:40Z</time>
      </trkpt>
      <trkpt lat="43.53987" lon="6.60874">
        <ele>405</ele>
        <time>2011-12-11T09:48:41Z</time>
      </trkpt>
      <trkpt lat="43.53985" lon="6.60877">
        <ele>405</ele>
        <time>2011-12-11T09:48:42Z</time>
      </trkpt>
      <trkpt lat="43.53984" lon="6.60881">
        <ele>405</ele>
        <time>2011-12-11T09:48:43Z</time>
      </trkpt>
      <trkpt lat="43.53982" lon="6.60884">
        <ele>405</ele>
        <time>2011-12-11T09:48:44Z</time>
      </trkpt>
      <trkpt lat="43.5398" lon="6.60888">
        <ele>405</ele>
        <time>2011-12-11T09:48:45Z</time>
      </trkpt>
      <trkpt lat="43.53979" lon="6.60891">
        <ele>405</ele>
        <time>2011-12-11T09:48:46Z</time>
      </trkpt>
      <trkpt lat="43.53977" lon="6.60895">
        <ele>405</ele>
        <time>2011-12-11T09:48:47Z</time>
      </trkpt>
      <trkpt lat="43.53976" lon="6.60898">
        <ele>405</ele>
        <time>2011-12-11T09:48:48Z</time>
      </trkpt>
      <trkpt lat="43.53974" lon="6.60902">
        <ele>405</ele>
        <time>2011-12-11T09:48:49Z</time>
      </trkpt>
      <trkpt lat="43.53972" lon="6.60906">
        <ele>405</ele>
        <time>2011-12-11T09:48:50Z</time>
      </trkpt>
      <trkpt lat="43.53971" lon="6.60909">
        <ele>405</ele>
        <time>2011-12-11T09:48:51Z</time>
      </trkpt>
      <trkpt lat="43.53969" lon="6.60913">
        <ele>405</ele>
        <time>2011-12-11T09:48:52Z</time>
      </trkpt>
      <trkpt lat="43.53967" lon="6.60917">
        <ele>405</ele>
        <time>2011-12-11T09:48:53Z</time>
      </trkpt>
      <trkpt lat="43.53966" lon="6.60921">
        <ele>405</ele>
        <time>2011-12-11T09:48:54Z</time>
      </trkpt>
      <trkpt lat="43.53964" lon="6.60925">
        <ele>405</ele>
        <time>2011-12-11T09:48:55Z</time>
      </trkpt>
      <trkpt lat="43.53963" lon="6.60929">
        <ele>405</ele>
        <time>2011-12-11T09:48:56Z</time>
      </trkpt>
      <trkpt lat="43.53962" lon="6.60933">
        <ele>405</ele>
        <time>2011-12-11T09:48:57Z</time>
      </trkpt>
      <trkpt lat="43.5396" lon="6.60937">
        <ele>404</ele>
        <time>2011-12-11T09:48:58Z</time>
      </trkpt>
      <trkpt lat="43.53959" lon="6.60942">
        <ele>404</ele>
        <time>2011-12-11T09:48:59Z</time>
      </trkpt>
      <trkpt lat="43.53958" lon="6.60946">
        <ele>404</ele>
        <time>2011-12-11T09:49:00Z</time>
      </trkpt>
      <trkpt lat="43.53957" lon="6.60951">
        <ele>403</ele>
        <time>2011-12-11T09:49:01Z</time>
      </trkpt>
      <trkpt lat="43.53955" lon="6.60956">
        <ele>403</ele>
        <time>2011-12-11T09:49:02Z</time>
      </trkpt>
      <trkpt lat="43.53954" lon="6.60961">
        <ele>403</ele>
        <time>2011-12-11T09:49:03Z</time>
      </trkpt>
      <trkpt lat="43.53953" lon="6.60966">
        <ele>402</ele>
        <time>2011-12-11T09:49:04Z</time>
      </trkpt>
      <trkpt lat="43.53952" lon="6.60971">
        <ele>402</ele>
        <time>2011-12-11T09:49:05Z</time>
      </trkpt>
      <trkpt lat="43.5395" lon="6.60977">
        <ele>402</ele>
        <time>2011-12-11T09:49:06Z</time>
      </trkpt>
      <trkpt lat="43.53948" lon="6.60983">
        <ele>402</ele>
        <time>2011-12-11T09:49:07Z</time>
      </trkpt>
      <trkpt lat="43.53946" lon="6.60988">
        <ele>401</ele>
        <time>2011-12-11T09:49:08Z</time>
      </trkpt>
      <trkpt lat="43.53945" lon="6.60994">
        <ele>401</ele>
        <time>2011-12-11T09:49:09Z</time>
      </trkpt>
      <trkpt lat="43.53942" lon="6.60999">
        <ele>401</ele>
        <time>2011-12-11T09:49:10Z</time>
      </trkpt>
      <trkpt lat="43.5394" lon="6.61004">
        <ele>401</ele>
        <time>2011-12-11T09:49:11Z</time>
      </trkpt>
      <trkpt lat="43.53937" lon="6.61008">
        <ele>401</ele>
        <time>2011-12-11T09:49:12Z</time>
      </trkpt>
      <trkpt lat="43.53934" lon="6.61013">
        <ele>401</ele>
        <time>2011-12-11T09:49:13Z</time>
      </trkpt>
      <trkpt lat="43.53932" lon="6.61017">
        <ele>401</ele>
        <time>2011-12-11T09:49:14Z</time>
      </trkpt>
      <trkpt lat="43.53929" lon="6.61021">
        <ele>401</ele>
        <time>2011-12-11T09:49:15Z</time>
      </trkpt>
      <trkpt lat="43.53927" lon="6.61025">
        <ele>400</ele>
        <time>2011-12-11T09:49:16Z</time>
      </trkpt>
      <trkpt lat="43.53925" lon="6.61029">
        <ele>400</ele>
        <time>2011-12-11T09:49:17Z</time>
      </trkpt>
      <trkpt lat="43.53923" lon="6.61034">
        <ele>400</ele>
        <time>2011-12-11T09:49:18Z</time>
      </trkpt>
      <trkpt lat="43.53921" lon="6.61039">
        <ele>400</ele>
        <time>2011-12-11T09:49:19Z</time>
      </trkpt>
      <trkpt lat="43.5392" lon="6.61044">
        <ele>400</ele>
        <time>2011-12-11T09:49:20Z</time>
      </trkpt>
      <trkpt lat="43.53918" lon="6.61048">
        <ele>399</ele>
        <time>2011-12-11T09:49:21Z</time>
      </trkpt>
      <trkpt lat="43.53917" lon="6.61053">
        <ele>399</ele>
        <time>2011-12-11T09:49:22Z</time>
      </trkpt>
      <trkpt lat="43.53915" lon="6.61057">
        <ele>399</ele>
        <time>2011-12-11T09:49:23Z</time>
      </trkpt>
      <trkpt lat="43.53912" lon="6.61062">
        <ele>398</ele>
        <time>2011-12-11T09:49:24Z</time>
      </trkpt>
      <trkpt lat="43.53909" lon="6.61065">
        <ele>398</ele>
        <time>2011-12-11T09:49:25Z</time>
      </trkpt>
      <trkpt lat="43.53906" lon="6.61068">
        <ele>398</ele>
        <time>2011-12-11T09:49:26Z</time>
      </trkpt>
      <trkpt lat="43.53902" lon="6.61071">
        <ele>397</ele>
        <time>2011-12-11T09:49:27Z</time>
      </trkpt>
      <trkpt lat="43.53898" lon="6.61074">
        <ele>397</ele>
        <time>2011-12-11T09:49:28Z</time>
      </trkpt>
      <trkpt lat="43.53893" lon="6.61076">
        <ele>397</ele>
        <time>2011-12-11T09:49:29Z</time>
      </trkpt>
      <trkpt lat="43.53889" lon="6.61076">
        <ele>396</ele>
        <time>2011-12-11T09:49:30Z</time>
      </trkpt>
      <trkpt lat="43.53884" lon="6.61077">
        <ele>396</ele>
        <time>2011-12-11T09:49:31Z</time>
      </trkpt>
      <trkpt lat="43.53879" lon="6.61077">
        <ele>396</ele>
        <time>2011-12-11T09:49:32Z</time>
      </trkpt>
      <trkpt lat="43.53875" lon="6.61078">
        <ele>396</ele>
        <time>2011-12-11T09:49:33Z</time>
      </trkpt>
      <trkpt lat="43.5387" lon="6.61078">
        <ele>396</ele>
        <time>2011-12-11T09:49:34Z</time>
      </trkpt>
      <trkpt lat="43.53866" lon="6.6108">
        <ele>395</ele>
        <time>2011-12-11T09:49:35Z</time>
      </trkpt>
      <trkpt lat="43.53861" lon="6.61082">
        <ele>395</ele>
        <time>2011-12-11T09:49:36Z</time>
      </trkpt>
      <trkpt lat="43.53857" lon="6.61084">
        <ele>395</ele>
        <time>2011-12-11T09:49:37Z</time>
      </trkpt>
      <trkpt lat="43.53853" lon="6.61087">
        <ele>395</ele>
        <time>2011-12-11T09:49:38Z</time>
      </trkpt>
      <trkpt lat="43.53849" lon="6.61091">
        <ele>394</ele>
        <time>2011-12-11T09:49:39Z</time>
      </trkpt>
      <trkpt lat="43.53846" lon="6.61094">
        <ele>394</ele>
        <time>2011-12-11T09:49:40Z</time>
      </trkpt>
      <trkpt lat="43.53842" lon="6.61098">
        <ele>394</ele>
        <time>2011-12-11T09:49:41Z</time>
      </trkpt>
      <trkpt lat="43.53839" lon="6.61103">
        <ele>394</ele>
        <time>2011-12-11T09:49:42Z</time>
      </trkpt>
      <trkpt lat="43.53836" lon="6.61106">
        <ele>394</ele>
        <time>2011-12-11T09:49:43Z</time>
      </trkpt>
      <trkpt lat="43.53833" lon="6.61111">
        <ele>394</ele>
        <time>2011-12-11T09:49:44Z</time>
      </trkpt>
      <trkpt lat="43.5383" lon="6.61115">
        <ele>393</ele>
        <time>2011-12-11T09:49:45Z</time>
      </trkpt>
      <trkpt lat="43.53828" lon="6.6112">
        <ele>393</ele>
        <time>2011-12-11T09:49:46Z</time>
      </trkpt>
      <trkpt lat="43.53825" lon="6.61125">
        <ele>393</ele>
        <time>2011-12-11T09:49:47Z</time>
      </trkpt>
      <trkpt lat="43.53823" lon="6.61131">
        <ele>392</ele>
        <time>2011-12-11T09:49:48Z</time>
      </trkpt>
      <trkpt lat="43.5382" lon="6.61136">
        <ele>392</ele>
        <time>2011-12-11T09:49:49Z</time>
      </trkpt>
      <trkpt lat="43.53817" lon="6.61142">
        <ele>392</ele>
        <time>2011-12-11T09:49:50Z</time>
      </trkpt>
      <trkpt lat="43.53814" lon="6.61148">
        <ele>392</ele>
        <time>2011-12-11T09:49:51Z</time>
      </trkpt>
      <trkpt lat="43.53812" lon="6.61153">
        <ele>392</ele>
        <time>2011-12-11T09:49:52Z</time>
      </trkpt>
      <trkpt lat="43.53809" lon="6.61159">
        <ele>392</ele>
        <time>2011-12-11T09:49:53Z</time>
      </trkpt>
      <trkpt lat="43.53806" lon="6.61164">
        <ele>392</ele>
        <time>2011-12-11T09:49:54Z</time>
      </trkpt>
      <trkpt lat="43.53804" lon="6.61169">
        <ele>392</ele>
        <time>2011-12-11T09:49:55Z</time>
      </trkpt>
      <trkpt lat="43.53802" lon="6.61175">
        <ele>391</ele>
        <time>2011-12-11T09:49:56Z</time>
      </trkpt>
      <trkpt lat="43.53799" lon="6.6118">
        <ele>391</ele>
        <time>2011-12-11T09:49:57Z</time>
      </trkpt>
      <trkpt lat="43.53797" lon="6.61186">
        <ele>391</ele>
        <time>2011-12-11T09:49:58Z</time>
      </trkpt>
      <trkpt lat="43.53795" lon="6.61191">
        <ele>391</ele>
        <time>2011-12-11T09:49:59Z</time>
      </trkpt>
      <trkpt lat="43.53792" lon="6.61197">
        <ele>391</ele>
        <time>2011-12-11T09:50:00Z</time>
      </trkpt>
      <trkpt lat="43.5379" lon="6.61204">
        <ele>391</ele>
        <time>2011-12-11T09:50:01Z</time>
      </trkpt>
      <trkpt lat="43.53788" lon="6.61209">
        <ele>390</ele>
        <time>2011-12-11T09:50:02Z</time>
      </trkpt>
      <trkpt lat="43.53786" lon="6.61214">
        <ele>390</ele>
        <time>2011-12-11T09:50:03Z</time>
      </trkpt>
      <trkpt lat="43.53783" lon="6.61219">
        <ele>390</ele>
        <time>2011-12-11T09:50:04Z</time>
      </trkpt>
      <trkpt lat="43.5378" lon="6.61223">
        <ele>390</ele>
        <time>2011-12-11T09:50:05Z</time>
      </trkpt>
      <trkpt lat="43.53777" lon="6.61226">
        <ele>390</ele>
        <time>2011-12-11T09:50:06Z</time>
      </trkpt>
      <trkpt lat="43.53773" lon="6.61228">
        <ele>390</ele>
        <time>2011-12-11T09:50:07Z</time>
      </trkpt>
      <trkpt lat="43.53769" lon="6.61229">
        <ele>390</ele>
        <time>2011-12-11T09:50:08Z</time>
      </trkpt>
      <trkpt lat="43.53765" lon="6.61229">
        <ele>390</ele>
        <time>2011-12-11T09:50:09Z</time>
      </trkpt>
      <trkpt lat="43.53762" lon="6.61229">
        <ele>390</ele>
        <time>2011-12-11T09:50:10Z</time>
      </trkpt>
      <trkpt lat="43.53758" lon="6.61229">
        <ele>389</ele>
        <time>2011-12-11T09:50:11Z</time>
      </trkpt>
      <trkpt lat="43.53754" lon="6.61229">
        <ele>389</ele>
        <time>2011-12-11T09:50:12Z</time>
      </trkpt>
      <trkpt lat="43.5375" lon="6.61229">
        <ele>389</ele>
        <time>2011-12-11T09:50:13Z</time>
      </trkpt>
      <trkpt lat="43.53746" lon="6.6123">
        <ele>389</ele>
        <time>2011-12-11T09:50:14Z</time>
      </trkpt>
      <trkpt lat="43.53743" lon="6.61232">
        <ele>389</ele>
        <time>2011-12-11T09:50:15Z</time>
      </trkpt>
      <trkpt lat="43.53739" lon="6.61234">
        <ele>389</ele>
        <time>2011-12-11T09:50:16Z</time>
      </trkpt>
      <trkpt lat="43.53735" lon="6.61236">
        <ele>389</ele>
        <time>2011-12-11T09:50:17Z</time>
      </trkpt>
      <trkpt lat="43.53732" lon="6.6124">
        <ele>389</ele>
        <time>2011-12-11T09:50:18Z</time>
      </trkpt>
      <trkpt lat="43.53729" lon="6.61244">
        <ele>388</ele>
        <time>2011-12-11T09:50:19Z</time>
      </trkpt>
      <trkpt lat="43.53727" lon="6.61248">
        <ele>388</ele>
        <time>2011-12-11T09:50:20Z</time>
      </trkpt>
      <trkpt lat="43.53725" lon="6.61253">
        <ele>388</ele>
        <time>2011-12-11T09:50:21Z</time>
      </trkpt>
      <trkpt lat="43.53723" lon="6.61258">
        <ele>387</ele>
        <time>2011-12-11T09:50:22Z</time>
      </trkpt>
      <trkpt lat="43.53721" lon="6.61263">
        <ele>387</ele>
        <time>2011-12-11T09:50:23Z</time>
      </trkpt>
      <trkpt lat="43.53718" lon="6.61269">
        <ele>387</ele>
        <time>2011-12-11T09:50:24Z</time>
      </trkpt>
      <trkpt lat="43.53716" lon="6.61274">
        <ele>386</ele>
        <time>2011-12-11T09:50:25Z</time>
      </trkpt>
      <trkpt lat="43.53712" lon="6.61278">
        <ele>386</ele>
        <time>2011-12-11T09:50:26Z</time>
      </trkpt>
      <trkpt lat="43.53707" lon="6.61279">
        <ele>386</ele>
        <time>2011-12-11T09:50:27Z</time>
      </trkpt>
      <trkpt lat="43.53703" lon="6.61279">
        <ele>386</ele>
        <time>2011-12-11T09:50:28Z</time>
      </trkpt>
      <trkpt lat="43.53699" lon="6.61277">
        <ele>386</ele>
        <time>2011-12-11T09:50:29Z</time>
      </trkpt>
      <trkpt lat="43.53695" lon="6.61274">
        <ele>386</ele>
        <time>2011-12-11T09:50:30Z</time>
      </trkpt>
      <trkpt lat="43.53691" lon="6.61272">
        <ele>386</ele>
        <time>2011-12-11T09:50:31Z</time>
      </trkpt>
      <trkpt lat="43.53687" lon="6.61271">
        <ele>386</ele>
        <time>2011-12-11T09:50:32Z</time>
      </trkpt>
      <trkpt lat="43.53682" lon="6.61271">
        <ele>386</ele>
        <time>2011-12-11T09:50:33Z</time>
      </trkpt>
      <trkpt lat="43.53678" lon="6.61271">
        <ele>385</ele>
        <time>2011-12-11T09:50:34Z</time>
      </trkpt>
      <trkpt lat="43.53673" lon="6.61272">
        <ele>385</ele>
        <time>2011-12-11T09:50:35Z</time>
      </trkpt>
      <trkpt lat="43.53669" lon="6.61275">
        <ele>385</ele>
        <time>2011-12-11T09:50:36Z</time>
      </trkpt>
      <trkpt lat="43.53664" lon="6.61277">
        <ele>384</ele>
        <time>2011-12-11T09:50:37Z</time>
      </trkpt>
      <trkpt lat="43.53608" lon="6.61284">
        <ele>382</ele>
        <time>2011-12-11T09:50:47Z</time>
      </trkpt>
      <trkpt lat="43.53552" lon="6.61259">
        <ele>379</ele>
        <time>2011-12-11T09:50:57Z</time>
      </trkpt>
      <trkpt lat="43.53495" lon="6.61258">
        <ele>377</ele>
        <time>2011-12-11T09:51:07Z</time>
      </trkpt>
      <trkpt lat="43.5345" lon="6.61281">
        <ele>376</ele>
        <time>2011-12-11T09:51:17Z</time>
      </trkpt>
      <trkpt lat="43.53447" lon="6.61284">
        <ele>376</ele>
        <time>2011-12-11T09:51:18Z</time>
      </trkpt>
      <trkpt lat="43.53443" lon="6.61285">
        <ele>375</ele>
        <time>2011-12-11T09:51:19Z</time>
      </trkpt>
      <trkpt lat="43.5344" lon="6.61287">
        <ele>375</ele>
        <time>2011-12-11T09:51:20Z</time>
      </trkpt>
      <trkpt lat="43.53438" lon="6.61289">
        <ele>375</ele>
        <time>2011-12-11T09:51:21Z</time>
      </trkpt>
      <trkpt lat="43.53432" lon="6.61293">
        <ele>375</ele>
        <time>2011-12-11T09:51:23Z</time>
      </trkpt>
      <trkpt lat="43.5343" lon="6.61295">
        <ele>374</ele>
        <time>2011-12-11T09:51:24Z</time>
      </trkpt>
      <trkpt lat="43.53427" lon="6.61297">
        <ele>374</ele>
        <time>2011-12-11T09:51:25Z</time>
      </trkpt>
      <trkpt lat="43.53422" lon="6.613">
        <ele>374</ele>
        <time>2011-12-11T09:51:27Z</time>
      </trkpt>
      <trkpt lat="43.53419" lon="6.61302">
        <ele>373</ele>
        <time>2011-12-11T09:51:28Z</time>
      </trkpt>
      <trkpt lat="43.53416" lon="6.61304">
        <ele>373</ele>
        <time>2011-12-11T09:51:29Z</time>
      </trkpt>
      <trkpt lat="43.53414" lon="6.61305">
        <ele>373</ele>
        <time>2011-12-11T09:51:30Z</time>
      </trkpt>
      <trkpt lat="43.53412" lon="6.61307">
        <ele>373</ele>
        <time>2011-12-11T09:51:31Z</time>
      </trkpt>
      <trkpt lat="43.53408" lon="6.61309">
        <ele>373</ele>
        <time>2011-12-11T09:51:33Z</time>
      </trkpt>
      <trkpt lat="43.53406" lon="6.61312">
        <ele>373</ele>
        <time>2011-12-11T09:51:34Z</time>
      </trkpt>
      <trkpt lat="43.53404" lon="6.61314">
        <ele>373</ele>
        <time>2011-12-11T09:51:35Z</time>
      </trkpt>
      <trkpt lat="43.534" lon="6.61319">
        <ele>372</ele>
        <time>2011-12-11T09:51:37Z</time>
      </trkpt>
      <trkpt lat="43.53398" lon="6.61322">
        <ele>372</ele>
        <time>2011-12-11T09:51:38Z</time>
      </trkpt>
      <trkpt lat="43.53397" lon="6.61326">
        <ele>372</ele>
        <time>2011-12-11T09:51:39Z</time>
      </trkpt>
      <trkpt lat="43.53394" lon="6.6133">
        <ele>372</ele>
        <time>2011-12-11T09:51:41Z</time>
      </trkpt>
      <trkpt lat="43.53392" lon="6.61333">
        <ele>372</ele>
        <time>2011-12-11T09:51:42Z</time>
      </trkpt>
      <trkpt lat="43.53389" lon="6.61336">
        <ele>371</ele>
        <time>2011-12-11T09:51:43Z</time>
      </trkpt>
      <trkpt lat="43.53387" lon="6.61339">
        <ele>371</ele>
        <time>2011-12-11T09:51:44Z</time>
      </trkpt>
      <trkpt lat="43.53384" lon="6.61342">
        <ele>371</ele>
        <time>2011-12-11T09:51:45Z</time>
      </trkpt>
      <trkpt lat="43.53382" lon="6.61344">
        <ele>371</ele>
        <time>2011-12-11T09:51:46Z</time>
      </trkpt>
      <trkpt lat="43.53379" lon="6.61347">
        <ele>371</ele>
        <time>2011-12-11T09:51:47Z</time>
      </trkpt>
      <trkpt lat="43.53377" lon="6.61349">
        <ele>371</ele>
        <time>2011-12-11T09:51:48Z</time>
      </trkpt>
      <trkpt lat="43.53375" lon="6.61352">
        <ele>371</ele>
        <time>2011-12-11T09:51:49Z</time>
      </trkpt>
      <trkpt lat="43.53373" lon="6.61356">
        <ele>371</ele>
        <time>2011-12-11T09:51:50Z</time>
      </trkpt>
      <trkpt lat="43.5337" lon="6.61359">
        <ele>370</ele>
        <time>2011-12-11T09:51:51Z</time>
      </trkpt>
      <trkpt lat="43.53368" lon="6.61363">
        <ele>370</ele>
        <time>2011-12-11T09:51:52Z</time>
      </trkpt>
      <trkpt lat="43.53366" lon="6.61367">
        <ele>370</ele>
        <time>2011-12-11T09:51:53Z</time>
      </trkpt>
      <trkpt lat="43.53364" lon="6.61372">
        <ele>370</ele>
        <time>2011-12-11T09:51:54Z</time>
      </trkpt>
      <trkpt lat="43.53362" lon="6.61375">
        <ele>370</ele>
        <time>2011-12-11T09:51:55Z</time>
      </trkpt>
      <trkpt lat="43.5336" lon="6.61379">
        <ele>369</ele>
        <time>2011-12-11T09:51:56Z</time>
      </trkpt>
      <trkpt lat="43.53357" lon="6.61382">
        <ele>369</ele>
        <time>2011-12-11T09:51:57Z</time>
      </trkpt>
      <trkpt lat="43.53355" lon="6.61387">
        <ele>369</ele>
        <time>2011-12-11T09:51:58Z</time>
      </trkpt>
      <trkpt lat="43.53352" lon="6.61392">
        <ele>369</ele>
        <time>2011-12-11T09:51:59Z</time>
      </trkpt>
      <trkpt lat="43.53349" lon="6.61396">
        <ele>369</ele>
        <time>2011-12-11T09:52:00Z</time>
      </trkpt>
      <trkpt lat="43.53346" lon="6.61401">
        <ele>369</ele>
        <time>2011-12-11T09:52:01Z</time>
      </trkpt>
      <trkpt lat="43.53343" lon="6.61406">
        <ele>369</ele>
        <time>2011-12-11T09:52:02Z</time>
      </trkpt>
      <trkpt lat="43.53341" lon="6.61411">
        <ele>369</ele>
        <time>2011-12-11T09:52:03Z</time>
      </trkpt>
      <trkpt lat="43.53338" lon="6.61416">
        <ele>369</ele>
        <time>2011-12-11T09:52:04Z</time>
      </trkpt>
      <trkpt lat="43.53336" lon="6.61422">
        <ele>368</ele>
        <time>2011-12-11T09:52:05Z</time>
      </trkpt>
      <trkpt lat="43.53334" lon="6.61428">
        <ele>368</ele>
        <time>2011-12-11T09:52:06Z</time>
      </trkpt>
      <trkpt lat="43.53332" lon="6.61434">
        <ele>368</ele>
        <time>2011-12-11T09:52:07Z</time>
      </trkpt>
      <trkpt lat="43.53331" lon="6.61441">
        <ele>368</ele>
        <time>2011-12-11T09:52:08Z</time>
      </trkpt>
      <trkpt lat="43.5333" lon="6.61448">
        <ele>368</ele>
        <time>2011-12-11T09:52:09Z</time>
      </trkpt>
      <trkpt lat="43.53329" lon="6.61455">
        <ele>368</ele>
        <time>2011-12-11T09:52:10Z</time>
      </trkpt>
      <trkpt lat="43.53329" lon="6.61461">
        <ele>368</ele>
        <time>2011-12-11T09:52:11Z</time>
      </trkpt>
      <trkpt lat="43.53329" lon="6.61468">
        <ele>368</ele>
        <time>2011-12-11T09:52:12Z</time>
      </trkpt>
      <trkpt lat="43.53329" lon="6.61474">
        <ele>368</ele>
        <time>2011-12-11T09:52:13Z</time>
      </trkpt>
      <trkpt lat="43.53329" lon="6.61481">
        <ele>368</ele>
        <time>2011-12-11T09:52:14Z</time>
      </trkpt>
      <trkpt lat="43.5333" lon="6.61487">
        <ele>368</ele>
        <time>2011-12-11T09:52:15Z</time>
      </trkpt>
      <trkpt lat="43.5333" lon="6.61493">
        <ele>368</ele>
        <time>2011-12-11T09:52:16Z</time>
      </trkpt>
      <trkpt lat="43.53331" lon="6.61498">
        <ele>369</ele>
        <time>2011-12-11T09:52:17Z</time>
      </trkpt>
      <trkpt lat="43.53332" lon="6.61503">
        <ele>369</ele>
        <time>2011-12-11T09:52:18Z</time>
      </trkpt>
      <trkpt lat="43.53333" lon="6.61508">
        <ele>369</ele>
        <time>2011-12-11T09:52:19Z</time>
      </trkpt>
      <trkpt lat="43.53334" lon="6.61511">
        <ele>369</ele>
        <time>2011-12-11T09:52:20Z</time>
      </trkpt>
      <trkpt lat="43.53334" lon="6.61515">
        <ele>369</ele>
        <time>2011-12-11T09:52:21Z</time>
      </trkpt>
      <trkpt lat="43.53335" lon="6.61518">
        <ele>369</ele>
        <time>2011-12-11T09:52:22Z</time>
      </trkpt>
      <trkpt lat="43.53335" lon="6.61522">
        <ele>370</ele>
        <time>2011-12-11T09:52:23Z</time>
      </trkpt>
      <trkpt lat="43.53336" lon="6.61525">
        <ele>370</ele>
        <time>2011-12-11T09:52:24Z</time>
      </trkpt>
      <trkpt lat="43.53337" lon="6.61529">
        <ele>370</ele>
        <time>2011-12-11T09:52:25Z</time>
      </trkpt>
      <trkpt lat="43.53337" lon="6.61532">
        <ele>370</ele>
        <time>2011-12-11T09:52:26Z</time>
      </trkpt>
      <trkpt lat="43.53338" lon="6.61536">
        <ele>370</ele>
        <time>2011-12-11T09:52:27Z</time>
      </trkpt>
      <trkpt lat="43.53338" lon="6.6154">
        <ele>370</ele>
        <time>2011-12-11T09:52:28Z</time>
      </trkpt>
      <trkpt lat="43.53338" lon="6.61544">
        <ele>370</ele>
        <time>2011-12-11T09:52:29Z</time>
      </trkpt>
      <trkpt lat="43.53339" lon="6.61548">
        <ele>370</ele>
        <time>2011-12-11T09:52:30Z</time>
      </trkpt>
      <trkpt lat="43.53339" lon="6.61552">
        <ele>370</ele>
        <time>2011-12-11T09:52:31Z</time>
      </trkpt>
      <trkpt lat="43.53339" lon="6.61555">
        <ele>370</ele>
        <time>2011-12-11T09:52:32Z</time>
      </trkpt>
      <trkpt lat="43.5334" lon="6.61559">
        <ele>370</ele>
        <time>2011-12-11T09:52:33Z</time>
      </trkpt>
      <trkpt lat="43.5334" lon="6.61563">
        <ele>370</ele>
        <time>2011-12-11T09:52:34Z</time>
      </trkpt>
      <trkpt lat="43.5334" lon="6.61567">
        <ele>370</ele>
        <time>2011-12-11T09:52:35Z</time>
      </trkpt>
      <trkpt lat="43.53341" lon="6.61571">
        <ele>370</ele>
        <time>2011-12-11T09:52:36Z</time>
      </trkpt>
      <trkpt lat="43.53341" lon="6.61574">
        <ele>370</ele>
        <time>2011-12-11T09:52:37Z</time>
      </trkpt>
      <trkpt lat="43.53341" lon="6.61578">
        <ele>370</ele>
        <time>2011-12-11T09:52:38Z</time>
      </trkpt>
      <trkpt lat="43.53341" lon="6.61582">
        <ele>370</ele>
        <time>2011-12-11T09:52:39Z</time>
      </trkpt>
      <trkpt lat="43.53341" lon="6.61586">
        <ele>370</ele>
        <time>2011-12-11T09:52:40Z</time>
      </trkpt>
      <trkpt lat="43.53342" lon="6.61589">
        <ele>370</ele>
        <time>2011-12-11T09:52:41Z</time>
      </trkpt>
      <trkpt lat="43.53342" lon="6.61593">
        <ele>370</ele>
        <time>2011-12-11T09:52:42Z</time>
      </trkpt>
      <trkpt lat="43.53342" lon="6.61597">
        <ele>370</ele>
        <time>2011-12-11T09:52:43Z</time>
      </trkpt>
      <trkpt lat="43.53343" lon="6.616">
        <ele>370</ele>
        <time>2011-12-11T09:52:44Z</time>
      </trkpt>
      <trkpt lat="43.53343" lon="6.61604">
        <ele>370</ele>
        <time>2011-12-11T09:52:45Z</time>
      </trkpt>
      <trkpt lat="43.53343" lon="6.61608">
        <ele>370</ele>
        <time>2011-12-11T09:52:46Z</time>
      </trkpt>
      <trkpt lat="43.53343" lon="6.61611">
        <ele>370</ele>
        <time>2011-12-11T09:52:47Z</time>
      </trkpt>
      <trkpt lat="43.53344" lon="6.61615">
        <ele>370</ele>
        <time>2011-12-11T09:52:48Z</time>
      </trkpt>
      <trkpt lat="43.53344" lon="6.61619">
        <ele>370</ele>
        <time>2011-12-11T09:52:49Z</time>
      </trkpt>
      <trkpt lat="43.53344" lon="6.61623">
        <ele>370</ele>
        <time>2011-12-11T09:52:50Z</time>
      </trkpt>
      <trkpt lat="43.53344" lon="6.61626">
        <ele>370</ele>
        <time>2011-12-11T09:52:51Z</time>
      </trkpt>
      <trkpt lat="43.53344" lon="6.6163">
        <ele>370</ele>
        <time>2011-12-11T09:52:52Z</time>
      </trkpt>
      <trkpt lat="43.53344" lon="6.61634">
        <ele>370</ele>
        <time>2011-12-11T09:52:53Z</time>
      </trkpt>
      <trkpt lat="43.53344" lon="6.61637">
        <ele>370</ele>
        <time>2011-12-11T09:52:54Z</time>
      </trkpt>
      <trkpt lat="43.53344" lon="6.6164">
        <ele>370</ele>
        <time>2011-12-11T09:52:55Z</time>
      </trkpt>
      <trkpt lat="43.53343" lon="6.61643">
        <ele>370</ele>
        <time>2011-12-11T09:52:56Z</time>
      </trkpt>
      <trkpt lat="43.53342" lon="6.61647">
        <ele>370</ele>
        <time>2011-12-11T09:52:57Z</time>
      </trkpt>
      <trkpt lat="43.53342" lon="6.6165">
        <ele>370</ele>
        <time>2011-12-11T09:52:58Z</time>
      </trkpt>
      <trkpt lat="43.53341" lon="6.61653">
        <ele>370</ele>
        <time>2011-12-11T09:52:59Z</time>
      </trkpt>
      <trkpt lat="43.5334" lon="6.61657">
        <ele>370</ele>
        <time>2011-12-11T09:53:00Z</time>
      </trkpt>
      <trkpt lat="43.53339" lon="6.6166">
        <ele>370</ele>
        <time>2011-12-11T09:53:01Z</time>
      </trkpt>
      <trkpt lat="43.53337" lon="6.61663">
        <ele>370</ele>
        <time>2011-12-11T09:53:02Z</time>
      </trkpt>
      <trkpt lat="43.53336" lon="6.61667">
        <ele>370</ele>
        <time>2011-12-11T09:53:03Z</time>
      </trkpt>
      <trkpt lat="43.53335" lon="6.6167">
        <ele>370</ele>
        <time>2011-12-11T09:53:04Z</time>
      </trkpt>
      <trkpt lat="43.53333" lon="6.61673">
        <ele>370</ele>
        <time>2011-12-11T09:53:05Z</time>
      </trkpt>
      <trkpt lat="43.53332" lon="6.61676">
        <ele>370</ele>
        <time>2011-12-11T09:53:06Z</time>
      </trkpt>
      <trkpt lat="43.5333" lon="6.61679">
        <ele>371</ele>
        <time>2011-12-11T09:53:07Z</time>
      </trkpt>
      <trkpt lat="43.53329" lon="6.61682">
        <ele>371</ele>
        <time>2011-12-11T09:53:08Z</time>
      </trkpt>
      <trkpt lat="43.53327" lon="6.61685">
        <ele>371</ele>
        <time>2011-12-11T09:53:09Z</time>
      </trkpt>
      <trkpt lat="43.53325" lon="6.61688">
        <ele>371</ele>
        <time>2011-12-11T09:53:10Z</time>
      </trkpt>
      <trkpt lat="43.53324" lon="6.61691">
        <ele>371</ele>
        <time>2011-12-11T09:53:11Z</time>
      </trkpt>
      <trkpt lat="43.53322" lon="6.61694">
        <ele>371</ele>
        <time>2011-12-11T09:53:12Z</time>
      </trkpt>
      <trkpt lat="43.53321" lon="6.61697">
        <ele>371</ele>
        <time>2011-12-11T09:53:13Z</time>
      </trkpt>
      <trkpt lat="43.5332" lon="6.617">
        <ele>371</ele>
        <time>2011-12-11T09:53:14Z</time>
      </trkpt>
      <trkpt lat="43.53318" lon="6.61704">
        <ele>371</ele>
        <time>2011-12-11T09:53:15Z</time>
      </trkpt>
      <trkpt lat="43.53318" lon="6.61707">
        <ele>371</ele>
        <time>2011-12-11T09:53:16Z</time>
      </trkpt>
      <trkpt lat="43.53317" lon="6.61711">
        <ele>371</ele>
        <time>2011-12-11T09:53:17Z</time>
      </trkpt>
      <trkpt lat="43.53317" lon="6.61715">
        <ele>371</ele>
        <time>2011-12-11T09:53:18Z</time>
      </trkpt>
      <trkpt lat="43.53317" lon="6.6172">
        <ele>371</ele>
        <time>2011-12-11T09:53:19Z</time>
      </trkpt>
      <trkpt lat="43.53318" lon="6.61724">
        <ele>371</ele>
        <time>2011-12-11T09:53:20Z</time>
      </trkpt>
      <trkpt lat="43.5332" lon="6.61728">
        <ele>371</ele>
        <time>2011-12-11T09:53:21Z</time>
      </trkpt>
      <trkpt lat="43.53322" lon="6.61732">
        <ele>371</ele>
        <time>2011-12-11T09:53:22Z</time>
      </trkpt>
      <trkpt lat="43.53324" lon="6.61735">
        <ele>370</ele>
        <time>2011-12-11T09:53:23Z</time>
      </trkpt>
      <trkpt lat="43.53326" lon="6.61739">
        <ele>370</ele>
        <time>2011-12-11T09:53:24Z</time>
      </trkpt>
      <trkpt lat="43.53328" lon="6.61742">
        <ele>370</ele>
        <time>2011-12-11T09:53:25Z</time>
      </trkpt>
      <trkpt lat="43.5333" lon="6.61747">
        <ele>370</ele>
        <time>2011-12-11T09:53:26Z</time>
      </trkpt>
      <trkpt lat="43.53331" lon="6.61752">
        <ele>370</ele>
        <time>2011-12-11T09:53:27Z</time>
      </trkpt>
      <trkpt lat="43.53332" lon="6.61757">
        <ele>369</ele>
        <time>2011-12-11T09:53:28Z</time>
      </trkpt>
      <trkpt lat="43.53331" lon="6.61762">
        <ele>369</ele>
        <time>2011-12-11T09:53:29Z</time>
      </trkpt>
      <trkpt lat="43.53328" lon="6.61767">
        <ele>369</ele>
        <time>2011-12-11T09:53:30Z</time>
      </trkpt>
      <trkpt lat="43.53326" lon="6.6177">
        <ele>369</ele>
        <time>2011-12-11T09:53:31Z</time>
      </trkpt>
      <trkpt lat="43.53323" lon="6.61774">
        <ele>369</ele>
        <time>2011-12-11T09:53:32Z</time>
      </trkpt>
      <trkpt lat="43.5332" lon="6.61777">
        <ele>369</ele>
        <time>2011-12-11T09:53:33Z</time>
      </trkpt>
      <trkpt lat="43.53318" lon="6.61782">
        <ele>368</ele>
        <time>2011-12-11T09:53:34Z</time>
      </trkpt>
      <trkpt lat="43.53316" lon="6.61787">
        <ele>368</ele>
        <time>2011-12-11T09:53:35Z</time>
      </trkpt>
      <trkpt lat="43.53314" lon="6.61792">
        <ele>368</ele>
        <time>2011-12-11T09:53:36Z</time>
      </trkpt>
      <trkpt lat="43.53313" lon="6.61797">
        <ele>367</ele>
        <time>2011-12-11T09:53:37Z</time>
      </trkpt>
      <trkpt lat="43.53313" lon="6.61804">
        <ele>367</ele>
        <time>2011-12-11T09:53:38Z</time>
      </trkpt>
      <trkpt lat="43.53313" lon="6.6181">
        <ele>367</ele>
        <time>2011-12-11T09:53:39Z</time>
      </trkpt>
      <trkpt lat="43.53313" lon="6.61817">
        <ele>367</ele>
        <time>2011-12-11T09:53:40Z</time>
      </trkpt>
      <trkpt lat="43.53314" lon="6.61823">
        <ele>367</ele>
        <time>2011-12-11T09:53:41Z</time>
      </trkpt>
      <trkpt lat="43.53316" lon="6.6183">
        <ele>366</ele>
        <time>2011-12-11T09:53:42Z</time>
      </trkpt>
      <trkpt lat="43.53318" lon="6.61836">
        <ele>366</ele>
        <time>2011-12-11T09:53:43Z</time>
      </trkpt>
      <trkpt lat="43.5332" lon="6.61842">
        <ele>366</ele>
        <time>2011-12-11T09:53:44Z</time>
      </trkpt>
      <trkpt lat="43.53323" lon="6.61848">
        <ele>366</ele>
        <time>2011-12-11T09:53:45Z</time>
      </trkpt>
      <trkpt lat="43.53325" lon="6.61853">
        <ele>366</ele>
        <time>2011-12-11T09:53:46Z</time>
      </trkpt>
      <trkpt lat="43.53327" lon="6.61858">
        <ele>366</ele>
        <time>2011-12-11T09:53:47Z</time>
      </trkpt>
      <trkpt lat="43.5333" lon="6.61864">
        <ele>366</ele>
        <time>2011-12-11T09:53:48Z</time>
      </trkpt>
      <trkpt lat="43.53332" lon="6.61868">
        <ele>366</ele>
        <time>2011-12-11T09:53:49Z</time>
      </trkpt>
      <trkpt lat="43.53335" lon="6.61873">
        <ele>366</ele>
        <time>2011-12-11T09:53:50Z</time>
      </trkpt>
      <trkpt lat="43.53337" lon="6.61878">
        <ele>365</ele>
        <time>2011-12-11T09:53:51Z</time>
      </trkpt>
      <trkpt lat="43.53339" lon="6.61882">
        <ele>365</ele>
        <time>2011-12-11T09:53:52Z</time>
      </trkpt>
      <trkpt lat="43.53342" lon="6.61887">
        <ele>365</ele>
        <time>2011-12-11T09:53:53Z</time>
      </trkpt>
      <trkpt lat="43.53345" lon="6.61891">
        <ele>365</ele>
        <time>2011-12-11T09:53:54Z</time>
      </trkpt>
      <trkpt lat="43.53348" lon="6.61895">
        <ele>365</ele>
        <time>2011-12-11T09:53:55Z</time>
      </trkpt>
      <trkpt lat="43.53351" lon="6.619">
        <ele>365</ele>
        <time>2011-12-11T09:53:56Z</time>
      </trkpt>
      <trkpt lat="43.53354" lon="6.61905">
        <ele>365</ele>
        <time>2011-12-11T09:53:57Z</time>
      </trkpt>
      <trkpt lat="43.53356" lon="6.6191">
        <ele>365</ele>
        <time>2011-12-11T09:53:58Z</time>
      </trkpt>
      <trkpt lat="43.53359" lon="6.61915">
        <ele>365</ele>
        <time>2011-12-11T09:53:59Z</time>
      </trkpt>
      <trkpt lat="43.53361" lon="6.61919">
        <ele>365</ele>
        <time>2011-12-11T09:54:00Z</time>
      </trkpt>
      <trkpt lat="43.53364" lon="6.61923">
        <ele>365</ele>
        <time>2011-12-11T09:54:01Z</time>
      </trkpt>
      <trkpt lat="43.53367" lon="6.61927">
        <ele>365</ele>
        <time>2011-12-11T09:54:02Z</time>
      </trkpt>
      <trkpt lat="43.5337" lon="6.61932">
        <ele>365</ele>
        <time>2011-12-11T09:54:03Z</time>
      </trkpt>
      <trkpt lat="43.53373" lon="6.61937">
        <ele>365</ele>
        <time>2011-12-11T09:54:04Z</time>
      </trkpt>
      <trkpt lat="43.53375" lon="6.61942">
        <ele>365</ele>
        <time>2011-12-11T09:54:05Z</time>
      </trkpt>
      <trkpt lat="43.53376" lon="6.61947">
        <ele>365</ele>
        <time>2011-12-11T09:54:06Z</time>
      </trkpt>
      <trkpt lat="43.53377" lon="6.61953">
        <ele>364</ele>
        <time>2011-12-11T09:54:07Z</time>
      </trkpt>
      <trkpt lat="43.53378" lon="6.61958">
        <ele>364</ele>
        <time>2011-12-11T09:54:08Z</time>
      </trkpt>
      <trkpt lat="43.53378" lon="6.61964">
        <ele>364</ele>
        <time>2011-12-11T09:54:09Z</time>
      </trkpt>
      <trkpt lat="43.53376" lon="6.61969">
        <ele>365</ele>
        <time>2011-12-11T09:54:10Z</time>
      </trkpt>
      <trkpt lat="43.53374" lon="6.61973">
        <ele>365</ele>
        <time>2011-12-11T09:54:11Z</time>
      </trkpt>
      <trkpt lat="43.53371" lon="6.61977">
        <ele>365</ele>
        <time>2011-12-11T09:54:12Z</time>
      </trkpt>
      <trkpt lat="43.53367" lon="6.6198">
        <ele>364</ele>
        <time>2011-12-11T09:54:13Z</time>
      </trkpt>
      <trkpt lat="43.53364" lon="6.61984">
        <ele>364</ele>
        <time>2011-12-11T09:54:14Z</time>
      </trkpt>
      <trkpt lat="43.5336" lon="6.61987">
        <ele>364</ele>
        <time>2011-12-11T09:54:15Z</time>
      </trkpt>
      <trkpt lat="43.53356" lon="6.6199">
        <ele>364</ele>
        <time>2011-12-11T09:54:16Z</time>
      </trkpt>
      <trkpt lat="43.53353" lon="6.61993">
        <ele>364</ele>
        <time>2011-12-11T09:54:17Z</time>
      </trkpt>
      <trkpt lat="43.53349" lon="6.61997">
        <ele>364</ele>
        <time>2011-12-11T09:54:18Z</time>
      </trkpt>
      <trkpt lat="43.53346" lon="6.62">
        <ele>364</ele>
        <time>2011-12-11T09:54:19Z</time>
      </trkpt>
      <trkpt lat="43.53342" lon="6.62002">
        <ele>364</ele>
        <time>2011-12-11T09:54:20Z</time>
      </trkpt>
      <trkpt lat="43.53339" lon="6.62005">
        <ele>363</ele>
        <time>2011-12-11T09:54:21Z</time>
      </trkpt>
      <trkpt lat="43.53336" lon="6.62008">
        <ele>363</ele>
        <time>2011-12-11T09:54:22Z</time>
      </trkpt>
      <trkpt lat="43.53333" lon="6.62011">
        <ele>363</ele>
        <time>2011-12-11T09:54:23Z</time>
      </trkpt>
      <trkpt lat="43.5333" lon="6.62014">
        <ele>363</ele>
        <time>2011-12-11T09:54:24Z</time>
      </trkpt>
      <trkpt lat="43.53327" lon="6.62017">
        <ele>363</ele>
        <time>2011-12-11T09:54:25Z</time>
      </trkpt>
      <trkpt lat="43.53323" lon="6.62021">
        <ele>363</ele>
        <time>2011-12-11T09:54:26Z</time>
      </trkpt>
      <trkpt lat="43.5332" lon="6.62024">
        <ele>362</ele>
        <time>2011-12-11T09:54:27Z</time>
      </trkpt>
      <trkpt lat="43.53317" lon="6.62027">
        <ele>362</ele>
        <time>2011-12-11T09:54:28Z</time>
      </trkpt>
      <trkpt lat="43.53314" lon="6.62031">
        <ele>362</ele>
        <time>2011-12-11T09:54:29Z</time>
      </trkpt>
      <trkpt lat="43.53311" lon="6.62034">
        <ele>362</ele>
        <time>2011-12-11T09:54:30Z</time>
      </trkpt>
      <trkpt lat="43.53307" lon="6.62038">
        <ele>362</ele>
        <time>2011-12-11T09:54:31Z</time>
      </trkpt>
      <trkpt lat="43.53304" lon="6.62042">
        <ele>362</ele>
        <time>2011-12-11T09:54:32Z</time>
      </trkpt>
      <trkpt lat="43.53302" lon="6.62046">
        <ele>362</ele>
        <time>2011-12-11T09:54:33Z</time>
      </trkpt>
      <trkpt lat="43.53299" lon="6.6205">
        <ele>362</ele>
        <time>2011-12-11T09:54:34Z</time>
      </trkpt>
      <trkpt lat="43.53296" lon="6.62054">
        <ele>362</ele>
        <time>2011-12-11T09:54:35Z</time>
      </trkpt>
      <trkpt lat="43.53293" lon="6.62058">
        <ele>362</ele>
        <time>2011-12-11T09:54:36Z</time>
      </trkpt>
      <trkpt lat="43.5329" lon="6.62063">
        <ele>362</ele>
        <time>2011-12-11T09:54:37Z</time>
      </trkpt>
      <trkpt lat="43.53288" lon="6.62067">
        <ele>362</ele>
        <time>2011-12-11T09:54:38Z</time>
      </trkpt>
      <trkpt lat="43.53285" lon="6.62071">
        <ele>362</ele>
        <time>2011-12-11T09:54:39Z</time>
      </trkpt>
      <trkpt lat="43.53283" lon="6.62075">
        <ele>362</ele>
        <time>2011-12-11T09:54:40Z</time>
      </trkpt>
      <trkpt lat="43.53281" lon="6.6208">
        <ele>362</ele>
        <time>2011-12-11T09:54:41Z</time>
      </trkpt>
      <trkpt lat="43.5328" lon="6.62085">
        <ele>362</ele>
        <time>2011-12-11T09:54:42Z</time>
      </trkpt>
      <trkpt lat="43.53278" lon="6.6209">
        <ele>362</ele>
        <time>2011-12-11T09:54:43Z</time>
      </trkpt>
      <trkpt lat="43.53277" lon="6.62096">
        <ele>362</ele>
        <time>2011-12-11T09:54:44Z</time>
      </trkpt>
      <trkpt lat="43.53276" lon="6.62101">
        <ele>362</ele>
        <time>2011-12-11T09:54:45Z</time>
      </trkpt>
      <trkpt lat="43.53276" lon="6.62107">
        <ele>361</ele>
        <time>2011-12-11T09:54:46Z</time>
      </trkpt>
      <trkpt lat="43.53275" lon="6.62113">
        <ele>361</ele>
        <time>2011-12-11T09:54:47Z</time>
      </trkpt>
      <trkpt lat="43.53273" lon="6.62119">
        <ele>361</ele>
        <time>2011-12-11T09:54:48Z</time>
      </trkpt>
      <trkpt lat="43.53271" lon="6.62125">
        <ele>361</ele>
        <time>2011-12-11T09:54:49Z</time>
      </trkpt>
      <trkpt lat="43.53269" lon="6.62129">
        <ele>361</ele>
        <time>2011-12-11T09:54:50Z</time>
      </trkpt>
      <trkpt lat="43.53266" lon="6.62134">
        <ele>361</ele>
        <time>2011-12-11T09:54:51Z</time>
      </trkpt>
      <trkpt lat="43.53262" lon="6.62138">
        <ele>361</ele>
        <time>2011-12-11T09:54:52Z</time>
      </trkpt>
      <trkpt lat="43.53259" lon="6.62143">
        <ele>361</ele>
        <time>2011-12-11T09:54:53Z</time>
      </trkpt>
      <trkpt lat="43.53255" lon="6.62148">
        <ele>361</ele>
        <time>2011-12-11T09:54:54Z</time>
      </trkpt>
      <trkpt lat="43.53253" lon="6.62153">
        <ele>361</ele>
        <time>2011-12-11T09:54:55Z</time>
      </trkpt>
      <trkpt lat="43.5325" lon="6.62158">
        <ele>360</ele>
        <time>2011-12-11T09:54:56Z</time>
      </trkpt>
      <trkpt lat="43.53248" lon="6.62163">
        <ele>360</ele>
        <time>2011-12-11T09:54:57Z</time>
      </trkpt>
      <trkpt lat="43.53246" lon="6.62168">
        <ele>360</ele>
        <time>2011-12-11T09:54:58Z</time>
      </trkpt>
      <trkpt lat="43.53244" lon="6.62174">
        <ele>360</ele>
        <time>2011-12-11T09:54:59Z</time>
      </trkpt>
      <trkpt lat="43.53242" lon="6.62179">
        <ele>360</ele>
        <time>2011-12-11T09:55:00Z</time>
      </trkpt>
      <trkpt lat="43.53241" lon="6.62185">
        <ele>360</ele>
        <time>2011-12-11T09:55:01Z</time>
      </trkpt>
      <trkpt lat="43.53241" lon="6.62191">
        <ele>360</ele>
        <time>2011-12-11T09:55:02Z</time>
      </trkpt>
      <trkpt lat="43.53242" lon="6.62197">
        <ele>359</ele>
        <time>2011-12-11T09:55:03Z</time>
      </trkpt>
      <trkpt lat="43.53243" lon="6.62203">
        <ele>359</ele>
        <time>2011-12-11T09:55:04Z</time>
      </trkpt>
      <trkpt lat="43.53244" lon="6.62209">
        <ele>359</ele>
        <time>2011-12-11T09:55:05Z</time>
      </trkpt>
      <trkpt lat="43.53245" lon="6.62214">
        <ele>359</ele>
        <time>2011-12-11T09:55:06Z</time>
      </trkpt>
      <trkpt lat="43.53246" lon="6.62219">
        <ele>359</ele>
        <time>2011-12-11T09:55:07Z</time>
      </trkpt>
      <trkpt lat="43.53245" lon="6.62224">
        <ele>359</ele>
        <time>2011-12-11T09:55:08Z</time>
      </trkpt>
      <trkpt lat="43.53244" lon="6.62228">
        <ele>359</ele>
        <time>2011-12-11T09:55:09Z</time>
      </trkpt>
      <trkpt lat="43.53241" lon="6.62231">
        <ele>358</ele>
        <time>2011-12-11T09:55:10Z</time>
      </trkpt>
      <trkpt lat="43.53238" lon="6.62233">
        <ele>358</ele>
        <time>2011-12-11T09:55:11Z</time>
      </trkpt>
      <trkpt lat="43.53234" lon="6.62232">
        <ele>358</ele>
        <time>2011-12-11T09:55:12Z</time>
      </trkpt>
      <trkpt lat="43.53231" lon="6.6223">
        <ele>358</ele>
        <time>2011-12-11T09:55:13Z</time>
      </trkpt>
      <trkpt lat="43.53228" lon="6.62228">
        <ele>358</ele>
        <time>2011-12-11T09:55:14Z</time>
      </trkpt>
      <trkpt lat="43.53226" lon="6.62225">
        <ele>358</ele>
        <time>2011-12-11T09:55:15Z</time>
      </trkpt>
      <trkpt lat="43.53224" lon="6.62223">
        <ele>358</ele>
        <time>2011-12-11T09:55:16Z</time>
      </trkpt>
      <trkpt lat="43.53221" lon="6.6222">
        <ele>357</ele>
        <time>2011-12-11T09:55:17Z</time>
      </trkpt>
      <trkpt lat="43.53219" lon="6.62218">
        <ele>357</ele>
        <time>2011-12-11T09:55:18Z</time>
      </trkpt>
      <trkpt lat="43.53216" lon="6.62215">
        <ele>357</ele>
        <time>2011-12-11T09:55:19Z</time>
      </trkpt>
      <trkpt lat="43.53213" lon="6.62213">
        <ele>357</ele>
        <time>2011-12-11T09:55:20Z</time>
      </trkpt>
      <trkpt lat="43.53211" lon="6.62211">
        <ele>357</ele>
        <time>2011-12-11T09:55:21Z</time>
      </trkpt>
      <trkpt lat="43.53209" lon="6.6221">
        <ele>356</ele>
        <time>2011-12-11T09:55:22Z</time>
      </trkpt>
      <trkpt lat="43.53206" lon="6.62207">
        <ele>356</ele>
        <time>2011-12-11T09:55:23Z</time>
      </trkpt>
      <trkpt lat="43.53204" lon="6.62205">
        <ele>356</ele>
        <time>2011-12-11T09:55:24Z</time>
      </trkpt>
      <trkpt lat="43.53201" lon="6.62203">
        <ele>355</ele>
        <time>2011-12-11T09:55:25Z</time>
      </trkpt>
      <trkpt lat="43.53197" lon="6.62202">
        <ele>355</ele>
        <time>2011-12-11T09:55:26Z</time>
      </trkpt>
      <trkpt lat="43.53193" lon="6.622">
        <ele>355</ele>
        <time>2011-12-11T09:55:27Z</time>
      </trkpt>
      <trkpt lat="43.5319" lon="6.62198">
        <ele>355</ele>
        <time>2011-12-11T09:55:28Z</time>
      </trkpt>
      <trkpt lat="43.53186" lon="6.62195">
        <ele>354</ele>
        <time>2011-12-11T09:55:29Z</time>
      </trkpt>
      <trkpt lat="43.53183" lon="6.62192">
        <ele>354</ele>
        <time>2011-12-11T09:55:30Z</time>
      </trkpt>
      <trkpt lat="43.53178" lon="6.6219">
        <ele>354</ele>
        <time>2011-12-11T09:55:31Z</time>
      </trkpt>
      <trkpt lat="43.53174" lon="6.62189">
        <ele>353</ele>
        <time>2011-12-11T09:55:32Z</time>
      </trkpt>
      <trkpt lat="43.53168" lon="6.62188">
        <ele>353</ele>
        <time>2011-12-11T09:55:33Z</time>
      </trkpt>
      <trkpt lat="43.53118" lon="6.62176">
        <ele>351</ele>
        <time>2011-12-11T09:55:43Z</time>
      </trkpt>
      <trkpt lat="43.53113" lon="6.62174">
        <ele>351</ele>
        <time>2011-12-11T09:55:44Z</time>
      </trkpt>
      <trkpt lat="43.53109" lon="6.62172">
        <ele>351</ele>
        <time>2011-12-11T09:55:45Z</time>
      </trkpt>
      <trkpt lat="43.53105" lon="6.62169">
        <ele>351</ele>
        <time>2011-12-11T09:55:46Z</time>
      </trkpt>
      <trkpt lat="43.53101" lon="6.62167">
        <ele>350</ele>
        <time>2011-12-11T09:55:47Z</time>
      </trkpt>
      <trkpt lat="43.53097" lon="6.62164">
        <ele>350</ele>
        <time>2011-12-11T09:55:48Z</time>
      </trkpt>
      <trkpt lat="43.53093" lon="6.6216">
        <ele>350</ele>
        <time>2011-12-11T09:55:49Z</time>
      </trkpt>
      <trkpt lat="43.5309" lon="6.62157">
        <ele>350</ele>
        <time>2011-12-11T09:55:50Z</time>
      </trkpt>
      <trkpt lat="43.53088" lon="6.62153">
        <ele>350</ele>
        <time>2011-12-11T09:55:51Z</time>
      </trkpt>
      <trkpt lat="43.53084" lon="6.6215">
        <ele>350</ele>
        <time>2011-12-11T09:55:52Z</time>
      </trkpt>
      <trkpt lat="43.53081" lon="6.62148">
        <ele>350</ele>
        <time>2011-12-11T09:55:53Z</time>
      </trkpt>
      <trkpt lat="43.53077" lon="6.62147">
        <ele>350</ele>
        <time>2011-12-11T09:55:54Z</time>
      </trkpt>
      <trkpt lat="43.53074" lon="6.62147">
        <ele>350</ele>
        <time>2011-12-11T09:55:55Z</time>
      </trkpt>
      <trkpt lat="43.5307" lon="6.62148">
        <ele>350</ele>
        <time>2011-12-11T09:55:56Z</time>
      </trkpt>
      <trkpt lat="43.53067" lon="6.6215">
        <ele>350</ele>
        <time>2011-12-11T09:55:57Z</time>
      </trkpt>
      <trkpt lat="43.53063" lon="6.62153">
        <ele>349</ele>
        <time>2011-12-11T09:55:58Z</time>
      </trkpt>
      <trkpt lat="43.5306" lon="6.62158">
        <ele>349</ele>
        <time>2011-12-11T09:55:59Z</time>
      </trkpt>
      <trkpt lat="43.53056" lon="6.62163">
        <ele>349</ele>
        <time>2011-12-11T09:56:00Z</time>
      </trkpt>
      <trkpt lat="43.53054" lon="6.62168">
        <ele>349</ele>
        <time>2011-12-11T09:56:01Z</time>
      </trkpt>
      <trkpt lat="43.53051" lon="6.62174">
        <ele>349</ele>
        <time>2011-12-11T09:56:02Z</time>
      </trkpt>
      <trkpt lat="43.53047" lon="6.62179">
        <ele>349</ele>
        <time>2011-12-11T09:56:03Z</time>
      </trkpt>
      <trkpt lat="43.53045" lon="6.62185">
        <ele>349</ele>
        <time>2011-12-11T09:56:04Z</time>
      </trkpt>
      <trkpt lat="43.53042" lon="6.6219">
        <ele>349</ele>
        <time>2011-12-11T09:56:05Z</time>
      </trkpt>
      <trkpt lat="43.5304" lon="6.62195">
        <ele>349</ele>
        <time>2011-12-11T09:56:06Z</time>
      </trkpt>
      <trkpt lat="43.53038" lon="6.622">
        <ele>348</ele>
        <time>2011-12-11T09:56:07Z</time>
      </trkpt>
      <trkpt lat="43.53036" lon="6.62205">
        <ele>348</ele>
        <time>2011-12-11T09:56:08Z</time>
      </trkpt>
      <trkpt lat="43.53034" lon="6.6221">
        <ele>348</ele>
        <time>2011-12-11T09:56:09Z</time>
      </trkpt>
      <trkpt lat="43.53033" lon="6.62214">
        <ele>348</ele>
        <time>2011-12-11T09:56:10Z</time>
      </trkpt>
      <trkpt lat="43.53032" lon="6.62219">
        <ele>348</ele>
        <time>2011-12-11T09:56:11Z</time>
      </trkpt>
      <trkpt lat="43.5303" lon="6.62224">
        <ele>348</ele>
        <time>2011-12-11T09:56:12Z</time>
      </trkpt>
      <trkpt lat="43.53029" lon="6.6223">
        <ele>348</ele>
        <time>2011-12-11T09:56:13Z</time>
      </trkpt>
      <trkpt lat="43.53029" lon="6.62235">
        <ele>348</ele>
        <time>2011-12-11T09:56:14Z</time>
      </trkpt>
      <trkpt lat="43.53028" lon="6.62241">
        <ele>348</ele>
        <time>2011-12-11T09:56:15Z</time>
      </trkpt>
      <trkpt lat="43.53026" lon="6.62246">
        <ele>348</ele>
        <time>2011-12-11T09:56:16Z</time>
      </trkpt>
      <trkpt lat="43.53024" lon="6.62251">
        <ele>347</ele>
        <time>2011-12-11T09:56:17Z</time>
      </trkpt>
      <trkpt lat="43.53022" lon="6.62255">
        <ele>347</ele>
        <time>2011-12-11T09:56:18Z</time>
      </trkpt>
      <trkpt lat="43.53019" lon="6.62259">
        <ele>348</ele>
        <time>2011-12-11T09:56:19Z</time>
      </trkpt>
      <trkpt lat="43.53016" lon="6.62262">
        <ele>348</ele>
        <time>2011-12-11T09:56:20Z</time>
      </trkpt>
      <trkpt lat="43.53012" lon="6.62264">
        <ele>348</ele>
        <time>2011-12-11T09:56:21Z</time>
      </trkpt>
      <trkpt lat="43.53008" lon="6.62265">
        <ele>348</ele>
        <time>2011-12-11T09:56:22Z</time>
      </trkpt>
      <trkpt lat="43.53004" lon="6.62266">
        <ele>348</ele>
        <time>2011-12-11T09:56:23Z</time>
      </trkpt>
      <trkpt lat="43.53" lon="6.62267">
        <ele>348</ele>
        <time>2011-12-11T09:56:24Z</time>
      </trkpt>
      <trkpt lat="43.52995" lon="6.62269">
        <ele>348</ele>
        <time>2011-12-11T09:56:25Z</time>
      </trkpt>
      <trkpt lat="43.52991" lon="6.6227">
        <ele>348</ele>
        <time>2011-12-11T09:56:26Z</time>
      </trkpt>
      <trkpt lat="43.52987" lon="6.62272">
        <ele>348</ele>
        <time>2011-12-11T09:56:27Z</time>
      </trkpt>
      <trkpt lat="43.52983" lon="6.62273">
        <ele>348</ele>
        <time>2011-12-11T09:56:28Z</time>
      </trkpt>
      <trkpt lat="43.52979" lon="6.62276">
        <ele>348</ele>
        <time>2011-12-11T09:56:29Z</time>
      </trkpt>
      <trkpt lat="43.52976" lon="6.62278">
        <ele>348</ele>
        <time>2011-12-11T09:56:30Z</time>
      </trkpt>
      <trkpt lat="43.52972" lon="6.6228">
        <ele>348</ele>
        <time>2011-12-11T09:56:31Z</time>
      </trkpt>
      <trkpt lat="43.52969" lon="6.62282">
        <ele>348</ele>
        <time>2011-12-11T09:56:32Z</time>
      </trkpt>
      <trkpt lat="43.52965" lon="6.62284">
        <ele>348</ele>
        <time>2011-12-11T09:56:33Z</time>
      </trkpt>
      <trkpt lat="43.52961" lon="6.62286">
        <ele>348</ele>
        <time>2011-12-11T09:56:34Z</time>
      </trkpt>
      <trkpt lat="43.52958" lon="6.62288">
        <ele>348</ele>
        <time>2011-12-11T09:56:35Z</time>
      </trkpt>
      <trkpt lat="43.52954" lon="6.62291">
        <ele>348</ele>
        <time>2011-12-11T09:56:36Z</time>
      </trkpt>
      <trkpt lat="43.52951" lon="6.62293">
        <ele>348</ele>
        <time>2011-12-11T09:56:37Z</time>
      </trkpt>
      <trkpt lat="43.52948" lon="6.62295">
        <ele>348</ele>
        <time>2011-12-11T09:56:38Z</time>
      </trkpt>
      <trkpt lat="43.52944" lon="6.62298">
        <ele>348</ele>
        <time>2011-12-11T09:56:39Z</time>
      </trkpt>
      <trkpt lat="43.52941" lon="6.62301">
        <ele>349</ele>
        <time>2011-12-11T09:56:40Z</time>
      </trkpt>
      <trkpt lat="43.52938" lon="6.62304">
        <ele>349</ele>
        <time>2011-12-11T09:56:41Z</time>
      </trkpt>
      <trkpt lat="43.52936" lon="6.62307">
        <ele>349</ele>
        <time>2011-12-11T09:56:42Z</time>
      </trkpt>
      <trkpt lat="43.52933" lon="6.62311">
        <ele>349</ele>
        <time>2011-12-11T09:56:43Z</time>
      </trkpt>
      <trkpt lat="43.52931" lon="6.62314">
        <ele>349</ele>
        <time>2011-12-11T09:56:44Z</time>
      </trkpt>
      <trkpt lat="43.52929" lon="6.62318">
        <ele>349</ele>
        <time>2011-12-11T09:56:45Z</time>
      </trkpt>
      <trkpt lat="43.52927" lon="6.62323">
        <ele>349</ele>
        <time>2011-12-11T09:56:46Z</time>
      </trkpt>
      <trkpt lat="43.52924" lon="6.62327">
        <ele>348</ele>
        <time>2011-12-11T09:56:47Z</time>
      </trkpt>
      <trkpt lat="43.52922" lon="6.62332">
        <ele>348</ele>
        <time>2011-12-11T09:56:48Z</time>
      </trkpt>
      <trkpt lat="43.52918" lon="6.62336">
        <ele>348</ele>
        <time>2011-12-11T09:56:49Z</time>
      </trkpt>
      <trkpt lat="43.52915" lon="6.6234">
        <ele>348</ele>
        <time>2011-12-11T09:56:50Z</time>
      </trkpt>
      <trkpt lat="43.52912" lon="6.62345">
        <ele>348</ele>
        <time>2011-12-11T09:56:51Z</time>
      </trkpt>
      <trkpt lat="43.52909" lon="6.62349">
        <ele>347</ele>
        <time>2011-12-11T09:56:52Z</time>
      </trkpt>
      <trkpt lat="43.52906" lon="6.62354">
        <ele>347</ele>
        <time>2011-12-11T09:56:53Z</time>
      </trkpt>
      <trkpt lat="43.52902" lon="6.6236">
        <ele>347</ele>
        <time>2011-12-11T09:56:54Z</time>
      </trkpt>
      <trkpt lat="43.52862" lon="6.62411">
        <ele>341</ele>
        <time>2011-12-11T09:57:04Z</time>
      </trkpt>
      <trkpt lat="43.52824" lon="6.62458">
        <ele>335</ele>
        <time>2011-12-11T09:57:14Z</time>
      </trkpt>
      <trkpt lat="43.5282" lon="6.62461">
        <ele>334</ele>
        <time>2011-12-11T09:57:15Z</time>
      </trkpt>
      <trkpt lat="43.52815" lon="6.62465">
        <ele>334</ele>
        <time>2011-12-11T09:57:16Z</time>
      </trkpt>
      <trkpt lat="43.52826" lon="6.62542">
        <ele>331</ele>
        <time>2011-12-11T09:57:26Z</time>
      </trkpt>
      <trkpt lat="43.52802" lon="6.62617">
        <ele>326</ele>
        <time>2011-12-11T09:57:36Z</time>
      </trkpt>
      <trkpt lat="43.52745" lon="6.6264">
        <ele>320</ele>
        <time>2011-12-11T09:57:46Z</time>
      </trkpt>
      <trkpt lat="43.52704" lon="6.62625">
        <ele>314</ele>
        <time>2011-12-11T09:57:56Z</time>
      </trkpt>
      <trkpt lat="43.52679" lon="6.62527">
        <ele>310</ele>
        <time>2011-12-11T09:58:06Z</time>
      </trkpt>
      <trkpt lat="43.52652" lon="6.62546">
        <ele>310</ele>
        <time>2011-12-11T09:58:16Z</time>
      </trkpt>
      <trkpt lat="43.52669" lon="6.62628">
        <ele>307</ele>
        <time>2011-12-11T09:58:26Z</time>
      </trkpt>
      <trkpt lat="43.52673" lon="6.62724">
        <ele>303</ele>
        <time>2011-12-11T09:58:36Z</time>
      </trkpt>
      <trkpt lat="43.52661" lon="6.62803">
        <ele>297</ele>
        <time>2011-12-11T09:58:46Z</time>
      </trkpt>
      <trkpt lat="43.52595" lon="6.62815">
        <ele>294</ele>
        <time>2011-12-11T09:58:56Z</time>
      </trkpt>
      <trkpt lat="43.5255" lon="6.62827">
        <ele>293</ele>
        <time>2011-12-11T09:59:06Z</time>
      </trkpt>
      <trkpt lat="43.52548" lon="6.6283">
        <ele>293</ele>
        <time>2011-12-11T09:59:07Z</time>
      </trkpt>
      <trkpt lat="43.52546" lon="6.62833">
        <ele>293</ele>
        <time>2011-12-11T09:59:08Z</time>
      </trkpt>
      <trkpt lat="43.52543" lon="6.62836">
        <ele>292</ele>
        <time>2011-12-11T09:59:09Z</time>
      </trkpt>
      <trkpt lat="43.52541" lon="6.62838">
        <ele>292</ele>
        <time>2011-12-11T09:59:10Z</time>
      </trkpt>
      <trkpt lat="43.52538" lon="6.62841">
        <ele>292</ele>
        <time>2011-12-11T09:59:11Z</time>
      </trkpt>
      <trkpt lat="43.52535" lon="6.62844">
        <ele>292</ele>
        <time>2011-12-11T09:59:12Z</time>
      </trkpt>
      <trkpt lat="43.52533" lon="6.62848">
        <ele>292</ele>
        <time>2011-12-11T09:59:13Z</time>
      </trkpt>
      <trkpt lat="43.52531" lon="6.62852">
        <ele>292</ele>
        <time>2011-12-11T09:59:14Z</time>
      </trkpt>
      <trkpt lat="43.52529" lon="6.62857">
        <ele>292</ele>
        <time>2011-12-11T09:59:15Z</time>
      </trkpt>
      <trkpt lat="43.52527" lon="6.62861">
        <ele>292</ele>
        <time>2011-12-11T09:59:16Z</time>
      </trkpt>
      <trkpt lat="43.52525" lon="6.62866">
        <ele>292</ele>
        <time>2011-12-11T09:59:17Z</time>
      </trkpt>
      <trkpt lat="43.52523" lon="6.6287">
        <ele>292</ele>
        <time>2011-12-11T09:59:18Z</time>
      </trkpt>
      <trkpt lat="43.52521" lon="6.62874">
        <ele>292</ele>
        <time>2011-12-11T09:59:19Z</time>
      </trkpt>
      <trkpt lat="43.52519" lon="6.62879">
        <ele>292</ele>
        <time>2011-12-11T09:59:20Z</time>
      </trkpt>
      <trkpt lat="43.52517" lon="6.62884">
        <ele>292</ele>
        <time>2011-12-11T09:59:21Z</time>
      </trkpt>
      <trkpt lat="43.52514" lon="6.62888">
        <ele>292</ele>
        <time>2011-12-11T09:59:22Z</time>
      </trkpt>
      <trkpt lat="43.52511" lon="6.62893">
        <ele>291</ele>
        <time>2011-12-11T09:59:23Z</time>
      </trkpt>
      <trkpt lat="43.52509" lon="6.62897">
        <ele>291</ele>
        <time>2011-12-11T09:59:24Z</time>
      </trkpt>
      <trkpt lat="43.52505" lon="6.62902">
        <ele>291</ele>
        <time>2011-12-11T09:59:25Z</time>
      </trkpt>
      <trkpt lat="43.52502" lon="6.62906">
        <ele>291</ele>
        <time>2011-12-11T09:59:26Z</time>
      </trkpt>
      <trkpt lat="43.52498" lon="6.62911">
        <ele>290</ele>
        <time>2011-12-11T09:59:27Z</time>
      </trkpt>
      <trkpt lat="43.52494" lon="6.62915">
        <ele>290</ele>
        <time>2011-12-11T09:59:28Z</time>
      </trkpt>
      <trkpt lat="43.5249" lon="6.62919">
        <ele>289</ele>
        <time>2011-12-11T09:59:29Z</time>
      </trkpt>
      <trkpt lat="43.52487" lon="6.62923">
        <ele>289</ele>
        <time>2011-12-11T09:59:30Z</time>
      </trkpt>
      <trkpt lat="43.52483" lon="6.62927">
        <ele>288</ele>
        <time>2011-12-11T09:59:31Z</time>
      </trkpt>
      <trkpt lat="43.52478" lon="6.62931">
        <ele>287</ele>
        <time>2011-12-11T09:59:32Z</time>
      </trkpt>
      <trkpt lat="43.52429" lon="6.62993">
        <ele>280</ele>
        <time>2011-12-11T09:59:42Z</time>
      </trkpt>
      <trkpt lat="43.52405" lon="6.63058">
        <ele>278</ele>
        <time>2011-12-11T09:59:52Z</time>
      </trkpt>
      <trkpt lat="43.52405" lon="6.63065">
        <ele>277</ele>
        <time>2011-12-11T09:59:53Z</time>
      </trkpt>
      <trkpt lat="43.52384" lon="6.63153">
        <ele>269</ele>
        <time>2011-12-11T10:00:03Z</time>
      </trkpt>
      <trkpt lat="43.52366" lon="6.63215">
        <ele>269</ele>
        <time>2011-12-11T10:00:13Z</time>
      </trkpt>
      <trkpt lat="43.52365" lon="6.63219">
        <ele>269</ele>
        <time>2011-12-11T10:00:14Z</time>
      </trkpt>
      <trkpt lat="43.52364" lon="6.63223">
        <ele>270</ele>
        <time>2011-12-11T10:00:15Z</time>
      </trkpt>
      <trkpt lat="43.52363" lon="6.63227">
        <ele>270</ele>
        <time>2011-12-11T10:00:16Z</time>
      </trkpt>
      <trkpt lat="43.52362" lon="6.63231">
        <ele>270</ele>
        <time>2011-12-11T10:00:17Z</time>
      </trkpt>
      <trkpt lat="43.52361" lon="6.63236">
        <ele>270</ele>
        <time>2011-12-11T10:00:18Z</time>
      </trkpt>
      <trkpt lat="43.52359" lon="6.6324">
        <ele>270</ele>
        <time>2011-12-11T10:00:19Z</time>
      </trkpt>
      <trkpt lat="43.52358" lon="6.63244">
        <ele>270</ele>
        <time>2011-12-11T10:00:20Z</time>
      </trkpt>
      <trkpt lat="43.52357" lon="6.63248">
        <ele>270</ele>
        <time>2011-12-11T10:00:21Z</time>
      </trkpt>
      <trkpt lat="43.52356" lon="6.63252">
        <ele>271</ele>
        <time>2011-12-11T10:00:22Z</time>
      </trkpt>
      <trkpt lat="43.52354" lon="6.63256">
        <ele>271</ele>
        <time>2011-12-11T10:00:23Z</time>
      </trkpt>
      <trkpt lat="43.52353" lon="6.6326">
        <ele>271</ele>
        <time>2011-12-11T10:00:24Z</time>
      </trkpt>
      <trkpt lat="43.52352" lon="6.63264">
        <ele>272</ele>
        <time>2011-12-11T10:00:25Z</time>
      </trkpt>
      <trkpt lat="43.52351" lon="6.63269">
        <ele>272</ele>
        <time>2011-12-11T10:00:26Z</time>
      </trkpt>
      <trkpt lat="43.5235" lon="6.63273">
        <ele>272</ele>
        <time>2011-12-11T10:00:27Z</time>
      </trkpt>
      <trkpt lat="43.52348" lon="6.63276">
        <ele>272</ele>
        <time>2011-12-11T10:00:28Z</time>
      </trkpt>
      <trkpt lat="43.52347" lon="6.6328">
        <ele>273</ele>
        <time>2011-12-11T10:00:29Z</time>
      </trkpt>
      <trkpt lat="43.52346" lon="6.63284">
        <ele>273</ele>
        <time>2011-12-11T10:00:30Z</time>
      </trkpt>
      <trkpt lat="43.52346" lon="6.63288">
        <ele>273</ele>
        <time>2011-12-11T10:00:31Z</time>
      </trkpt>
      <trkpt lat="43.52345" lon="6.63291">
        <ele>273</ele>
        <time>2011-12-11T10:00:32Z</time>
      </trkpt>
      <trkpt lat="43.52344" lon="6.63295">
        <ele>273</ele>
        <time>2011-12-11T10:00:33Z</time>
      </trkpt>
      <trkpt lat="43.52342" lon="6.63299">
        <ele>273</ele>
        <time>2011-12-11T10:00:34Z</time>
      </trkpt>
      <trkpt lat="43.52342" lon="6.63302">
        <ele>274</ele>
        <time>2011-12-11T10:00:35Z</time>
      </trkpt>
      <trkpt lat="43.52341" lon="6.63306">
        <ele>274</ele>
        <time>2011-12-11T10:00:36Z</time>
      </trkpt>
      <trkpt lat="43.5234" lon="6.6331">
        <ele>274</ele>
        <time>2011-12-11T10:00:37Z</time>
      </trkpt>
      <trkpt lat="43.52339" lon="6.63314">
        <ele>274</ele>
        <time>2011-12-11T10:00:38Z</time>
      </trkpt>
      <trkpt lat="43.52337" lon="6.63317">
        <ele>274</ele>
        <time>2011-12-11T10:00:39Z</time>
      </trkpt>
      <trkpt lat="43.52336" lon="6.63321">
        <ele>274</ele>
        <time>2011-12-11T10:00:40Z</time>
      </trkpt>
      <trkpt lat="43.52335" lon="6.63325">
        <ele>274</ele>
        <time>2011-12-11T10:00:41Z</time>
      </trkpt>
      <trkpt lat="43.52334" lon="6.63329">
        <ele>275</ele>
        <time>2011-12-11T10:00:42Z</time>
      </trkpt>
      <trkpt lat="43.52333" lon="6.63333">
        <ele>275</ele>
        <time>2011-12-11T10:00:43Z</time>
      </trkpt>
      <trkpt lat="43.52332" lon="6.63337">
        <ele>275</ele>
        <time>2011-12-11T10:00:44Z</time>
      </trkpt>
      <trkpt lat="43.52332" lon="6.63341">
        <ele>275</ele>
        <time>2011-12-11T10:00:45Z</time>
      </trkpt>
      <trkpt lat="43.52332" lon="6.63345">
        <ele>275</ele>
        <time>2011-12-11T10:00:46Z</time>
      </trkpt>
      <trkpt lat="43.52332" lon="6.6335">
        <ele>275</ele>
        <time>2011-12-11T10:00:47Z</time>
      </trkpt>
      <trkpt lat="43.52332" lon="6.63354">
        <ele>275</ele>
        <time>2011-12-11T10:00:48Z</time>
      </trkpt>
      <trkpt lat="43.52332" lon="6.63358">
        <ele>275</ele>
        <time>2011-12-11T10:00:49Z</time>
      </trkpt>
      <trkpt lat="43.52333" lon="6.63363">
        <ele>274</ele>
        <time>2011-12-11T10:00:50Z</time>
      </trkpt>
      <trkpt lat="43.52334" lon="6.63367">
        <ele>274</ele>
        <time>2011-12-11T10:00:51Z</time>
      </trkpt>
      <trkpt lat="43.52335" lon="6.63372">
        <ele>274</ele>
        <time>2011-12-11T10:00:52Z</time>
      </trkpt>
      <trkpt lat="43.52337" lon="6.63376">
        <ele>274</ele>
        <time>2011-12-11T10:00:53Z</time>
      </trkpt>
      <trkpt lat="43.52338" lon="6.63381">
        <ele>274</ele>
        <time>2011-12-11T10:00:54Z</time>
      </trkpt>
      <trkpt lat="43.5234" lon="6.63386">
        <ele>274</ele>
        <time>2011-12-11T10:00:55Z</time>
      </trkpt>
      <trkpt lat="43.52341" lon="6.63391">
        <ele>273</ele>
        <time>2011-12-11T10:00:56Z</time>
      </trkpt>
      <trkpt lat="43.52343" lon="6.63397">
        <ele>273</ele>
        <time>2011-12-11T10:00:57Z</time>
      </trkpt>
      <trkpt lat="43.52344" lon="6.63403">
        <ele>273</ele>
        <time>2011-12-11T10:00:58Z</time>
      </trkpt>
      <trkpt lat="43.52345" lon="6.63409">
        <ele>273</ele>
        <time>2011-12-11T10:00:59Z</time>
      </trkpt>
      <trkpt lat="43.52346" lon="6.63416">
        <ele>272</ele>
        <time>2011-12-11T10:01:00Z</time>
      </trkpt>
      <trkpt lat="43.52346" lon="6.63423">
        <ele>272</ele>
        <time>2011-12-11T10:01:01Z</time>
      </trkpt>
      <trkpt lat="43.52346" lon="6.6343">
        <ele>272</ele>
        <time>2011-12-11T10:01:02Z</time>
      </trkpt>
      <trkpt lat="43.52346" lon="6.63437">
        <ele>271</ele>
        <time>2011-12-11T10:01:03Z</time>
      </trkpt>
      <trkpt lat="43.52345" lon="6.63444">
        <ele>271</ele>
        <time>2011-12-11T10:01:04Z</time>
      </trkpt>
      <trkpt lat="43.52344" lon="6.63452">
        <ele>271</ele>
        <time>2011-12-11T10:01:05Z</time>
      </trkpt>
      <trkpt lat="43.52344" lon="6.63459">
        <ele>271</ele>
        <time>2011-12-11T10:01:06Z</time>
      </trkpt>
      <trkpt lat="43.52342" lon="6.63465">
        <ele>271</ele>
        <time>2011-12-11T10:01:07Z</time>
      </trkpt>
      <trkpt lat="43.52342" lon="6.63472">
        <ele>271</ele>
        <time>2011-12-11T10:01:08Z</time>
      </trkpt>
      <trkpt lat="43.52341" lon="6.63479">
        <ele>271</ele>
        <time>2011-12-11T10:01:09Z</time>
      </trkpt>
      <trkpt lat="43.5234" lon="6.63484">
        <ele>270</ele>
        <time>2011-12-11T10:01:10Z</time>
      </trkpt>
      <trkpt lat="43.52339" lon="6.63488">
        <ele>270</ele>
        <time>2011-12-11T10:01:11Z</time>
      </trkpt>
      <trkpt lat="43.52338" lon="6.63492">
        <ele>270</ele>
        <time>2011-12-11T10:01:12Z</time>
      </trkpt>
      <trkpt lat="43.52337" lon="6.63495">
        <ele>270</ele>
        <time>2011-12-11T10:01:13Z</time>
      </trkpt>
      <trkpt lat="43.52335" lon="6.635">
        <ele>270</ele>
        <time>2011-12-11T10:01:14Z</time>
      </trkpt>
      <trkpt lat="43.52335" lon="6.63505">
        <ele>270</ele>
        <time>2011-12-11T10:01:15Z</time>
      </trkpt>
      <trkpt lat="43.52335" lon="6.63511">
        <ele>270</ele>
        <time>2011-12-11T10:01:16Z</time>
      </trkpt>
      <trkpt lat="43.52335" lon="6.63516">
        <ele>270</ele>
        <time>2011-12-11T10:01:17Z</time>
      </trkpt>
      <trkpt lat="43.52335" lon="6.63523">
        <ele>270</ele>
        <time>2011-12-11T10:01:18Z</time>
      </trkpt>
      <trkpt lat="43.52335" lon="6.63529">
        <ele>270</ele>
        <time>2011-12-11T10:01:19Z</time>
      </trkpt>
      <trkpt lat="43.52336" lon="6.63535">
        <ele>270</ele>
        <time>2011-12-11T10:01:20Z</time>
      </trkpt>
      <trkpt lat="43.52336" lon="6.63541">
        <ele>270</ele>
        <time>2011-12-11T10:01:21Z</time>
      </trkpt>
      <trkpt lat="43.52336" lon="6.63547">
        <ele>270</ele>
        <time>2011-12-11T10:01:22Z</time>
      </trkpt>
      <trkpt lat="43.52336" lon="6.63554">
        <ele>270</ele>
        <time>2011-12-11T10:01:23Z</time>
      </trkpt>
      <trkpt lat="43.52336" lon="6.6356">
        <ele>270</ele>
        <time>2011-12-11T10:01:24Z</time>
      </trkpt>
      <trkpt lat="43.52336" lon="6.63566">
        <ele>270</ele>
        <time>2011-12-11T10:01:25Z</time>
      </trkpt>
      <trkpt lat="43.52335" lon="6.63572">
        <ele>270</ele>
        <time>2011-12-11T10:01:26Z</time>
      </trkpt>
      <trkpt lat="43.52335" lon="6.63578">
        <ele>270</ele>
        <time>2011-12-11T10:01:27Z</time>
      </trkpt>
      <trkpt lat="43.52335" lon="6.63583">
        <ele>270</ele>
        <time>2011-12-11T10:01:28Z</time>
      </trkpt>
      <trkpt lat="43.52335" lon="6.63589">
        <ele>270</ele>
        <time>2011-12-11T10:01:29Z</time>
      </trkpt>
      <trkpt lat="43.52334" lon="6.63594">
        <ele>270</ele>
        <time>2011-12-11T10:01:30Z</time>
      </trkpt>
      <trkpt lat="43.52333" lon="6.63599">
        <ele>270</ele>
        <time>2011-12-11T10:01:31Z</time>
      </trkpt>
      <trkpt lat="43.52332" lon="6.63604">
        <ele>270</ele>
        <time>2011-12-11T10:01:32Z</time>
      </trkpt>
      <trkpt lat="43.52331" lon="6.6361">
        <ele>270</ele>
        <time>2011-12-11T10:01:33Z</time>
      </trkpt>
      <trkpt lat="43.52329" lon="6.63614">
        <ele>270</ele>
        <time>2011-12-11T10:01:34Z</time>
      </trkpt>
      <trkpt lat="43.52328" lon="6.63619">
        <ele>270</ele>
        <time>2011-12-11T10:01:35Z</time>
      </trkpt>
      <trkpt lat="43.52326" lon="6.63624">
        <ele>271</ele>
        <time>2011-12-11T10:01:36Z</time>
      </trkpt>
      <trkpt lat="43.52324" lon="6.63628">
        <ele>271</ele>
        <time>2011-12-11T10:01:37Z</time>
      </trkpt>
      <trkpt lat="43.52322" lon="6.63632">
        <ele>271</ele>
        <time>2011-12-11T10:01:38Z</time>
      </trkpt>
      <trkpt lat="43.52321" lon="6.63636">
        <ele>271</ele>
        <time>2011-12-11T10:01:39Z</time>
      </trkpt>
      <trkpt lat="43.52319" lon="6.6364">
        <ele>271</ele>
        <time>2011-12-11T10:01:40Z</time>
      </trkpt>
      <trkpt lat="43.52317" lon="6.63643">
        <ele>272</ele>
        <time>2011-12-11T10:01:41Z</time>
      </trkpt>
      <trkpt lat="43.52316" lon="6.63647">
        <ele>272</ele>
        <time>2011-12-11T10:01:42Z</time>
      </trkpt>
      <trkpt lat="43.52314" lon="6.6365">
        <ele>272</ele>
        <time>2011-12-11T10:01:43Z</time>
      </trkpt>
      <trkpt lat="43.52311" lon="6.63652">
        <ele>272</ele>
        <time>2011-12-11T10:01:44Z</time>
      </trkpt>
      <trkpt lat="43.52308" lon="6.63655">
        <ele>272</ele>
        <time>2011-12-11T10:01:45Z</time>
      </trkpt>
      <trkpt lat="43.52305" lon="6.63658">
        <ele>273</ele>
        <time>2011-12-11T10:01:46Z</time>
      </trkpt>
      <trkpt lat="43.52303" lon="6.6366">
        <ele>273</ele>
        <time>2011-12-11T10:01:47Z</time>
      </trkpt>
      <trkpt lat="43.523" lon="6.63663">
        <ele>273</ele>
        <time>2011-12-11T10:01:48Z</time>
      </trkpt>
      <trkpt lat="43.52298" lon="6.63666">
        <ele>274</ele>
        <time>2011-12-11T10:01:49Z</time>
      </trkpt>
      <trkpt lat="43.52296" lon="6.63669">
        <ele>274</ele>
        <time>2011-12-11T10:01:50Z</time>
      </trkpt>
      <trkpt lat="43.52294" lon="6.63672">
        <ele>274</ele>
        <time>2011-12-11T10:01:51Z</time>
      </trkpt>
      <trkpt lat="43.52292" lon="6.63676">
        <ele>275</ele>
        <time>2011-12-11T10:01:52Z</time>
      </trkpt>
      <trkpt lat="43.5229" lon="6.6368">
        <ele>275</ele>
        <time>2011-12-11T10:01:53Z</time>
      </trkpt>
      <trkpt lat="43.52289" lon="6.63684">
        <ele>275</ele>
        <time>2011-12-11T10:01:54Z</time>
      </trkpt>
      <trkpt lat="43.52288" lon="6.63688">
        <ele>276</ele>
        <time>2011-12-11T10:01:55Z</time>
      </trkpt>
      <trkpt lat="43.52288" lon="6.63693">
        <ele>276</ele>
        <time>2011-12-11T10:01:56Z</time>
      </trkpt>
      <trkpt lat="43.52287" lon="6.63697">
        <ele>276</ele>
        <time>2011-12-11T10:01:57Z</time>
      </trkpt>
      <trkpt lat="43.52287" lon="6.63701">
        <ele>277</ele>
        <time>2011-12-11T10:01:58Z</time>
      </trkpt>
      <trkpt lat="43.52287" lon="6.63706">
        <ele>277</ele>
        <time>2011-12-11T10:01:59Z</time>
      </trkpt>
      <trkpt lat="43.52287" lon="6.63711">
        <ele>277</ele>
        <time>2011-12-11T10:02:00Z</time>
      </trkpt>
      <trkpt lat="43.52288" lon="6.63715">
        <ele>277</ele>
        <time>2011-12-11T10:02:01Z</time>
      </trkpt>
      <trkpt lat="43.52288" lon="6.63719">
        <ele>277</ele>
        <time>2011-12-11T10:02:02Z</time>
      </trkpt>
      <trkpt lat="43.52289" lon="6.63723">
        <ele>278</ele>
        <time>2011-12-11T10:02:03Z</time>
      </trkpt>
      <trkpt lat="43.52289" lon="6.63727">
        <ele>278</ele>
        <time>2011-12-11T10:02:04Z</time>
      </trkpt>
      <trkpt lat="43.5229" lon="6.63731">
        <ele>278</ele>
        <time>2011-12-11T10:02:05Z</time>
      </trkpt>
      <trkpt lat="43.52291" lon="6.63735">
        <ele>278</ele>
        <time>2011-12-11T10:02:06Z</time>
      </trkpt>
      <trkpt lat="43.52291" lon="6.63739">
        <ele>278</ele>
        <time>2011-12-11T10:02:07Z</time>
      </trkpt>
      <trkpt lat="43.52291" lon="6.63742">
        <ele>279</ele>
        <time>2011-12-11T10:02:08Z</time>
      </trkpt>
      <trkpt lat="43.52292" lon="6.63746">
        <ele>279</ele>
        <time>2011-12-11T10:02:09Z</time>
      </trkpt>
      <trkpt lat="43.52293" lon="6.6375">
        <ele>279</ele>
        <time>2011-12-11T10:02:10Z</time>
      </trkpt>
      <trkpt lat="43.52293" lon="6.63753">
        <ele>279</ele>
        <time>2011-12-11T10:02:11Z</time>
      </trkpt>
      <trkpt lat="43.52293" lon="6.63756">
        <ele>279</ele>
        <time>2011-12-11T10:02:12Z</time>
      </trkpt>
      <trkpt lat="43.52294" lon="6.6376">
        <ele>279</ele>
        <time>2011-12-11T10:02:13Z</time>
      </trkpt>
      <trkpt lat="43.52295" lon="6.63763">
        <ele>279</ele>
        <time>2011-12-11T10:02:14Z</time>
      </trkpt>
      <trkpt lat="43.52295" lon="6.63766">
        <ele>280</ele>
        <time>2011-12-11T10:02:15Z</time>
      </trkpt>
      <trkpt lat="43.52295" lon="6.63769">
        <ele>280</ele>
        <time>2011-12-11T10:02:16Z</time>
      </trkpt>
      <trkpt lat="43.52296" lon="6.63772">
        <ele>280</ele>
        <time>2011-12-11T10:02:17Z</time>
      </trkpt>
      <trkpt lat="43.52296" lon="6.63775">
        <ele>281</ele>
        <time>2011-12-11T10:02:18Z</time>
      </trkpt>
      <trkpt lat="43.52297" lon="6.63778">
        <ele>281</ele>
        <time>2011-12-11T10:02:19Z</time>
      </trkpt>
      <trkpt lat="43.52297" lon="6.63782">
        <ele>281</ele>
        <time>2011-12-11T10:02:20Z</time>
      </trkpt>
      <trkpt lat="43.52297" lon="6.63785">
        <ele>281</ele>
        <time>2011-12-11T10:02:21Z</time>
      </trkpt>
      <trkpt lat="43.52298" lon="6.63788">
        <ele>281</ele>
        <time>2011-12-11T10:02:22Z</time>
      </trkpt>
      <trkpt lat="43.52298" lon="6.63791">
        <ele>281</ele>
        <time>2011-12-11T10:02:23Z</time>
      </trkpt>
      <trkpt lat="43.52298" lon="6.63794">
        <ele>282</ele>
        <time>2011-12-11T10:02:24Z</time>
      </trkpt>
      <trkpt lat="43.52298" lon="6.63797">
        <ele>282</ele>
        <time>2011-12-11T10:02:25Z</time>
      </trkpt>
      <trkpt lat="43.52299" lon="6.638">
        <ele>282</ele>
        <time>2011-12-11T10:02:26Z</time>
      </trkpt>
      <trkpt lat="43.52299" lon="6.63803">
        <ele>282</ele>
        <time>2011-12-11T10:02:27Z</time>
      </trkpt>
      <trkpt lat="43.52299" lon="6.63805">
        <ele>282</ele>
        <time>2011-12-11T10:02:28Z</time>
      </trkpt>
      <trkpt lat="43.523" lon="6.63808">
        <ele>282</ele>
        <time>2011-12-11T10:02:29Z</time>
      </trkpt>
      <trkpt lat="43.523" lon="6.63811">
        <ele>283</ele>
        <time>2011-12-11T10:02:30Z</time>
      </trkpt>
      <trkpt lat="43.523" lon="6.63814">
        <ele>283</ele>
        <time>2011-12-11T10:02:31Z</time>
      </trkpt>
      <trkpt lat="43.52301" lon="6.63817">
        <ele>283</ele>
        <time>2011-12-11T10:02:32Z</time>
      </trkpt>
      <trkpt lat="43.52303" lon="6.6382">
        <ele>283</ele>
        <time>2011-12-11T10:02:33Z</time>
      </trkpt>
      <trkpt lat="43.52304" lon="6.63823">
        <ele>283</ele>
        <time>2011-12-11T10:02:34Z</time>
      </trkpt>
      <trkpt lat="43.52304" lon="6.63827">
        <ele>283</ele>
        <time>2011-12-11T10:02:35Z</time>
      </trkpt>
      <trkpt lat="43.52305" lon="6.6383">
        <ele>284</ele>
        <time>2011-12-11T10:02:36Z</time>
      </trkpt>
      <trkpt lat="43.52305" lon="6.63833">
        <ele>284</ele>
        <time>2011-12-11T10:02:37Z</time>
      </trkpt>
      <trkpt lat="43.52306" lon="6.63836">
        <ele>284</ele>
        <time>2011-12-11T10:02:38Z</time>
      </trkpt>
      <trkpt lat="43.52307" lon="6.63839">
        <ele>284</ele>
        <time>2011-12-11T10:02:39Z</time>
      </trkpt>
      <trkpt lat="43.52307" lon="6.63842">
        <ele>284</ele>
        <time>2011-12-11T10:02:40Z</time>
      </trkpt>
      <trkpt lat="43.52308" lon="6.63845">
        <ele>285</ele>
        <time>2011-12-11T10:02:41Z</time>
      </trkpt>
      <trkpt lat="43.52309" lon="6.63848">
        <ele>285</ele>
        <time>2011-12-11T10:02:42Z</time>
      </trkpt>
      <trkpt lat="43.5231" lon="6.63851">
        <ele>285</ele>
        <time>2011-12-11T10:02:43Z</time>
      </trkpt>
      <trkpt lat="43.52311" lon="6.63854">
        <ele>285</ele>
        <time>2011-12-11T10:02:44Z</time>
      </trkpt>
      <trkpt lat="43.52312" lon="6.63857">
        <ele>285</ele>
        <time>2011-12-11T10:02:45Z</time>
      </trkpt>
      <trkpt lat="43.52313" lon="6.6386">
        <ele>285</ele>
        <time>2011-12-11T10:02:46Z</time>
      </trkpt>
      <trkpt lat="43.52314" lon="6.63863">
        <ele>285</ele>
        <time>2011-12-11T10:02:47Z</time>
      </trkpt>
      <trkpt lat="43.52314" lon="6.63866">
        <ele>285</ele>
        <time>2011-12-11T10:02:48Z</time>
      </trkpt>
      <trkpt lat="43.52315" lon="6.63869">
        <ele>285</ele>
        <time>2011-12-11T10:02:49Z</time>
      </trkpt>
      <trkpt lat="43.52315" lon="6.63872">
        <ele>286</ele>
        <time>2011-12-11T10:02:50Z</time>
      </trkpt>
      <trkpt lat="43.52315" lon="6.63876">
        <ele>286</ele>
        <time>2011-12-11T10:02:51Z</time>
      </trkpt>
      <trkpt lat="43.52316" lon="6.63879">
        <ele>286</ele>
        <time>2011-12-11T10:02:52Z</time>
      </trkpt>
      <trkpt lat="43.52316" lon="6.63883">
        <ele>286</ele>
        <time>2011-12-11T10:02:53Z</time>
      </trkpt>
      <trkpt lat="43.52315" lon="6.63887">
        <ele>286</ele>
        <time>2011-12-11T10:02:54Z</time>
      </trkpt>
      <trkpt lat="43.52315" lon="6.6389">
        <ele>287</ele>
        <time>2011-12-11T10:02:55Z</time>
      </trkpt>
      <trkpt lat="43.52315" lon="6.63894">
        <ele>287</ele>
        <time>2011-12-11T10:02:56Z</time>
      </trkpt>
      <trkpt lat="43.52314" lon="6.63897">
        <ele>287</ele>
        <time>2011-12-11T10:02:57Z</time>
      </trkpt>
      <trkpt lat="43.52314" lon="6.639">
        <ele>287</ele>
        <time>2011-12-11T10:02:58Z</time>
      </trkpt>
      <trkpt lat="43.52313" lon="6.63904">
        <ele>288</ele>
        <time>2011-12-11T10:02:59Z</time>
      </trkpt>
      <trkpt lat="43.52312" lon="6.63907">
        <ele>288</ele>
        <time>2011-12-11T10:03:00Z</time>
      </trkpt>
      <trkpt lat="43.52312" lon="6.6391">
        <ele>289</ele>
        <time>2011-12-11T10:03:01Z</time>
      </trkpt>
      <trkpt lat="43.52311" lon="6.63913">
        <ele>289</ele>
        <time>2011-12-11T10:03:02Z</time>
      </trkpt>
      <trkpt lat="43.5231" lon="6.63916">
        <ele>289</ele>
        <time>2011-12-11T10:03:03Z</time>
      </trkpt>
      <trkpt lat="43.52309" lon="6.63918">
        <ele>289</ele>
        <time>2011-12-11T10:03:04Z</time>
      </trkpt>
      <trkpt lat="43.52308" lon="6.63921">
        <ele>289</ele>
        <time>2011-12-11T10:03:05Z</time>
      </trkpt>
      <trkpt lat="43.52307" lon="6.63924">
        <ele>289</ele>
        <time>2011-12-11T10:03:06Z</time>
      </trkpt>
      <trkpt lat="43.52305" lon="6.63926">
        <ele>289</ele>
        <time>2011-12-11T10:03:07Z</time>
      </trkpt>
      <trkpt lat="43.52303" lon="6.63928">
        <ele>289</ele>
        <time>2011-12-11T10:03:08Z</time>
      </trkpt>
      <trkpt lat="43.52301" lon="6.6393">
        <ele>290</ele>
        <time>2011-12-11T10:03:09Z</time>
      </trkpt>
      <trkpt lat="43.52299" lon="6.63931">
        <ele>290</ele>
        <time>2011-12-11T10:03:10Z</time>
      </trkpt>
      <trkpt lat="43.52298" lon="6.63932">
        <ele>291</ele>
        <time>2011-12-11T10:03:11Z</time>
      </trkpt>
      <trkpt lat="43.52295" lon="6.63933">
        <ele>291</ele>
        <time>2011-12-11T10:03:12Z</time>
      </trkpt>
      <trkpt lat="43.52293" lon="6.63932">
        <ele>292</ele>
        <time>2011-12-11T10:03:13Z</time>
      </trkpt>
      <trkpt lat="43.52291" lon="6.63932">
        <ele>292</ele>
        <time>2011-12-11T10:03:14Z</time>
      </trkpt>
      <trkpt lat="43.52289" lon="6.63931">
        <ele>292</ele>
        <time>2011-12-11T10:03:15Z</time>
      </trkpt>
      <trkpt lat="43.52287" lon="6.6393">
        <ele>293</ele>
        <time>2011-12-11T10:03:16Z</time>
      </trkpt>
      <trkpt lat="43.52285" lon="6.6393">
        <ele>293</ele>
        <time>2011-12-11T10:03:17Z</time>
      </trkpt>
      <trkpt lat="43.52283" lon="6.63929">
        <ele>293</ele>
        <time>2011-12-11T10:03:18Z</time>
      </trkpt>
      <trkpt lat="43.52281" lon="6.63929">
        <ele>293</ele>
        <time>2011-12-11T10:03:19Z</time>
      </trkpt>
      <trkpt lat="43.52279" lon="6.63929">
        <ele>293</ele>
        <time>2011-12-11T10:03:20Z</time>
      </trkpt>
      <trkpt lat="43.52277" lon="6.63928">
        <ele>293</ele>
        <time>2011-12-11T10:03:21Z</time>
      </trkpt>
      <trkpt lat="43.52274" lon="6.63927">
        <ele>294</ele>
        <time>2011-12-11T10:03:22Z</time>
      </trkpt>
      <trkpt lat="43.52272" lon="6.63926">
        <ele>294</ele>
        <time>2011-12-11T10:03:23Z</time>
      </trkpt>
      <trkpt lat="43.5227" lon="6.63926">
        <ele>294</ele>
        <time>2011-12-11T10:03:24Z</time>
      </trkpt>
      <trkpt lat="43.52267" lon="6.63927">
        <ele>294</ele>
        <time>2011-12-11T10:03:25Z</time>
      </trkpt>
      <trkpt lat="43.52265" lon="6.63927">
        <ele>295</ele>
        <time>2011-12-11T10:03:26Z</time>
      </trkpt>
      <trkpt lat="43.52262" lon="6.63928">
        <ele>295</ele>
        <time>2011-12-11T10:03:27Z</time>
      </trkpt>
      <trkpt lat="43.5226" lon="6.63929">
        <ele>296</ele>
        <time>2011-12-11T10:03:28Z</time>
      </trkpt>
      <trkpt lat="43.52257" lon="6.63929">
        <ele>296</ele>
        <time>2011-12-11T10:03:29Z</time>
      </trkpt>
      <trkpt lat="43.52254" lon="6.63931">
        <ele>297</ele>
        <time>2011-12-11T10:03:30Z</time>
      </trkpt>
      <trkpt lat="43.52251" lon="6.63932">
        <ele>297</ele>
        <time>2011-12-11T10:03:31Z</time>
      </trkpt>
      <trkpt lat="43.52248" lon="6.63934">
        <ele>297</ele>
        <time>2011-12-11T10:03:32Z</time>
      </trkpt>
      <trkpt lat="43.52246" lon="6.63935">
        <ele>298</ele>
        <time>2011-12-11T10:03:33Z</time>
      </trkpt>
      <trkpt lat="43.52243" lon="6.63938">
        <ele>298</ele>
        <time>2011-12-11T10:03:34Z</time>
      </trkpt>
      <trkpt lat="43.52241" lon="6.6394">
        <ele>298</ele>
        <time>2011-12-11T10:03:35Z</time>
      </trkpt>
      <trkpt lat="43.52238" lon="6.63942">
        <ele>298</ele>
        <time>2011-12-11T10:03:36Z</time>
      </trkpt>
      <trkpt lat="43.52236" lon="6.63945">
        <ele>298</ele>
        <time>2011-12-11T10:03:37Z</time>
      </trkpt>
      <trkpt lat="43.52233" lon="6.63947">
        <ele>299</ele>
        <time>2011-12-11T10:03:38Z</time>
      </trkpt>
      <trkpt lat="43.52231" lon="6.63949">
        <ele>299</ele>
        <time>2011-12-11T10:03:39Z</time>
      </trkpt>
      <trkpt lat="43.52229" lon="6.63952">
        <ele>299</ele>
        <time>2011-12-11T10:03:40Z</time>
      </trkpt>
      <trkpt lat="43.52226" lon="6.63955">
        <ele>299</ele>
        <time>2011-12-11T10:03:41Z</time>
      </trkpt>
      <trkpt lat="43.52224" lon="6.63957">
        <ele>299</ele>
        <time>2011-12-11T10:03:42Z</time>
      </trkpt>
      <trkpt lat="43.52222" lon="6.6396">
        <ele>299</ele>
        <time>2011-12-11T10:03:43Z</time>
      </trkpt>
      <trkpt lat="43.5222" lon="6.63963">
        <ele>300</ele>
        <time>2011-12-11T10:03:44Z</time>
      </trkpt>
      <trkpt lat="43.52218" lon="6.63966">
        <ele>300</ele>
        <time>2011-12-11T10:03:45Z</time>
      </trkpt>
      <trkpt lat="43.52216" lon="6.63969">
        <ele>300</ele>
        <time>2011-12-11T10:03:46Z</time>
      </trkpt>
      <trkpt lat="43.52214" lon="6.63971">
        <ele>300</ele>
        <time>2011-12-11T10:03:47Z</time>
      </trkpt>
      <trkpt lat="43.52212" lon="6.63974">
        <ele>300</ele>
        <time>2011-12-11T10:03:48Z</time>
      </trkpt>
      <trkpt lat="43.5221" lon="6.63977">
        <ele>300</ele>
        <time>2011-12-11T10:03:49Z</time>
      </trkpt>
      <trkpt lat="43.52208" lon="6.63979">
        <ele>301</ele>
        <time>2011-12-11T10:03:50Z</time>
      </trkpt>
      <trkpt lat="43.52206" lon="6.63981">
        <ele>301</ele>
        <time>2011-12-11T10:03:51Z</time>
      </trkpt>
      <trkpt lat="43.52204" lon="6.63984">
        <ele>301</ele>
        <time>2011-12-11T10:03:52Z</time>
      </trkpt>
      <trkpt lat="43.52203" lon="6.63986">
        <ele>301</ele>
        <time>2011-12-11T10:03:53Z</time>
      </trkpt>
      <trkpt lat="43.52201" lon="6.63988">
        <ele>302</ele>
        <time>2011-12-11T10:03:54Z</time>
      </trkpt>
      <trkpt lat="43.52199" lon="6.6399">
        <ele>302</ele>
        <time>2011-12-11T10:03:55Z</time>
      </trkpt>
      <trkpt lat="43.52198" lon="6.63993">
        <ele>302</ele>
        <time>2011-12-11T10:03:56Z</time>
      </trkpt>
      <trkpt lat="43.52197" lon="6.63995">
        <ele>302</ele>
        <time>2011-12-11T10:03:57Z</time>
      </trkpt>
      <trkpt lat="43.52195" lon="6.63997">
        <ele>303</ele>
        <time>2011-12-11T10:03:58Z</time>
      </trkpt>
      <trkpt lat="43.52194" lon="6.64">
        <ele>303</ele>
        <time>2011-12-11T10:03:59Z</time>
      </trkpt>
      <trkpt lat="43.52192" lon="6.64002">
        <ele>303</ele>
        <time>2011-12-11T10:04:00Z</time>
      </trkpt>
      <trkpt lat="43.52191" lon="6.64005">
        <ele>304</ele>
        <time>2011-12-11T10:04:01Z</time>
      </trkpt>
      <trkpt lat="43.5219" lon="6.64008">
        <ele>304</ele>
        <time>2011-12-11T10:04:02Z</time>
      </trkpt>
      <trkpt lat="43.52189" lon="6.64011">
        <ele>304</ele>
        <time>2011-12-11T10:04:03Z</time>
      </trkpt>
      <trkpt lat="43.52188" lon="6.64014">
        <ele>304</ele>
        <time>2011-12-11T10:04:04Z</time>
      </trkpt>
      <trkpt lat="43.52187" lon="6.64018">
        <ele>304</ele>
        <time>2011-12-11T10:04:05Z</time>
      </trkpt>
      <trkpt lat="43.52187" lon="6.64021">
        <ele>304</ele>
        <time>2011-12-11T10:04:06Z</time>
      </trkpt>
      <trkpt lat="43.52186" lon="6.64024">
        <ele>304</ele>
        <time>2011-12-11T10:04:07Z</time>
      </trkpt>
      <trkpt lat="43.52185" lon="6.64027">
        <ele>304</ele>
        <time>2011-12-11T10:04:08Z</time>
      </trkpt>
      <trkpt lat="43.52185" lon="6.6403">
        <ele>304</ele>
        <time>2011-12-11T10:04:09Z</time>
      </trkpt>
      <trkpt lat="43.52184" lon="6.64034">
        <ele>304</ele>
        <time>2011-12-11T10:04:10Z</time>
      </trkpt>
      <trkpt lat="43.52183" lon="6.64037">
        <ele>304</ele>
        <time>2011-12-11T10:04:11Z</time>
      </trkpt>
      <trkpt lat="43.52183" lon="6.6404">
        <ele>304</ele>
        <time>2011-12-11T10:04:12Z</time>
      </trkpt>
      <trkpt lat="43.52181" lon="6.64043">
        <ele>305</ele>
        <time>2011-12-11T10:04:13Z</time>
      </trkpt>
      <trkpt lat="43.5218" lon="6.64046">
        <ele>305</ele>
        <time>2011-12-11T10:04:14Z</time>
      </trkpt>
      <trkpt lat="43.52179" lon="6.64049">
        <ele>305</ele>
        <time>2011-12-11T10:04:15Z</time>
      </trkpt>
      <trkpt lat="43.52177" lon="6.64052">
        <ele>305</ele>
        <time>2011-12-11T10:04:16Z</time>
      </trkpt>
      <trkpt lat="43.52176" lon="6.64055">
        <ele>305</ele>
        <time>2011-12-11T10:04:17Z</time>
      </trkpt>
      <trkpt lat="43.52173" lon="6.64058">
        <ele>305</ele>
        <time>2011-12-11T10:04:18Z</time>
      </trkpt>
      <trkpt lat="43.52171" lon="6.64061">
        <ele>305</ele>
        <time>2011-12-11T10:04:19Z</time>
      </trkpt>
      <trkpt lat="43.52169" lon="6.64063">
        <ele>305</ele>
        <time>2011-12-11T10:04:20Z</time>
      </trkpt>
      <trkpt lat="43.52166" lon="6.64066">
        <ele>305</ele>
        <time>2011-12-11T10:04:21Z</time>
      </trkpt>
      <trkpt lat="43.52164" lon="6.64068">
        <ele>305</ele>
        <time>2011-12-11T10:04:22Z</time>
      </trkpt>
      <trkpt lat="43.52161" lon="6.64071">
        <ele>306</ele>
        <time>2011-12-11T10:04:23Z</time>
      </trkpt>
      <trkpt lat="43.52158" lon="6.64073">
        <ele>306</ele>
        <time>2011-12-11T10:04:24Z</time>
      </trkpt>
      <trkpt lat="43.52156" lon="6.64075">
        <ele>306</ele>
        <time>2011-12-11T10:04:25Z</time>
      </trkpt>
      <trkpt lat="43.52153" lon="6.64078">
        <ele>306</ele>
        <time>2011-12-11T10:04:26Z</time>
      </trkpt>
      <trkpt lat="43.52151" lon="6.64081">
        <ele>306</ele>
        <time>2011-12-11T10:04:27Z</time>
      </trkpt>
      <trkpt lat="43.52148" lon="6.64083">
        <ele>306</ele>
        <time>2011-12-11T10:04:28Z</time>
      </trkpt>
      <trkpt lat="43.52146" lon="6.64086">
        <ele>306</ele>
        <time>2011-12-11T10:04:29Z</time>
      </trkpt>
      <trkpt lat="43.52144" lon="6.64088">
        <ele>306</ele>
        <time>2011-12-11T10:04:30Z</time>
      </trkpt>
      <trkpt lat="43.52143" lon="6.64091">
        <ele>306</ele>
        <time>2011-12-11T10:04:31Z</time>
      </trkpt>
      <trkpt lat="43.52141" lon="6.64094">
        <ele>306</ele>
        <time>2011-12-11T10:04:32Z</time>
      </trkpt>
      <trkpt lat="43.52139" lon="6.64097">
        <ele>307</ele>
        <time>2011-12-11T10:04:33Z</time>
      </trkpt>
      <trkpt lat="43.52138" lon="6.641">
        <ele>307</ele>
        <time>2011-12-11T10:04:34Z</time>
      </trkpt>
      <trkpt lat="43.52137" lon="6.64103">
        <ele>307</ele>
        <time>2011-12-11T10:04:35Z</time>
      </trkpt>
      <trkpt lat="43.52136" lon="6.64106">
        <ele>307</ele>
        <time>2011-12-11T10:04:36Z</time>
      </trkpt>
      <trkpt lat="43.52135" lon="6.64109">
        <ele>307</ele>
        <time>2011-12-11T10:04:37Z</time>
      </trkpt>
      <trkpt lat="43.52134" lon="6.64111">
        <ele>307</ele>
        <time>2011-12-11T10:04:38Z</time>
      </trkpt>
      <trkpt lat="43.52134" lon="6.64113">
        <ele>307</ele>
        <time>2011-12-11T10:04:39Z</time>
      </trkpt>
      <trkpt lat="43.52133" lon="6.64116">
        <ele>307</ele>
        <time>2011-12-11T10:04:40Z</time>
      </trkpt>
      <trkpt lat="43.52133" lon="6.64117">
        <ele>307</ele>
        <time>2011-12-11T10:04:41Z</time>
      </trkpt>
      <trkpt lat="43.52132" lon="6.6412">
        <ele>306</ele>
        <time>2011-12-11T10:04:42Z</time>
      </trkpt>
      <trkpt lat="43.52131" lon="6.64122">
        <ele>306</ele>
        <time>2011-12-11T10:04:43Z</time>
      </trkpt>
      <trkpt lat="43.52131" lon="6.64124">
        <ele>306</ele>
        <time>2011-12-11T10:04:44Z</time>
      </trkpt>
      <trkpt lat="43.5213" lon="6.64127">
        <ele>306</ele>
        <time>2011-12-11T10:04:45Z</time>
      </trkpt>
      <trkpt lat="43.5213" lon="6.64131">
        <ele>306</ele>
        <time>2011-12-11T10:04:46Z</time>
      </trkpt>
      <trkpt lat="43.52129" lon="6.64134">
        <ele>306</ele>
        <time>2011-12-11T10:04:47Z</time>
      </trkpt>
      <trkpt lat="43.52127" lon="6.64138">
        <ele>306</ele>
        <time>2011-12-11T10:04:48Z</time>
      </trkpt>
      <trkpt lat="43.52126" lon="6.64142">
        <ele>305</ele>
        <time>2011-12-11T10:04:49Z</time>
      </trkpt>
      <trkpt lat="43.52124" lon="6.64147">
        <ele>305</ele>
        <time>2011-12-11T10:04:50Z</time>
      </trkpt>
      <trkpt lat="43.52121" lon="6.64152">
        <ele>304</ele>
        <time>2011-12-11T10:04:51Z</time>
      </trkpt>
      <trkpt lat="43.52118" lon="6.64158">
        <ele>304</ele>
        <time>2011-12-11T10:04:52Z</time>
      </trkpt>
      <trkpt lat="43.52114" lon="6.64162">
        <ele>304</ele>
        <time>2011-12-11T10:04:53Z</time>
      </trkpt>
      <trkpt lat="43.5211" lon="6.64166">
        <ele>303</ele>
        <time>2011-12-11T10:04:54Z</time>
      </trkpt>
      <trkpt lat="43.52071" lon="6.64207">
        <ele>299</ele>
        <time>2011-12-11T10:05:04Z</time>
      </trkpt>
      <trkpt lat="43.52068" lon="6.64211">
        <ele>298</ele>
        <time>2011-12-11T10:05:05Z</time>
      </trkpt>
      <trkpt lat="43.52063" lon="6.64216">
        <ele>298</ele>
        <time>2011-12-11T10:05:06Z</time>
      </trkpt>
      <trkpt lat="43.5206" lon="6.6422">
        <ele>297</ele>
        <time>2011-12-11T10:05:07Z</time>
      </trkpt>
      <trkpt lat="43.52056" lon="6.64224">
        <ele>296</ele>
        <time>2011-12-11T10:05:08Z</time>
      </trkpt>
      <trkpt lat="43.52052" lon="6.64227">
        <ele>296</ele>
        <time>2011-12-11T10:05:09Z</time>
      </trkpt>
      <trkpt lat="43.52049" lon="6.64231">
        <ele>295</ele>
        <time>2011-12-11T10:05:10Z</time>
      </trkpt>
      <trkpt lat="43.52045" lon="6.64235">
        <ele>294</ele>
        <time>2011-12-11T10:05:11Z</time>
      </trkpt>
      <trkpt lat="43.52041" lon="6.64239">
        <ele>294</ele>
        <time>2011-12-11T10:05:12Z</time>
      </trkpt>
      <trkpt lat="43.52037" lon="6.64243">
        <ele>293</ele>
        <time>2011-12-11T10:05:13Z</time>
      </trkpt>
      <trkpt lat="43.52033" lon="6.64246">
        <ele>292</ele>
        <time>2011-12-11T10:05:14Z</time>
      </trkpt>
      <trkpt lat="43.52029" lon="6.6425">
        <ele>292</ele>
        <time>2011-12-11T10:05:15Z</time>
      </trkpt>
      <trkpt lat="43.52026" lon="6.64253">
        <ele>291</ele>
        <time>2011-12-11T10:05:16Z</time>
      </trkpt>
      <trkpt lat="43.52022" lon="6.64258">
        <ele>291</ele>
        <time>2011-12-11T10:05:17Z</time>
      </trkpt>
      <trkpt lat="43.52019" lon="6.64263">
        <ele>290</ele>
        <time>2011-12-11T10:05:18Z</time>
      </trkpt>
      <trkpt lat="43.52017" lon="6.64267">
        <ele>289</ele>
        <time>2011-12-11T10:05:19Z</time>
      </trkpt>
      <trkpt lat="43.52014" lon="6.64272">
        <ele>289</ele>
        <time>2011-12-11T10:05:20Z</time>
      </trkpt>
      <trkpt lat="43.52012" lon="6.64277">
        <ele>288</ele>
        <time>2011-12-11T10:05:21Z</time>
      </trkpt>
      <trkpt lat="43.5201" lon="6.64283">
        <ele>287</ele>
        <time>2011-12-11T10:05:22Z</time>
      </trkpt>
      <trkpt lat="43.52009" lon="6.64289">
        <ele>287</ele>
        <time>2011-12-11T10:05:23Z</time>
      </trkpt>
      <trkpt lat="43.52007" lon="6.64295">
        <ele>286</ele>
        <time>2011-12-11T10:05:24Z</time>
      </trkpt>
      <trkpt lat="43.51996" lon="6.6438">
        <ele>280</ele>
        <time>2011-12-11T10:05:34Z</time>
      </trkpt>
      <trkpt lat="43.52021" lon="6.64444">
        <ele>277</ele>
        <time>2011-12-11T10:05:44Z</time>
      </trkpt>
      <trkpt lat="43.52019" lon="6.64448">
        <ele>277</ele>
        <time>2011-12-11T10:05:45Z</time>
      </trkpt>
      <trkpt lat="43.52016" lon="6.64451">
        <ele>277</ele>
        <time>2011-12-11T10:05:46Z</time>
      </trkpt>
      <trkpt lat="43.52012" lon="6.64455">
        <ele>277</ele>
        <time>2011-12-11T10:05:47Z</time>
      </trkpt>
      <trkpt lat="43.52009" lon="6.64458">
        <ele>277</ele>
        <time>2011-12-11T10:05:48Z</time>
      </trkpt>
      <trkpt lat="43.52006" lon="6.64461">
        <ele>277</ele>
        <time>2011-12-11T10:05:49Z</time>
      </trkpt>
      <trkpt lat="43.52002" lon="6.64464">
        <ele>277</ele>
        <time>2011-12-11T10:05:50Z</time>
      </trkpt>
      <trkpt lat="43.51999" lon="6.64467">
        <ele>277</ele>
        <time>2011-12-11T10:05:51Z</time>
      </trkpt>
      <trkpt lat="43.51995" lon="6.6447">
        <ele>278</ele>
        <time>2011-12-11T10:05:52Z</time>
      </trkpt>
      <trkpt lat="43.51992" lon="6.64473">
        <ele>278</ele>
        <time>2011-12-11T10:05:53Z</time>
      </trkpt>
      <trkpt lat="43.51989" lon="6.64476">
        <ele>278</ele>
        <time>2011-12-11T10:05:54Z</time>
      </trkpt>
      <trkpt lat="43.51986" lon="6.64481">
        <ele>278</ele>
        <time>2011-12-11T10:05:55Z</time>
      </trkpt>
      <trkpt lat="43.51984" lon="6.64486">
        <ele>278</ele>
        <time>2011-12-11T10:05:56Z</time>
      </trkpt>
      <trkpt lat="43.51982" lon="6.6449">
        <ele>278</ele>
        <time>2011-12-11T10:05:57Z</time>
      </trkpt>
      <trkpt lat="43.5198" lon="6.64496">
        <ele>277</ele>
        <time>2011-12-11T10:05:58Z</time>
      </trkpt>
      <trkpt lat="43.51978" lon="6.64501">
        <ele>277</ele>
        <time>2011-12-11T10:05:59Z</time>
      </trkpt>
      <trkpt lat="43.51976" lon="6.64507">
        <ele>277</ele>
        <time>2011-12-11T10:06:00Z</time>
      </trkpt>
      <trkpt lat="43.51975" lon="6.64512">
        <ele>277</ele>
        <time>2011-12-11T10:06:01Z</time>
      </trkpt>
      <trkpt lat="43.51974" lon="6.64518">
        <ele>277</ele>
        <time>2011-12-11T10:06:02Z</time>
      </trkpt>
      <trkpt lat="43.51972" lon="6.64523">
        <ele>277</ele>
        <time>2011-12-11T10:06:03Z</time>
      </trkpt>
      <trkpt lat="43.5197" lon="6.64528">
        <ele>277</ele>
        <time>2011-12-11T10:06:04Z</time>
      </trkpt>
      <trkpt lat="43.51969" lon="6.64533">
        <ele>277</ele>
        <time>2011-12-11T10:06:05Z</time>
      </trkpt>
      <trkpt lat="43.51968" lon="6.64539">
        <ele>276</ele>
        <time>2011-12-11T10:06:06Z</time>
      </trkpt>
      <trkpt lat="43.51967" lon="6.64545">
        <ele>276</ele>
        <time>2011-12-11T10:06:07Z</time>
      </trkpt>
      <trkpt lat="43.51966" lon="6.6455">
        <ele>276</ele>
        <time>2011-12-11T10:06:08Z</time>
      </trkpt>
      <trkpt lat="43.51966" lon="6.64556">
        <ele>275</ele>
        <time>2011-12-11T10:06:09Z</time>
      </trkpt>
      <trkpt lat="43.51966" lon="6.64562">
        <ele>275</ele>
        <time>2011-12-11T10:06:10Z</time>
      </trkpt>
      <trkpt lat="43.51966" lon="6.64568">
        <ele>275</ele>
        <time>2011-12-11T10:06:11Z</time>
      </trkpt>
      <trkpt lat="43.51967" lon="6.64574">
        <ele>274</ele>
        <time>2011-12-11T10:06:12Z</time>
      </trkpt>
      <trkpt lat="43.51969" lon="6.64579">
        <ele>274</ele>
        <time>2011-12-11T10:06:13Z</time>
      </trkpt>
      <trkpt lat="43.51972" lon="6.64584">
        <ele>274</ele>
        <time>2011-12-11T10:06:14Z</time>
      </trkpt>
      <trkpt lat="43.51975" lon="6.64588">
        <ele>274</ele>
        <time>2011-12-11T10:06:15Z</time>
      </trkpt>
      <trkpt lat="43.51979" lon="6.64593">
        <ele>273</ele>
        <time>2011-12-11T10:06:16Z</time>
      </trkpt>
      <trkpt lat="43.51982" lon="6.64598">
        <ele>273</ele>
        <time>2011-12-11T10:06:17Z</time>
      </trkpt>
      <trkpt lat="43.51986" lon="6.64602">
        <ele>273</ele>
        <time>2011-12-11T10:06:18Z</time>
      </trkpt>
      <trkpt lat="43.51989" lon="6.64607">
        <ele>272</ele>
        <time>2011-12-11T10:06:19Z</time>
      </trkpt>
      <trkpt lat="43.51993" lon="6.64612">
        <ele>272</ele>
        <time>2011-12-11T10:06:20Z</time>
      </trkpt>
      <trkpt lat="43.51996" lon="6.64617">
        <ele>272</ele>
        <time>2011-12-11T10:06:21Z</time>
      </trkpt>
      <trkpt lat="43.52" lon="6.64623">
        <ele>271</ele>
        <time>2011-12-11T10:06:22Z</time>
      </trkpt>
      <trkpt lat="43.52016" lon="6.64694">
        <ele>268</ele>
        <time>2011-12-11T10:06:32Z</time>
      </trkpt>
      <trkpt lat="43.52026" lon="6.64751">
        <ele>266</ele>
        <time>2011-12-11T10:06:42Z</time>
      </trkpt>
      <trkpt lat="43.52027" lon="6.64753">
        <ele>266</ele>
        <time>2011-12-11T10:06:43Z</time>
      </trkpt>
      <trkpt lat="43.52027" lon="6.64754">
        <ele>266</ele>
        <time>2011-12-11T10:06:44Z</time>
      </trkpt>
      <trkpt lat="43.52028" lon="6.64754">
        <ele>266</ele>
        <time>2011-12-11T10:07:18Z</time>
      </trkpt>
      <trkpt lat="43.52027" lon="6.64754">
        <ele>266</ele>
        <time>2011-12-11T10:07:19Z</time>
      </trkpt>
      <trkpt lat="43.52025" lon="6.64754">
        <ele>266</ele>
        <time>2011-12-11T10:07:20Z</time>
      </trkpt>
      <trkpt lat="43.52024" lon="6.64754">
        <ele>266</ele>
        <time>2011-12-11T10:07:21Z</time>
      </trkpt>
      <trkpt lat="43.52022" lon="6.64753">
        <ele>266</ele>
        <time>2011-12-11T10:07:22Z</time>
      </trkpt>
      <trkpt lat="43.5202" lon="6.64752">
        <ele>266</ele>
        <time>2011-12-11T10:07:23Z</time>
      </trkpt>
      <trkpt lat="43.52017" lon="6.64751">
        <ele>266</ele>
        <time>2011-12-11T10:07:24Z</time>
      </trkpt>
      <trkpt lat="43.52015" lon="6.64751">
        <ele>266</ele>
        <time>2011-12-11T10:07:25Z</time>
      </trkpt>
      <trkpt lat="43.52014" lon="6.64751">
        <ele>266</ele>
        <time>2011-12-11T10:07:26Z</time>
      </trkpt>
      <trkpt lat="43.52014" lon="6.6475">
        <ele>266</ele>
        <time>2011-12-11T10:07:27Z</time>
      </trkpt>
      <trkpt lat="43.52014" lon="6.64749">
        <ele>266</ele>
        <time>2011-12-11T10:08:12Z</time>
      </trkpt>
      <trkpt lat="43.52015" lon="6.64749">
        <ele>266</ele>
        <time>2011-12-11T10:08:13Z</time>
      </trkpt>
      <trkpt lat="43.52015" lon="6.64749">
        <ele>266</ele>
        <time>2011-12-11T10:08:31Z</time>
      </trkpt>
      <trkpt lat="43.52016" lon="6.64748">
        <ele>266</ele>
        <time>2011-12-11T10:08:32Z</time>
      </trkpt>
      <trkpt lat="43.52016" lon="6.64746">
        <ele>266</ele>
        <time>2011-12-11T10:08:33Z</time>
      </trkpt>
      <trkpt lat="43.52015" lon="6.64745">
        <ele>266</ele>
        <time>2011-12-11T10:08:34Z</time>
      </trkpt>
      <trkpt lat="43.52014" lon="6.64745">
        <ele>266</ele>
        <time>2011-12-11T10:08:35Z</time>
      </trkpt>
      <trkpt lat="43.52014" lon="6.64744">
        <ele>266</ele>
        <time>2011-12-11T10:08:36Z</time>
      </trkpt>
      <trkpt lat="43.52014" lon="6.64744">
        <ele>266</ele>
        <time>2011-12-11T10:08:57Z</time>
      </trkpt>
      <trkpt lat="43.52014" lon="6.64744">
        <ele>266</ele>
        <time>2011-12-11T10:08:59Z</time>
      </trkpt>
      <trkpt lat="43.52014" lon="6.64744">
        <ele>266</ele>
        <time>2011-12-11T10:09:01Z</time>
      </trkpt>
      <trkpt lat="43.52015" lon="6.64744">
        <ele>266</ele>
        <time>2011-12-11T10:09:02Z</time>
      </trkpt>
      <trkpt lat="43.52015" lon="6.64744">
        <ele>266</ele>
        <time>2011-12-11T10:09:03Z</time>
      </trkpt>
      <trkpt lat="43.52016" lon="6.64744">
        <ele>266</ele>
        <time>2011-12-11T10:09:04Z</time>
      </trkpt>
      <trkpt lat="43.52016" lon="6.64744">
        <ele>266</ele>
        <time>2011-12-11T10:09:05Z</time>
      </trkpt>
      <trkpt lat="43.52017" lon="6.64745">
        <ele>266</ele>
        <time>2011-12-11T10:09:57Z</time>
      </trkpt>
      <trkpt lat="43.52017" lon="6.64744">
        <ele>266</ele>
        <time>2011-12-11T10:09:58Z</time>
      </trkpt>
      <trkpt lat="43.52016" lon="6.64744">
        <ele>266</ele>
        <time>2011-12-11T10:10:01Z</time>
      </trkpt>
      <trkpt lat="43.52015" lon="6.64743">
        <ele>266</ele>
        <time>2011-12-11T10:10:02Z</time>
      </trkpt>
      <trkpt lat="43.52014" lon="6.64743">
        <ele>266</ele>
        <time>2011-12-11T10:10:03Z</time>
      </trkpt>
      <trkpt lat="43.52014" lon="6.64743">
        <ele>266</ele>
        <time>2011-12-11T10:10:04Z</time>
      </trkpt>
      <trkpt lat="43.52013" lon="6.64743">
        <ele>266</ele>
        <time>2011-12-11T10:10:06Z</time>
      </trkpt>
      <trkpt lat="43.52013" lon="6.64744">
        <ele>266</ele>
        <time>2011-12-11T10:10:07Z</time>
      </trkpt>
      <trkpt lat="43.52013" lon="6.64744">
        <ele>266</ele>
        <time>2011-12-11T10:10:08Z</time>
      </trkpt>
      <trkpt lat="43.52012" lon="6.64745">
        <ele>266</ele>
        <time>2011-12-11T10:10:09Z</time>
      </trkpt>
      <trkpt lat="43.52012" lon="6.64746">
        <ele>266</ele>
        <time>2011-12-11T10:10:10Z</time>
      </trkpt>
      <trkpt lat="43.52012" lon="6.64747">
        <ele>266</ele>
        <time>2011-12-11T10:10:11Z</time>
      </trkpt>
      <trkpt lat="43.52012" lon="6.64748">
        <ele>266</ele>
        <time>2011-12-11T10:10:12Z</time>
      </trkpt>
      <trkpt lat="43.52012" lon="6.64748">
        <ele>266</ele>
        <time>2011-12-11T10:10:13Z</time>
      </trkpt>
      <trkpt lat="43.52013" lon="6.64748">
        <ele>266</ele>
        <time>2011-12-11T10:10:30Z</time>
      </trkpt>
      <trkpt lat="43.52013" lon="6.64749">
        <ele>267</ele>
        <time>2011-12-11T10:10:31Z</time>
      </trkpt>
      <trkpt lat="43.52014" lon="6.64749">
        <ele>266</ele>
        <time>2011-12-11T10:10:32Z</time>
      </trkpt>
      <trkpt lat="43.52014" lon="6.64749">
        <ele>266</ele>
        <time>2011-12-11T10:10:33Z</time>
      </trkpt>
      <trkpt lat="43.52014" lon="6.64749">
        <ele>266</ele>
        <time>2011-12-11T10:10:40Z</time>
      </trkpt>
      <trkpt lat="43.52015" lon="6.64749">
        <ele>266</ele>
        <time>2011-12-11T10:10:41Z</time>
      </trkpt>
      <trkpt lat="43.52015" lon="6.64748">
        <ele>266</ele>
        <time>2011-12-11T10:10:42Z</time>
      </trkpt>
      <trkpt lat="43.52016" lon="6.64748">
        <ele>266</ele>
        <time>2011-12-11T10:10:43Z</time>
      </trkpt>
      <trkpt lat="43.52016" lon="6.64746">
        <ele>266</ele>
        <time>2011-12-11T10:10:44Z</time>
      </trkpt>
      <trkpt lat="43.52016" lon="6.64746">
        <ele>266</ele>
        <time>2011-12-11T10:10:45Z</time>
      </trkpt>
      <trkpt lat="43.52016" lon="6.64745">
        <ele>266</ele>
        <time>2011-12-11T10:10:46Z</time>
      </trkpt>
      <trkpt lat="43.52015" lon="6.64744">
        <ele>267</ele>
        <time>2011-12-11T10:10:47Z</time>
      </trkpt>
      <trkpt lat="43.52014" lon="6.64743">
        <ele>267</ele>
        <time>2011-12-11T10:10:48Z</time>
      </trkpt>
      <trkpt lat="43.52014" lon="6.64743">
        <ele>267</ele>
        <time>2011-12-11T10:10:49Z</time>
      </trkpt>
      <trkpt lat="43.52014" lon="6.64743">
        <ele>267</ele>
        <time>2011-12-11T10:10:50Z</time>
      </trkpt>
      <trkpt lat="43.52013" lon="6.64743">
        <ele>267</ele>
        <time>2011-12-11T10:10:51Z</time>
      </trkpt>
      <trkpt lat="43.52013" lon="6.64742">
        <ele>267</ele>
        <time>2011-12-11T10:12:04Z</time>
      </trkpt>
      <trkpt lat="43.52014" lon="6.64742">
        <ele>267</ele>
        <time>2011-12-11T10:12:27Z</time>
      </trkpt>
      <trkpt lat="43.52014" lon="6.64742">
        <ele>267</ele>
        <time>2011-12-11T10:12:28Z</time>
      </trkpt>
      <trkpt lat="43.52015" lon="6.64742">
        <ele>267</ele>
        <time>2011-12-11T10:12:29Z</time>
      </trkpt>
      <trkpt lat="43.52015" lon="6.64742">
        <ele>267</ele>
        <time>2011-12-11T10:12:30Z</time>
      </trkpt>
      <trkpt lat="43.52016" lon="6.64742">
        <ele>267</ele>
        <time>2011-12-11T10:12:31Z</time>
      </trkpt>
      <trkpt lat="43.52017" lon="6.64744">
        <ele>268</ele>
        <time>2011-12-11T10:12:42Z</time>
      </trkpt>
      <trkpt lat="43.52017" lon="6.64744">
        <ele>268</ele>
        <time>2011-12-11T10:12:43Z</time>
      </trkpt>
      <trkpt lat="43.52018" lon="6.64744">
        <ele>268</ele>
        <time>2011-12-11T10:12:44Z</time>
      </trkpt>
      <trkpt lat="43.52019" lon="6.64744">
        <ele>268</ele>
        <time>2011-12-11T10:12:45Z</time>
      </trkpt>
      <trkpt lat="43.5202" lon="6.64744">
        <ele>268</ele>
        <time>2011-12-11T10:12:46Z</time>
      </trkpt>
      <trkpt lat="43.52021" lon="6.64742">
        <ele>268</ele>
        <time>2011-12-11T10:12:47Z</time>
      </trkpt>
      <trkpt lat="43.52021" lon="6.64741">
        <ele>268</ele>
        <time>2011-12-11T10:12:48Z</time>
      </trkpt>
      <trkpt lat="43.5202" lon="6.64739">
        <ele>268</ele>
        <time>2011-12-11T10:12:49Z</time>
      </trkpt>
      <trkpt lat="43.52018" lon="6.64739">
        <ele>268</ele>
        <time>2011-12-11T10:12:50Z</time>
      </trkpt>
      <trkpt lat="43.52017" lon="6.64741">
        <ele>268</ele>
        <time>2011-12-11T10:12:51Z</time>
      </trkpt>
      <trkpt lat="43.52015" lon="6.64742">
        <ele>268</ele>
        <time>2011-12-11T10:12:52Z</time>
      </trkpt>
      <trkpt lat="43.52015" lon="6.64744">
        <ele>268</ele>
        <time>2011-12-11T10:12:53Z</time>
      </trkpt>
      <trkpt lat="43.52015" lon="6.64744">
        <ele>268</ele>
        <time>2011-12-11T10:12:57Z</time>
      </trkpt>
      <trkpt lat="43.52016" lon="6.64746">
        <ele>268</ele>
        <time>2011-12-11T10:12:58Z</time>
      </trkpt>
      <trkpt lat="43.52018" lon="6.64748">
        <ele>268</ele>
        <time>2011-12-11T10:12:59Z</time>
      </trkpt>
      <trkpt lat="43.5202" lon="6.64749">
        <ele>268</ele>
        <time>2011-12-11T10:13:00Z</time>
      </trkpt>
      <trkpt lat="43.52022" lon="6.64752">
        <ele>267</ele>
        <time>2011-12-11T10:13:01Z</time>
      </trkpt>
      <trkpt lat="43.52024" lon="6.64755">
        <ele>267</ele>
        <time>2011-12-11T10:13:02Z</time>
      </trkpt>
      <trkpt lat="43.52025" lon="6.64758">
        <ele>267</ele>
        <time>2011-12-11T10:13:03Z</time>
      </trkpt>
      <trkpt lat="43.52026" lon="6.64761">
        <ele>267</ele>
        <time>2011-12-11T10:13:04Z</time>
      </trkpt>
      <trkpt lat="43.52028" lon="6.64765">
        <ele>267</ele>
        <time>2011-12-11T10:13:05Z</time>
      </trkpt>
      <trkpt lat="43.52029" lon="6.64769">
        <ele>267</ele>
        <time>2011-12-11T10:13:06Z</time>
      </trkpt>
      <trkpt lat="43.5203" lon="6.64773">
        <ele>267</ele>
        <time>2011-12-11T10:13:07Z</time>
      </trkpt>
      <trkpt lat="43.52031" lon="6.64777">
        <ele>266</ele>
        <time>2011-12-11T10:13:08Z</time>
      </trkpt>
      <trkpt lat="43.52033" lon="6.64783">
        <ele>266</ele>
        <time>2011-12-11T10:13:09Z</time>
      </trkpt>
      <trkpt lat="43.52035" lon="6.64788">
        <ele>266</ele>
        <time>2011-12-11T10:13:10Z</time>
      </trkpt>
      <trkpt lat="43.52037" lon="6.64794">
        <ele>266</ele>
        <time>2011-12-11T10:13:11Z</time>
      </trkpt>
      <trkpt lat="43.52039" lon="6.648">
        <ele>265</ele>
        <time>2011-12-11T10:13:12Z</time>
      </trkpt>
      <trkpt lat="43.52042" lon="6.64805">
        <ele>265</ele>
        <time>2011-12-11T10:13:13Z</time>
      </trkpt>
      <trkpt lat="43.52045" lon="6.64812">
        <ele>265</ele>
        <time>2011-12-11T10:13:14Z</time>
      </trkpt>
      <trkpt lat="43.52067" lon="6.64874">
        <ele>261</ele>
        <time>2011-12-11T10:13:24Z</time>
      </trkpt>
      <trkpt lat="43.52069" lon="6.6488">
        <ele>261</ele>
        <time>2011-12-11T10:13:25Z</time>
      </trkpt>
      <trkpt lat="43.52071" lon="6.64886">
        <ele>260</ele>
        <time>2011-12-11T10:13:26Z</time>
      </trkpt>
      <trkpt lat="43.52073" lon="6.64892">
        <ele>260</ele>
        <time>2011-12-11T10:13:27Z</time>
      </trkpt>
      <trkpt lat="43.52074" lon="6.64898">
        <ele>260</ele>
        <time>2011-12-11T10:13:28Z</time>
      </trkpt>
      <trkpt lat="43.52076" lon="6.64903">
        <ele>259</ele>
        <time>2011-12-11T10:13:29Z</time>
      </trkpt>
      <trkpt lat="43.52078" lon="6.64909">
        <ele>259</ele>
        <time>2011-12-11T10:13:30Z</time>
      </trkpt>
      <trkpt lat="43.5208" lon="6.64914">
        <ele>259</ele>
        <time>2011-12-11T10:13:31Z</time>
      </trkpt>
      <trkpt lat="43.52081" lon="6.64919">
        <ele>259</ele>
        <time>2011-12-11T10:13:32Z</time>
      </trkpt>
      <trkpt lat="43.52083" lon="6.64923">
        <ele>258</ele>
        <time>2011-12-11T10:13:33Z</time>
      </trkpt>
      <trkpt lat="43.52086" lon="6.64927">
        <ele>258</ele>
        <time>2011-12-11T10:13:34Z</time>
      </trkpt>
      <trkpt lat="43.52089" lon="6.64929">
        <ele>258</ele>
        <time>2011-12-11T10:13:35Z</time>
      </trkpt>
      <trkpt lat="43.52093" lon="6.6493">
        <ele>258</ele>
        <time>2011-12-11T10:13:36Z</time>
      </trkpt>
      <trkpt lat="43.52097" lon="6.64929">
        <ele>257</ele>
        <time>2011-12-11T10:13:37Z</time>
      </trkpt>
      <trkpt lat="43.52101" lon="6.64928">
        <ele>257</ele>
        <time>2011-12-11T10:13:38Z</time>
      </trkpt>
      <trkpt lat="43.52104" lon="6.64926">
        <ele>257</ele>
        <time>2011-12-11T10:13:39Z</time>
      </trkpt>
      <trkpt lat="43.52108" lon="6.64923">
        <ele>257</ele>
        <time>2011-12-11T10:13:40Z</time>
      </trkpt>
      <trkpt lat="43.52112" lon="6.6492">
        <ele>256</ele>
        <time>2011-12-11T10:13:41Z</time>
      </trkpt>
      <trkpt lat="43.52115" lon="6.64918">
        <ele>256</ele>
        <time>2011-12-11T10:13:42Z</time>
      </trkpt>
      <trkpt lat="43.52119" lon="6.64915">
        <ele>256</ele>
        <time>2011-12-11T10:13:43Z</time>
      </trkpt>
      <trkpt lat="43.52123" lon="6.64912">
        <ele>256</ele>
        <time>2011-12-11T10:13:44Z</time>
      </trkpt>
      <trkpt lat="43.52127" lon="6.6491">
        <ele>256</ele>
        <time>2011-12-11T10:13:45Z</time>
      </trkpt>
      <trkpt lat="43.52131" lon="6.64907">
        <ele>255</ele>
        <time>2011-12-11T10:13:46Z</time>
      </trkpt>
      <trkpt lat="43.52135" lon="6.64903">
        <ele>255</ele>
        <time>2011-12-11T10:13:47Z</time>
      </trkpt>
      <trkpt lat="43.52139" lon="6.649">
        <ele>255</ele>
        <time>2011-12-11T10:13:48Z</time>
      </trkpt>
      <trkpt lat="43.52143" lon="6.64897">
        <ele>254</ele>
        <time>2011-12-11T10:13:49Z</time>
      </trkpt>
      <trkpt lat="43.52147" lon="6.64896">
        <ele>254</ele>
        <time>2011-12-11T10:13:50Z</time>
      </trkpt>
      <trkpt lat="43.52152" lon="6.64897">
        <ele>254</ele>
        <time>2011-12-11T10:13:51Z</time>
      </trkpt>
      <trkpt lat="43.52155" lon="6.649">
        <ele>254</ele>
        <time>2011-12-11T10:13:52Z</time>
      </trkpt>
      <trkpt lat="43.52157" lon="6.64906">
        <ele>253</ele>
        <time>2011-12-11T10:13:53Z</time>
      </trkpt>
      <trkpt lat="43.52157" lon="6.64913">
        <ele>253</ele>
        <time>2011-12-11T10:13:54Z</time>
      </trkpt>
      <trkpt lat="43.52154" lon="6.64919">
        <ele>253</ele>
        <time>2011-12-11T10:13:55Z</time>
      </trkpt>
      <trkpt lat="43.52115" lon="6.64964">
        <ele>251</ele>
        <time>2011-12-11T10:14:05Z</time>
      </trkpt>
      <trkpt lat="43.52111" lon="6.64967">
        <ele>250</ele>
        <time>2011-12-11T10:14:06Z</time>
      </trkpt>
      <trkpt lat="43.52107" lon="6.6497">
        <ele>250</ele>
        <time>2011-12-11T10:14:07Z</time>
      </trkpt>
      <trkpt lat="43.52103" lon="6.64973">
        <ele>250</ele>
        <time>2011-12-11T10:14:08Z</time>
      </trkpt>
      <trkpt lat="43.52099" lon="6.64976">
        <ele>250</ele>
        <time>2011-12-11T10:14:09Z</time>
      </trkpt>
      <trkpt lat="43.52095" lon="6.64978">
        <ele>249</ele>
        <time>2011-12-11T10:14:10Z</time>
      </trkpt>
      <trkpt lat="43.52091" lon="6.64979">
        <ele>249</ele>
        <time>2011-12-11T10:14:11Z</time>
      </trkpt>
      <trkpt lat="43.52087" lon="6.64981">
        <ele>249</ele>
        <time>2011-12-11T10:14:12Z</time>
      </trkpt>
      <trkpt lat="43.52084" lon="6.64981">
        <ele>249</ele>
        <time>2011-12-11T10:14:13Z</time>
      </trkpt>
      <trkpt lat="43.5208" lon="6.64982">
        <ele>248</ele>
        <time>2011-12-11T10:14:14Z</time>
      </trkpt>
      <trkpt lat="43.52077" lon="6.64982">
        <ele>248</ele>
        <time>2011-12-11T10:14:15Z</time>
      </trkpt>
      <trkpt lat="43.52074" lon="6.64982">
        <ele>248</ele>
        <time>2011-12-11T10:14:16Z</time>
      </trkpt>
      <trkpt lat="43.52071" lon="6.64982">
        <ele>247</ele>
        <time>2011-12-11T10:14:17Z</time>
      </trkpt>
      <trkpt lat="43.52069" lon="6.64983">
        <ele>247</ele>
        <time>2011-12-11T10:14:18Z</time>
      </trkpt>
      <trkpt lat="43.52067" lon="6.64983">
        <ele>247</ele>
        <time>2011-12-11T10:14:19Z</time>
      </trkpt>
      <trkpt lat="43.52066" lon="6.64985">
        <ele>247</ele>
        <time>2011-12-11T10:14:20Z</time>
      </trkpt>
      <trkpt lat="43.52065" lon="6.64987">
        <ele>247</ele>
        <time>2011-12-11T10:14:21Z</time>
      </trkpt>
      <trkpt lat="43.52065" lon="6.64989">
        <ele>246</ele>
        <time>2011-12-11T10:14:22Z</time>
      </trkpt>
      <trkpt lat="43.52066" lon="6.64991">
        <ele>246</ele>
        <time>2011-12-11T10:14:23Z</time>
      </trkpt>
      <trkpt lat="43.52067" lon="6.64992">
        <ele>246</ele>
        <time>2011-12-11T10:14:24Z</time>
      </trkpt>
      <trkpt lat="43.52068" lon="6.64992">
        <ele>246</ele>
        <time>2011-12-11T10:14:25Z</time>
      </trkpt>
      <trkpt lat="43.5207" lon="6.64991">
        <ele>246</ele>
        <time>2011-12-11T10:14:26Z</time>
      </trkpt>
      <trkpt lat="43.52072" lon="6.64991">
        <ele>246</ele>
        <time>2011-12-11T10:14:27Z</time>
      </trkpt>
      <trkpt lat="43.52075" lon="6.64992">
        <ele>246</ele>
        <time>2011-12-11T10:14:28Z</time>
      </trkpt>
      <trkpt lat="43.52077" lon="6.64992">
        <ele>246</ele>
        <time>2011-12-11T10:14:29Z</time>
      </trkpt>
      <trkpt lat="43.5208" lon="6.64992">
        <ele>246</ele>
        <time>2011-12-11T10:14:30Z</time>
      </trkpt>
      <trkpt lat="43.52083" lon="6.64991">
        <ele>246</ele>
        <time>2011-12-11T10:14:31Z</time>
      </trkpt>
      <trkpt lat="43.52085" lon="6.64991">
        <ele>246</ele>
        <time>2011-12-11T10:14:32Z</time>
      </trkpt>
      <trkpt lat="43.52089" lon="6.6499">
        <ele>246</ele>
        <time>2011-12-11T10:14:33Z</time>
      </trkpt>
      <trkpt lat="43.52092" lon="6.6499">
        <ele>246</ele>
        <time>2011-12-11T10:14:34Z</time>
      </trkpt>
      <trkpt lat="43.52094" lon="6.64989">
        <ele>246</ele>
        <time>2011-12-11T10:14:35Z</time>
      </trkpt>
      <trkpt lat="43.52098" lon="6.64989">
        <ele>246</ele>
        <time>2011-12-11T10:14:36Z</time>
      </trkpt>
      <trkpt lat="43.52101" lon="6.64988">
        <ele>245</ele>
        <time>2011-12-11T10:14:37Z</time>
      </trkpt>
      <trkpt lat="43.52104" lon="6.64987">
        <ele>245</ele>
        <time>2011-12-11T10:14:38Z</time>
      </trkpt>
      <trkpt lat="43.52107" lon="6.64986">
        <ele>245</ele>
        <time>2011-12-11T10:14:39Z</time>
      </trkpt>
      <trkpt lat="43.52111" lon="6.64985">
        <ele>245</ele>
        <time>2011-12-11T10:14:40Z</time>
      </trkpt>
      <trkpt lat="43.52115" lon="6.64984">
        <ele>245</ele>
        <time>2011-12-11T10:14:41Z</time>
      </trkpt>
      <trkpt lat="43.52119" lon="6.64983">
        <ele>245</ele>
        <time>2011-12-11T10:14:42Z</time>
      </trkpt>
      <trkpt lat="43.52123" lon="6.64982">
        <ele>244</ele>
        <time>2011-12-11T10:14:43Z</time>
      </trkpt>
      <trkpt lat="43.52127" lon="6.6498">
        <ele>244</ele>
        <time>2011-12-11T10:14:44Z</time>
      </trkpt>
      <trkpt lat="43.52131" lon="6.64979">
        <ele>244</ele>
        <time>2011-12-11T10:14:45Z</time>
      </trkpt>
      <trkpt lat="43.52136" lon="6.64978">
        <ele>244</ele>
        <time>2011-12-11T10:14:46Z</time>
      </trkpt>
      <trkpt lat="43.52141" lon="6.64977">
        <ele>243</ele>
        <time>2011-12-11T10:14:47Z</time>
      </trkpt>
      <trkpt lat="43.52146" lon="6.64976">
        <ele>243</ele>
        <time>2011-12-11T10:14:48Z</time>
      </trkpt>
      <trkpt lat="43.52151" lon="6.64974">
        <ele>243</ele>
        <time>2011-12-11T10:14:49Z</time>
      </trkpt>
      <trkpt lat="43.52156" lon="6.64972">
        <ele>242</ele>
        <time>2011-12-11T10:14:50Z</time>
      </trkpt>
      <trkpt lat="43.52161" lon="6.64971">
        <ele>242</ele>
        <time>2011-12-11T10:14:51Z</time>
      </trkpt>
      <trkpt lat="43.52166" lon="6.6497">
        <ele>242</ele>
        <time>2011-12-11T10:14:52Z</time>
      </trkpt>
      <trkpt lat="43.52225" lon="6.6496">
        <ele>239</ele>
        <time>2011-12-11T10:15:02Z</time>
      </trkpt>
      <trkpt lat="43.52287" lon="6.64976">
        <ele>239</ele>
        <time>2011-12-11T10:15:12Z</time>
      </trkpt>
      <trkpt lat="43.52356" lon="6.64996">
        <ele>236</ele>
        <time>2011-12-11T10:15:22Z</time>
      </trkpt>
      <trkpt lat="43.52419" lon="6.6503">
        <ele>232</ele>
        <time>2011-12-11T10:15:32Z</time>
      </trkpt>
      <trkpt lat="43.52473" lon="6.65087">
        <ele>230</ele>
        <time>2011-12-11T10:15:42Z</time>
      </trkpt>
      <trkpt lat="43.52525" lon="6.65152">
        <ele>228</ele>
        <time>2011-12-11T10:15:52Z</time>
      </trkpt>
      <trkpt lat="43.52593" lon="6.65161">
        <ele>224</ele>
        <time>2011-12-11T10:16:02Z</time>
      </trkpt>
      <trkpt lat="43.52647" lon="6.65218">
        <ele>221</ele>
        <time>2011-12-11T10:16:12Z</time>
      </trkpt>
      <trkpt lat="43.52706" lon="6.65216">
        <ele>219</ele>
        <time>2011-12-11T10:16:22Z</time>
      </trkpt>
      <trkpt lat="43.52751" lon="6.65251">
        <ele>217</ele>
        <time>2011-12-11T10:16:32Z</time>
      </trkpt>
      <trkpt lat="43.52775" lon="6.65346">
        <ele>214</ele>
        <time>2011-12-11T10:16:42Z</time>
      </trkpt>
      <trkpt lat="43.52834" lon="6.65409">
        <ele>211</ele>
        <time>2011-12-11T10:16:52Z</time>
      </trkpt>
      <trkpt lat="43.52894" lon="6.65463">
        <ele>208</ele>
        <time>2011-12-11T10:17:02Z</time>
      </trkpt>
      <trkpt lat="43.5295" lon="6.65516">
        <ele>206</ele>
        <time>2011-12-11T10:17:12Z</time>
      </trkpt>
      <trkpt lat="43.53005" lon="6.65551">
        <ele>206</ele>
        <time>2011-12-11T10:17:22Z</time>
      </trkpt>
      <trkpt lat="43.53045" lon="6.65614">
        <ele>205</ele>
        <time>2011-12-11T10:17:32Z</time>
      </trkpt>
      <trkpt lat="43.53076" lon="6.65668">
        <ele>207</ele>
        <time>2011-12-11T10:17:42Z</time>
      </trkpt>
      <trkpt lat="43.53079" lon="6.65673">
        <ele>207</ele>
        <time>2011-12-11T10:17:43Z</time>
      </trkpt>
      <trkpt lat="43.53082" lon="6.65678">
        <ele>207</ele>
        <time>2011-12-11T10:17:44Z</time>
      </trkpt>
      <trkpt lat="43.53084" lon="6.65682">
        <ele>207</ele>
        <time>2011-12-11T10:17:45Z</time>
      </trkpt>
      <trkpt lat="43.53087" lon="6.65687">
        <ele>207</ele>
        <time>2011-12-11T10:17:46Z</time>
      </trkpt>
      <trkpt lat="43.5309" lon="6.65693">
        <ele>208</ele>
        <time>2011-12-11T10:17:47Z</time>
      </trkpt>
      <trkpt lat="43.53093" lon="6.65698">
        <ele>208</ele>
        <time>2011-12-11T10:17:48Z</time>
      </trkpt>
      <trkpt lat="43.53096" lon="6.65703">
        <ele>208</ele>
        <time>2011-12-11T10:17:49Z</time>
      </trkpt>
      <trkpt lat="43.53098" lon="6.65709">
        <ele>208</ele>
        <time>2011-12-11T10:17:50Z</time>
      </trkpt>
      <trkpt lat="43.53101" lon="6.65715">
        <ele>208</ele>
        <time>2011-12-11T10:17:51Z</time>
      </trkpt>
      <trkpt lat="43.53104" lon="6.6572">
        <ele>208</ele>
        <time>2011-12-11T10:17:52Z</time>
      </trkpt>
      <trkpt lat="43.53107" lon="6.65725">
        <ele>208</ele>
        <time>2011-12-11T10:17:53Z</time>
      </trkpt>
      <trkpt lat="43.5311" lon="6.6573">
        <ele>208</ele>
        <time>2011-12-11T10:17:54Z</time>
      </trkpt>
      <trkpt lat="43.53113" lon="6.65736">
        <ele>208</ele>
        <time>2011-12-11T10:17:55Z</time>
      </trkpt>
      <trkpt lat="43.53115" lon="6.6574">
        <ele>208</ele>
        <time>2011-12-11T10:17:56Z</time>
      </trkpt>
      <trkpt lat="43.53118" lon="6.65745">
        <ele>208</ele>
        <time>2011-12-11T10:17:57Z</time>
      </trkpt>
      <trkpt lat="43.53121" lon="6.6575">
        <ele>208</ele>
        <time>2011-12-11T10:17:58Z</time>
      </trkpt>
      <trkpt lat="43.53124" lon="6.65755">
        <ele>209</ele>
        <time>2011-12-11T10:17:59Z</time>
      </trkpt>
      <trkpt lat="43.53126" lon="6.6576">
        <ele>209</ele>
        <time>2011-12-11T10:18:00Z</time>
      </trkpt>
      <trkpt lat="43.53129" lon="6.65764">
        <ele>209</ele>
        <time>2011-12-11T10:18:01Z</time>
      </trkpt>
      <trkpt lat="43.53132" lon="6.65769">
        <ele>209</ele>
        <time>2011-12-11T10:18:02Z</time>
      </trkpt>
      <trkpt lat="43.53135" lon="6.65774">
        <ele>209</ele>
        <time>2011-12-11T10:18:03Z</time>
      </trkpt>
      <trkpt lat="43.53138" lon="6.65779">
        <ele>209</ele>
        <time>2011-12-11T10:18:04Z</time>
      </trkpt>
      <trkpt lat="43.53142" lon="6.65784">
        <ele>209</ele>
        <time>2011-12-11T10:18:05Z</time>
      </trkpt>
      <trkpt lat="43.53145" lon="6.65788">
        <ele>209</ele>
        <time>2011-12-11T10:18:06Z</time>
      </trkpt>
      <trkpt lat="43.53149" lon="6.65792">
        <ele>209</ele>
        <time>2011-12-11T10:18:07Z</time>
      </trkpt>
      <trkpt lat="43.53152" lon="6.65797">
        <ele>209</ele>
        <time>2011-12-11T10:18:08Z</time>
      </trkpt>
      <trkpt lat="43.53156" lon="6.65801">
        <ele>210</ele>
        <time>2011-12-11T10:18:09Z</time>
      </trkpt>
      <trkpt lat="43.53159" lon="6.65804">
        <ele>210</ele>
        <time>2011-12-11T10:18:10Z</time>
      </trkpt>
      <trkpt lat="43.53163" lon="6.65807">
        <ele>210</ele>
        <time>2011-12-11T10:18:11Z</time>
      </trkpt>
      <trkpt lat="43.53166" lon="6.65811">
        <ele>210</ele>
        <time>2011-12-11T10:18:12Z</time>
      </trkpt>
      <trkpt lat="43.5317" lon="6.65814">
        <ele>210</ele>
        <time>2011-12-11T10:18:13Z</time>
      </trkpt>
      <trkpt lat="43.53174" lon="6.65817">
        <ele>211</ele>
        <time>2011-12-11T10:18:14Z</time>
      </trkpt>
      <trkpt lat="43.53178" lon="6.65819">
        <ele>211</ele>
        <time>2011-12-11T10:18:15Z</time>
      </trkpt>
      <trkpt lat="43.53182" lon="6.65822">
        <ele>211</ele>
        <time>2011-12-11T10:18:16Z</time>
      </trkpt>
      <trkpt lat="43.53185" lon="6.65824">
        <ele>211</ele>
        <time>2011-12-11T10:18:17Z</time>
      </trkpt>
      <trkpt lat="43.53189" lon="6.65827">
        <ele>211</ele>
        <time>2011-12-11T10:18:18Z</time>
      </trkpt>
      <trkpt lat="43.53193" lon="6.65829">
        <ele>211</ele>
        <time>2011-12-11T10:18:19Z</time>
      </trkpt>
      <trkpt lat="43.53196" lon="6.65831">
        <ele>211</ele>
        <time>2011-12-11T10:18:20Z</time>
      </trkpt>
      <trkpt lat="43.532" lon="6.65834">
        <ele>211</ele>
        <time>2011-12-11T10:18:21Z</time>
      </trkpt>
      <trkpt lat="43.53203" lon="6.65837">
        <ele>212</ele>
        <time>2011-12-11T10:18:22Z</time>
      </trkpt>
      <trkpt lat="43.53207" lon="6.65839">
        <ele>212</ele>
        <time>2011-12-11T10:18:23Z</time>
      </trkpt>
      <trkpt lat="43.5321" lon="6.65842">
        <ele>212</ele>
        <time>2011-12-11T10:18:24Z</time>
      </trkpt>
      <trkpt lat="43.53213" lon="6.65846">
        <ele>212</ele>
        <time>2011-12-11T10:18:25Z</time>
      </trkpt>
      <trkpt lat="43.53215" lon="6.6585">
        <ele>212</ele>
        <time>2011-12-11T10:18:26Z</time>
      </trkpt>
      <trkpt lat="43.53218" lon="6.65854">
        <ele>213</ele>
        <time>2011-12-11T10:18:27Z</time>
      </trkpt>
      <trkpt lat="43.5322" lon="6.65858">
        <ele>212</ele>
        <time>2011-12-11T10:18:28Z</time>
      </trkpt>
      <trkpt lat="43.53223" lon="6.65863">
        <ele>212</ele>
        <time>2011-12-11T10:18:29Z</time>
      </trkpt>
      <trkpt lat="43.53225" lon="6.65867">
        <ele>212</ele>
        <time>2011-12-11T10:18:30Z</time>
      </trkpt>
      <trkpt lat="43.53228" lon="6.65872">
        <ele>213</ele>
        <time>2011-12-11T10:18:31Z</time>
      </trkpt>
      <trkpt lat="43.5323" lon="6.65876">
        <ele>213</ele>
        <time>2011-12-11T10:18:32Z</time>
      </trkpt>
      <trkpt lat="43.53233" lon="6.65881">
        <ele>213</ele>
        <time>2011-12-11T10:18:33Z</time>
      </trkpt>
      <trkpt lat="43.53235" lon="6.65885">
        <ele>213</ele>
        <time>2011-12-11T10:18:34Z</time>
      </trkpt>
      <trkpt lat="43.53238" lon="6.65889">
        <ele>213</ele>
        <time>2011-12-11T10:18:35Z</time>
      </trkpt>
      <trkpt lat="43.53241" lon="6.65893">
        <ele>213</ele>
        <time>2011-12-11T10:18:36Z</time>
      </trkpt>
      <trkpt lat="43.53244" lon="6.65896">
        <ele>213</ele>
        <time>2011-12-11T10:18:37Z</time>
      </trkpt>
      <trkpt lat="43.53247" lon="6.65898">
        <ele>213</ele>
        <time>2011-12-11T10:18:38Z</time>
      </trkpt>
      <trkpt lat="43.53251" lon="6.659">
        <ele>213</ele>
        <time>2011-12-11T10:18:39Z</time>
      </trkpt>
      <trkpt lat="43.53255" lon="6.65902">
        <ele>214</ele>
        <time>2011-12-11T10:18:40Z</time>
      </trkpt>
      <trkpt lat="43.53259" lon="6.65904">
        <ele>214</ele>
        <time>2011-12-11T10:18:41Z</time>
      </trkpt>
      <trkpt lat="43.53263" lon="6.65906">
        <ele>214</ele>
        <time>2011-12-11T10:18:42Z</time>
      </trkpt>
      <trkpt lat="43.53267" lon="6.65908">
        <ele>214</ele>
        <time>2011-12-11T10:18:43Z</time>
      </trkpt>
      <trkpt lat="43.53271" lon="6.6591">
        <ele>214</ele>
        <time>2011-12-11T10:18:44Z</time>
      </trkpt>
      <trkpt lat="43.53275" lon="6.65912">
        <ele>214</ele>
        <time>2011-12-11T10:18:45Z</time>
      </trkpt>
      <trkpt lat="43.53279" lon="6.65914">
        <ele>214</ele>
        <time>2011-12-11T10:18:46Z</time>
      </trkpt>
      <trkpt lat="43.53283" lon="6.65916">
        <ele>215</ele>
        <time>2011-12-11T10:18:47Z</time>
      </trkpt>
      <trkpt lat="43.53287" lon="6.65917">
        <ele>215</ele>
        <time>2011-12-11T10:18:48Z</time>
      </trkpt>
      <trkpt lat="43.53291" lon="6.65919">
        <ele>215</ele>
        <time>2011-12-11T10:18:49Z</time>
      </trkpt>
      <trkpt lat="43.53295" lon="6.65921">
        <ele>215</ele>
        <time>2011-12-11T10:18:50Z</time>
      </trkpt>
      <trkpt lat="43.53299" lon="6.65922">
        <ele>215</ele>
        <time>2011-12-11T10:18:51Z</time>
      </trkpt>
      <trkpt lat="43.53303" lon="6.65924">
        <ele>215</ele>
        <time>2011-12-11T10:18:52Z</time>
      </trkpt>
      <trkpt lat="43.53307" lon="6.65926">
        <ele>215</ele>
        <time>2011-12-11T10:18:53Z</time>
      </trkpt>
      <trkpt lat="43.53311" lon="6.65927">
        <ele>215</ele>
        <time>2011-12-11T10:18:54Z</time>
      </trkpt>
      <trkpt lat="43.53315" lon="6.65928">
        <ele>215</ele>
        <time>2011-12-11T10:18:55Z</time>
      </trkpt>
      <trkpt lat="43.53319" lon="6.6593">
        <ele>216</ele>
        <time>2011-12-11T10:18:56Z</time>
      </trkpt>
      <trkpt lat="43.53323" lon="6.65931">
        <ele>216</ele>
        <time>2011-12-11T10:18:57Z</time>
      </trkpt>
      <trkpt lat="43.53327" lon="6.65933">
        <ele>216</ele>
        <time>2011-12-11T10:18:58Z</time>
      </trkpt>
      <trkpt lat="43.53331" lon="6.65936">
        <ele>216</ele>
        <time>2011-12-11T10:18:59Z</time>
      </trkpt>
      <trkpt lat="43.53335" lon="6.65938">
        <ele>216</ele>
        <time>2011-12-11T10:19:00Z</time>
      </trkpt>
      <trkpt lat="43.53339" lon="6.6594">
        <ele>216</ele>
        <time>2011-12-11T10:19:01Z</time>
      </trkpt>
      <trkpt lat="43.53343" lon="6.65942">
        <ele>216</ele>
        <time>2011-12-11T10:19:02Z</time>
      </trkpt>
      <trkpt lat="43.53348" lon="6.65945">
        <ele>216</ele>
        <time>2011-12-11T10:19:03Z</time>
      </trkpt>
      <trkpt lat="43.53352" lon="6.65947">
        <ele>216</ele>
        <time>2011-12-11T10:19:04Z</time>
      </trkpt>
      <trkpt lat="43.53356" lon="6.6595">
        <ele>216</ele>
        <time>2011-12-11T10:19:05Z</time>
      </trkpt>
      <trkpt lat="43.53361" lon="6.65953">
        <ele>216</ele>
        <time>2011-12-11T10:19:06Z</time>
      </trkpt>
      <trkpt lat="43.53365" lon="6.65956">
        <ele>216</ele>
        <time>2011-12-11T10:19:07Z</time>
      </trkpt>
      <trkpt lat="43.53369" lon="6.65959">
        <ele>216</ele>
        <time>2011-12-11T10:19:08Z</time>
      </trkpt>
      <trkpt lat="43.53373" lon="6.65963">
        <ele>216</ele>
        <time>2011-12-11T10:19:09Z</time>
      </trkpt>
      <trkpt lat="43.53377" lon="6.65966">
        <ele>216</ele>
        <time>2011-12-11T10:19:10Z</time>
      </trkpt>
      <trkpt lat="43.53381" lon="6.65969">
        <ele>216</ele>
        <time>2011-12-11T10:19:11Z</time>
      </trkpt>
      <trkpt lat="43.53386" lon="6.65973">
        <ele>216</ele>
        <time>2011-12-11T10:19:12Z</time>
      </trkpt>
      <trkpt lat="43.5339" lon="6.65977">
        <ele>216</ele>
        <time>2011-12-11T10:19:13Z</time>
      </trkpt>
      <trkpt lat="43.53393" lon="6.65981">
        <ele>217</ele>
        <time>2011-12-11T10:19:14Z</time>
      </trkpt>
      <trkpt lat="43.53397" lon="6.65984">
        <ele>217</ele>
        <time>2011-12-11T10:19:15Z</time>
      </trkpt>
      <trkpt lat="43.53401" lon="6.65988">
        <ele>217</ele>
        <time>2011-12-11T10:19:16Z</time>
      </trkpt>
      <trkpt lat="43.53405" lon="6.65992">
        <ele>217</ele>
        <time>2011-12-11T10:19:17Z</time>
      </trkpt>
      <trkpt lat="43.53409" lon="6.65995">
        <ele>217</ele>
        <time>2011-12-11T10:19:18Z</time>
      </trkpt>
      <trkpt lat="43.53412" lon="6.65999">
        <ele>217</ele>
        <time>2011-12-11T10:19:19Z</time>
      </trkpt>
      <trkpt lat="43.53416" lon="6.66002">
        <ele>217</ele>
        <time>2011-12-11T10:19:20Z</time>
      </trkpt>
      <trkpt lat="43.5342" lon="6.66006">
        <ele>217</ele>
        <time>2011-12-11T10:19:21Z</time>
      </trkpt>
      <trkpt lat="43.53424" lon="6.66009">
        <ele>218</ele>
        <time>2011-12-11T10:19:22Z</time>
      </trkpt>
      <trkpt lat="43.53429" lon="6.66011">
        <ele>218</ele>
        <time>2011-12-11T10:19:23Z</time>
      </trkpt>
      <trkpt lat="43.53433" lon="6.66013">
        <ele>218</ele>
        <time>2011-12-11T10:19:24Z</time>
      </trkpt>
      <trkpt lat="43.53437" lon="6.66016">
        <ele>218</ele>
        <time>2011-12-11T10:19:25Z</time>
      </trkpt>
      <trkpt lat="43.53442" lon="6.66018">
        <ele>218</ele>
        <time>2011-12-11T10:19:26Z</time>
      </trkpt>
      <trkpt lat="43.53446" lon="6.6602">
        <ele>218</ele>
        <time>2011-12-11T10:19:27Z</time>
      </trkpt>
      <trkpt lat="43.5345" lon="6.66022">
        <ele>218</ele>
        <time>2011-12-11T10:19:28Z</time>
      </trkpt>
      <trkpt lat="43.53454" lon="6.66023">
        <ele>218</ele>
        <time>2011-12-11T10:19:29Z</time>
      </trkpt>
      <trkpt lat="43.53459" lon="6.66024">
        <ele>218</ele>
        <time>2011-12-11T10:19:30Z</time>
      </trkpt>
      <trkpt lat="43.53464" lon="6.66025">
        <ele>218</ele>
        <time>2011-12-11T10:19:31Z</time>
      </trkpt>
      <trkpt lat="43.53468" lon="6.66027">
        <ele>218</ele>
        <time>2011-12-11T10:19:32Z</time>
      </trkpt>
      <trkpt lat="43.53473" lon="6.66028">
        <ele>218</ele>
        <time>2011-12-11T10:19:33Z</time>
      </trkpt>
      <trkpt lat="43.53477" lon="6.66029">
        <ele>218</ele>
        <time>2011-12-11T10:19:34Z</time>
      </trkpt>
      <trkpt lat="43.53481" lon="6.66031">
        <ele>219</ele>
        <time>2011-12-11T10:19:35Z</time>
      </trkpt>
      <trkpt lat="43.53486" lon="6.66033">
        <ele>219</ele>
        <time>2011-12-11T10:19:36Z</time>
      </trkpt>
      <trkpt lat="43.5349" lon="6.66034">
        <ele>219</ele>
        <time>2011-12-11T10:19:37Z</time>
      </trkpt>
      <trkpt lat="43.53494" lon="6.66036">
        <ele>219</ele>
        <time>2011-12-11T10:19:38Z</time>
      </trkpt>
      <trkpt lat="43.53499" lon="6.66038">
        <ele>219</ele>
        <time>2011-12-11T10:19:39Z</time>
      </trkpt>
      <trkpt lat="43.53503" lon="6.6604">
        <ele>219</ele>
        <time>2011-12-11T10:19:40Z</time>
      </trkpt>
      <trkpt lat="43.53507" lon="6.66043">
        <ele>219</ele>
        <time>2011-12-11T10:19:41Z</time>
      </trkpt>
      <trkpt lat="43.53512" lon="6.66045">
        <ele>219</ele>
        <time>2011-12-11T10:19:42Z</time>
      </trkpt>
      <trkpt lat="43.53516" lon="6.66048">
        <ele>219</ele>
        <time>2011-12-11T10:19:43Z</time>
      </trkpt>
      <trkpt lat="43.5352" lon="6.6605">
        <ele>219</ele>
        <time>2011-12-11T10:19:44Z</time>
      </trkpt>
      <trkpt lat="43.53524" lon="6.66052">
        <ele>219</ele>
        <time>2011-12-11T10:19:45Z</time>
      </trkpt>
      <trkpt lat="43.53528" lon="6.66055">
        <ele>219</ele>
        <time>2011-12-11T10:19:46Z</time>
      </trkpt>
      <trkpt lat="43.53531" lon="6.66057">
        <ele>219</ele>
        <time>2011-12-11T10:19:47Z</time>
      </trkpt>
      <trkpt lat="43.53536" lon="6.6606">
        <ele>220</ele>
        <time>2011-12-11T10:19:48Z</time>
      </trkpt>
      <trkpt lat="43.5354" lon="6.66062">
        <ele>220</ele>
        <time>2011-12-11T10:19:49Z</time>
      </trkpt>
      <trkpt lat="43.53544" lon="6.66065">
        <ele>219</ele>
        <time>2011-12-11T10:19:50Z</time>
      </trkpt>
      <trkpt lat="43.53548" lon="6.66068">
        <ele>220</ele>
        <time>2011-12-11T10:19:51Z</time>
      </trkpt>
      <trkpt lat="43.53553" lon="6.66071">
        <ele>220</ele>
        <time>2011-12-11T10:19:52Z</time>
      </trkpt>
      <trkpt lat="43.53557" lon="6.66075">
        <ele>220</ele>
        <time>2011-12-11T10:19:53Z</time>
      </trkpt>
      <trkpt lat="43.53561" lon="6.66078">
        <ele>220</ele>
        <time>2011-12-11T10:19:54Z</time>
      </trkpt>
      <trkpt lat="43.53565" lon="6.6608">
        <ele>220</ele>
        <time>2011-12-11T10:19:55Z</time>
      </trkpt>
      <trkpt lat="43.5357" lon="6.66084">
        <ele>219</ele>
        <time>2011-12-11T10:19:56Z</time>
      </trkpt>
      <trkpt lat="43.53574" lon="6.66087">
        <ele>220</ele>
        <time>2011-12-11T10:19:57Z</time>
      </trkpt>
      <trkpt lat="43.53578" lon="6.6609">
        <ele>219</ele>
        <time>2011-12-11T10:19:58Z</time>
      </trkpt>
      <trkpt lat="43.53582" lon="6.66093">
        <ele>220</ele>
        <time>2011-12-11T10:19:59Z</time>
      </trkpt>
      <trkpt lat="43.53587" lon="6.66097">
        <ele>220</ele>
        <time>2011-12-11T10:20:00Z</time>
      </trkpt>
      <trkpt lat="43.53591" lon="6.661">
        <ele>220</ele>
        <time>2011-12-11T10:20:01Z</time>
      </trkpt>
      <trkpt lat="43.53594" lon="6.66104">
        <ele>220</ele>
        <time>2011-12-11T10:20:02Z</time>
      </trkpt>
      <trkpt lat="43.53598" lon="6.66107">
        <ele>220</ele>
        <time>2011-12-11T10:20:03Z</time>
      </trkpt>
      <trkpt lat="43.53602" lon="6.66111">
        <ele>220</ele>
        <time>2011-12-11T10:20:04Z</time>
      </trkpt>
      <trkpt lat="43.53606" lon="6.66114">
        <ele>220</ele>
        <time>2011-12-11T10:20:05Z</time>
      </trkpt>
      <trkpt lat="43.5361" lon="6.66117">
        <ele>221</ele>
        <time>2011-12-11T10:20:06Z</time>
      </trkpt>
      <trkpt lat="43.53614" lon="6.6612">
        <ele>221</ele>
        <time>2011-12-11T10:20:07Z</time>
      </trkpt>
      <trkpt lat="43.53618" lon="6.66123">
        <ele>221</ele>
        <time>2011-12-11T10:20:08Z</time>
      </trkpt>
      <trkpt lat="43.53622" lon="6.66126">
        <ele>221</ele>
        <time>2011-12-11T10:20:09Z</time>
      </trkpt>
      <trkpt lat="43.53627" lon="6.66128">
        <ele>221</ele>
        <time>2011-12-11T10:20:10Z</time>
      </trkpt>
      <trkpt lat="43.53631" lon="6.66131">
        <ele>221</ele>
        <time>2011-12-11T10:20:11Z</time>
      </trkpt>
      <trkpt lat="43.53636" lon="6.66133">
        <ele>221</ele>
        <time>2011-12-11T10:20:12Z</time>
      </trkpt>
      <trkpt lat="43.5364" lon="6.66135">
        <ele>221</ele>
        <time>2011-12-11T10:20:13Z</time>
      </trkpt>
      <trkpt lat="43.53645" lon="6.66138">
        <ele>221</ele>
        <time>2011-12-11T10:20:14Z</time>
      </trkpt>
      <trkpt lat="43.53649" lon="6.6614">
        <ele>221</ele>
        <time>2011-12-11T10:20:15Z</time>
      </trkpt>
      <trkpt lat="43.53654" lon="6.66143">
        <ele>221</ele>
        <time>2011-12-11T10:20:16Z</time>
      </trkpt>
      <trkpt lat="43.53659" lon="6.66145">
        <ele>222</ele>
        <time>2011-12-11T10:20:17Z</time>
      </trkpt>
      <trkpt lat="43.53664" lon="6.66147">
        <ele>222</ele>
        <time>2011-12-11T10:20:18Z</time>
      </trkpt>
      <trkpt lat="43.53669" lon="6.66148">
        <ele>222</ele>
        <time>2011-12-11T10:20:19Z</time>
      </trkpt>
      <trkpt lat="43.5372" lon="6.66156">
        <ele>224</ele>
        <time>2011-12-11T10:20:29Z</time>
      </trkpt>
      <trkpt lat="43.53725" lon="6.66157">
        <ele>224</ele>
        <time>2011-12-11T10:20:30Z</time>
      </trkpt>
      <trkpt lat="43.5373" lon="6.66157">
        <ele>224</ele>
        <time>2011-12-11T10:20:31Z</time>
      </trkpt>
      <trkpt lat="43.53735" lon="6.66157">
        <ele>224</ele>
        <time>2011-12-11T10:20:32Z</time>
      </trkpt>
      <trkpt lat="43.53739" lon="6.66158">
        <ele>225</ele>
        <time>2011-12-11T10:20:33Z</time>
      </trkpt>
      <trkpt lat="43.53744" lon="6.66158">
        <ele>225</ele>
        <time>2011-12-11T10:20:34Z</time>
      </trkpt>
      <trkpt lat="43.53749" lon="6.66158">
        <ele>225</ele>
        <time>2011-12-11T10:20:35Z</time>
      </trkpt>
      <trkpt lat="43.53754" lon="6.66159">
        <ele>225</ele>
        <time>2011-12-11T10:20:36Z</time>
      </trkpt>
      <trkpt lat="43.53759" lon="6.66159">
        <ele>225</ele>
        <time>2011-12-11T10:20:37Z</time>
      </trkpt>
      <trkpt lat="43.53764" lon="6.6616">
        <ele>225</ele>
        <time>2011-12-11T10:20:38Z</time>
      </trkpt>
      <trkpt lat="43.53769" lon="6.66161">
        <ele>225</ele>
        <time>2011-12-11T10:20:39Z</time>
      </trkpt>
      <trkpt lat="43.53773" lon="6.66162">
        <ele>225</ele>
        <time>2011-12-11T10:20:40Z</time>
      </trkpt>
      <trkpt lat="43.53778" lon="6.66162">
        <ele>225</ele>
        <time>2011-12-11T10:20:41Z</time>
      </trkpt>
      <trkpt lat="43.53782" lon="6.66163">
        <ele>225</ele>
        <time>2011-12-11T10:20:42Z</time>
      </trkpt>
      <trkpt lat="43.53787" lon="6.66163">
        <ele>225</ele>
        <time>2011-12-11T10:20:43Z</time>
      </trkpt>
      <trkpt lat="43.53791" lon="6.66163">
        <ele>226</ele>
        <time>2011-12-11T10:20:44Z</time>
      </trkpt>
      <trkpt lat="43.53796" lon="6.66163">
        <ele>226</ele>
        <time>2011-12-11T10:20:45Z</time>
      </trkpt>
      <trkpt lat="43.538" lon="6.66162">
        <ele>226</ele>
        <time>2011-12-11T10:20:46Z</time>
      </trkpt>
      <trkpt lat="43.53805" lon="6.66161">
        <ele>226</ele>
        <time>2011-12-11T10:20:47Z</time>
      </trkpt>
      <trkpt lat="43.53809" lon="6.6616">
        <ele>226</ele>
        <time>2011-12-11T10:20:48Z</time>
      </trkpt>
      <trkpt lat="43.53814" lon="6.66159">
        <ele>226</ele>
        <time>2011-12-11T10:20:49Z</time>
      </trkpt>
      <trkpt lat="43.53818" lon="6.66158">
        <ele>226</ele>
        <time>2011-12-11T10:20:50Z</time>
      </trkpt>
      <trkpt lat="43.53823" lon="6.66158">
        <ele>226</ele>
        <time>2011-12-11T10:20:51Z</time>
      </trkpt>
      <trkpt lat="43.53827" lon="6.66157">
        <ele>226</ele>
        <time>2011-12-11T10:20:52Z</time>
      </trkpt>
      <trkpt lat="43.53831" lon="6.66156">
        <ele>226</ele>
        <time>2011-12-11T10:20:53Z</time>
      </trkpt>
      <trkpt lat="43.53836" lon="6.66156">
        <ele>226</ele>
        <time>2011-12-11T10:20:54Z</time>
      </trkpt>
      <trkpt lat="43.5384" lon="6.66156">
        <ele>226</ele>
        <time>2011-12-11T10:20:55Z</time>
      </trkpt>
      <trkpt lat="43.53845" lon="6.66157">
        <ele>225</ele>
        <time>2011-12-11T10:20:56Z</time>
      </trkpt>
      <trkpt lat="43.5385" lon="6.66158">
        <ele>225</ele>
        <time>2011-12-11T10:20:57Z</time>
      </trkpt>
      <trkpt lat="43.53855" lon="6.6616">
        <ele>225</ele>
        <time>2011-12-11T10:20:58Z</time>
      </trkpt>
      <trkpt lat="43.5386" lon="6.66162">
        <ele>225</ele>
        <time>2011-12-11T10:20:59Z</time>
      </trkpt>
      <trkpt lat="43.53865" lon="6.66164">
        <ele>225</ele>
        <time>2011-12-11T10:21:00Z</time>
      </trkpt>
      <trkpt lat="43.53869" lon="6.66166">
        <ele>226</ele>
        <time>2011-12-11T10:21:01Z</time>
      </trkpt>
      <trkpt lat="43.53874" lon="6.66169">
        <ele>226</ele>
        <time>2011-12-11T10:21:02Z</time>
      </trkpt>
      <trkpt lat="43.53879" lon="6.66171">
        <ele>226</ele>
        <time>2011-12-11T10:21:03Z</time>
      </trkpt>
      <trkpt lat="43.53883" lon="6.66173">
        <ele>226</ele>
        <time>2011-12-11T10:21:04Z</time>
      </trkpt>
      <trkpt lat="43.53888" lon="6.66176">
        <ele>225</ele>
        <time>2011-12-11T10:21:05Z</time>
      </trkpt>
      <trkpt lat="43.53893" lon="6.66178">
        <ele>225</ele>
        <time>2011-12-11T10:21:06Z</time>
      </trkpt>
      <trkpt lat="43.53897" lon="6.6618">
        <ele>225</ele>
        <time>2011-12-11T10:21:07Z</time>
      </trkpt>
      <trkpt lat="43.53902" lon="6.66183">
        <ele>225</ele>
        <time>2011-12-11T10:21:08Z</time>
      </trkpt>
      <trkpt lat="43.53906" lon="6.66184">
        <ele>225</ele>
        <time>2011-12-11T10:21:09Z</time>
      </trkpt>
      <trkpt lat="43.53911" lon="6.66187">
        <ele>224</ele>
        <time>2011-12-11T10:21:10Z</time>
      </trkpt>
      <trkpt lat="43.53916" lon="6.66188">
        <ele>224</ele>
        <time>2011-12-11T10:21:11Z</time>
      </trkpt>
      <trkpt lat="43.5392" lon="6.6619">
        <ele>225</ele>
        <time>2011-12-11T10:21:12Z</time>
      </trkpt>
      <trkpt lat="43.53925" lon="6.66193">
        <ele>225</ele>
        <time>2011-12-11T10:21:13Z</time>
      </trkpt>
      <trkpt lat="43.53929" lon="6.66195">
        <ele>225</ele>
        <time>2011-12-11T10:21:14Z</time>
      </trkpt>
      <trkpt lat="43.53934" lon="6.66197">
        <ele>225</ele>
        <time>2011-12-11T10:21:15Z</time>
      </trkpt>
      <trkpt lat="43.53938" lon="6.66198">
        <ele>225</ele>
        <time>2011-12-11T10:21:16Z</time>
      </trkpt>
      <trkpt lat="43.53943" lon="6.662">
        <ele>225</ele>
        <time>2011-12-11T10:21:17Z</time>
      </trkpt>
      <trkpt lat="43.53947" lon="6.66201">
        <ele>225</ele>
        <time>2011-12-11T10:21:18Z</time>
      </trkpt>
      <trkpt lat="43.53952" lon="6.66202">
        <ele>225</ele>
        <time>2011-12-11T10:21:19Z</time>
      </trkpt>
      <trkpt lat="43.53956" lon="6.66202">
        <ele>225</ele>
        <time>2011-12-11T10:21:20Z</time>
      </trkpt>
      <trkpt lat="43.5396" lon="6.66202">
        <ele>225</ele>
        <time>2011-12-11T10:21:21Z</time>
      </trkpt>
      <trkpt lat="43.53965" lon="6.66202">
        <ele>226</ele>
        <time>2011-12-11T10:21:22Z</time>
      </trkpt>
      <trkpt lat="43.53969" lon="6.66202">
        <ele>226</ele>
        <time>2011-12-11T10:21:23Z</time>
      </trkpt>
      <trkpt lat="43.53973" lon="6.66201">
        <ele>226</ele>
        <time>2011-12-11T10:21:24Z</time>
      </trkpt>
      <trkpt lat="43.53977" lon="6.662">
        <ele>226</ele>
        <time>2011-12-11T10:21:25Z</time>
      </trkpt>
      <trkpt lat="43.53981" lon="6.66199">
        <ele>227</ele>
        <time>2011-12-11T10:21:26Z</time>
      </trkpt>
      <trkpt lat="43.53985" lon="6.66197">
        <ele>227</ele>
        <time>2011-12-11T10:21:27Z</time>
      </trkpt>
      <trkpt lat="43.53989" lon="6.66196">
        <ele>227</ele>
        <time>2011-12-11T10:21:28Z</time>
      </trkpt>
      <trkpt lat="43.53993" lon="6.66194">
        <ele>227</ele>
        <time>2011-12-11T10:21:29Z</time>
      </trkpt>
      <trkpt lat="43.53996" lon="6.66193">
        <ele>227</ele>
        <time>2011-12-11T10:21:30Z</time>
      </trkpt>
      <trkpt lat="43.53999" lon="6.6619">
        <ele>227</ele>
        <time>2011-12-11T10:21:31Z</time>
      </trkpt>
      <trkpt lat="43.54002" lon="6.66188">
        <ele>227</ele>
        <time>2011-12-11T10:21:32Z</time>
      </trkpt>
      <trkpt lat="43.54005" lon="6.66185">
        <ele>227</ele>
        <time>2011-12-11T10:21:33Z</time>
      </trkpt>
      <trkpt lat="43.54009" lon="6.66183">
        <ele>228</ele>
        <time>2011-12-11T10:21:34Z</time>
      </trkpt>
      <trkpt lat="43.54011" lon="6.66186">
        <ele>228</ele>
        <time>2011-12-11T10:21:35Z</time>
      </trkpt>
      <trkpt lat="43.5401" lon="6.66191">
        <ele>229</ele>
        <time>2011-12-11T10:21:36Z</time>
      </trkpt>
      <trkpt lat="43.54011" lon="6.66196">
        <ele>230</ele>
        <time>2011-12-11T10:21:37Z</time>
      </trkpt>
      <trkpt lat="43.5401" lon="6.66201">
        <ele>230</ele>
        <time>2011-12-11T10:21:38Z</time>
      </trkpt>
      <trkpt lat="43.54009" lon="6.66206">
        <ele>230</ele>
        <time>2011-12-11T10:21:39Z</time>
      </trkpt>
      <trkpt lat="43.54007" lon="6.66212">
        <ele>231</ele>
        <time>2011-12-11T10:21:40Z</time>
      </trkpt>
      <trkpt lat="43.54005" lon="6.66218">
        <ele>231</ele>
        <time>2011-12-11T10:21:41Z</time>
      </trkpt>
      <trkpt lat="43.54004" lon="6.66224">
        <ele>231</ele>
        <time>2011-12-11T10:21:42Z</time>
      </trkpt>
      <trkpt lat="43.54002" lon="6.6623">
        <ele>231</ele>
        <time>2011-12-11T10:21:43Z</time>
      </trkpt>
      <trkpt lat="43.54001" lon="6.66236">
        <ele>231</ele>
        <time>2011-12-11T10:21:44Z</time>
      </trkpt>
      <trkpt lat="43.53999" lon="6.66243">
        <ele>231</ele>
        <time>2011-12-11T10:21:45Z</time>
      </trkpt>
      <trkpt lat="43.53998" lon="6.6625">
        <ele>230</ele>
        <time>2011-12-11T10:21:46Z</time>
      </trkpt>
      <trkpt lat="43.53996" lon="6.66256">
        <ele>230</ele>
        <time>2011-12-11T10:21:47Z</time>
      </trkpt>
      <trkpt lat="43.53994" lon="6.66263">
        <ele>230</ele>
        <time>2011-12-11T10:21:48Z</time>
      </trkpt>
      <trkpt lat="43.53992" lon="6.66269">
        <ele>230</ele>
        <time>2011-12-11T10:21:49Z</time>
      </trkpt>
      <trkpt lat="43.53991" lon="6.66277">
        <ele>230</ele>
        <time>2011-12-11T10:21:50Z</time>
      </trkpt>
      <trkpt lat="43.53975" lon="6.66353">
        <ele>227</ele>
        <time>2011-12-11T10:22:00Z</time>
      </trkpt>
      <trkpt lat="43.53957" lon="6.6643">
        <ele>226</ele>
        <time>2011-12-11T10:22:10Z</time>
      </trkpt>
      <trkpt lat="43.53943" lon="6.66507">
        <ele>225</ele>
        <time>2011-12-11T10:22:20Z</time>
      </trkpt>
      <trkpt lat="43.53948" lon="6.66596">
        <ele>226</ele>
        <time>2011-12-11T10:22:30Z</time>
      </trkpt>
      <trkpt lat="43.53943" lon="6.66678">
        <ele>226</ele>
        <time>2011-12-11T10:22:40Z</time>
      </trkpt>
      <trkpt lat="43.53936" lon="6.66754">
        <ele>228</ele>
        <time>2011-12-11T10:22:50Z</time>
      </trkpt>
      <trkpt lat="43.53935" lon="6.66761">
        <ele>228</ele>
        <time>2011-12-11T10:22:51Z</time>
      </trkpt>
      <trkpt lat="43.53935" lon="6.66768">
        <ele>228</ele>
        <time>2011-12-11T10:22:52Z</time>
      </trkpt>
      <trkpt lat="43.53934" lon="6.66775">
        <ele>228</ele>
        <time>2011-12-11T10:22:53Z</time>
      </trkpt>
      <trkpt lat="43.53933" lon="6.66782">
        <ele>228</ele>
        <time>2011-12-11T10:22:54Z</time>
      </trkpt>
      <trkpt lat="43.53927" lon="6.66852">
        <ele>227</ele>
        <time>2011-12-11T10:23:04Z</time>
      </trkpt>
      <trkpt lat="43.53926" lon="6.66859">
        <ele>227</ele>
        <time>2011-12-11T10:23:05Z</time>
      </trkpt>
      <trkpt lat="43.53925" lon="6.66866">
        <ele>227</ele>
        <time>2011-12-11T10:23:06Z</time>
      </trkpt>
      <trkpt lat="43.53925" lon="6.66873">
        <ele>227</ele>
        <time>2011-12-11T10:23:07Z</time>
      </trkpt>
      <trkpt lat="43.53924" lon="6.6688">
        <ele>227</ele>
        <time>2011-12-11T10:23:08Z</time>
      </trkpt>
      <trkpt lat="43.53923" lon="6.66886">
        <ele>227</ele>
        <time>2011-12-11T10:23:09Z</time>
      </trkpt>
      <trkpt lat="43.53923" lon="6.66893">
        <ele>227</ele>
        <time>2011-12-11T10:23:10Z</time>
      </trkpt>
      <trkpt lat="43.53922" lon="6.669">
        <ele>227</ele>
        <time>2011-12-11T10:23:11Z</time>
      </trkpt>
      <trkpt lat="43.53921" lon="6.66906">
        <ele>227</ele>
        <time>2011-12-11T10:23:12Z</time>
      </trkpt>
      <trkpt lat="43.5392" lon="6.66913">
        <ele>227</ele>
        <time>2011-12-11T10:23:13Z</time>
      </trkpt>
      <trkpt lat="43.53919" lon="6.66919">
        <ele>227</ele>
        <time>2011-12-11T10:23:14Z</time>
      </trkpt>
      <trkpt lat="43.53918" lon="6.66925">
        <ele>227</ele>
        <time>2011-12-11T10:23:15Z</time>
      </trkpt>
      <trkpt lat="43.53917" lon="6.6693">
        <ele>227</ele>
        <time>2011-12-11T10:23:16Z</time>
      </trkpt>
      <trkpt lat="43.53916" lon="6.66935">
        <ele>227</ele>
        <time>2011-12-11T10:23:17Z</time>
      </trkpt>
      <trkpt lat="43.53915" lon="6.66941">
        <ele>227</ele>
        <time>2011-12-11T10:23:18Z</time>
      </trkpt>
      <trkpt lat="43.53915" lon="6.66945">
        <ele>227</ele>
        <time>2011-12-11T10:23:19Z</time>
      </trkpt>
      <trkpt lat="43.53914" lon="6.6695">
        <ele>227</ele>
        <time>2011-12-11T10:23:20Z</time>
      </trkpt>
      <trkpt lat="43.53913" lon="6.66955">
        <ele>227</ele>
        <time>2011-12-11T10:23:21Z</time>
      </trkpt>
      <trkpt lat="43.53912" lon="6.6696">
        <ele>226</ele>
        <time>2011-12-11T10:23:22Z</time>
      </trkpt>
      <trkpt lat="43.53911" lon="6.66966">
        <ele>226</ele>
        <time>2011-12-11T10:23:23Z</time>
      </trkpt>
      <trkpt lat="43.53912" lon="6.66971">
        <ele>226</ele>
        <time>2011-12-11T10:23:24Z</time>
      </trkpt>
      <trkpt lat="43.53913" lon="6.66976">
        <ele>226</ele>
        <time>2011-12-11T10:23:25Z</time>
      </trkpt>
      <trkpt lat="43.53916" lon="6.66981">
        <ele>226</ele>
        <time>2011-12-11T10:23:26Z</time>
      </trkpt>
      <trkpt lat="43.53919" lon="6.66985">
        <ele>226</ele>
        <time>2011-12-11T10:23:27Z</time>
      </trkpt>
      <trkpt lat="43.53922" lon="6.66989">
        <ele>226</ele>
        <time>2011-12-11T10:23:28Z</time>
      </trkpt>
      <trkpt lat="43.53925" lon="6.66993">
        <ele>226</ele>
        <time>2011-12-11T10:23:29Z</time>
      </trkpt>
      <trkpt lat="43.53929" lon="6.66997">
        <ele>226</ele>
        <time>2011-12-11T10:23:30Z</time>
      </trkpt>
      <trkpt lat="43.53932" lon="6.67002">
        <ele>226</ele>
        <time>2011-12-11T10:23:31Z</time>
      </trkpt>
      <trkpt lat="43.53934" lon="6.67007">
        <ele>226</ele>
        <time>2011-12-11T10:23:32Z</time>
      </trkpt>
      <trkpt lat="43.53936" lon="6.67011">
        <ele>226</ele>
        <time>2011-12-11T10:23:33Z</time>
      </trkpt>
      <trkpt lat="43.53939" lon="6.67015">
        <ele>226</ele>
        <time>2011-12-11T10:23:34Z</time>
      </trkpt>
      <trkpt lat="43.53941" lon="6.6702">
        <ele>226</ele>
        <time>2011-12-11T10:23:35Z</time>
      </trkpt>
      <trkpt lat="43.53943" lon="6.67024">
        <ele>226</ele>
        <time>2011-12-11T10:23:36Z</time>
      </trkpt>
      <trkpt lat="43.53945" lon="6.67028">
        <ele>227</ele>
        <time>2011-12-11T10:23:37Z</time>
      </trkpt>
      <trkpt lat="43.53946" lon="6.67033">
        <ele>227</ele>
        <time>2011-12-11T10:23:38Z</time>
      </trkpt>
      <trkpt lat="43.53948" lon="6.67037">
        <ele>227</ele>
        <time>2011-12-11T10:23:39Z</time>
      </trkpt>
      <trkpt lat="43.5395" lon="6.67041">
        <ele>227</ele>
        <time>2011-12-11T10:23:40Z</time>
      </trkpt>
      <trkpt lat="43.53951" lon="6.67045">
        <ele>227</ele>
        <time>2011-12-11T10:23:41Z</time>
      </trkpt>
      <trkpt lat="43.53952" lon="6.67049">
        <ele>227</ele>
        <time>2011-12-11T10:23:42Z</time>
      </trkpt>
      <trkpt lat="43.53953" lon="6.67054">
        <ele>227</ele>
        <time>2011-12-11T10:23:43Z</time>
      </trkpt>
      <trkpt lat="43.53954" lon="6.67058">
        <ele>228</ele>
        <time>2011-12-11T10:23:44Z</time>
      </trkpt>
      <trkpt lat="43.53955" lon="6.67062">
        <ele>228</ele>
        <time>2011-12-11T10:23:45Z</time>
      </trkpt>
      <trkpt lat="43.53955" lon="6.67067">
        <ele>228</ele>
        <time>2011-12-11T10:23:46Z</time>
      </trkpt>
      <trkpt lat="43.53956" lon="6.67071">
        <ele>228</ele>
        <time>2011-12-11T10:23:47Z</time>
      </trkpt>
      <trkpt lat="43.53956" lon="6.67075">
        <ele>228</ele>
        <time>2011-12-11T10:23:48Z</time>
      </trkpt>
      <trkpt lat="43.53956" lon="6.6708">
        <ele>229</ele>
        <time>2011-12-11T10:23:49Z</time>
      </trkpt>
      <trkpt lat="43.53957" lon="6.67084">
        <ele>229</ele>
        <time>2011-12-11T10:23:50Z</time>
      </trkpt>
      <trkpt lat="43.53957" lon="6.67088">
        <ele>229</ele>
        <time>2011-12-11T10:23:51Z</time>
      </trkpt>
      <trkpt lat="43.53958" lon="6.67092">
        <ele>229</ele>
        <time>2011-12-11T10:23:52Z</time>
      </trkpt>
      <trkpt lat="43.53959" lon="6.67097">
        <ele>229</ele>
        <time>2011-12-11T10:23:53Z</time>
      </trkpt>
      <trkpt lat="43.53959" lon="6.67101">
        <ele>230</ele>
        <time>2011-12-11T10:23:54Z</time>
      </trkpt>
      <trkpt lat="43.53959" lon="6.67105">
        <ele>230</ele>
        <time>2011-12-11T10:23:55Z</time>
      </trkpt>
      <trkpt lat="43.5396" lon="6.6711">
        <ele>230</ele>
        <time>2011-12-11T10:23:56Z</time>
      </trkpt>
      <trkpt lat="43.5396" lon="6.67114">
        <ele>230</ele>
        <time>2011-12-11T10:23:57Z</time>
      </trkpt>
      <trkpt lat="43.5396" lon="6.67119">
        <ele>230</ele>
        <time>2011-12-11T10:23:58Z</time>
      </trkpt>
      <trkpt lat="43.53961" lon="6.67123">
        <ele>230</ele>
        <time>2011-12-11T10:23:59Z</time>
      </trkpt>
      <trkpt lat="43.53961" lon="6.67128">
        <ele>230</ele>
        <time>2011-12-11T10:24:00Z</time>
      </trkpt>
      <trkpt lat="43.53962" lon="6.67133">
        <ele>230</ele>
        <time>2011-12-11T10:24:01Z</time>
      </trkpt>
      <trkpt lat="43.53963" lon="6.67138">
        <ele>230</ele>
        <time>2011-12-11T10:24:02Z</time>
      </trkpt>
      <trkpt lat="43.53963" lon="6.67143">
        <ele>231</ele>
        <time>2011-12-11T10:24:03Z</time>
      </trkpt>
      <trkpt lat="43.53964" lon="6.67148">
        <ele>231</ele>
        <time>2011-12-11T10:24:04Z</time>
      </trkpt>
      <trkpt lat="43.53965" lon="6.67153">
        <ele>231</ele>
        <time>2011-12-11T10:24:05Z</time>
      </trkpt>
      <trkpt lat="43.53966" lon="6.67158">
        <ele>231</ele>
        <time>2011-12-11T10:24:06Z</time>
      </trkpt>
      <trkpt lat="43.53966" lon="6.67162">
        <ele>231</ele>
        <time>2011-12-11T10:24:07Z</time>
      </trkpt>
      <trkpt lat="43.53967" lon="6.67167">
        <ele>231</ele>
        <time>2011-12-11T10:24:08Z</time>
      </trkpt>
      <trkpt lat="43.53969" lon="6.67172">
        <ele>231</ele>
        <time>2011-12-11T10:24:09Z</time>
      </trkpt>
      <trkpt lat="43.5397" lon="6.67176">
        <ele>231</ele>
        <time>2011-12-11T10:24:10Z</time>
      </trkpt>
      <trkpt lat="43.53971" lon="6.67181">
        <ele>231</ele>
        <time>2011-12-11T10:24:11Z</time>
      </trkpt>
      <trkpt lat="43.53973" lon="6.67185">
        <ele>231</ele>
        <time>2011-12-11T10:24:12Z</time>
      </trkpt>
      <trkpt lat="43.53974" lon="6.67189">
        <ele>231</ele>
        <time>2011-12-11T10:24:13Z</time>
      </trkpt>
      <trkpt lat="43.53976" lon="6.67194">
        <ele>231</ele>
        <time>2011-12-11T10:24:14Z</time>
      </trkpt>
      <trkpt lat="43.53977" lon="6.67197">
        <ele>231</ele>
        <time>2011-12-11T10:24:15Z</time>
      </trkpt>
      <trkpt lat="43.53979" lon="6.67202">
        <ele>230</ele>
        <time>2011-12-11T10:24:16Z</time>
      </trkpt>
      <trkpt lat="43.5398" lon="6.67206">
        <ele>230</ele>
        <time>2011-12-11T10:24:17Z</time>
      </trkpt>
      <trkpt lat="43.53981" lon="6.67211">
        <ele>230</ele>
        <time>2011-12-11T10:24:18Z</time>
      </trkpt>
      <trkpt lat="43.53982" lon="6.67216">
        <ele>230</ele>
        <time>2011-12-11T10:24:19Z</time>
      </trkpt>
      <trkpt lat="43.53983" lon="6.67221">
        <ele>230</ele>
        <time>2011-12-11T10:24:20Z</time>
      </trkpt>
      <trkpt lat="43.53983" lon="6.67226">
        <ele>230</ele>
        <time>2011-12-11T10:24:21Z</time>
      </trkpt>
      <trkpt lat="43.53983" lon="6.6723">
        <ele>231</ele>
        <time>2011-12-11T10:24:22Z</time>
      </trkpt>
      <trkpt lat="43.53983" lon="6.67235">
        <ele>231</ele>
        <time>2011-12-11T10:24:23Z</time>
      </trkpt>
      <trkpt lat="43.53983" lon="6.6724">
        <ele>231</ele>
        <time>2011-12-11T10:24:24Z</time>
      </trkpt>
      <trkpt lat="43.53983" lon="6.67244">
        <ele>231</ele>
        <time>2011-12-11T10:24:25Z</time>
      </trkpt>
      <trkpt lat="43.53984" lon="6.67249">
        <ele>231</ele>
        <time>2011-12-11T10:24:26Z</time>
      </trkpt>
      <trkpt lat="43.53984" lon="6.67254">
        <ele>231</ele>
        <time>2011-12-11T10:24:27Z</time>
      </trkpt>
      <trkpt lat="43.53983" lon="6.67259">
        <ele>231</ele>
        <time>2011-12-11T10:24:28Z</time>
      </trkpt>
      <trkpt lat="43.53983" lon="6.67265">
        <ele>231</ele>
        <time>2011-12-11T10:24:29Z</time>
      </trkpt>
      <trkpt lat="43.53984" lon="6.6727">
        <ele>231</ele>
        <time>2011-12-11T10:24:30Z</time>
      </trkpt>
      <trkpt lat="43.53984" lon="6.67275">
        <ele>231</ele>
        <time>2011-12-11T10:24:31Z</time>
      </trkpt>
      <trkpt lat="43.53985" lon="6.6728">
        <ele>232</ele>
        <time>2011-12-11T10:24:32Z</time>
      </trkpt>
      <trkpt lat="43.53986" lon="6.67285">
        <ele>232</ele>
        <time>2011-12-11T10:24:33Z</time>
      </trkpt>
      <trkpt lat="43.53987" lon="6.6729">
        <ele>232</ele>
        <time>2011-12-11T10:24:34Z</time>
      </trkpt>
      <trkpt lat="43.53987" lon="6.67295">
        <ele>232</ele>
        <time>2011-12-11T10:24:35Z</time>
      </trkpt>
      <trkpt lat="43.53988" lon="6.673">
        <ele>231</ele>
        <time>2011-12-11T10:24:36Z</time>
      </trkpt>
      <trkpt lat="43.53989" lon="6.67305">
        <ele>231</ele>
        <time>2011-12-11T10:24:37Z</time>
      </trkpt>
      <trkpt lat="43.5399" lon="6.67311">
        <ele>231</ele>
        <time>2011-12-11T10:24:38Z</time>
      </trkpt>
      <trkpt lat="43.53991" lon="6.67316">
        <ele>231</ele>
        <time>2011-12-11T10:24:39Z</time>
      </trkpt>
      <trkpt lat="43.53991" lon="6.67321">
        <ele>231</ele>
        <time>2011-12-11T10:24:40Z</time>
      </trkpt>
      <trkpt lat="43.53992" lon="6.67326">
        <ele>231</ele>
        <time>2011-12-11T10:24:41Z</time>
      </trkpt>
      <trkpt lat="43.53994" lon="6.67331">
        <ele>231</ele>
        <time>2011-12-11T10:24:42Z</time>
      </trkpt>
      <trkpt lat="43.53995" lon="6.67336">
        <ele>231</ele>
        <time>2011-12-11T10:24:43Z</time>
      </trkpt>
      <trkpt lat="43.53996" lon="6.67341">
        <ele>231</ele>
        <time>2011-12-11T10:24:44Z</time>
      </trkpt>
      <trkpt lat="43.53997" lon="6.67346">
        <ele>231</ele>
        <time>2011-12-11T10:24:45Z</time>
      </trkpt>
      <trkpt lat="43.53997" lon="6.67351">
        <ele>231</ele>
        <time>2011-12-11T10:24:46Z</time>
      </trkpt>
      <trkpt lat="43.53999" lon="6.67356">
        <ele>232</ele>
        <time>2011-12-11T10:24:47Z</time>
      </trkpt>
      <trkpt lat="43.54" lon="6.6736">
        <ele>232</ele>
        <time>2011-12-11T10:24:48Z</time>
      </trkpt>
      <trkpt lat="43.54001" lon="6.67365">
        <ele>232</ele>
        <time>2011-12-11T10:24:49Z</time>
      </trkpt>
      <trkpt lat="43.54003" lon="6.67369">
        <ele>232</ele>
        <time>2011-12-11T10:24:50Z</time>
      </trkpt>
      <trkpt lat="43.54004" lon="6.67374">
        <ele>232</ele>
        <time>2011-12-11T10:24:51Z</time>
      </trkpt>
      <trkpt lat="43.54005" lon="6.67378">
        <ele>232</ele>
        <time>2011-12-11T10:24:52Z</time>
      </trkpt>
      <trkpt lat="43.54006" lon="6.67383">
        <ele>232</ele>
        <time>2011-12-11T10:24:53Z</time>
      </trkpt>
      <trkpt lat="43.54008" lon="6.67387">
        <ele>232</ele>
        <time>2011-12-11T10:24:54Z</time>
      </trkpt>
      <trkpt lat="43.54009" lon="6.67391">
        <ele>233</ele>
        <time>2011-12-11T10:24:55Z</time>
      </trkpt>
      <trkpt lat="43.54011" lon="6.67396">
        <ele>233</ele>
        <time>2011-12-11T10:24:56Z</time>
      </trkpt>
      <trkpt lat="43.54012" lon="6.674">
        <ele>233</ele>
        <time>2011-12-11T10:24:57Z</time>
      </trkpt>
      <trkpt lat="43.54014" lon="6.67405">
        <ele>233</ele>
        <time>2011-12-11T10:24:58Z</time>
      </trkpt>
      <trkpt lat="43.54015" lon="6.67409">
        <ele>233</ele>
        <time>2011-12-11T10:24:59Z</time>
      </trkpt>
      <trkpt lat="43.54017" lon="6.67414">
        <ele>233</ele>
        <time>2011-12-11T10:25:00Z</time>
      </trkpt>
      <trkpt lat="43.54019" lon="6.67418">
        <ele>233</ele>
        <time>2011-12-11T10:25:01Z</time>
      </trkpt>
      <trkpt lat="43.5402" lon="6.67423">
        <ele>233</ele>
        <time>2011-12-11T10:25:02Z</time>
      </trkpt>
      <trkpt lat="43.54022" lon="6.67428">
        <ele>233</ele>
        <time>2011-12-11T10:25:03Z</time>
      </trkpt>
      <trkpt lat="43.54023" lon="6.67432">
        <ele>233</ele>
        <time>2011-12-11T10:25:04Z</time>
      </trkpt>
      <trkpt lat="43.54025" lon="6.67437">
        <ele>233</ele>
        <time>2011-12-11T10:25:05Z</time>
      </trkpt>
      <trkpt lat="43.54026" lon="6.67442">
        <ele>233</ele>
        <time>2011-12-11T10:25:06Z</time>
      </trkpt>
      <trkpt lat="43.54028" lon="6.67447">
        <ele>233</ele>
        <time>2011-12-11T10:25:07Z</time>
      </trkpt>
      <trkpt lat="43.5403" lon="6.67451">
        <ele>233</ele>
        <time>2011-12-11T10:25:08Z</time>
      </trkpt>
      <trkpt lat="43.54032" lon="6.67456">
        <ele>233</ele>
        <time>2011-12-11T10:25:09Z</time>
      </trkpt>
      <trkpt lat="43.54033" lon="6.67461">
        <ele>233</ele>
        <time>2011-12-11T10:25:10Z</time>
      </trkpt>
      <trkpt lat="43.54034" lon="6.67465">
        <ele>233</ele>
        <time>2011-12-11T10:25:11Z</time>
      </trkpt>
      <trkpt lat="43.54036" lon="6.67469">
        <ele>233</ele>
        <time>2011-12-11T10:25:12Z</time>
      </trkpt>
      <trkpt lat="43.54037" lon="6.67473">
        <ele>233</ele>
        <time>2011-12-11T10:25:13Z</time>
      </trkpt>
      <trkpt lat="43.54039" lon="6.67478">
        <ele>234</ele>
        <time>2011-12-11T10:25:14Z</time>
      </trkpt>
      <trkpt lat="43.54041" lon="6.67482">
        <ele>234</ele>
        <time>2011-12-11T10:25:15Z</time>
      </trkpt>
      <trkpt lat="43.54042" lon="6.67487">
        <ele>233</ele>
        <time>2011-12-11T10:25:16Z</time>
      </trkpt>
      <trkpt lat="43.54044" lon="6.67491">
        <ele>233</ele>
        <time>2011-12-11T10:25:17Z</time>
      </trkpt>
      <trkpt lat="43.54046" lon="6.67494">
        <ele>233</ele>
        <time>2011-12-11T10:25:18Z</time>
      </trkpt>
      <trkpt lat="43.54048" lon="6.67498">
        <ele>234</ele>
        <time>2011-12-11T10:25:19Z</time>
      </trkpt>
      <trkpt lat="43.54049" lon="6.67502">
        <ele>234</ele>
        <time>2011-12-11T10:25:20Z</time>
      </trkpt>
      <trkpt lat="43.54051" lon="6.67506">
        <ele>234</ele>
        <time>2011-12-11T10:25:21Z</time>
      </trkpt>
      <trkpt lat="43.54052" lon="6.6751">
        <ele>234</ele>
        <time>2011-12-11T10:25:22Z</time>
      </trkpt>
      <trkpt lat="43.54054" lon="6.67513">
        <ele>234</ele>
        <time>2011-12-11T10:25:23Z</time>
      </trkpt>
      <trkpt lat="43.54055" lon="6.67517">
        <ele>234</ele>
        <time>2011-12-11T10:25:24Z</time>
      </trkpt>
      <trkpt lat="43.54057" lon="6.67521">
        <ele>234</ele>
        <time>2011-12-11T10:25:25Z</time>
      </trkpt>
      <trkpt lat="43.54058" lon="6.67526">
        <ele>234</ele>
        <time>2011-12-11T10:25:26Z</time>
      </trkpt>
      <trkpt lat="43.5406" lon="6.6753">
        <ele>234</ele>
        <time>2011-12-11T10:25:27Z</time>
      </trkpt>
      <trkpt lat="43.54061" lon="6.67534">
        <ele>234</ele>
        <time>2011-12-11T10:25:28Z</time>
      </trkpt>
      <trkpt lat="43.54063" lon="6.67538">
        <ele>234</ele>
        <time>2011-12-11T10:25:29Z</time>
      </trkpt>
      <trkpt lat="43.54065" lon="6.67543">
        <ele>234</ele>
        <time>2011-12-11T10:25:30Z</time>
      </trkpt>
      <trkpt lat="43.54066" lon="6.67547">
        <ele>234</ele>
        <time>2011-12-11T10:25:31Z</time>
      </trkpt>
      <trkpt lat="43.54068" lon="6.67551">
        <ele>234</ele>
        <time>2011-12-11T10:25:32Z</time>
      </trkpt>
      <trkpt lat="43.54069" lon="6.67555">
        <ele>234</ele>
        <time>2011-12-11T10:25:33Z</time>
      </trkpt>
      <trkpt lat="43.54071" lon="6.67559">
        <ele>234</ele>
        <time>2011-12-11T10:25:34Z</time>
      </trkpt>
      <trkpt lat="43.54072" lon="6.67563">
        <ele>234</ele>
        <time>2011-12-11T10:25:35Z</time>
      </trkpt>
      <trkpt lat="43.54074" lon="6.67568">
        <ele>235</ele>
        <time>2011-12-11T10:25:36Z</time>
      </trkpt>
      <trkpt lat="43.54075" lon="6.67572">
        <ele>235</ele>
        <time>2011-12-11T10:25:37Z</time>
      </trkpt>
      <trkpt lat="43.54077" lon="6.67576">
        <ele>235</ele>
        <time>2011-12-11T10:25:38Z</time>
      </trkpt>
      <trkpt lat="43.54079" lon="6.67581">
        <ele>235</ele>
        <time>2011-12-11T10:25:39Z</time>
      </trkpt>
      <trkpt lat="43.5408" lon="6.67585">
        <ele>235</ele>
        <time>2011-12-11T10:25:40Z</time>
      </trkpt>
      <trkpt lat="43.54082" lon="6.67589">
        <ele>235</ele>
        <time>2011-12-11T10:25:41Z</time>
      </trkpt>
      <trkpt lat="43.54084" lon="6.67594">
        <ele>235</ele>
        <time>2011-12-11T10:25:42Z</time>
      </trkpt>
      <trkpt lat="43.54085" lon="6.67597">
        <ele>235</ele>
        <time>2011-12-11T10:25:43Z</time>
      </trkpt>
      <trkpt lat="43.54087" lon="6.67602">
        <ele>235</ele>
        <time>2011-12-11T10:25:44Z</time>
      </trkpt>
      <trkpt lat="43.54088" lon="6.67606">
        <ele>235</ele>
        <time>2011-12-11T10:25:45Z</time>
      </trkpt>
      <trkpt lat="43.5409" lon="6.6761">
        <ele>235</ele>
        <time>2011-12-11T10:25:46Z</time>
      </trkpt>
      <trkpt lat="43.54091" lon="6.67615">
        <ele>235</ele>
        <time>2011-12-11T10:25:47Z</time>
      </trkpt>
      <trkpt lat="43.54092" lon="6.67619">
        <ele>236</ele>
        <time>2011-12-11T10:25:48Z</time>
      </trkpt>
      <trkpt lat="43.54094" lon="6.67623">
        <ele>236</ele>
        <time>2011-12-11T10:25:49Z</time>
      </trkpt>
      <trkpt lat="43.54095" lon="6.67627">
        <ele>236</ele>
        <time>2011-12-11T10:25:50Z</time>
      </trkpt>
      <trkpt lat="43.54097" lon="6.67631">
        <ele>236</ele>
        <time>2011-12-11T10:25:51Z</time>
      </trkpt>
      <trkpt lat="43.54098" lon="6.67636">
        <ele>236</ele>
        <time>2011-12-11T10:25:52Z</time>
      </trkpt>
      <trkpt lat="43.54099" lon="6.67639">
        <ele>236</ele>
        <time>2011-12-11T10:25:53Z</time>
      </trkpt>
      <trkpt lat="43.54101" lon="6.67643">
        <ele>236</ele>
        <time>2011-12-11T10:25:54Z</time>
      </trkpt>
      <trkpt lat="43.54102" lon="6.67648">
        <ele>236</ele>
        <time>2011-12-11T10:25:55Z</time>
      </trkpt>
      <trkpt lat="43.54103" lon="6.67653">
        <ele>236</ele>
        <time>2011-12-11T10:25:56Z</time>
      </trkpt>
      <trkpt lat="43.54105" lon="6.67657">
        <ele>236</ele>
        <time>2011-12-11T10:25:57Z</time>
      </trkpt>
      <trkpt lat="43.54106" lon="6.67661">
        <ele>236</ele>
        <time>2011-12-11T10:25:58Z</time>
      </trkpt>
      <trkpt lat="43.54108" lon="6.67666">
        <ele>236</ele>
        <time>2011-12-11T10:25:59Z</time>
      </trkpt>
      <trkpt lat="43.5411" lon="6.6767">
        <ele>236</ele>
        <time>2011-12-11T10:26:00Z</time>
      </trkpt>
      <trkpt lat="43.54112" lon="6.67675">
        <ele>237</ele>
        <time>2011-12-11T10:26:01Z</time>
      </trkpt>
      <trkpt lat="43.54113" lon="6.67679">
        <ele>237</ele>
        <time>2011-12-11T10:26:02Z</time>
      </trkpt>
      <trkpt lat="43.54115" lon="6.67683">
        <ele>237</ele>
        <time>2011-12-11T10:26:03Z</time>
      </trkpt>
      <trkpt lat="43.54117" lon="6.67687">
        <ele>237</ele>
        <time>2011-12-11T10:26:04Z</time>
      </trkpt>
      <trkpt lat="43.54118" lon="6.67691">
        <ele>237</ele>
        <time>2011-12-11T10:26:05Z</time>
      </trkpt>
      <trkpt lat="43.5412" lon="6.67695">
        <ele>237</ele>
        <time>2011-12-11T10:26:06Z</time>
      </trkpt>
      <trkpt lat="43.54121" lon="6.67698">
        <ele>237</ele>
        <time>2011-12-11T10:26:07Z</time>
      </trkpt>
      <trkpt lat="43.54123" lon="6.67702">
        <ele>237</ele>
        <time>2011-12-11T10:26:08Z</time>
      </trkpt>
      <trkpt lat="43.54125" lon="6.67706">
        <ele>237</ele>
        <time>2011-12-11T10:26:09Z</time>
      </trkpt>
      <trkpt lat="43.54126" lon="6.6771">
        <ele>238</ele>
        <time>2011-12-11T10:26:10Z</time>
      </trkpt>
      <trkpt lat="43.54128" lon="6.67714">
        <ele>238</ele>
        <time>2011-12-11T10:26:11Z</time>
      </trkpt>
      <trkpt lat="43.5413" lon="6.67719">
        <ele>238</ele>
        <time>2011-12-11T10:26:12Z</time>
      </trkpt>
      <trkpt lat="43.54131" lon="6.67723">
        <ele>238</ele>
        <time>2011-12-11T10:26:13Z</time>
      </trkpt>
      <trkpt lat="43.54133" lon="6.67727">
        <ele>238</ele>
        <time>2011-12-11T10:26:14Z</time>
      </trkpt>
      <trkpt lat="43.54134" lon="6.67731">
        <ele>238</ele>
        <time>2011-12-11T10:26:15Z</time>
      </trkpt>
      <trkpt lat="43.54136" lon="6.67736">
        <ele>238</ele>
        <time>2011-12-11T10:26:16Z</time>
      </trkpt>
      <trkpt lat="43.54138" lon="6.6774">
        <ele>238</ele>
        <time>2011-12-11T10:26:17Z</time>
      </trkpt>
      <trkpt lat="43.54139" lon="6.67744">
        <ele>238</ele>
        <time>2011-12-11T10:26:18Z</time>
      </trkpt>
      <trkpt lat="43.54141" lon="6.67748">
        <ele>238</ele>
        <time>2011-12-11T10:26:19Z</time>
      </trkpt>
      <trkpt lat="43.54143" lon="6.67752">
        <ele>238</ele>
        <time>2011-12-11T10:26:20Z</time>
      </trkpt>
      <trkpt lat="43.54144" lon="6.67756">
        <ele>238</ele>
        <time>2011-12-11T10:26:21Z</time>
      </trkpt>
      <trkpt lat="43.54146" lon="6.6776">
        <ele>238</ele>
        <time>2011-12-11T10:26:22Z</time>
      </trkpt>
      <trkpt lat="43.54148" lon="6.67765">
        <ele>238</ele>
        <time>2011-12-11T10:26:23Z</time>
      </trkpt>
      <trkpt lat="43.54149" lon="6.67769">
        <ele>238</ele>
        <time>2011-12-11T10:26:24Z</time>
      </trkpt>
      <trkpt lat="43.54151" lon="6.67774">
        <ele>238</ele>
        <time>2011-12-11T10:26:25Z</time>
      </trkpt>
      <trkpt lat="43.54152" lon="6.67779">
        <ele>238</ele>
        <time>2011-12-11T10:26:26Z</time>
      </trkpt>
      <trkpt lat="43.54154" lon="6.67784">
        <ele>238</ele>
        <time>2011-12-11T10:26:27Z</time>
      </trkpt>
      <trkpt lat="43.54156" lon="6.67789">
        <ele>238</ele>
        <time>2011-12-11T10:26:28Z</time>
      </trkpt>
      <trkpt lat="43.54158" lon="6.67794">
        <ele>238</ele>
        <time>2011-12-11T10:26:29Z</time>
      </trkpt>
      <trkpt lat="43.54159" lon="6.67799">
        <ele>238</ele>
        <time>2011-12-11T10:26:30Z</time>
      </trkpt>
      <trkpt lat="43.54161" lon="6.67804">
        <ele>238</ele>
        <time>2011-12-11T10:26:31Z</time>
      </trkpt>
      <trkpt lat="43.54162" lon="6.6781">
        <ele>238</ele>
        <time>2011-12-11T10:26:32Z</time>
      </trkpt>
      <trkpt lat="43.54164" lon="6.67815">
        <ele>238</ele>
        <time>2011-12-11T10:26:33Z</time>
      </trkpt>
      <trkpt lat="43.54165" lon="6.67821">
        <ele>238</ele>
        <time>2011-12-11T10:26:34Z</time>
      </trkpt>
      <trkpt lat="43.54166" lon="6.67826">
        <ele>238</ele>
        <time>2011-12-11T10:26:35Z</time>
      </trkpt>
      <trkpt lat="43.54167" lon="6.67832">
        <ele>238</ele>
        <time>2011-12-11T10:26:36Z</time>
      </trkpt>
      <trkpt lat="43.54168" lon="6.67838">
        <ele>238</ele>
        <time>2011-12-11T10:26:37Z</time>
      </trkpt>
      <trkpt lat="43.54168" lon="6.67843">
        <ele>238</ele>
        <time>2011-12-11T10:26:38Z</time>
      </trkpt>
      <trkpt lat="43.54168" lon="6.67849">
        <ele>238</ele>
        <time>2011-12-11T10:26:39Z</time>
      </trkpt>
      <trkpt lat="43.54167" lon="6.67855">
        <ele>238</ele>
        <time>2011-12-11T10:26:40Z</time>
      </trkpt>
      <trkpt lat="43.54167" lon="6.67861">
        <ele>238</ele>
        <time>2011-12-11T10:26:41Z</time>
      </trkpt>
      <trkpt lat="43.54166" lon="6.67867">
        <ele>238</ele>
        <time>2011-12-11T10:26:42Z</time>
      </trkpt>
      <trkpt lat="43.54165" lon="6.67873">
        <ele>238</ele>
        <time>2011-12-11T10:26:43Z</time>
      </trkpt>
      <trkpt lat="43.54163" lon="6.67878">
        <ele>238</ele>
        <time>2011-12-11T10:26:44Z</time>
      </trkpt>
      <trkpt lat="43.54162" lon="6.67884">
        <ele>238</ele>
        <time>2011-12-11T10:26:45Z</time>
      </trkpt>
      <trkpt lat="43.54162" lon="6.6789">
        <ele>238</ele>
        <time>2011-12-11T10:26:46Z</time>
      </trkpt>
      <trkpt lat="43.54161" lon="6.67895">
        <ele>238</ele>
        <time>2011-12-11T10:26:47Z</time>
      </trkpt>
      <trkpt lat="43.54161" lon="6.679">
        <ele>239</ele>
        <time>2011-12-11T10:26:48Z</time>
      </trkpt>
      <trkpt lat="43.5416" lon="6.67906">
        <ele>239</ele>
        <time>2011-12-11T10:26:49Z</time>
      </trkpt>
      <trkpt lat="43.5416" lon="6.67911">
        <ele>239</ele>
        <time>2011-12-11T10:26:50Z</time>
      </trkpt>
      <trkpt lat="43.5416" lon="6.67916">
        <ele>239</ele>
        <time>2011-12-11T10:26:51Z</time>
      </trkpt>
      <trkpt lat="43.5416" lon="6.67921">
        <ele>239</ele>
        <time>2011-12-11T10:26:52Z</time>
      </trkpt>
      <trkpt lat="43.5416" lon="6.67926">
        <ele>239</ele>
        <time>2011-12-11T10:26:53Z</time>
      </trkpt>
      <trkpt lat="43.5416" lon="6.67932">
        <ele>239</ele>
        <time>2011-12-11T10:26:54Z</time>
      </trkpt>
      <trkpt lat="43.5416" lon="6.67936">
        <ele>239</ele>
        <time>2011-12-11T10:26:55Z</time>
      </trkpt>
      <trkpt lat="43.5416" lon="6.67938">
        <ele>239</ele>
        <time>2011-12-11T10:26:56Z</time>
      </trkpt>
      <trkpt lat="43.54159" lon="6.67942">
        <ele>240</ele>
        <time>2011-12-11T10:26:57Z</time>
      </trkpt>
      <trkpt lat="43.54158" lon="6.67946">
        <ele>240</ele>
        <time>2011-12-11T10:26:58Z</time>
      </trkpt>
      <trkpt lat="43.54158" lon="6.6795">
        <ele>240</ele>
        <time>2011-12-11T10:26:59Z</time>
      </trkpt>
      <trkpt lat="43.54157" lon="6.67954">
        <ele>241</ele>
        <time>2011-12-11T10:27:00Z</time>
      </trkpt>
      <trkpt lat="43.54157" lon="6.67958">
        <ele>241</ele>
        <time>2011-12-11T10:27:01Z</time>
      </trkpt>
      <trkpt lat="43.54156" lon="6.67963">
        <ele>242</ele>
        <time>2011-12-11T10:27:02Z</time>
      </trkpt>
      <trkpt lat="43.54155" lon="6.67967">
        <ele>242</ele>
        <time>2011-12-11T10:27:03Z</time>
      </trkpt>
      <trkpt lat="43.54155" lon="6.67971">
        <ele>242</ele>
        <time>2011-12-11T10:27:04Z</time>
      </trkpt>
      <trkpt lat="43.54155" lon="6.67976">
        <ele>242</ele>
        <time>2011-12-11T10:27:05Z</time>
      </trkpt>
      <trkpt lat="43.54155" lon="6.67981">
        <ele>243</ele>
        <time>2011-12-11T10:27:06Z</time>
      </trkpt>
      <trkpt lat="43.54155" lon="6.67985">
        <ele>243</ele>
        <time>2011-12-11T10:27:07Z</time>
      </trkpt>
      <trkpt lat="43.54155" lon="6.6799">
        <ele>243</ele>
        <time>2011-12-11T10:27:08Z</time>
      </trkpt>
      <trkpt lat="43.54154" lon="6.67994">
        <ele>243</ele>
        <time>2011-12-11T10:27:09Z</time>
      </trkpt>
      <trkpt lat="43.54154" lon="6.67999">
        <ele>244</ele>
        <time>2011-12-11T10:27:10Z</time>
      </trkpt>
      <trkpt lat="43.54154" lon="6.68003">
        <ele>244</ele>
        <time>2011-12-11T10:27:11Z</time>
      </trkpt>
      <trkpt lat="43.54154" lon="6.68008">
        <ele>244</ele>
        <time>2011-12-11T10:27:12Z</time>
      </trkpt>
      <trkpt lat="43.54154" lon="6.68012">
        <ele>244</ele>
        <time>2011-12-11T10:27:13Z</time>
      </trkpt>
      <trkpt lat="43.54155" lon="6.68017">
        <ele>244</ele>
        <time>2011-12-11T10:27:14Z</time>
      </trkpt>
      <trkpt lat="43.54155" lon="6.68021">
        <ele>244</ele>
        <time>2011-12-11T10:27:15Z</time>
      </trkpt>
      <trkpt lat="43.54154" lon="6.68026">
        <ele>244</ele>
        <time>2011-12-11T10:27:16Z</time>
      </trkpt>
      <trkpt lat="43.54154" lon="6.68031">
        <ele>245</ele>
        <time>2011-12-11T10:27:17Z</time>
      </trkpt>
      <trkpt lat="43.54154" lon="6.68035">
        <ele>245</ele>
        <time>2011-12-11T10:27:18Z</time>
      </trkpt>
      <trkpt lat="43.54155" lon="6.6804">
        <ele>245</ele>
        <time>2011-12-11T10:27:19Z</time>
      </trkpt>
      <trkpt lat="43.54154" lon="6.68044">
        <ele>245</ele>
        <time>2011-12-11T10:27:20Z</time>
      </trkpt>
      <trkpt lat="43.54154" lon="6.68048">
        <ele>244</ele>
        <time>2011-12-11T10:27:21Z</time>
      </trkpt>
      <trkpt lat="43.54154" lon="6.68052">
        <ele>244</ele>
        <time>2011-12-11T10:27:22Z</time>
      </trkpt>
      <trkpt lat="43.54154" lon="6.68057">
        <ele>244</ele>
        <time>2011-12-11T10:27:23Z</time>
      </trkpt>
      <trkpt lat="43.54155" lon="6.68061">
        <ele>244</ele>
        <time>2011-12-11T10:27:24Z</time>
      </trkpt>
      <trkpt lat="43.54155" lon="6.68066">
        <ele>245</ele>
        <time>2011-12-11T10:27:25Z</time>
      </trkpt>
      <trkpt lat="43.54155" lon="6.6807">
        <ele>245</ele>
        <time>2011-12-11T10:27:26Z</time>
      </trkpt>
      <trkpt lat="43.54155" lon="6.68074">
        <ele>245</ele>
        <time>2011-12-11T10:27:27Z</time>
      </trkpt>
      <trkpt lat="43.54155" lon="6.68079">
        <ele>245</ele>
        <time>2011-12-11T10:27:28Z</time>
      </trkpt>
      <trkpt lat="43.54155" lon="6.68083">
        <ele>245</ele>
        <time>2011-12-11T10:27:29Z</time>
      </trkpt>
      <trkpt lat="43.54155" lon="6.68087">
        <ele>246</ele>
        <time>2011-12-11T10:27:30Z</time>
      </trkpt>
      <trkpt lat="43.54155" lon="6.68092">
        <ele>246</ele>
        <time>2011-12-11T10:27:31Z</time>
      </trkpt>
      <trkpt lat="43.54155" lon="6.68096">
        <ele>246</ele>
        <time>2011-12-11T10:27:32Z</time>
      </trkpt>
      <trkpt lat="43.54154" lon="6.681">
        <ele>246</ele>
        <time>2011-12-11T10:27:33Z</time>
      </trkpt>
      <trkpt lat="43.54154" lon="6.68105">
        <ele>246</ele>
        <time>2011-12-11T10:27:34Z</time>
      </trkpt>
      <trkpt lat="43.54154" lon="6.6811">
        <ele>246</ele>
        <time>2011-12-11T10:27:35Z</time>
      </trkpt>
      <trkpt lat="43.54154" lon="6.68114">
        <ele>247</ele>
        <time>2011-12-11T10:27:36Z</time>
      </trkpt>
      <trkpt lat="43.54155" lon="6.68118">
        <ele>247</ele>
        <time>2011-12-11T10:27:37Z</time>
      </trkpt>
      <trkpt lat="43.54155" lon="6.68123">
        <ele>247</ele>
        <time>2011-12-11T10:27:38Z</time>
      </trkpt>
      <trkpt lat="43.54155" lon="6.68127">
        <ele>247</ele>
        <time>2011-12-11T10:27:39Z</time>
      </trkpt>
      <trkpt lat="43.54155" lon="6.68131">
        <ele>247</ele>
        <time>2011-12-11T10:27:40Z</time>
      </trkpt>
      <trkpt lat="43.54155" lon="6.68135">
        <ele>247</ele>
        <time>2011-12-11T10:27:41Z</time>
      </trkpt>
      <trkpt lat="43.54155" lon="6.6814">
        <ele>247</ele>
        <time>2011-12-11T10:27:42Z</time>
      </trkpt>
      <trkpt lat="43.54155" lon="6.68144">
        <ele>247</ele>
        <time>2011-12-11T10:27:43Z</time>
      </trkpt>
      <trkpt lat="43.54155" lon="6.68148">
        <ele>248</ele>
        <time>2011-12-11T10:27:44Z</time>
      </trkpt>
      <trkpt lat="43.54155" lon="6.68152">
        <ele>248</ele>
        <time>2011-12-11T10:27:45Z</time>
      </trkpt>
      <trkpt lat="43.54155" lon="6.68156">
        <ele>248</ele>
        <time>2011-12-11T10:27:46Z</time>
      </trkpt>
      <trkpt lat="43.54155" lon="6.6816">
        <ele>248</ele>
        <time>2011-12-11T10:27:47Z</time>
      </trkpt>
      <trkpt lat="43.54155" lon="6.68164">
        <ele>249</ele>
        <time>2011-12-11T10:27:48Z</time>
      </trkpt>
      <trkpt lat="43.54156" lon="6.68168">
        <ele>249</ele>
        <time>2011-12-11T10:27:49Z</time>
      </trkpt>
      <trkpt lat="43.54156" lon="6.68172">
        <ele>249</ele>
        <time>2011-12-11T10:27:50Z</time>
      </trkpt>
      <trkpt lat="43.54156" lon="6.68176">
        <ele>250</ele>
        <time>2011-12-11T10:27:51Z</time>
      </trkpt>
      <trkpt lat="43.54155" lon="6.6818">
        <ele>250</ele>
        <time>2011-12-11T10:27:52Z</time>
      </trkpt>
      <trkpt lat="43.54155" lon="6.68184">
        <ele>250</ele>
        <time>2011-12-11T10:27:53Z</time>
      </trkpt>
      <trkpt lat="43.54155" lon="6.68187">
        <ele>251</ele>
        <time>2011-12-11T10:27:54Z</time>
      </trkpt>
      <trkpt lat="43.54155" lon="6.68191">
        <ele>251</ele>
        <time>2011-12-11T10:27:55Z</time>
      </trkpt>
      <trkpt lat="43.54155" lon="6.68195">
        <ele>251</ele>
        <time>2011-12-11T10:27:56Z</time>
      </trkpt>
      <trkpt lat="43.54155" lon="6.68199">
        <ele>252</ele>
        <time>2011-12-11T10:27:57Z</time>
      </trkpt>
      <trkpt lat="43.54155" lon="6.68203">
        <ele>252</ele>
        <time>2011-12-11T10:27:58Z</time>
      </trkpt>
      <trkpt lat="43.54155" lon="6.68206">
        <ele>252</ele>
        <time>2011-12-11T10:27:59Z</time>
      </trkpt>
      <trkpt lat="43.54155" lon="6.6821">
        <ele>252</ele>
        <time>2011-12-11T10:28:00Z</time>
      </trkpt>
      <trkpt lat="43.54155" lon="6.68214">
        <ele>252</ele>
        <time>2011-12-11T10:28:01Z</time>
      </trkpt>
      <trkpt lat="43.54155" lon="6.68218">
        <ele>252</ele>
        <time>2011-12-11T10:28:02Z</time>
      </trkpt>
      <trkpt lat="43.54154" lon="6.68222">
        <ele>252</ele>
        <time>2011-12-11T10:28:03Z</time>
      </trkpt>
      <trkpt lat="43.54154" lon="6.68225">
        <ele>252</ele>
        <time>2011-12-11T10:28:04Z</time>
      </trkpt>
      <trkpt lat="43.54154" lon="6.68229">
        <ele>253</ele>
        <time>2011-12-11T10:28:05Z</time>
      </trkpt>
      <trkpt lat="43.54154" lon="6.68233">
        <ele>253</ele>
        <time>2011-12-11T10:28:06Z</time>
      </trkpt>
      <trkpt lat="43.54154" lon="6.68236">
        <ele>253</ele>
        <time>2011-12-11T10:28:07Z</time>
      </trkpt>
      <trkpt lat="43.54154" lon="6.6824">
        <ele>253</ele>
        <time>2011-12-11T10:28:08Z</time>
      </trkpt>
      <trkpt lat="43.54153" lon="6.68244">
        <ele>253</ele>
        <time>2011-12-11T10:28:09Z</time>
      </trkpt>
      <trkpt lat="43.54153" lon="6.68247">
        <ele>254</ele>
        <time>2011-12-11T10:28:10Z</time>
      </trkpt>
      <trkpt lat="43.54153" lon="6.68251">
        <ele>254</ele>
        <time>2011-12-11T10:28:11Z</time>
      </trkpt>
      <trkpt lat="43.54153" lon="6.68254">
        <ele>254</ele>
        <time>2011-12-11T10:28:12Z</time>
      </trkpt>
      <trkpt lat="43.54153" lon="6.68258">
        <ele>254</ele>
        <time>2011-12-11T10:28:13Z</time>
      </trkpt>
      <trkpt lat="43.54153" lon="6.68261">
        <ele>254</ele>
        <time>2011-12-11T10:28:14Z</time>
      </trkpt>
      <trkpt lat="43.54152" lon="6.68265">
        <ele>254</ele>
        <time>2011-12-11T10:28:15Z</time>
      </trkpt>
      <trkpt lat="43.54152" lon="6.68269">
        <ele>254</ele>
        <time>2011-12-11T10:28:16Z</time>
      </trkpt>
      <trkpt lat="43.54151" lon="6.68272">
        <ele>254</ele>
        <time>2011-12-11T10:28:17Z</time>
      </trkpt>
      <trkpt lat="43.54151" lon="6.68276">
        <ele>254</ele>
        <time>2011-12-11T10:28:18Z</time>
      </trkpt>
      <trkpt lat="43.5415" lon="6.68279">
        <ele>254</ele>
        <time>2011-12-11T10:28:19Z</time>
      </trkpt>
      <trkpt lat="43.54149" lon="6.68282">
        <ele>255</ele>
        <time>2011-12-11T10:28:20Z</time>
      </trkpt>
      <trkpt lat="43.54148" lon="6.68285">
        <ele>255</ele>
        <time>2011-12-11T10:28:21Z</time>
      </trkpt>
      <trkpt lat="43.54146" lon="6.68287">
        <ele>255</ele>
        <time>2011-12-11T10:28:22Z</time>
      </trkpt>
      <trkpt lat="43.54144" lon="6.6829">
        <ele>255</ele>
        <time>2011-12-11T10:28:23Z</time>
      </trkpt>
      <trkpt lat="43.54142" lon="6.68292">
        <ele>255</ele>
        <time>2011-12-11T10:28:24Z</time>
      </trkpt>
      <trkpt lat="43.54139" lon="6.68294">
        <ele>255</ele>
        <time>2011-12-11T10:28:25Z</time>
      </trkpt>
      <trkpt lat="43.54136" lon="6.68295">
        <ele>254</ele>
        <time>2011-12-11T10:28:26Z</time>
      </trkpt>
      <trkpt lat="43.54132" lon="6.68296">
        <ele>254</ele>
        <time>2011-12-11T10:28:27Z</time>
      </trkpt>
      <trkpt lat="43.54129" lon="6.68296">
        <ele>254</ele>
        <time>2011-12-11T10:28:28Z</time>
      </trkpt>
      <trkpt lat="43.54125" lon="6.68296">
        <ele>254</ele>
        <time>2011-12-11T10:28:29Z</time>
      </trkpt>
      <trkpt lat="43.54121" lon="6.68295">
        <ele>254</ele>
        <time>2011-12-11T10:28:30Z</time>
      </trkpt>
      <trkpt lat="43.54118" lon="6.68295">
        <ele>254</ele>
        <time>2011-12-11T10:28:31Z</time>
      </trkpt>
      <trkpt lat="43.54114" lon="6.68295">
        <ele>254</ele>
        <time>2011-12-11T10:28:32Z</time>
      </trkpt>
      <trkpt lat="43.54111" lon="6.68296">
        <ele>253</ele>
        <time>2011-12-11T10:28:33Z</time>
      </trkpt>
      <trkpt lat="43.54106" lon="6.68295">
        <ele>253</ele>
        <time>2011-12-11T10:28:34Z</time>
      </trkpt>
      <trkpt lat="43.54102" lon="6.68295">
        <ele>253</ele>
        <time>2011-12-11T10:28:35Z</time>
      </trkpt>
      <trkpt lat="43.54098" lon="6.68295">
        <ele>253</ele>
        <time>2011-12-11T10:28:36Z</time>
      </trkpt>
      <trkpt lat="43.54094" lon="6.68295">
        <ele>253</ele>
        <time>2011-12-11T10:28:37Z</time>
      </trkpt>
      <trkpt lat="43.54089" lon="6.68296">
        <ele>252</ele>
        <time>2011-12-11T10:28:38Z</time>
      </trkpt>
      <trkpt lat="43.54084" lon="6.68296">
        <ele>252</ele>
        <time>2011-12-11T10:28:39Z</time>
      </trkpt>
      <trkpt lat="43.54026" lon="6.68332">
        <ele>248</ele>
        <time>2011-12-11T10:28:49Z</time>
      </trkpt>
      <trkpt lat="43.53993" lon="6.68404">
        <ele>248</ele>
        <time>2011-12-11T10:28:59Z</time>
      </trkpt>
      <trkpt lat="43.5396" lon="6.68462">
        <ele>247</ele>
        <time>2011-12-11T10:29:09Z</time>
      </trkpt>
      <trkpt lat="43.53958" lon="6.68467">
        <ele>247</ele>
        <time>2011-12-11T10:29:10Z</time>
      </trkpt>
      <trkpt lat="43.53955" lon="6.68473">
        <ele>247</ele>
        <time>2011-12-11T10:29:11Z</time>
      </trkpt>
      <trkpt lat="43.53952" lon="6.68479">
        <ele>247</ele>
        <time>2011-12-11T10:29:12Z</time>
      </trkpt>
      <trkpt lat="43.5395" lon="6.68484">
        <ele>247</ele>
        <time>2011-12-11T10:29:13Z</time>
      </trkpt>
      <trkpt lat="43.53946" lon="6.6849">
        <ele>247</ele>
        <time>2011-12-11T10:29:14Z</time>
      </trkpt>
      <trkpt lat="43.53943" lon="6.68495">
        <ele>247</ele>
        <time>2011-12-11T10:29:15Z</time>
      </trkpt>
      <trkpt lat="43.53939" lon="6.685">
        <ele>247</ele>
        <time>2011-12-11T10:29:16Z</time>
      </trkpt>
      <trkpt lat="43.53935" lon="6.68504">
        <ele>246</ele>
        <time>2011-12-11T10:29:17Z</time>
      </trkpt>
      <trkpt lat="43.53931" lon="6.68508">
        <ele>246</ele>
        <time>2011-12-11T10:29:18Z</time>
      </trkpt>
      <trkpt lat="43.53927" lon="6.68513">
        <ele>246</ele>
        <time>2011-12-11T10:29:19Z</time>
      </trkpt>
      <trkpt lat="43.53923" lon="6.68517">
        <ele>246</ele>
        <time>2011-12-11T10:29:20Z</time>
      </trkpt>
      <trkpt lat="43.53919" lon="6.68521">
        <ele>245</ele>
        <time>2011-12-11T10:29:21Z</time>
      </trkpt>
      <trkpt lat="43.53916" lon="6.68526">
        <ele>245</ele>
        <time>2011-12-11T10:29:22Z</time>
      </trkpt>
      <trkpt lat="43.53913" lon="6.6853">
        <ele>245</ele>
        <time>2011-12-11T10:29:23Z</time>
      </trkpt>
      <trkpt lat="43.5391" lon="6.68535">
        <ele>245</ele>
        <time>2011-12-11T10:29:24Z</time>
      </trkpt>
      <trkpt lat="43.53906" lon="6.6854">
        <ele>245</ele>
        <time>2011-12-11T10:29:25Z</time>
      </trkpt>
      <trkpt lat="43.53903" lon="6.68544">
        <ele>245</ele>
        <time>2011-12-11T10:29:26Z</time>
      </trkpt>
      <trkpt lat="43.539" lon="6.68549">
        <ele>245</ele>
        <time>2011-12-11T10:29:27Z</time>
      </trkpt>
      <trkpt lat="43.53897" lon="6.68554">
        <ele>245</ele>
        <time>2011-12-11T10:29:28Z</time>
      </trkpt>
      <trkpt lat="43.53894" lon="6.68559">
        <ele>245</ele>
        <time>2011-12-11T10:29:29Z</time>
      </trkpt>
      <trkpt lat="43.53891" lon="6.68564">
        <ele>245</ele>
        <time>2011-12-11T10:29:30Z</time>
      </trkpt>
      <trkpt lat="43.53889" lon="6.68568">
        <ele>245</ele>
        <time>2011-12-11T10:29:31Z</time>
      </trkpt>
      <trkpt lat="43.53886" lon="6.68572">
        <ele>245</ele>
        <time>2011-12-11T10:29:32Z</time>
      </trkpt>
      <trkpt lat="43.53885" lon="6.68574">
        <ele>245</ele>
        <time>2011-12-11T10:29:33Z</time>
      </trkpt>
      <trkpt lat="43.53883" lon="6.68576">
        <ele>245</ele>
        <time>2011-12-11T10:29:34Z</time>
      </trkpt>
      <trkpt lat="43.53882" lon="6.68578">
        <ele>245</ele>
        <time>2011-12-11T10:29:35Z</time>
      </trkpt>
      <trkpt lat="43.53882" lon="6.6858">
        <ele>245</ele>
        <time>2011-12-11T10:29:36Z</time>
      </trkpt>
      <trkpt lat="43.53881" lon="6.68582">
        <ele>245</ele>
        <time>2011-12-11T10:29:37Z</time>
      </trkpt>
      <trkpt lat="43.5388" lon="6.68584">
        <ele>244</ele>
        <time>2011-12-11T10:29:38Z</time>
      </trkpt>
      <trkpt lat="43.5388" lon="6.68586">
        <ele>244</ele>
        <time>2011-12-11T10:29:39Z</time>
      </trkpt>
      <trkpt lat="43.53882" lon="6.68588">
        <ele>244</ele>
        <time>2011-12-11T10:29:40Z</time>
      </trkpt>
      <trkpt lat="43.53883" lon="6.6859">
        <ele>244</ele>
        <time>2011-12-11T10:29:41Z</time>
      </trkpt>
      <trkpt lat="43.53885" lon="6.68591">
        <ele>244</ele>
        <time>2011-12-11T10:29:42Z</time>
      </trkpt>
      <trkpt lat="43.53887" lon="6.68593">
        <ele>244</ele>
        <time>2011-12-11T10:29:43Z</time>
      </trkpt>
      <trkpt lat="43.53889" lon="6.68594">
        <ele>245</ele>
        <time>2011-12-11T10:29:44Z</time>
      </trkpt>
      <trkpt lat="43.53891" lon="6.68595">
        <ele>245</ele>
        <time>2011-12-11T10:29:45Z</time>
      </trkpt>
      <trkpt lat="43.53893" lon="6.68596">
        <ele>245</ele>
        <time>2011-12-11T10:29:46Z</time>
      </trkpt>
      <trkpt lat="43.53896" lon="6.68597">
        <ele>245</ele>
        <time>2011-12-11T10:29:47Z</time>
      </trkpt>
      <trkpt lat="43.53898" lon="6.68598">
        <ele>245</ele>
        <time>2011-12-11T10:29:48Z</time>
      </trkpt>
      <trkpt lat="43.539" lon="6.68599">
        <ele>245</ele>
        <time>2011-12-11T10:29:49Z</time>
      </trkpt>
      <trkpt lat="43.53902" lon="6.686">
        <ele>245</ele>
        <time>2011-12-11T10:29:50Z</time>
      </trkpt>
      <trkpt lat="43.53903" lon="6.68602">
        <ele>245</ele>
        <time>2011-12-11T10:29:51Z</time>
      </trkpt>
      <trkpt lat="43.53903" lon="6.68604">
        <ele>245</ele>
        <time>2011-12-11T10:29:52Z</time>
      </trkpt>
      <trkpt lat="43.53904" lon="6.68606">
        <ele>245</ele>
        <time>2011-12-11T10:29:53Z</time>
      </trkpt>
      <trkpt lat="43.53904" lon="6.68608">
        <ele>245</ele>
        <time>2011-12-11T10:29:54Z</time>
      </trkpt>
      <trkpt lat="43.53904" lon="6.6861">
        <ele>246</ele>
        <time>2011-12-11T10:29:55Z</time>
      </trkpt>
      <trkpt lat="43.53904" lon="6.68612">
        <ele>246</ele>
        <time>2011-12-11T10:29:56Z</time>
      </trkpt>
      <trkpt lat="43.53904" lon="6.68613">
        <ele>246</ele>
        <time>2011-12-11T10:29:57Z</time>
      </trkpt>
      <trkpt lat="43.53904" lon="6.68614">
        <ele>245</ele>
        <time>2011-12-11T10:30:00Z</time>
      </trkpt>
      <trkpt lat="43.53904" lon="6.68614">
        <ele>245</ele>
        <time>2011-12-11T10:30:01Z</time>
      </trkpt>
      <trkpt lat="43.53903" lon="6.68615">
        <ele>244</ele>
        <time>2011-12-11T10:30:03Z</time>
      </trkpt>
      <trkpt lat="43.53903" lon="6.68615">
        <ele>244</ele>
        <time>2011-12-11T10:30:04Z</time>
      </trkpt>
      <trkpt lat="43.53903" lon="6.68615">
        <ele>244</ele>
        <time>2011-12-11T10:30:19Z</time>
      </trkpt>
      <trkpt lat="43.53903" lon="6.68615">
        <ele>244</ele>
        <time>2011-12-11T10:30:26Z</time>
      </trkpt>
      <trkpt lat="43.53903" lon="6.68615">
        <ele>244</ele>
        <time>2011-12-11T10:30:27Z</time>
      </trkpt>
      <trkpt lat="43.53903" lon="6.68615">
        <ele>244</ele>
        <time>2011-12-11T10:30:28Z</time>
      </trkpt>
      <trkpt lat="43.53901" lon="6.68615">
        <ele>244</ele>
        <time>2011-12-11T10:30:29Z</time>
      </trkpt>
    </trkseg>
  </trk>
</gpx>